<?xml version='1.0' encoding='UTF-8'?><gpx version="1.1" creator="JPX - https://github.com/jenetics/jpx" xmlns="http://www.topografix.com/GPX/1/1"><trk><trkseg><trkpt lat="43.77978449195941" lon="11.169675761355732"><ele>37.0</ele><time>2026-05-03T12:32:34Z</time></trkpt><trkpt lat="43.779667077599555" lon="11.169766775084037"><ele>37.0</ele><time>2026-05-03T12:32:36Z</time></trkpt><trkpt lat="43.77959790620784" lon="11.16983807790494"><ele>37.0</ele><time>2026-05-03T12:32:37Z</time></trkpt><trkpt lat="43.77953695661419" lon="11.169959179539266"><ele>37.0</ele><time>2026-05-03T12:32:38Z</time></trkpt><trkpt lat="43.77948995914511" lon="11.170129769546236"><ele>37.0</ele><time>2026-05-03T12:32:39Z</time></trkpt><trkpt lat="43.77947640574635" lon="11.170339331415738"><ele>37.0</ele><time>2026-05-03T12:32:40Z</time></trkpt><trkpt lat="43.77951950258279" lon="11.170555396310258"><ele>37.0</ele><time>2026-05-03T12:32:41Z</time></trkpt><trkpt lat="43.77960675429608" lon="11.17075723308035"><ele>37.0</ele><time>2026-05-03T12:32:42Z</time></trkpt><trkpt lat="43.77971663197227" lon="11.170952085905991"><ele>37.0</ele><time>2026-05-03T12:32:43Z</time></trkpt><trkpt lat="43.77978656431898" lon="11.17113734255601"><ele>37.0</ele><time>2026-05-03T12:32:44Z</time></trkpt><trkpt lat="43.7798076473984" lon="11.17130393555742"><ele>37.0</ele><time>2026-05-03T12:32:45Z</time></trkpt><trkpt lat="43.77980249758673" lon="11.171457685219695"><ele>37.0</ele><time>2026-05-03T12:32:46Z</time></trkpt><trkpt lat="43.7797740419343" lon="11.171591226473726"><ele>37.0</ele><time>2026-05-03T12:32:47Z</time></trkpt><trkpt lat="43.77973856907989" lon="11.171692636131919"><ele>37.0</ele><time>2026-05-03T12:32:48Z</time></trkpt><trkpt lat="43.7797175519776" lon="11.171783469151773"><ele>37.0</ele><time>2026-05-03T12:32:51Z</time></trkpt><trkpt lat="43.77953170435251" lon="11.171714769794786"><ele>36.75</ele><time>2026-05-03T12:32:52Z</time></trkpt><trkpt lat="43.779427262376664" lon="11.171696918820345"><ele>36.5</ele><time>2026-05-03T12:32:53Z</time></trkpt><trkpt lat="43.77931094705955" lon="11.171693703079725"><ele>36.25</ele><time>2026-05-03T12:32:54Z</time></trkpt><trkpt lat="43.779191690423765" lon="11.171673092679473"><ele>36.0</ele><time>2026-05-03T12:32:55Z</time></trkpt><trkpt lat="43.779068295806226" lon="11.171654368924742"><ele>36.0</ele><time>2026-05-03T12:32:56Z</time></trkpt><trkpt lat="43.77894753474576" lon="11.171630512449834"><ele>36.0</ele><time>2026-05-03T12:32:57Z</time></trkpt><trkpt lat="43.77883642278237" lon="11.171612358262545"><ele>36.0</ele><time>2026-05-03T12:32:58Z</time></trkpt><trkpt lat="43.77873548964346" lon="11.171591537372494"><ele>36.0</ele><time>2026-05-03T12:32:59Z</time></trkpt><trkpt lat="43.77862944646136" lon="11.171641802260964"><ele>36.0</ele><time>2026-05-03T12:33:00Z</time></trkpt><trkpt lat="43.7785593146702" lon="11.171831580363373"><ele>36.0</ele><time>2026-05-03T12:33:01Z</time></trkpt><trkpt lat="43.778476248255664" lon="11.171991740578575"><ele>36.0</ele><time>2026-05-03T12:33:02Z</time></trkpt><trkpt lat="43.778361036357786" lon="11.17208730778048"><ele>36.0</ele><time>2026-05-03T12:33:03Z</time></trkpt><trkpt lat="43.778235191600466" lon="11.172188801035015"><ele>36.0</ele><time>2026-05-03T12:33:04Z</time></trkpt><trkpt lat="43.77810038817481" lon="11.17226531192272"><ele>36.0</ele><time>2026-05-03T12:33:05Z</time></trkpt><trkpt lat="43.77797775551187" lon="11.172353861526158"><ele>36.0</ele><time>2026-05-03T12:33:06Z</time></trkpt><trkpt lat="43.77786750017559" lon="11.172442715886763"><ele>36.0</ele><time>2026-05-03T12:33:07Z</time></trkpt><trkpt lat="43.777788055376284" lon="11.172570747665986"><ele>36.0</ele><time>2026-05-03T12:33:08Z</time></trkpt><trkpt lat="43.7777333562191" lon="11.17272261533195"><ele>36.25</ele><time>2026-05-03T12:33:09Z</time></trkpt><trkpt lat="43.77766064817178" lon="11.172862591763646"><ele>36.5</ele><time>2026-05-03T12:33:10Z</time></trkpt><trkpt lat="43.777576029620455" lon="11.172984685670961"><ele>36.75</ele><time>2026-05-03T12:33:11Z</time></trkpt><trkpt lat="43.77748781364479" lon="11.173105417761464"><ele>37.0</ele><time>2026-05-03T12:33:12Z</time></trkpt><trkpt lat="43.77736231349916" lon="11.17316564539158"><ele>37.25</ele><time>2026-05-03T12:33:13Z</time></trkpt><trkpt lat="43.77727459240889" lon="11.173293161314911"><ele>37.5</ele><time>2026-05-03T12:33:14Z</time></trkpt><trkpt lat="43.77719599351109" lon="11.173439620073124"><ele>37.75</ele><time>2026-05-03T12:33:15Z</time></trkpt><trkpt lat="43.77713359608862" lon="11.173595504703345"><ele>38.0</ele><time>2026-05-03T12:33:16Z</time></trkpt><trkpt lat="43.777072171323105" lon="11.173738979293901"><ele>38.0</ele><time>2026-05-03T12:33:17Z</time></trkpt><trkpt lat="43.777023819086395" lon="11.173889271733868"><ele>38.0</ele><time>2026-05-03T12:33:18Z</time></trkpt><trkpt lat="43.77699385212511" lon="11.174045589496524"><ele>38.0</ele><time>2026-05-03T12:33:19Z</time></trkpt><trkpt lat="43.77693667955189" lon="11.174186824183803"><ele>38.0</ele><time>2026-05-03T12:33:20Z</time></trkpt><trkpt lat="43.776895647350045" lon="11.174337654016751"><ele>38.0</ele><time>2026-05-03T12:33:21Z</time></trkpt><trkpt lat="43.77683401245534" lon="11.174475567950692"><ele>38.0</ele><time>2026-05-03T12:33:22Z</time></trkpt><trkpt lat="43.776772676676366" lon="11.174618960614453"><ele>38.0</ele><time>2026-05-03T12:33:23Z</time></trkpt><trkpt lat="43.776711274675236" lon="11.174766505100006"><ele>38.0</ele><time>2026-05-03T12:33:24Z</time></trkpt><trkpt lat="43.77664882314221" lon="11.174923010065756"><ele>37.75</ele><time>2026-05-03T12:33:25Z</time></trkpt><trkpt lat="43.77658492254127" lon="11.175089228937345"><ele>37.5</ele><time>2026-05-03T12:33:26Z</time></trkpt><trkpt lat="43.77651672879713" lon="11.175259096376879"><ele>37.25</ele><time>2026-05-03T12:33:27Z</time></trkpt><trkpt lat="43.776442550483765" lon="11.175432694949658"><ele>37.0</ele><time>2026-05-03T12:33:28Z</time></trkpt><trkpt lat="43.776364852613845" lon="11.175608663350875"><ele>37.0</ele><time>2026-05-03T12:33:29Z</time></trkpt><trkpt lat="43.7762852332775" lon="11.175790439034174"><ele>37.0</ele><time>2026-05-03T12:33:30Z</time></trkpt><trkpt lat="43.77619788230979" lon="11.175973693415877"><ele>37.0</ele><time>2026-05-03T12:33:31Z</time></trkpt><trkpt lat="43.77610604651885" lon="11.176147769767825"><ele>37.0</ele><time>2026-05-03T12:33:32Z</time></trkpt><trkpt lat="43.77602045919982" lon="11.176320573700542"><ele>37.0</ele><time>2026-05-03T12:33:33Z</time></trkpt><trkpt lat="43.77593847464905" lon="11.176488558666131"><ele>37.0</ele><time>2026-05-03T12:33:34Z</time></trkpt><trkpt lat="43.77585236143869" lon="11.176668595932997"><ele>36.66666666666667</ele><time>2026-05-03T12:33:35Z</time></trkpt><trkpt lat="43.77576360378987" lon="11.176852731491604"><ele>36.333333333333336</ele><time>2026-05-03T12:33:36Z</time></trkpt><trkpt lat="43.77566795722837" lon="11.177033921359394"><ele>36.0</ele><time>2026-05-03T12:33:37Z</time></trkpt><trkpt lat="43.77557993500376" lon="11.177227292358001"><ele>36.333333333333336</ele><time>2026-05-03T12:33:38Z</time></trkpt><trkpt lat="43.77548234595142" lon="11.177421498140179"><ele>36.66666666666667</ele><time>2026-05-03T12:33:39Z</time></trkpt><trkpt lat="43.77539274269955" lon="11.177628154391027"><ele>37.0</ele><time>2026-05-03T12:33:40Z</time></trkpt><trkpt lat="43.7752944409129" lon="11.177836356089648"><ele>37.0</ele><time>2026-05-03T12:33:41Z</time></trkpt><trkpt lat="43.77519465578157" lon="11.178038999655557"><ele>37.0</ele><time>2026-05-03T12:33:42Z</time></trkpt><trkpt lat="43.7750958065087" lon="11.178242780867256"><ele>37.0</ele><time>2026-05-03T12:33:43Z</time></trkpt><trkpt lat="43.774999991850855" lon="11.178451206733065"><ele>37.333333333333336</ele><time>2026-05-03T12:33:44Z</time></trkpt><trkpt lat="43.77491719258548" lon="11.178654743487394"><ele>37.666666666666664</ele><time>2026-05-03T12:33:45Z</time></trkpt><trkpt lat="43.77483727992801" lon="11.178897220088833"><ele>38.0</ele><time>2026-05-03T12:33:46Z</time></trkpt><trkpt lat="43.77476332722005" lon="11.179123380338217"><ele>37.33333333333333</ele><time>2026-05-03T12:33:47Z</time></trkpt><trkpt lat="43.77465763500153" lon="11.1793201531834"><ele>36.666666666666664</ele><time>2026-05-03T12:33:48Z</time></trkpt><trkpt lat="43.774549224345826" lon="11.179505572041752"><ele>36.0</ele><time>2026-05-03T12:33:49Z</time></trkpt><trkpt lat="43.774440384449775" lon="11.17970605413188"><ele>36.333333333333336</ele><time>2026-05-03T12:33:50Z</time></trkpt><trkpt lat="43.77433891226402" lon="11.179909477248726"><ele>36.66666666666667</ele><time>2026-05-03T12:33:51Z</time></trkpt><trkpt lat="43.77421707729111" lon="11.180097798909523"><ele>37.0</ele><time>2026-05-03T12:33:52Z</time></trkpt><trkpt lat="43.77409423009805" lon="11.180281645940918"><ele>37.0</ele><time>2026-05-03T12:33:53Z</time></trkpt><trkpt lat="43.77396719372543" lon="11.180467139431498"><ele>37.0</ele><time>2026-05-03T12:33:54Z</time></trkpt><trkpt lat="43.773849491956305" lon="11.180653949780925"><ele>37.0</ele><time>2026-05-03T12:33:55Z</time></trkpt><trkpt lat="43.773743353464766" lon="11.180853519447583"><ele>37.0</ele><time>2026-05-03T12:33:56Z</time></trkpt><trkpt lat="43.773640508153406" lon="11.181056370271971"><ele>37.0</ele><time>2026-05-03T12:33:57Z</time></trkpt><trkpt lat="43.773508757522904" lon="11.181225517599094"><ele>37.0</ele><time>2026-05-03T12:33:58Z</time></trkpt><trkpt lat="43.77338175603137" lon="11.181395558488985"><ele>37.333333333333336</ele><time>2026-05-03T12:33:59Z</time></trkpt><trkpt lat="43.773268316557555" lon="11.181572291616535"><ele>37.666666666666664</ele><time>2026-05-03T12:33:59.999Z</time></trkpt><trkpt lat="43.773143711870894" lon="11.181724436562797"><ele>38.0</ele><time>2026-05-03T12:34:00.999Z</time></trkpt><trkpt lat="43.7730267599862" lon="11.181866267273136"><ele>38.0</ele><time>2026-05-03T12:34:02Z</time></trkpt><trkpt lat="43.772917683106236" lon="11.181993301083867"><ele>38.0</ele><time>2026-05-03T12:34:02.999Z</time></trkpt><trkpt lat="43.772796482866674" lon="11.182099930984487"><ele>38.0</ele><time>2026-05-03T12:34:03.999Z</time></trkpt><trkpt lat="43.772692390079584" lon="11.182259781818866"><ele>38.0</ele><time>2026-05-03T12:34:04.999Z</time></trkpt><trkpt lat="43.77258048713687" lon="11.182417178411292"><ele>38.33333333333333</ele><time>2026-05-03T12:34:05.999Z</time></trkpt><trkpt lat="43.77247489133344" lon="11.182593522908196"><ele>38.666666666666664</ele><time>2026-05-03T12:34:06.999Z</time></trkpt><trkpt lat="43.77236911445713" lon="11.182769694575798"><ele>39.0</ele><time>2026-05-03T12:34:07.999Z</time></trkpt><trkpt lat="43.77226300681549" lon="11.182929738948504"><ele>39.0</ele><time>2026-05-03T12:34:08.999Z</time></trkpt><trkpt lat="43.77212608971341" lon="11.183037809076026"><ele>39.0</ele><time>2026-05-03T12:34:09.999Z</time></trkpt><trkpt lat="43.77199662204303" lon="11.183156227152105"><ele>39.0</ele><time>2026-05-03T12:34:10.999Z</time></trkpt><trkpt lat="43.77187289485522" lon="11.183294439408813"><ele>38.666666666666664</ele><time>2026-05-03T12:34:11.999Z</time></trkpt><trkpt lat="43.771745969634864" lon="11.183417536834815"><ele>38.33333333333333</ele><time>2026-05-03T12:34:12.999Z</time></trkpt><trkpt lat="43.7716196664841" lon="11.18354336894646"><ele>38.0</ele><time>2026-05-03T12:34:13.999Z</time></trkpt><trkpt lat="43.77149049861843" lon="11.183681736931819"><ele>38.0</ele><time>2026-05-03T12:34:14.999Z</time></trkpt><trkpt lat="43.771361885336795" lon="11.183827840559998"><ele>38.0</ele><time>2026-05-03T12:34:15.999Z</time></trkpt><trkpt lat="43.77122028634299" lon="11.183951942230216"><ele>38.0</ele><time>2026-05-03T12:34:16.999Z</time></trkpt><trkpt lat="43.771093515012055" lon="11.18409168178332"><ele>38.33333333333333</ele><time>2026-05-03T12:34:17.999Z</time></trkpt><trkpt lat="43.77098011244261" lon="11.184252455012748"><ele>38.666666666666664</ele><time>2026-05-03T12:34:18.999Z</time></trkpt><trkpt lat="43.77085493413871" lon="11.18439527279639"><ele>39.0</ele><time>2026-05-03T12:34:19.999Z</time></trkpt><trkpt lat="43.77075127066624" lon="11.184553084881953"><ele>39.0</ele><time>2026-05-03T12:34:20.999Z</time></trkpt><trkpt lat="43.77062343709424" lon="11.184642080782385"><ele>39.0</ele><time>2026-05-03T12:34:21.999Z</time></trkpt><trkpt lat="43.77048499696833" lon="11.184715866248391"><ele>39.0</ele><time>2026-05-03T12:34:22.999Z</time></trkpt><trkpt lat="43.77036017334088" lon="11.184841737825016"><ele>39.0</ele><time>2026-05-03T12:34:23.999Z</time></trkpt><trkpt lat="43.770224539118146" lon="11.184957121426134"><ele>39.666666666666664</ele><time>2026-05-03T12:34:24.999Z</time></trkpt><trkpt lat="43.77010953676875" lon="11.185090325613526"><ele>40.33333333333333</ele><time>2026-05-03T12:34:25.999Z</time></trkpt><trkpt lat="43.76997656942407" lon="11.185226223564793"><ele>41.0</ele><time>2026-05-03T12:34:26.999Z</time></trkpt><trkpt lat="43.769848139130964" lon="11.185360141440608"><ele>41.0</ele><time>2026-05-03T12:34:27.999Z</time></trkpt><trkpt lat="43.76971860136773" lon="11.18551749281531"><ele>41.0</ele><time>2026-05-03T12:34:28.999Z</time></trkpt><trkpt lat="43.76960901087906" lon="11.18569477344349"><ele>41.0</ele><time>2026-05-03T12:34:29.999Z</time></trkpt><trkpt lat="43.76948174031411" lon="11.185858544755186"><ele>41.0</ele><time>2026-05-03T12:34:30.999Z</time></trkpt><trkpt lat="43.769355843654864" lon="11.186023660384382"><ele>41.0</ele><time>2026-05-03T12:34:31.999Z</time></trkpt><trkpt lat="43.7692248627098" lon="11.186188830756718"><ele>41.0</ele><time>2026-05-03T12:34:32.999Z</time></trkpt><trkpt lat="43.76909205974736" lon="11.186353009866709"><ele>40.0</ele><time>2026-05-03T12:34:33.999Z</time></trkpt><trkpt lat="43.768962728142576" lon="11.186513685144314"><ele>39.0</ele><time>2026-05-03T12:34:34.999Z</time></trkpt><trkpt lat="43.768833317518926" lon="11.186678130777475"><ele>38.0</ele><time>2026-05-03T12:34:35.999Z</time></trkpt><trkpt lat="43.768705216568094" lon="11.18683508774733"><ele>38.0</ele><time>2026-05-03T12:34:36.999Z</time></trkpt><trkpt lat="43.7685843530858" lon="11.186985232218603"><ele>38.0</ele><time>2026-05-03T12:34:37.999Z</time></trkpt><trkpt lat="43.768467047876754" lon="11.187120672083857"><ele>38.0</ele><time>2026-05-03T12:34:38.999Z</time></trkpt><trkpt lat="43.76836373679299" lon="11.187241594922774"><ele>38.33333333333333</ele><time>2026-05-03T12:34:39.999Z</time></trkpt><trkpt lat="43.76827713036181" lon="11.187342556761878"><ele>38.666666666666664</ele><time>2026-05-03T12:34:40.999Z</time></trkpt><trkpt lat="43.768208321363446" lon="11.187423334395218"><ele>39.0</ele><time>2026-05-03T12:34:41.999Z</time></trkpt><trkpt lat="43.76815058665255" lon="11.187493972653941"><ele>39.333333333333336</ele><time>2026-05-03T12:34:42.999Z</time></trkpt><trkpt lat="43.76809794625835" lon="11.187557605171556"><ele>39.66666666666667</ele><time>2026-05-03T12:34:43.999Z</time></trkpt><trkpt lat="43.76804836425594" lon="11.187612365437385"><ele>40.0</ele><time>2026-05-03T12:34:44.999Z</time></trkpt><trkpt lat="43.767976232246475" lon="11.187700069294197"><ele>40.0</ele><time>2026-05-03T12:34:46.999Z</time></trkpt><trkpt lat="43.76791674661885" lon="11.18776079807517"><ele>40.0</ele><time>2026-05-03T12:34:48.999Z</time></trkpt><trkpt lat="43.76786525918038" lon="11.187818587924571"><ele>40.0</ele><time>2026-05-03T12:35:45.999Z</time></trkpt><trkpt lat="43.76777879604565" lon="11.187940680603493"><ele>40.0</ele><time>2026-05-03T12:35:47.999Z</time></trkpt><trkpt lat="43.767714720069016" lon="11.18802162014438"><ele>40.0</ele><time>2026-05-03T12:35:48.999Z</time></trkpt><trkpt lat="43.76764178444337" lon="11.188102823251164"><ele>40.0</ele><time>2026-05-03T12:35:49.999Z</time></trkpt><trkpt lat="43.76756381291657" lon="11.188169135558287"><ele>40.16666666666667</ele><time>2026-05-03T12:35:50.999Z</time></trkpt><trkpt lat="43.76748908185155" lon="11.188231388252895"><ele>40.333333333333336</ele><time>2026-05-03T12:35:51.999Z</time></trkpt><trkpt lat="43.76741809592188" lon="11.188292633739636"><ele>40.5</ele><time>2026-05-03T12:35:52.999Z</time></trkpt><trkpt lat="43.76735744390262" lon="11.18834920325627"><ele>40.666666666666664</ele><time>2026-05-03T12:35:53.999Z</time></trkpt><trkpt lat="43.76726759494135" lon="11.188428903858462"><ele>40.83333333333333</ele><time>2026-05-03T12:35:55.999Z</time></trkpt><trkpt lat="43.767193853126535" lon="11.188494875373223"><ele>41.0</ele><time>2026-05-03T12:35:57.999Z</time></trkpt><trkpt lat="43.767116887289504" lon="11.188550144861598"><ele>41.0</ele><time>2026-05-03T12:35:59.999Z</time></trkpt><trkpt lat="43.76704885671468" lon="11.188571992789033"><ele>41.0</ele><time>2026-05-03T12:36:01.999Z</time></trkpt><trkpt lat="43.76697452671549" lon="11.188371765480094"><ele>41.0</ele><time>2026-05-03T12:36:04.999Z</time></trkpt><trkpt lat="43.7669471378155" lon="11.188274215103075"><ele>41.0</ele><time>2026-05-03T12:36:05.999Z</time></trkpt><trkpt lat="43.76691096352708" lon="11.188169071636999"><ele>41.0</ele><time>2026-05-03T12:36:06.999Z</time></trkpt><trkpt lat="43.766865914023235" lon="11.188048037143512"><ele>41.0</ele><time>2026-05-03T12:36:07.999Z</time></trkpt><trkpt lat="43.76681371620133" lon="11.18792919791855"><ele>41.0</ele><time>2026-05-03T12:36:08.999Z</time></trkpt><trkpt lat="43.76677690051648" lon="11.187798010596806"><ele>41.0</ele><time>2026-05-03T12:36:09.999Z</time></trkpt><trkpt lat="43.76671360122709" lon="11.187689929971025"><ele>41.0</ele><time>2026-05-03T12:36:10.999Z</time></trkpt><trkpt lat="43.766664363192014" lon="11.187581891356906"><ele>41.0</ele><time>2026-05-03T12:36:11.999Z</time></trkpt><trkpt lat="43.76661698610238" lon="11.187465596453805"><ele>40.83333333333333</ele><time>2026-05-03T12:36:12.999Z</time></trkpt><trkpt lat="43.76656415610007" lon="11.187342422098832"><ele>40.666666666666664</ele><time>2026-05-03T12:36:13.999Z</time></trkpt><trkpt lat="43.766517130646236" lon="11.18722665403699"><ele>40.5</ele><time>2026-05-03T12:36:14.999Z</time></trkpt><trkpt lat="43.766476913927654" lon="11.187129435226908"><ele>40.333333333333336</ele><time>2026-05-03T12:36:15.999Z</time></trkpt><trkpt lat="43.76643854965691" lon="11.187044609450654"><ele>40.16666666666667</ele><time>2026-05-03T12:36:16.999Z</time></trkpt><trkpt lat="43.76640349232248" lon="11.186963655442495"><ele>40.0</ele><time>2026-05-03T12:36:17.999Z</time></trkpt><trkpt lat="43.76637106756224" lon="11.186887885892359"><ele>40.0</ele><time>2026-05-03T12:36:18.999Z</time></trkpt><trkpt lat="43.76631329965467" lon="11.186761801733043"><ele>40.0</ele><time>2026-05-03T12:36:20.999Z</time></trkpt><trkpt lat="43.76626196169937" lon="11.186621869147372"><ele>40.0</ele><time>2026-05-03T12:36:22.999Z</time></trkpt><trkpt lat="43.76620932272787" lon="11.186516571329268"><ele>40.0</ele><time>2026-05-03T12:36:24.999Z</time></trkpt><trkpt lat="43.766050169723464" lon="11.186527271497038"><ele>40.4</ele><time>2026-05-03T12:36:28Z</time></trkpt><trkpt lat="43.76598417720799" lon="11.18657616393409"><ele>40.8</ele><time>2026-05-03T12:36:29Z</time></trkpt><trkpt lat="43.765918130548926" lon="11.186615201939544"><ele>41.2</ele><time>2026-05-03T12:36:30Z</time></trkpt><trkpt lat="43.76586558603995" lon="11.186674131468015"><ele>41.6</ele><time>2026-05-03T12:36:31Z</time></trkpt><trkpt lat="43.76577819500037" lon="11.18679299442662"><ele>42.0</ele><time>2026-05-03T12:36:33Z</time></trkpt><trkpt lat="43.76570638431982" lon="11.1869134709516"><ele>42.0</ele><time>2026-05-03T12:36:35Z</time></trkpt><trkpt lat="43.76562816350364" lon="11.187006559007306"><ele>42.0</ele><time>2026-05-03T12:36:37Z</time></trkpt><trkpt lat="43.76554173452856" lon="11.187124177325675"><ele>42.0</ele><time>2026-05-03T12:36:39Z</time></trkpt><trkpt lat="43.765479153618074" lon="11.187238492132805"><ele>42.0</ele><time>2026-05-03T12:36:40Z</time></trkpt><trkpt lat="43.76539267164305" lon="11.187341796722896"><ele>42.0</ele><time>2026-05-03T12:36:41Z</time></trkpt><trkpt lat="43.76530994345692" lon="11.18745807366447"><ele>42.25</ele><time>2026-05-03T12:36:42Z</time></trkpt><trkpt lat="43.76521675116019" lon="11.187589032435476"><ele>42.5</ele><time>2026-05-03T12:36:43Z</time></trkpt><trkpt lat="43.765129422210904" lon="11.18773539564957"><ele>42.75</ele><time>2026-05-03T12:36:44Z</time></trkpt><trkpt lat="43.765035720332065" lon="11.187873685133747"><ele>43.0</ele><time>2026-05-03T12:36:45Z</time></trkpt><trkpt lat="43.76493988004113" lon="11.188008568891581"><ele>43.0</ele><time>2026-05-03T12:36:46Z</time></trkpt><trkpt lat="43.76484461172668" lon="11.18813573230272"><ele>43.0</ele><time>2026-05-03T12:36:47Z</time></trkpt><trkpt lat="43.76474354044575" lon="11.188268793601189"><ele>43.0</ele><time>2026-05-03T12:36:48Z</time></trkpt><trkpt lat="43.764638185154006" lon="11.188407130169173"><ele>43.0</ele><time>2026-05-03T12:36:49Z</time></trkpt><trkpt lat="43.76452630492614" lon="11.188548033629143"><ele>43.0</ele><time>2026-05-03T12:36:50Z</time></trkpt><trkpt lat="43.764410719556544" lon="11.18870015952002"><ele>43.0</ele><time>2026-05-03T12:36:51Z</time></trkpt><trkpt lat="43.764290878368065" lon="11.188857460042694"><ele>43.0</ele><time>2026-05-03T12:36:52Z</time></trkpt><trkpt lat="43.76416438013094" lon="11.188991419926746"><ele>42.66666666666667</ele><time>2026-05-03T12:36:53Z</time></trkpt><trkpt lat="43.764052582375754" lon="11.189164303689115"><ele>42.333333333333336</ele><time>2026-05-03T12:36:54Z</time></trkpt><trkpt lat="43.7639390289576" lon="11.189299616122549"><ele>42.0</ele><time>2026-05-03T12:36:55Z</time></trkpt><trkpt lat="43.7638350209188" lon="11.189426869854131"><ele>42.0</ele><time>2026-05-03T12:36:56Z</time></trkpt><trkpt lat="43.76373203393699" lon="11.189546566554963"><ele>42.0</ele><time>2026-05-03T12:36:57Z</time></trkpt><trkpt lat="43.76363662735387" lon="11.189660639897463"><ele>42.0</ele><time>2026-05-03T12:36:58Z</time></trkpt><trkpt lat="43.76354638919468" lon="11.189772126648265"><ele>42.0</ele><time>2026-05-03T12:36:59Z</time></trkpt><trkpt lat="43.76345375874692" lon="11.18988038726253"><ele>41.8</ele><time>2026-05-03T12:37:00Z</time></trkpt><trkpt lat="43.7633554326269" lon="11.18998305652059"><ele>41.6</ele><time>2026-05-03T12:37:01Z</time></trkpt><trkpt lat="43.76325188899025" lon="11.190058557820352"><ele>41.4</ele><time>2026-05-03T12:37:02Z</time></trkpt><trkpt lat="43.76315220397157" lon="11.19009970384258"><ele>41.199999999999996</ele><time>2026-05-03T12:37:03Z</time></trkpt><trkpt lat="43.763062088569704" lon="11.19011386666825"><ele>41.0</ele><time>2026-05-03T12:37:04Z</time></trkpt><trkpt lat="43.762983926798896" lon="11.190116399002594"><ele>41.0</ele><time>2026-05-03T12:37:05Z</time></trkpt><trkpt lat="43.76290920369258" lon="11.190109920829807"><ele>41.0</ele><time>2026-05-03T12:37:06Z</time></trkpt><trkpt lat="43.76285407569682" lon="11.190064624704624"><ele>41.0</ele><time>2026-05-03T12:37:07Z</time></trkpt><trkpt lat="43.76274711925174" lon="11.190004904341242"><ele>41.0</ele><time>2026-05-03T12:37:09Z</time></trkpt><trkpt lat="43.76266680689323" lon="11.18996764479005"><ele>41.0</ele><time>2026-05-03T12:37:10Z</time></trkpt><trkpt lat="43.76260023776945" lon="11.189874217310823"><ele>41.0</ele><time>2026-05-03T12:37:11Z</time></trkpt><trkpt lat="43.7625145651137" lon="11.189860280917099"><ele>41.0</ele><time>2026-05-03T12:37:12Z</time></trkpt><trkpt lat="43.76244106417872" lon="11.18986031797233"><ele>41.0</ele><time>2026-05-03T12:37:13Z</time></trkpt><trkpt lat="43.76237212698143" lon="11.189907058656154"><ele>41.0</ele><time>2026-05-03T12:37:14Z</time></trkpt><trkpt lat="43.7623151590231" lon="11.189984853099073"><ele>41.0</ele><time>2026-05-03T12:37:15Z</time></trkpt><trkpt lat="43.76227720438166" lon="11.190103480512281"><ele>41.0</ele><time>2026-05-03T12:37:16Z</time></trkpt><trkpt lat="43.76227579213145" lon="11.190241329283927"><ele>41.0</ele><time>2026-05-03T12:37:17Z</time></trkpt><trkpt lat="43.762293778886715" lon="11.190387238498857"><ele>41.0</ele><time>2026-05-03T12:37:18Z</time></trkpt><trkpt lat="43.76238485871991" lon="11.190516478380776"><ele>41.0</ele><time>2026-05-03T12:37:19Z</time></trkpt><trkpt lat="43.76247450734798" lon="11.190657432117554"><ele>41.0</ele><time>2026-05-03T12:37:20Z</time></trkpt><trkpt lat="43.76255410251847" lon="11.190828938875436"><ele>41.0</ele><time>2026-05-03T12:37:21Z</time></trkpt><trkpt lat="43.762605862724655" lon="11.191055595374344"><ele>41.0</ele><time>2026-05-03T12:37:22Z</time></trkpt><trkpt lat="43.76264111542853" lon="11.191318985185493"><ele>41.0</ele><time>2026-05-03T12:37:23Z</time></trkpt><trkpt lat="43.762681576148104" lon="11.191613271964377"><ele>41.0</ele><time>2026-05-03T12:37:24Z</time></trkpt><trkpt lat="43.7627406469113" lon="11.191932962545582"><ele>40.5</ele><time>2026-05-03T12:37:25Z</time></trkpt><trkpt lat="43.76280205451608" lon="11.192271751047809"><ele>40.0</ele><time>2026-05-03T12:37:26Z</time></trkpt><trkpt lat="43.762869422261154" lon="11.192623640817837"><ele>40.0</ele><time>2026-05-03T12:37:27Z</time></trkpt><trkpt lat="43.76293309741468" lon="11.192963256160366"><ele>40.0</ele><time>2026-05-03T12:37:28Z</time></trkpt><trkpt lat="43.762967399954405" lon="11.193311981153544"><ele>40.66666666666667</ele><time>2026-05-03T12:37:29Z</time></trkpt><trkpt lat="43.763007782003115" lon="11.193622738838606"><ele>41.333333333333336</ele><time>2026-05-03T12:37:30Z</time></trkpt><trkpt lat="43.76304341673037" lon="11.193917266680948"><ele>42.0</ele><time>2026-05-03T12:37:31Z</time></trkpt><trkpt lat="43.76308356307489" lon="11.194201236252049"><ele>42.0</ele><time>2026-05-03T12:37:32Z</time></trkpt><trkpt lat="43.763127976627054" lon="11.194470766472653"><ele>42.0</ele><time>2026-05-03T12:37:33Z</time></trkpt><trkpt lat="43.76318379293751" lon="11.194720214202283"><ele>42.0</ele><time>2026-05-03T12:37:34Z</time></trkpt><trkpt lat="43.763253407053455" lon="11.19497433476172"><ele>41.666666666666664</ele><time>2026-05-03T12:37:35Z</time></trkpt><trkpt lat="43.76330868164272" lon="11.195185050852267"><ele>41.33333333333333</ele><time>2026-05-03T12:37:36Z</time></trkpt><trkpt lat="43.76337293938819" lon="11.195373134248824"><ele>41.0</ele><time>2026-05-03T12:37:37Z</time></trkpt><trkpt lat="43.76341892675759" lon="11.195560193043125"><ele>41.0</ele><time>2026-05-03T12:37:38Z</time></trkpt><trkpt lat="43.763453574157296" lon="11.195736351054707"><ele>41.0</ele><time>2026-05-03T12:37:39Z</time></trkpt><trkpt lat="43.763470987168645" lon="11.195910648354975"><ele>41.0</ele><time>2026-05-03T12:37:40Z</time></trkpt><trkpt lat="43.76345324597798" lon="11.19608571712226"><ele>41.0</ele><time>2026-05-03T12:37:41Z</time></trkpt><trkpt lat="43.76340933088475" lon="11.196267157472557"><ele>41.0</ele><time>2026-05-03T12:37:42Z</time></trkpt><trkpt lat="43.76336287401365" lon="11.196458684395315"><ele>41.0</ele><time>2026-05-03T12:37:43Z</time></trkpt><trkpt lat="43.76330934733669" lon="11.196649644155777"><ele>41.0</ele><time>2026-05-03T12:37:44Z</time></trkpt><trkpt lat="43.76324285713279" lon="11.196842016126581"><ele>41.0</ele><time>2026-05-03T12:37:45Z</time></trkpt><trkpt lat="43.763157416051406" lon="11.19702571849005"><ele>41.0</ele><time>2026-05-03T12:37:46Z</time></trkpt><trkpt lat="43.76305587477469" lon="11.19720463267186"><ele>41.0</ele><time>2026-05-03T12:37:47Z</time></trkpt><trkpt lat="43.762951154272514" lon="11.19739223384823"><ele>41.0</ele><time>2026-05-03T12:37:48Z</time></trkpt><trkpt lat="43.76284076037919" lon="11.197577822712692"><ele>41.0</ele><time>2026-05-03T12:37:49Z</time></trkpt><trkpt lat="43.76273124780427" lon="11.197755127833847"><ele>41.0</ele><time>2026-05-03T12:37:50Z</time></trkpt><trkpt lat="43.76261515775646" lon="11.197925658083363"><ele>41.0</ele><time>2026-05-03T12:37:51Z</time></trkpt><trkpt lat="43.76249254514356" lon="11.19809740651985"><ele>41.0</ele><time>2026-05-03T12:37:52Z</time></trkpt><trkpt lat="43.76237454646594" lon="11.198269908535968"><ele>41.0</ele><time>2026-05-03T12:37:53Z</time></trkpt><trkpt lat="43.76225387971204" lon="11.198449030549181"><ele>41.0</ele><time>2026-05-03T12:37:54Z</time></trkpt><trkpt lat="43.76213354187174" lon="11.198634574153424"><ele>41.0</ele><time>2026-05-03T12:37:55Z</time></trkpt><trkpt lat="43.76200923101794" lon="11.198833674550228"><ele>41.0</ele><time>2026-05-03T12:37:56Z</time></trkpt><trkpt lat="43.761874263341575" lon="11.199028364354612"><ele>41.0</ele><time>2026-05-03T12:37:57Z</time></trkpt><trkpt lat="43.76173330156412" lon="11.199231947585822"><ele>41.33333333333333</ele><time>2026-05-03T12:37:58Z</time></trkpt><trkpt lat="43.76161282997122" lon="11.199422674801298"><ele>41.666666666666664</ele><time>2026-05-03T12:37:59Z</time></trkpt><trkpt lat="43.761500048365114" lon="11.199592339872611"><ele>42.0</ele><time>2026-05-03T12:38:00Z</time></trkpt><trkpt lat="43.76139405217683" lon="11.19975588574294"><ele>42.0</ele><time>2026-05-03T12:38:01Z</time></trkpt><trkpt lat="43.76130012082068" lon="11.199897887806673"><ele>42.0</ele><time>2026-05-03T12:38:02Z</time></trkpt><trkpt lat="43.76121056462365" lon="11.200026501943011"><ele>42.0</ele><time>2026-05-03T12:38:03Z</time></trkpt><trkpt lat="43.76112996873738" lon="11.20014669502176"><ele>42.0</ele><time>2026-05-03T12:38:04Z</time></trkpt><trkpt lat="43.76104561850749" lon="11.200238785055797"><ele>41.75</ele><time>2026-05-03T12:38:05Z</time></trkpt><trkpt lat="43.76094665439943" lon="11.200305374373825"><ele>41.5</ele><time>2026-05-03T12:38:06Z</time></trkpt><trkpt lat="43.760854715335256" lon="11.20039491734035"><ele>41.25</ele><time>2026-05-03T12:38:07Z</time></trkpt><trkpt lat="43.760778044333605" lon="11.200548382534038"><ele>41.0</ele><time>2026-05-03T12:38:08Z</time></trkpt><trkpt lat="43.7606846626769" lon="11.200740768038095"><ele>41.0</ele><time>2026-05-03T12:38:09Z</time></trkpt><trkpt lat="43.76054681485881" lon="11.200906284391618"><ele>41.0</ele><time>2026-05-03T12:38:10Z</time></trkpt><trkpt lat="43.76040572585111" lon="11.201083852989024"><ele>41.0</ele><time>2026-05-03T12:38:11Z</time></trkpt><trkpt lat="43.76032970134614" lon="11.20132468271273"><ele>42.0</ele><time>2026-05-03T12:38:12Z</time></trkpt><trkpt lat="43.76028542907875" lon="11.201570423279735"><ele>43.0</ele><time>2026-05-03T12:38:13Z</time></trkpt><trkpt lat="43.760285138919315" lon="11.201833853279767"><ele>44.0</ele><time>2026-05-03T12:38:14Z</time></trkpt><trkpt lat="43.760291132579674" lon="11.202098644264291"><ele>44.0</ele><time>2026-05-03T12:38:15Z</time></trkpt><trkpt lat="43.760295972010525" lon="11.20233610659278"><ele>44.0</ele><time>2026-05-03T12:38:16Z</time></trkpt><trkpt lat="43.76030397947785" lon="11.202545327337075"><ele>44.0</ele><time>2026-05-03T12:38:17Z</time></trkpt><trkpt lat="43.76028027210503" lon="11.202777653277648"><ele>44.0</ele><time>2026-05-03T12:38:18Z</time></trkpt><trkpt lat="43.760238198108574" lon="11.202880376958143"><ele>44.0</ele><time>2026-05-03T12:38:19Z</time></trkpt><trkpt lat="43.76017323493923" lon="11.202985361241202"><ele>44.0</ele><time>2026-05-03T12:38:20Z</time></trkpt><trkpt lat="43.76010175374768" lon="11.203059573677997"><ele>44.0</ele><time>2026-05-03T12:38:21Z</time></trkpt><trkpt lat="43.76000360636626" lon="11.203068827580267"><ele>44.0</ele><time>2026-05-03T12:38:22Z</time></trkpt><trkpt lat="43.75988262054364" lon="11.203073320292567"><ele>44.25</ele><time>2026-05-03T12:38:23Z</time></trkpt><trkpt lat="43.75973062213084" lon="11.203090662572462"><ele>44.5</ele><time>2026-05-03T12:38:24Z</time></trkpt><trkpt lat="43.75957245161626" lon="11.203091875158064"><ele>44.75</ele><time>2026-05-03T12:38:25Z</time></trkpt><trkpt lat="43.75943430037757" lon="11.203105375952049"><ele>45.0</ele><time>2026-05-03T12:38:26Z</time></trkpt><trkpt lat="43.75932513862988" lon="11.203112430120646"><ele>45.4</ele><time>2026-05-03T12:38:27Z</time></trkpt><trkpt lat="43.75923906637438" lon="11.203119774612025"><ele>45.8</ele><time>2026-05-03T12:38:28Z</time></trkpt><trkpt lat="43.75916205704438" lon="11.202979575046182"><ele>46.2</ele><time>2026-05-03T12:38:30Z</time></trkpt><trkpt lat="43.75909248112173" lon="11.202936298860507"><ele>46.6</ele><time>2026-05-03T12:38:31Z</time></trkpt><trkpt lat="43.759059295779345" lon="11.202742238000482"><ele>47.0</ele><time>2026-05-03T12:38:32Z</time></trkpt><trkpt lat="43.75899657231012" lon="11.202588057146057"><ele>47.0</ele><time>2026-05-03T12:38:33Z</time></trkpt><trkpt lat="43.75893441995955" lon="11.202415594228835"><ele>47.0</ele><time>2026-05-03T12:38:34Z</time></trkpt><trkpt lat="43.758879420759996" lon="11.202245365153937"><ele>47.0</ele><time>2026-05-03T12:38:35Z</time></trkpt><trkpt lat="43.75883588172141" lon="11.202085613266458"><ele>47.0</ele><time>2026-05-03T12:38:36Z</time></trkpt><trkpt lat="43.75879537214604" lon="11.20194072662103"><ele>47.2</ele><time>2026-05-03T12:38:37Z</time></trkpt><trkpt lat="43.75875172713794" lon="11.20180352559112"><ele>47.400000000000006</ele><time>2026-05-03T12:38:38Z</time></trkpt><trkpt lat="43.75870452715323" lon="11.20166428433224"><ele>47.599999999999994</ele><time>2026-05-03T12:38:39Z</time></trkpt><trkpt lat="43.758653520617415" lon="11.201524538929009"><ele>47.8</ele><time>2026-05-03T12:38:40Z</time></trkpt><trkpt lat="43.75859895627472" lon="11.201393876533821"><ele>48.0</ele><time>2026-05-03T12:38:41Z</time></trkpt><trkpt lat="43.75853363842459" lon="11.201257921866231"><ele>48.0</ele><time>2026-05-03T12:38:42Z</time></trkpt><trkpt lat="43.75845675094215" lon="11.201133003602168"><ele>48.0</ele><time>2026-05-03T12:38:43Z</time></trkpt><trkpt lat="43.758363616506806" lon="11.201011088014896"><ele>48.0</ele><time>2026-05-03T12:38:44Z</time></trkpt><trkpt lat="43.75826043674665" lon="11.20089948968009"><ele>48.0</ele><time>2026-05-03T12:38:45Z</time></trkpt><trkpt lat="43.75815373379812" lon="11.200783577432835"><ele>47.5</ele><time>2026-05-03T12:38:46Z</time></trkpt><trkpt lat="43.75804366463029" lon="11.200664555320616"><ele>47.0</ele><time>2026-05-03T12:38:47Z</time></trkpt><trkpt lat="43.75794136088493" lon="11.200554812136048"><ele>46.5</ele><time>2026-05-03T12:38:48Z</time></trkpt><trkpt lat="43.75784302427437" lon="11.20044767047198"><ele>46.0</ele><time>2026-05-03T12:38:49Z</time></trkpt><trkpt lat="43.75775698713696" lon="11.200328463356326"><ele>46.0</ele><time>2026-05-03T12:38:50Z</time></trkpt><trkpt lat="43.75768344759309" lon="11.200203683871589"><ele>46.0</ele><time>2026-05-03T12:38:51Z</time></trkpt><trkpt lat="43.757625646196665" lon="11.200079627620381"><ele>46.0</ele><time>2026-05-03T12:38:52Z</time></trkpt><trkpt lat="43.75757357261914" lon="11.199955170598203"><ele>46.0</ele><time>2026-05-03T12:38:53Z</time></trkpt><trkpt lat="43.75752216667819" lon="11.19983163985301"><ele>46.0</ele><time>2026-05-03T12:38:54Z</time></trkpt><trkpt lat="43.7574726664289" lon="11.199709466879652"><ele>46.199999999999996</ele><time>2026-05-03T12:38:55Z</time></trkpt><trkpt lat="43.757420172264574" lon="11.199588747496835"><ele>46.4</ele><time>2026-05-03T12:38:56Z</time></trkpt><trkpt lat="43.75736809595727" lon="11.19946636233935"><ele>46.6</ele><time>2026-05-03T12:38:57Z</time></trkpt><trkpt lat="43.75730919698434" lon="11.199353908487334"><ele>46.8</ele><time>2026-05-03T12:38:58Z</time></trkpt><trkpt lat="43.75726283235464" lon="11.19923764163145"><ele>47.0</ele><time>2026-05-03T12:38:59Z</time></trkpt><trkpt lat="43.75722548826682" lon="11.19912802566781"><ele>47.0</ele><time>2026-05-03T12:39:00Z</time></trkpt><trkpt lat="43.757187860698146" lon="11.19905033588675"><ele>47.0</ele><time>2026-05-03T12:39:01Z</time></trkpt><trkpt lat="43.75714426354647" lon="11.198948975289605"><ele>47.0</ele><time>2026-05-03T12:39:03Z</time></trkpt><trkpt lat="43.75711294565924" lon="11.198871115281129"><ele>47.0</ele><time>2026-05-03T12:39:09Z</time></trkpt><trkpt lat="43.75708046391405" lon="11.198791960229157"><ele>47.0</ele><time>2026-05-03T12:39:11Z</time></trkpt><trkpt lat="43.75702775931078" lon="11.198682867170978"><ele>47.0</ele><time>2026-05-03T12:39:13Z</time></trkpt><trkpt lat="43.75698969538942" lon="11.19859063391315"><ele>47.2</ele><time>2026-05-03T12:39:15Z</time></trkpt><trkpt lat="43.75686809382564" lon="11.198626884821723"><ele>47.400000000000006</ele><time>2026-05-03T12:39:17Z</time></trkpt><trkpt lat="43.75682478365044" lon="11.198701334111673"><ele>47.599999999999994</ele><time>2026-05-03T12:39:27Z</time></trkpt><trkpt lat="43.75673867929899" lon="11.198797185225104"><ele>47.8</ele><time>2026-05-03T12:39:30Z</time></trkpt><trkpt lat="43.7566657889892" lon="11.198856716933351"><ele>48.0</ele><time>2026-05-03T12:39:31Z</time></trkpt><trkpt lat="43.7565845193213" lon="11.1989447416774"><ele>47.75</ele><time>2026-05-03T12:39:32Z</time></trkpt><trkpt lat="43.756506063281435" lon="11.19905821991534"><ele>47.5</ele><time>2026-05-03T12:39:33Z</time></trkpt><trkpt lat="43.75640582796676" lon="11.199176683852386"><ele>47.25</ele><time>2026-05-03T12:39:34Z</time></trkpt><trkpt lat="43.75630556257868" lon="11.199313939915328"><ele>47.0</ele><time>2026-05-03T12:39:35Z</time></trkpt><trkpt lat="43.756201281160074" lon="11.19946050677511"><ele>47.0</ele><time>2026-05-03T12:39:36Z</time></trkpt><trkpt lat="43.75608603074606" lon="11.199615820809928"><ele>47.0</ele><time>2026-05-03T12:39:37Z</time></trkpt><trkpt lat="43.75596383236705" lon="11.19977935649427"><ele>47.0</ele><time>2026-05-03T12:39:38Z</time></trkpt><trkpt lat="43.75584261081962" lon="11.199927567626467"><ele>46.666666666666664</ele><time>2026-05-03T12:39:39Z</time></trkpt><trkpt lat="43.75571421539506" lon="11.200049573267455"><ele>46.333333333333336</ele><time>2026-05-03T12:39:40Z</time></trkpt><trkpt lat="43.75556243806039" lon="11.200118781267623"><ele>46.0</ele><time>2026-05-03T12:39:41Z</time></trkpt><trkpt lat="43.75540120031882" lon="11.20021873206046"><ele>46.0</ele><time>2026-05-03T12:39:42Z</time></trkpt><trkpt lat="43.75523460567728" lon="11.200280943898868"><ele>46.0</ele><time>2026-05-03T12:39:43Z</time></trkpt><trkpt lat="43.75508780350945" lon="11.200349920551515"><ele>46.0</ele><time>2026-05-03T12:39:44Z</time></trkpt><trkpt lat="43.75496634025238" lon="11.20041741222028"><ele>46.5</ele><time>2026-05-03T12:39:45Z</time></trkpt><trkpt lat="43.754856940703064" lon="11.200482850593279"><ele>47.0</ele><time>2026-05-03T12:39:46Z</time></trkpt><trkpt lat="43.754753542697244" lon="11.200548174546178"><ele>47.5</ele><time>2026-05-03T12:39:47Z</time></trkpt><trkpt lat="43.754646478700664" lon="11.20062117314664"><ele>48.0</ele><time>2026-05-03T12:39:48Z</time></trkpt><trkpt lat="43.75451276332225" lon="11.200693647369654"><ele>50.0</ele><time>2026-05-03T12:39:49Z</time></trkpt><trkpt lat="43.75435356613125" lon="11.200717290397531"><ele>52.0</ele><time>2026-05-03T12:39:50Z</time></trkpt><trkpt lat="43.75417638826425" lon="11.200707742393272"><ele>54.0</ele><time>2026-05-03T12:39:51Z</time></trkpt><trkpt lat="43.75399790281299" lon="11.200716645255731"><ele>54.0</ele><time>2026-05-03T12:39:52Z</time></trkpt><trkpt lat="43.75383128831249" lon="11.200729028810711"><ele>54.0</ele><time>2026-05-03T12:39:53Z</time></trkpt><trkpt lat="43.75367672767027" lon="11.200791759646918"><ele>54.0</ele><time>2026-05-03T12:39:54Z</time></trkpt><trkpt lat="43.75353391852615" lon="11.200889810674582"><ele>53.5</ele><time>2026-05-03T12:39:55Z</time></trkpt><trkpt lat="43.75339728188523" lon="11.200987615499495"><ele>53.0</ele><time>2026-05-03T12:39:56Z</time></trkpt><trkpt lat="43.7532890471035" lon="11.201111774654521"><ele>52.5</ele><time>2026-05-03T12:39:57Z</time></trkpt><trkpt lat="43.75320035480865" lon="11.201235529908786"><ele>52.0</ele><time>2026-05-03T12:39:58Z</time></trkpt><trkpt lat="43.753141697595645" lon="11.201364133899618"><ele>52.0</ele><time>2026-05-03T12:39:59Z</time></trkpt><trkpt lat="43.75311139717682" lon="11.201491920458826"><ele>52.0</ele><time>2026-05-03T12:40:00Z</time></trkpt><trkpt lat="43.75308127617178" lon="11.20162718002727"><ele>52.0</ele><time>2026-05-03T12:40:01Z</time></trkpt><trkpt lat="43.75303853721676" lon="11.20178536872778"><ele>52.0</ele><time>2026-05-03T12:40:02Z</time></trkpt><trkpt lat="43.752982746652435" lon="11.201975121339654"><ele>53.0</ele><time>2026-05-03T12:40:03Z</time></trkpt><trkpt lat="43.75294057653757" lon="11.202203114446208"><ele>54.0</ele><time>2026-05-03T12:40:04Z</time></trkpt><trkpt lat="43.75288976587942" lon="11.202413757713666"><ele>55.0</ele><time>2026-05-03T12:40:05Z</time></trkpt><trkpt lat="43.7528281235946" lon="11.202595853092577"><ele>55.0</ele><time>2026-05-03T12:40:06Z</time></trkpt><trkpt lat="43.75271892583129" lon="11.202714029146547"><ele>55.0</ele><time>2026-05-03T12:40:07Z</time></trkpt><trkpt lat="43.752586999747066" lon="11.202790199502772"><ele>55.0</ele><time>2026-05-03T12:40:08Z</time></trkpt><trkpt lat="43.75245317678565" lon="11.20289001013792"><ele>55.0</ele><time>2026-05-03T12:40:09Z</time></trkpt><trkpt lat="43.752319679156734" lon="11.202976410501465"><ele>54.75</ele><time>2026-05-03T12:40:10Z</time></trkpt><trkpt lat="43.7522279017887" lon="11.203094767076067"><ele>54.5</ele><time>2026-05-03T12:40:11Z</time></trkpt><trkpt lat="43.75217079572837" lon="11.203242054813362"><ele>54.25</ele><time>2026-05-03T12:40:12Z</time></trkpt><trkpt lat="43.75212855667716" lon="11.20339369432988"><ele>54.0</ele><time>2026-05-03T12:40:13Z</time></trkpt><trkpt lat="43.75208619031917" lon="11.20353781055807"><ele>54.0</ele><time>2026-05-03T12:40:14Z</time></trkpt><trkpt lat="43.75204673180063" lon="11.203686448018585"><ele>54.0</ele><time>2026-05-03T12:40:15Z</time></trkpt><trkpt lat="43.752012733544944" lon="11.20383359268793"><ele>54.0</ele><time>2026-05-03T12:40:16Z</time></trkpt><trkpt lat="43.75198507761351" lon="11.203982062529796"><ele>54.0</ele><time>2026-05-03T12:40:17Z</time></trkpt><trkpt lat="43.7519601506071" lon="11.204138440276598"><ele>53.800000000000004</ele><time>2026-05-03T12:40:18Z</time></trkpt><trkpt lat="43.75194095363919" lon="11.204296935315496"><ele>53.60000000000001</ele><time>2026-05-03T12:40:19Z</time></trkpt><trkpt lat="43.75192424116532" lon="11.204450059244477"><ele>53.4</ele><time>2026-05-03T12:40:20Z</time></trkpt><trkpt lat="43.751903154100276" lon="11.204591882717914"><ele>53.2</ele><time>2026-05-03T12:40:21Z</time></trkpt><trkpt lat="43.75187666060795" lon="11.204726997111019"><ele>53.0</ele><time>2026-05-03T12:40:22Z</time></trkpt><trkpt lat="43.751847842240885" lon="11.204860975940372"><ele>53.0</ele><time>2026-05-03T12:40:23Z</time></trkpt><trkpt lat="43.75181080427724" lon="11.204978525693537"><ele>53.0</ele><time>2026-05-03T12:40:24Z</time></trkpt><trkpt lat="43.75176329679346" lon="11.205094545034246"><ele>53.0</ele><time>2026-05-03T12:40:25Z</time></trkpt><trkpt lat="43.751710334844724" lon="11.205214923820229"><ele>53.0</ele><time>2026-05-03T12:40:26Z</time></trkpt><trkpt lat="43.75165463914849" lon="11.205322389205561"><ele>53.0</ele><time>2026-05-03T12:40:27Z</time></trkpt><trkpt lat="43.75160819669297" lon="11.205415234323091"><ele>53.0</ele><time>2026-05-03T12:40:28Z</time></trkpt><trkpt lat="43.751561569647386" lon="11.205512755524827"><ele>53.0</ele><time>2026-05-03T12:40:29Z</time></trkpt><trkpt lat="43.75151199403149" lon="11.20561960068352"><ele>53.0</ele><time>2026-05-03T12:40:30Z</time></trkpt><trkpt lat="43.75146131171864" lon="11.205735435247869"><ele>53.0</ele><time>2026-05-03T12:40:31Z</time></trkpt><trkpt lat="43.75140574685819" lon="11.205854857618743"><ele>53.0</ele><time>2026-05-03T12:40:32Z</time></trkpt><trkpt lat="43.75134430099611" lon="11.205976936167023"><ele>54.5</ele><time>2026-05-03T12:40:33Z</time></trkpt><trkpt lat="43.751278705651394" lon="11.206103391107328"><ele>56.0</ele><time>2026-05-03T12:40:34Z</time></trkpt><trkpt lat="43.75120974628841" lon="11.206228517272859"><ele>57.5</ele><time>2026-05-03T12:40:35Z</time></trkpt><trkpt lat="43.75113936541025" lon="11.206357248614536"><ele>59.0</ele><time>2026-05-03T12:40:36Z</time></trkpt><trkpt lat="43.75106029867462" lon="11.20648405508195"><ele>57.75</ele><time>2026-05-03T12:40:37Z</time></trkpt><trkpt lat="43.75096815978342" lon="11.20658787334062"><ele>56.5</ele><time>2026-05-03T12:40:38Z</time></trkpt><trkpt lat="43.75086752883194" lon="11.206678138447959"><ele>55.25</ele><time>2026-05-03T12:40:39Z</time></trkpt><trkpt lat="43.750760953449976" lon="11.206752655725403"><ele>54.0</ele><time>2026-05-03T12:40:40Z</time></trkpt><trkpt lat="43.750650877870356" lon="11.206817152187055"><ele>54.0</ele><time>2026-05-03T12:40:41Z</time></trkpt><trkpt lat="43.75054061323298" lon="11.20689172819856"><ele>54.0</ele><time>2026-05-03T12:40:42Z</time></trkpt><trkpt lat="43.750423265165026" lon="11.206971617689987"><ele>54.0</ele><time>2026-05-03T12:40:43Z</time></trkpt><trkpt lat="43.75030332015001" lon="11.207058603157794"><ele>54.0</ele><time>2026-05-03T12:40:44Z</time></trkpt><trkpt lat="43.75017555298305" lon="11.207150685172296"><ele>52.75</ele><time>2026-05-03T12:40:45Z</time></trkpt><trkpt lat="43.750049813225814" lon="11.207244608521458"><ele>51.5</ele><time>2026-05-03T12:40:46Z</time></trkpt><trkpt lat="43.749921959127924" lon="11.207336967265027"><ele>50.25</ele><time>2026-05-03T12:40:47Z</time></trkpt><trkpt lat="43.74979316120929" lon="11.20742949713025"><ele>49.0</ele><time>2026-05-03T12:40:48Z</time></trkpt><trkpt lat="43.74967489526724" lon="11.207524868841663"><ele>49.25</ele><time>2026-05-03T12:40:49Z</time></trkpt><trkpt lat="43.74954568018086" lon="11.207593479712257"><ele>49.5</ele><time>2026-05-03T12:40:50Z</time></trkpt><trkpt lat="43.74942480071297" lon="11.207676339085515"><ele>49.75</ele><time>2026-05-03T12:40:51Z</time></trkpt><trkpt lat="43.74931392165357" lon="11.20777472958335"><ele>50.0</ele><time>2026-05-03T12:40:52Z</time></trkpt><trkpt lat="43.74918956954949" lon="11.207843144269553"><ele>50.0</ele><time>2026-05-03T12:40:53Z</time></trkpt><trkpt lat="43.74905786684938" lon="11.20789626261147"><ele>50.0</ele><time>2026-05-03T12:40:54Z</time></trkpt><trkpt lat="43.74893022880454" lon="11.20793277169438"><ele>50.0</ele><time>2026-05-03T12:40:55Z</time></trkpt><trkpt lat="43.748800359007056" lon="11.207969048729723"><ele>50.0</ele><time>2026-05-03T12:40:56Z</time></trkpt><trkpt lat="43.748675701111615" lon="11.207999527157522"><ele>50.0</ele><time>2026-05-03T12:40:57Z</time></trkpt><trkpt lat="43.74856004479301" lon="11.208023538878635"><ele>50.0</ele><time>2026-05-03T12:40:58Z</time></trkpt><trkpt lat="43.74845126609141" lon="11.20804801128698"><ele>50.0</ele><time>2026-05-03T12:40:59Z</time></trkpt><trkpt lat="43.74834062240399" lon="11.208071349550586"><ele>50.0</ele><time>2026-05-03T12:41:00Z</time></trkpt><trkpt lat="43.74823723146526" lon="11.208094358757014"><ele>50.0</ele><time>2026-05-03T12:41:01Z</time></trkpt><trkpt lat="43.7481328032878" lon="11.208120646402065"><ele>50.0</ele><time>2026-05-03T12:41:02Z</time></trkpt><trkpt lat="43.74802521726556" lon="11.20814910587461"><ele>50.0</ele><time>2026-05-03T12:41:03Z</time></trkpt><trkpt lat="43.74791301394284" lon="11.208184270192413"><ele>50.0</ele><time>2026-05-03T12:41:04Z</time></trkpt><trkpt lat="43.74778643822364" lon="11.208194038042585"><ele>50.0</ele><time>2026-05-03T12:41:05Z</time></trkpt><trkpt lat="43.74762417649949" lon="11.20823441028914"><ele>51.0</ele><time>2026-05-03T12:41:06Z</time></trkpt><trkpt lat="43.74743158316487" lon="11.20828706311992"><ele>52.0</ele><time>2026-05-03T12:41:07Z</time></trkpt><trkpt lat="43.74719410525164" lon="11.208351119014402"><ele>53.0</ele><time>2026-05-03T12:41:08Z</time></trkpt><trkpt lat="43.74693731125908" lon="11.208416141432028"><ele>52.0</ele><time>2026-05-03T12:41:09Z</time></trkpt><trkpt lat="43.74669979530704" lon="11.208476282353471"><ele>51.0</ele><time>2026-05-03T12:41:10Z</time></trkpt><trkpt lat="43.746502368038094" lon="11.208526274457029"><ele>50.0</ele><time>2026-05-03T12:41:11Z</time></trkpt><trkpt lat="43.74633074820542" lon="11.208571505539146"><ele>50.0</ele><time>2026-05-03T12:41:12Z</time></trkpt><trkpt lat="43.74617692404412" lon="11.208621060229046"><ele>50.0</ele><time>2026-05-03T12:41:13Z</time></trkpt><trkpt lat="43.746000940941144" lon="11.208714284491736"><ele>50.0</ele><time>2026-05-03T12:41:14Z</time></trkpt><trkpt lat="43.74584723694911" lon="11.208809121561773"><ele>50.333333333333336</ele><time>2026-05-03T12:41:15Z</time></trkpt><trkpt lat="43.74569140542096" lon="11.208911228553314"><ele>50.66666666666667</ele><time>2026-05-03T12:41:16Z</time></trkpt><trkpt lat="43.74553669977027" lon="11.209027165900629"><ele>51.0</ele><time>2026-05-03T12:41:17Z</time></trkpt><trkpt lat="43.74539799196138" lon="11.209154589197217"><ele>51.0</ele><time>2026-05-03T12:41:18Z</time></trkpt><trkpt lat="43.74527971043556" lon="11.209318442471972"><ele>51.0</ele><time>2026-05-03T12:41:19Z</time></trkpt><trkpt lat="43.745167607850064" lon="11.209499751488927"><ele>51.0</ele><time>2026-05-03T12:41:20Z</time></trkpt><trkpt lat="43.74507772917521" lon="11.209717019843607"><ele>51.33333333333333</ele><time>2026-05-03T12:41:21Z</time></trkpt><trkpt lat="43.74499320302145" lon="11.20995074523541"><ele>51.666666666666664</ele><time>2026-05-03T12:41:22Z</time></trkpt><trkpt lat="43.74490899918903" lon="11.210188503750512"><ele>52.0</ele><time>2026-05-03T12:41:23Z</time></trkpt><trkpt lat="43.74482641635578" lon="11.210423795337409"><ele>52.0</ele><time>2026-05-03T12:41:24Z</time></trkpt><trkpt lat="43.744740582994055" lon="11.210656462821545"><ele>52.0</ele><time>2026-05-03T12:41:25Z</time></trkpt><trkpt lat="43.744652332400975" lon="11.210887088289931"><ele>52.0</ele><time>2026-05-03T12:41:26Z</time></trkpt><trkpt lat="43.744565676830774" lon="11.211109151161708"><ele>52.666666666666664</ele><time>2026-05-03T12:41:27Z</time></trkpt><trkpt lat="43.74448118808429" lon="11.211339713979541"><ele>53.33333333333333</ele><time>2026-05-03T12:41:28Z</time></trkpt><trkpt lat="43.74440023636205" lon="11.211568449185739"><ele>54.0</ele><time>2026-05-03T12:41:29Z</time></trkpt><trkpt lat="43.74432301000433" lon="11.211799731831164"><ele>54.0</ele><time>2026-05-03T12:41:30Z</time></trkpt><trkpt lat="43.74424699666929" lon="11.212019898878529"><ele>54.0</ele><time>2026-05-03T12:41:31Z</time></trkpt><trkpt lat="43.744182582647305" lon="11.21221953864312"><ele>54.0</ele><time>2026-05-03T12:41:32Z</time></trkpt><trkpt lat="43.744109764449945" lon="11.212390992942915"><ele>56.25</ele><time>2026-05-03T12:41:33Z</time></trkpt><trkpt lat="43.7440685869097" lon="11.212560750790981"><ele>58.5</ele><time>2026-05-03T12:41:34Z</time></trkpt><trkpt lat="43.74401522235135" lon="11.212699925402692"><ele>60.75</ele><time>2026-05-03T12:41:35Z</time></trkpt><trkpt lat="43.74396293915534" lon="11.212829071232978"><ele>63.0</ele><time>2026-05-03T12:41:36Z</time></trkpt><trkpt lat="43.74389150330187" lon="11.212941742908693"><ele>63.0</ele><time>2026-05-03T12:41:37Z</time></trkpt><trkpt lat="43.74381856346474" lon="11.213082649908996"><ele>63.0</ele><time>2026-05-03T12:41:38Z</time></trkpt><trkpt lat="43.74374186489693" lon="11.213229299248287"><ele>63.0</ele><time>2026-05-03T12:41:39Z</time></trkpt><trkpt lat="43.74366491651089" lon="11.213390704576456"><ele>63.0</ele><time>2026-05-03T12:41:40Z</time></trkpt><trkpt lat="43.74357972372845" lon="11.213547378821362"><ele>61.75</ele><time>2026-05-03T12:41:41Z</time></trkpt><trkpt lat="43.743490900252745" lon="11.213702749023645"><ele>60.5</ele><time>2026-05-03T12:41:42Z</time></trkpt><trkpt lat="43.743391317577036" lon="11.21385254190875"><ele>59.25</ele><time>2026-05-03T12:41:43Z</time></trkpt><trkpt lat="43.74328190464507" lon="11.213995126646688"><ele>58.0</ele><time>2026-05-03T12:41:44Z</time></trkpt><trkpt lat="43.743175705963594" lon="11.21411669744127"><ele>58.0</ele><time>2026-05-03T12:41:45Z</time></trkpt><trkpt lat="43.74307074546025" lon="11.214204327275365"><ele>58.0</ele><time>2026-05-03T12:41:46Z</time></trkpt><trkpt lat="43.742999797624535" lon="11.214289652428091"><ele>58.0</ele><time>2026-05-03T12:41:47Z</time></trkpt><trkpt lat="43.74297727123451" lon="11.214418685169809"><ele>58.0</ele><time>2026-05-03T12:41:48Z</time></trkpt><trkpt lat="43.74299579621996" lon="11.214585625256957"><ele>58.0</ele><time>2026-05-03T12:41:49Z</time></trkpt><trkpt lat="43.74304355288892" lon="11.214772139023344"><ele>58.75</ele><time>2026-05-03T12:41:50Z</time></trkpt><trkpt lat="43.74310072107448" lon="11.214969243803973"><ele>59.5</ele><time>2026-05-03T12:41:51Z</time></trkpt><trkpt lat="43.743140826411086" lon="11.215155279165987"><ele>60.25</ele><time>2026-05-03T12:41:52Z</time></trkpt><trkpt lat="43.74317003667944" lon="11.215338364123753"><ele>61.0</ele><time>2026-05-03T12:41:53Z</time></trkpt><trkpt lat="43.74318812057158" lon="11.215520194843192"><ele>62.5</ele><time>2026-05-03T12:41:54Z</time></trkpt><trkpt lat="43.74319143070896" lon="11.21570935367877"><ele>64.0</ele><time>2026-05-03T12:41:55Z</time></trkpt><trkpt lat="43.743167684396354" lon="11.215900213265915"><ele>65.5</ele><time>2026-05-03T12:41:56Z</time></trkpt><trkpt lat="43.74315184670594" lon="11.21609986642067"><ele>67.0</ele><time>2026-05-03T12:41:57Z</time></trkpt><trkpt lat="43.74314957130585" lon="11.216287210138278"><ele>67.0</ele><time>2026-05-03T12:41:58Z</time></trkpt><trkpt lat="43.74313018922723" lon="11.216454358103322"><ele>67.0</ele><time>2026-05-03T12:41:59Z</time></trkpt><trkpt lat="43.743111714824984" lon="11.216608870917593"><ele>67.0</ele><time>2026-05-03T12:42:00Z</time></trkpt><trkpt lat="43.74309437715044" lon="11.216752281035209"><ele>67.0</ele><time>2026-05-03T12:42:01Z</time></trkpt><trkpt lat="43.74307636532919" lon="11.216873175270372"><ele>67.0</ele><time>2026-05-03T12:42:02Z</time></trkpt><trkpt lat="43.743064432662585" lon="11.216976698351301"><ele>68.0</ele><time>2026-05-03T12:42:03Z</time></trkpt><trkpt lat="43.74305376259975" lon="11.217074597170441"><ele>69.0</ele><time>2026-05-03T12:42:04Z</time></trkpt><trkpt lat="43.74304437239928" lon="11.217173411013476"><ele>70.0</ele><time>2026-05-03T12:42:05Z</time></trkpt><trkpt lat="43.743035548572664" lon="11.217278164337122"><ele>71.0</ele><time>2026-05-03T12:42:06Z</time></trkpt><trkpt lat="43.74302213441256" lon="11.217390906170358"><ele>72.0</ele><time>2026-05-03T12:42:07Z</time></trkpt><trkpt lat="43.743023916940295" lon="11.217513363891214"><ele>73.0</ele><time>2026-05-03T12:42:08Z</time></trkpt><trkpt lat="43.743026518605625" lon="11.217640585520227"><ele>73.33333333333333</ele><time>2026-05-03T12:42:09Z</time></trkpt><trkpt lat="43.74303269945599" lon="11.217769224992763"><ele>73.66666666666666</ele><time>2026-05-03T12:42:10Z</time></trkpt><trkpt lat="43.743038992824175" lon="11.217888937916085"><ele>74.0</ele><time>2026-05-03T12:42:11Z</time></trkpt><trkpt lat="43.74304370992612" lon="11.217982005178769"><ele>74.33333333333333</ele><time>2026-05-03T12:42:12Z</time></trkpt><trkpt lat="43.74305482923676" lon="11.218122332174797"><ele>74.66666666666667</ele><time>2026-05-03T12:42:14Z</time></trkpt><trkpt lat="43.74306907424687" lon="11.218240910146354"><ele>75.0</ele><time>2026-05-03T12:42:16Z</time></trkpt><trkpt lat="43.74308170525683" lon="11.218362597393742"><ele>74.33333333333333</ele><time>2026-05-03T12:42:18Z</time></trkpt><trkpt lat="43.74309861517574" lon="11.21851372712439"><ele>73.66666666666667</ele><time>2026-05-03T12:42:20Z</time></trkpt><trkpt lat="43.74309250348694" lon="11.218628318606262"><ele>73.0</ele><time>2026-05-03T12:42:21Z</time></trkpt><trkpt lat="43.743083937667755" lon="11.218754911544682"><ele>72.33333333333334</ele><time>2026-05-03T12:42:22Z</time></trkpt><trkpt lat="43.743077949460286" lon="11.21886544479534"><ele>71.66666666666667</ele><time>2026-05-03T12:42:23Z</time></trkpt><trkpt lat="43.7430689384483" lon="11.218963766441778"><ele>71.0</ele><time>2026-05-03T12:42:24Z</time></trkpt><trkpt lat="43.743050386491674" lon="11.219050125196592"><ele>70.6</ele><time>2026-05-03T12:42:25Z</time></trkpt><trkpt lat="43.74301865419382" lon="11.219133820645624"><ele>70.19999999999999</ele><time>2026-05-03T12:42:26Z</time></trkpt><trkpt lat="43.74297194541305" lon="11.219202002149393"><ele>69.80000000000001</ele><time>2026-05-03T12:42:27Z</time></trkpt><trkpt lat="43.74288357116145" lon="11.219268674801377"><ele>69.4</ele><time>2026-05-03T12:42:29Z</time></trkpt><trkpt lat="43.74275110379818" lon="11.219210361467544"><ele>69.0</ele><time>2026-05-03T12:42:31Z</time></trkpt><trkpt lat="43.7426760221147" lon="11.219161068920398"><ele>69.66666666666667</ele><time>2026-05-03T12:42:32Z</time></trkpt><trkpt lat="43.7425992837204" lon="11.219158375869311"><ele>70.33333333333333</ele><time>2026-05-03T12:42:33Z</time></trkpt><trkpt lat="43.74253829496074" lon="11.219189355374482"><ele>71.0</ele><time>2026-05-03T12:42:34Z</time></trkpt><trkpt lat="43.74244624574444" lon="11.219290861733871"><ele>71.66666666666666</ele><time>2026-05-03T12:42:36Z</time></trkpt><trkpt lat="43.742413027429826" lon="11.219382106394425"><ele>72.33333333333333</ele><time>2026-05-03T12:42:37Z</time></trkpt><trkpt lat="43.742400407501876" lon="11.219487723780738"><ele>73.0</ele><time>2026-05-03T12:42:38Z</time></trkpt><trkpt lat="43.74241363155698" lon="11.219591546921901"><ele>73.0</ele><time>2026-05-03T12:42:39Z</time></trkpt><trkpt lat="43.74243927514019" lon="11.219691063808241"><ele>73.0</ele><time>2026-05-03T12:42:40Z</time></trkpt><trkpt lat="43.7424647090222" lon="11.219801450691856"><ele>73.0</ele><time>2026-05-03T12:42:41Z</time></trkpt><trkpt lat="43.742486966225705" lon="11.219934959539955"><ele>73.0</ele><time>2026-05-03T12:42:42Z</time></trkpt><trkpt lat="43.74249243170494" lon="11.220067929918336"><ele>73.0</ele><time>2026-05-03T12:42:43Z</time></trkpt><trkpt lat="43.74249154344902" lon="11.220195581114286"><ele>73.0</ele><time>2026-05-03T12:42:44Z</time></trkpt><trkpt lat="43.74248390959519" lon="11.220332112772038"><ele>73.2</ele><time>2026-05-03T12:42:45Z</time></trkpt><trkpt lat="43.74247497167554" lon="11.220475586474926"><ele>73.4</ele><time>2026-05-03T12:42:46Z</time></trkpt><trkpt lat="43.74246870380119" lon="11.220622456229423"><ele>73.60000000000001</ele><time>2026-05-03T12:42:47Z</time></trkpt><trkpt lat="43.742461870675506" lon="11.22077085966091"><ele>73.8</ele><time>2026-05-03T12:42:48Z</time></trkpt><trkpt lat="43.74245632489533" lon="11.220921900996197"><ele>74.0</ele><time>2026-05-03T12:42:49Z</time></trkpt><trkpt lat="43.742449381781704" lon="11.221071005984992"><ele>74.0</ele><time>2026-05-03T12:42:50Z</time></trkpt><trkpt lat="43.742439283533294" lon="11.22122360022209"><ele>74.0</ele><time>2026-05-03T12:42:51Z</time></trkpt><trkpt lat="43.74242723725187" lon="11.22138986744852"><ele>74.0</ele><time>2026-05-03T12:42:52Z</time></trkpt><trkpt lat="43.74241552499162" lon="11.221553960302227"><ele>74.0</ele><time>2026-05-03T12:42:53Z</time></trkpt><trkpt lat="43.74240333650829" lon="11.22171802437355"><ele>77.25</ele><time>2026-05-03T12:42:54Z</time></trkpt><trkpt lat="43.74239175572365" lon="11.221881680418214"><ele>80.5</ele><time>2026-05-03T12:42:55Z</time></trkpt><trkpt lat="43.74237700719499" lon="11.222057370407603"><ele>83.75</ele><time>2026-05-03T12:42:56.075Z</time></trkpt><trkpt lat="43.74236110985846" lon="11.222218354639049"><ele>87.0</ele><time>2026-05-03T12:42:57.065Z</time></trkpt><trkpt lat="43.74225124616667" lon="11.223799948176863"><ele>83.33333333333333</ele><time>2026-05-03T12:43:07.575Z</time></trkpt><trkpt lat="43.74231519526253" lon="11.224234886232574"><ele>79.66666666666666</ele><time>2026-05-03T12:43:10Z</time></trkpt><trkpt lat="43.74230634043866" lon="11.224362892607544"><ele>76.0</ele><time>2026-05-03T12:43:11Z</time></trkpt><trkpt lat="43.74227905572758" lon="11.224521601414322"><ele>76.0</ele><time>2026-05-03T12:43:12Z</time></trkpt><trkpt lat="43.74223911867048" lon="11.224630779694575"><ele>76.0</ele><time>2026-05-03T12:43:13Z</time></trkpt><trkpt lat="43.742184661676035" lon="11.224740081741828"><ele>76.0</ele><time>2026-05-03T12:43:14Z</time></trkpt><trkpt lat="43.74210789598123" lon="11.224824587163186"><ele>76.0</ele><time>2026-05-03T12:43:15Z</time></trkpt><trkpt lat="43.74198954280227" lon="11.224844143742194"><ele>76.0</ele><time>2026-05-03T12:43:16Z</time></trkpt><trkpt lat="43.741874945251496" lon="11.224840938223036"><ele>75.39999999999999</ele><time>2026-05-03T12:43:17Z</time></trkpt><trkpt lat="43.74176830431125" lon="11.224826152444805"><ele>74.8</ele><time>2026-05-03T12:43:18Z</time></trkpt><trkpt lat="43.741663349290675" lon="11.22477433956808"><ele>74.19999999999999</ele><time>2026-05-03T12:43:19Z</time></trkpt><trkpt lat="43.74155488635959" lon="11.224711667409792"><ele>73.6</ele><time>2026-05-03T12:43:20Z</time></trkpt><trkpt lat="43.74145429800974" lon="11.224663733289972"><ele>73.0</ele><time>2026-05-03T12:43:21Z</time></trkpt><trkpt lat="43.741355335989766" lon="11.224615510864409"><ele>72.33333333333333</ele><time>2026-05-03T12:43:22Z</time></trkpt><trkpt lat="43.74127316397198" lon="11.224581884322392"><ele>71.66666666666666</ele><time>2026-05-03T12:43:23Z</time></trkpt><trkpt lat="43.74118757540905" lon="11.224550934278362"><ele>71.0</ele><time>2026-05-03T12:43:24Z</time></trkpt><trkpt lat="43.741108513228795" lon="11.224517794142788"><ele>70.33333333333333</ele><time>2026-05-03T12:43:25Z</time></trkpt><trkpt lat="43.74102225149839" lon="11.224504880348041"><ele>69.66666666666667</ele><time>2026-05-03T12:43:26Z</time></trkpt><trkpt lat="43.740937306659625" lon="11.224485283244762"><ele>69.0</ele><time>2026-05-03T12:43:27Z</time></trkpt><trkpt lat="43.740855680586165" lon="11.224471035427849"><ele>68.66666666666667</ele><time>2026-05-03T12:43:28Z</time></trkpt><trkpt lat="43.740779742878296" lon="11.224452834054308"><ele>68.33333333333333</ele><time>2026-05-03T12:43:29Z</time></trkpt><trkpt lat="43.74071604388101" lon="11.224444515581974"><ele>68.0</ele><time>2026-05-03T12:43:30Z</time></trkpt><trkpt lat="43.740619461368404" lon="11.224422979640625"><ele>67.66666666666666</ele><time>2026-05-03T12:43:32Z</time></trkpt><trkpt lat="43.74052462563017" lon="11.224387534858367"><ele>67.33333333333333</ele><time>2026-05-03T12:43:34Z</time></trkpt><trkpt lat="43.74045853152636" lon="11.224366808876624"><ele>67.0</ele><time>2026-05-03T12:43:35Z</time></trkpt><trkpt lat="43.74038017635422" lon="11.22438063952117"><ele>67.0</ele><time>2026-05-03T12:43:36Z</time></trkpt><trkpt lat="43.74030185415538" lon="11.22441591622392"><ele>67.0</ele><time>2026-05-03T12:43:37Z</time></trkpt><trkpt lat="43.74019367151795" lon="11.224439583202178"><ele>67.0</ele><time>2026-05-03T12:43:38Z</time></trkpt><trkpt lat="43.74006195556343" lon="11.224390866085617"><ele>67.0</ele><time>2026-05-03T12:43:39Z</time></trkpt><trkpt lat="43.73990838277989" lon="11.224379984574952"><ele>66.0</ele><time>2026-05-03T12:43:40Z</time></trkpt><trkpt lat="43.73973382852378" lon="11.224371099621196"><ele>65.0</ele><time>2026-05-03T12:43:41Z</time></trkpt><trkpt lat="43.73955784509447" lon="11.224388605432809"><ele>64.0</ele><time>2026-05-03T12:43:42Z</time></trkpt><trkpt lat="43.73939873162165" lon="11.22438446762635"><ele>63.75</ele><time>2026-05-03T12:43:43Z</time></trkpt><trkpt lat="43.73924711762526" lon="11.224397865556972"><ele>63.5</ele><time>2026-05-03T12:43:44Z</time></trkpt><trkpt lat="43.73910864837214" lon="11.22442036101014"><ele>63.25</ele><time>2026-05-03T12:43:45Z</time></trkpt><trkpt lat="43.7389853832005" lon="11.224440786386412"><ele>63.0</ele><time>2026-05-03T12:43:46Z</time></trkpt><trkpt lat="43.73886860605009" lon="11.22445793755387"><ele>63.0</ele><time>2026-05-03T12:43:47Z</time></trkpt><trkpt lat="43.738752699433185" lon="11.224479177717287"><ele>63.0</ele><time>2026-05-03T12:43:48Z</time></trkpt><trkpt lat="43.73862803947149" lon="11.224500952808972"><ele>63.0</ele><time>2026-05-03T12:43:49Z</time></trkpt><trkpt lat="43.738505157036414" lon="11.224519622070817"><ele>63.0</ele><time>2026-05-03T12:43:50Z</time></trkpt><trkpt lat="43.738383733095496" lon="11.224542698463909"><ele>63.2</ele><time>2026-05-03T12:43:51Z</time></trkpt><trkpt lat="43.73826466756897" lon="11.22456046996343"><ele>63.4</ele><time>2026-05-03T12:43:52Z</time></trkpt><trkpt lat="43.7381468348719" lon="11.224577800481123"><ele>63.60000000000001</ele><time>2026-05-03T12:43:53Z</time></trkpt><trkpt lat="43.7380369460316" lon="11.224591757326175"><ele>63.800000000000004</ele><time>2026-05-03T12:43:54Z</time></trkpt><trkpt lat="43.737942002791804" lon="11.224609677365132"><ele>64.0</ele><time>2026-05-03T12:43:55Z</time></trkpt><trkpt lat="43.73787903564524" lon="11.224620045207846"><ele>64.0</ele><time>2026-05-03T12:43:56Z</time></trkpt><trkpt lat="43.73779142861391" lon="11.224624114374926"><ele>64.0</ele><time>2026-05-03T12:43:57Z</time></trkpt><trkpt lat="43.737723036199206" lon="11.224627542912627"><ele>64.0</ele><time>2026-05-03T12:43:58Z</time></trkpt><trkpt lat="43.73762472984118" lon="11.224638985078922"><ele>64.0</ele><time>2026-05-03T12:44:00Z</time></trkpt><trkpt lat="43.737551241296444" lon="11.224662901814026"><ele>64.0</ele><time>2026-05-03T12:44:05Z</time></trkpt><trkpt lat="43.73764634895827" lon="11.22489997013221"><ele>64.0</ele><time>2026-05-03T12:44:12Z</time></trkpt><trkpt lat="43.73771771684739" lon="11.225030588131748"><ele>64.0</ele><time>2026-05-03T12:44:13Z</time></trkpt><trkpt lat="43.737798808355095" lon="11.22516391608426"><ele>64.0</ele><time>2026-05-03T12:44:14Z</time></trkpt><trkpt lat="43.73788248741678" lon="11.225296630852574"><ele>64.0</ele><time>2026-05-03T12:44:15Z</time></trkpt><trkpt lat="43.73794564542033" lon="11.225444028713092"><ele>63.99999999999999</ele><time>2026-05-03T12:44:16Z</time></trkpt><trkpt lat="43.73799105834279" lon="11.225576939243552"><ele>64.0</ele><time>2026-05-03T12:44:17Z</time></trkpt><trkpt lat="43.73802201861203" lon="11.225695133218693"><ele>64.0</ele><time>2026-05-03T12:44:18Z</time></trkpt><trkpt lat="43.73804409853449" lon="11.225788849697727"><ele>64.0</ele><time>2026-05-03T12:44:19Z</time></trkpt><trkpt lat="43.738077014750914" lon="11.225875634461831"><ele>63.99999999999999</ele><time>2026-05-03T12:44:21Z</time></trkpt><trkpt lat="43.73797839576636" lon="11.22586678719165"><ele>64.0</ele><time>2026-05-03T12:44:25Z</time></trkpt><trkpt lat="43.73789687548153" lon="11.225858855188669"><ele>64.0</ele><time>2026-05-03T12:44:26Z</time></trkpt><trkpt lat="43.737792915500016" lon="11.225848739783787"><ele>64.0</ele><time>2026-05-03T12:44:27Z</time></trkpt><trkpt lat="43.73767017846557" lon="11.225858527106107"><ele>64.0</ele><time>2026-05-03T12:44:28Z</time></trkpt><trkpt lat="43.73756825504701" lon="11.22582858529844"><ele>64.0</ele><time>2026-05-03T12:44:29Z</time></trkpt><trkpt lat="43.73749101805294" lon="11.22582380227322"><ele>64.0</ele><time>2026-05-03T12:44:30Z</time></trkpt><trkpt lat="43.73747250760618" lon="11.225991675778566"><ele>63.0</ele><time>2026-05-03T12:44:32Z</time></trkpt><trkpt lat="43.73746088542103" lon="11.226111433488205"><ele>62.0</ele><time>2026-05-03T12:44:33Z</time></trkpt><trkpt lat="43.73746939764935" lon="11.226268568127754"><ele>61.0</ele><time>2026-05-03T12:44:34Z</time></trkpt><trkpt lat="43.73747369065735" lon="11.226462729152276"><ele>60.0</ele><time>2026-05-03T12:44:35Z</time></trkpt><trkpt lat="43.737469095244116" lon="11.226641748407957"><ele>59.5</ele><time>2026-05-03T12:44:36Z</time></trkpt><trkpt lat="43.73750354010678" lon="11.226794722399966"><ele>59.0</ele><time>2026-05-03T12:44:37Z</time></trkpt><trkpt lat="43.73754760765007" lon="11.22689961821077"><ele>58.5</ele><time>2026-05-03T12:44:38Z</time></trkpt><trkpt lat="43.737369328260606" lon="11.22697937019128"><ele>58.0</ele><time>2026-05-03T12:44:42Z</time></trkpt><trkpt lat="43.737281322525945" lon="11.226970735354051"><ele>57.99999999999999</ele><time>2026-05-03T12:44:43Z</time></trkpt><trkpt lat="43.737192825857555" lon="11.226971949968721"><ele>58.0</ele><time>2026-05-03T12:44:44Z</time></trkpt><trkpt lat="43.737091984777926" lon="11.226967641653633"><ele>58.0</ele><time>2026-05-03T12:44:45Z</time></trkpt><trkpt lat="43.73700000316115" lon="11.226966049827398"><ele>58.0</ele><time>2026-05-03T12:44:46Z</time></trkpt><trkpt lat="43.73692938713798" lon="11.226966419793195"><ele>57.99999999999999</ele><time>2026-05-03T12:44:47Z</time></trkpt><trkpt lat="43.73684139751133" lon="11.226974626204395"><ele>58.0</ele><time>2026-05-03T12:44:49Z</time></trkpt><trkpt lat="43.736770166496406" lon="11.226973304285893"><ele>58.2</ele><time>2026-05-03T12:44:55Z</time></trkpt><trkpt lat="43.73678476035735" lon="11.227212445814754"><ele>58.4</ele><time>2026-05-03T12:44:56Z</time></trkpt><trkpt lat="43.7368172275443" lon="11.227314122096942"><ele>58.60000000000001</ele><time>2026-05-03T12:44:57Z</time></trkpt><trkpt lat="43.73683985347598" lon="11.22741488876398"><ele>58.800000000000004</ele><time>2026-05-03T12:44:58Z</time></trkpt><trkpt lat="43.736853052235745" lon="11.227508499655258"><ele>59.0</ele><time>2026-05-03T12:44:59Z</time></trkpt><trkpt lat="43.73687460295695" lon="11.227598745514486"><ele>59.16666666666667</ele><time>2026-05-03T12:45:00Z</time></trkpt><trkpt lat="43.73689384545043" lon="11.227691476392"><ele>59.333333333333336</ele><time>2026-05-03T12:45:01Z</time></trkpt><trkpt lat="43.736910392179645" lon="11.227783037087505"><ele>59.5</ele><time>2026-05-03T12:45:02Z</time></trkpt><trkpt lat="43.73693163564252" lon="11.227876984421552"><ele>59.66666666666667</ele><time>2026-05-03T12:45:03Z</time></trkpt><trkpt lat="43.73695718103421" lon="11.227993851456922"><ele>59.833333333333336</ele><time>2026-05-03T12:45:04Z</time></trkpt><trkpt lat="43.73698866154721" lon="11.228118138455025"><ele>60.0</ele><time>2026-05-03T12:45:05Z</time></trkpt><trkpt lat="43.73701967319223" lon="11.228256078415582"><ele>60.0</ele><time>2026-05-03T12:45:06Z</time></trkpt><trkpt lat="43.737049875837386" lon="11.228409871805376"><ele>60.0</ele><time>2026-05-03T12:45:07Z</time></trkpt><trkpt lat="43.73708499188579" lon="11.228574800812993"><ele>60.0</ele><time>2026-05-03T12:45:08Z</time></trkpt><trkpt lat="43.737122523862446" lon="11.228747786110672"><ele>60.0</ele><time>2026-05-03T12:45:09Z</time></trkpt><trkpt lat="43.73715903987862" lon="11.228916422872873"><ele>60.0</ele><time>2026-05-03T12:45:10Z</time></trkpt><trkpt lat="43.73718196729438" lon="11.229063583270698"><ele>60.0</ele><time>2026-05-03T12:45:11Z</time></trkpt><trkpt lat="43.73721654929218" lon="11.229194073347188"><ele>60.0</ele><time>2026-05-03T12:45:12Z</time></trkpt><trkpt lat="43.737244273895826" lon="11.229321719407688"><ele>60.0</ele><time>2026-05-03T12:45:13Z</time></trkpt><trkpt lat="43.73726593009475" lon="11.229450231831809"><ele>60.0</ele><time>2026-05-03T12:45:14Z</time></trkpt><trkpt lat="43.73729326209465" lon="11.229570175864515"><ele>60.0</ele><time>2026-05-03T12:45:15Z</time></trkpt><trkpt lat="43.73731316902518" lon="11.229672715627046"><ele>60.0</ele><time>2026-05-03T12:45:16Z</time></trkpt><trkpt lat="43.737335905449605" lon="11.229754392006372"><ele>60.0</ele><time>2026-05-03T12:45:17Z</time></trkpt><trkpt lat="43.7373440756409" lon="11.229872152444466"><ele>60.0</ele><time>2026-05-03T12:45:19Z</time></trkpt><trkpt lat="43.73736934074974" lon="11.229994152606114"><ele>60.0</ele><time>2026-05-03T12:45:25Z</time></trkpt><trkpt lat="43.73738702087542" lon="11.230079526385587"><ele>60.0</ele><time>2026-05-03T12:45:26Z</time></trkpt><trkpt lat="43.737423978671565" lon="11.230192602889556"><ele>60.0</ele><time>2026-05-03T12:45:27Z</time></trkpt><trkpt lat="43.73745030360273" lon="11.230338671065525"><ele>60.0</ele><time>2026-05-03T12:45:28Z</time></trkpt><trkpt lat="43.73748046914518" lon="11.230495351909063"><ele>60.0</ele><time>2026-05-03T12:45:29Z</time></trkpt><trkpt lat="43.73752155182408" lon="11.230678054498723"><ele>60.0</ele><time>2026-05-03T12:45:30Z</time></trkpt><trkpt lat="43.737561116973694" lon="11.230868362757011"><ele>60.25</ele><time>2026-05-03T12:45:31Z</time></trkpt><trkpt lat="43.73759940641567" lon="11.231061521721722"><ele>60.5</ele><time>2026-05-03T12:45:32Z</time></trkpt><trkpt lat="43.73763757687116" lon="11.231255651861476"><ele>60.75</ele><time>2026-05-03T12:45:33Z</time></trkpt><trkpt lat="43.73767799837648" lon="11.231449909550326"><ele>61.0</ele><time>2026-05-03T12:45:34Z</time></trkpt><trkpt lat="43.73771614570431" lon="11.23163573463663"><ele>61.0</ele><time>2026-05-03T12:45:35Z</time></trkpt><trkpt lat="43.73774981806301" lon="11.231826114798636"><ele>61.0</ele><time>2026-05-03T12:45:36Z</time></trkpt><trkpt lat="43.73779658173124" lon="11.232031472090148"><ele>61.0</ele><time>2026-05-03T12:45:37Z</time></trkpt><trkpt lat="43.73783961928038" lon="11.232246129014522"><ele>61.0</ele><time>2026-05-03T12:45:38Z</time></trkpt><trkpt lat="43.73788152015294" lon="11.232445809764615"><ele>61.0</ele><time>2026-05-03T12:45:39Z</time></trkpt><trkpt lat="43.73792088732696" lon="11.232648928304405"><ele>61.0</ele><time>2026-05-03T12:45:40Z</time></trkpt><trkpt lat="43.73796367534137" lon="11.232855565146762"><ele>61.0</ele><time>2026-05-03T12:45:41Z</time></trkpt><trkpt lat="43.738009874126774" lon="11.23306756951574"><ele>61.0</ele><time>2026-05-03T12:45:42Z</time></trkpt><trkpt lat="43.738053386885234" lon="11.233286455214914"><ele>61.0</ele><time>2026-05-03T12:45:43Z</time></trkpt><trkpt lat="43.73809279035742" lon="11.233502105886789"><ele>61.0</ele><time>2026-05-03T12:45:44Z</time></trkpt><trkpt lat="43.73813716907172" lon="11.233709759541767"><ele>61.0</ele><time>2026-05-03T12:45:45Z</time></trkpt><trkpt lat="43.738178047097755" lon="11.233907393445605"><ele>61.0</ele><time>2026-05-03T12:45:46Z</time></trkpt><trkpt lat="43.73822087005385" lon="11.234111485909851"><ele>61.0</ele><time>2026-05-03T12:45:47Z</time></trkpt><trkpt lat="43.73825805058716" lon="11.234303362153558"><ele>61.0</ele><time>2026-05-03T12:45:48Z</time></trkpt><trkpt lat="43.738299260735296" lon="11.234500686291366"><ele>61.0</ele><time>2026-05-03T12:45:49Z</time></trkpt><trkpt lat="43.73833887987976" lon="11.234693384659321"><ele>61.0</ele><time>2026-05-03T12:45:50Z</time></trkpt><trkpt lat="43.73837925115495" lon="11.23488736204709"><ele>61.0</ele><time>2026-05-03T12:45:51Z</time></trkpt><trkpt lat="43.7384213381678" lon="11.235086868767846"><ele>61.0</ele><time>2026-05-03T12:45:52Z</time></trkpt><trkpt lat="43.738463859735866" lon="11.235287623289947"><ele>61.0</ele><time>2026-05-03T12:45:53Z</time></trkpt><trkpt lat="43.738504266049866" lon="11.235482643113944"><ele>61.0</ele><time>2026-05-03T12:45:54Z</time></trkpt><trkpt lat="43.73854439533022" lon="11.23568368187705"><ele>61.25</ele><time>2026-05-03T12:45:55Z</time></trkpt><trkpt lat="43.7385807616121" lon="11.235881274622866"><ele>61.5</ele><time>2026-05-03T12:45:56Z</time></trkpt><trkpt lat="43.73861663240073" lon="11.23608189372136"><ele>61.75</ele><time>2026-05-03T12:45:57Z</time></trkpt><trkpt lat="43.738662904239476" lon="11.236282538181763"><ele>62.0</ele><time>2026-05-03T12:45:58Z</time></trkpt><trkpt lat="43.73870832887947" lon="11.236482898616343"><ele>62.333333333333336</ele><time>2026-05-03T12:45:59Z</time></trkpt><trkpt lat="43.73875039220017" lon="11.23668917311274"><ele>62.66666666666667</ele><time>2026-05-03T12:46:00Z</time></trkpt><trkpt lat="43.738794292613164" lon="11.236894525412561"><ele>63.0</ele><time>2026-05-03T12:46:01Z</time></trkpt><trkpt lat="43.738842773842265" lon="11.23710930040502"><ele>63.66666666666667</ele><time>2026-05-03T12:46:02Z</time></trkpt><trkpt lat="43.738884761763444" lon="11.237322700595964"><ele>64.33333333333334</ele><time>2026-05-03T12:46:03Z</time></trkpt><trkpt lat="43.7389300812181" lon="11.2375381916722"><ele>65.0</ele><time>2026-05-03T12:46:04Z</time></trkpt><trkpt lat="43.73896509244668" lon="11.237735360024063"><ele>65.0</ele><time>2026-05-03T12:46:05Z</time></trkpt><trkpt lat="43.73900384150378" lon="11.23791603980414"><ele>65.0</ele><time>2026-05-03T12:46:06Z</time></trkpt><trkpt lat="43.73904581152499" lon="11.238090411762748"><ele>65.0</ele><time>2026-05-03T12:46:07Z</time></trkpt><trkpt lat="43.73906441856821" lon="11.2382506004694"><ele>65.0</ele><time>2026-05-03T12:46:08Z</time></trkpt><trkpt lat="43.73909790240699" lon="11.238390223631805"><ele>65.25</ele><time>2026-05-03T12:46:09Z</time></trkpt><trkpt lat="43.739127837116925" lon="11.238539063572814"><ele>65.5</ele><time>2026-05-03T12:46:10Z</time></trkpt><trkpt lat="43.73915570389883" lon="11.23871083129394"><ele>65.75</ele><time>2026-05-03T12:46:11Z</time></trkpt><trkpt lat="43.739187352467184" lon="11.238901362174158"><ele>66.0</ele><time>2026-05-03T12:46:12Z</time></trkpt><trkpt lat="43.73921940728486" lon="11.239095813308118"><ele>66.25</ele><time>2026-05-03T12:46:13Z</time></trkpt><trkpt lat="43.739252629785646" lon="11.239275490663902"><ele>66.5</ele><time>2026-05-03T12:46:14Z</time></trkpt><trkpt lat="43.73927345130113" lon="11.2394254664091"><ele>66.75</ele><time>2026-05-03T12:46:15Z</time></trkpt><trkpt lat="43.73928079186567" lon="11.239567853787955"><ele>67.0</ele><time>2026-05-03T12:46:16Z</time></trkpt><trkpt lat="43.739267672866006" lon="11.239709769175086"><ele>66.75</ele><time>2026-05-03T12:46:17Z</time></trkpt><trkpt lat="43.73922570006187" lon="11.239862127563766"><ele>66.5</ele><time>2026-05-03T12:46:18Z</time></trkpt><trkpt lat="43.73920727008436" lon="11.240053065382813"><ele>66.25</ele><time>2026-05-03T12:46:19Z</time></trkpt><trkpt lat="43.739175252176345" lon="11.240255544195026"><ele>66.0</ele><time>2026-05-03T12:46:20Z</time></trkpt><trkpt lat="43.73916119310927" lon="11.240496085799654"><ele>65.33333333333333</ele><time>2026-05-03T12:46:21Z</time></trkpt><trkpt lat="43.73916738169103" lon="11.240766405620297"><ele>64.66666666666666</ele><time>2026-05-03T12:46:22Z</time></trkpt><trkpt lat="43.739181029204" lon="11.241052616686812"><ele>64.0</ele><time>2026-05-03T12:46:23Z</time></trkpt><trkpt lat="43.73920505655034" lon="11.241350503949862"><ele>64.33333333333333</ele><time>2026-05-03T12:46:24Z</time></trkpt><trkpt lat="43.73923163618516" lon="11.24164054937087"><ele>64.66666666666667</ele><time>2026-05-03T12:46:25Z</time></trkpt><trkpt lat="43.73925762318542" lon="11.2419290022328"><ele>65.0</ele><time>2026-05-03T12:46:26Z</time></trkpt><trkpt lat="43.739271355037005" lon="11.242196319193502"><ele>65.66666666666667</ele><time>2026-05-03T12:46:27Z</time></trkpt><trkpt lat="43.739284562514065" lon="11.242440350538002"><ele>66.33333333333333</ele><time>2026-05-03T12:46:28Z</time></trkpt><trkpt lat="43.7393074722964" lon="11.242667639223964"><ele>67.0</ele><time>2026-05-03T12:46:29Z</time></trkpt><trkpt lat="43.739348176328896" lon="11.242862578032346"><ele>69.75</ele><time>2026-05-03T12:46:30Z</time></trkpt><trkpt lat="43.73939167767736" lon="11.243052722812232"><ele>72.5</ele><time>2026-05-03T12:46:31Z</time></trkpt><trkpt lat="43.73943116059803" lon="11.243235332235662"><ele>75.25</ele><time>2026-05-03T12:46:32Z</time></trkpt><trkpt lat="43.73947008675524" lon="11.243409566186545"><ele>78.0</ele><time>2026-05-03T12:46:33Z</time></trkpt><trkpt lat="43.73950256451092" lon="11.243569655767802"><ele>78.6</ele><time>2026-05-03T12:46:34Z</time></trkpt><trkpt lat="43.73952892084365" lon="11.243716590371186"><ele>79.19999999999999</ele><time>2026-05-03T12:46:35Z</time></trkpt><trkpt lat="43.739523763135594" lon="11.243859298958927"><ele>79.8</ele><time>2026-05-03T12:46:36Z</time></trkpt><trkpt lat="43.739469303543416" lon="11.24397245888866"><ele>80.39999999999999</ele><time>2026-05-03T12:46:37Z</time></trkpt><trkpt lat="43.73936043278205" lon="11.244029058083612"><ele>81.0</ele><time>2026-05-03T12:46:38Z</time></trkpt><trkpt lat="43.73923916893126" lon="11.244050201161338"><ele>75.33333333333333</ele><time>2026-05-03T12:46:39Z</time></trkpt><trkpt lat="43.73909033180459" lon="11.244120235568435"><ele>69.66666666666666</ele><time>2026-05-03T12:46:40Z</time></trkpt><trkpt lat="43.738913845144005" lon="11.24418129978544"><ele>64.0</ele><time>2026-05-03T12:46:41Z</time></trkpt><trkpt lat="43.73873234216438" lon="11.244257359016833"><ele>64.0</ele><time>2026-05-03T12:46:42Z</time></trkpt><trkpt lat="43.738577410750715" lon="11.244317989472053"><ele>64.0</ele><time>2026-05-03T12:46:43Z</time></trkpt><trkpt lat="43.73844199749647" lon="11.244370629827806"><ele>64.0</ele><time>2026-05-03T12:46:44Z</time></trkpt><trkpt lat="43.738324599589006" lon="11.244417338977305"><ele>64.0</ele><time>2026-05-03T12:46:45Z</time></trkpt><trkpt lat="43.73823380266554" lon="11.244455760584652"><ele>63.800000000000004</ele><time>2026-05-03T12:46:46Z</time></trkpt><trkpt lat="43.738163832739325" lon="11.244474715611846"><ele>63.60000000000001</ele><time>2026-05-03T12:46:47Z</time></trkpt><trkpt lat="43.73808235177553" lon="11.244517021621661"><ele>63.4</ele><time>2026-05-03T12:46:49Z</time></trkpt><trkpt lat="43.73812532697529" lon="11.24472242863023"><ele>63.2</ele><time>2026-05-03T12:46:50Z</time></trkpt><trkpt lat="43.73815022923974" lon="11.244834647775724"><ele>63.0</ele><time>2026-05-03T12:46:51Z</time></trkpt><trkpt lat="43.73815768260486" lon="11.24498813002968"><ele>63.0</ele><time>2026-05-03T12:46:52Z</time></trkpt><trkpt lat="43.73817439765294" lon="11.245177603391404"><ele>63.0</ele><time>2026-05-03T12:46:53Z</time></trkpt><trkpt lat="43.73820355265043" lon="11.245388305302075"><ele>63.0</ele><time>2026-05-03T12:46:54Z</time></trkpt><trkpt lat="43.73823282940454" lon="11.245628743595736"><ele>63.0</ele><time>2026-05-03T12:46:55Z</time></trkpt><trkpt lat="43.738253433402804" lon="11.24588507002317"><ele>63.0</ele><time>2026-05-03T12:46:56Z</time></trkpt><trkpt lat="43.738259452404485" lon="11.246109454948032"><ele>63.0</ele><time>2026-05-03T12:46:57Z</time></trkpt><trkpt lat="43.73826216002478" lon="11.246318818765877"><ele>63.0</ele><time>2026-05-03T12:46:58Z</time></trkpt><trkpt lat="43.73827174340027" lon="11.246499734750342"><ele>63.0</ele><time>2026-05-03T12:46:59Z</time></trkpt><trkpt lat="43.738292235876905" lon="11.246653116156235"><ele>63.0</ele><time>2026-05-03T12:47:00Z</time></trkpt><trkpt lat="43.73832444649802" lon="11.246780223178156"><ele>63.0</ele><time>2026-05-03T12:47:01Z</time></trkpt><trkpt lat="43.73836802043852" lon="11.246915841770898"><ele>63.0</ele><time>2026-05-03T12:47:02Z</time></trkpt><trkpt lat="43.73842451083512" lon="11.247098414706223"><ele>63.0</ele><time>2026-05-03T12:47:03Z</time></trkpt><trkpt lat="43.73852188705108" lon="11.247322111270565"><ele>63.0</ele><time>2026-05-03T12:47:04Z</time></trkpt><trkpt lat="43.73864074445304" lon="11.24759515532228"><ele>63.0</ele><time>2026-05-03T12:47:05Z</time></trkpt><trkpt lat="43.73877521097107" lon="11.247861658713534"><ele>63.33333333333333</ele><time>2026-05-03T12:47:06Z</time></trkpt><trkpt lat="43.73888115727238" lon="11.248103036925011"><ele>63.666666666666664</ele><time>2026-05-03T12:47:07Z</time></trkpt><trkpt lat="43.73898313214979" lon="11.248314204020122"><ele>64.0</ele><time>2026-05-03T12:47:08Z</time></trkpt><trkpt lat="43.73911202227395" lon="11.248514927987241"><ele>64.33333333333333</ele><time>2026-05-03T12:47:09Z</time></trkpt><trkpt lat="43.73925789104502" lon="11.24872881230916"><ele>64.66666666666667</ele><time>2026-05-03T12:47:10Z</time></trkpt><trkpt lat="43.73936938057584" lon="11.248943180626974"><ele>65.0</ele><time>2026-05-03T12:47:11Z</time></trkpt><trkpt lat="43.73943691707006" lon="11.249169557069944"><ele>67.0</ele><time>2026-05-03T12:47:12Z</time></trkpt><trkpt lat="43.739499257400276" lon="11.24940193243912"><ele>69.0</ele><time>2026-05-03T12:47:13Z</time></trkpt><trkpt lat="43.73955155045222" lon="11.249620065304633"><ele>71.0</ele><time>2026-05-03T12:47:14Z</time></trkpt><trkpt lat="43.73953980729929" lon="11.249832287354739"><ele>71.0</ele><time>2026-05-03T12:47:15Z</time></trkpt><trkpt lat="43.73949386837198" lon="11.25001676534985"><ele>71.0</ele><time>2026-05-03T12:47:16Z</time></trkpt><trkpt lat="43.73942301637073" lon="11.250212581602064"><ele>71.0</ele><time>2026-05-03T12:47:17Z</time></trkpt><trkpt lat="43.739322500936396" lon="11.250438212409145"><ele>68.5</ele><time>2026-05-03T12:47:18Z</time></trkpt><trkpt lat="43.739222258734536" lon="11.250712018354719"><ele>66.0</ele><time>2026-05-03T12:47:19Z</time></trkpt><trkpt lat="43.739109306661305" lon="11.251013777549467"><ele>66.0</ele><time>2026-05-03T12:47:20Z</time></trkpt><trkpt lat="43.73896499579689" lon="11.251321563830231"><ele>66.0</ele><time>2026-05-03T12:47:21Z</time></trkpt><trkpt lat="43.738825608133645" lon="11.25162773176456"><ele>66.0</ele><time>2026-05-03T12:47:22Z</time></trkpt><trkpt lat="43.73868149890557" lon="11.25188237270882"><ele>66.0</ele><time>2026-05-03T12:47:23Z</time></trkpt><trkpt lat="43.73854748071292" lon="11.252089727705407"><ele>66.0</ele><time>2026-05-03T12:47:24Z</time></trkpt><trkpt lat="43.738404889291054" lon="11.252245049972935"><ele>65.66666666666667</ele><time>2026-05-03T12:47:25Z</time></trkpt><trkpt lat="43.73825418677481" lon="11.252345285216999"><ele>65.33333333333334</ele><time>2026-05-03T12:47:26Z</time></trkpt><trkpt lat="43.73810872157203" lon="11.25242740420213"><ele>65.0</ele><time>2026-05-03T12:47:27Z</time></trkpt><trkpt lat="43.737986185059896" lon="11.252510681575613"><ele>65.0</ele><time>2026-05-03T12:47:28Z</time></trkpt><trkpt lat="43.737883581994446" lon="11.25259016734438"><ele>65.0</ele><time>2026-05-03T12:47:29Z</time></trkpt><trkpt lat="43.73779184464915" lon="11.252700656786665"><ele>65.0</ele><time>2026-05-03T12:47:30Z</time></trkpt><trkpt lat="43.737682363343495" lon="11.252734404118963"><ele>65.0</ele><time>2026-05-03T12:47:31Z</time></trkpt><trkpt lat="43.73759285699587" lon="11.252805387114082"><ele>65.6</ele><time>2026-05-03T12:47:32Z</time></trkpt><trkpt lat="43.73752894124312" lon="11.252911014662184"><ele>66.2</ele><time>2026-05-03T12:47:33Z</time></trkpt><trkpt lat="43.73753902965162" lon="11.253081506947366"><ele>66.8</ele><time>2026-05-03T12:47:34Z</time></trkpt><trkpt lat="43.73753882979736" lon="11.253208953641433"><ele>67.4</ele><time>2026-05-03T12:47:35Z</time></trkpt><trkpt lat="43.73747027810525" lon="11.253278236777959"><ele>68.0</ele><time>2026-05-03T12:47:36Z</time></trkpt><trkpt lat="43.73739317203414" lon="11.253345880131599"><ele>68.0</ele><time>2026-05-03T12:47:37Z</time></trkpt><trkpt lat="43.73728626831347" lon="11.253354967313726"><ele>68.0</ele><time>2026-05-03T12:47:38Z</time></trkpt><trkpt lat="43.73718249910303" lon="11.253400636364656"><ele>68.0</ele><time>2026-05-03T12:47:39Z</time></trkpt><trkpt lat="43.73710910490333" lon="11.253522093158757"><ele>68.0</ele><time>2026-05-03T12:47:40Z</time></trkpt><trkpt lat="43.73708338618057" lon="11.253699159758805"><ele>68.0</ele><time>2026-05-03T12:47:41Z</time></trkpt><trkpt lat="43.73709520843288" lon="11.253917628570544"><ele>68.0</ele><time>2026-05-03T12:47:42Z</time></trkpt><trkpt lat="43.73711720117398" lon="11.254169186547069"><ele>68.0</ele><time>2026-05-03T12:47:43Z</time></trkpt><trkpt lat="43.73712947529714" lon="11.254433639835238"><ele>69.66666666666667</ele><time>2026-05-03T12:47:44Z</time></trkpt><trkpt lat="43.73710031345614" lon="11.254675985852268"><ele>71.33333333333333</ele><time>2026-05-03T12:47:45Z</time></trkpt><trkpt lat="43.73704956846556" lon="11.25489273602272"><ele>73.0</ele><time>2026-05-03T12:47:46Z</time></trkpt><trkpt lat="43.7369791085741" lon="11.255094657916263"><ele>72.0</ele><time>2026-05-03T12:47:47Z</time></trkpt><trkpt lat="43.736913712380776" lon="11.255298345962636"><ele>71.0</ele><time>2026-05-03T12:47:48Z</time></trkpt><trkpt lat="43.73684951471132" lon="11.255495908638665"><ele>70.0</ele><time>2026-05-03T12:47:49Z</time></trkpt><trkpt lat="43.73683181813747" lon="11.255727908867184"><ele>70.0</ele><time>2026-05-03T12:47:50Z</time></trkpt><trkpt lat="43.73684929241473" lon="11.256006126124685"><ele>70.0</ele><time>2026-05-03T12:47:51Z</time></trkpt><trkpt lat="43.7369255242478" lon="11.256257970234675"><ele>70.0</ele><time>2026-05-03T12:47:52Z</time></trkpt><trkpt lat="43.73703982128421" lon="11.256463357309784"><ele>73.33333333333333</ele><time>2026-05-03T12:47:53Z</time></trkpt><trkpt lat="43.73714406317971" lon="11.256692311272364"><ele>76.66666666666667</ele><time>2026-05-03T12:47:54Z</time></trkpt><trkpt lat="43.737214698407094" lon="11.256921866906902"><ele>80.0</ele><time>2026-05-03T12:47:55Z</time></trkpt><trkpt lat="43.73723352658636" lon="11.257124774323668"><ele>80.66666666666667</ele><time>2026-05-03T12:47:56Z</time></trkpt><trkpt lat="43.73721391587877" lon="11.25735853112255"><ele>81.33333333333333</ele><time>2026-05-03T12:47:57Z</time></trkpt><trkpt lat="43.73719435859812" lon="11.257588520294457"><ele>82.0</ele><time>2026-05-03T12:47:58Z</time></trkpt><trkpt lat="43.73719615564536" lon="11.25781788533338"><ele>82.0</ele><time>2026-05-03T12:47:59Z</time></trkpt><trkpt lat="43.73721444911922" lon="11.258010825472462"><ele>82.0</ele><time>2026-05-03T12:48:00Z</time></trkpt><trkpt lat="43.737244235551124" lon="11.25821688945083"><ele>82.0</ele><time>2026-05-03T12:48:01Z</time></trkpt><trkpt lat="43.73733881888484" lon="11.258389500559618"><ele>82.0</ele><time>2026-05-03T12:48:02Z</time></trkpt><trkpt lat="43.73744673298638" lon="11.258579315124877"><ele>81.0</ele><time>2026-05-03T12:48:03Z</time></trkpt><trkpt lat="43.73762453565896" lon="11.258738263498007"><ele>80.0</ele><time>2026-05-03T12:48:04Z</time></trkpt><trkpt lat="43.737806175348055" lon="11.2588890268339"><ele>79.0</ele><time>2026-05-03T12:48:05Z</time></trkpt><trkpt lat="43.73802246109809" lon="11.259101454258984"><ele>79.0</ele><time>2026-05-03T12:48:06Z</time></trkpt><trkpt lat="43.7382148987612" lon="11.259293263064116"><ele>79.0</ele><time>2026-05-03T12:48:07Z</time></trkpt><trkpt lat="43.738380118699304" lon="11.259466401996498"><ele>79.0</ele><time>2026-05-03T12:48:08Z</time></trkpt><trkpt lat="43.73853988307783" lon="11.259643142202492"><ele>79.66666666666666</ele><time>2026-05-03T12:48:09Z</time></trkpt><trkpt lat="43.73866627416701" lon="11.259806868959709"><ele>80.33333333333333</ele><time>2026-05-03T12:48:10Z</time></trkpt><trkpt lat="43.738776609810785" lon="11.259960396793993"><ele>81.0</ele><time>2026-05-03T12:48:11Z</time></trkpt><trkpt lat="43.73888440201813" lon="11.260099740564721"><ele>81.0</ele><time>2026-05-03T12:48:12Z</time></trkpt><trkpt lat="43.73898868507395" lon="11.260181867213918"><ele>81.0</ele><time>2026-05-03T12:48:13Z</time></trkpt><trkpt lat="43.73911929646433" lon="11.260235402058148"><ele>81.0</ele><time>2026-05-03T12:48:14Z</time></trkpt><trkpt lat="43.73922936433714" lon="11.26029578243922"><ele>81.0</ele><time>2026-05-03T12:48:15Z</time></trkpt><trkpt lat="43.739315760022635" lon="11.260370904415483"><ele>81.0</ele><time>2026-05-03T12:48:16Z</time></trkpt><trkpt lat="43.7393443925777" lon="11.26046335650073"><ele>81.0</ele><time>2026-05-03T12:48:17Z</time></trkpt><trkpt lat="43.73935109657356" lon="11.260617298176397"><ele>81.0</ele><time>2026-05-03T12:48:18Z</time></trkpt><trkpt lat="43.73934943439457" lon="11.26081400183125"><ele>81.0</ele><time>2026-05-03T12:48:19Z</time></trkpt><trkpt lat="43.739360976578446" lon="11.261023203729328"><ele>80.66666666666667</ele><time>2026-05-03T12:48:20Z</time></trkpt><trkpt lat="43.73937830382748" lon="11.26124894141316"><ele>80.33333333333334</ele><time>2026-05-03T12:48:21Z</time></trkpt><trkpt lat="43.73939381248035" lon="11.261504412534745"><ele>80.0</ele><time>2026-05-03T12:48:22Z</time></trkpt><trkpt lat="43.73941068133138" lon="11.261784294455822"><ele>84.0</ele><time>2026-05-03T12:48:23Z</time></trkpt><trkpt lat="43.73942040222394" lon="11.26208509660354"><ele>88.0</ele><time>2026-05-03T12:48:24Z</time></trkpt><trkpt lat="43.73944760342455" lon="11.262370778056296"><ele>92.0</ele><time>2026-05-03T12:48:25Z</time></trkpt><trkpt lat="43.73946217197701" lon="11.262641043891378"><ele>92.0</ele><time>2026-05-03T12:48:26Z</time></trkpt><trkpt lat="43.73947917090475" lon="11.262889979142711"><ele>92.0</ele><time>2026-05-03T12:48:27Z</time></trkpt><trkpt lat="43.73950515360271" lon="11.26312756499229"><ele>92.0</ele><time>2026-05-03T12:48:28Z</time></trkpt><trkpt lat="43.73955185579654" lon="11.263376666379582"><ele>89.66666666666667</ele><time>2026-05-03T12:48:29Z</time></trkpt><trkpt lat="43.73959369874234" lon="11.263629583719188"><ele>87.33333333333333</ele><time>2026-05-03T12:48:30Z</time></trkpt><trkpt lat="43.73962140201254" lon="11.263872950644645"><ele>85.0</ele><time>2026-05-03T12:48:31Z</time></trkpt><trkpt lat="43.739628043673946" lon="11.26409067373836"><ele>83.5</ele><time>2026-05-03T12:48:32Z</time></trkpt><trkpt lat="43.73963401157898" lon="11.264294361936784"><ele>82.0</ele><time>2026-05-03T12:48:33Z</time></trkpt><trkpt lat="43.73965820842733" lon="11.264475401004885"><ele>80.5</ele><time>2026-05-03T12:48:34Z</time></trkpt><trkpt lat="43.73971045016529" lon="11.264638241023095"><ele>79.0</ele><time>2026-05-03T12:48:35Z</time></trkpt><trkpt lat="43.739790465657805" lon="11.264776807975926"><ele>77.75</ele><time>2026-05-03T12:48:36Z</time></trkpt><trkpt lat="43.73989186984279" lon="11.264889301699858"><ele>76.5</ele><time>2026-05-03T12:48:37Z</time></trkpt><trkpt lat="43.74000631057943" lon="11.26499029075385"><ele>75.25</ele><time>2026-05-03T12:48:38Z</time></trkpt><trkpt lat="43.740133503237615" lon="11.26506615691816"><ele>74.0</ele><time>2026-05-03T12:48:39Z</time></trkpt><trkpt lat="43.740268273153" lon="11.265117539061809"><ele>76.4</ele><time>2026-05-03T12:48:40Z</time></trkpt><trkpt lat="43.740385841780025" lon="11.26516283594905"><ele>78.80000000000001</ele><time>2026-05-03T12:48:41Z</time></trkpt><trkpt lat="43.74046915321218" lon="11.265211485162498"><ele>81.19999999999999</ele><time>2026-05-03T12:48:42Z</time></trkpt><trkpt lat="43.7405278911625" lon="11.265278608218344"><ele>83.6</ele><time>2026-05-03T12:48:43Z</time></trkpt><trkpt lat="43.74055882946991" lon="11.265408942361072"><ele>86.0</ele><time>2026-05-03T12:48:44Z</time></trkpt><trkpt lat="43.74062189258323" lon="11.26555366035902"><ele>85.0</ele><time>2026-05-03T12:48:45Z</time></trkpt><trkpt lat="43.740673924801555" lon="11.26570431997308"><ele>84.0</ele><time>2026-05-03T12:48:46Z</time></trkpt><trkpt lat="43.740722630926285" lon="11.26585319106896"><ele>83.0</ele><time>2026-05-03T12:48:47Z</time></trkpt><trkpt lat="43.74077863604672" lon="11.266022517382618"><ele>82.0</ele><time>2026-05-03T12:48:48Z</time></trkpt><trkpt lat="43.74085455802791" lon="11.266233408830281"><ele>79.0</ele><time>2026-05-03T12:48:49Z</time></trkpt><trkpt lat="43.740916372037375" lon="11.266517646739057"><ele>76.0</ele><time>2026-05-03T12:48:50Z</time></trkpt><trkpt lat="43.74100611231634" lon="11.266833886397803"><ele>79.0</ele><time>2026-05-03T12:48:51Z</time></trkpt><trkpt lat="43.74108394686722" lon="11.267146356175482"><ele>82.0</ele><time>2026-05-03T12:48:52Z</time></trkpt><trkpt lat="43.74115503377136" lon="11.267408300299197"><ele>85.0</ele><time>2026-05-03T12:48:53Z</time></trkpt><trkpt lat="43.741219264024856" lon="11.267655338097704"><ele>85.0</ele><time>2026-05-03T12:48:54Z</time></trkpt><trkpt lat="43.74127727641064" lon="11.267889016967494"><ele>85.0</ele><time>2026-05-03T12:48:55Z</time></trkpt><trkpt lat="43.74131980394109" lon="11.268123274239038"><ele>85.0</ele><time>2026-05-03T12:48:56Z</time></trkpt><trkpt lat="43.74134498126842" lon="11.268352251051088"><ele>84.66666666666666</ele><time>2026-05-03T12:48:57Z</time></trkpt><trkpt lat="43.74138567128022" lon="11.26856876398889"><ele>84.33333333333333</ele><time>2026-05-03T12:48:58Z</time></trkpt><trkpt lat="43.74146306159427" lon="11.268782436253645"><ele>84.0</ele><time>2026-05-03T12:48:59Z</time></trkpt><trkpt lat="43.74157620635276" lon="11.268999357432188"><ele>81.66666666666667</ele><time>2026-05-03T12:49:00Z</time></trkpt><trkpt lat="43.741703898291576" lon="11.269220242083659"><ele>79.33333333333334</ele><time>2026-05-03T12:49:01Z</time></trkpt><trkpt lat="43.74182210594267" lon="11.26942907866092"><ele>77.0</ele><time>2026-05-03T12:49:02Z</time></trkpt><trkpt lat="43.74191863111745" lon="11.269624043170284"><ele>80.33333333333334</ele><time>2026-05-03T12:49:03Z</time></trkpt><trkpt lat="43.741972312326546" lon="11.269826673487252"><ele>83.66666666666667</ele><time>2026-05-03T12:49:04Z</time></trkpt><trkpt lat="43.74200717113102" lon="11.270025509599744"><ele>87.0</ele><time>2026-05-03T12:49:05Z</time></trkpt><trkpt lat="43.7420288209632" lon="11.270236208895517"><ele>87.0</ele><time>2026-05-03T12:49:06Z</time></trkpt><trkpt lat="43.74199754779305" lon="11.270447998286244"><ele>87.0</ele><time>2026-05-03T12:49:07Z</time></trkpt><trkpt lat="43.7419204053797" lon="11.270626652454725"><ele>87.0</ele><time>2026-05-03T12:49:08Z</time></trkpt><trkpt lat="43.74190002608091" lon="11.270800113881945"><ele>87.0</ele><time>2026-05-03T12:49:09Z</time></trkpt><trkpt lat="43.74191753086553" lon="11.270965639893824"><ele>84.0</ele><time>2026-05-03T12:49:10Z</time></trkpt><trkpt lat="43.74198344413689" lon="11.271138317423489"><ele>81.0</ele><time>2026-05-03T12:49:11Z</time></trkpt><trkpt lat="43.74205893305911" lon="11.271327542741354"><ele>78.0</ele><time>2026-05-03T12:49:12Z</time></trkpt><trkpt lat="43.74212571255491" lon="11.27154339354826"><ele>77.33333333333333</ele><time>2026-05-03T12:49:13Z</time></trkpt><trkpt lat="43.74218557924943" lon="11.271782442446101"><ele>76.66666666666666</ele><time>2026-05-03T12:49:14Z</time></trkpt><trkpt lat="43.74224774851662" lon="11.272045740129053"><ele>76.0</ele><time>2026-05-03T12:49:15Z</time></trkpt><trkpt lat="43.742317378768256" lon="11.272328971572499"><ele>75.5</ele><time>2026-05-03T12:49:16Z</time></trkpt><trkpt lat="43.74239222433145" lon="11.272640522785075"><ele>75.0</ele><time>2026-05-03T12:49:17Z</time></trkpt><trkpt lat="43.742467844765514" lon="11.272951245280222"><ele>74.33333333333333</ele><time>2026-05-03T12:49:18Z</time></trkpt><trkpt lat="43.7425337047015" lon="11.273239592158449"><ele>73.66666666666666</ele><time>2026-05-03T12:49:19Z</time></trkpt><trkpt lat="43.742591353436296" lon="11.273500780339699"><ele>73.0</ele><time>2026-05-03T12:49:20Z</time></trkpt><trkpt lat="43.74264698112638" lon="11.273749869598669"><ele>73.0</ele><time>2026-05-03T12:49:21Z</time></trkpt><trkpt lat="43.742704063842616" lon="11.273983150419328"><ele>73.0</ele><time>2026-05-03T12:49:22Z</time></trkpt><trkpt lat="43.74276616168671" lon="11.274207990950373"><ele>73.0</ele><time>2026-05-03T12:49:23Z</time></trkpt><trkpt lat="43.742833052864434" lon="11.274424649518865"><ele>73.0</ele><time>2026-05-03T12:49:24Z</time></trkpt><trkpt lat="43.74291830062472" lon="11.274622754951478"><ele>73.0</ele><time>2026-05-03T12:49:25Z</time></trkpt><trkpt lat="43.743028001655524" lon="11.27479112975094"><ele>73.0</ele><time>2026-05-03T12:49:26Z</time></trkpt><trkpt lat="43.74315193418086" lon="11.274954456640817"><ele>73.0</ele><time>2026-05-03T12:49:27Z</time></trkpt><trkpt lat="43.74327486389" lon="11.275126506847506"><ele>73.0</ele><time>2026-05-03T12:49:28Z</time></trkpt><trkpt lat="43.743402565984844" lon="11.275312124632483"><ele>73.0</ele><time>2026-05-03T12:49:29Z</time></trkpt><trkpt lat="43.74350165268235" lon="11.27550852947797"><ele>73.66666666666666</ele><time>2026-05-03T12:49:30Z</time></trkpt><trkpt lat="43.743604381842985" lon="11.275714719265194"><ele>74.33333333333333</ele><time>2026-05-03T12:49:31Z</time></trkpt><trkpt lat="43.74369524478913" lon="11.275919269074775"><ele>75.0</ele><time>2026-05-03T12:49:32Z</time></trkpt><trkpt lat="43.74379131816035" lon="11.276126918517939"><ele>75.0</ele><time>2026-05-03T12:49:33Z</time></trkpt><trkpt lat="43.74389106369285" lon="11.276330348885041"><ele>75.0</ele><time>2026-05-03T12:49:34Z</time></trkpt><trkpt lat="43.74398823873875" lon="11.27653826864126"><ele>75.0</ele><time>2026-05-03T12:49:35Z</time></trkpt><trkpt lat="43.7440868930976" lon="11.276740780170554"><ele>75.0</ele><time>2026-05-03T12:49:36Z</time></trkpt><trkpt lat="43.7441838370065" lon="11.276946775364085"><ele>75.0</ele><time>2026-05-03T12:49:37Z</time></trkpt><trkpt lat="43.74427724135042" lon="11.27715356539249"><ele>75.0</ele><time>2026-05-03T12:49:38Z</time></trkpt><trkpt lat="43.74437079548288" lon="11.277354017689047"><ele>75.66666666666667</ele><time>2026-05-03T12:49:39Z</time></trkpt><trkpt lat="43.744458175601515" lon="11.277543980724651"><ele>76.33333333333334</ele><time>2026-05-03T12:49:40Z</time></trkpt><trkpt lat="43.74454824538768" lon="11.277729379803349"><ele>77.0</ele><time>2026-05-03T12:49:41Z</time></trkpt><trkpt lat="43.74464671142467" lon="11.277905944766138"><ele>77.0</ele><time>2026-05-03T12:49:42Z</time></trkpt><trkpt lat="43.74473534801896" lon="11.278084301428919"><ele>77.0</ele><time>2026-05-03T12:49:43Z</time></trkpt><trkpt lat="43.7448379640986" lon="11.278249932295665"><ele>77.0</ele><time>2026-05-03T12:49:44Z</time></trkpt><trkpt lat="43.74495340200472" lon="11.278405758621716"><ele>76.66666666666667</ele><time>2026-05-03T12:49:45Z</time></trkpt><trkpt lat="43.745066748602355" lon="11.278552204450765"><ele>76.33333333333333</ele><time>2026-05-03T12:49:46Z</time></trkpt><trkpt lat="43.74517613259931" lon="11.278719624536109"><ele>76.0</ele><time>2026-05-03T12:49:47Z</time></trkpt><trkpt lat="43.74526523729533" lon="11.278902901418109"><ele>76.66666666666666</ele><time>2026-05-03T12:49:48Z</time></trkpt><trkpt lat="43.74534670429452" lon="11.279097755299118"><ele>77.33333333333333</ele><time>2026-05-03T12:49:49Z</time></trkpt><trkpt lat="43.74542492653487" lon="11.27927966998128"><ele>78.0</ele><time>2026-05-03T12:49:50Z</time></trkpt><trkpt lat="43.74550347947898" lon="11.27944613405183"><ele>78.0</ele><time>2026-05-03T12:49:51Z</time></trkpt><trkpt lat="43.74557554886795" lon="11.279596872254233"><ele>78.0</ele><time>2026-05-03T12:49:52Z</time></trkpt><trkpt lat="43.74564306965175" lon="11.279735069969137"><ele>78.0</ele><time>2026-05-03T12:49:53Z</time></trkpt><trkpt lat="43.745690867375515" lon="11.279839421028104"><ele>78.0</ele><time>2026-05-03T12:49:54Z</time></trkpt><trkpt lat="43.74573480388813" lon="11.279931199188962"><ele>78.0</ele><time>2026-05-03T12:49:55Z</time></trkpt><trkpt lat="43.745759024007256" lon="11.280067666352444"><ele>78.0</ele><time>2026-05-03T12:49:57Z</time></trkpt><trkpt lat="43.74563307986695" lon="11.280146918186148"><ele>78.0</ele><time>2026-05-03T12:49:59Z</time></trkpt><trkpt lat="43.74553190107062" lon="11.280183284996493"><ele>78.0</ele><time>2026-05-03T12:50:00Z</time></trkpt><trkpt lat="43.74542099687262" lon="11.280223143259638"><ele>78.0</ele><time>2026-05-03T12:50:01Z</time></trkpt><trkpt lat="43.7453116742621" lon="11.280304166082018"><ele>77.0</ele><time>2026-05-03T12:50:02Z</time></trkpt><trkpt lat="43.74517414202185" lon="11.280388099750416"><ele>76.0</ele><time>2026-05-03T12:50:03Z</time></trkpt><trkpt lat="43.74502626640176" lon="11.280484233084373"><ele>75.0</ele><time>2026-05-03T12:50:04Z</time></trkpt><trkpt lat="43.74487769674137" lon="11.280597411915856"><ele>75.0</ele><time>2026-05-03T12:50:05Z</time></trkpt><trkpt lat="43.74473766996123" lon="11.280677845319891"><ele>75.0</ele><time>2026-05-03T12:50:06Z</time></trkpt><trkpt lat="43.74461340182102" lon="11.280747536938547"><ele>75.0</ele><time>2026-05-03T12:50:07Z</time></trkpt><trkpt lat="43.7445006444365" lon="11.280823975257213"><ele>75.0</ele><time>2026-05-03T12:50:08Z</time></trkpt><trkpt lat="43.744390318191655" lon="11.280884078428898"><ele>75.0</ele><time>2026-05-03T12:50:09Z</time></trkpt><trkpt lat="43.74428546464326" lon="11.280932839564436"><ele>75.0</ele><time>2026-05-03T12:50:10Z</time></trkpt><trkpt lat="43.74418407156435" lon="11.280975039221737"><ele>75.0</ele><time>2026-05-03T12:50:11Z</time></trkpt><trkpt lat="43.744083681878" lon="11.280989676741402"><ele>75.0</ele><time>2026-05-03T12:50:12Z</time></trkpt><trkpt lat="43.74398067644288" lon="11.280955392046222"><ele>75.0</ele><time>2026-05-03T12:50:13Z</time></trkpt><trkpt lat="43.7438632396109" lon="11.28089603504509"><ele>75.0</ele><time>2026-05-03T12:50:14Z</time></trkpt><trkpt lat="43.74375465055037" lon="11.280820574232994"><ele>75.0</ele><time>2026-05-03T12:50:15Z</time></trkpt><trkpt lat="43.74365636012764" lon="11.280751525067863"><ele>75.0</ele><time>2026-05-03T12:50:16Z</time></trkpt><trkpt lat="43.743564376118485" lon="11.280708577759444"><ele>75.0</ele><time>2026-05-03T12:50:17Z</time></trkpt><trkpt lat="43.743465634962064" lon="11.280674733181824"><ele>75.0</ele><time>2026-05-03T12:50:18Z</time></trkpt><trkpt lat="43.74338000849631" lon="11.280665367328575"><ele>75.4</ele><time>2026-05-03T12:50:19Z</time></trkpt><trkpt lat="43.743313757355025" lon="11.280677505466324"><ele>75.8</ele><time>2026-05-03T12:50:20Z</time></trkpt><trkpt lat="43.743255668819856" lon="11.280845192682632"><ele>76.2</ele><time>2026-05-03T12:50:22Z</time></trkpt><trkpt lat="43.743253164088664" lon="11.280979974655716"><ele>76.6</ele><time>2026-05-03T12:50:23Z</time></trkpt><trkpt lat="43.743252975048215" lon="11.281141204211481"><ele>77.0</ele><time>2026-05-03T12:50:24Z</time></trkpt><trkpt lat="43.74324251283793" lon="11.281297584562749"><ele>77.0</ele><time>2026-05-03T12:50:25Z</time></trkpt><trkpt lat="43.743219271733516" lon="11.281429567077431"><ele>77.0</ele><time>2026-05-03T12:50:26Z</time></trkpt><trkpt lat="43.74315588098683" lon="11.28153790851847"><ele>77.0</ele><time>2026-05-03T12:50:27Z</time></trkpt><trkpt lat="43.7429831133415" lon="11.281533184127527"><ele>77.0</ele><time>2026-05-03T12:50:29Z</time></trkpt><trkpt lat="43.74284697355264" lon="11.281555689238354"><ele>76.75</ele><time>2026-05-03T12:50:30Z</time></trkpt><trkpt lat="43.742706669483304" lon="11.281572679368002"><ele>76.5</ele><time>2026-05-03T12:50:31Z</time></trkpt><trkpt lat="43.74258370033926" lon="11.281590015935107"><ele>76.25</ele><time>2026-05-03T12:50:32Z</time></trkpt><trkpt lat="43.742482543074274" lon="11.281607800013244"><ele>76.0</ele><time>2026-05-03T12:50:33Z</time></trkpt><trkpt lat="43.74240466368212" lon="11.281653904484527"><ele>76.0</ele><time>2026-05-03T12:50:34Z</time></trkpt><trkpt lat="43.74235269575708" lon="11.281745054418696"><ele>76.0</ele><time>2026-05-03T12:50:35Z</time></trkpt><trkpt lat="43.74229223244414" lon="11.281838810680132"><ele>76.0</ele><time>2026-05-03T12:50:36Z</time></trkpt><trkpt lat="43.742310453789145" lon="11.281996868837286"><ele>76.0</ele><time>2026-05-03T12:50:37Z</time></trkpt><trkpt lat="43.742310136140304" lon="11.282153245873436"><ele>76.0</ele><time>2026-05-03T12:50:38Z</time></trkpt><trkpt lat="43.742298848571785" lon="11.282314243049358"><ele>76.0</ele><time>2026-05-03T12:50:39Z</time></trkpt><trkpt lat="43.74228272294994" lon="11.282483650905833"><ele>76.0</ele><time>2026-05-03T12:50:40Z</time></trkpt><trkpt lat="43.74226960337982" lon="11.282665545476437"><ele>76.0</ele><time>2026-05-03T12:50:41Z</time></trkpt><trkpt lat="43.74225690018296" lon="11.2828431196131"><ele>76.0</ele><time>2026-05-03T12:50:42Z</time></trkpt><trkpt lat="43.74224642932995" lon="11.283005134291734"><ele>76.0</ele><time>2026-05-03T12:50:43Z</time></trkpt><trkpt lat="43.742233536819846" lon="11.283161172912111"><ele>76.0</ele><time>2026-05-03T12:50:44Z</time></trkpt><trkpt lat="43.74221722885727" lon="11.283309104525058"><ele>76.0</ele><time>2026-05-03T12:50:45Z</time></trkpt><trkpt lat="43.742196884436204" lon="11.283439171116171"><ele>76.0</ele><time>2026-05-03T12:50:46Z</time></trkpt><trkpt lat="43.74217291685415" lon="11.283541012405076"><ele>76.0</ele><time>2026-05-03T12:50:47Z</time></trkpt><trkpt lat="43.742134403783126" lon="11.283633578702728"><ele>76.0</ele><time>2026-05-03T12:50:48Z</time></trkpt><trkpt lat="43.74207194247066" lon="11.283706229458426"><ele>76.0</ele><time>2026-05-03T12:50:49Z</time></trkpt><trkpt lat="43.742033226377" lon="11.283802103190327"><ele>76.0</ele><time>2026-05-03T12:50:50Z</time></trkpt><trkpt lat="43.7419673574698" lon="11.283856042914286"><ele>76.0</ele><time>2026-05-03T12:50:51Z</time></trkpt><trkpt lat="43.74188599101042" lon="11.28394371594759"><ele>76.0</ele><time>2026-05-03T12:50:53Z</time></trkpt><trkpt lat="43.74182466757627" lon="11.283989260411905"><ele>76.0</ele><time>2026-05-03T12:50:54Z</time></trkpt><trkpt lat="43.741935662537166" lon="11.284157039460458"><ele>76.0</ele><time>2026-05-03T12:50:55Z</time></trkpt><trkpt lat="43.74196700031541" lon="11.284260440538219"><ele>76.0</ele><time>2026-05-03T12:50:56Z</time></trkpt><trkpt lat="43.74198233955657" lon="11.284384814474057"><ele>76.0</ele><time>2026-05-03T12:50:57Z</time></trkpt><trkpt lat="43.74198586709018" lon="11.284514994053913"><ele>76.0</ele><time>2026-05-03T12:50:58Z</time></trkpt><trkpt lat="43.7419730550487" lon="11.28466035428517"><ele>76.0</ele><time>2026-05-03T12:50:59Z</time></trkpt><trkpt lat="43.74193587313331" lon="11.284802261376473"><ele>76.0</ele><time>2026-05-03T12:51:00Z</time></trkpt><trkpt lat="43.74189278763359" lon="11.284952166110045"><ele>76.0</ele><time>2026-05-03T12:51:01Z</time></trkpt><trkpt lat="43.74185356748661" lon="11.285087122547559"><ele>76.0</ele><time>2026-05-03T12:51:02Z</time></trkpt><trkpt lat="43.74181661170391" lon="11.28520929910796"><ele>76.0</ele><time>2026-05-03T12:51:03Z</time></trkpt><trkpt lat="43.74177254253988" lon="11.285351771687822"><ele>76.0</ele><time>2026-05-03T12:51:04Z</time></trkpt><trkpt lat="43.741726674933844" lon="11.285501137296169"><ele>76.0</ele><time>2026-05-03T12:51:05Z</time></trkpt><trkpt lat="43.74168226481156" lon="11.285645760799422"><ele>76.0</ele><time>2026-05-03T12:51:06Z</time></trkpt><trkpt lat="43.74164113439679" lon="11.285784561672868"><ele>76.0</ele><time>2026-05-03T12:51:07Z</time></trkpt><trkpt lat="43.74160302924482" lon="11.285925484981176"><ele>76.0</ele><time>2026-05-03T12:51:08Z</time></trkpt><trkpt lat="43.74158184038847" lon="11.286071131331612"><ele>76.0</ele><time>2026-05-03T12:51:09Z</time></trkpt><trkpt lat="43.741543418904925" lon="11.286208290038527"><ele>76.0</ele><time>2026-05-03T12:51:10Z</time></trkpt><trkpt lat="43.74150781083518" lon="11.2863454888471"><ele>76.0</ele><time>2026-05-03T12:51:11Z</time></trkpt><trkpt lat="43.74147243833818" lon="11.286481808875253"><ele>76.0</ele><time>2026-05-03T12:51:12Z</time></trkpt><trkpt lat="43.741436332452245" lon="11.286607160063825"><ele>76.0</ele><time>2026-05-03T12:51:13Z</time></trkpt><trkpt lat="43.741369733107796" lon="11.286697898736982"><ele>76.0</ele><time>2026-05-03T12:51:14Z</time></trkpt><trkpt lat="43.74131471111086" lon="11.286772514851455"><ele>76.16666666666666</ele><time>2026-05-03T12:51:15Z</time></trkpt><trkpt lat="43.74125576853855" lon="11.286822623522562"><ele>76.33333333333333</ele><time>2026-05-03T12:51:16Z</time></trkpt><trkpt lat="43.741172159432274" lon="11.286817128385586"><ele>76.5</ele><time>2026-05-03T12:51:17Z</time></trkpt><trkpt lat="43.74108636778674" lon="11.286762253524726"><ele>76.66666666666667</ele><time>2026-05-03T12:51:18Z</time></trkpt><trkpt lat="43.741024737873836" lon="11.286676798393177"><ele>76.83333333333334</ele><time>2026-05-03T12:51:19Z</time></trkpt><trkpt lat="43.74095408342952" lon="11.286617504703283"><ele>77.0</ele><time>2026-05-03T12:51:20Z</time></trkpt><trkpt lat="43.740884548256176" lon="11.286579029141754"><ele>77.16666666666667</ele><time>2026-05-03T12:51:21Z</time></trkpt><trkpt lat="43.740799259712354" lon="11.286612394140198"><ele>77.33333333333334</ele><time>2026-05-03T12:51:22Z</time></trkpt><trkpt lat="43.74072892312689" lon="11.286668513937931"><ele>77.5</ele><time>2026-05-03T12:51:23Z</time></trkpt><trkpt lat="43.74068078743273" lon="11.286767210230641"><ele>77.66666666666667</ele><time>2026-05-03T12:51:24Z</time></trkpt><trkpt lat="43.74065701260965" lon="11.286878667069157"><ele>77.83333333333333</ele><time>2026-05-03T12:51:25Z</time></trkpt><trkpt lat="43.740642175086265" lon="11.28697925982352"><ele>78.0</ele><time>2026-05-03T12:51:26Z</time></trkpt><trkpt lat="43.740627289585056" lon="11.287072910603433"><ele>78.0</ele><time>2026-05-03T12:51:27Z</time></trkpt><trkpt lat="43.74065399542789" lon="11.287225531631657"><ele>78.0</ele><time>2026-05-03T12:51:29Z</time></trkpt><trkpt lat="43.740715492436706" lon="11.287258744053007"><ele>78.0</ele><time>2026-05-03T12:51:30Z</time></trkpt><trkpt lat="43.74078849074486" lon="11.287242644262497"><ele>78.0</ele><time>2026-05-03T12:51:31Z</time></trkpt><trkpt lat="43.74086303863846" lon="11.28720563287151"><ele>78.0</ele><time>2026-05-03T12:51:32Z</time></trkpt><trkpt lat="43.74096010283408" lon="11.287170926251031"><ele>78.0</ele><time>2026-05-03T12:51:33Z</time></trkpt><trkpt lat="43.74106846365087" lon="11.28716568808443"><ele>78.0</ele><time>2026-05-03T12:51:34Z</time></trkpt><trkpt lat="43.74120037453553" lon="11.287166957519762"><ele>78.0</ele><time>2026-05-03T12:51:35Z</time></trkpt><trkpt lat="43.74134220336909" lon="11.287192201447777"><ele>78.0</ele><time>2026-05-03T12:51:36Z</time></trkpt><trkpt lat="43.74150052444173" lon="11.28723707251586"><ele>78.0</ele><time>2026-05-03T12:51:37Z</time></trkpt><trkpt lat="43.7416486050811" lon="11.287306611099432"><ele>78.0</ele><time>2026-05-03T12:51:38Z</time></trkpt><trkpt lat="43.741786219050326" lon="11.287409759239225"><ele>78.0</ele><time>2026-05-03T12:51:39Z</time></trkpt><trkpt lat="43.74190884244283" lon="11.287527232340706"><ele>78.0</ele><time>2026-05-03T12:51:40Z</time></trkpt><trkpt lat="43.74201492564671" lon="11.287654384627347"><ele>78.0</ele><time>2026-05-03T12:51:41Z</time></trkpt><trkpt lat="43.742109527649305" lon="11.287766328596947"><ele>77.75</ele><time>2026-05-03T12:51:42Z</time></trkpt><trkpt lat="43.74220941877228" lon="11.28783106797854"><ele>77.5</ele><time>2026-05-03T12:51:43Z</time></trkpt><trkpt lat="43.74231628689184" lon="11.287841670600727"><ele>77.25</ele><time>2026-05-03T12:51:44Z</time></trkpt><trkpt lat="43.74243093236825" lon="11.287809191447119"><ele>77.0</ele><time>2026-05-03T12:51:45Z</time></trkpt><trkpt lat="43.742539189617574" lon="11.287723441776727"><ele>77.0</ele><time>2026-05-03T12:51:46Z</time></trkpt><trkpt lat="43.74261804731399" lon="11.28758145288238"><ele>77.0</ele><time>2026-05-03T12:51:47Z</time></trkpt><trkpt lat="43.742672899946854" lon="11.287416636602908"><ele>77.0</ele><time>2026-05-03T12:51:48Z</time></trkpt><trkpt lat="43.74269418319862" lon="11.287232446201008"><ele>77.0</ele><time>2026-05-03T12:51:49Z</time></trkpt><trkpt lat="43.74270977943929" lon="11.28704296155264"><ele>78.25</ele><time>2026-05-03T12:51:50Z</time></trkpt><trkpt lat="43.74273034062133" lon="11.28685981106258"><ele>79.5</ele><time>2026-05-03T12:51:51Z</time></trkpt><trkpt lat="43.74276205235845" lon="11.286693949075195"><ele>80.75</ele><time>2026-05-03T12:51:52Z</time></trkpt><trkpt lat="43.742797958195965" lon="11.286550797071099"><ele>82.0</ele><time>2026-05-03T12:51:53Z</time></trkpt><trkpt lat="43.742833028114845" lon="11.286432251280054"><ele>81.0</ele><time>2026-05-03T12:51:54Z</time></trkpt><trkpt lat="43.74286442545025" lon="11.286343582703894"><ele>80.0</ele><time>2026-05-03T12:51:55Z</time></trkpt><trkpt lat="43.7428990012837" lon="11.286249523245012"><ele>79.0</ele><time>2026-05-03T12:51:56Z</time></trkpt><trkpt lat="43.742940672477935" lon="11.2861411050708"><ele>78.0</ele><time>2026-05-03T12:51:57Z</time></trkpt><trkpt lat="43.74298933804413" lon="11.286031990066531"><ele>77.0</ele><time>2026-05-03T12:51:58Z</time></trkpt><trkpt lat="43.743042821411564" lon="11.285923456890286"><ele>76.0</ele><time>2026-05-03T12:51:59Z</time></trkpt><trkpt lat="43.743098322346654" lon="11.285810664498419"><ele>76.0</ele><time>2026-05-03T12:52:00Z</time></trkpt><trkpt lat="43.743158441710534" lon="11.28569796894138"><ele>76.0</ele><time>2026-05-03T12:52:01Z</time></trkpt><trkpt lat="43.74322957411625" lon="11.285573972648864"><ele>76.0</ele><time>2026-05-03T12:52:02Z</time></trkpt><trkpt lat="43.74330437189584" lon="11.285448678862462"><ele>76.0</ele><time>2026-05-03T12:52:03Z</time></trkpt><trkpt lat="43.74337845696041" lon="11.285321642463904"><ele>76.25</ele><time>2026-05-03T12:52:04Z</time></trkpt><trkpt lat="43.743381524539" lon="11.285147885702822"><ele>76.5</ele><time>2026-05-03T12:52:05Z</time></trkpt><trkpt lat="43.743517916499535" lon="11.285081694556363"><ele>76.75</ele><time>2026-05-03T12:52:06Z</time></trkpt><trkpt lat="43.74357837220098" lon="11.284965951962016"><ele>77.0</ele><time>2026-05-03T12:52:07Z</time></trkpt><trkpt lat="43.7436436387165" lon="11.284835893251556"><ele>76.75</ele><time>2026-05-03T12:52:08Z</time></trkpt><trkpt lat="43.74371434545169" lon="11.284693393131286"><ele>76.5</ele><time>2026-05-03T12:52:09Z</time></trkpt><trkpt lat="43.74378351482935" lon="11.284546056377028"><ele>76.25</ele><time>2026-05-03T12:52:10Z</time></trkpt><trkpt lat="43.74384944274609" lon="11.284395861254463"><ele>76.0</ele><time>2026-05-03T12:52:11Z</time></trkpt><trkpt lat="43.74391649398932" lon="11.284242115239682"><ele>76.0</ele><time>2026-05-03T12:52:12Z</time></trkpt><trkpt lat="43.743980578704715" lon="11.284090467406092"><ele>76.0</ele><time>2026-05-03T12:52:13Z</time></trkpt><trkpt lat="43.744052508688846" lon="11.283919532847182"><ele>76.0</ele><time>2026-05-03T12:52:14Z</time></trkpt><trkpt lat="43.74413605385294" lon="11.2837355816389"><ele>76.0</ele><time>2026-05-03T12:52:15Z</time></trkpt><trkpt lat="43.744227816400944" lon="11.28355168067737"><ele>76.0</ele><time>2026-05-03T12:52:16Z</time></trkpt><trkpt lat="43.74433940617371" lon="11.283401755267128"><ele>76.0</ele><time>2026-05-03T12:52:17Z</time></trkpt><trkpt lat="43.744461391335356" lon="11.28328071593012"><ele>76.0</ele><time>2026-05-03T12:52:18Z</time></trkpt><trkpt lat="43.744593150589" lon="11.283215478950357"><ele>76.0</ele><time>2026-05-03T12:52:19Z</time></trkpt><trkpt lat="43.744736779592444" lon="11.283180118261093"><ele>76.0</ele><time>2026-05-03T12:52:20Z</time></trkpt><trkpt lat="43.74488990388768" lon="11.28316883565264"><ele>76.0</ele><time>2026-05-03T12:52:21Z</time></trkpt><trkpt lat="43.745042761278306" lon="11.283193463993692"><ele>76.0</ele><time>2026-05-03T12:52:22Z</time></trkpt><trkpt lat="43.745190334218044" lon="11.283243859208572"><ele>77.0</ele><time>2026-05-03T12:52:23Z</time></trkpt><trkpt lat="43.74533105478197" lon="11.283328212252387"><ele>78.0</ele><time>2026-05-03T12:52:24Z</time></trkpt><trkpt lat="43.74542168518681" lon="11.283414092939788"><ele>79.0</ele><time>2026-05-03T12:52:25Z</time></trkpt><trkpt lat="43.74547181504618" lon="11.283476296623858"><ele>80.0</ele><time>2026-05-03T12:52:26Z</time></trkpt><trkpt lat="43.74555984327284" lon="11.283562836447686"><ele>81.0</ele><time>2026-05-03T12:52:28Z</time></trkpt><trkpt lat="43.74561110540071" lon="11.283619884994465"><ele>81.0</ele><time>2026-05-03T12:52:29Z</time></trkpt><trkpt lat="43.74567298409545" lon="11.283683392673186"><ele>81.0</ele><time>2026-05-03T12:52:30Z</time></trkpt><trkpt lat="43.74574976794204" lon="11.283767875184802"><ele>81.0</ele><time>2026-05-03T12:52:31Z</time></trkpt><trkpt lat="43.74582973082357" lon="11.283884747054277"><ele>81.0</ele><time>2026-05-03T12:52:32Z</time></trkpt><trkpt lat="43.7459251453335" lon="11.284031493912288"><ele>81.0</ele><time>2026-05-03T12:52:33Z</time></trkpt><trkpt lat="43.74603067722538" lon="11.284212881776458"><ele>85.0</ele><time>2026-05-03T12:52:34Z</time></trkpt><trkpt lat="43.746141157938006" lon="11.284455465533169"><ele>89.0</ele><time>2026-05-03T12:52:35Z</time></trkpt><trkpt lat="43.746244544429146" lon="11.284739916919705"><ele>93.0</ele><time>2026-05-03T12:52:36Z</time></trkpt><trkpt lat="43.746350458168806" lon="11.285059178242857"><ele>94.0</ele><time>2026-05-03T12:52:37Z</time></trkpt><trkpt lat="43.74646963498717" lon="11.285397773847883"><ele>95.0</ele><time>2026-05-03T12:52:38Z</time></trkpt><trkpt lat="43.74659442123504" lon="11.285751591571131"><ele>95.0</ele><time>2026-05-03T12:52:39Z</time></trkpt><trkpt lat="43.746724794418746" lon="11.286118883211474"><ele>95.0</ele><time>2026-05-03T12:52:40Z</time></trkpt><trkpt lat="43.74685526440661" lon="11.286486918919447"><ele>103.5</ele><time>2026-05-03T12:52:41Z</time></trkpt><trkpt lat="43.74697775026595" lon="11.286803822265446"><ele>112.0</ele><time>2026-05-03T12:52:42Z</time></trkpt><trkpt lat="43.74708705749089" lon="11.287085476113282"><ele>108.0</ele><time>2026-05-03T12:52:43Z</time></trkpt><trkpt lat="43.74719974420157" lon="11.287355613741255"><ele>104.0</ele><time>2026-05-03T12:52:44Z</time></trkpt><trkpt lat="43.74731174664898" lon="11.287606248224169"><ele>100.0</ele><time>2026-05-03T12:52:45Z</time></trkpt><trkpt lat="43.74742463643665" lon="11.287844107201272"><ele>100.0</ele><time>2026-05-03T12:52:46Z</time></trkpt><trkpt lat="43.74753831546583" lon="11.288080027635482"><ele>100.0</ele><time>2026-05-03T12:52:47Z</time></trkpt><trkpt lat="43.747654284278724" lon="11.288324237318145"><ele>100.0</ele><time>2026-05-03T12:52:48Z</time></trkpt><trkpt lat="43.747769782053304" lon="11.288569309624235"><ele>101.0</ele><time>2026-05-03T12:52:49Z</time></trkpt><trkpt lat="43.747884917738965" lon="11.288815555191809"><ele>102.0</ele><time>2026-05-03T12:52:50Z</time></trkpt><trkpt lat="43.74799419303526" lon="11.289065890398334"><ele>103.0</ele><time>2026-05-03T12:52:51Z</time></trkpt><trkpt lat="43.748089431458496" lon="11.289327552547553"><ele>100.66666666666667</ele><time>2026-05-03T12:52:52Z</time></trkpt><trkpt lat="43.748163294228014" lon="11.289598469818957"><ele>98.33333333333334</ele><time>2026-05-03T12:52:53Z</time></trkpt><trkpt lat="43.74821848189147" lon="11.289882822126877"><ele>96.0</ele><time>2026-05-03T12:52:54Z</time></trkpt><trkpt lat="43.74825146370557" lon="11.290168317545785"><ele>94.33333333333333</ele><time>2026-05-03T12:52:55Z</time></trkpt><trkpt lat="43.74826062086004" lon="11.290451335436181"><ele>92.66666666666666</ele><time>2026-05-03T12:52:56Z</time></trkpt><trkpt lat="43.748264019701715" lon="11.290734935042558"><ele>91.0</ele><time>2026-05-03T12:52:57Z</time></trkpt><trkpt lat="43.74825027976621" lon="11.291018663706083"><ele>89.66666666666666</ele><time>2026-05-03T12:52:58Z</time></trkpt><trkpt lat="43.74823405463513" lon="11.29129633290048"><ele>88.33333333333333</ele><time>2026-05-03T12:52:59Z</time></trkpt><trkpt lat="43.7482226881644" lon="11.291576462638568"><ele>87.0</ele><time>2026-05-03T12:53:00Z</time></trkpt><trkpt lat="43.74821481835244" lon="11.291859640063796"><ele>85.0</ele><time>2026-05-03T12:53:01Z</time></trkpt><trkpt lat="43.74820343955571" lon="11.292146403981883"><ele>83.0</ele><time>2026-05-03T12:53:02Z</time></trkpt><trkpt lat="43.74819540194495" lon="11.292428626841017"><ele>81.0</ele><time>2026-05-03T12:53:03Z</time></trkpt><trkpt lat="43.74819177996286" lon="11.292705337607481"><ele>81.0</ele><time>2026-05-03T12:53:04Z</time></trkpt><trkpt lat="43.748177630064866" lon="11.292994554002487"><ele>81.0</ele><time>2026-05-03T12:53:05Z</time></trkpt><trkpt lat="43.74816423275517" lon="11.293269800936029"><ele>81.0</ele><time>2026-05-03T12:53:06Z</time></trkpt><trkpt lat="43.7481480162806" lon="11.293533561239997"><ele>79.66666666666667</ele><time>2026-05-03T12:53:07Z</time></trkpt><trkpt lat="43.74813118380893" lon="11.293790320936878"><ele>78.33333333333334</ele><time>2026-05-03T12:53:08Z</time></trkpt><trkpt lat="43.748117725064596" lon="11.294037050349608"><ele>77.0</ele><time>2026-05-03T12:53:09Z</time></trkpt><trkpt lat="43.748112084767044" lon="11.294275335705185"><ele>76.33333333333334</ele><time>2026-05-03T12:53:10Z</time></trkpt><trkpt lat="43.74812235894071" lon="11.29450500030111"><ele>75.66666666666667</ele><time>2026-05-03T12:53:11Z</time></trkpt><trkpt lat="43.74814388458988" lon="11.294730918952412"><ele>75.0</ele><time>2026-05-03T12:53:12Z</time></trkpt><trkpt lat="43.748180425291544" lon="11.294946934000158"><ele>74.66666666666667</ele><time>2026-05-03T12:53:13Z</time></trkpt><trkpt lat="43.74822791431227" lon="11.295151605613881"><ele>74.33333333333334</ele><time>2026-05-03T12:53:14Z</time></trkpt><trkpt lat="43.74828498044354" lon="11.295352373419519"><ele>74.0</ele><time>2026-05-03T12:53:15Z</time></trkpt><trkpt lat="43.74835076673105" lon="11.295552760955754"><ele>75.66666666666667</ele><time>2026-05-03T12:53:16Z</time></trkpt><trkpt lat="43.74843171369129" lon="11.295745954151833"><ele>77.33333333333333</ele><time>2026-05-03T12:53:17Z</time></trkpt><trkpt lat="43.74852782643247" lon="11.295923215119977"><ele>79.0</ele><time>2026-05-03T12:53:18Z</time></trkpt><trkpt lat="43.74862437160572" lon="11.296105409742356"><ele>75.0</ele><time>2026-05-03T12:53:19Z</time></trkpt><trkpt lat="43.74873635078937" lon="11.296274925723479"><ele>71.0</ele><time>2026-05-03T12:53:20Z</time></trkpt><trkpt lat="43.74885537163256" lon="11.296419151851078"><ele>67.0</ele><time>2026-05-03T12:53:21Z</time></trkpt><trkpt lat="43.74897168136214" lon="11.296555658552103"><ele>67.0</ele><time>2026-05-03T12:53:22Z</time></trkpt><trkpt lat="43.749088390789886" lon="11.296689677059888"><ele>67.0</ele><time>2026-05-03T12:53:23Z</time></trkpt><trkpt lat="43.749207386565935" lon="11.296820957291612"><ele>67.0</ele><time>2026-05-03T12:53:24.001Z</time></trkpt><trkpt lat="43.74932807066007" lon="11.296948767816263"><ele>65.75</ele><time>2026-05-03T12:53:25.001Z</time></trkpt><trkpt lat="43.74944465348453" lon="11.297074080037946"><ele>64.5</ele><time>2026-05-03T12:53:26.001Z</time></trkpt><trkpt lat="43.74956390665762" lon="11.297202884323347"><ele>63.25</ele><time>2026-05-03T12:53:27.001Z</time></trkpt><trkpt lat="43.74968209250354" lon="11.297329101826149"><ele>62.0</ele><time>2026-05-03T12:53:28.001Z</time></trkpt><trkpt lat="43.74979929199164" lon="11.297455799643135"><ele>62.0</ele><time>2026-05-03T12:53:29.001Z</time></trkpt><trkpt lat="43.749915602004116" lon="11.297579043752522"><ele>62.0</ele><time>2026-05-03T12:53:30.001Z</time></trkpt><trkpt lat="43.75003436841921" lon="11.297696040205532"><ele>62.0</ele><time>2026-05-03T12:53:31.001Z</time></trkpt><trkpt lat="43.75014853119513" lon="11.29783124346675"><ele>62.0</ele><time>2026-05-03T12:53:32.001Z</time></trkpt><trkpt lat="43.75025817560875" lon="11.297956987465705"><ele>61.5</ele><time>2026-05-03T12:53:33.001Z</time></trkpt><trkpt lat="43.750366958953165" lon="11.298076123945439"><ele>61.0</ele><time>2026-05-03T12:53:34.001Z</time></trkpt><trkpt lat="43.75047738390841" lon="11.298191455008633"><ele>60.5</ele><time>2026-05-03T12:53:35.001Z</time></trkpt><trkpt lat="43.75058652239044" lon="11.29830651736146"><ele>60.0</ele><time>2026-05-03T12:53:36.001Z</time></trkpt><trkpt lat="43.75069010401023" lon="11.298426068371077"><ele>60.0</ele><time>2026-05-03T12:53:37.001Z</time></trkpt><trkpt lat="43.75079525636595" lon="11.298547528365134"><ele>60.0</ele><time>2026-05-03T12:53:38.001Z</time></trkpt><trkpt lat="43.750903654106665" lon="11.298660105594147"><ele>60.0</ele><time>2026-05-03T12:53:39.001Z</time></trkpt><trkpt lat="43.7510176375477" lon="11.29876456279769"><ele>60.0</ele><time>2026-05-03T12:53:40.001Z</time></trkpt><trkpt lat="43.7511323453563" lon="11.29887339518447"><ele>59.75</ele><time>2026-05-03T12:53:41.001Z</time></trkpt><trkpt lat="43.75124869199182" lon="11.298974215997642"><ele>59.5</ele><time>2026-05-03T12:53:42.001Z</time></trkpt><trkpt lat="43.75136669017917" lon="11.29908172010607"><ele>59.25</ele><time>2026-05-03T12:53:43.001Z</time></trkpt><trkpt lat="43.75148371041477" lon="11.299189452067086"><ele>59.0</ele><time>2026-05-03T12:53:44.001Z</time></trkpt><trkpt lat="43.751609757040015" lon="11.299303160165717"><ele>59.0</ele><time>2026-05-03T12:53:45.001Z</time></trkpt><trkpt lat="43.751743123874235" lon="11.29941530235348"><ele>59.0</ele><time>2026-05-03T12:53:46.001Z</time></trkpt><trkpt lat="43.75188519487961" lon="11.299525872599384"><ele>59.0</ele><time>2026-05-03T12:53:47.001Z</time></trkpt><trkpt lat="43.7520240146689" lon="11.299641122113146"><ele>58.333333333333336</ele><time>2026-05-03T12:53:48.001Z</time></trkpt><trkpt lat="43.75217441819445" lon="11.299745374666806"><ele>57.66666666666667</ele><time>2026-05-03T12:53:49.001Z</time></trkpt><trkpt lat="43.75232561877015" lon="11.299852830893036"><ele>57.0</ele><time>2026-05-03T12:53:50.001Z</time></trkpt><trkpt lat="43.75248586608826" lon="11.299960960044732"><ele>57.0</ele><time>2026-05-03T12:53:51.001Z</time></trkpt><trkpt lat="43.7526466252408" lon="11.30006682398618"><ele>57.0</ele><time>2026-05-03T12:53:52.001Z</time></trkpt><trkpt lat="43.7528116939855" lon="11.30016824664733"><ele>57.0</ele><time>2026-05-03T12:53:53.001Z</time></trkpt><trkpt lat="43.75297948478914" lon="11.300260537911258"><ele>56.66666666666667</ele><time>2026-05-03T12:53:54.001Z</time></trkpt><trkpt lat="43.75314486754078" lon="11.300354727505995"><ele>56.333333333333336</ele><time>2026-05-03T12:53:55.001Z</time></trkpt><trkpt lat="43.753311219526694" lon="11.300450824318597"><ele>56.0</ele><time>2026-05-03T12:53:56Z</time></trkpt><trkpt lat="43.75346844478641" lon="11.300544532739025"><ele>56.333333333333336</ele><time>2026-05-03T12:53:57Z</time></trkpt><trkpt lat="43.75362573986329" lon="11.30063974663481"><ele>56.66666666666667</ele><time>2026-05-03T12:53:58Z</time></trkpt><trkpt lat="43.75377751604976" lon="11.300732617496356"><ele>57.0</ele><time>2026-05-03T12:53:59Z</time></trkpt><trkpt lat="43.75392856314725" lon="11.300821196842394"><ele>57.0</ele><time>2026-05-03T12:54:00Z</time></trkpt><trkpt lat="43.75407673499978" lon="11.300906298584513"><ele>57.0</ele><time>2026-05-03T12:54:01Z</time></trkpt><trkpt lat="43.75421934159837" lon="11.300995390419375"><ele>57.0</ele><time>2026-05-03T12:54:02Z</time></trkpt><trkpt lat="43.754358740203934" lon="11.301083502144843"><ele>57.33333333333333</ele><time>2026-05-03T12:54:03Z</time></trkpt><trkpt lat="43.754501850413625" lon="11.301182745080904"><ele>57.666666666666664</ele><time>2026-05-03T12:54:04Z</time></trkpt><trkpt lat="43.7546506648599" lon="11.301282012086288"><ele>58.0</ele><time>2026-05-03T12:54:05Z</time></trkpt><trkpt lat="43.7547936133433" lon="11.301362135359827"><ele>58.25</ele><time>2026-05-03T12:54:06Z</time></trkpt><trkpt lat="43.7549226843909" lon="11.301441983632813"><ele>58.5</ele><time>2026-05-03T12:54:07Z</time></trkpt><trkpt lat="43.75504590816554" lon="11.301516084174485"><ele>58.75</ele><time>2026-05-03T12:54:08Z</time></trkpt><trkpt lat="43.75516749937133" lon="11.301593090089339"><ele>59.0</ele><time>2026-05-03T12:54:09Z</time></trkpt><trkpt lat="43.75529468302914" lon="11.301675250426552"><ele>58.5</ele><time>2026-05-03T12:54:10Z</time></trkpt><trkpt lat="43.75541970300596" lon="11.301764233724986"><ele>58.0</ele><time>2026-05-03T12:54:11Z</time></trkpt><trkpt lat="43.75554618999913" lon="11.301824386383089"><ele>57.5</ele><time>2026-05-03T12:54:12Z</time></trkpt><trkpt lat="43.75564758739763" lon="11.301933886060787"><ele>57.0</ele><time>2026-05-03T12:54:13Z</time></trkpt><trkpt lat="43.75574738397722" lon="11.302008384929376"><ele>57.0</ele><time>2026-05-03T12:54:14Z</time></trkpt><trkpt lat="43.75583664147912" lon="11.302075517768172"><ele>57.0</ele><time>2026-05-03T12:54:15Z</time></trkpt><trkpt lat="43.755921346124154" lon="11.302139780641884"><ele>57.0</ele><time>2026-05-03T12:54:16Z</time></trkpt><trkpt lat="43.75599215461439" lon="11.30220107217452"><ele>57.0</ele><time>2026-05-03T12:54:17Z</time></trkpt><trkpt lat="43.75605372897949" lon="11.302268700916079"><ele>57.0</ele><time>2026-05-03T12:54:18Z</time></trkpt><trkpt lat="43.75609789040388" lon="11.302343543532892"><ele>57.0</ele><time>2026-05-03T12:54:19Z</time></trkpt><trkpt lat="43.75613707044574" lon="11.30245540510386"><ele>57.166666666666664</ele><time>2026-05-03T12:54:21Z</time></trkpt><trkpt lat="43.75610138585644" lon="11.302627810172392"><ele>57.33333333333333</ele><time>2026-05-03T12:54:23Z</time></trkpt><trkpt lat="43.756079609347324" lon="11.302723130984756"><ele>57.5</ele><time>2026-05-03T12:54:24Z</time></trkpt><trkpt lat="43.75605967483869" lon="11.302818515338735"><ele>57.666666666666664</ele><time>2026-05-03T12:54:25Z</time></trkpt><trkpt lat="43.7560397524917" lon="11.302914957187602"><ele>57.83333333333333</ele><time>2026-05-03T12:54:26Z</time></trkpt><trkpt lat="43.75602055789671" lon="11.303015320048765"><ele>58.0</ele><time>2026-05-03T12:54:27Z</time></trkpt><trkpt lat="43.75600071156671" lon="11.303112319005502"><ele>57.99999999999999</ele><time>2026-05-03T12:54:28Z</time></trkpt><trkpt lat="43.75596709062802" lon="11.303256825852372"><ele>58.0</ele><time>2026-05-03T12:54:30Z</time></trkpt><trkpt lat="43.755950637871" lon="11.303347347437052"><ele>58.0</ele><time>2026-05-03T12:54:32Z</time></trkpt><trkpt lat="43.75594048124561" lon="11.303494460021279"><ele>58.0</ele><time>2026-05-03T12:54:46Z</time></trkpt><trkpt lat="43.755935245543476" lon="11.303597639456273"><ele>57.99999999999999</ele><time>2026-05-03T12:54:47Z</time></trkpt><trkpt lat="43.755922949421745" lon="11.30370810099551"><ele>58.0</ele><time>2026-05-03T12:54:48Z</time></trkpt><trkpt lat="43.755911791227604" lon="11.303850787471452"><ele>58.25</ele><time>2026-05-03T12:54:49Z</time></trkpt><trkpt lat="43.75587373501785" lon="11.303994795903153"><ele>58.5</ele><time>2026-05-03T12:54:50Z</time></trkpt><trkpt lat="43.75585122209907" lon="11.304164055882191"><ele>58.75</ele><time>2026-05-03T12:54:51Z</time></trkpt><trkpt lat="43.755814546395044" lon="11.304340112887667"><ele>59.0</ele><time>2026-05-03T12:54:52Z</time></trkpt><trkpt lat="43.755779595317016" lon="11.304522210220414"><ele>59.0</ele><time>2026-05-03T12:54:53Z</time></trkpt><trkpt lat="43.755740985164145" lon="11.30470448401687"><ele>59.0</ele><time>2026-05-03T12:54:54Z</time></trkpt><trkpt lat="43.7557058651381" lon="11.304886423895306"><ele>59.0</ele><time>2026-05-03T12:54:55Z</time></trkpt><trkpt lat="43.75565342005685" lon="11.305067820751583"><ele>59.0</ele><time>2026-05-03T12:54:56Z</time></trkpt><trkpt lat="43.75561511678918" lon="11.305247586079782"><ele>58.800000000000004</ele><time>2026-05-03T12:54:57Z</time></trkpt><trkpt lat="43.75557844435869" lon="11.305419409372982"><ele>58.60000000000001</ele><time>2026-05-03T12:54:58Z</time></trkpt><trkpt lat="43.75554544874768" lon="11.305573934306464"><ele>58.4</ele><time>2026-05-03T12:54:59Z</time></trkpt><trkpt lat="43.75551567304253" lon="11.305713379891069"><ele>58.2</ele><time>2026-05-03T12:55:00Z</time></trkpt><trkpt lat="43.75548503342756" lon="11.305829238341122"><ele>58.0</ele><time>2026-05-03T12:55:01Z</time></trkpt><trkpt lat="43.755429314227236" lon="11.30594352348202"><ele>58.0</ele><time>2026-05-03T12:55:02Z</time></trkpt><trkpt lat="43.75539342905755" lon="11.306089278840696"><ele>58.0</ele><time>2026-05-03T12:55:03Z</time></trkpt><trkpt lat="43.75536722062804" lon="11.306265857048775"><ele>58.0</ele><time>2026-05-03T12:55:04Z</time></trkpt><trkpt lat="43.75533192639279" lon="11.306437159940474"><ele>58.0</ele><time>2026-05-03T12:55:05Z</time></trkpt><trkpt lat="43.75529366741836" lon="11.306605831326557"><ele>58.0</ele><time>2026-05-03T12:55:06Z</time></trkpt><trkpt lat="43.75526776736963" lon="11.306738493118555"><ele>58.0</ele><time>2026-05-03T12:55:07Z</time></trkpt><trkpt lat="43.755241626702485" lon="11.306877786449116"><ele>58.0</ele><time>2026-05-03T12:55:08Z</time></trkpt><trkpt lat="43.75521322698207" lon="11.30703146603358"><ele>58.0</ele><time>2026-05-03T12:55:09Z</time></trkpt><trkpt lat="43.75518416090905" lon="11.307201192024339"><ele>58.0</ele><time>2026-05-03T12:55:10Z</time></trkpt><trkpt lat="43.75515277039175" lon="11.307388020528172"><ele>58.33333333333333</ele><time>2026-05-03T12:55:11Z</time></trkpt><trkpt lat="43.7551193930506" lon="11.307599713433891"><ele>58.66666666666667</ele><time>2026-05-03T12:55:12Z</time></trkpt><trkpt lat="43.755089941987514" lon="11.307824600951355"><ele>59.0</ele><time>2026-05-03T12:55:13Z</time></trkpt><trkpt lat="43.755061734128375" lon="11.308055362882632"><ele>59.0</ele><time>2026-05-03T12:55:14Z</time></trkpt><trkpt lat="43.75503403800182" lon="11.308302276155946"><ele>59.0</ele><time>2026-05-03T12:55:15Z</time></trkpt><trkpt lat="43.755009819835465" lon="11.308564595808457"><ele>59.0</ele><time>2026-05-03T12:55:16Z</time></trkpt><trkpt lat="43.75499124133159" lon="11.308817505505608"><ele>59.0</ele><time>2026-05-03T12:55:17Z</time></trkpt><trkpt lat="43.75497657294789" lon="11.30904986928602"><ele>59.0</ele><time>2026-05-03T12:55:18Z</time></trkpt><trkpt lat="43.75496637241468" lon="11.309248569322397"><ele>59.0</ele><time>2026-05-03T12:55:19Z</time></trkpt><trkpt lat="43.754958990728994" lon="11.309437915515861"><ele>59.0</ele><time>2026-05-03T12:55:20Z</time></trkpt><trkpt lat="43.75495354065194" lon="11.309607280024242"><ele>58.75</ele><time>2026-05-03T12:55:21Z</time></trkpt><trkpt lat="43.75494919791188" lon="11.309782101593644"><ele>58.5</ele><time>2026-05-03T12:55:22Z</time></trkpt><trkpt lat="43.75490578061969" lon="11.309982579419438"><ele>58.25</ele><time>2026-05-03T12:55:23Z</time></trkpt><trkpt lat="43.75487726973269" lon="11.310179631489694"><ele>58.0</ele><time>2026-05-03T12:55:24Z</time></trkpt><trkpt lat="43.75487940074636" lon="11.310381692989045"><ele>57.666666666666664</ele><time>2026-05-03T12:55:25Z</time></trkpt><trkpt lat="43.754885207949826" lon="11.310589440013345"><ele>57.33333333333333</ele><time>2026-05-03T12:55:26Z</time></trkpt><trkpt lat="43.75489324308965" lon="11.310816649717118"><ele>57.0</ele><time>2026-05-03T12:55:27Z</time></trkpt><trkpt lat="43.75490404876703" lon="11.31106577242849"><ele>57.0</ele><time>2026-05-03T12:55:28Z</time></trkpt><trkpt lat="43.75493893890373" lon="11.3113308167724"><ele>57.0</ele><time>2026-05-03T12:55:29Z</time></trkpt><trkpt lat="43.754964818639415" lon="11.311625654201492"><ele>57.0</ele><time>2026-05-03T12:55:30Z</time></trkpt><trkpt lat="43.754991971319754" lon="11.311918002144326"><ele>57.66666666666667</ele><time>2026-05-03T12:55:31Z</time></trkpt><trkpt lat="43.75500282939017" lon="11.312172982066675"><ele>58.333333333333336</ele><time>2026-05-03T12:55:32Z</time></trkpt><trkpt lat="43.755048216815716" lon="11.312405360521815"><ele>59.0</ele><time>2026-05-03T12:55:33Z</time></trkpt><trkpt lat="43.755078575266246" lon="11.312620376319389"><ele>59.0</ele><time>2026-05-03T12:55:34Z</time></trkpt><trkpt lat="43.75510961995124" lon="11.312827794896755"><ele>59.0</ele><time>2026-05-03T12:55:35Z</time></trkpt><trkpt lat="43.75514317089435" lon="11.313039417386685"><ele>59.0</ele><time>2026-05-03T12:55:36Z</time></trkpt><trkpt lat="43.75517733444172" lon="11.313253543064791"><ele>59.0</ele><time>2026-05-03T12:55:37Z</time></trkpt><trkpt lat="43.755211291458494" lon="11.313465956948162"><ele>59.0</ele><time>2026-05-03T12:55:38Z</time></trkpt><trkpt lat="43.75524427089577" lon="11.313667896227615"><ele>59.0</ele><time>2026-05-03T12:55:39Z</time></trkpt><trkpt lat="43.75527665771333" lon="11.313866206829662"><ele>58.75</ele><time>2026-05-03T12:55:40Z</time></trkpt><trkpt lat="43.75529307746833" lon="11.314064919689558"><ele>58.5</ele><time>2026-05-03T12:55:41Z</time></trkpt><trkpt lat="43.755323798071856" lon="11.314256298861418"><ele>58.25</ele><time>2026-05-03T12:55:42Z</time></trkpt><trkpt lat="43.75537061713829" lon="11.314441538061432"><ele>58.0</ele><time>2026-05-03T12:55:43Z</time></trkpt><trkpt lat="43.7553992208504" lon="11.314628823373882"><ele>58.75</ele><time>2026-05-03T12:55:44Z</time></trkpt><trkpt lat="43.75542470472559" lon="11.31480186597048"><ele>59.5</ele><time>2026-05-03T12:55:45Z</time></trkpt><trkpt lat="43.75545002137944" lon="11.314977220450906"><ele>60.25</ele><time>2026-05-03T12:55:46Z</time></trkpt><trkpt lat="43.75547579644261" lon="11.315155056984608"><ele>61.0</ele><time>2026-05-03T12:55:47Z</time></trkpt><trkpt lat="43.755503841741074" lon="11.315337203827841"><ele>61.0</ele><time>2026-05-03T12:55:48Z</time></trkpt><trkpt lat="43.75553261119782" lon="11.315519305953854"><ele>61.0</ele><time>2026-05-03T12:55:49Z</time></trkpt><trkpt lat="43.755546434179664" lon="11.315704020685638"><ele>61.0</ele><time>2026-05-03T12:55:50Z</time></trkpt><trkpt lat="43.75557875613675" lon="11.315876754405956"><ele>61.0</ele><time>2026-05-03T12:55:51Z</time></trkpt><trkpt lat="43.755599762134864" lon="11.316034198914144"><ele>61.0</ele><time>2026-05-03T12:55:52Z</time></trkpt><trkpt lat="43.75562334564057" lon="11.316176373274923"><ele>60.99999999999999</ele><time>2026-05-03T12:55:53Z</time></trkpt><trkpt lat="43.75564614564057" lon="11.316312701584096"><ele>60.99999999999999</ele><time>2026-05-03T12:55:54Z</time></trkpt><trkpt lat="43.755664755729185" lon="11.31644457906834"><ele>61.0</ele><time>2026-05-03T12:55:55Z</time></trkpt><trkpt lat="43.75567459939365" lon="11.316581935407727"><ele>61.0</ele><time>2026-05-03T12:55:56Z</time></trkpt><trkpt lat="43.7556844776347" lon="11.316721520939051"><ele>60.99999999999999</ele><time>2026-05-03T12:55:57Z</time></trkpt><trkpt lat="43.75569282489799" lon="11.316849620087313"><ele>61.0</ele><time>2026-05-03T12:55:58Z</time></trkpt><trkpt lat="43.75569878880019" lon="11.316967256266027"><ele>61.0</ele><time>2026-05-03T12:55:59Z</time></trkpt><trkpt lat="43.75570350315838" lon="11.317069857558995"><ele>61.0</ele><time>2026-05-03T12:56:00Z</time></trkpt><trkpt lat="43.75569582291375" lon="11.317163717787423"><ele>60.99999999999999</ele><time>2026-05-03T12:56:01Z</time></trkpt><trkpt lat="43.75569927083449" lon="11.317338434689757"><ele>61.0</ele><time>2026-05-03T12:56:03Z</time></trkpt><trkpt lat="43.75570464293874" lon="11.317429367041187"><ele>60.99999999999999</ele><time>2026-05-03T12:56:04Z</time></trkpt><trkpt lat="43.755709799495435" lon="11.31752143169686"><ele>61.0</ele><time>2026-05-03T12:56:05Z</time></trkpt><trkpt lat="43.755725046989156" lon="11.31760910025693"><ele>61.0</ele><time>2026-05-03T12:56:06Z</time></trkpt><trkpt lat="43.75576131454789" lon="11.317697243924737"><ele>61.0</ele><time>2026-05-03T12:56:07Z</time></trkpt><trkpt lat="43.755814764995606" lon="11.31777272745259"><ele>60.99999999999999</ele><time>2026-05-03T12:56:08Z</time></trkpt><trkpt lat="43.755876279034645" lon="11.317850127820986"><ele>61.0</ele><time>2026-05-03T12:56:09Z</time></trkpt><trkpt lat="43.75593744303085" lon="11.317946662903427"><ele>61.25</ele><time>2026-05-03T12:56:10Z</time></trkpt><trkpt lat="43.755996271749645" lon="11.318082614203343"><ele>61.5</ele><time>2026-05-03T12:56:11Z</time></trkpt><trkpt lat="43.756038980418246" lon="11.318275344573221"><ele>61.75</ele><time>2026-05-03T12:56:12Z</time></trkpt><trkpt lat="43.75607275810131" lon="11.31852585080798"><ele>62.0</ele><time>2026-05-03T12:56:13Z</time></trkpt><trkpt lat="43.75611556350271" lon="11.318832750398625"><ele>62.0</ele><time>2026-05-03T12:56:14Z</time></trkpt><trkpt lat="43.756170249727894" lon="11.319175752938625"><ele>62.0</ele><time>2026-05-03T12:56:15Z</time></trkpt><trkpt lat="43.756225352167675" lon="11.319542538457783"><ele>62.0</ele><time>2026-05-03T12:56:16Z</time></trkpt><trkpt lat="43.756285879482995" lon="11.319933199647144"><ele>62.0</ele><time>2026-05-03T12:56:17Z</time></trkpt><trkpt lat="43.75634956224238" lon="11.320346058199432"><ele>63.5</ele><time>2026-05-03T12:56:18Z</time></trkpt><trkpt lat="43.756413227369215" lon="11.32078060303422"><ele>65.0</ele><time>2026-05-03T12:56:19Z</time></trkpt><trkpt lat="43.75646797832056" lon="11.32122556112301"><ele>64.0</ele><time>2026-05-03T12:56:20Z</time></trkpt><trkpt lat="43.756497017878274" lon="11.321647993122864"><ele>63.0</ele><time>2026-05-03T12:56:21Z</time></trkpt><trkpt lat="43.75650171282209" lon="11.32203384395031"><ele>63.5</ele><time>2026-05-03T12:56:22Z</time></trkpt><trkpt lat="43.756491311000445" lon="11.322408485665417"><ele>64.0</ele><time>2026-05-03T12:56:23Z</time></trkpt><trkpt lat="43.75646633037348" lon="11.322762971466814"><ele>65.0</ele><time>2026-05-03T12:56:24Z</time></trkpt><trkpt lat="43.75643062710361" lon="11.323096077849257"><ele>66.0</ele><time>2026-05-03T12:56:25Z</time></trkpt><trkpt lat="43.75638514317624" lon="11.323399292271503"><ele>66.0</ele><time>2026-05-03T12:56:26Z</time></trkpt><trkpt lat="43.75634022490385" lon="11.323687332921478"><ele>66.0</ele><time>2026-05-03T12:56:27Z</time></trkpt><trkpt lat="43.756297071872226" lon="11.323966565189506"><ele>66.0</ele><time>2026-05-03T12:56:28Z</time></trkpt><trkpt lat="43.75625949770852" lon="11.324223189369942"><ele>66.33333333333333</ele><time>2026-05-03T12:56:29Z</time></trkpt><trkpt lat="43.756224256294836" lon="11.32446440640235"><ele>66.66666666666666</ele><time>2026-05-03T12:56:30Z</time></trkpt><trkpt lat="43.75619202001337" lon="11.324683922618377"><ele>67.0</ele><time>2026-05-03T12:56:31Z</time></trkpt><trkpt lat="43.75615294695847" lon="11.32488766737096"><ele>67.0</ele><time>2026-05-03T12:56:32Z</time></trkpt><trkpt lat="43.756093041707935" lon="11.325098595933135"><ele>67.0</ele><time>2026-05-03T12:56:33Z</time></trkpt><trkpt lat="43.75602610879205" lon="11.325196583156453"><ele>67.0</ele><time>2026-05-03T12:56:34Z</time></trkpt><trkpt lat="43.75595826090782" lon="11.325307092086382"><ele>67.0</ele><time>2026-05-03T12:56:35Z</time></trkpt><trkpt lat="43.75593808809616" lon="11.325433886522548"><ele>67.4</ele><time>2026-05-03T12:56:36Z</time></trkpt><trkpt lat="43.75597217586202" lon="11.325549534985056"><ele>67.80000000000001</ele><time>2026-05-03T12:56:37Z</time></trkpt><trkpt lat="43.75604860525439" lon="11.325627069196656"><ele>68.2</ele><time>2026-05-03T12:56:38Z</time></trkpt><trkpt lat="43.756149073529805" lon="11.325649423436927"><ele>68.60000000000001</ele><time>2026-05-03T12:56:39Z</time></trkpt><trkpt lat="43.75626581894419" lon="11.325635833968775"><ele>69.0</ele><time>2026-05-03T12:56:40Z</time></trkpt><trkpt lat="43.75635678162588" lon="11.325569720213382"><ele>69.0</ele><time>2026-05-03T12:56:41Z</time></trkpt><trkpt lat="43.75645784996933" lon="11.325681774826599"><ele>69.0</ele><time>2026-05-03T12:56:42Z</time></trkpt><trkpt lat="43.75652697115992" lon="11.325841145390966"><ele>69.0</ele><time>2026-05-03T12:56:43Z</time></trkpt><trkpt lat="43.75656394475118" lon="11.32609008466132"><ele>69.0</ele><time>2026-05-03T12:56:44Z</time></trkpt><trkpt lat="43.7565941735268" lon="11.326328849380639"><ele>70.0</ele><time>2026-05-03T12:56:45Z</time></trkpt><trkpt lat="43.75662326173121" lon="11.326575463974834"><ele>71.0</ele><time>2026-05-03T12:56:46Z</time></trkpt><trkpt lat="43.75667326696097" lon="11.326791715106475"><ele>72.0</ele><time>2026-05-03T12:56:47Z</time></trkpt><trkpt lat="43.75674942886585" lon="11.32698000650246"><ele>72.0</ele><time>2026-05-03T12:56:48Z</time></trkpt><trkpt lat="43.75685814929348" lon="11.327129595639057"><ele>72.0</ele><time>2026-05-03T12:56:49Z</time></trkpt><trkpt lat="43.75699201828728" lon="11.327235250608574"><ele>72.0</ele><time>2026-05-03T12:56:50Z</time></trkpt><trkpt lat="43.75713447351191" lon="11.327305931472536"><ele>72.5</ele><time>2026-05-03T12:56:51Z</time></trkpt><trkpt lat="43.75727480794546" lon="11.32736418488326"><ele>73.0</ele><time>2026-05-03T12:56:52Z</time></trkpt><trkpt lat="43.75741773864777" lon="11.327426815345353"><ele>73.5</ele><time>2026-05-03T12:56:53Z</time></trkpt><trkpt lat="43.75755722947595" lon="11.327495035641398"><ele>74.0</ele><time>2026-05-03T12:56:54Z</time></trkpt><trkpt lat="43.75769049992438" lon="11.327562663848981"><ele>73.75</ele><time>2026-05-03T12:56:55Z</time></trkpt><trkpt lat="43.75781153972932" lon="11.327623954644924"><ele>73.5</ele><time>2026-05-03T12:56:56Z</time></trkpt><trkpt lat="43.75792425768631" lon="11.32767843258042"><ele>73.25</ele><time>2026-05-03T12:56:57Z</time></trkpt><trkpt lat="43.7580290376383" lon="11.327741909710149"><ele>73.0</ele><time>2026-05-03T12:56:58Z</time></trkpt><trkpt lat="43.75813665547659" lon="11.327793900255664"><ele>73.0</ele><time>2026-05-03T12:56:59Z</time></trkpt><trkpt lat="43.758242772843566" lon="11.32784451746275"><ele>73.0</ele><time>2026-05-03T12:57:00Z</time></trkpt><trkpt lat="43.75834995775338" lon="11.327899395892716"><ele>73.0</ele><time>2026-05-03T12:57:01Z</time></trkpt><trkpt lat="43.758456515538036" lon="11.327957364442838"><ele>73.0</ele><time>2026-05-03T12:57:02Z</time></trkpt><trkpt lat="43.75856246760466" lon="11.32801367156992"><ele>72.0</ele><time>2026-05-03T12:57:03Z</time></trkpt><trkpt lat="43.75867275639151" lon="11.328070539867973"><ele>71.0</ele><time>2026-05-03T12:57:04Z</time></trkpt><trkpt lat="43.75878442184849" lon="11.328127570709945"><ele>70.0</ele><time>2026-05-03T12:57:05Z</time></trkpt><trkpt lat="43.75890020187459" lon="11.328183699584216"><ele>69.0</ele><time>2026-05-03T12:57:06Z</time></trkpt><trkpt lat="43.75902609717953" lon="11.328239341873706"><ele>69.0</ele><time>2026-05-03T12:57:07Z</time></trkpt><trkpt lat="43.7591532969582" lon="11.328293457868456"><ele>69.0</ele><time>2026-05-03T12:57:08Z</time></trkpt><trkpt lat="43.75928940148049" lon="11.32837523029192"><ele>69.0</ele><time>2026-05-03T12:57:09Z</time></trkpt><trkpt lat="43.7594245913692" lon="11.328469575569725"><ele>69.0</ele><time>2026-05-03T12:57:10Z</time></trkpt><trkpt lat="43.759561343476605" lon="11.328580908955393"><ele>69.33333333333333</ele><time>2026-05-03T12:57:11Z</time></trkpt><trkpt lat="43.759689113477066" lon="11.328712557541456"><ele>69.66666666666666</ele><time>2026-05-03T12:57:12Z</time></trkpt><trkpt lat="43.75981959655661" lon="11.328848577923646"><ele>70.0</ele><time>2026-05-03T12:57:13Z</time></trkpt><trkpt lat="43.759949192877194" lon="11.328995041446861"><ele>70.0</ele><time>2026-05-03T12:57:14Z</time></trkpt><trkpt lat="43.76007688112106" lon="11.329156028607178"><ele>70.0</ele><time>2026-05-03T12:57:15Z</time></trkpt><trkpt lat="43.76019389006717" lon="11.329321885699107"><ele>70.0</ele><time>2026-05-03T12:57:16Z</time></trkpt><trkpt lat="43.760302258675324" lon="11.32950533897581"><ele>70.0</ele><time>2026-05-03T12:57:17Z</time></trkpt><trkpt lat="43.76040435023717" lon="11.32969368156285"><ele>70.0</ele><time>2026-05-03T12:57:18Z</time></trkpt><trkpt lat="43.760498586578116" lon="11.329899442824477"><ele>70.0</ele><time>2026-05-03T12:57:19Z</time></trkpt><trkpt lat="43.76058764139107" lon="11.330115243976929"><ele>70.0</ele><time>2026-05-03T12:57:20Z</time></trkpt><trkpt lat="43.76066268392768" lon="11.330350397266864"><ele>70.0</ele><time>2026-05-03T12:57:21Z</time></trkpt><trkpt lat="43.760725641919464" lon="11.330582952544763"><ele>70.0</ele><time>2026-05-03T12:57:22Z</time></trkpt><trkpt lat="43.760787534850266" lon="11.330803616350702"><ele>70.33333333333333</ele><time>2026-05-03T12:57:23Z</time></trkpt><trkpt lat="43.760847976084946" lon="11.331013973961142"><ele>70.66666666666667</ele><time>2026-05-03T12:57:24Z</time></trkpt><trkpt lat="43.76090328092611" lon="11.331204860157888"><ele>71.0</ele><time>2026-05-03T12:57:25Z</time></trkpt><trkpt lat="43.76095545316653" lon="11.331383594063487"><ele>71.25</ele><time>2026-05-03T12:57:26Z</time></trkpt><trkpt lat="43.76100550916132" lon="11.331556333692888"><ele>71.5</ele><time>2026-05-03T12:57:27Z</time></trkpt><trkpt lat="43.76105291198108" lon="11.331722331211816"><ele>71.75</ele><time>2026-05-03T12:57:28Z</time></trkpt><trkpt lat="43.76109984508578" lon="11.331892969600746"><ele>72.0</ele><time>2026-05-03T12:57:29Z</time></trkpt><trkpt lat="43.761150226820355" lon="11.332066411281254"><ele>71.5</ele><time>2026-05-03T12:57:30Z</time></trkpt><trkpt lat="43.76119904792746" lon="11.332243596270889"><ele>71.0</ele><time>2026-05-03T12:57:31Z</time></trkpt><trkpt lat="43.76124763269977" lon="11.33242021428066"><ele>70.5</ele><time>2026-05-03T12:57:32Z</time></trkpt><trkpt lat="43.761301354692115" lon="11.332593181375918"><ele>70.0</ele><time>2026-05-03T12:57:33Z</time></trkpt><trkpt lat="43.761352880000146" lon="11.332769399461146"><ele>70.0</ele><time>2026-05-03T12:57:34Z</time></trkpt><trkpt lat="43.7614030663851" lon="11.332946945663956"><ele>70.0</ele><time>2026-05-03T12:57:35Z</time></trkpt><trkpt lat="43.76145300399712" lon="11.33311184490328"><ele>70.0</ele><time>2026-05-03T12:57:36Z</time></trkpt><trkpt lat="43.76150343408162" lon="11.333263673575063"><ele>70.0</ele><time>2026-05-03T12:57:37Z</time></trkpt><trkpt lat="43.761558106277825" lon="11.333408246363438"><ele>70.2</ele><time>2026-05-03T12:57:38Z</time></trkpt><trkpt lat="43.76161222677691" lon="11.333531576969765"><ele>70.4</ele><time>2026-05-03T12:57:39Z</time></trkpt><trkpt lat="43.76166757047985" lon="11.333655035727485"><ele>70.6</ele><time>2026-05-03T12:57:40Z</time></trkpt><trkpt lat="43.76173084715631" lon="11.333772614098065"><ele>70.8</ele><time>2026-05-03T12:57:41Z</time></trkpt><trkpt lat="43.761796770217906" lon="11.333885706276943"><ele>71.0</ele><time>2026-05-03T12:57:42Z</time></trkpt><trkpt lat="43.761859987595464" lon="11.333996601217866"><ele>71.0</ele><time>2026-05-03T12:57:43Z</time></trkpt><trkpt lat="43.761923248713614" lon="11.334103145410877"><ele>71.0</ele><time>2026-05-03T12:57:44Z</time></trkpt><trkpt lat="43.76198744655179" lon="11.334204234641634"><ele>71.0</ele><time>2026-05-03T12:57:45Z</time></trkpt><trkpt lat="43.762042476292876" lon="11.334294028082553"><ele>71.0</ele><time>2026-05-03T12:57:46Z</time></trkpt><trkpt lat="43.76209468260077" lon="11.334372769939694"><ele>71.0</ele><time>2026-05-03T12:57:47Z</time></trkpt><trkpt lat="43.76213846816143" lon="11.334441876353152"><ele>71.0</ele><time>2026-05-03T12:57:48Z</time></trkpt><trkpt lat="43.76221513656656" lon="11.334561326800262"><ele>71.0</ele><time>2026-05-03T12:57:50Z</time></trkpt><trkpt lat="43.76228015507496" lon="11.3346489672381"><ele>71.0</ele><time>2026-05-03T12:57:52Z</time></trkpt><trkpt lat="43.76232879308864" lon="11.334734681139254"><ele>71.0</ele><time>2026-05-03T12:57:54Z</time></trkpt><trkpt lat="43.76236158680433" lon="11.334837613188087"><ele>71.0</ele><time>2026-05-03T12:57:57Z</time></trkpt><trkpt lat="43.76241305473053" lon="11.334930946216089"><ele>71.0</ele><time>2026-05-03T12:58:01Z</time></trkpt><trkpt lat="43.762473590997146" lon="11.334996666125578"><ele>71.0</ele><time>2026-05-03T12:58:02Z</time></trkpt><trkpt lat="43.76253412917529" lon="11.335085956732726"><ele>71.0</ele><time>2026-05-03T12:58:03Z</time></trkpt><trkpt lat="43.76259506787299" lon="11.335190102403628"><ele>71.0</ele><time>2026-05-03T12:58:04Z</time></trkpt><trkpt lat="43.762664350216596" lon="11.335306974904409"><ele>71.0</ele><time>2026-05-03T12:58:05Z</time></trkpt><trkpt lat="43.76275176525074" lon="11.33543647318361"><ele>71.0</ele><time>2026-05-03T12:58:06Z</time></trkpt><trkpt lat="43.76283753002458" lon="11.335572559269428"><ele>71.66666666666667</ele><time>2026-05-03T12:58:07Z</time></trkpt><trkpt lat="43.76293937037704" lon="11.335726770680509"><ele>72.33333333333333</ele><time>2026-05-03T12:58:08Z</time></trkpt><trkpt lat="43.76304277200528" lon="11.335895066290979"><ele>73.0</ele><time>2026-05-03T12:58:09Z</time></trkpt><trkpt lat="43.76314648380546" lon="11.336073375182103"><ele>73.0</ele><time>2026-05-03T12:58:10Z</time></trkpt><trkpt lat="43.76324382531573" lon="11.336266195843697"><ele>73.0</ele><time>2026-05-03T12:58:11Z</time></trkpt><trkpt lat="43.76334038075454" lon="11.336474693322602"><ele>73.0</ele><time>2026-05-03T12:58:12Z</time></trkpt><trkpt lat="43.76343073960479" lon="11.336691211118957"><ele>73.33333333333333</ele><time>2026-05-03T12:58:13Z</time></trkpt><trkpt lat="43.76351651840399" lon="11.33691525341297"><ele>73.66666666666667</ele><time>2026-05-03T12:58:14Z</time></trkpt><trkpt lat="43.76359598193962" lon="11.337153182862673"><ele>74.0</ele><time>2026-05-03T12:58:15Z</time></trkpt><trkpt lat="43.7636694393753" lon="11.33739398079906"><ele>72.0</ele><time>2026-05-03T12:58:16Z</time></trkpt><trkpt lat="43.76374345517281" lon="11.337640266657191"><ele>70.0</ele><time>2026-05-03T12:58:17Z</time></trkpt><trkpt lat="43.76382245890701" lon="11.337877534896457"><ele>68.0</ele><time>2026-05-03T12:58:18Z</time></trkpt><trkpt lat="43.76390812232932" lon="11.338121753549231"><ele>68.0</ele><time>2026-05-03T12:58:19Z</time></trkpt><trkpt lat="43.76399200406966" lon="11.338361691320543"><ele>68.0</ele><time>2026-05-03T12:58:20Z</time></trkpt><trkpt lat="43.764073403971146" lon="11.33860463536227"><ele>68.0</ele><time>2026-05-03T12:58:21Z</time></trkpt><trkpt lat="43.76415753385886" lon="11.338845575917631"><ele>69.66666666666667</ele><time>2026-05-03T12:58:22Z</time></trkpt><trkpt lat="43.76423571139273" lon="11.339086499099263"><ele>71.33333333333333</ele><time>2026-05-03T12:58:23Z</time></trkpt><trkpt lat="43.76431133045006" lon="11.339325850678657"><ele>73.0</ele><time>2026-05-03T12:58:24Z</time></trkpt><trkpt lat="43.764387976141755" lon="11.339564527042535"><ele>69.66666666666666</ele><time>2026-05-03T12:58:25Z</time></trkpt><trkpt lat="43.76446575360399" lon="11.339800962620396"><ele>66.33333333333333</ele><time>2026-05-03T12:58:26Z</time></trkpt><trkpt lat="43.764555618499244" lon="11.340037273756769"><ele>63.0</ele><time>2026-05-03T12:58:27Z</time></trkpt><trkpt lat="43.764650112157604" lon="11.340262799599445"><ele>63.0</ele><time>2026-05-03T12:58:28Z</time></trkpt><trkpt lat="43.76475505184028" lon="11.340491505730178"><ele>63.0</ele><time>2026-05-03T12:58:29Z</time></trkpt><trkpt lat="43.76486748448056" lon="11.340709396084407"><ele>63.0</ele><time>2026-05-03T12:58:30Z</time></trkpt><trkpt lat="43.76498986162243" lon="11.340927409789632"><ele>63.33333333333333</ele><time>2026-05-03T12:58:31Z</time></trkpt><trkpt lat="43.76511493770391" lon="11.341145419245356"><ele>63.666666666666664</ele><time>2026-05-03T12:58:32Z</time></trkpt><trkpt lat="43.76522556021337" lon="11.34136440479891"><ele>64.0</ele><time>2026-05-03T12:58:33Z</time></trkpt><trkpt lat="43.76533269560459" lon="11.341589528763572"><ele>65.0</ele><time>2026-05-03T12:58:34Z</time></trkpt><trkpt lat="43.76543158960252" lon="11.3418229365036"><ele>66.0</ele><time>2026-05-03T12:58:35Z</time></trkpt><trkpt lat="43.76552914471351" lon="11.342064859834716"><ele>67.0</ele><time>2026-05-03T12:58:36Z</time></trkpt><trkpt lat="43.765632929437515" lon="11.34229913975438"><ele>68.0</ele><time>2026-05-03T12:58:37Z</time></trkpt><trkpt lat="43.765750661604514" lon="11.342505697497723"><ele>69.0</ele><time>2026-05-03T12:58:38Z</time></trkpt><trkpt lat="43.765886074906305" lon="11.34269387175762"><ele>70.0</ele><time>2026-05-03T12:58:39Z</time></trkpt><trkpt lat="43.76602965801444" lon="11.342879554476685"><ele>68.66666666666666</ele><time>2026-05-03T12:58:40Z</time></trkpt><trkpt lat="43.766175319865454" lon="11.343071377167918"><ele>67.33333333333333</ele><time>2026-05-03T12:58:41Z</time></trkpt><trkpt lat="43.76631817083421" lon="11.343263822712517"><ele>66.0</ele><time>2026-05-03T12:58:42Z</time></trkpt><trkpt lat="43.76646284208141" lon="11.343462197867355"><ele>66.0</ele><time>2026-05-03T12:58:43Z</time></trkpt><trkpt lat="43.76660929695093" lon="11.343660806481612"><ele>66.0</ele><time>2026-05-03T12:58:44Z</time></trkpt><trkpt lat="43.766749397611314" lon="11.343861683728894"><ele>66.0</ele><time>2026-05-03T12:58:45Z</time></trkpt><trkpt lat="43.7668938146048" lon="11.344063134810831"><ele>65.0</ele><time>2026-05-03T12:58:46Z</time></trkpt><trkpt lat="43.767038455134326" lon="11.344262109234572"><ele>64.0</ele><time>2026-05-03T12:58:47Z</time></trkpt><trkpt lat="43.767188636003496" lon="11.344464755082928"><ele>63.0</ele><time>2026-05-03T12:58:48Z</time></trkpt><trkpt lat="43.76733842011344" lon="11.344664499741521"><ele>62.66666666666667</ele><time>2026-05-03T12:58:49Z</time></trkpt><trkpt lat="43.76748930876792" lon="11.34487015401456"><ele>62.333333333333336</ele><time>2026-05-03T12:58:50Z</time></trkpt><trkpt lat="43.767637104543724" lon="11.345069213491744"><ele>62.0</ele><time>2026-05-03T12:58:51Z</time></trkpt><trkpt lat="43.767780922548376" lon="11.345262628949047"><ele>62.0</ele><time>2026-05-03T12:58:52Z</time></trkpt><trkpt lat="43.76791009684019" lon="11.345461865173137"><ele>62.0</ele><time>2026-05-03T12:58:53Z</time></trkpt><trkpt lat="43.76802902736052" lon="11.345684311068442"><ele>62.0</ele><time>2026-05-03T12:58:54Z</time></trkpt><trkpt lat="43.76813716617423" lon="11.345929105836646"><ele>63.333333333333336</ele><time>2026-05-03T12:58:55Z</time></trkpt><trkpt lat="43.76823957880154" lon="11.346185648478102"><ele>64.66666666666667</ele><time>2026-05-03T12:58:56Z</time></trkpt><trkpt lat="43.76834069970955" lon="11.346449005492188"><ele>66.0</ele><time>2026-05-03T12:58:57Z</time></trkpt><trkpt lat="43.768444972760896" lon="11.346717386723864"><ele>65.5</ele><time>2026-05-03T12:58:58Z</time></trkpt><trkpt lat="43.768556053768734" lon="11.34699049218404"><ele>65.0</ele><time>2026-05-03T12:58:59Z</time></trkpt><trkpt lat="43.76867208420465" lon="11.347262187025883"><ele>65.0</ele><time>2026-05-03T12:59:00Z</time></trkpt><trkpt lat="43.76878821418129" lon="11.347534096833735"><ele>65.0</ele><time>2026-05-03T12:59:01Z</time></trkpt><trkpt lat="43.76890148910972" lon="11.347807625964228"><ele>66.0</ele><time>2026-05-03T12:59:02Z</time></trkpt><trkpt lat="43.76901349588611" lon="11.348081252849658"><ele>67.0</ele><time>2026-05-03T12:59:03Z</time></trkpt><trkpt lat="43.76912386408731" lon="11.348345363168775"><ele>68.0</ele><time>2026-05-03T12:59:04Z</time></trkpt><trkpt lat="43.76923771412818" lon="11.34862024416038"><ele>69.33333333333334</ele><time>2026-05-03T12:59:05Z</time></trkpt><trkpt lat="43.76934718480933" lon="11.348889754193507"><ele>70.66666666666667</ele><time>2026-05-03T12:59:06Z</time></trkpt><trkpt lat="43.76945457938835" lon="11.349157084614324"><ele>72.0</ele><time>2026-05-03T12:59:07Z</time></trkpt><trkpt lat="43.76956299470205" lon="11.34942495283006"><ele>69.66666666666667</ele><time>2026-05-03T12:59:08Z</time></trkpt><trkpt lat="43.7696734085397" lon="11.349686284051785"><ele>67.33333333333334</ele><time>2026-05-03T12:59:09Z</time></trkpt><trkpt lat="43.769781880655074" lon="11.3499506093101"><ele>65.0</ele><time>2026-05-03T12:59:10Z</time></trkpt><trkpt lat="43.769888012691844" lon="11.350213429577062"><ele>65.0</ele><time>2026-05-03T12:59:11Z</time></trkpt><trkpt lat="43.76999463208785" lon="11.35047775107395"><ele>65.0</ele><time>2026-05-03T12:59:12Z</time></trkpt><trkpt lat="43.77009809040669" lon="11.350734010892351"><ele>65.0</ele><time>2026-05-03T12:59:13Z</time></trkpt><trkpt lat="43.77019866144784" lon="11.350980597843032"><ele>65.0</ele><time>2026-05-03T12:59:14Z</time></trkpt><trkpt lat="43.77030314964769" lon="11.351217925691289"><ele>65.0</ele><time>2026-05-03T12:59:15Z</time></trkpt><trkpt lat="43.770403055528085" lon="11.351472610614309"><ele>65.0</ele><time>2026-05-03T12:59:16Z</time></trkpt><trkpt lat="43.770509407909834" lon="11.351717801589697"><ele>65.0</ele><time>2026-05-03T12:59:17Z</time></trkpt><trkpt lat="43.77060539735254" lon="11.351960109080967"><ele>65.0</ele><time>2026-05-03T12:59:18Z</time></trkpt><trkpt lat="43.77069936209868" lon="11.352199555911978"><ele>65.0</ele><time>2026-05-03T12:59:19Z</time></trkpt><trkpt lat="43.77078800854804" lon="11.352427984090411"><ele>66.66666666666667</ele><time>2026-05-03T12:59:20Z</time></trkpt><trkpt lat="43.77086809952182" lon="11.35267137718863"><ele>68.33333333333333</ele><time>2026-05-03T12:59:21Z</time></trkpt><trkpt lat="43.77094215682285" lon="11.35291138341091"><ele>70.0</ele><time>2026-05-03T12:59:22Z</time></trkpt><trkpt lat="43.77101161881692" lon="11.353149573809722"><ele>68.0</ele><time>2026-05-03T12:59:23Z</time></trkpt><trkpt lat="43.771082995692105" lon="11.353389290205511"><ele>66.0</ele><time>2026-05-03T12:59:24Z</time></trkpt><trkpt lat="43.77115480128278" lon="11.3536191180692"><ele>64.0</ele><time>2026-05-03T12:59:25Z</time></trkpt><trkpt lat="43.77122455803856" lon="11.35384725920272"><ele>63.666666666666664</ele><time>2026-05-03T12:59:26Z</time></trkpt><trkpt lat="43.77128777105819" lon="11.354073812568739"><ele>63.33333333333333</ele><time>2026-05-03T12:59:27Z</time></trkpt><trkpt lat="43.771345164809304" lon="11.354300919156309"><ele>63.0</ele><time>2026-05-03T12:59:28Z</time></trkpt><trkpt lat="43.771394452437384" lon="11.354530095181117"><ele>64.0</ele><time>2026-05-03T12:59:29Z</time></trkpt><trkpt lat="43.77143423815693" lon="11.354758676307446"><ele>65.0</ele><time>2026-05-03T12:59:30Z</time></trkpt><trkpt lat="43.77147268582461" lon="11.354980884855685"><ele>66.0</ele><time>2026-05-03T12:59:31Z</time></trkpt><trkpt lat="43.771507599507395" lon="11.355202771638899"><ele>66.0</ele><time>2026-05-03T12:59:32Z</time></trkpt><trkpt lat="43.7715370099968" lon="11.355427124673056"><ele>66.0</ele><time>2026-05-03T12:59:33Z</time></trkpt><trkpt lat="43.77156168803319" lon="11.35564840677099"><ele>66.0</ele><time>2026-05-03T12:59:34Z</time></trkpt><trkpt lat="43.771582750704916" lon="11.355867570411991"><ele>66.0</ele><time>2026-05-03T12:59:35Z</time></trkpt><trkpt lat="43.77159774550493" lon="11.356073942796424"><ele>66.0</ele><time>2026-05-03T12:59:36Z</time></trkpt><trkpt lat="43.77160329279476" lon="11.356268576218627"><ele>66.0</ele><time>2026-05-03T12:59:37Z</time></trkpt><trkpt lat="43.77160417611165" lon="11.356453473439757"><ele>66.0</ele><time>2026-05-03T12:59:38Z</time></trkpt><trkpt lat="43.77159605866356" lon="11.356631102537863"><ele>66.25</ele><time>2026-05-03T12:59:39Z</time></trkpt><trkpt lat="43.77158125141478" lon="11.356811074114141"><ele>66.5</ele><time>2026-05-03T12:59:40Z</time></trkpt><trkpt lat="43.77156008334743" lon="11.356996908501296"><ele>66.75</ele><time>2026-05-03T12:59:41Z</time></trkpt><trkpt lat="43.77153803625037" lon="11.357186369432203"><ele>67.0</ele><time>2026-05-03T12:59:42Z</time></trkpt><trkpt lat="43.77151459732359" lon="11.35737896432986"><ele>67.25</ele><time>2026-05-03T12:59:43Z</time></trkpt><trkpt lat="43.77150102594993" lon="11.357581499554264"><ele>67.5</ele><time>2026-05-03T12:59:44Z</time></trkpt><trkpt lat="43.77150034672614" lon="11.357785891145015"><ele>67.75</ele><time>2026-05-03T12:59:45Z</time></trkpt><trkpt lat="43.77152415861443" lon="11.357992106869666"><ele>68.0</ele><time>2026-05-03T12:59:46Z</time></trkpt><trkpt lat="43.77156036309483" lon="11.358188116385877"><ele>68.0</ele><time>2026-05-03T12:59:47Z</time></trkpt><trkpt lat="43.77159160788644" lon="11.358373198072616"><ele>68.0</ele><time>2026-05-03T12:59:48Z</time></trkpt><trkpt lat="43.77161746698784" lon="11.358556749424768"><ele>68.0</ele><time>2026-05-03T12:59:49Z</time></trkpt><trkpt lat="43.771635471910216" lon="11.358746893654514"><ele>68.0</ele><time>2026-05-03T12:59:50Z</time></trkpt><trkpt lat="43.771654852724595" lon="11.35894209626429"><ele>68.25</ele><time>2026-05-03T12:59:51Z</time></trkpt><trkpt lat="43.77167544507023" lon="11.359136380975766"><ele>68.5</ele><time>2026-05-03T12:59:52Z</time></trkpt><trkpt lat="43.77169604373274" lon="11.359335351655035"><ele>68.75</ele><time>2026-05-03T12:59:53Z</time></trkpt><trkpt lat="43.77171155772042" lon="11.359535426560388"><ele>69.0</ele><time>2026-05-03T12:59:54Z</time></trkpt><trkpt lat="43.7717235633764" lon="11.359737085908833"><ele>69.0</ele><time>2026-05-03T12:59:55Z</time></trkpt><trkpt lat="43.771734876166605" lon="11.359939252673948"><ele>69.0</ele><time>2026-05-03T12:59:56Z</time></trkpt><trkpt lat="43.77174822754451" lon="11.36014086792893"><ele>69.0</ele><time>2026-05-03T12:59:57Z</time></trkpt><trkpt lat="43.77176374149399" lon="11.360340750372728"><ele>69.0</ele><time>2026-05-03T12:59:58Z</time></trkpt><trkpt lat="43.771798923800304" lon="11.360530104484246"><ele>66.5</ele><time>2026-05-03T12:59:59Z</time></trkpt><trkpt lat="43.77186042117196" lon="11.360706319923082"><ele>64.0</ele><time>2026-05-03T13:00:00Z</time></trkpt><trkpt lat="43.77192619252612" lon="11.36086683941902"><ele>61.5</ele><time>2026-05-03T13:00:01Z</time></trkpt><trkpt lat="43.771982401383994" lon="11.36100385670469"><ele>59.0</ele><time>2026-05-03T13:00:02Z</time></trkpt><trkpt lat="43.77203332254075" lon="11.361145155611226"><ele>59.0</ele><time>2026-05-03T13:00:03Z</time></trkpt><trkpt lat="43.772073309351505" lon="11.36128108112587"><ele>59.00000000000001</ele><time>2026-05-03T13:00:04Z</time></trkpt><trkpt lat="43.772101976973126" lon="11.361416231719488"><ele>59.00000000000001</ele><time>2026-05-03T13:00:05Z</time></trkpt><trkpt lat="43.77212860546699" lon="11.361554856762945"><ele>59.0</ele><time>2026-05-03T13:00:06Z</time></trkpt><trkpt lat="43.772164009996494" lon="11.361694198268784"><ele>59.0</ele><time>2026-05-03T13:00:07Z</time></trkpt><trkpt lat="43.77221025785848" lon="11.361827332827037"><ele>60.800000000000004</ele><time>2026-05-03T13:00:08Z</time></trkpt><trkpt lat="43.77227842085536" lon="11.361942786075332"><ele>62.60000000000001</ele><time>2026-05-03T13:00:09Z</time></trkpt><trkpt lat="43.772366128946025" lon="11.362033735282806"><ele>64.4</ele><time>2026-05-03T13:00:10Z</time></trkpt><trkpt lat="43.772465120708695" lon="11.362105898880742"><ele>66.2</ele><time>2026-05-03T13:00:11Z</time></trkpt><trkpt lat="43.772576252179206" lon="11.362167259646057"><ele>68.0</ele><time>2026-05-03T13:00:12Z</time></trkpt><trkpt lat="43.77270067806415" lon="11.362213964865894"><ele>68.25</ele><time>2026-05-03T13:00:13Z</time></trkpt><trkpt lat="43.77283425674195" lon="11.36227471690369"><ele>68.5</ele><time>2026-05-03T13:00:14Z</time></trkpt><trkpt lat="43.77298016372528" lon="11.36231331837942"><ele>68.75</ele><time>2026-05-03T13:00:15Z</time></trkpt><trkpt lat="43.773125221187215" lon="11.362349358714905"><ele>69.0</ele><time>2026-05-03T13:00:16Z</time></trkpt><trkpt lat="43.77327070015908" lon="11.362388220777417"><ele>69.0</ele><time>2026-05-03T13:00:17Z</time></trkpt><trkpt lat="43.77342941544303" lon="11.362408067248335"><ele>69.0</ele><time>2026-05-03T13:00:18Z</time></trkpt><trkpt lat="43.77358041560796" lon="11.362455747914575"><ele>69.0</ele><time>2026-05-03T13:00:19Z</time></trkpt><trkpt lat="43.77373213642405" lon="11.362495437532399"><ele>68.25</ele><time>2026-05-03T13:00:20Z</time></trkpt><trkpt lat="43.77387652927883" lon="11.362533567940243"><ele>67.5</ele><time>2026-05-03T13:00:21Z</time></trkpt><trkpt lat="43.77401912180282" lon="11.362582935984094"><ele>66.75</ele><time>2026-05-03T13:00:22Z</time></trkpt><trkpt lat="43.77415235431302" lon="11.362621519811864"><ele>66.0</ele><time>2026-05-03T13:00:23Z</time></trkpt><trkpt lat="43.77427894565907" lon="11.362647343526216"><ele>66.0</ele><time>2026-05-03T13:00:24Z</time></trkpt><trkpt lat="43.77439914348459" lon="11.36266949606907"><ele>66.0</ele><time>2026-05-03T13:00:25Z</time></trkpt><trkpt lat="43.77451064227138" lon="11.362694901821081"><ele>66.0</ele><time>2026-05-03T13:00:26Z</time></trkpt><trkpt lat="43.774614703778575" lon="11.362718225804013"><ele>66.0</ele><time>2026-05-03T13:00:27Z</time></trkpt><trkpt lat="43.77471172464439" lon="11.36274229028765"><ele>66.0</ele><time>2026-05-03T13:00:28Z</time></trkpt><trkpt lat="43.774802042642676" lon="11.36276718943773"><ele>66.0</ele><time>2026-05-03T13:00:29Z</time></trkpt><trkpt lat="43.77488160771109" lon="11.362791925944476"><ele>66.0</ele><time>2026-05-03T13:00:30Z</time></trkpt><trkpt lat="43.774952983786825" lon="11.362816140149677"><ele>66.0</ele><time>2026-05-03T13:00:31Z</time></trkpt><trkpt lat="43.775011497105275" lon="11.362851904398946"><ele>66.0</ele><time>2026-05-03T13:00:32Z</time></trkpt><trkpt lat="43.77509863081356" lon="11.362902410006326"><ele>66.0</ele><time>2026-05-03T13:00:34Z</time></trkpt><trkpt lat="43.77516278254499" lon="11.362921054609316"><ele>66.0</ele><time>2026-05-03T13:00:37Z</time></trkpt><trkpt lat="43.77529425874694" lon="11.362944570365425"><ele>66.33333333333333</ele><time>2026-05-03T13:00:54Z</time></trkpt><trkpt lat="43.775407072064006" lon="11.362969256046505"><ele>66.66666666666666</ele><time>2026-05-03T13:00:55Z</time></trkpt><trkpt lat="43.77556745696721" lon="11.363010361136068"><ele>67.0</ele><time>2026-05-03T13:00:56Z</time></trkpt><trkpt lat="43.77574262353026" lon="11.363061469407713"><ele>68.0</ele><time>2026-05-03T13:00:57Z</time></trkpt><trkpt lat="43.77592622198861" lon="11.363142278602487"><ele>69.0</ele><time>2026-05-03T13:00:58Z</time></trkpt><trkpt lat="43.77617079141269" lon="11.363263326873678"><ele>69.0</ele><time>2026-05-03T13:00:59Z</time></trkpt><trkpt lat="43.7764311674643" lon="11.363409996663549"><ele>69.0</ele><time>2026-05-03T13:01:00Z</time></trkpt><trkpt lat="43.776655346425834" lon="11.363535340387756"><ele>69.0</ele><time>2026-05-03T13:01:01Z</time></trkpt><trkpt lat="43.776844213214595" lon="11.363635469297762"><ele>69.0</ele><time>2026-05-03T13:01:02Z</time></trkpt><trkpt lat="43.7770248741211" lon="11.363721127048196"><ele>69.0</ele><time>2026-05-03T13:01:03Z</time></trkpt><trkpt lat="43.777207024381646" lon="11.3637997917221"><ele>69.33333333333333</ele><time>2026-05-03T13:01:04Z</time></trkpt><trkpt lat="43.77738668088748" lon="11.363858571953507"><ele>69.66666666666666</ele><time>2026-05-03T13:01:05Z</time></trkpt><trkpt lat="43.77756938885145" lon="11.363884694596926"><ele>70.0</ele><time>2026-05-03T13:01:06Z</time></trkpt><trkpt lat="43.7777558571859" lon="11.363889378995076"><ele>73.0</ele><time>2026-05-03T13:01:07Z</time></trkpt><trkpt lat="43.77794036736274" lon="11.363886276809644"><ele>76.0</ele><time>2026-05-03T13:01:08Z</time></trkpt><trkpt lat="43.77812237575709" lon="11.363876320259564"><ele>79.0</ele><time>2026-05-03T13:01:09Z</time></trkpt><trkpt lat="43.778297050522376" lon="11.36386420746218"><ele>79.33333333333333</ele><time>2026-05-03T13:01:10Z</time></trkpt><trkpt lat="43.778470672238036" lon="11.363859115326445"><ele>79.66666666666667</ele><time>2026-05-03T13:01:11Z</time></trkpt><trkpt lat="43.77864452264247" lon="11.363873481752181"><ele>80.0</ele><time>2026-05-03T13:01:12Z</time></trkpt><trkpt lat="43.77882055666681" lon="11.36389857949706"><ele>80.0</ele><time>2026-05-03T13:01:13Z</time></trkpt><trkpt lat="43.77899834990435" lon="11.363932505111976"><ele>80.0</ele><time>2026-05-03T13:01:14Z</time></trkpt><trkpt lat="43.7791812860131" lon="11.363977869137717"><ele>80.0</ele><time>2026-05-03T13:01:15Z</time></trkpt><trkpt lat="43.77936915337729" lon="11.36403890027276"><ele>80.66666666666667</ele><time>2026-05-03T13:01:16Z</time></trkpt><trkpt lat="43.77956781366464" lon="11.36410993079297"><ele>81.33333333333333</ele><time>2026-05-03T13:01:17Z</time></trkpt><trkpt lat="43.77976508740117" lon="11.364185407558981"><ele>82.0</ele><time>2026-05-03T13:01:18Z</time></trkpt><trkpt lat="43.779972905584735" lon="11.364265450349981"><ele>80.5</ele><time>2026-05-03T13:01:19Z</time></trkpt><trkpt lat="43.780201238495295" lon="11.364356203700096"><ele>79.0</ele><time>2026-05-03T13:01:20Z</time></trkpt><trkpt lat="43.78043260598582" lon="11.36445108568044"><ele>79.0</ele><time>2026-05-03T13:01:21Z</time></trkpt><trkpt lat="43.78065782826426" lon="11.364551634108526"><ele>79.0</ele><time>2026-05-03T13:01:22Z</time></trkpt><trkpt lat="43.78087317870595" lon="11.364660997767963"><ele>79.0</ele><time>2026-05-03T13:01:23Z</time></trkpt><trkpt lat="43.78108414046272" lon="11.364793684720889"><ele>79.0</ele><time>2026-05-03T13:01:24Z</time></trkpt><trkpt lat="43.78128841679506" lon="11.364953445953573"><ele>79.0</ele><time>2026-05-03T13:01:25Z</time></trkpt><trkpt lat="43.78149113430524" lon="11.365124388002936"><ele>79.0</ele><time>2026-05-03T13:01:26Z</time></trkpt><trkpt lat="43.78168900716927" lon="11.365309824102265"><ele>76.5</ele><time>2026-05-03T13:01:27Z</time></trkpt><trkpt lat="43.78188263388973" lon="11.365502831620198"><ele>74.0</ele><time>2026-05-03T13:01:28Z</time></trkpt><trkpt lat="43.78206514161505" lon="11.365683328194002"><ele>74.0</ele><time>2026-05-03T13:01:29Z</time></trkpt><trkpt lat="43.78223260769163" lon="11.365872201572449"><ele>74.0</ele><time>2026-05-03T13:01:30Z</time></trkpt><trkpt lat="43.78237069293518" lon="11.366095785794307"><ele>74.0</ele><time>2026-05-03T13:01:31Z</time></trkpt><trkpt lat="43.782501141470235" lon="11.366336258881066"><ele>76.5</ele><time>2026-05-03T13:01:32Z</time></trkpt><trkpt lat="43.78262859243684" lon="11.366596203585356"><ele>79.0</ele><time>2026-05-03T13:01:33Z</time></trkpt><trkpt lat="43.78272585274709" lon="11.366884143343514"><ele>74.0</ele><time>2026-05-03T13:01:34Z</time></trkpt><trkpt lat="43.782805983538594" lon="11.367182539537936"><ele>69.0</ele><time>2026-05-03T13:01:35Z</time></trkpt><trkpt lat="43.78285815161564" lon="11.367492613570318"><ele>69.0</ele><time>2026-05-03T13:01:36Z</time></trkpt><trkpt lat="43.782868132233546" lon="11.367804594325536"><ele>69.0</ele><time>2026-05-03T13:01:37Z</time></trkpt><trkpt lat="43.782882639527365" lon="11.368112103090443"><ele>69.0</ele><time>2026-05-03T13:01:38Z</time></trkpt><trkpt lat="43.782861556633044" lon="11.368418078890802"><ele>68.5</ele><time>2026-05-03T13:01:39Z</time></trkpt><trkpt lat="43.78285501569406" lon="11.368734847010147"><ele>68.0</ele><time>2026-05-03T13:01:40Z</time></trkpt><trkpt lat="43.7827919228153" lon="11.369061544661138"><ele>68.0</ele><time>2026-05-03T13:01:41Z</time></trkpt><trkpt lat="43.782762629280946" lon="11.369392386502492"><ele>68.0</ele><time>2026-05-03T13:01:42Z</time></trkpt><trkpt lat="43.78273165819285" lon="11.369726494812818"><ele>67.0</ele><time>2026-05-03T13:01:43Z</time></trkpt><trkpt lat="43.78269908266565" lon="11.370053829936756"><ele>66.0</ele><time>2026-05-03T13:01:44Z</time></trkpt><trkpt lat="43.782669953422236" lon="11.370367923608224"><ele>70.66666666666667</ele><time>2026-05-03T13:01:45Z</time></trkpt><trkpt lat="43.782640325801715" lon="11.370666530881804"><ele>75.33333333333334</ele><time>2026-05-03T13:01:46Z</time></trkpt><trkpt lat="43.782613897140074" lon="11.370956142006214"><ele>80.0</ele><time>2026-05-03T13:01:47Z</time></trkpt><trkpt lat="43.78258682035548" lon="11.371240268426865"><ele>79.33333333333334</ele><time>2026-05-03T13:01:48Z</time></trkpt><trkpt lat="43.782560968377105" lon="11.371517995739303"><ele>78.66666666666667</ele><time>2026-05-03T13:01:49Z</time></trkpt><trkpt lat="43.78254037048504" lon="11.371793547691794"><ele>78.0</ele><time>2026-05-03T13:01:50Z</time></trkpt><trkpt lat="43.782522022381045" lon="11.372068836832197"><ele>79.0</ele><time>2026-05-03T13:01:51Z</time></trkpt><trkpt lat="43.78253650711625" lon="11.372348178507748"><ele>80.0</ele><time>2026-05-03T13:01:52Z</time></trkpt><trkpt lat="43.78253354559561" lon="11.372635918901814"><ele>81.0</ele><time>2026-05-03T13:01:53Z</time></trkpt><trkpt lat="43.78254048763899" lon="11.372929492111524"><ele>80.33333333333333</ele><time>2026-05-03T13:01:54Z</time></trkpt><trkpt lat="43.78254887659043" lon="11.373227205203008"><ele>79.66666666666666</ele><time>2026-05-03T13:01:55Z</time></trkpt><trkpt lat="43.78255670162147" lon="11.373524498767248"><ele>79.0</ele><time>2026-05-03T13:01:56Z</time></trkpt><trkpt lat="43.78256558441918" lon="11.373825356771551"><ele>79.33333333333333</ele><time>2026-05-03T13:01:57Z</time></trkpt><trkpt lat="43.782574016636254" lon="11.374132115713893"><ele>79.66666666666667</ele><time>2026-05-03T13:01:58Z</time></trkpt><trkpt lat="43.78258428323772" lon="11.374435597416651"><ele>80.0</ele><time>2026-05-03T13:01:59Z</time></trkpt><trkpt lat="43.78259844570602" lon="11.374737295454159"><ele>78.33333333333334</ele><time>2026-05-03T13:02:00Z</time></trkpt><trkpt lat="43.78262527469979" lon="11.375030559896175"><ele>76.66666666666667</ele><time>2026-05-03T13:02:01Z</time></trkpt><trkpt lat="43.78266130834167" lon="11.375315567728002"><ele>75.0</ele><time>2026-05-03T13:02:02Z</time></trkpt><trkpt lat="43.78270996723623" lon="11.375606355343363"><ele>75.0</ele><time>2026-05-03T13:02:03Z</time></trkpt><trkpt lat="43.782770948838504" lon="11.37589456276723"><ele>75.0</ele><time>2026-05-03T13:02:04Z</time></trkpt><trkpt lat="43.78285122336275" lon="11.376191928264724"><ele>75.0</ele><time>2026-05-03T13:02:05Z</time></trkpt><trkpt lat="43.7829355706108" lon="11.376504288769985"><ele>79.5</ele><time>2026-05-03T13:02:06Z</time></trkpt><trkpt lat="43.78303174850856" lon="11.376833671032456"><ele>84.0</ele><time>2026-05-03T13:02:07Z</time></trkpt><trkpt lat="43.78313698244436" lon="11.377183976005469"><ele>88.0</ele><time>2026-05-03T13:02:08Z</time></trkpt><trkpt lat="43.78324248005739" lon="11.377553604951647"><ele>92.0</ele><time>2026-05-03T13:02:09Z</time></trkpt><trkpt lat="43.783349249888225" lon="11.377945515367724"><ele>94.5</ele><time>2026-05-03T13:02:10Z</time></trkpt><trkpt lat="43.78344509539732" lon="11.378320417580527"><ele>97.0</ele><time>2026-05-03T13:02:11Z</time></trkpt><trkpt lat="43.783520787204985" lon="11.378664416079479"><ele>86.0</ele><time>2026-05-03T13:02:12Z</time></trkpt><trkpt lat="43.78358805831474" lon="11.378984882348771"><ele>75.0</ele><time>2026-05-03T13:02:13Z</time></trkpt><trkpt lat="43.78365367221067" lon="11.379288547655024"><ele>75.0</ele><time>2026-05-03T13:02:14Z</time></trkpt><trkpt lat="43.78371219396722" lon="11.379581959695098"><ele>75.0</ele><time>2026-05-03T13:02:15Z</time></trkpt><trkpt lat="43.783779826396355" lon="11.379846156521834"><ele>75.0</ele><time>2026-05-03T13:02:16Z</time></trkpt><trkpt lat="43.78386168090868" lon="11.380083066092029"><ele>76.33333333333333</ele><time>2026-05-03T13:02:17Z</time></trkpt><trkpt lat="43.783940569252394" lon="11.380299202951425"><ele>77.66666666666666</ele><time>2026-05-03T13:02:18Z</time></trkpt><trkpt lat="43.78402170201727" lon="11.38051730277366"><ele>79.0</ele><time>2026-05-03T13:02:19Z</time></trkpt><trkpt lat="43.78412304499248" lon="11.380777614714203"><ele>81.5</ele><time>2026-05-03T13:02:20Z</time></trkpt><trkpt lat="43.78424831184457" lon="11.381075610309193"><ele>84.0</ele><time>2026-05-03T13:02:21Z</time></trkpt><trkpt lat="43.78438219627693" lon="11.381374660397992"><ele>79.66666666666667</ele><time>2026-05-03T13:02:22Z</time></trkpt><trkpt lat="43.784509893471586" lon="11.381645016659553"><ele>75.33333333333334</ele><time>2026-05-03T13:02:23Z</time></trkpt><trkpt lat="43.78462883155208" lon="11.381892851152116"><ele>71.0</ele><time>2026-05-03T13:02:24Z</time></trkpt><trkpt lat="43.784755133301665" lon="11.382121366555147"><ele>71.0</ele><time>2026-05-03T13:02:25Z</time></trkpt><trkpt lat="43.78490625948107" lon="11.382318772465117"><ele>71.0</ele><time>2026-05-03T13:02:26Z</time></trkpt><trkpt lat="43.78508539094831" lon="11.382492335226704"><ele>71.0</ele><time>2026-05-03T13:02:27Z</time></trkpt><trkpt lat="43.785283922068196" lon="11.382635174057352"><ele>71.0</ele><time>2026-05-03T13:02:28Z</time></trkpt><trkpt lat="43.78546930117815" lon="11.382754745649867"><ele>71.0</ele><time>2026-05-03T13:02:29Z</time></trkpt><trkpt lat="43.785636836038414" lon="11.38288092089724"><ele>71.0</ele><time>2026-05-03T13:02:30Z</time></trkpt><trkpt lat="43.78578258540904" lon="11.383029109211453"><ele>71.0</ele><time>2026-05-03T13:02:31Z</time></trkpt><trkpt lat="43.78591646312854" lon="11.383194371643826"><ele>71.0</ele><time>2026-05-03T13:02:32Z</time></trkpt><trkpt lat="43.78603926127544" lon="11.383375275947468"><ele>71.0</ele><time>2026-05-03T13:02:33Z</time></trkpt><trkpt lat="43.78615236988757" lon="11.38356726942093"><ele>71.0</ele><time>2026-05-03T13:02:34Z</time></trkpt><trkpt lat="43.786254323595536" lon="11.383758426136392"><ele>71.0</ele><time>2026-05-03T13:02:35Z</time></trkpt><trkpt lat="43.786347389618264" lon="11.383941490608617"><ele>71.0</ele><time>2026-05-03T13:02:36Z</time></trkpt><trkpt lat="43.786430723613954" lon="11.384127258218916"><ele>72.66666666666667</ele><time>2026-05-03T13:02:37Z</time></trkpt><trkpt lat="43.78650500328711" lon="11.38431699906641"><ele>74.33333333333333</ele><time>2026-05-03T13:02:38Z</time></trkpt><trkpt lat="43.78657179397614" lon="11.384512762924349"><ele>76.0</ele><time>2026-05-03T13:02:39Z</time></trkpt><trkpt lat="43.786629318013446" lon="11.384712978388972"><ele>76.66666666666666</ele><time>2026-05-03T13:02:40Z</time></trkpt><trkpt lat="43.78667623063423" lon="11.384924090730076"><ele>77.33333333333333</ele><time>2026-05-03T13:02:41Z</time></trkpt><trkpt lat="43.78670977033647" lon="11.38514917047138"><ele>78.0</ele><time>2026-05-03T13:02:42Z</time></trkpt><trkpt lat="43.78673141612224" lon="11.38538398636239"><ele>78.33333333333333</ele><time>2026-05-03T13:02:43Z</time></trkpt><trkpt lat="43.78674943383171" lon="11.385627261800511"><ele>78.66666666666666</ele><time>2026-05-03T13:02:44Z</time></trkpt><trkpt lat="43.786765811157764" lon="11.385872630829466"><ele>79.0</ele><time>2026-05-03T13:02:45Z</time></trkpt><trkpt lat="43.78678191665763" lon="11.386112758938012"><ele>79.66666666666666</ele><time>2026-05-03T13:02:46Z</time></trkpt><trkpt lat="43.786799421121174" lon="11.38635048193839"><ele>80.33333333333333</ele><time>2026-05-03T13:02:47Z</time></trkpt><trkpt lat="43.78681523232347" lon="11.386580413624827"><ele>81.0</ele><time>2026-05-03T13:02:48Z</time></trkpt><trkpt lat="43.786827928938834" lon="11.386805410719857"><ele>81.0</ele><time>2026-05-03T13:02:49Z</time></trkpt><trkpt lat="43.786841569874014" lon="11.387026063030502"><ele>81.0</ele><time>2026-05-03T13:02:50Z</time></trkpt><trkpt lat="43.78685445487123" lon="11.3872469321488"><ele>81.0</ele><time>2026-05-03T13:02:51Z</time></trkpt><trkpt lat="43.78686730122294" lon="11.3874654479648"><ele>80.0</ele><time>2026-05-03T13:02:52Z</time></trkpt><trkpt lat="43.786879829486125" lon="11.387684775890774"><ele>79.0</ele><time>2026-05-03T13:02:53Z</time></trkpt><trkpt lat="43.78688698517502" lon="11.387904896651213"><ele>78.0</ele><time>2026-05-03T13:02:54Z</time></trkpt><trkpt lat="43.78688498937203" lon="11.38812532919828"><ele>77.66666666666667</ele><time>2026-05-03T13:02:55Z</time></trkpt><trkpt lat="43.786872138438774" lon="11.388347552585083"><ele>77.33333333333334</ele><time>2026-05-03T13:02:56Z</time></trkpt><trkpt lat="43.78683793353961" lon="11.388571275952735"><ele>77.0</ele><time>2026-05-03T13:02:57Z</time></trkpt><trkpt lat="43.78678590286593" lon="11.388794774650604"><ele>80.33333333333334</ele><time>2026-05-03T13:02:58Z</time></trkpt><trkpt lat="43.78672092425503" lon="11.389025269494812"><ele>83.66666666666667</ele><time>2026-05-03T13:02:59Z</time></trkpt><trkpt lat="43.786646498782794" lon="11.389264094981275"><ele>87.0</ele><time>2026-05-03T13:03:00Z</time></trkpt><trkpt lat="43.78657206908078" lon="11.389501075557074"><ele>85.33333333333333</ele><time>2026-05-03T13:03:01Z</time></trkpt><trkpt lat="43.786499579582234" lon="11.389739340539062"><ele>83.66666666666666</ele><time>2026-05-03T13:03:02Z</time></trkpt><trkpt lat="43.78642673078573" lon="11.389984289129327"><ele>82.0</ele><time>2026-05-03T13:03:03Z</time></trkpt><trkpt lat="43.78633591445775" lon="11.390227801872129"><ele>82.0</ele><time>2026-05-03T13:03:04Z</time></trkpt><trkpt lat="43.786249601821126" lon="11.390504503621383"><ele>82.0</ele><time>2026-05-03T13:03:05Z</time></trkpt><trkpt lat="43.78615655582627" lon="11.390802791168731"><ele>81.5</ele><time>2026-05-03T13:03:06Z</time></trkpt><trkpt lat="43.78605796840625" lon="11.391118846971068"><ele>81.0</ele><time>2026-05-03T13:03:07Z</time></trkpt><trkpt lat="43.78596962339982" lon="11.39140212619377"><ele>84.66666666666667</ele><time>2026-05-03T13:03:08Z</time></trkpt><trkpt lat="43.78590063262249" lon="11.391659345603372"><ele>88.33333333333334</ele><time>2026-05-03T13:03:09Z</time></trkpt><trkpt lat="43.78582471879705" lon="11.391887576181324"><ele>92.0</ele><time>2026-05-03T13:03:10Z</time></trkpt><trkpt lat="43.78574676370523" lon="11.392113077008197"><ele>90.66666666666667</ele><time>2026-05-03T13:03:11Z</time></trkpt><trkpt lat="43.78565831967116" lon="11.392332100314453"><ele>89.33333333333333</ele><time>2026-05-03T13:03:12Z</time></trkpt><trkpt lat="43.78556297363654" lon="11.392534323173892"><ele>88.0</ele><time>2026-05-03T13:03:13Z</time></trkpt><trkpt lat="43.78546532246128" lon="11.392716288102354"><ele>88.0</ele><time>2026-05-03T13:03:14Z</time></trkpt><trkpt lat="43.785363579184306" lon="11.39289259199618"><ele>88.0</ele><time>2026-05-03T13:03:15Z</time></trkpt><trkpt lat="43.78525812050039" lon="11.393059350276433"><ele>88.0</ele><time>2026-05-03T13:03:16Z</time></trkpt><trkpt lat="43.78514930650628" lon="11.393223775909311"><ele>89.33333333333333</ele><time>2026-05-03T13:03:17Z</time></trkpt><trkpt lat="43.78503796319068" lon="11.393373123607185"><ele>90.66666666666667</ele><time>2026-05-03T13:03:18Z</time></trkpt><trkpt lat="43.78492482420142" lon="11.393521685642698"><ele>92.0</ele><time>2026-05-03T13:03:19Z</time></trkpt><trkpt lat="43.784803461615525" lon="11.3936728622675"><ele>92.0</ele><time>2026-05-03T13:03:20Z</time></trkpt><trkpt lat="43.78467036308793" lon="11.393820637505005"><ele>92.0</ele><time>2026-05-03T13:03:21Z</time></trkpt><trkpt lat="43.784534856941384" lon="11.393964982977458"><ele>92.0</ele><time>2026-05-03T13:03:22Z</time></trkpt><trkpt lat="43.7843926907578" lon="11.394104809552838"><ele>89.66666666666667</ele><time>2026-05-03T13:03:23Z</time></trkpt><trkpt lat="43.784245353970334" lon="11.394236555698976"><ele>87.33333333333333</ele><time>2026-05-03T13:03:24Z</time></trkpt><trkpt lat="43.784102946419466" lon="11.394366604783063"><ele>85.0</ele><time>2026-05-03T13:03:25Z</time></trkpt><trkpt lat="43.78396628073137" lon="11.39450454926162"><ele>85.0</ele><time>2026-05-03T13:03:26Z</time></trkpt><trkpt lat="43.78383689027626" lon="11.394653924092333"><ele>85.0</ele><time>2026-05-03T13:03:27Z</time></trkpt><trkpt lat="43.783694733982294" lon="11.394810607465505"><ele>85.0</ele><time>2026-05-03T13:03:28Z</time></trkpt><trkpt lat="43.78356167265674" lon="11.39500099910952"><ele>84.66666666666666</ele><time>2026-05-03T13:03:29Z</time></trkpt><trkpt lat="43.783438404393074" lon="11.395222095483831"><ele>84.33333333333333</ele><time>2026-05-03T13:03:30Z</time></trkpt><trkpt lat="43.78334325858223" lon="11.395457147025377"><ele>84.0</ele><time>2026-05-03T13:03:31Z</time></trkpt><trkpt lat="43.783264530232714" lon="11.395731414959661"><ele>81.5</ele><time>2026-05-03T13:03:32Z</time></trkpt><trkpt lat="43.7831897753951" lon="11.396034717670714"><ele>79.0</ele><time>2026-05-03T13:03:33Z</time></trkpt><trkpt lat="43.783120305975075" lon="11.396355815292628"><ele>78.33333333333333</ele><time>2026-05-03T13:03:34Z</time></trkpt><trkpt lat="43.783063087155284" lon="11.396653320011435"><ele>77.66666666666667</ele><time>2026-05-03T13:03:35Z</time></trkpt><trkpt lat="43.78300394091597" lon="11.396922929830994"><ele>77.0</ele><time>2026-05-03T13:03:36Z</time></trkpt><trkpt lat="43.782932772295624" lon="11.39717339149548"><ele>77.0</ele><time>2026-05-03T13:03:37Z</time></trkpt><trkpt lat="43.78285960678259" lon="11.397398118868582"><ele>77.0</ele><time>2026-05-03T13:03:38Z</time></trkpt><trkpt lat="43.78277136918991" lon="11.397606184098667"><ele>77.0</ele><time>2026-05-03T13:03:39Z</time></trkpt><trkpt lat="43.78267603990163" lon="11.397798944986523"><ele>76.0</ele><time>2026-05-03T13:03:40Z</time></trkpt><trkpt lat="43.782575219878055" lon="11.397983082629079"><ele>75.0</ele><time>2026-05-03T13:03:41Z</time></trkpt><trkpt lat="43.78246725982375" lon="11.39816695037593"><ele>74.0</ele><time>2026-05-03T13:03:42Z</time></trkpt><trkpt lat="43.78234978934918" lon="11.398349697901542"><ele>73.66666666666667</ele><time>2026-05-03T13:03:43Z</time></trkpt><trkpt lat="43.782227640694146" lon="11.39853387172262"><ele>73.33333333333333</ele><time>2026-05-03T13:03:44Z</time></trkpt><trkpt lat="43.78210567745184" lon="11.398712586429205"><ele>73.0</ele><time>2026-05-03T13:03:45Z</time></trkpt><trkpt lat="43.781976035940545" lon="11.398887960565137"><ele>74.0</ele><time>2026-05-03T13:03:46Z</time></trkpt><trkpt lat="43.781825718074" lon="11.399036904847176"><ele>75.0</ele><time>2026-05-03T13:03:47Z</time></trkpt><trkpt lat="43.78166767328839" lon="11.39921557467862"><ele>76.0</ele><time>2026-05-03T13:03:48Z</time></trkpt><trkpt lat="43.78150627776457" lon="11.399397091243252"><ele>76.0</ele><time>2026-05-03T13:03:49Z</time></trkpt><trkpt lat="43.78134191846779" lon="11.399611075491482"><ele>76.0</ele><time>2026-05-03T13:03:50Z</time></trkpt><trkpt lat="43.781156518843765" lon="11.399792227926351"><ele>79.5</ele><time>2026-05-03T13:03:51Z</time></trkpt><trkpt lat="43.78098625802752" lon="11.400003247134249"><ele>83.0</ele><time>2026-05-03T13:03:52Z</time></trkpt><trkpt lat="43.78080575876234" lon="11.400204548961216"><ele>83.0</ele><time>2026-05-03T13:03:53Z</time></trkpt><trkpt lat="43.78063152335657" lon="11.400405800872473"><ele>83.0</ele><time>2026-05-03T13:03:54Z</time></trkpt><trkpt lat="43.780466880302335" lon="11.400595877881129"><ele>83.0</ele><time>2026-05-03T13:03:55Z</time></trkpt><trkpt lat="43.78030969733403" lon="11.400775301787242"><ele>82.33333333333334</ele><time>2026-05-03T13:03:56Z</time></trkpt><trkpt lat="43.78015728607917" lon="11.400949152617715"><ele>81.66666666666667</ele><time>2026-05-03T13:03:57Z</time></trkpt><trkpt lat="43.78000724982144" lon="11.401117440137666"><ele>81.0</ele><time>2026-05-03T13:03:58Z</time></trkpt><trkpt lat="43.77986599785205" lon="11.401277288305907"><ele>79.33333333333333</ele><time>2026-05-03T13:03:59Z</time></trkpt><trkpt lat="43.77973232646543" lon="11.401429624758398"><ele>77.66666666666666</ele><time>2026-05-03T13:04:00Z</time></trkpt><trkpt lat="43.779602666487186" lon="11.401584296938312"><ele>76.0</ele><time>2026-05-03T13:04:01Z</time></trkpt><trkpt lat="43.779473696495636" lon="11.401749808218957"><ele>77.0</ele><time>2026-05-03T13:04:02Z</time></trkpt><trkpt lat="43.77934870476349" lon="11.401934513139823"><ele>78.0</ele><time>2026-05-03T13:04:03Z</time></trkpt><trkpt lat="43.77923649374138" lon="11.402133788237006"><ele>79.0</ele><time>2026-05-03T13:04:04Z</time></trkpt><trkpt lat="43.779140872395914" lon="11.402340956201094"><ele>79.0</ele><time>2026-05-03T13:04:05Z</time></trkpt><trkpt lat="43.77906050697799" lon="11.402572302370547"><ele>79.0</ele><time>2026-05-03T13:04:06Z</time></trkpt><trkpt lat="43.778989371805956" lon="11.402855451004731"><ele>79.0</ele><time>2026-05-03T13:04:07Z</time></trkpt><trkpt lat="43.77891630952088" lon="11.403177718756412"><ele>78.5</ele><time>2026-05-03T13:04:08Z</time></trkpt><trkpt lat="43.77882886928096" lon="11.403519350191253"><ele>78.0</ele><time>2026-05-03T13:04:09Z</time></trkpt><trkpt lat="43.778735642754015" lon="11.403868042564184"><ele>78.5</ele><time>2026-05-03T13:04:10Z</time></trkpt><trkpt lat="43.77861926683107" lon="11.40420482633843"><ele>79.0</ele><time>2026-05-03T13:04:11Z</time></trkpt><trkpt lat="43.77847009638719" lon="11.404512327711439"><ele>78.0</ele><time>2026-05-03T13:04:12Z</time></trkpt><trkpt lat="43.778315192196814" lon="11.404794245822655"><ele>77.0</ele><time>2026-05-03T13:04:13Z</time></trkpt><trkpt lat="43.77817024124531" lon="11.40506576955664"><ele>77.0</ele><time>2026-05-03T13:04:14Z</time></trkpt><trkpt lat="43.77803675966169" lon="11.405330683351544"><ele>77.0</ele><time>2026-05-03T13:04:15Z</time></trkpt><trkpt lat="43.77790411446392" lon="11.405592790544118"><ele>76.66666666666667</ele><time>2026-05-03T13:04:16Z</time></trkpt><trkpt lat="43.77777915745319" lon="11.40583430467928"><ele>76.33333333333333</ele><time>2026-05-03T13:04:17Z</time></trkpt><trkpt lat="43.777668037450795" lon="11.406054434857085"><ele>76.0</ele><time>2026-05-03T13:04:18Z</time></trkpt><trkpt lat="43.777573382284835" lon="11.406243469665322"><ele>76.0</ele><time>2026-05-03T13:04:19Z</time></trkpt><trkpt lat="43.777491985514864" lon="11.40640702350487"><ele>76.0</ele><time>2026-05-03T13:04:20Z</time></trkpt><trkpt lat="43.77740737279074" lon="11.406570627400487"><ele>76.0</ele><time>2026-05-03T13:04:21Z</time></trkpt><trkpt lat="43.77731774579985" lon="11.406740693523375"><ele>76.0</ele><time>2026-05-03T13:04:22Z</time></trkpt><trkpt lat="43.77722498529011" lon="11.406919794939054"><ele>76.0</ele><time>2026-05-03T13:04:23Z</time></trkpt><trkpt lat="43.777129397864044" lon="11.40710836294016"><ele>76.0</ele><time>2026-05-03T13:04:24Z</time></trkpt><trkpt lat="43.77703004761076" lon="11.407301661234078"><ele>76.0</ele><time>2026-05-03T13:04:25Z</time></trkpt><trkpt lat="43.77692490388554" lon="11.407505005065397"><ele>76.0</ele><time>2026-05-03T13:04:26Z</time></trkpt><trkpt lat="43.77681984255739" lon="11.407713851185623"><ele>76.0</ele><time>2026-05-03T13:04:27Z</time></trkpt><trkpt lat="43.776706496631896" lon="11.407940104066439"><ele>76.0</ele><time>2026-05-03T13:04:28Z</time></trkpt><trkpt lat="43.77659282031887" lon="11.408171893789504"><ele>77.0</ele><time>2026-05-03T13:04:29Z</time></trkpt><trkpt lat="43.77647644393243" lon="11.408402662342727"><ele>78.0</ele><time>2026-05-03T13:04:30Z</time></trkpt><trkpt lat="43.77635162411756" lon="11.408638615704412"><ele>79.0</ele><time>2026-05-03T13:04:31Z</time></trkpt><trkpt lat="43.77622454265056" lon="11.408873353504251"><ele>79.0</ele><time>2026-05-03T13:04:32Z</time></trkpt><trkpt lat="43.77609472029565" lon="11.40910672321633"><ele>79.0</ele><time>2026-05-03T13:04:33Z</time></trkpt><trkpt lat="43.775963147090586" lon="11.409335510216826"><ele>79.0</ele><time>2026-05-03T13:04:34Z</time></trkpt><trkpt lat="43.77583892299935" lon="11.409539858751211"><ele>79.33333333333333</ele><time>2026-05-03T13:04:35Z</time></trkpt><trkpt lat="43.77572050633352" lon="11.409730501847216"><ele>79.66666666666667</ele><time>2026-05-03T13:04:36Z</time></trkpt><trkpt lat="43.77560387099619" lon="11.4099034979966"><ele>80.0</ele><time>2026-05-03T13:04:37Z</time></trkpt><trkpt lat="43.775489272382366" lon="11.410063004942208"><ele>80.0</ele><time>2026-05-03T13:04:38Z</time></trkpt><trkpt lat="43.77538020810431" lon="11.410218353124211"><ele>80.0</ele><time>2026-05-03T13:04:39Z</time></trkpt><trkpt lat="43.77527443937585" lon="11.410366953645989"><ele>80.0</ele><time>2026-05-03T13:04:40Z</time></trkpt><trkpt lat="43.77516182349803" lon="11.410513900240918"><ele>80.33333333333334</ele><time>2026-05-03T13:04:41Z</time></trkpt><trkpt lat="43.77504589962855" lon="11.41066037924219"><ele>80.66666666666667</ele><time>2026-05-03T13:04:42Z</time></trkpt><trkpt lat="43.7749277741974" lon="11.410803694934668"><ele>81.0</ele><time>2026-05-03T13:04:43Z</time></trkpt><trkpt lat="43.774809926921186" lon="11.410943227336423"><ele>81.0</ele><time>2026-05-03T13:04:44Z</time></trkpt><trkpt lat="43.77468940781026" lon="11.411081030399208"><ele>81.0</ele><time>2026-05-03T13:04:45Z</time></trkpt><trkpt lat="43.77457156742591" lon="11.411220739865197"><ele>81.0</ele><time>2026-05-03T13:04:46Z</time></trkpt><trkpt lat="43.77446297480165" lon="11.41137402042907"><ele>81.0</ele><time>2026-05-03T13:04:47Z</time></trkpt><trkpt lat="43.774372894754784" lon="11.411536374551618"><ele>81.0</ele><time>2026-05-03T13:04:48Z</time></trkpt><trkpt lat="43.774304463253394" lon="11.411698365817005"><ele>81.0</ele><time>2026-05-03T13:04:49Z</time></trkpt><trkpt lat="43.774250698494086" lon="11.411861885158661"><ele>81.0</ele><time>2026-05-03T13:04:50Z</time></trkpt><trkpt lat="43.774208281069" lon="11.412024341560652"><ele>80.5</ele><time>2026-05-03T13:04:51Z</time></trkpt><trkpt lat="43.774169876828545" lon="11.412193120047064"><ele>80.0</ele><time>2026-05-03T13:04:52Z</time></trkpt><trkpt lat="43.77413723098141" lon="11.4123683035674"><ele>79.5</ele><time>2026-05-03T13:04:53Z</time></trkpt><trkpt lat="43.774109673305944" lon="11.41255381323433"><ele>79.0</ele><time>2026-05-03T13:04:54Z</time></trkpt><trkpt lat="43.77409805655037" lon="11.412758779652997"><ele>79.0</ele><time>2026-05-03T13:04:55Z</time></trkpt><trkpt lat="43.77410681945918" lon="11.412969029753446"><ele>79.0</ele><time>2026-05-03T13:04:56Z</time></trkpt><trkpt lat="43.77412025894763" lon="11.413190326760695"><ele>79.0</ele><time>2026-05-03T13:04:57Z</time></trkpt><trkpt lat="43.774138815413046" lon="11.413407061685458"><ele>78.66666666666666</ele><time>2026-05-03T13:04:58Z</time></trkpt><trkpt lat="43.77416090355506" lon="11.413619808076959"><ele>78.33333333333333</ele><time>2026-05-03T13:04:59Z</time></trkpt><trkpt lat="43.774181867655244" lon="11.413835658311168"><ele>78.0</ele><time>2026-05-03T13:05:00Z</time></trkpt><trkpt lat="43.77420340066808" lon="11.414041840170443"><ele>78.0</ele><time>2026-05-03T13:05:01Z</time></trkpt><trkpt lat="43.77422293309357" lon="11.414235305882551"><ele>78.0</ele><time>2026-05-03T13:05:02Z</time></trkpt><trkpt lat="43.77423983700137" lon="11.414418567052913"><ele>78.0</ele><time>2026-05-03T13:05:03Z</time></trkpt><trkpt lat="43.77425589558983" lon="11.414602900528864"><ele>78.0</ele><time>2026-05-03T13:05:04Z</time></trkpt><trkpt lat="43.774273339635705" lon="11.414794335718677"><ele>78.0</ele><time>2026-05-03T13:05:05Z</time></trkpt><trkpt lat="43.77429377428214" lon="11.41499445684686"><ele>78.0</ele><time>2026-05-03T13:05:06Z</time></trkpt><trkpt lat="43.7743152352609" lon="11.41519181913001"><ele>78.0</ele><time>2026-05-03T13:05:07Z</time></trkpt><trkpt lat="43.77433413903255" lon="11.415382658292936"><ele>78.0</ele><time>2026-05-03T13:05:08Z</time></trkpt><trkpt lat="43.77434736499946" lon="11.41555331229527"><ele>78.2</ele><time>2026-05-03T13:05:09Z</time></trkpt><trkpt lat="43.77434570159523" lon="11.415693963984006"><ele>78.4</ele><time>2026-05-03T13:05:10Z</time></trkpt><trkpt lat="43.77433450859959" lon="11.415831363031131"><ele>78.60000000000001</ele><time>2026-05-03T13:05:11Z</time></trkpt><trkpt lat="43.77430357122576" lon="11.41597326262014"><ele>78.8</ele><time>2026-05-03T13:05:12Z</time></trkpt><trkpt lat="43.77426126030134" lon="11.416102211102297"><ele>79.0</ele><time>2026-05-03T13:05:13Z</time></trkpt><trkpt lat="43.7742099238642" lon="11.416219683551466"><ele>79.5</ele><time>2026-05-03T13:05:14Z</time></trkpt><trkpt lat="43.7741521437206" lon="11.416342881936316"><ele>80.0</ele><time>2026-05-03T13:05:15Z</time></trkpt><trkpt lat="43.77408525699838" lon="11.416484854662446"><ele>80.5</ele><time>2026-05-03T13:05:16Z</time></trkpt><trkpt lat="43.77400246249228" lon="11.416647228491373"><ele>81.0</ele><time>2026-05-03T13:05:17Z</time></trkpt><trkpt lat="43.77391899459268" lon="11.416820339740582"><ele>81.0</ele><time>2026-05-03T13:05:18Z</time></trkpt><trkpt lat="43.77382505888165" lon="11.417013720806407"><ele>81.0</ele><time>2026-05-03T13:05:19Z</time></trkpt><trkpt lat="43.773725061343555" lon="11.417226912848463"><ele>81.0</ele><time>2026-05-03T13:05:20Z</time></trkpt><trkpt lat="43.77362415726082" lon="11.417463766939495"><ele>81.0</ele><time>2026-05-03T13:05:21Z</time></trkpt><trkpt lat="43.77352348054626" lon="11.417728767675554"><ele>81.0</ele><time>2026-05-03T13:05:22Z</time></trkpt><trkpt lat="43.77343702776448" lon="11.418022801840173"><ele>81.0</ele><time>2026-05-03T13:05:23Z</time></trkpt><trkpt lat="43.77336416146859" lon="11.418322911139812"><ele>81.0</ele><time>2026-05-03T13:05:24Z</time></trkpt><trkpt lat="43.77330314864153" lon="11.418629381404546"><ele>81.0</ele><time>2026-05-03T13:05:25Z</time></trkpt><trkpt lat="43.77323988689709" lon="11.41893862344706"><ele>81.0</ele><time>2026-05-03T13:05:26Z</time></trkpt><trkpt lat="43.773173063072846" lon="11.419244134846132"><ele>81.0</ele><time>2026-05-03T13:05:27Z</time></trkpt><trkpt lat="43.77310057151947" lon="11.419548725521999"><ele>81.0</ele><time>2026-05-03T13:05:28Z</time></trkpt><trkpt lat="43.77302658803571" lon="11.4198526767163"><ele>81.0</ele><time>2026-05-03T13:05:29Z</time></trkpt><trkpt lat="43.77295458643203" lon="11.420158691194809"><ele>81.0</ele><time>2026-05-03T13:05:30Z</time></trkpt><trkpt lat="43.77288446349247" lon="11.420463971789694"><ele>81.0</ele><time>2026-05-03T13:05:31.001Z</time></trkpt><trkpt lat="43.77281209438267" lon="11.42076954892173"><ele>81.0</ele><time>2026-05-03T13:05:32.001Z</time></trkpt><trkpt lat="43.77274431315312" lon="11.421072068721921"><ele>81.0</ele><time>2026-05-03T13:05:33.001Z</time></trkpt><trkpt lat="43.772677165871585" lon="11.421371636705084"><ele>80.5</ele><time>2026-05-03T13:05:34.001Z</time></trkpt><trkpt lat="43.77260915624113" lon="11.421668739608485"><ele>80.0</ele><time>2026-05-03T13:05:35.001Z</time></trkpt><trkpt lat="43.77253873405673" lon="11.421973159098348"><ele>80.5</ele><time>2026-05-03T13:05:36.001Z</time></trkpt><trkpt lat="43.772467339741326" lon="11.42227629249176"><ele>81.0</ele><time>2026-05-03T13:05:37.001Z</time></trkpt><trkpt lat="43.7723924599938" lon="11.422590438663216"><ele>81.0</ele><time>2026-05-03T13:05:38Z</time></trkpt><trkpt lat="43.772317591472856" lon="11.42290670263156"><ele>81.0</ele><time>2026-05-03T13:05:39Z</time></trkpt><trkpt lat="43.772241179316715" lon="11.423222906950468"><ele>81.5</ele><time>2026-05-03T13:05:40Z</time></trkpt><trkpt lat="43.772157420343454" lon="11.423542748470755"><ele>82.0</ele><time>2026-05-03T13:05:41Z</time></trkpt><trkpt lat="43.77207474008693" lon="11.423852931927387"><ele>82.0</ele><time>2026-05-03T13:05:42Z</time></trkpt><trkpt lat="43.772002967317576" lon="11.42414917932729"><ele>82.0</ele><time>2026-05-03T13:05:43Z</time></trkpt><trkpt lat="43.77193781966545" lon="11.424431738741768"><ele>82.0</ele><time>2026-05-03T13:05:44Z</time></trkpt><trkpt lat="43.77187721431712" lon="11.424700011828001"><ele>81.66666666666666</ele><time>2026-05-03T13:05:45Z</time></trkpt><trkpt lat="43.77181532938497" lon="11.424958187279945"><ele>81.33333333333333</ele><time>2026-05-03T13:05:46Z</time></trkpt><trkpt lat="43.77175525105757" lon="11.425210330828486"><ele>81.0</ele><time>2026-05-03T13:05:47Z</time></trkpt><trkpt lat="43.77169471847744" lon="11.425458118273063"><ele>81.0</ele><time>2026-05-03T13:05:48Z</time></trkpt><trkpt lat="43.77163562330441" lon="11.425705848027498"><ele>81.0</ele><time>2026-05-03T13:05:49Z</time></trkpt><trkpt lat="43.77157801812552" lon="11.425956760884118"><ele>81.0</ele><time>2026-05-03T13:05:50Z</time></trkpt><trkpt lat="43.77152313184458" lon="11.42620027825236"><ele>81.0</ele><time>2026-05-03T13:05:51Z</time></trkpt><trkpt lat="43.77146514462979" lon="11.426448410463635"><ele>81.0</ele><time>2026-05-03T13:05:52Z</time></trkpt><trkpt lat="43.77140811745286" lon="11.426692313656138"><ele>81.0</ele><time>2026-05-03T13:05:53Z</time></trkpt><trkpt lat="43.77135080740735" lon="11.426937824609757"><ele>81.33333333333333</ele><time>2026-05-03T13:05:54Z</time></trkpt><trkpt lat="43.771292280502344" lon="11.427180830901944"><ele>81.66666666666666</ele><time>2026-05-03T13:05:55Z</time></trkpt><trkpt lat="43.77123198757204" lon="11.427430166620171"><ele>82.0</ele><time>2026-05-03T13:05:56Z</time></trkpt><trkpt lat="43.771172734632465" lon="11.427687068913178"><ele>82.0</ele><time>2026-05-03T13:05:57Z</time></trkpt><trkpt lat="43.77111366490858" lon="11.427946812704008"><ele>82.0</ele><time>2026-05-03T13:05:58Z</time></trkpt><trkpt lat="43.771051992371895" lon="11.428208950247145"><ele>82.0</ele><time>2026-05-03T13:05:59Z</time></trkpt><trkpt lat="43.77099319415915" lon="11.428450262712426"><ele>81.66666666666666</ele><time>2026-05-03T13:06:00Z</time></trkpt><trkpt lat="43.770937401633006" lon="11.428673028034568"><ele>81.33333333333333</ele><time>2026-05-03T13:06:01Z</time></trkpt><trkpt lat="43.77088159710742" lon="11.428888485978044"><ele>81.0</ele><time>2026-05-03T13:06:02Z</time></trkpt><trkpt lat="43.7708246290722" lon="11.429111147781308"><ele>81.0</ele><time>2026-05-03T13:06:03Z</time></trkpt><trkpt lat="43.77075673224523" lon="11.429346987632583"><ele>81.0</ele><time>2026-05-03T13:06:04Z</time></trkpt><trkpt lat="43.770676470169015" lon="11.429590631364725"><ele>81.0</ele><time>2026-05-03T13:06:05Z</time></trkpt><trkpt lat="43.77058719303091" lon="11.429850620241314"><ele>81.0</ele><time>2026-05-03T13:06:06Z</time></trkpt><trkpt lat="43.770491671725765" lon="11.43012984880627"><ele>81.0</ele><time>2026-05-03T13:06:07Z</time></trkpt><trkpt lat="43.77038715127633" lon="11.430424170582768"><ele>81.5</ele><time>2026-05-03T13:06:08Z</time></trkpt><trkpt lat="43.770275300350356" lon="11.430733387932463"><ele>82.0</ele><time>2026-05-03T13:06:09Z</time></trkpt><trkpt lat="43.77015868238771" lon="11.431077362037302"><ele>81.0</ele><time>2026-05-03T13:06:10Z</time></trkpt><trkpt lat="43.770034293816735" lon="11.43143957640729"><ele>80.0</ele><time>2026-05-03T13:06:11Z</time></trkpt><trkpt lat="43.76990322304098" lon="11.431819081269184"><ele>81.0</ele><time>2026-05-03T13:06:12Z</time></trkpt><trkpt lat="43.7697705511614" lon="11.43221144600497"><ele>82.0</ele><time>2026-05-03T13:06:13Z</time></trkpt><trkpt lat="43.76965448445449" lon="11.432579905829297"><ele>82.0</ele><time>2026-05-03T13:06:14Z</time></trkpt><trkpt lat="43.76956089466355" lon="11.43292940777768"><ele>82.0</ele><time>2026-05-03T13:06:15Z</time></trkpt><trkpt lat="43.76948552997954" lon="11.433281445174098"><ele>82.0</ele><time>2026-05-03T13:06:16Z</time></trkpt><trkpt lat="43.76942255185073" lon="11.433629953825031"><ele>82.0</ele><time>2026-05-03T13:06:17Z</time></trkpt><trkpt lat="43.76937691979772" lon="11.43397028246074"><ele>82.0</ele><time>2026-05-03T13:06:18Z</time></trkpt><trkpt lat="43.76934557187533" lon="11.434281361923148"><ele>82.0</ele><time>2026-05-03T13:06:19Z</time></trkpt><trkpt lat="43.769324410762216" lon="11.434577035028978"><ele>82.0</ele><time>2026-05-03T13:06:20Z</time></trkpt><trkpt lat="43.769317245123005" lon="11.434858230009514"><ele>82.0</ele><time>2026-05-03T13:06:21Z</time></trkpt><trkpt lat="43.7693203133037" lon="11.435138639646324"><ele>82.0</ele><time>2026-05-03T13:06:22Z</time></trkpt><trkpt lat="43.76932988509072" lon="11.435432491159382"><ele>82.0</ele><time>2026-05-03T13:06:23Z</time></trkpt><trkpt lat="43.76934176458753" lon="11.435736265131368"><ele>82.33333333333333</ele><time>2026-05-03T13:06:24Z</time></trkpt><trkpt lat="43.76936030915097" lon="11.436043717724448"><ele>82.66666666666667</ele><time>2026-05-03T13:06:25Z</time></trkpt><trkpt lat="43.769383801039254" lon="11.43635336369936"><ele>83.0</ele><time>2026-05-03T13:06:26Z</time></trkpt><trkpt lat="43.769392580958524" lon="11.436680601228288"><ele>83.0</ele><time>2026-05-03T13:06:27Z</time></trkpt><trkpt lat="43.769416993695586" lon="11.437004863154982"><ele>83.0</ele><time>2026-05-03T13:06:28Z</time></trkpt><trkpt lat="43.769560116830846" lon="11.437321835182766"><ele>83.0</ele><time>2026-05-03T13:06:29Z</time></trkpt><trkpt lat="43.76964467310414" lon="11.437645590428012"><ele>83.0</ele><time>2026-05-03T13:06:30Z</time></trkpt><trkpt lat="43.769740517655315" lon="11.437964899728906"><ele>83.0</ele><time>2026-05-03T13:06:31Z</time></trkpt><trkpt lat="43.769847124857655" lon="11.438282356825383"><ele>83.0</ele><time>2026-05-03T13:06:32Z</time></trkpt><trkpt lat="43.76995564044066" lon="11.438599172805553"><ele>81.5</ele><time>2026-05-03T13:06:33Z</time></trkpt><trkpt lat="43.770068743354955" lon="11.438922529481694"><ele>80.0</ele><time>2026-05-03T13:06:34Z</time></trkpt><trkpt lat="43.77018520799182" lon="11.439257488070638"><ele>81.0</ele><time>2026-05-03T13:06:35Z</time></trkpt><trkpt lat="43.77030731881358" lon="11.43960145529862"><ele>82.0</ele><time>2026-05-03T13:06:36Z</time></trkpt><trkpt lat="43.770438526868624" lon="11.43995957490013"><ele>82.0</ele><time>2026-05-03T13:06:37Z</time></trkpt><trkpt lat="43.770570587890695" lon="11.440325915561923"><ele>82.0</ele><time>2026-05-03T13:06:38Z</time></trkpt><trkpt lat="43.77069833741018" lon="11.440690689420583"><ele>81.0</ele><time>2026-05-03T13:06:39Z</time></trkpt><trkpt lat="43.77081448638901" lon="11.441043619159078"><ele>80.0</ele><time>2026-05-03T13:06:40Z</time></trkpt><trkpt lat="43.77091694527543" lon="11.441385402560597"><ele>80.0</ele><time>2026-05-03T13:06:41Z</time></trkpt><trkpt lat="43.77100110523582" lon="11.441713913028583"><ele>80.0</ele><time>2026-05-03T13:06:42Z</time></trkpt><trkpt lat="43.77106535095298" lon="11.442041599939087"><ele>80.0</ele><time>2026-05-03T13:06:43Z</time></trkpt><trkpt lat="43.77111560439426" lon="11.442371718199503"><ele>80.0</ele><time>2026-05-03T13:06:44Z</time></trkpt><trkpt lat="43.77115173556428" lon="11.442697857094776"><ele>80.5</ele><time>2026-05-03T13:06:45Z</time></trkpt><trkpt lat="43.77117880446392" lon="11.44301872379267"><ele>81.0</ele><time>2026-05-03T13:06:46Z</time></trkpt><trkpt lat="43.77120818511628" lon="11.44333672078594"><ele>81.0</ele><time>2026-05-03T13:06:47Z</time></trkpt><trkpt lat="43.77124122594242" lon="11.443657521769586"><ele>81.0</ele><time>2026-05-03T13:06:48Z</time></trkpt><trkpt lat="43.77127244350465" lon="11.443987346982377"><ele>82.0</ele><time>2026-05-03T13:06:49Z</time></trkpt><trkpt lat="43.7713019583681" lon="11.444320291013511"><ele>83.0</ele><time>2026-05-03T13:06:50Z</time></trkpt><trkpt lat="43.771328543718" lon="11.444666257012289"><ele>83.0</ele><time>2026-05-03T13:06:51Z</time></trkpt><trkpt lat="43.77135592437861" lon="11.44502507560606"><ele>83.0</ele><time>2026-05-03T13:06:52Z</time></trkpt><trkpt lat="43.771388664052196" lon="11.445406516270957"><ele>82.5</ele><time>2026-05-03T13:06:53Z</time></trkpt><trkpt lat="43.77141773396437" lon="11.445800008607211"><ele>82.0</ele><time>2026-05-03T13:06:54Z</time></trkpt><trkpt lat="43.77143678044845" lon="11.44616140380621"><ele>83.0</ele><time>2026-05-03T13:06:55Z</time></trkpt><trkpt lat="43.7714546236307" lon="11.446498721910093"><ele>84.0</ele><time>2026-05-03T13:06:56Z</time></trkpt><trkpt lat="43.77149576935615" lon="11.446807359915855"><ele>84.0</ele><time>2026-05-03T13:06:57Z</time></trkpt><trkpt lat="43.77155063574181" lon="11.447109875883957"><ele>84.0</ele><time>2026-05-03T13:06:58Z</time></trkpt><trkpt lat="43.77161918718231" lon="11.447399431681484"><ele>84.0</ele><time>2026-05-03T13:06:59Z</time></trkpt><trkpt lat="43.771694998241024" lon="11.447682095564769"><ele>84.0</ele><time>2026-05-03T13:07:00Z</time></trkpt><trkpt lat="43.771779772525846" lon="11.44795364648546"><ele>84.0</ele><time>2026-05-03T13:07:01Z</time></trkpt><trkpt lat="43.77187480038079" lon="11.44821989709069"><ele>84.0</ele><time>2026-05-03T13:07:02Z</time></trkpt><trkpt lat="43.7719816135365" lon="11.448479253348872"><ele>84.33333333333333</ele><time>2026-05-03T13:07:03Z</time></trkpt><trkpt lat="43.77210125227028" lon="11.44873173991594"><ele>84.66666666666666</ele><time>2026-05-03T13:07:04Z</time></trkpt><trkpt lat="43.772232159086066" lon="11.448972753370137"><ele>85.0</ele><time>2026-05-03T13:07:05Z</time></trkpt><trkpt lat="43.77236080401454" lon="11.449189233574133"><ele>86.0</ele><time>2026-05-03T13:07:06Z</time></trkpt><trkpt lat="43.77248721587766" lon="11.449387593340594"><ele>87.0</ele><time>2026-05-03T13:07:07Z</time></trkpt><trkpt lat="43.77259349082789" lon="11.449582185576821"><ele>88.0</ele><time>2026-05-03T13:07:08Z</time></trkpt><trkpt lat="43.77266908813996" lon="11.449791163207767"><ele>89.33333333333333</ele><time>2026-05-03T13:07:09Z</time></trkpt><trkpt lat="43.77271146760139" lon="11.450022609651581"><ele>90.66666666666667</ele><time>2026-05-03T13:07:10Z</time></trkpt><trkpt lat="43.77274939350927" lon="11.45026654930838"><ele>92.0</ele><time>2026-05-03T13:07:11Z</time></trkpt><trkpt lat="43.77279878610005" lon="11.450503561887233"><ele>93.33333333333334</ele><time>2026-05-03T13:07:12Z</time></trkpt><trkpt lat="43.77288735657069" lon="11.450713474767298"><ele>94.66666666666667</ele><time>2026-05-03T13:07:13Z</time></trkpt><trkpt lat="43.77300380921919" lon="11.45090560426385"><ele>96.0</ele><time>2026-05-03T13:07:14Z</time></trkpt><trkpt lat="43.773148988099685" lon="11.45106274637484"><ele>96.0</ele><time>2026-05-03T13:07:15Z</time></trkpt><trkpt lat="43.773298885368284" lon="11.451187370828364"><ele>96.0</ele><time>2026-05-03T13:07:16Z</time></trkpt><trkpt lat="43.77343149273883" lon="11.451291078332787"><ele>96.0</ele><time>2026-05-03T13:07:17Z</time></trkpt><trkpt lat="43.77354078185584" lon="11.451387179905202"><ele>99.4</ele><time>2026-05-03T13:07:18Z</time></trkpt><trkpt lat="43.77362590136015" lon="11.451481839662476"><ele>102.8</ele><time>2026-05-03T13:07:19Z</time></trkpt><trkpt lat="43.77369822654306" lon="11.451578547928145"><ele>106.20000000000002</ele><time>2026-05-03T13:07:20Z</time></trkpt><trkpt lat="43.773754003944354" lon="11.451674897556718"><ele>109.60000000000001</ele><time>2026-05-03T13:07:21Z</time></trkpt><trkpt lat="43.773792792145926" lon="11.451777817499837"><ele>113.0</ele><time>2026-05-03T13:07:22Z</time></trkpt><trkpt lat="43.773791232622955" lon="11.451901363958063"><ele>113.0</ele><time>2026-05-03T13:07:23Z</time></trkpt><trkpt lat="43.77374678801535" lon="11.452043803975968"><ele>113.0</ele><time>2026-05-03T13:07:24Z</time></trkpt><trkpt lat="43.77367102377606" lon="11.452202992469374"><ele>113.0</ele><time>2026-05-03T13:07:25Z</time></trkpt><trkpt lat="43.7735894784017" lon="11.452374293088262"><ele>113.0</ele><time>2026-05-03T13:07:26Z</time></trkpt><trkpt lat="43.77351998801159" lon="11.452571373407748"><ele>114.33333333333333</ele><time>2026-05-03T13:07:27Z</time></trkpt><trkpt lat="43.77344704802307" lon="11.452790298148997"><ele>115.66666666666666</ele><time>2026-05-03T13:07:28Z</time></trkpt><trkpt lat="43.773347877968575" lon="11.453031885586986"><ele>117.0</ele><time>2026-05-03T13:07:29Z</time></trkpt><trkpt lat="43.77322995845172" lon="11.453293334532505"><ele>117.0</ele><time>2026-05-03T13:07:30Z</time></trkpt><trkpt lat="43.77313245088877" lon="11.453602153842777"><ele>117.0</ele><time>2026-05-03T13:07:31Z</time></trkpt><trkpt lat="43.77305848262137" lon="11.453939662242114"><ele>120.33333333333334</ele><time>2026-05-03T13:07:32Z</time></trkpt><trkpt lat="43.7730077154893" lon="11.454265628331346"><ele>123.66666666666667</ele><time>2026-05-03T13:07:33Z</time></trkpt><trkpt lat="43.772952450875174" lon="11.454527784377033"><ele>127.0</ele><time>2026-05-03T13:07:34Z</time></trkpt><trkpt lat="43.77287108974746" lon="11.454743690644225"><ele>129.75</ele><time>2026-05-03T13:07:35Z</time></trkpt><trkpt lat="43.772771901380665" lon="11.454924212169464"><ele>132.5</ele><time>2026-05-03T13:07:36Z</time></trkpt><trkpt lat="43.77267437932565" lon="11.455077393941822"><ele>135.25</ele><time>2026-05-03T13:07:37Z</time></trkpt><trkpt lat="43.77259136818878" lon="11.455221669618185"><ele>138.0</ele><time>2026-05-03T13:07:38Z</time></trkpt><trkpt lat="43.77252374972143" lon="11.455350190781786"><ele>136.16666666666666</ele><time>2026-05-03T13:07:39Z</time></trkpt><trkpt lat="43.77246669196705" lon="11.455465334323144"><ele>134.33333333333334</ele><time>2026-05-03T13:07:40Z</time></trkpt><trkpt lat="43.77241540669482" lon="11.45556539319494"><ele>132.5</ele><time>2026-05-03T13:07:41Z</time></trkpt><trkpt lat="43.77237490680727" lon="11.455650347608904"><ele>130.66666666666669</ele><time>2026-05-03T13:07:42Z</time></trkpt><trkpt lat="43.772338564164876" lon="11.455729460171893"><ele>128.83333333333334</ele><time>2026-05-03T13:07:43Z</time></trkpt><trkpt lat="43.77227092101659" lon="11.455861258400382"><ele>127.0</ele><time>2026-05-03T13:07:45Z</time></trkpt><trkpt lat="43.77224885574159" lon="11.45595612768841"><ele>127.0</ele><time>2026-05-03T13:07:47Z</time></trkpt><trkpt lat="43.7724134989765" lon="11.45610854920959"><ele>126.99999999999999</ele><time>2026-05-03T13:07:48Z</time></trkpt><trkpt lat="43.77247163918807" lon="11.45617497303603"><ele>126.99999999999999</ele><time>2026-05-03T13:07:49Z</time></trkpt><trkpt lat="43.77250619153411" lon="11.456266237253232"><ele>127.0</ele><time>2026-05-03T13:07:50Z</time></trkpt><trkpt lat="43.77255032518225" lon="11.456356620639163"><ele>127.0</ele><time>2026-05-03T13:07:51Z</time></trkpt><trkpt lat="43.77251904815167" lon="11.456535819535553"><ele>127.66666666666667</ele><time>2026-05-03T13:07:52Z</time></trkpt><trkpt lat="43.772537162625596" lon="11.456708356019897"><ele>128.33333333333334</ele><time>2026-05-03T13:07:53Z</time></trkpt><trkpt lat="43.7725662634341" lon="11.456914703937555"><ele>129.0</ele><time>2026-05-03T13:07:54Z</time></trkpt><trkpt lat="43.77260473293024" lon="11.457151348578618"><ele>129.33333333333334</ele><time>2026-05-03T13:07:55Z</time></trkpt><trkpt lat="43.77266629254465" lon="11.45740105245645"><ele>129.66666666666669</ele><time>2026-05-03T13:07:56Z</time></trkpt><trkpt lat="43.772779113114716" lon="11.457654121881406"><ele>130.0</ele><time>2026-05-03T13:07:57Z</time></trkpt><trkpt lat="43.7729052461998" lon="11.457879327849925"><ele>140.66666666666669</ele><time>2026-05-03T13:07:58Z</time></trkpt><trkpt lat="43.772996954111576" lon="11.458080257167126"><ele>151.33333333333334</ele><time>2026-05-03T13:07:59Z</time></trkpt><trkpt lat="43.773052476144365" lon="11.458277613592518"><ele>162.0</ele><time>2026-05-03T13:08:00Z</time></trkpt><trkpt lat="43.77301605556202" lon="11.458456972402033"><ele>162.0</ele><time>2026-05-03T13:08:01Z</time></trkpt><trkpt lat="43.77297040714181" lon="11.458613910396899"><ele>162.0</ele><time>2026-05-03T13:08:02Z</time></trkpt><trkpt lat="43.77291028289566" lon="11.458830729823342"><ele>162.0</ele><time>2026-05-03T13:08:03Z</time></trkpt><trkpt lat="43.772852566846154" lon="11.459063919691328"><ele>163.66666666666666</ele><time>2026-05-03T13:08:04Z</time></trkpt><trkpt lat="43.772842025992624" lon="11.459315351209383"><ele>165.33333333333331</ele><time>2026-05-03T13:08:05Z</time></trkpt><trkpt lat="43.77287976959509" lon="11.459559857271902"><ele>167.0</ele><time>2026-05-03T13:08:06Z</time></trkpt><trkpt lat="43.772885532921855" lon="11.45980111369925"><ele>168.33333333333331</ele><time>2026-05-03T13:08:07Z</time></trkpt><trkpt lat="43.77279337430583" lon="11.460008546094858"><ele>169.66666666666666</ele><time>2026-05-03T13:08:08Z</time></trkpt><trkpt lat="43.77270976140816" lon="11.4602617395218"><ele>171.0</ele><time>2026-05-03T13:08:09Z</time></trkpt><trkpt lat="43.7726069735729" lon="11.460520867831534"><ele>167.66666666666666</ele><time>2026-05-03T13:08:10Z</time></trkpt><trkpt lat="43.772547695006494" lon="11.460801162935606"><ele>164.33333333333331</ele><time>2026-05-03T13:08:11Z</time></trkpt><trkpt lat="43.772498465598424" lon="11.461006835731526"><ele>161.0</ele><time>2026-05-03T13:08:12Z</time></trkpt><trkpt lat="43.772379578559054" lon="11.461137994220582"><ele>161.0</ele><time>2026-05-03T13:08:13Z</time></trkpt><trkpt lat="43.772220379265526" lon="11.461192567296099"><ele>161.0</ele><time>2026-05-03T13:08:14Z</time></trkpt><trkpt lat="43.7720297671053" lon="11.461279343954565"><ele>161.0</ele><time>2026-05-03T13:08:15Z</time></trkpt><trkpt lat="43.771801115238915" lon="11.461329843964192"><ele>170.5</ele><time>2026-05-03T13:08:16Z</time></trkpt><trkpt lat="43.771556396677255" lon="11.46141630431323"><ele>180.0</ele><time>2026-05-03T13:08:17Z</time></trkpt><trkpt lat="43.77130592345485" lon="11.461546206430906"><ele>180.0</ele><time>2026-05-03T13:08:18Z</time></trkpt><trkpt lat="43.77107922701032" lon="11.461699085774717"><ele>180.0</ele><time>2026-05-03T13:08:19Z</time></trkpt><trkpt lat="43.77089423484187" lon="11.46183372705302"><ele>180.5</ele><time>2026-05-03T13:08:20Z</time></trkpt><trkpt lat="43.77075562769357" lon="11.461930425075069"><ele>181.0</ele><time>2026-05-03T13:08:21Z</time></trkpt><trkpt lat="43.77065345596631" lon="11.462016555593237"><ele>181.5</ele><time>2026-05-03T13:08:22Z</time></trkpt><trkpt lat="43.77059022969012" lon="11.462143943305458"><ele>182.0</ele><time>2026-05-03T13:08:23Z</time></trkpt><trkpt lat="43.77058221785489" lon="11.462308673560951"><ele>182.0</ele><time>2026-05-03T13:08:24Z</time></trkpt><trkpt lat="43.77061755361758" lon="11.462478179822249"><ele>182.0</ele><time>2026-05-03T13:08:25Z</time></trkpt><trkpt lat="43.77066308396848" lon="11.462648522553256"><ele>182.0</ele><time>2026-05-03T13:08:26Z</time></trkpt><trkpt lat="43.770688533520364" lon="11.462832198036509"><ele>182.0</ele><time>2026-05-03T13:08:27Z</time></trkpt><trkpt lat="43.77070103589856" lon="11.463046142938351"><ele>184.0</ele><time>2026-05-03T13:08:28Z</time></trkpt><trkpt lat="43.770707565035444" lon="11.46326591274945"><ele>186.0</ele><time>2026-05-03T13:08:29Z</time></trkpt><trkpt lat="43.7707122891397" lon="11.463484780465988"><ele>188.0</ele><time>2026-05-03T13:08:30Z</time></trkpt><trkpt lat="43.770723623824225" lon="11.463720650962113"><ele>189.33333333333331</ele><time>2026-05-03T13:08:31Z</time></trkpt><trkpt lat="43.77073245247121" lon="11.463990856449788"><ele>190.66666666666666</ele><time>2026-05-03T13:08:32Z</time></trkpt><trkpt lat="43.77072365704743" lon="11.464237511272023"><ele>192.0</ele><time>2026-05-03T13:08:33Z</time></trkpt><trkpt lat="43.77070006227979" lon="11.464448871369328"><ele>193.25</ele><time>2026-05-03T13:08:34Z</time></trkpt><trkpt lat="43.77066014871864" lon="11.464644252385265"><ele>194.5</ele><time>2026-05-03T13:08:35Z</time></trkpt><trkpt lat="43.77060572067283" lon="11.464826622309454"><ele>195.75</ele><time>2026-05-03T13:08:36Z</time></trkpt><trkpt lat="43.77055618576212" lon="11.464984041629076"><ele>197.0</ele><time>2026-05-03T13:08:37Z</time></trkpt><trkpt lat="43.770512111774345" lon="11.46512051507096"><ele>197.0</ele><time>2026-05-03T13:08:38Z</time></trkpt><trkpt lat="43.77047266465582" lon="11.465259729765446"><ele>197.0</ele><time>2026-05-03T13:08:39Z</time></trkpt><trkpt lat="43.77043144025318" lon="11.465405493531188"><ele>197.0</ele><time>2026-05-03T13:08:40Z</time></trkpt><trkpt lat="43.77038563280318" lon="11.46554562893334"><ele>197.0</ele><time>2026-05-03T13:08:41Z</time></trkpt><trkpt lat="43.77033349738059" lon="11.465668015618407"><ele>197.0</ele><time>2026-05-03T13:08:42Z</time></trkpt><trkpt lat="43.770273646707594" lon="11.465764583672085"><ele>197.39999999999998</ele><time>2026-05-03T13:08:43Z</time></trkpt><trkpt lat="43.77025156577156" lon="11.465874343443756"><ele>197.79999999999998</ele><time>2026-05-03T13:08:44Z</time></trkpt><trkpt lat="43.77027288311251" lon="11.466001771862771"><ele>198.2</ele><time>2026-05-03T13:08:45Z</time></trkpt><trkpt lat="43.77031221518036" lon="11.46613852038994"><ele>198.6</ele><time>2026-05-03T13:08:46Z</time></trkpt><trkpt lat="43.77031246323748" lon="11.46629599204453"><ele>199.0</ele><time>2026-05-03T13:08:47Z</time></trkpt><trkpt lat="43.77029537952814" lon="11.466472961301617"><ele>200.5</ele><time>2026-05-03T13:08:48Z</time></trkpt><trkpt lat="43.77028461343842" lon="11.46666390821107"><ele>202.0</ele><time>2026-05-03T13:08:49Z</time></trkpt><trkpt lat="43.77027744759572" lon="11.466869107565095"><ele>203.5</ele><time>2026-05-03T13:08:50Z</time></trkpt><trkpt lat="43.770268702290316" lon="11.46707529507377"><ele>205.0</ele><time>2026-05-03T13:08:51Z</time></trkpt><trkpt lat="43.770261899281124" lon="11.467286253145755"><ele>205.66666666666666</ele><time>2026-05-03T13:08:52Z</time></trkpt><trkpt lat="43.77025843656685" lon="11.467503755809021"><ele>206.33333333333331</ele><time>2026-05-03T13:08:53Z</time></trkpt><trkpt lat="43.7702664822795" lon="11.467730249672133"><ele>207.0</ele><time>2026-05-03T13:08:54Z</time></trkpt><trkpt lat="43.770288009826196" lon="11.467952660073514"><ele>208.66666666666669</ele><time>2026-05-03T13:08:55Z</time></trkpt><trkpt lat="43.77031143295186" lon="11.46818119912237"><ele>210.33333333333334</ele><time>2026-05-03T13:08:56Z</time></trkpt><trkpt lat="43.77032833954882" lon="11.468418315945504"><ele>212.0</ele><time>2026-05-03T13:08:57Z</time></trkpt><trkpt lat="43.77034556053482" lon="11.468653827794778"><ele>214.66666666666669</ele><time>2026-05-03T13:08:58Z</time></trkpt><trkpt lat="43.770360295579444" lon="11.468894044120704"><ele>217.33333333333331</ele><time>2026-05-03T13:08:59Z</time></trkpt><trkpt lat="43.770376899497855" lon="11.469139568548009"><ele>220.0</ele><time>2026-05-03T13:09:00Z</time></trkpt><trkpt lat="43.770394173718515" lon="11.469384721009213"><ele>222.33333333333331</ele><time>2026-05-03T13:09:01Z</time></trkpt><trkpt lat="43.770407482082085" lon="11.469620692911585"><ele>224.66666666666669</ele><time>2026-05-03T13:09:02Z</time></trkpt><trkpt lat="43.77041165328082" lon="11.469851345822251"><ele>227.0</ele><time>2026-05-03T13:09:03Z</time></trkpt><trkpt lat="43.77041197327612" lon="11.470059038819533"><ele>227.0</ele><time>2026-05-03T13:09:04Z</time></trkpt><trkpt lat="43.77040032607054" lon="11.470248355776507"><ele>227.0</ele><time>2026-05-03T13:09:05Z</time></trkpt><trkpt lat="43.7703638147244" lon="11.470438255475326"><ele>227.0</ele><time>2026-05-03T13:09:06Z</time></trkpt><trkpt lat="43.77028054231195" lon="11.470596052239939"><ele>227.0</ele><time>2026-05-03T13:09:07Z</time></trkpt><trkpt lat="43.770148772652114" lon="11.470677016314706"><ele>228.66666666666669</ele><time>2026-05-03T13:09:08Z</time></trkpt><trkpt lat="43.770001487703304" lon="11.47067890082404"><ele>230.33333333333331</ele><time>2026-05-03T13:09:09Z</time></trkpt><trkpt lat="43.769838452170106" lon="11.47068359771403"><ele>232.0</ele><time>2026-05-03T13:09:10Z</time></trkpt><trkpt lat="43.76968076672784" lon="11.470660641374867"><ele>232.0</ele><time>2026-05-03T13:09:11Z</time></trkpt><trkpt lat="43.769549187250696" lon="11.470661757845829"><ele>232.0</ele><time>2026-05-03T13:09:12Z</time></trkpt><trkpt lat="43.76944659280306" lon="11.470732335429965"><ele>232.0</ele><time>2026-05-03T13:09:13Z</time></trkpt><trkpt lat="43.769355159886736" lon="11.470833180742632"><ele>232.0</ele><time>2026-05-03T13:09:14Z</time></trkpt><trkpt lat="43.76937806292408" lon="11.471057308740363"><ele>232.0</ele><time>2026-05-03T13:09:15Z</time></trkpt><trkpt lat="43.76942383013033" lon="11.471218637815413"><ele>232.0</ele><time>2026-05-03T13:09:16Z</time></trkpt><trkpt lat="43.769520596981096" lon="11.471365001624068"><ele>232.0</ele><time>2026-05-03T13:09:17Z</time></trkpt><trkpt lat="43.76965236913014" lon="11.47148537191156"><ele>232.0</ele><time>2026-05-03T13:09:18Z</time></trkpt><trkpt lat="43.76978504351395" lon="11.471635709262525"><ele>233.25</ele><time>2026-05-03T13:09:19Z</time></trkpt><trkpt lat="43.769906719992115" lon="11.471788816176247"><ele>234.5</ele><time>2026-05-03T13:09:20Z</time></trkpt><trkpt lat="43.770017858199246" lon="11.471906825242245"><ele>235.75</ele><time>2026-05-03T13:09:21Z</time></trkpt><trkpt lat="43.770143357094405" lon="11.471980567425229"><ele>237.0</ele><time>2026-05-03T13:09:22Z</time></trkpt><trkpt lat="43.77027510833077" lon="11.472035767474022"><ele>238.75</ele><time>2026-05-03T13:09:23Z</time></trkpt><trkpt lat="43.77039495212952" lon="11.472098018102283"><ele>240.5</ele><time>2026-05-03T13:09:24Z</time></trkpt><trkpt lat="43.77050779997239" lon="11.47217242293141"><ele>242.25</ele><time>2026-05-03T13:09:25Z</time></trkpt><trkpt lat="43.770608153903474" lon="11.472243511732309"><ele>244.0</ele><time>2026-05-03T13:09:26Z</time></trkpt><trkpt lat="43.77069362944121" lon="11.472304879626884"><ele>244.0</ele><time>2026-05-03T13:09:27Z</time></trkpt><trkpt lat="43.77078304180535" lon="11.472417805674276"><ele>243.99999999999997</ele><time>2026-05-03T13:09:28Z</time></trkpt><trkpt lat="43.77085819860308" lon="11.472539890318869"><ele>243.99999999999997</ele><time>2026-05-03T13:09:29Z</time></trkpt><trkpt lat="43.77092557797698" lon="11.472661516513567"><ele>244.0</ele><time>2026-05-03T13:09:30Z</time></trkpt><trkpt lat="43.770995495707844" lon="11.472755874284115"><ele>244.0</ele><time>2026-05-03T13:09:31Z</time></trkpt><trkpt lat="43.77107775522443" lon="11.472812501731463"><ele>246.2</ele><time>2026-05-03T13:09:32Z</time></trkpt><trkpt lat="43.77117403590659" lon="11.472811055391764"><ele>248.39999999999998</ele><time>2026-05-03T13:09:33Z</time></trkpt><trkpt lat="43.77127575462133" lon="11.472759237632948"><ele>250.6</ele><time>2026-05-03T13:09:34Z</time></trkpt><trkpt lat="43.77136780188764" lon="11.472707981666428"><ele>252.8</ele><time>2026-05-03T13:09:35Z</time></trkpt><trkpt lat="43.77146517973898" lon="11.472696524107471"><ele>255.0</ele><time>2026-05-03T13:09:36Z</time></trkpt><trkpt lat="43.77158568590109" lon="11.472658637887259"><ele>255.0</ele><time>2026-05-03T13:09:37Z</time></trkpt><trkpt lat="43.771737672335256" lon="11.472627379472478"><ele>255.0</ele><time>2026-05-03T13:09:38Z</time></trkpt><trkpt lat="43.77191156214136" lon="11.4726213141792"><ele>255.0</ele><time>2026-05-03T13:09:39Z</time></trkpt><trkpt lat="43.7720893870711" lon="11.472619488382824"><ele>257.3333333333333</ele><time>2026-05-03T13:09:40Z</time></trkpt><trkpt lat="43.77225685920951" lon="11.472766015867473"><ele>259.66666666666663</ele><time>2026-05-03T13:09:41Z</time></trkpt><trkpt lat="43.772434631370885" lon="11.472948389850288"><ele>262.0</ele><time>2026-05-03T13:09:42Z</time></trkpt><trkpt lat="43.772632042232345" lon="11.473137685789544"><ele>267.0</ele><time>2026-05-03T13:09:43Z</time></trkpt><trkpt lat="43.77283370310094" lon="11.473345602813916"><ele>272.0</ele><time>2026-05-03T13:09:44Z</time></trkpt><trkpt lat="43.773008954495204" lon="11.473542648706559"><ele>272.0</ele><time>2026-05-03T13:09:45Z</time></trkpt><trkpt lat="43.77310236474661" lon="11.473760625790911"><ele>272.0</ele><time>2026-05-03T13:09:46Z</time></trkpt><trkpt lat="43.773148772421514" lon="11.473975244452133"><ele>272.0</ele><time>2026-05-03T13:09:47Z</time></trkpt><trkpt lat="43.7732020638838" lon="11.47419117918164"><ele>272.33333333333337</ele><time>2026-05-03T13:09:48Z</time></trkpt><trkpt lat="43.773235108336934" lon="11.474425024522992"><ele>272.6666666666667</ele><time>2026-05-03T13:09:49Z</time></trkpt><trkpt lat="43.77327674820949" lon="11.474647272364926"><ele>273.0</ele><time>2026-05-03T13:09:50Z</time></trkpt><trkpt lat="43.77331763331775" lon="11.474851810306898"><ele>273.5</ele><time>2026-05-03T13:09:51Z</time></trkpt><trkpt lat="43.773357055290916" lon="11.475048702271142"><ele>274.0</ele><time>2026-05-03T13:09:52Z</time></trkpt><trkpt lat="43.77341343789544" lon="11.475231238679951"><ele>274.5</ele><time>2026-05-03T13:09:53Z</time></trkpt><trkpt lat="43.773503151378144" lon="11.475392363304163"><ele>275.0</ele><time>2026-05-03T13:09:54Z</time></trkpt><trkpt lat="43.77362834663188" lon="11.475531381960632"><ele>278.0</ele><time>2026-05-03T13:09:55Z</time></trkpt><trkpt lat="43.77376986336918" lon="11.475668652986407"><ele>281.0</ele><time>2026-05-03T13:09:56Z</time></trkpt><trkpt lat="43.77391755046213" lon="11.475828404972795"><ele>284.0</ele><time>2026-05-03T13:09:57Z</time></trkpt><trkpt lat="43.77407406373506" lon="11.476016374406088"><ele>284.0</ele><time>2026-05-03T13:09:58Z</time></trkpt><trkpt lat="43.77422949418647" lon="11.476205655058896"><ele>284.0</ele><time>2026-05-03T13:09:59Z</time></trkpt><trkpt lat="43.774386826449664" lon="11.476370111126869"><ele>284.0</ele><time>2026-05-03T13:10:00Z</time></trkpt><trkpt lat="43.774573591687314" lon="11.476506298148127"><ele>286.5</ele><time>2026-05-03T13:10:01Z</time></trkpt><trkpt lat="43.774798897121215" lon="11.476629947768746"><ele>289.0</ele><time>2026-05-03T13:10:02Z</time></trkpt><trkpt lat="43.77504532026499" lon="11.476773019093407"><ele>293.0</ele><time>2026-05-03T13:10:03Z</time></trkpt><trkpt lat="43.7752921193726" lon="11.47692540022152"><ele>297.0</ele><time>2026-05-03T13:10:04Z</time></trkpt><trkpt lat="43.77553182529332" lon="11.477075094593667"><ele>296.0</ele><time>2026-05-03T13:10:05Z</time></trkpt><trkpt lat="43.77573781231725" lon="11.477223125784121"><ele>295.0</ele><time>2026-05-03T13:10:06Z</time></trkpt><trkpt lat="43.7759124907025" lon="11.477391685593853"><ele>294.0</ele><time>2026-05-03T13:10:07Z</time></trkpt><trkpt lat="43.776053355074495" lon="11.47763719652274"><ele>301.5</ele><time>2026-05-03T13:10:08Z</time></trkpt><trkpt lat="43.77620759705874" lon="11.477878471601445"><ele>309.0</ele><time>2026-05-03T13:10:09Z</time></trkpt><trkpt lat="43.776293462920634" lon="11.478164721145745"><ele>309.0</ele><time>2026-05-03T13:10:10Z</time></trkpt><trkpt lat="43.7763658650188" lon="11.478418617640617"><ele>309.0</ele><time>2026-05-03T13:10:11Z</time></trkpt><trkpt lat="43.77640144909127" lon="11.47864406067565"><ele>309.0</ele><time>2026-05-03T13:10:12Z</time></trkpt><trkpt lat="43.77643800806241" lon="11.478852159494117"><ele>308.25</ele><time>2026-05-03T13:10:13Z</time></trkpt><trkpt lat="43.77650106380451" lon="11.478991557696567"><ele>307.5</ele><time>2026-05-03T13:10:14Z</time></trkpt><trkpt lat="43.77660866441341" lon="11.479073175026434"><ele>306.75</ele><time>2026-05-03T13:10:15Z</time></trkpt><trkpt lat="43.77676711365654" lon="11.47909985484488"><ele>306.0</ele><time>2026-05-03T13:10:16Z</time></trkpt><trkpt lat="43.77695803794688" lon="11.479126920699535"><ele>309.6666666666667</ele><time>2026-05-03T13:10:17Z</time></trkpt><trkpt lat="43.77717087467938" lon="11.479187212156667"><ele>313.33333333333337</ele><time>2026-05-03T13:10:18Z</time></trkpt><trkpt lat="43.77738754469514" lon="11.479210196054366"><ele>317.0</ele><time>2026-05-03T13:10:19Z</time></trkpt><trkpt lat="43.77756439177283" lon="11.479246948365757"><ele>319.0</ele><time>2026-05-03T13:10:20Z</time></trkpt><trkpt lat="43.77769141695998" lon="11.479280197582233"><ele>321.0</ele><time>2026-05-03T13:10:21Z</time></trkpt><trkpt lat="43.77780227914898" lon="11.47933321811101"><ele>323.0</ele><time>2026-05-03T13:10:22Z</time></trkpt><trkpt lat="43.77789719658537" lon="11.479472452460175"><ele>325.0</ele><time>2026-05-03T13:10:23Z</time></trkpt><trkpt lat="43.77798047858571" lon="11.479690197527978"><ele>325.0</ele><time>2026-05-03T13:10:24Z</time></trkpt><trkpt lat="43.7781027809191" lon="11.479939876290418"><ele>325.0</ele><time>2026-05-03T13:10:25Z</time></trkpt><trkpt lat="43.778250270478566" lon="11.480205282085775"><ele>321.0</ele><time>2026-05-03T13:10:26Z</time></trkpt><trkpt lat="43.7783880557018" lon="11.48049081798506"><ele>317.0</ele><time>2026-05-03T13:10:27Z</time></trkpt><trkpt lat="43.7785357921057" lon="11.480722078123819"><ele>323.0</ele><time>2026-05-03T13:10:28Z</time></trkpt><trkpt lat="43.77869615791111" lon="11.480905911847662"><ele>329.0</ele><time>2026-05-03T13:10:29Z</time></trkpt><trkpt lat="43.778886898402995" lon="11.481041917234336"><ele>335.0</ele><time>2026-05-03T13:10:30Z</time></trkpt><trkpt lat="43.77911145261458" lon="11.481139346919381"><ele>335.0</ele><time>2026-05-03T13:10:31Z</time></trkpt><trkpt lat="43.779313232881755" lon="11.481244199605111"><ele>335.0</ele><time>2026-05-03T13:10:32Z</time></trkpt><trkpt lat="43.77945097022148" lon="11.481402945351526"><ele>335.0</ele><time>2026-05-03T13:10:33Z</time></trkpt><trkpt lat="43.77956061249459" lon="11.481609127752193"><ele>338.0</ele><time>2026-05-03T13:10:34Z</time></trkpt><trkpt lat="43.779697107910096" lon="11.481852208922891"><ele>341.0</ele><time>2026-05-03T13:10:35Z</time></trkpt><trkpt lat="43.77985270183248" lon="11.482115052980776"><ele>341.0</ele><time>2026-05-03T13:10:36Z</time></trkpt><trkpt lat="43.7800168130271" lon="11.482400553405574"><ele>341.0</ele><time>2026-05-03T13:10:37Z</time></trkpt><trkpt lat="43.78017903684147" lon="11.482686782495474"><ele>346.33333333333337</ele><time>2026-05-03T13:10:38Z</time></trkpt><trkpt lat="43.78031450374299" lon="11.482948014680364"><ele>351.6666666666667</ele><time>2026-05-03T13:10:39Z</time></trkpt><trkpt lat="43.780383247199545" lon="11.483183753097242"><ele>357.0</ele><time>2026-05-03T13:10:40Z</time></trkpt><trkpt lat="43.78039321283796" lon="11.483418964986143"><ele>357.0</ele><time>2026-05-03T13:10:41Z</time></trkpt><trkpt lat="43.78041424103343" lon="11.483699974161768"><ele>357.0</ele><time>2026-05-03T13:10:42Z</time></trkpt><trkpt lat="43.78044031253279" lon="11.48400717801616"><ele>357.0</ele><time>2026-05-03T13:10:43Z</time></trkpt><trkpt lat="43.78052014547746" lon="11.484317770577809"><ele>360.0</ele><time>2026-05-03T13:10:44Z</time></trkpt><trkpt lat="43.780642382490285" lon="11.484625719000464"><ele>363.0</ele><time>2026-05-03T13:10:45Z</time></trkpt><trkpt lat="43.78076168527242" lon="11.484954666733428"><ele>363.0</ele><time>2026-05-03T13:10:46Z</time></trkpt><trkpt lat="43.78088399045637" lon="11.485297628254447"><ele>363.0</ele><time>2026-05-03T13:10:47Z</time></trkpt><trkpt lat="43.78102618208514" lon="11.485636758371257"><ele>367.3333333333333</ele><time>2026-05-03T13:10:48Z</time></trkpt><trkpt lat="43.78114897713263" lon="11.485923274146495"><ele>371.66666666666663</ele><time>2026-05-03T13:10:49Z</time></trkpt><trkpt lat="43.78120357317045" lon="11.486155543762765"><ele>376.0</ele><time>2026-05-03T13:10:50Z</time></trkpt><trkpt lat="43.781202771464" lon="11.486337895223487"><ele>376.66666666666663</ele><time>2026-05-03T13:10:51Z</time></trkpt><trkpt lat="43.7811818130233" lon="11.48655588680176"><ele>377.3333333333333</ele><time>2026-05-03T13:10:52Z</time></trkpt><trkpt lat="43.78115191238832" lon="11.486845130804369"><ele>378.0</ele><time>2026-05-03T13:10:53Z</time></trkpt><trkpt lat="43.78113178310224" lon="11.487172680152883"><ele>378.0</ele><time>2026-05-03T13:10:54Z</time></trkpt><trkpt lat="43.78108030687397" lon="11.48751146931206"><ele>378.0</ele><time>2026-05-03T13:10:55Z</time></trkpt><trkpt lat="43.7810051334519" lon="11.487838183442133"><ele>380.66666666666663</ele><time>2026-05-03T13:10:56Z</time></trkpt><trkpt lat="43.78092233950728" lon="11.488103619077643"><ele>383.3333333333333</ele><time>2026-05-03T13:10:57Z</time></trkpt><trkpt lat="43.78086970531802" lon="11.488330231480946"><ele>386.0</ele><time>2026-05-03T13:10:58Z</time></trkpt><trkpt lat="43.78088449533036" lon="11.488550504746254"><ele>386.0</ele><time>2026-05-03T13:10:59Z</time></trkpt><trkpt lat="43.78095779546821" lon="11.488775495500436"><ele>386.0</ele><time>2026-05-03T13:11:00Z</time></trkpt><trkpt lat="43.78107235107538" lon="11.489007277382955"><ele>386.0</ele><time>2026-05-03T13:11:01Z</time></trkpt><trkpt lat="43.78120079848574" lon="11.48925036609665"><ele>389.3333333333333</ele><time>2026-05-03T13:11:02Z</time></trkpt><trkpt lat="43.78133458903095" lon="11.489467907773388"><ele>392.66666666666663</ele><time>2026-05-03T13:11:03Z</time></trkpt><trkpt lat="43.78150477437249" lon="11.489652639702104"><ele>396.0</ele><time>2026-05-03T13:11:04Z</time></trkpt><trkpt lat="43.78171428703958" lon="11.489816782133964"><ele>398.0</ele><time>2026-05-03T13:11:05Z</time></trkpt><trkpt lat="43.78194321450989" lon="11.489992103141276"><ele>400.0</ele><time>2026-05-03T13:11:06Z</time></trkpt><trkpt lat="43.78213814741354" lon="11.490146356151014"><ele>400.0</ele><time>2026-05-03T13:11:07Z</time></trkpt><trkpt lat="43.78230399053243" lon="11.490302346875596"><ele>400.0</ele><time>2026-05-03T13:11:08Z</time></trkpt><trkpt lat="43.78243059077454" lon="11.49048846335717"><ele>400.0</ele><time>2026-05-03T13:11:09Z</time></trkpt><trkpt lat="43.782525910041926" lon="11.490732907953412"><ele>400.0</ele><time>2026-05-03T13:11:10Z</time></trkpt><trkpt lat="43.7826667670191" lon="11.49094270188334"><ele>400.0</ele><time>2026-05-03T13:11:11Z</time></trkpt><trkpt lat="43.78281235857063" lon="11.491155176211443"><ele>400.0</ele><time>2026-05-03T13:11:12Z</time></trkpt><trkpt lat="43.782708186253224" lon="11.491743005241089"><ele>410.5</ele><time>2026-05-03T13:11:13Z</time></trkpt><trkpt lat="43.782749046991874" lon="11.492114262160937"><ele>421.0</ele><time>2026-05-03T13:11:14Z</time></trkpt><trkpt lat="43.78276145358492" lon="11.49247337910981"><ele>421.0</ele><time>2026-05-03T13:11:15Z</time></trkpt><trkpt lat="43.7827403883302" lon="11.492774692427023"><ele>421.0</ele><time>2026-05-03T13:11:16Z</time></trkpt><trkpt lat="43.78273127069733" lon="11.493003606148301"><ele>421.0</ele><time>2026-05-03T13:11:17Z</time></trkpt><trkpt lat="43.78278330879044" lon="11.493186110205873"><ele>422.33333333333337</ele><time>2026-05-03T13:11:18Z</time></trkpt><trkpt lat="43.78289350327099" lon="11.493337606426763"><ele>423.66666666666663</ele><time>2026-05-03T13:11:19Z</time></trkpt><trkpt lat="43.78304109346485" lon="11.493466638652421"><ele>425.0</ele><time>2026-05-03T13:11:20Z</time></trkpt><trkpt lat="43.783209901110936" lon="11.493622170094575"><ele>424.0</ele><time>2026-05-03T13:11:21Z</time></trkpt><trkpt lat="43.78337822464024" lon="11.493801073853216"><ele>423.0</ele><time>2026-05-03T13:11:22Z</time></trkpt><trkpt lat="43.78351697519836" lon="11.49397450501854"><ele>422.0</ele><time>2026-05-03T13:11:23Z</time></trkpt><trkpt lat="43.7836123505224" lon="11.494150687777973"><ele>426.3333333333333</ele><time>2026-05-03T13:11:24Z</time></trkpt><trkpt lat="43.78366516794584" lon="11.494367475531117"><ele>430.66666666666663</ele><time>2026-05-03T13:11:25Z</time></trkpt><trkpt lat="43.7836812268268" lon="11.494609235931712"><ele>435.0</ele><time>2026-05-03T13:11:26Z</time></trkpt><trkpt lat="43.783701197461376" lon="11.49483524052622"><ele>436.33333333333337</ele><time>2026-05-03T13:11:27Z</time></trkpt><trkpt lat="43.78377008340165" lon="11.495062851520474"><ele>437.6666666666667</ele><time>2026-05-03T13:11:28Z</time></trkpt><trkpt lat="43.78385880847885" lon="11.49532347595675"><ele>439.0</ele><time>2026-05-03T13:11:29Z</time></trkpt><trkpt lat="43.783930632434085" lon="11.495590936577875"><ele>441.0</ele><time>2026-05-03T13:11:30Z</time></trkpt><trkpt lat="43.783984818754845" lon="11.495861694660176"><ele>443.0</ele><time>2026-05-03T13:11:31Z</time></trkpt><trkpt lat="43.784015484455544" lon="11.49614430325878"><ele>445.0</ele><time>2026-05-03T13:11:32Z</time></trkpt><trkpt lat="43.784014250160205" lon="11.496433876306233"><ele>447.33333333333337</ele><time>2026-05-03T13:11:33Z</time></trkpt><trkpt lat="43.78397449232266" lon="11.496677898143474"><ele>449.66666666666663</ele><time>2026-05-03T13:11:34Z</time></trkpt><trkpt lat="43.78391541457253" lon="11.496887981851216"><ele>452.0</ele><time>2026-05-03T13:11:35Z</time></trkpt><trkpt lat="43.78384461586722" lon="11.497066214151612"><ele>453.25</ele><time>2026-05-03T13:11:36Z</time></trkpt><trkpt lat="43.78376999680961" lon="11.497213816561551"><ele>454.5</ele><time>2026-05-03T13:11:37Z</time></trkpt><trkpt lat="43.78370495511054" lon="11.497344128440263"><ele>455.75</ele><time>2026-05-03T13:11:38Z</time></trkpt><trkpt lat="43.78366791641157" lon="11.497486833515635"><ele>457.0</ele><time>2026-05-03T13:11:39Z</time></trkpt><trkpt lat="43.783680322679885" lon="11.49764149331305"><ele>457.0</ele><time>2026-05-03T13:11:40Z</time></trkpt><trkpt lat="43.78374060060502" lon="11.497796693095811"><ele>457.0</ele><time>2026-05-03T13:11:41Z</time></trkpt><trkpt lat="43.78384062874855" lon="11.497933965989208"><ele>457.0</ele><time>2026-05-03T13:11:42Z</time></trkpt><trkpt lat="43.783958953674876" lon="11.498052176240938"><ele>457.0</ele><time>2026-05-03T13:11:43Z</time></trkpt><trkpt lat="43.7840591693654" lon="11.49814788837063"><ele>457.75</ele><time>2026-05-03T13:11:44Z</time></trkpt><trkpt lat="43.784133512883905" lon="11.49826038673695"><ele>458.5</ele><time>2026-05-03T13:11:45Z</time></trkpt><trkpt lat="43.78420578103464" lon="11.498386308007612"><ele>459.25</ele><time>2026-05-03T13:11:46Z</time></trkpt><trkpt lat="43.784272958732906" lon="11.498515105031418"><ele>460.0</ele><time>2026-05-03T13:11:47Z</time></trkpt><trkpt lat="43.784340116661184" lon="11.498644718292862"><ele>460.2</ele><time>2026-05-03T13:11:48Z</time></trkpt><trkpt lat="43.78440286563247" lon="11.49877550891326"><ele>460.4</ele><time>2026-05-03T13:11:49Z</time></trkpt><trkpt lat="43.784443075051016" lon="11.498906212756605"><ele>460.6</ele><time>2026-05-03T13:11:50Z</time></trkpt><trkpt lat="43.78445928059229" lon="11.499019226390406"><ele>460.8</ele><time>2026-05-03T13:11:51Z</time></trkpt><trkpt lat="43.784469610164024" lon="11.499167173527065"><ele>461.0</ele><time>2026-05-03T13:11:53Z</time></trkpt><trkpt lat="43.784457464259745" lon="11.499345060092953"><ele>461.0</ele><time>2026-05-03T13:11:55Z</time></trkpt><trkpt lat="43.7844323585277" lon="11.499463879262645"><ele>461.0</ele><time>2026-05-03T13:11:56Z</time></trkpt><trkpt lat="43.7844043799626" lon="11.49959368114415"><ele>461.0</ele><time>2026-05-03T13:11:57Z</time></trkpt><trkpt lat="43.784373795287806" lon="11.49973408470635"><ele>461.0</ele><time>2026-05-03T13:11:58Z</time></trkpt><trkpt lat="43.78434232417385" lon="11.499882440603805"><ele>461.0</ele><time>2026-05-03T13:11:59Z</time></trkpt><trkpt lat="43.78431141175132" lon="11.500031959033501"><ele>462.0</ele><time>2026-05-03T13:12:00Z</time></trkpt><trkpt lat="43.78427908206561" lon="11.500183244008902"><ele>463.0</ele><time>2026-05-03T13:12:01Z</time></trkpt><trkpt lat="43.784248459873126" lon="11.500333606951859"><ele>464.0</ele><time>2026-05-03T13:12:02Z</time></trkpt><trkpt lat="43.78422331688062" lon="11.500480127841293"><ele>465.0</ele><time>2026-05-03T13:12:03Z</time></trkpt><trkpt lat="43.78421583890867" lon="11.500620568579892"><ele>466.0</ele><time>2026-05-03T13:12:04Z</time></trkpt><trkpt lat="43.78422919941977" lon="11.500757329873052"><ele>467.4</ele><time>2026-05-03T13:12:05Z</time></trkpt><trkpt lat="43.7842594837443" lon="11.500890903190703"><ele>468.8</ele><time>2026-05-03T13:12:06Z</time></trkpt><trkpt lat="43.78430538175943" lon="11.501017140432158"><ele>470.19999999999993</ele><time>2026-05-03T13:12:07Z</time></trkpt><trkpt lat="43.78435897550982" lon="11.501142850029062"><ele>471.59999999999997</ele><time>2026-05-03T13:12:08Z</time></trkpt><trkpt lat="43.78440786275895" lon="11.501268552569726"><ele>473.0</ele><time>2026-05-03T13:12:09Z</time></trkpt><trkpt lat="43.78446125624799" lon="11.501397110926568"><ele>474.2</ele><time>2026-05-03T13:12:10Z</time></trkpt><trkpt lat="43.78451343334136" lon="11.50152817430988"><ele>475.4</ele><time>2026-05-03T13:12:11Z</time></trkpt><trkpt lat="43.78455824814123" lon="11.50166711576982"><ele>476.59999999999997</ele><time>2026-05-03T13:12:12Z</time></trkpt><trkpt lat="43.784594769376085" lon="11.501812898793318"><ele>477.79999999999995</ele><time>2026-05-03T13:12:13Z</time></trkpt><trkpt lat="43.784615910834354" lon="11.50196272691322"><ele>479.0</ele><time>2026-05-03T13:12:14Z</time></trkpt><trkpt lat="43.784623567205394" lon="11.502117211428992"><ele>479.4</ele><time>2026-05-03T13:12:15Z</time></trkpt><trkpt lat="43.78461748259411" lon="11.50225003315169"><ele>479.79999999999995</ele><time>2026-05-03T13:12:16Z</time></trkpt><trkpt lat="43.78453019755151" lon="11.502296475970681"><ele>480.20000000000005</ele><time>2026-05-03T13:12:18Z</time></trkpt><trkpt lat="43.784599787207334" lon="11.502377006451523"><ele>480.6</ele><time>2026-05-03T13:12:19Z</time></trkpt><trkpt lat="43.784571338058655" lon="11.502532628905719"><ele>481.0</ele><time>2026-05-03T13:12:37Z</time></trkpt><trkpt lat="43.78454545092107" lon="11.502633104421333"><ele>481.0</ele><time>2026-05-03T13:12:38Z</time></trkpt><trkpt lat="43.78451426817303" lon="11.502756347156529"><ele>481.0</ele><time>2026-05-03T13:12:39Z</time></trkpt><trkpt lat="43.78448432675951" lon="11.502895765790393"><ele>481.0</ele><time>2026-05-03T13:12:40Z</time></trkpt><trkpt lat="43.78445866016594" lon="11.503081555675736"><ele>481.0</ele><time>2026-05-03T13:12:41Z</time></trkpt><trkpt lat="43.784426240651214" lon="11.503231113285405"><ele>481.0</ele><time>2026-05-03T13:12:42Z</time></trkpt><trkpt lat="43.78445068104215" lon="11.503411798814456"><ele>481.75</ele><time>2026-05-03T13:12:43Z</time></trkpt><trkpt lat="43.78449227101956" lon="11.503591833350264"><ele>482.5</ele><time>2026-05-03T13:12:44Z</time></trkpt><trkpt lat="43.78454686397162" lon="11.503763166008772"><ele>483.25</ele><time>2026-05-03T13:12:45Z</time></trkpt><trkpt lat="43.78458392027652" lon="11.503948954525498"><ele>484.0</ele><time>2026-05-03T13:12:46Z</time></trkpt><trkpt lat="43.78461689060969" lon="11.504137726373102"><ele>484.0</ele><time>2026-05-03T13:12:47Z</time></trkpt><trkpt lat="43.78465126845348" lon="11.504341008926291"><ele>484.0</ele><time>2026-05-03T13:12:48Z</time></trkpt><trkpt lat="43.784683333386845" lon="11.504538926720667"><ele>484.0</ele><time>2026-05-03T13:12:49Z</time></trkpt><trkpt lat="43.784713639296065" lon="11.504727134627709"><ele>484.0</ele><time>2026-05-03T13:12:50Z</time></trkpt><trkpt lat="43.78474476693374" lon="11.504908879485273"><ele>485.25</ele><time>2026-05-03T13:12:51Z</time></trkpt><trkpt lat="43.784776430169735" lon="11.505090968239118"><ele>486.5</ele><time>2026-05-03T13:12:52Z</time></trkpt><trkpt lat="43.784805530639424" lon="11.505266584213695"><ele>487.75</ele><time>2026-05-03T13:12:53Z</time></trkpt><trkpt lat="43.78483244737407" lon="11.505445271506813"><ele>489.0</ele><time>2026-05-03T13:12:54Z</time></trkpt><trkpt lat="43.78485879807463" lon="11.505623109129427"><ele>489.75</ele><time>2026-05-03T13:12:55Z</time></trkpt><trkpt lat="43.784882757787045" lon="11.505811227891044"><ele>490.5</ele><time>2026-05-03T13:12:56Z</time></trkpt><trkpt lat="43.784903604845155" lon="11.505999481643675"><ele>491.25</ele><time>2026-05-03T13:12:57Z</time></trkpt><trkpt lat="43.784925020433725" lon="11.506190843532542"><ele>492.0</ele><time>2026-05-03T13:12:58Z</time></trkpt><trkpt lat="43.78494995819885" lon="11.506379311244185"><ele>493.75</ele><time>2026-05-03T13:12:59Z</time></trkpt><trkpt lat="43.78498387603138" lon="11.506570259131506"><ele>495.5</ele><time>2026-05-03T13:13:00Z</time></trkpt><trkpt lat="43.78502278253797" lon="11.506759411852965"><ele>497.25</ele><time>2026-05-03T13:13:01Z</time></trkpt><trkpt lat="43.7850538078564" lon="11.5069505210991"><ele>499.0</ele><time>2026-05-03T13:13:02Z</time></trkpt><trkpt lat="43.78508829173304" lon="11.507140749200422"><ele>498.75</ele><time>2026-05-03T13:13:03Z</time></trkpt><trkpt lat="43.78512006641417" lon="11.507330447435486"><ele>498.5</ele><time>2026-05-03T13:13:04Z</time></trkpt><trkpt lat="43.78515772170286" lon="11.50752161403859"><ele>498.25</ele><time>2026-05-03T13:13:05Z</time></trkpt><trkpt lat="43.785203192860905" lon="11.50771247817927"><ele>498.0</ele><time>2026-05-03T13:13:06Z</time></trkpt><trkpt lat="43.785252960499" lon="11.507903723464729"><ele>500.75</ele><time>2026-05-03T13:13:07Z</time></trkpt><trkpt lat="43.78530872342638" lon="11.508091489135309"><ele>503.5</ele><time>2026-05-03T13:13:08Z</time></trkpt><trkpt lat="43.78536793098716" lon="11.508278353619776"><ele>506.25</ele><time>2026-05-03T13:13:09Z</time></trkpt><trkpt lat="43.78543700115703" lon="11.508458646288119"><ele>509.0</ele><time>2026-05-03T13:13:10Z</time></trkpt><trkpt lat="43.785504657634455" lon="11.50863523193625"><ele>510.5</ele><time>2026-05-03T13:13:11Z</time></trkpt><trkpt lat="43.78557175723455" lon="11.508819862764117"><ele>512.0</ele><time>2026-05-03T13:13:12Z</time></trkpt><trkpt lat="43.785641409655035" lon="11.508997432143689"><ele>513.5</ele><time>2026-05-03T13:13:13Z</time></trkpt><trkpt lat="43.78572236653014" lon="11.509173615730104"><ele>515.0</ele><time>2026-05-03T13:13:14Z</time></trkpt><trkpt lat="43.7857976812889" lon="11.50933331125973"><ele>515.0</ele><time>2026-05-03T13:13:15Z</time></trkpt><trkpt lat="43.785894470735194" lon="11.509494117082614"><ele>515.0</ele><time>2026-05-03T13:13:16Z</time></trkpt><trkpt lat="43.786003815965664" lon="11.509633176746213"><ele>515.0</ele><time>2026-05-03T13:13:17Z</time></trkpt><trkpt lat="43.78612181950743" lon="11.509758421986817"><ele>515.0</ele><time>2026-05-03T13:13:18Z</time></trkpt><trkpt lat="43.78622876485512" lon="11.509884996781182"><ele>515.5</ele><time>2026-05-03T13:13:19Z</time></trkpt><trkpt lat="43.78632964222506" lon="11.51000405563123"><ele>516.0</ele><time>2026-05-03T13:13:20Z</time></trkpt><trkpt lat="43.786425185392645" lon="11.510117367746917"><ele>516.5</ele><time>2026-05-03T13:13:21Z</time></trkpt><trkpt lat="43.78651843001462" lon="11.510228976295817"><ele>517.0</ele><time>2026-05-03T13:13:22Z</time></trkpt><trkpt lat="43.786609914645645" lon="11.510342168032302"><ele>518.25</ele><time>2026-05-03T13:13:23Z</time></trkpt><trkpt lat="43.78670001143394" lon="11.510458266385763"><ele>519.5</ele><time>2026-05-03T13:13:24Z</time></trkpt><trkpt lat="43.786789088650394" lon="11.510576751124795"><ele>520.75</ele><time>2026-05-03T13:13:25Z</time></trkpt><trkpt lat="43.78687286401848" lon="11.510683531401122"><ele>522.0</ele><time>2026-05-03T13:13:26Z</time></trkpt><trkpt lat="43.78694712899796" lon="11.510777767294037"><ele>522.0</ele><time>2026-05-03T13:13:27Z</time></trkpt><trkpt lat="43.78701766593657" lon="11.510871499993032"><ele>522.0</ele><time>2026-05-03T13:13:28Z</time></trkpt><trkpt lat="43.787091946132044" lon="11.51097062000137"><ele>522.0</ele><time>2026-05-03T13:13:29Z</time></trkpt><trkpt lat="43.78717673158695" lon="11.511076184325512"><ele>522.0</ele><time>2026-05-03T13:13:30Z</time></trkpt><trkpt lat="43.78726895296582" lon="11.511183712001552"><ele>522.0</ele><time>2026-05-03T13:13:31Z</time></trkpt><trkpt lat="43.78736760048271" lon="11.51129932426573"><ele>522.5</ele><time>2026-05-03T13:13:32Z</time></trkpt><trkpt lat="43.78746479990623" lon="11.511426728360668"><ele>523.0</ele><time>2026-05-03T13:13:33Z</time></trkpt><trkpt lat="43.787569191953125" lon="11.511566306146571"><ele>523.5</ele><time>2026-05-03T13:13:34Z</time></trkpt><trkpt lat="43.787682798433316" lon="11.511712786203827"><ele>524.0</ele><time>2026-05-03T13:13:35Z</time></trkpt><trkpt lat="43.78780613519169" lon="11.51187369226989"><ele>524.0</ele><time>2026-05-03T13:13:36Z</time></trkpt><trkpt lat="43.78795178443099" lon="11.512060645615914"><ele>524.0</ele><time>2026-05-03T13:13:37Z</time></trkpt><trkpt lat="43.78810698337712" lon="11.51226521471737"><ele>524.0</ele><time>2026-05-03T13:13:38Z</time></trkpt><trkpt lat="43.78827375360147" lon="11.512484567437639"><ele>526.5</ele><time>2026-05-03T13:13:39Z</time></trkpt><trkpt lat="43.78844785006679" lon="11.512713595455391"><ele>529.0</ele><time>2026-05-03T13:13:40Z</time></trkpt><trkpt lat="43.78860241880254" lon="11.512918878561564"><ele>531.3333333333334</ele><time>2026-05-03T13:13:41Z</time></trkpt><trkpt lat="43.788745115855264" lon="11.513106002385381"><ele>533.6666666666666</ele><time>2026-05-03T13:13:42Z</time></trkpt><trkpt lat="43.78890098341309" lon="11.513253065900505"><ele>536.0</ele><time>2026-05-03T13:13:43Z</time></trkpt><trkpt lat="43.78908673788666" lon="11.513337468471855"><ele>536.0</ele><time>2026-05-03T13:13:44Z</time></trkpt><trkpt lat="43.789299290333794" lon="11.513357406444017"><ele>536.0</ele><time>2026-05-03T13:13:45Z</time></trkpt><trkpt lat="43.789531180256205" lon="11.513334633999163"><ele>536.0</ele><time>2026-05-03T13:13:46Z</time></trkpt><trkpt lat="43.789773533916815" lon="11.513299736501684"><ele>540.0</ele><time>2026-05-03T13:13:47Z</time></trkpt><trkpt lat="43.79002912298922" lon="11.513226957317983"><ele>544.0</ele><time>2026-05-03T13:13:48Z</time></trkpt><trkpt lat="43.790292932994895" lon="11.513137136701355"><ele>550.0</ele><time>2026-05-03T13:13:49Z</time></trkpt><trkpt lat="43.79055105373437" lon="11.513050571509794"><ele>556.0</ele><time>2026-05-03T13:13:50Z</time></trkpt><trkpt lat="43.7907819911775" lon="11.51300661133008"><ele>556.0</ele><time>2026-05-03T13:13:51Z</time></trkpt><trkpt lat="43.79098149977797" lon="11.512952236849118"><ele>556.0</ele><time>2026-05-03T13:13:52Z</time></trkpt><trkpt lat="43.79115994751083" lon="11.512937220290185"><ele>556.0</ele><time>2026-05-03T13:13:53Z</time></trkpt><trkpt lat="43.79134427311834" lon="11.512992109568751"><ele>561.0</ele><time>2026-05-03T13:13:54Z</time></trkpt><trkpt lat="43.791560236130636" lon="11.51305639759416"><ele>566.0</ele><time>2026-05-03T13:13:55Z</time></trkpt><trkpt lat="43.7917937450604" lon="11.51311201364144"><ele>568.3333333333333</ele><time>2026-05-03T13:13:56Z</time></trkpt><trkpt lat="43.79200237537158" lon="11.5131718102"><ele>570.6666666666666</ele><time>2026-05-03T13:13:57Z</time></trkpt><trkpt lat="43.792172206002434" lon="11.513222497553064"><ele>573.0</ele><time>2026-05-03T13:13:58Z</time></trkpt><trkpt lat="43.79230124147047" lon="11.513282954003254"><ele>573.0</ele><time>2026-05-03T13:13:59Z</time></trkpt><trkpt lat="43.79239120232845" lon="11.513410738927977"><ele>573.0</ele><time>2026-05-03T13:14:00Z</time></trkpt><trkpt lat="43.792471464495044" lon="11.51355852459337"><ele>573.0</ele><time>2026-05-03T13:14:01Z</time></trkpt><trkpt lat="43.79249838379544" lon="11.513751522774049"><ele>573.0</ele><time>2026-05-03T13:14:02Z</time></trkpt><trkpt lat="43.79247611498455" lon="11.51394787168025"><ele>577.3333333333334</ele><time>2026-05-03T13:14:03Z</time></trkpt><trkpt lat="43.79239833477008" lon="11.514116891605786"><ele>581.6666666666667</ele><time>2026-05-03T13:14:04Z</time></trkpt><trkpt lat="43.792271150870654" lon="11.514245715982225"><ele>586.0</ele><time>2026-05-03T13:14:05Z</time></trkpt><trkpt lat="43.792097139782854" lon="11.514335713090007"><ele>586.0</ele><time>2026-05-03T13:14:06Z</time></trkpt><trkpt lat="43.79189955589909" lon="11.514417653842601"><ele>586.0</ele><time>2026-05-03T13:14:07Z</time></trkpt><trkpt lat="43.79169430033598" lon="11.51454093118458"><ele>586.0</ele><time>2026-05-03T13:14:08Z</time></trkpt><trkpt lat="43.791503435113235" lon="11.514718039969875"><ele>589.6666666666667</ele><time>2026-05-03T13:14:09Z</time></trkpt><trkpt lat="43.79134244697644" lon="11.514911655163926"><ele>593.3333333333334</ele><time>2026-05-03T13:14:10Z</time></trkpt><trkpt lat="43.79121926127922" lon="11.515067525087565"><ele>597.0</ele><time>2026-05-03T13:14:11Z</time></trkpt><trkpt lat="43.79113561251139" lon="11.515204188406488"><ele>597.0</ele><time>2026-05-03T13:14:12Z</time></trkpt><trkpt lat="43.79109578907237" lon="11.51537023385833"><ele>597.0</ele><time>2026-05-03T13:14:13Z</time></trkpt><trkpt lat="43.79111923399082" lon="11.515537853647624"><ele>597.0</ele><time>2026-05-03T13:14:14Z</time></trkpt><trkpt lat="43.791200764682586" lon="11.5156934316786"><ele>597.0</ele><time>2026-05-03T13:14:15Z</time></trkpt><trkpt lat="43.79133083747092" lon="11.515855005153709"><ele>599.0</ele><time>2026-05-03T13:14:16Z</time></trkpt><trkpt lat="43.791486329268004" lon="11.516032123943159"><ele>601.0</ele><time>2026-05-03T13:14:17Z</time></trkpt><trkpt lat="43.79164386876849" lon="11.51624685735192"><ele>603.0</ele><time>2026-05-03T13:14:18Z</time></trkpt><trkpt lat="43.79180947740254" lon="11.516484782873365"><ele>608.3333333333334</ele><time>2026-05-03T13:14:19Z</time></trkpt><trkpt lat="43.79198762207708" lon="11.516704248354097"><ele>613.6666666666667</ele><time>2026-05-03T13:14:20Z</time></trkpt><trkpt lat="43.79215923005874" lon="11.516861684813563"><ele>619.0</ele><time>2026-05-03T13:14:21Z</time></trkpt><trkpt lat="43.79231546596732" lon="11.516981550441717"><ele>614.3333333333334</ele><time>2026-05-03T13:14:22Z</time></trkpt><trkpt lat="43.79245230788973" lon="11.51708639367524"><ele>609.6666666666666</ele><time>2026-05-03T13:14:23Z</time></trkpt><trkpt lat="43.79258274215182" lon="11.51720713897788"><ele>605.0</ele><time>2026-05-03T13:14:24Z</time></trkpt><trkpt lat="43.792678425734756" lon="11.517369645741248"><ele>609.75</ele><time>2026-05-03T13:14:25Z</time></trkpt><trkpt lat="43.79278280024489" lon="11.517493290378502"><ele>614.5</ele><time>2026-05-03T13:14:26Z</time></trkpt><trkpt lat="43.792873217313904" lon="11.517637900484432"><ele>619.25</ele><time>2026-05-03T13:14:27Z</time></trkpt><trkpt lat="43.792984458610206" lon="11.517820369984435"><ele>624.0</ele><time>2026-05-03T13:14:28Z</time></trkpt><trkpt lat="43.79312924981354" lon="11.518035621512256"><ele>624.0</ele><time>2026-05-03T13:14:29Z</time></trkpt><trkpt lat="43.793289104883655" lon="11.518257578584477"><ele>624.0</ele><time>2026-05-03T13:14:30Z</time></trkpt><trkpt lat="43.79341912276749" lon="11.518483864968779"><ele>624.0</ele><time>2026-05-03T13:14:31Z</time></trkpt><trkpt lat="43.79348507791813" lon="11.518664340496732"><ele>625.5</ele><time>2026-05-03T13:14:32Z</time></trkpt><trkpt lat="43.793512830654116" lon="11.51880093380345"><ele>627.0</ele><time>2026-05-03T13:14:33Z</time></trkpt><trkpt lat="43.79345185941657" lon="11.518932916531345"><ele>628.5</ele><time>2026-05-03T13:14:34Z</time></trkpt><trkpt lat="43.79337805027146" lon="11.519097825182216"><ele>630.0</ele><time>2026-05-03T13:14:35Z</time></trkpt><trkpt lat="43.7932457006305" lon="11.519277875190133"><ele>630.0</ele><time>2026-05-03T13:14:36Z</time></trkpt><trkpt lat="43.7930781020256" lon="11.519460748600718"><ele>630.0</ele><time>2026-05-03T13:14:37Z</time></trkpt><trkpt lat="43.79289848331966" lon="11.519625663359434"><ele>630.0</ele><time>2026-05-03T13:14:38Z</time></trkpt><trkpt lat="43.79275418735182" lon="11.519803121812389"><ele>629.0</ele><time>2026-05-03T13:14:39Z</time></trkpt><trkpt lat="43.79264513004478" lon="11.520031839454385"><ele>628.0</ele><time>2026-05-03T13:14:40Z</time></trkpt><trkpt lat="43.79256555024332" lon="11.520277078913232"><ele>627.0</ele><time>2026-05-03T13:14:41Z</time></trkpt><trkpt lat="43.79253055166518" lon="11.520513683402303"><ele>631.0</ele><time>2026-05-03T13:14:42Z</time></trkpt><trkpt lat="43.79255345126543" lon="11.52075659171164"><ele>635.0</ele><time>2026-05-03T13:14:43Z</time></trkpt><trkpt lat="43.792609711064905" lon="11.521026630484714"><ele>639.0</ele><time>2026-05-03T13:14:44Z</time></trkpt><trkpt lat="43.79265327039546" lon="11.521329656434025"><ele>643.5</ele><time>2026-05-03T13:14:45Z</time></trkpt><trkpt lat="43.792663840619106" lon="11.521659858158436"><ele>648.0</ele><time>2026-05-03T13:14:46Z</time></trkpt><trkpt lat="43.79266404027774" lon="11.52199125829694"><ele>656.3333333333334</ele><time>2026-05-03T13:14:47Z</time></trkpt><trkpt lat="43.79268620011975" lon="11.522288090853127"><ele>664.6666666666667</ele><time>2026-05-03T13:14:48Z</time></trkpt><trkpt lat="43.792738005155364" lon="11.522533413262662"><ele>673.0</ele><time>2026-05-03T13:14:49Z</time></trkpt><trkpt lat="43.792778681971654" lon="11.522741920617714"><ele>675.6666666666667</ele><time>2026-05-03T13:14:50Z</time></trkpt><trkpt lat="43.79275687713829" lon="11.522945292630771"><ele>678.3333333333334</ele><time>2026-05-03T13:14:51Z</time></trkpt><trkpt lat="43.79267029615041" lon="11.523168311521648"><ele>681.0</ele><time>2026-05-03T13:14:52Z</time></trkpt><trkpt lat="43.79255611591878" lon="11.523421449134087"><ele>679.0</ele><time>2026-05-03T13:14:53Z</time></trkpt><trkpt lat="43.79244639397482" lon="11.523707637888908"><ele>677.0</ele><time>2026-05-03T13:14:54Z</time></trkpt><trkpt lat="43.792347569808925" lon="11.52398843894459"><ele>677.0</ele><time>2026-05-03T13:14:55Z</time></trkpt><trkpt lat="43.792259320070556" lon="11.524206363073725"><ele>677.0</ele><time>2026-05-03T13:14:56Z</time></trkpt><trkpt lat="43.79214867677888" lon="11.52432704570189"><ele>677.0</ele><time>2026-05-03T13:14:57Z</time></trkpt><trkpt lat="43.7920138220766" lon="11.524404146981382"><ele>677.0</ele><time>2026-05-03T13:14:58Z</time></trkpt><trkpt lat="43.79190240042242" lon="11.524503921048844"><ele>677.0</ele><time>2026-05-03T13:14:59Z</time></trkpt><trkpt lat="43.79186690437651" lon="11.524649253215683"><ele>677.0</ele><time>2026-05-03T13:15:00Z</time></trkpt><trkpt lat="43.79190042382577" lon="11.52482167813548"><ele>677.0</ele><time>2026-05-03T13:15:01Z</time></trkpt><trkpt lat="43.791978640087684" lon="11.525020916196345"><ele>681.0</ele><time>2026-05-03T13:15:02Z</time></trkpt><trkpt lat="43.79206320430208" lon="11.525235886815869"><ele>685.0</ele><time>2026-05-03T13:15:03Z</time></trkpt><trkpt lat="43.792082672628666" lon="11.525452145295871"><ele>689.0</ele><time>2026-05-03T13:15:04Z</time></trkpt><trkpt lat="43.792016115726646" lon="11.525669604264532"><ele>687.6666666666666</ele><time>2026-05-03T13:15:05Z</time></trkpt><trkpt lat="43.79193745685899" lon="11.525925170688762"><ele>686.3333333333334</ele><time>2026-05-03T13:15:06Z</time></trkpt><trkpt lat="43.79182849460757" lon="11.526189716223447"><ele>685.0</ele><time>2026-05-03T13:15:07Z</time></trkpt><trkpt lat="43.791762268957015" lon="11.526428558686405"><ele>685.0</ele><time>2026-05-03T13:15:08Z</time></trkpt><trkpt lat="43.791755106617984" lon="11.526641199635064"><ele>685.0</ele><time>2026-05-03T13:15:09Z</time></trkpt><trkpt lat="43.791797110350636" lon="11.526874131688128"><ele>685.0</ele><time>2026-05-03T13:15:10Z</time></trkpt><trkpt lat="43.79182366770878" lon="11.527115910156068"><ele>688.3333333333334</ele><time>2026-05-03T13:15:11Z</time></trkpt><trkpt lat="43.791761607094514" lon="11.527324783446044"><ele>691.6666666666666</ele><time>2026-05-03T13:15:12Z</time></trkpt><trkpt lat="43.79166750562129" lon="11.527509321866892"><ele>695.0</ele><time>2026-05-03T13:15:13Z</time></trkpt><trkpt lat="43.791609407101255" lon="11.527696015391058"><ele>695.0</ele><time>2026-05-03T13:15:14Z</time></trkpt><trkpt lat="43.791598915906924" lon="11.527885764527872"><ele>695.0</ele><time>2026-05-03T13:15:15Z</time></trkpt><trkpt lat="43.79165530337426" lon="11.52808569796462"><ele>695.0</ele><time>2026-05-03T13:15:16Z</time></trkpt><trkpt lat="43.79175652087094" lon="11.528297667815519"><ele>706.0</ele><time>2026-05-03T13:15:17Z</time></trkpt><trkpt lat="43.79185764051936" lon="11.528521770853208"><ele>717.0</ele><time>2026-05-03T13:15:18Z</time></trkpt><trkpt lat="43.791953693076714" lon="11.528777335921502"><ele>728.0</ele><time>2026-05-03T13:15:19Z</time></trkpt><trkpt lat="43.792016065055115" lon="11.52906132353091"><ele>728.0</ele><time>2026-05-03T13:15:20Z</time></trkpt><trkpt lat="43.7920097256977" lon="11.529348248383867"><ele>728.0</ele><time>2026-05-03T13:15:21Z</time></trkpt><trkpt lat="43.792029053956206" lon="11.529607190424677"><ele>728.0</ele><time>2026-05-03T13:15:22Z</time></trkpt><trkpt lat="43.79210915384332" lon="11.529839100033495"><ele>725.3333333333333</ele><time>2026-05-03T13:15:23Z</time></trkpt><trkpt lat="43.792241963928504" lon="11.53002226789789"><ele>722.6666666666666</ele><time>2026-05-03T13:15:24Z</time></trkpt><trkpt lat="43.792410106683185" lon="11.530167948235787"><ele>720.0</ele><time>2026-05-03T13:15:25Z</time></trkpt><trkpt lat="43.79260241098535" lon="11.530303693103763"><ele>726.3333333333334</ele><time>2026-05-03T13:15:26Z</time></trkpt><trkpt lat="43.79279165976811" lon="11.530433482221387"><ele>732.6666666666667</ele><time>2026-05-03T13:15:27Z</time></trkpt><trkpt lat="43.79294386544919" lon="11.530533530808107"><ele>739.0</ele><time>2026-05-03T13:15:28Z</time></trkpt><trkpt lat="43.79304716748279" lon="11.530616518925099"><ele>739.0</ele><time>2026-05-03T13:15:29Z</time></trkpt><trkpt lat="43.793106000117085" lon="11.530727991413553"><ele>739.0</ele><time>2026-05-03T13:15:30Z</time></trkpt><trkpt lat="43.79310836702689" lon="11.530899140836928"><ele>739.0</ele><time>2026-05-03T13:15:31Z</time></trkpt><trkpt lat="43.79305943347165" lon="11.531096361831192"><ele>739.0</ele><time>2026-05-03T13:15:32Z</time></trkpt><trkpt lat="43.79302402530263" lon="11.531346858759298"><ele>740.0</ele><time>2026-05-03T13:15:33Z</time></trkpt><trkpt lat="43.79300123561065" lon="11.531628022915715"><ele>741.0</ele><time>2026-05-03T13:15:34Z</time></trkpt><trkpt lat="43.79301642611555" lon="11.531936753723139"><ele>742.0</ele><time>2026-05-03T13:15:35Z</time></trkpt><trkpt lat="43.79299579643125" lon="11.532274675057685"><ele>744.5</ele><time>2026-05-03T13:15:36Z</time></trkpt><trkpt lat="43.792957289918114" lon="11.532629451768472"><ele>747.0</ele><time>2026-05-03T13:15:37Z</time></trkpt><trkpt lat="43.79293781145846" lon="11.53295618984895"><ele>747.3333333333334</ele><time>2026-05-03T13:15:38Z</time></trkpt><trkpt lat="43.79293495664241" lon="11.533246310811784"><ele>747.6666666666667</ele><time>2026-05-03T13:15:39Z</time></trkpt><trkpt lat="43.7929643994698" lon="11.533509675723542"><ele>748.0</ele><time>2026-05-03T13:15:40Z</time></trkpt><trkpt lat="43.792987471766395" lon="11.533746311040488"><ele>747.25</ele><time>2026-05-03T13:15:41Z</time></trkpt><trkpt lat="43.792967821235436" lon="11.533937626236451"><ele>746.5</ele><time>2026-05-03T13:15:42Z</time></trkpt><trkpt lat="43.792981442490074" lon="11.534102319490087"><ele>745.75</ele><time>2026-05-03T13:15:43Z</time></trkpt><trkpt lat="43.792997930702995" lon="11.53426826939382"><ele>745.0</ele><time>2026-05-03T13:15:44Z</time></trkpt><trkpt lat="43.793037337989674" lon="11.534432374316571"><ele>743.0</ele><time>2026-05-03T13:15:45Z</time></trkpt><trkpt lat="43.79308184514638" lon="11.53459673752537"><ele>741.0</ele><time>2026-05-03T13:15:46Z</time></trkpt><trkpt lat="43.79312157820875" lon="11.534762000993062"><ele>739.0</ele><time>2026-05-03T13:15:47Z</time></trkpt><trkpt lat="43.79316074586133" lon="11.534928905373212"><ele>737.0</ele><time>2026-05-03T13:15:48Z</time></trkpt><trkpt lat="43.793203347491946" lon="11.535093326500105"><ele>737.0</ele><time>2026-05-03T13:15:49Z</time></trkpt><trkpt lat="43.79324803656032" lon="11.53525864075569"><ele>737.0</ele><time>2026-05-03T13:15:50Z</time></trkpt><trkpt lat="43.79329299800347" lon="11.535415323744227"><ele>737.0</ele><time>2026-05-03T13:15:51Z</time></trkpt><trkpt lat="43.793346346666944" lon="11.535577672581324"><ele>737.0</ele><time>2026-05-03T13:15:52Z</time></trkpt><trkpt lat="43.793403160489" lon="11.535740763184506"><ele>735.5</ele><time>2026-05-03T13:15:53Z</time></trkpt><trkpt lat="43.79346162125707" lon="11.535907577028818"><ele>734.0</ele><time>2026-05-03T13:15:54Z</time></trkpt><trkpt lat="43.79351810170142" lon="11.536077603633885"><ele>732.5</ele><time>2026-05-03T13:15:55Z</time></trkpt><trkpt lat="43.79357792336204" lon="11.536253275703176"><ele>731.0</ele><time>2026-05-03T13:15:56Z</time></trkpt><trkpt lat="43.793639561886486" lon="11.53643132190182"><ele>732.0</ele><time>2026-05-03T13:15:57Z</time></trkpt><trkpt lat="43.79370234402274" lon="11.536609343638581"><ele>733.0</ele><time>2026-05-03T13:15:58Z</time></trkpt><trkpt lat="43.79376623542456" lon="11.53679168163903"><ele>734.0</ele><time>2026-05-03T13:15:59Z</time></trkpt><trkpt lat="43.793839909809165" lon="11.53696178294506"><ele>735.0</ele><time>2026-05-03T13:16:00Z</time></trkpt><trkpt lat="43.793911339662124" lon="11.537114918935478"><ele>735.0</ele><time>2026-05-03T13:16:01Z</time></trkpt><trkpt lat="43.793988410924186" lon="11.537245419562796"><ele>735.0</ele><time>2026-05-03T13:16:02Z</time></trkpt><trkpt lat="43.79407556702641" lon="11.537365375435975"><ele>735.0</ele><time>2026-05-03T13:16:03Z</time></trkpt><trkpt lat="43.79416518382741" lon="11.537473807102407"><ele>735.0</ele><time>2026-05-03T13:16:04Z</time></trkpt><trkpt lat="43.794247014215316" lon="11.537582252365203"><ele>735.0</ele><time>2026-05-03T13:16:05Z</time></trkpt><trkpt lat="43.79431421089369" lon="11.537680643088418"><ele>735.0</ele><time>2026-05-03T13:16:06Z</time></trkpt><trkpt lat="43.794375711151076" lon="11.537783865918907"><ele>735.0</ele><time>2026-05-03T13:16:07Z</time></trkpt><trkpt lat="43.79442890555778" lon="11.53790022914454"><ele>735.0</ele><time>2026-05-03T13:16:08Z</time></trkpt><trkpt lat="43.79445969605618" lon="11.538021836010728"><ele>735.0</ele><time>2026-05-03T13:16:09Z</time></trkpt><trkpt lat="43.79445911978065" lon="11.538146464662162"><ele>735.5</ele><time>2026-05-03T13:16:10Z</time></trkpt><trkpt lat="43.79443078982773" lon="11.538256061528518"><ele>736.0</ele><time>2026-05-03T13:16:11Z</time></trkpt><trkpt lat="43.79440207468657" lon="11.538362836441442"><ele>736.5</ele><time>2026-05-03T13:16:12Z</time></trkpt><trkpt lat="43.794386439726686" lon="11.53847476827184"><ele>737.0</ele><time>2026-05-03T13:16:13Z</time></trkpt><trkpt lat="43.79438630032461" lon="11.538590640126458"><ele>737.5</ele><time>2026-05-03T13:16:14Z</time></trkpt><trkpt lat="43.79440894283212" lon="11.538701835630567"><ele>738.0</ele><time>2026-05-03T13:16:15Z</time></trkpt><trkpt lat="43.79445181697658" lon="11.538805201410057"><ele>738.0</ele><time>2026-05-03T13:16:16Z</time></trkpt><trkpt lat="43.79451520260746" lon="11.538895087257814"><ele>738.0</ele><time>2026-05-03T13:16:17Z</time></trkpt><trkpt lat="43.79459221353299" lon="11.538954343253415"><ele>738.0</ele><time>2026-05-03T13:16:18Z</time></trkpt><trkpt lat="43.79467114516185" lon="11.53901146584053"><ele>738.0</ele><time>2026-05-03T13:16:19Z</time></trkpt><trkpt lat="43.79474830091078" lon="11.539073264428941"><ele>738.0</ele><time>2026-05-03T13:16:20Z</time></trkpt><trkpt lat="43.79481975937069" lon="11.539135811286645"><ele>738.0</ele><time>2026-05-03T13:16:21Z</time></trkpt><trkpt lat="43.79489219480961" lon="11.539196174746722"><ele>738.0</ele><time>2026-05-03T13:16:22Z</time></trkpt><trkpt lat="43.794963677422125" lon="11.539248197990874"><ele>738.0</ele><time>2026-05-03T13:16:23Z</time></trkpt><trkpt lat="43.79502710930805" lon="11.539296582271955"><ele>738.0</ele><time>2026-05-03T13:16:24Z</time></trkpt><trkpt lat="43.795084102878434" lon="11.539348162280097"><ele>738.0</ele><time>2026-05-03T13:16:25Z</time></trkpt><trkpt lat="43.79513532342417" lon="11.53940903926448"><ele>738.0</ele><time>2026-05-03T13:16:26Z</time></trkpt><trkpt lat="43.79521450669384" lon="11.539528847069489"><ele>738.0</ele><time>2026-05-03T13:16:28Z</time></trkpt><trkpt lat="43.79525516038547" lon="11.539659294540037"><ele>737.0</ele><time>2026-05-03T13:16:30Z</time></trkpt><trkpt lat="43.79528424520958" lon="11.539760202195405"><ele>736.0</ele><time>2026-05-03T13:16:32Z</time></trkpt><trkpt lat="43.79533084617923" lon="11.539939894794347"><ele>735.0</ele><time>2026-05-03T13:16:34Z</time></trkpt><trkpt lat="43.79533200663072" lon="11.540086181127128"><ele>734.0</ele><time>2026-05-03T13:16:35Z</time></trkpt><trkpt lat="43.795313823368815" lon="11.540264789680517"><ele>735.5</ele><time>2026-05-03T13:16:36Z</time></trkpt><trkpt lat="43.79528886819144" lon="11.540454788157"><ele>737.0</ele><time>2026-05-03T13:16:37Z</time></trkpt><trkpt lat="43.79526705831222" lon="11.540622111182282"><ele>738.5</ele><time>2026-05-03T13:16:38Z</time></trkpt><trkpt lat="43.7952544440738" lon="11.540760232952344"><ele>740.0</ele><time>2026-05-03T13:16:39Z</time></trkpt><trkpt lat="43.79524340377018" lon="11.540898567376951"><ele>740.0</ele><time>2026-05-03T13:16:40Z</time></trkpt><trkpt lat="43.79523529536569" lon="11.541058123392459"><ele>740.0</ele><time>2026-05-03T13:16:41Z</time></trkpt><trkpt lat="43.79523477641931" lon="11.541240233982275"><ele>740.0</ele><time>2026-05-03T13:16:42Z</time></trkpt><trkpt lat="43.795249570541486" lon="11.54143247397041"><ele>740.0</ele><time>2026-05-03T13:16:43Z</time></trkpt><trkpt lat="43.79527436363421" lon="11.541641745379575"><ele>742.0</ele><time>2026-05-03T13:16:44Z</time></trkpt><trkpt lat="43.79530300607312" lon="11.541861708282163"><ele>744.0</ele><time>2026-05-03T13:16:45Z</time></trkpt><trkpt lat="43.79533329482473" lon="11.542091925219975"><ele>746.0</ele><time>2026-05-03T13:16:46Z</time></trkpt><trkpt lat="43.795354007945235" lon="11.542334348170703"><ele>746.6666666666666</ele><time>2026-05-03T13:16:47Z</time></trkpt><trkpt lat="43.795366861998374" lon="11.54257952799325"><ele>747.3333333333334</ele><time>2026-05-03T13:16:48Z</time></trkpt><trkpt lat="43.795335092909696" lon="11.542840801427207"><ele>748.0</ele><time>2026-05-03T13:16:49Z</time></trkpt><trkpt lat="43.795285373206156" lon="11.543125213192289"><ele>745.5</ele><time>2026-05-03T13:16:50Z</time></trkpt><trkpt lat="43.79523506697579" lon="11.543433022272081"><ele>743.0</ele><time>2026-05-03T13:16:51Z</time></trkpt><trkpt lat="43.79517859694341" lon="11.54377035920918"><ele>757.5</ele><time>2026-05-03T13:16:52Z</time></trkpt><trkpt lat="43.79512229515657" lon="11.544131774814755"><ele>772.0</ele><time>2026-05-03T13:16:53Z</time></trkpt><trkpt lat="43.79506928374451" lon="11.544473724284119"><ele>771.3333333333333</ele><time>2026-05-03T13:16:54Z</time></trkpt><trkpt lat="43.79502540066675" lon="11.544761792195054"><ele>770.6666666666667</ele><time>2026-05-03T13:16:55Z</time></trkpt><trkpt lat="43.79497307251351" lon="11.545004789567935"><ele>770.0</ele><time>2026-05-03T13:16:56Z</time></trkpt><trkpt lat="43.79488985948722" lon="11.545252862515841"><ele>768.6666666666667</ele><time>2026-05-03T13:16:57Z</time></trkpt><trkpt lat="43.794797267607876" lon="11.545499933073923"><ele>767.3333333333334</ele><time>2026-05-03T13:16:58Z</time></trkpt><trkpt lat="43.794723606382504" lon="11.545767902968967"><ele>766.0</ele><time>2026-05-03T13:16:59Z</time></trkpt><trkpt lat="43.794679811579805" lon="11.546056099338985"><ele>766.6666666666667</ele><time>2026-05-03T13:17:00Z</time></trkpt><trkpt lat="43.79465483632901" lon="11.546352074959174"><ele>767.3333333333334</ele><time>2026-05-03T13:17:01Z</time></trkpt><trkpt lat="43.794659285699176" lon="11.54661969502284"><ele>768.0</ele><time>2026-05-03T13:17:02Z</time></trkpt><trkpt lat="43.79468204382947" lon="11.546851916157296"><ele>767.25</ele><time>2026-05-03T13:17:03Z</time></trkpt><trkpt lat="43.79468653509166" lon="11.547061041020273"><ele>766.5</ele><time>2026-05-03T13:17:04Z</time></trkpt><trkpt lat="43.79463444739774" lon="11.54723404725747"><ele>765.75</ele><time>2026-05-03T13:17:05Z</time></trkpt><trkpt lat="43.794522143695076" lon="11.547356902704115"><ele>765.0</ele><time>2026-05-03T13:17:06Z</time></trkpt><trkpt lat="43.794362941585234" lon="11.547389067417727"><ele>770.0</ele><time>2026-05-03T13:17:07Z</time></trkpt><trkpt lat="43.79418651566277" lon="11.547392653442445"><ele>775.0</ele><time>2026-05-03T13:17:08Z</time></trkpt><trkpt lat="43.79398652647868" lon="11.547397094300187"><ele>780.0</ele><time>2026-05-03T13:17:09Z</time></trkpt><trkpt lat="43.793772965748694" lon="11.547393637120553"><ele>780.0</ele><time>2026-05-03T13:17:10Z</time></trkpt><trkpt lat="43.79358078857417" lon="11.547406191941013"><ele>780.0</ele><time>2026-05-03T13:17:11Z</time></trkpt><trkpt lat="43.79341402778661" lon="11.54744433227379"><ele>780.0</ele><time>2026-05-03T13:17:12Z</time></trkpt><trkpt lat="43.79326102164052" lon="11.547535502935663"><ele>779.0</ele><time>2026-05-03T13:17:13Z</time></trkpt><trkpt lat="43.793128173588755" lon="11.547705340158691"><ele>778.0</ele><time>2026-05-03T13:17:14Z</time></trkpt><trkpt lat="43.79303344398513" lon="11.547918634613493"><ele>777.0</ele><time>2026-05-03T13:17:15Z</time></trkpt><trkpt lat="43.7929907948398" lon="11.548174612285234"><ele>777.0</ele><time>2026-05-03T13:17:16Z</time></trkpt><trkpt lat="43.79298076616553" lon="11.54846449904805"><ele>777.0</ele><time>2026-05-03T13:17:17Z</time></trkpt><trkpt lat="43.79297824871869" lon="11.548793073784905"><ele>777.0</ele><time>2026-05-03T13:17:18Z</time></trkpt><trkpt lat="43.792960016413986" lon="11.549144263331632"><ele>777.0</ele><time>2026-05-03T13:17:19Z</time></trkpt><trkpt lat="43.79294226155192" lon="11.54951420866004"><ele>777.0</ele><time>2026-05-03T13:17:20Z</time></trkpt><trkpt lat="43.792930921351505" lon="11.549900033682963"><ele>778.5</ele><time>2026-05-03T13:17:21Z</time></trkpt><trkpt lat="43.79291311107237" lon="11.550292052496966"><ele>780.0</ele><time>2026-05-03T13:17:22Z</time></trkpt><trkpt lat="43.79291167652687" lon="11.550695289010875"><ele>783.5</ele><time>2026-05-03T13:17:23Z</time></trkpt><trkpt lat="43.79294279641775" lon="11.551103436058334"><ele>787.0</ele><time>2026-05-03T13:17:24Z</time></trkpt><trkpt lat="43.79298960198043" lon="11.551522671259468"><ele>789.0</ele><time>2026-05-03T13:17:25Z</time></trkpt><trkpt lat="43.79303724323279" lon="11.551930746746859"><ele>791.0</ele><time>2026-05-03T13:17:26Z</time></trkpt><trkpt lat="43.79307099409173" lon="11.552272692241427"><ele>794.0</ele><time>2026-05-03T13:17:27Z</time></trkpt><trkpt lat="43.79309930541994" lon="11.55253906380857"><ele>797.0</ele><time>2026-05-03T13:17:28Z</time></trkpt><trkpt lat="43.793118278085494" lon="11.552761676856088"><ele>800.0</ele><time>2026-05-03T13:17:29Z</time></trkpt><trkpt lat="43.79310417934461" lon="11.552954640409043"><ele>800.5</ele><time>2026-05-03T13:17:30Z</time></trkpt><trkpt lat="43.79303394658643" lon="11.553114948750173"><ele>801.0</ele><time>2026-05-03T13:17:31Z</time></trkpt><trkpt lat="43.79293572597747" lon="11.553265103343675"><ele>801.5</ele><time>2026-05-03T13:17:32Z</time></trkpt><trkpt lat="43.79282996456775" lon="11.553392751323834"><ele>802.0</ele><time>2026-05-03T13:17:33Z</time></trkpt><trkpt lat="43.792733309256654" lon="11.553518388545024"><ele>803.75</ele><time>2026-05-03T13:17:34Z</time></trkpt><trkpt lat="43.79264981867172" lon="11.553649782412405"><ele>805.5</ele><time>2026-05-03T13:17:35Z</time></trkpt><trkpt lat="43.79257252322308" lon="11.553791076256077"><ele>807.25</ele><time>2026-05-03T13:17:36Z</time></trkpt><trkpt lat="43.79249740267851" lon="11.553941498533515"><ele>809.0</ele><time>2026-05-03T13:17:37Z</time></trkpt><trkpt lat="43.79242443916599" lon="11.554086544837425"><ele>809.0</ele><time>2026-05-03T13:17:38Z</time></trkpt><trkpt lat="43.79234771686092" lon="11.554222099372906"><ele>809.0</ele><time>2026-05-03T13:17:39Z</time></trkpt><trkpt lat="43.7922677756516" lon="11.554358579329946"><ele>809.0</ele><time>2026-05-03T13:17:40Z</time></trkpt><trkpt lat="43.792176051642805" lon="11.554495291000745"><ele>809.0</ele><time>2026-05-03T13:17:41Z</time></trkpt><trkpt lat="43.792077805410294" lon="11.554608719383126"><ele>807.75</ele><time>2026-05-03T13:17:42Z</time></trkpt><trkpt lat="43.791980198289366" lon="11.554699020210661"><ele>806.5</ele><time>2026-05-03T13:17:43Z</time></trkpt><trkpt lat="43.791878064061585" lon="11.554787607283126"><ele>805.25</ele><time>2026-05-03T13:17:44Z</time></trkpt><trkpt lat="43.79178509396368" lon="11.554888336682462"><ele>804.0</ele><time>2026-05-03T13:17:45Z</time></trkpt><trkpt lat="43.791707958806505" lon="11.555004405260757"><ele>808.5</ele><time>2026-05-03T13:17:46Z</time></trkpt><trkpt lat="43.79165430570114" lon="11.555136017579082"><ele>813.0</ele><time>2026-05-03T13:17:47Z</time></trkpt><trkpt lat="43.79163023567531" lon="11.555288307511585"><ele>817.5</ele><time>2026-05-03T13:17:48Z</time></trkpt><trkpt lat="43.7916387424688" lon="11.555447308275046"><ele>822.0</ele><time>2026-05-03T13:17:49Z</time></trkpt><trkpt lat="43.791681714808945" lon="11.555604210264955"><ele>824.0</ele><time>2026-05-03T13:17:50Z</time></trkpt><trkpt lat="43.79175388346835" lon="11.555736815887505"><ele>826.0</ele><time>2026-05-03T13:17:51Z</time></trkpt><trkpt lat="43.79184383473076" lon="11.555851888208197"><ele>828.0</ele><time>2026-05-03T13:17:52Z</time></trkpt><trkpt lat="43.79193567747623" lon="11.555961716093364"><ele>830.0</ele><time>2026-05-03T13:17:53Z</time></trkpt><trkpt lat="43.79201539048826" lon="11.556057843970201"><ele>824.6</ele><time>2026-05-03T13:17:54Z</time></trkpt><trkpt lat="43.79208392914541" lon="11.556154298529629"><ele>819.2</ele><time>2026-05-03T13:17:55Z</time></trkpt><trkpt lat="43.79213463235415" lon="11.556270287814174"><ele>813.8</ele><time>2026-05-03T13:17:56Z</time></trkpt><trkpt lat="43.792163255821734" lon="11.556405897456765"><ele>808.4</ele><time>2026-05-03T13:17:57Z</time></trkpt><trkpt lat="43.79216110808529" lon="11.556551774017034"><ele>803.0</ele><time>2026-05-03T13:17:58Z</time></trkpt><trkpt lat="43.79211847654128" lon="11.556686133194574"><ele>803.0</ele><time>2026-05-03T13:17:59Z</time></trkpt><trkpt lat="43.792058824353646" lon="11.556785777159842"><ele>803.0</ele><time>2026-05-03T13:18:00Z</time></trkpt><trkpt lat="43.791979816547894" lon="11.556861279165393"><ele>803.0</ele><time>2026-05-03T13:18:01Z</time></trkpt><trkpt lat="43.79189352668354" lon="11.55692125941781"><ele>803.0</ele><time>2026-05-03T13:18:02Z</time></trkpt><trkpt lat="43.791808110660696" lon="11.556980975039323"><ele>803.0</ele><time>2026-05-03T13:18:03Z</time></trkpt><trkpt lat="43.791741119535736" lon="11.557051209269346"><ele>809.0</ele><time>2026-05-03T13:18:04Z</time></trkpt><trkpt lat="43.79168960655702" lon="11.557149582948648"><ele>815.0</ele><time>2026-05-03T13:18:05Z</time></trkpt><trkpt lat="43.79167400742923" lon="11.557277950504789"><ele>821.0</ele><time>2026-05-03T13:18:06Z</time></trkpt><trkpt lat="43.791698825392594" lon="11.557412868681473"><ele>827.0</ele><time>2026-05-03T13:18:07Z</time></trkpt><trkpt lat="43.79173193716355" lon="11.557552764250527"><ele>833.0</ele><time>2026-05-03T13:18:08Z</time></trkpt><trkpt lat="43.79174786903193" lon="11.557699822089411"><ele>833.0</ele><time>2026-05-03T13:18:09Z</time></trkpt><trkpt lat="43.791706229536715" lon="11.557827347933031"><ele>833.0</ele><time>2026-05-03T13:18:10Z</time></trkpt><trkpt lat="43.79166074338229" lon="11.55792875425849"><ele>833.0</ele><time>2026-05-03T13:18:11Z</time></trkpt><trkpt lat="43.79158873129451" lon="11.558005210525533"><ele>833.0</ele><time>2026-05-03T13:18:12Z</time></trkpt><trkpt lat="43.7914247127918" lon="11.558151536675643"><ele>830.0</ele><time>2026-05-03T13:18:13Z</time></trkpt><trkpt lat="43.791248049861004" lon="11.558288968007346"><ele>827.0</ele><time>2026-05-03T13:18:14Z</time></trkpt><trkpt lat="43.791052872446784" lon="11.55847003087766"><ele>824.0</ele><time>2026-05-03T13:18:15Z</time></trkpt><trkpt lat="43.79085282624654" lon="11.558638409683143"><ele>827.0</ele><time>2026-05-03T13:18:16Z</time></trkpt><trkpt lat="43.79070141654036" lon="11.558847959703675"><ele>830.0</ele><time>2026-05-03T13:18:17Z</time></trkpt><trkpt lat="43.790585099166556" lon="11.559062919899242"><ele>833.0</ele><time>2026-05-03T13:18:18Z</time></trkpt><trkpt lat="43.79049718195517" lon="11.559365632577077"><ele>835.5</ele><time>2026-05-03T13:18:19Z</time></trkpt><trkpt lat="43.7904410274135" lon="11.559632468708408"><ele>838.0</ele><time>2026-05-03T13:18:20Z</time></trkpt><trkpt lat="43.79043366280196" lon="11.560112056547785"><ele>842.0</ele><time>2026-05-03T13:18:21Z</time></trkpt><trkpt lat="43.790362939035305" lon="11.560423197792286"><ele>846.0</ele><time>2026-05-03T13:18:22Z</time></trkpt><trkpt lat="43.79026827265909" lon="11.560682279759652"><ele>850.0</ele><time>2026-05-03T13:18:23Z</time></trkpt><trkpt lat="43.79018456819448" lon="11.56090556513561"><ele>844.6666666666666</ele><time>2026-05-03T13:18:24Z</time></trkpt><trkpt lat="43.79007789845186" lon="11.561152497691554"><ele>839.3333333333333</ele><time>2026-05-03T13:18:25Z</time></trkpt><trkpt lat="43.790009448373205" lon="11.561456744710469"><ele>834.0</ele><time>2026-05-03T13:18:26Z</time></trkpt><trkpt lat="43.789980107486606" lon="11.561759616291607"><ele>833.0</ele><time>2026-05-03T13:18:27Z</time></trkpt><trkpt lat="43.7899937541242" lon="11.562048832741995"><ele>832.0</ele><time>2026-05-03T13:18:28Z</time></trkpt><trkpt lat="43.790047229276254" lon="11.562310812784768"><ele>831.0</ele><time>2026-05-03T13:18:29Z</time></trkpt><trkpt lat="43.79011349331189" lon="11.56256702170192"><ele>831.0</ele><time>2026-05-03T13:18:30Z</time></trkpt><trkpt lat="43.79014617147234" lon="11.562779160197769"><ele>831.0</ele><time>2026-05-03T13:18:31Z</time></trkpt><trkpt lat="43.79014553763238" lon="11.562990465719917"><ele>831.0</ele><time>2026-05-03T13:18:32Z</time></trkpt><trkpt lat="43.79014878939268" lon="11.563132545779508"><ele>831.0</ele><time>2026-05-03T13:18:33Z</time></trkpt><trkpt lat="43.79015251278383" lon="11.563305709211408"><ele>831.0</ele><time>2026-05-03T13:18:34Z</time></trkpt><trkpt lat="43.79014294925748" lon="11.563502379534281"><ele>831.0</ele><time>2026-05-03T13:18:35Z</time></trkpt><trkpt lat="43.79012330323189" lon="11.563681808551928"><ele>831.0</ele><time>2026-05-03T13:18:36Z</time></trkpt><trkpt lat="43.79009874691491" lon="11.56385566766083"><ele>831.0</ele><time>2026-05-03T13:18:37Z</time></trkpt><trkpt lat="43.79006754758351" lon="11.564028298802752"><ele>832.3333333333333</ele><time>2026-05-03T13:18:38Z</time></trkpt><trkpt lat="43.79003273887061" lon="11.564214482388962"><ele>833.6666666666666</ele><time>2026-05-03T13:18:39Z</time></trkpt><trkpt lat="43.78999593652844" lon="11.564442927372768"><ele>835.0</ele><time>2026-05-03T13:18:40Z</time></trkpt><trkpt lat="43.789930128850244" lon="11.564693670063676"><ele>838.0</ele><time>2026-05-03T13:18:41Z</time></trkpt><trkpt lat="43.78987429190465" lon="11.564983887711644"><ele>841.0</ele><time>2026-05-03T13:18:42Z</time></trkpt><trkpt lat="43.789814494765665" lon="11.565250784025409"><ele>844.0</ele><time>2026-05-03T13:18:43Z</time></trkpt><trkpt lat="43.78970514304868" lon="11.565411933153454"><ele>844.3333333333333</ele><time>2026-05-03T13:18:44Z</time></trkpt><trkpt lat="43.789582143932726" lon="11.565552256162077"><ele>844.6666666666667</ele><time>2026-05-03T13:18:45Z</time></trkpt><trkpt lat="43.78945418457786" lon="11.56569953668811"><ele>845.0</ele><time>2026-05-03T13:18:46Z</time></trkpt><trkpt lat="43.78932057232223" lon="11.565845573929805"><ele>845.0</ele><time>2026-05-03T13:18:47Z</time></trkpt><trkpt lat="43.78919816360757" lon="11.566004390182558"><ele>845.0</ele><time>2026-05-03T13:18:48Z</time></trkpt><trkpt lat="43.789089177420564" lon="11.566170276012361"><ele>845.0</ele><time>2026-05-03T13:18:49Z</time></trkpt><trkpt lat="43.78899473548799" lon="11.566345010956908"><ele>849.0</ele><time>2026-05-03T13:18:50Z</time></trkpt><trkpt lat="43.78892438548049" lon="11.566523728372557"><ele>853.0</ele><time>2026-05-03T13:18:51Z</time></trkpt><trkpt lat="43.788869576204796" lon="11.566710556756957"><ele>857.0</ele><time>2026-05-03T13:18:52Z</time></trkpt><trkpt lat="43.78881121705062" lon="11.566904153021287"><ele>861.0</ele><time>2026-05-03T13:18:53Z</time></trkpt><trkpt lat="43.78873990479595" lon="11.567079163464129"><ele>858.75</ele><time>2026-05-03T13:18:54Z</time></trkpt><trkpt lat="43.78865195499142" lon="11.567242306017322"><ele>856.5</ele><time>2026-05-03T13:18:55Z</time></trkpt><trkpt lat="43.788551223356876" lon="11.567390074093169"><ele>854.25</ele><time>2026-05-03T13:18:56Z</time></trkpt><trkpt lat="43.788436993396665" lon="11.567525301416843"><ele>852.0</ele><time>2026-05-03T13:18:57Z</time></trkpt><trkpt lat="43.788336170948014" lon="11.567648827653098"><ele>852.0</ele><time>2026-05-03T13:18:58Z</time></trkpt><trkpt lat="43.788253113687894" lon="11.56777514552141"><ele>852.0</ele><time>2026-05-03T13:18:59Z</time></trkpt><trkpt lat="43.788195660709164" lon="11.567908792561681"><ele>852.0</ele><time>2026-05-03T13:19:00Z</time></trkpt><trkpt lat="43.78817595609659" lon="11.568063785670676"><ele>852.0</ele><time>2026-05-03T13:19:01Z</time></trkpt><trkpt lat="43.78819155423687" lon="11.568258128261425"><ele>857.0</ele><time>2026-05-03T13:19:02Z</time></trkpt><trkpt lat="43.78820540401435" lon="11.568485093741627"><ele>862.0</ele><time>2026-05-03T13:19:03Z</time></trkpt><trkpt lat="43.78818204388682" lon="11.568784275003859"><ele>867.0</ele><time>2026-05-03T13:19:04Z</time></trkpt><trkpt lat="43.788132994416706" lon="11.569106147012112"><ele>870.3333333333333</ele><time>2026-05-03T13:19:05Z</time></trkpt><trkpt lat="43.78807818532469" lon="11.569428482725488"><ele>873.6666666666666</ele><time>2026-05-03T13:19:06Z</time></trkpt><trkpt lat="43.78803167131093" lon="11.569702481423562"><ele>877.0</ele><time>2026-05-03T13:19:07Z</time></trkpt><trkpt lat="43.78800360922402" lon="11.569890959375082"><ele>879.75</ele><time>2026-05-03T13:19:08Z</time></trkpt><trkpt lat="43.78798361531899" lon="11.570036164968476"><ele>882.5</ele><time>2026-05-03T13:19:09Z</time></trkpt><trkpt lat="43.78794470739316" lon="11.570183819439913"><ele>885.25</ele><time>2026-05-03T13:19:10Z</time></trkpt><trkpt lat="43.787867819512066" lon="11.570312615992416"><ele>888.0</ele><time>2026-05-03T13:19:11Z</time></trkpt><trkpt lat="43.78777042529516" lon="11.570410817799647"><ele>884.0</ele><time>2026-05-03T13:19:12Z</time></trkpt><trkpt lat="43.78767454767216" lon="11.570512472586152"><ele>880.0</ele><time>2026-05-03T13:19:13Z</time></trkpt><trkpt lat="43.787589450818814" lon="11.57063960519086"><ele>876.0</ele><time>2026-05-03T13:19:14Z</time></trkpt><trkpt lat="43.78752352412031" lon="11.57082665946477"><ele>872.0</ele><time>2026-05-03T13:19:15Z</time></trkpt><trkpt lat="43.78745647717379" lon="11.571079983279214"><ele>877.5</ele><time>2026-05-03T13:19:16Z</time></trkpt><trkpt lat="43.78736451163966" lon="11.571349655622146"><ele>883.0</ele><time>2026-05-03T13:19:17Z</time></trkpt><trkpt lat="43.78729077943978" lon="11.571658687648718"><ele>883.0</ele><time>2026-05-03T13:19:18Z</time></trkpt><trkpt lat="43.78723994429795" lon="11.57199922265334"><ele>883.0</ele><time>2026-05-03T13:19:19Z</time></trkpt><trkpt lat="43.78719588793424" lon="11.572358194284842"><ele>885.0</ele><time>2026-05-03T13:19:20Z</time></trkpt><trkpt lat="43.787161110841915" lon="11.572679183432133"><ele>887.0</ele><time>2026-05-03T13:19:21Z</time></trkpt><trkpt lat="43.787123410856665" lon="11.57293183837775"><ele>889.0</ele><time>2026-05-03T13:19:22Z</time></trkpt><trkpt lat="43.787057246037236" lon="11.573116974441811"><ele>889.3333333333333</ele><time>2026-05-03T13:19:23Z</time></trkpt><trkpt lat="43.78692670345127" lon="11.573251855121194"><ele>889.6666666666667</ele><time>2026-05-03T13:19:24Z</time></trkpt><trkpt lat="43.78678395316121" lon="11.573433404333816"><ele>890.0</ele><time>2026-05-03T13:19:25Z</time></trkpt><trkpt lat="43.786629188069035" lon="11.573639915799152"><ele>895.5</ele><time>2026-05-03T13:19:26Z</time></trkpt><trkpt lat="43.78649790615806" lon="11.5739070101094"><ele>901.0</ele><time>2026-05-03T13:19:27Z</time></trkpt><trkpt lat="43.78637533407788" lon="11.574209781729428"><ele>901.0</ele><time>2026-05-03T13:19:28Z</time></trkpt><trkpt lat="43.78624171757081" lon="11.574508975218652"><ele>901.0</ele><time>2026-05-03T13:19:29Z</time></trkpt><trkpt lat="43.78608823698318" lon="11.574747413725694"><ele>902.3333333333333</ele><time>2026-05-03T13:19:30Z</time></trkpt><trkpt lat="43.785895893522714" lon="11.574910410987052"><ele>903.6666666666667</ele><time>2026-05-03T13:19:31Z</time></trkpt><trkpt lat="43.78571958682517" lon="11.575100330774303"><ele>905.0</ele><time>2026-05-03T13:19:32Z</time></trkpt><trkpt lat="43.78557562148191" lon="11.575323761813916"><ele>909.3333333333334</ele><time>2026-05-03T13:19:33Z</time></trkpt><trkpt lat="43.785469714221485" lon="11.575600171695134"><ele>913.6666666666667</ele><time>2026-05-03T13:19:34Z</time></trkpt><trkpt lat="43.78540115564895" lon="11.575878998796641"><ele>918.0</ele><time>2026-05-03T13:19:35Z</time></trkpt><trkpt lat="43.78537408078244" lon="11.576185798781797"><ele>922.0</ele><time>2026-05-03T13:19:36Z</time></trkpt><trkpt lat="43.7853615072328" lon="11.576514408128357"><ele>926.0</ele><time>2026-05-03T13:19:37Z</time></trkpt><trkpt lat="43.785314254533425" lon="11.57684569076716"><ele>925.0</ele><time>2026-05-03T13:19:38Z</time></trkpt><trkpt lat="43.785216780574906" lon="11.577177792597832"><ele>924.0</ele><time>2026-05-03T13:19:39Z</time></trkpt><trkpt lat="43.785119517201544" lon="11.57751110779143"><ele>924.0</ele><time>2026-05-03T13:19:40Z</time></trkpt><trkpt lat="43.78504411105933" lon="11.577838947778083"><ele>924.0</ele><time>2026-05-03T13:19:41Z</time></trkpt><trkpt lat="43.784999133776985" lon="11.578108409067065"><ele>924.0</ele><time>2026-05-03T13:19:42Z</time></trkpt><trkpt lat="43.784924298850235" lon="11.578280228038048"><ele>929.6666666666667</ele><time>2026-05-03T13:19:43Z</time></trkpt><trkpt lat="43.784811587261494" lon="11.578395052228593"><ele>935.3333333333334</ele><time>2026-05-03T13:19:44Z</time></trkpt><trkpt lat="43.78465877606361" lon="11.578467042448997"><ele>941.0</ele><time>2026-05-03T13:19:45Z</time></trkpt><trkpt lat="43.78446315447133" lon="11.578536792622796"><ele>944.0</ele><time>2026-05-03T13:19:46Z</time></trkpt><trkpt lat="43.78427936918752" lon="11.578565226802276"><ele>947.0</ele><time>2026-05-03T13:19:47Z</time></trkpt><trkpt lat="43.78411984715295" lon="11.578680815488202"><ele>950.0</ele><time>2026-05-03T13:19:48Z</time></trkpt><trkpt lat="43.78397686095359" lon="11.578859866415653"><ele>950.0</ele><time>2026-05-03T13:19:49Z</time></trkpt><trkpt lat="43.78386967927873" lon="11.57909460183086"><ele>950.0</ele><time>2026-05-03T13:19:50Z</time></trkpt><trkpt lat="43.78381910449007" lon="11.579316031257974"><ele>950.0</ele><time>2026-05-03T13:19:51Z</time></trkpt><trkpt lat="43.78378491924801" lon="11.57948896046518"><ele>952.25</ele><time>2026-05-03T13:19:52Z</time></trkpt><trkpt lat="43.783707655119436" lon="11.57957686542296"><ele>954.5</ele><time>2026-05-03T13:19:53Z</time></trkpt><trkpt lat="43.78357216254026" lon="11.579601460506115"><ele>956.75</ele><time>2026-05-03T13:19:54Z</time></trkpt><trkpt lat="43.78340509824376" lon="11.579662476493091"><ele>959.0</ele><time>2026-05-03T13:19:55Z</time></trkpt><trkpt lat="43.783237025246514" lon="11.579776610208206"><ele>959.0</ele><time>2026-05-03T13:19:56Z</time></trkpt><trkpt lat="43.7830719739383" lon="11.5799250920061"><ele>959.0</ele><time>2026-05-03T13:19:57Z</time></trkpt><trkpt lat="43.78294301731757" lon="11.580053743881148"><ele>959.0</ele><time>2026-05-03T13:19:58Z</time></trkpt><trkpt lat="43.78286144595662" lon="11.580288438994717"><ele>958.3333333333334</ele><time>2026-05-03T13:19:59Z</time></trkpt><trkpt lat="43.782807301943095" lon="11.580560357476042"><ele>957.6666666666667</ele><time>2026-05-03T13:20:00Z</time></trkpt><trkpt lat="43.78269800346792" lon="11.580831935463626"><ele>957.0</ele><time>2026-05-03T13:20:01Z</time></trkpt><trkpt lat="43.78257683663901" lon="11.581045405202207"><ele>964.3333333333333</ele><time>2026-05-03T13:20:02Z</time></trkpt><trkpt lat="43.78244033473971" lon="11.581304277868323"><ele>971.6666666666666</ele><time>2026-05-03T13:20:03Z</time></trkpt><trkpt lat="43.78229988733042" lon="11.581529523819187"><ele>979.0</ele><time>2026-05-03T13:20:04Z</time></trkpt><trkpt lat="43.78211807455868" lon="11.581657525938938"><ele>979.0</ele><time>2026-05-03T13:20:05Z</time></trkpt><trkpt lat="43.781908957771336" lon="11.581791454086257"><ele>979.0</ele><time>2026-05-03T13:20:06Z</time></trkpt><trkpt lat="43.781697093618334" lon="11.581879899978192"><ele>981.5</ele><time>2026-05-03T13:20:07Z</time></trkpt><trkpt lat="43.78153723342098" lon="11.581948147838938"><ele>984.0</ele><time>2026-05-03T13:20:08Z</time></trkpt><trkpt lat="43.781413584116606" lon="11.581999463665344"><ele>986.5</ele><time>2026-05-03T13:20:09Z</time></trkpt><trkpt lat="43.78133747737685" lon="11.582132759713302"><ele>989.0</ele><time>2026-05-03T13:20:10Z</time></trkpt><trkpt lat="43.78130721619" lon="11.582335199452162"><ele>989.0</ele><time>2026-05-03T13:20:11Z</time></trkpt><trkpt lat="43.781309233697534" lon="11.5825985667642"><ele>989.0</ele><time>2026-05-03T13:20:12Z</time></trkpt><trkpt lat="43.78130914600649" lon="11.582880605280542"><ele>989.0</ele><time>2026-05-03T13:20:13Z</time></trkpt><trkpt lat="43.78128943182026" lon="11.583160095860302"><ele>987.25</ele><time>2026-05-03T13:20:14Z</time></trkpt><trkpt lat="43.781270623839866" lon="11.583361008645568"><ele>985.5</ele><time>2026-05-03T13:20:15Z</time></trkpt><trkpt lat="43.78121849933541" lon="11.583489777093204"><ele>983.75</ele><time>2026-05-03T13:20:16Z</time></trkpt><trkpt lat="43.78111208260859" lon="11.583507563269558"><ele>982.0</ele><time>2026-05-03T13:20:17Z</time></trkpt><trkpt lat="43.7809956068139" lon="11.583537370257492"><ele>982.0</ele><time>2026-05-03T13:20:18Z</time></trkpt><trkpt lat="43.780875130167246" lon="11.583587240318547"><ele>982.0</ele><time>2026-05-03T13:20:19Z</time></trkpt><trkpt lat="43.780801763548816" lon="11.583728564145508"><ele>982.0</ele><time>2026-05-03T13:20:20Z</time></trkpt><trkpt lat="43.78078763925219" lon="11.583931196064631"><ele>982.0</ele><time>2026-05-03T13:20:21Z</time></trkpt><trkpt lat="43.78079871024845" lon="11.584164587745407"><ele>986.3333333333333</ele><time>2026-05-03T13:20:22Z</time></trkpt><trkpt lat="43.780756573969484" lon="11.584381785553598"><ele>990.6666666666667</ele><time>2026-05-03T13:20:23Z</time></trkpt><trkpt lat="43.78061354734247" lon="11.584504883768236"><ele>995.0</ele><time>2026-05-03T13:20:24Z</time></trkpt><trkpt lat="43.7804677839069" lon="11.58471653367515"><ele>1001.5</ele><time>2026-05-03T13:20:25Z</time></trkpt><trkpt lat="43.780294333900045" lon="11.584916201905124"><ele>1008.0</ele><time>2026-05-03T13:20:26Z</time></trkpt><trkpt lat="43.78014451921215" lon="11.58516160743884"><ele>1008.6666666666667</ele><time>2026-05-03T13:20:27Z</time></trkpt><trkpt lat="43.77998569899637" lon="11.58532913355197"><ele>1009.3333333333334</ele><time>2026-05-03T13:20:28Z</time></trkpt><trkpt lat="43.77983553335044" lon="11.58541702581297"><ele>1010.0</ele><time>2026-05-03T13:20:29Z</time></trkpt><trkpt lat="43.779709853853305" lon="11.58549466673932"><ele>1012.0</ele><time>2026-05-03T13:20:30Z</time></trkpt><trkpt lat="43.779611408425595" lon="11.585554549940587"><ele>1014.0</ele><time>2026-05-03T13:20:31Z</time></trkpt><trkpt lat="43.77954701665303" lon="11.585671055995885"><ele>1016.0</ele><time>2026-05-03T13:20:32Z</time></trkpt><trkpt lat="43.77955281513152" lon="11.585887654270755"><ele>1018.0</ele><time>2026-05-03T13:20:33Z</time></trkpt><trkpt lat="43.779560364307976" lon="11.586119013959257"><ele>1017.75</ele><time>2026-05-03T13:20:34Z</time></trkpt><trkpt lat="43.77950476123272" lon="11.586306103243123"><ele>1017.5</ele><time>2026-05-03T13:20:35Z</time></trkpt><trkpt lat="43.779391415409606" lon="11.586440349589802"><ele>1017.25</ele><time>2026-05-03T13:20:36Z</time></trkpt><trkpt lat="43.77926713814959" lon="11.586565960108935"><ele>1017.0</ele><time>2026-05-03T13:20:37Z</time></trkpt><trkpt lat="43.77916298069106" lon="11.586700539777512"><ele>1016.25</ele><time>2026-05-03T13:20:38Z</time></trkpt><trkpt lat="43.77907430799425" lon="11.586854566358866"><ele>1015.5</ele><time>2026-05-03T13:20:39Z</time></trkpt><trkpt lat="43.77899999703962" lon="11.587021684742403"><ele>1014.75</ele><time>2026-05-03T13:20:40Z</time></trkpt><trkpt lat="43.77895151044097" lon="11.587190869900184"><ele>1014.0</ele><time>2026-05-03T13:20:41Z</time></trkpt><trkpt lat="43.77892924682549" lon="11.587346753914332"><ele>1014.0</ele><time>2026-05-03T13:20:42Z</time></trkpt><trkpt lat="43.778922199087404" lon="11.587497938317519"><ele>1014.0</ele><time>2026-05-03T13:20:43Z</time></trkpt><trkpt lat="43.778922312739795" lon="11.587653025707452"><ele>1014.0</ele><time>2026-05-03T13:20:44Z</time></trkpt><trkpt lat="43.778926514991454" lon="11.587817991543162"><ele>1014.0</ele><time>2026-05-03T13:20:45Z</time></trkpt><trkpt lat="43.778933245116555" lon="11.587988257959989"><ele>1013.0</ele><time>2026-05-03T13:20:46Z</time></trkpt><trkpt lat="43.77894010934999" lon="11.588157518278678"><ele>1012.0</ele><time>2026-05-03T13:20:47Z</time></trkpt><trkpt lat="43.7789408289698" lon="11.588332829159887"><ele>1011.0</ele><time>2026-05-03T13:20:48Z</time></trkpt><trkpt lat="43.778933643663514" lon="11.588510808628643"><ele>1010.0</ele><time>2026-05-03T13:20:49Z</time></trkpt><trkpt lat="43.77890852062334" lon="11.588688091044496"><ele>1008.75</ele><time>2026-05-03T13:20:50Z</time></trkpt><trkpt lat="43.778857469905724" lon="11.5888553343856"><ele>1007.5</ele><time>2026-05-03T13:20:51Z</time></trkpt><trkpt lat="43.7788046698907" lon="11.589012105638353"><ele>1006.25</ele><time>2026-05-03T13:20:52Z</time></trkpt><trkpt lat="43.778748528647164" lon="11.589159761823812"><ele>1005.0</ele><time>2026-05-03T13:20:53Z</time></trkpt><trkpt lat="43.778685058732805" lon="11.589287506811422"><ele>1005.0</ele><time>2026-05-03T13:20:54Z</time></trkpt><trkpt lat="43.7786092471982" lon="11.589392300131841"><ele>1005.0</ele><time>2026-05-03T13:20:55Z</time></trkpt><trkpt lat="43.77853388078897" lon="11.589477493903264"><ele>1005.0</ele><time>2026-05-03T13:20:56Z</time></trkpt><trkpt lat="43.77845432167325" lon="11.589558963431815"><ele>1005.0</ele><time>2026-05-03T13:20:57Z</time></trkpt><trkpt lat="43.77837970782911" lon="11.589647535611693"><ele>1005.0</ele><time>2026-05-03T13:20:58Z</time></trkpt><trkpt lat="43.77831670893467" lon="11.589751834696997"><ele>1008.2</ele><time>2026-05-03T13:20:59Z</time></trkpt><trkpt lat="43.77827044694574" lon="11.589867367982285"><ele>1011.4</ele><time>2026-05-03T13:21:00Z</time></trkpt><trkpt lat="43.77823861466413" lon="11.589989391842403"><ele>1014.5999999999999</ele><time>2026-05-03T13:21:01Z</time></trkpt><trkpt lat="43.778215398874444" lon="11.590111935077624"><ele>1017.8</ele><time>2026-05-03T13:21:02Z</time></trkpt><trkpt lat="43.77820315400565" lon="11.59023270378379"><ele>1021.0</ele><time>2026-05-03T13:21:03Z</time></trkpt><trkpt lat="43.77819964356569" lon="11.59035007305434"><ele>1020.9999999999999</ele><time>2026-05-03T13:21:04Z</time></trkpt><trkpt lat="43.778204597628786" lon="11.590468017518589"><ele>1021.0</ele><time>2026-05-03T13:21:05Z</time></trkpt><trkpt lat="43.778212510213955" lon="11.59058741698686"><ele>1021.0</ele><time>2026-05-03T13:21:06Z</time></trkpt><trkpt lat="43.7782226959896" lon="11.590700999316942"><ele>1021.0</ele><time>2026-05-03T13:21:07Z</time></trkpt><trkpt lat="43.778237251802786" lon="11.59080680464019"><ele>1020.9999999999999</ele><time>2026-05-03T13:21:08Z</time></trkpt><trkpt lat="43.778251771421644" lon="11.59090772216571"><ele>1021.0</ele><time>2026-05-03T13:21:09Z</time></trkpt><trkpt lat="43.77827299397937" lon="11.591025549035058"><ele>1021.0</ele><time>2026-05-03T13:21:10Z</time></trkpt><trkpt lat="43.77829845977271" lon="11.59115940347591"><ele>1021.0</ele><time>2026-05-03T13:21:11Z</time></trkpt><trkpt lat="43.778315389239424" lon="11.591306234449005"><ele>1021.0</ele><time>2026-05-03T13:21:12Z</time></trkpt><trkpt lat="43.77832369858081" lon="11.591468468656148"><ele>1021.0</ele><time>2026-05-03T13:21:13Z</time></trkpt><trkpt lat="43.77831151231137" lon="11.591644123599421"><ele>1021.0</ele><time>2026-05-03T13:21:14Z</time></trkpt><trkpt lat="43.778269914767534" lon="11.591822468727873"><ele>1021.0</ele><time>2026-05-03T13:21:15Z</time></trkpt><trkpt lat="43.778214705785786" lon="11.592002279817715"><ele>1021.0</ele><time>2026-05-03T13:21:16Z</time></trkpt><trkpt lat="43.77816083032728" lon="11.59217790454098"><ele>1021.0</ele><time>2026-05-03T13:21:17Z</time></trkpt><trkpt lat="43.77813565972319" lon="11.59234894250231"><ele>1021.5999999999999</ele><time>2026-05-03T13:21:18Z</time></trkpt><trkpt lat="43.778155041290425" lon="11.592508231215476"><ele>1022.1999999999999</ele><time>2026-05-03T13:21:19Z</time></trkpt><trkpt lat="43.77821467245198" lon="11.592615541758843"><ele>1022.8000000000001</ele><time>2026-05-03T13:21:20Z</time></trkpt><trkpt lat="43.778273260731744" lon="11.592699831194233"><ele>1023.4000000000001</ele><time>2026-05-03T13:21:21Z</time></trkpt><trkpt lat="43.778360310785864" lon="11.592730955148676"><ele>1024.0</ele><time>2026-05-03T13:21:22Z</time></trkpt><trkpt lat="43.77847627568061" lon="11.59268888095213"><ele>1023.5</ele><time>2026-05-03T13:21:23Z</time></trkpt><trkpt lat="43.77859304380206" lon="11.592594167800339"><ele>1023.0</ele><time>2026-05-03T13:21:24Z</time></trkpt><trkpt lat="43.77871902898892" lon="11.592500519190306"><ele>1022.5</ele><time>2026-05-03T13:21:25Z</time></trkpt><trkpt lat="43.778857242183086" lon="11.592429056444722"><ele>1022.0</ele><time>2026-05-03T13:21:26Z</time></trkpt><trkpt lat="43.77899099211215" lon="11.592383843075398"><ele>1022.0</ele><time>2026-05-03T13:21:27Z</time></trkpt><trkpt lat="43.77912691444299" lon="11.592413213037675"><ele>1022.0</ele><time>2026-05-03T13:21:28Z</time></trkpt><trkpt lat="43.779268192229964" lon="11.59244903707001"><ele>1022.0</ele><time>2026-05-03T13:21:29Z</time></trkpt><trkpt lat="43.779399170389496" lon="11.59252048022123"><ele>1022.0</ele><time>2026-05-03T13:21:30Z</time></trkpt><trkpt lat="43.77950449994498" lon="11.592609928338156"><ele>1021.25</ele><time>2026-05-03T13:21:31Z</time></trkpt><trkpt lat="43.77958268435378" lon="11.592778939839116"><ele>1020.5</ele><time>2026-05-03T13:21:32Z</time></trkpt><trkpt lat="43.77963418175004" lon="11.592967459220205"><ele>1019.75</ele><time>2026-05-03T13:21:33Z</time></trkpt><trkpt lat="43.779638452190916" lon="11.593161818822738"><ele>1019.0</ele><time>2026-05-03T13:21:34Z</time></trkpt><trkpt lat="43.779618317854066" lon="11.593382452511866"><ele>1019.0</ele><time>2026-05-03T13:21:35Z</time></trkpt><trkpt lat="43.77959913424155" lon="11.593615040822824"><ele>1019.0</ele><time>2026-05-03T13:21:36Z</time></trkpt><trkpt lat="43.779576590982046" lon="11.593837952876289"><ele>1019.0</ele><time>2026-05-03T13:21:37Z</time></trkpt><trkpt lat="43.77958396247593" lon="11.594065691052629"><ele>1018.6666666666667</ele><time>2026-05-03T13:21:38Z</time></trkpt><trkpt lat="43.779611813055105" lon="11.594296574837418"><ele>1018.3333333333333</ele><time>2026-05-03T13:21:39Z</time></trkpt><trkpt lat="43.77964268759058" lon="11.594536712908152"><ele>1018.0</ele><time>2026-05-03T13:21:40Z</time></trkpt><trkpt lat="43.77966955650994" lon="11.594771830915596"><ele>1018.0</ele><time>2026-05-03T13:21:41Z</time></trkpt><trkpt lat="43.77970098264887" lon="11.594990226771733"><ele>1018.0</ele><time>2026-05-03T13:21:42Z</time></trkpt><trkpt lat="43.77974403254223" lon="11.595166030177552"><ele>1018.0</ele><time>2026-05-03T13:21:43Z</time></trkpt><trkpt lat="43.77981383152671" lon="11.595247384545438"><ele>1018.0</ele><time>2026-05-03T13:21:44Z</time></trkpt><trkpt lat="43.77988065986735" lon="11.595327614971827"><ele>1017.8333333333333</ele><time>2026-05-03T13:21:45Z</time></trkpt><trkpt lat="43.77995098595579" lon="11.595404254434374"><ele>1017.6666666666666</ele><time>2026-05-03T13:21:46Z</time></trkpt><trkpt lat="43.78002566843069" lon="11.595477573826855"><ele>1017.5</ele><time>2026-05-03T13:21:47Z</time></trkpt><trkpt lat="43.78009911576893" lon="11.595546575085402"><ele>1017.3333333333333</ele><time>2026-05-03T13:21:48Z</time></trkpt><trkpt lat="43.78017060984947" lon="11.595613903101397"><ele>1017.1666666666666</ele><time>2026-05-03T13:21:49Z</time></trkpt><trkpt lat="43.78023927902185" lon="11.595682271085769"><ele>1017.0</ele><time>2026-05-03T13:21:50Z</time></trkpt><trkpt lat="43.78030833477066" lon="11.595753381882854"><ele>1017.0</ele><time>2026-05-03T13:21:51Z</time></trkpt><trkpt lat="43.780375494404026" lon="11.595823709365998"><ele>1017.0</ele><time>2026-05-03T13:21:52Z</time></trkpt><trkpt lat="43.780441628814685" lon="11.595896336561822"><ele>1017.0</ele><time>2026-05-03T13:21:53Z</time></trkpt><trkpt lat="43.78050398034186" lon="11.595971441621584"><ele>1017.0</ele><time>2026-05-03T13:21:54Z</time></trkpt><trkpt lat="43.780566556039474" lon="11.596042394628721"><ele>1017.0</ele><time>2026-05-03T13:21:55Z</time></trkpt><trkpt lat="43.780627084993384" lon="11.596110447841932"><ele>1017.0</ele><time>2026-05-03T13:21:56Z</time></trkpt><trkpt lat="43.78069025332687" lon="11.596184686955665"><ele>1017.8333333333334</ele><time>2026-05-03T13:21:57Z</time></trkpt><trkpt lat="43.780757875052494" lon="11.596261772966779"><ele>1018.6666666666667</ele><time>2026-05-03T13:21:58Z</time></trkpt><trkpt lat="43.780825747080215" lon="11.596332467175708"><ele>1019.5</ele><time>2026-05-03T13:21:59Z</time></trkpt><trkpt lat="43.780899202254474" lon="11.596402156445853"><ele>1020.3333333333334</ele><time>2026-05-03T13:22:00Z</time></trkpt><trkpt lat="43.7809686843149" lon="11.596471032027482"><ele>1021.1666666666667</ele><time>2026-05-03T13:22:01Z</time></trkpt><trkpt lat="43.78103114839038" lon="11.596554735689482"><ele>1022.0</ele><time>2026-05-03T13:22:02Z</time></trkpt><trkpt lat="43.781080162209435" lon="11.596654766905086"><ele>1022.0</ele><time>2026-05-03T13:22:03Z</time></trkpt><trkpt lat="43.78112537510024" lon="11.596763098034433"><ele>1022.0</ele><time>2026-05-03T13:22:04Z</time></trkpt><trkpt lat="43.78117150570481" lon="11.596867639483863"><ele>1022.0</ele><time>2026-05-03T13:22:05Z</time></trkpt><trkpt lat="43.78122256339657" lon="11.596972822582384"><ele>1022.0</ele><time>2026-05-03T13:22:06Z</time></trkpt><trkpt lat="43.781283819678315" lon="11.597083097689838"><ele>1022.0</ele><time>2026-05-03T13:22:07Z</time></trkpt><trkpt lat="43.78135524565697" lon="11.597189995606886"><ele>1022.75</ele><time>2026-05-03T13:22:08Z</time></trkpt><trkpt lat="43.781436446807454" lon="11.597302292963905"><ele>1023.5</ele><time>2026-05-03T13:22:09Z</time></trkpt><trkpt lat="43.781535894395084" lon="11.59741203947495"><ele>1024.25</ele><time>2026-05-03T13:22:10Z</time></trkpt><trkpt lat="43.78164442180168" lon="11.597505684569482"><ele>1025.0</ele><time>2026-05-03T13:22:11Z</time></trkpt><trkpt lat="43.78176514469662" lon="11.597593469676745"><ele>1028.25</ele><time>2026-05-03T13:22:12Z</time></trkpt><trkpt lat="43.78189604861734" lon="11.597674945307798"><ele>1031.5</ele><time>2026-05-03T13:22:13Z</time></trkpt><trkpt lat="43.78203348859113" lon="11.59776573814407"><ele>1034.75</ele><time>2026-05-03T13:22:14Z</time></trkpt><trkpt lat="43.78216440383709" lon="11.59785111418227"><ele>1038.0</ele><time>2026-05-03T13:22:15Z</time></trkpt><trkpt lat="43.78228887535377" lon="11.597935629764887"><ele>1038.0</ele><time>2026-05-03T13:22:16Z</time></trkpt><trkpt lat="43.78240684441204" lon="11.59803270786899"><ele>1038.0</ele><time>2026-05-03T13:22:17Z</time></trkpt><trkpt lat="43.782511820692285" lon="11.598147272211525"><ele>1038.0</ele><time>2026-05-03T13:22:18Z</time></trkpt><trkpt lat="43.78260315608221" lon="11.598279121892915"><ele>1038.0</ele><time>2026-05-03T13:22:19Z</time></trkpt><trkpt lat="43.782677564661284" lon="11.598434771807588"><ele>1041.25</ele><time>2026-05-03T13:22:20Z</time></trkpt><trkpt lat="43.78273650017007" lon="11.598601152542177"><ele>1044.5</ele><time>2026-05-03T13:22:21Z</time></trkpt><trkpt lat="43.78278476732601" lon="11.598763549595075"><ele>1047.75</ele><time>2026-05-03T13:22:22Z</time></trkpt><trkpt lat="43.78282776863142" lon="11.598910963348404"><ele>1051.0</ele><time>2026-05-03T13:22:23Z</time></trkpt><trkpt lat="43.782863891118915" lon="11.59906403176682"><ele>1051.0</ele><time>2026-05-03T13:22:24Z</time></trkpt><trkpt lat="43.78288847049578" lon="11.5992307053285"><ele>1051.0</ele><time>2026-05-03T13:22:25Z</time></trkpt><trkpt lat="43.782897256679554" lon="11.599403730012098"><ele>1051.0</ele><time>2026-05-03T13:22:26Z</time></trkpt><trkpt lat="43.78290214763801" lon="11.599572189694593"><ele>1051.0</ele><time>2026-05-03T13:22:27Z</time></trkpt><trkpt lat="43.7829072997791" lon="11.59972753011085"><ele>1051.8333333333333</ele><time>2026-05-03T13:22:28Z</time></trkpt><trkpt lat="43.78291497179364" lon="11.599872925635664"><ele>1052.6666666666665</ele><time>2026-05-03T13:22:29Z</time></trkpt><trkpt lat="43.782919315602896" lon="11.599993048275584"><ele>1053.5</ele><time>2026-05-03T13:22:30Z</time></trkpt><trkpt lat="43.78292567896958" lon="11.600099144472054"><ele>1054.3333333333333</ele><time>2026-05-03T13:22:31Z</time></trkpt><trkpt lat="43.78293556217374" lon="11.600202381540033"><ele>1055.1666666666667</ele><time>2026-05-03T13:22:32Z</time></trkpt><trkpt lat="43.78294273062291" lon="11.60031395474199"><ele>1056.0</ele><time>2026-05-03T13:22:33Z</time></trkpt><trkpt lat="43.78294666567951" lon="11.60043377707534"><ele>1058.5</ele><time>2026-05-03T13:22:34Z</time></trkpt><trkpt lat="43.78295219240978" lon="11.600569424140195"><ele>1061.0</ele><time>2026-05-03T13:22:35Z</time></trkpt><trkpt lat="43.78296043426372" lon="11.600727544665645"><ele>1063.5</ele><time>2026-05-03T13:22:36Z</time></trkpt><trkpt lat="43.78295072960147" lon="11.600908482235104"><ele>1066.0</ele><time>2026-05-03T13:22:37Z</time></trkpt><trkpt lat="43.7829258736698" lon="11.601097873904099"><ele>1066.3999999999999</ele><time>2026-05-03T13:22:38Z</time></trkpt><trkpt lat="43.782906567008524" lon="11.601260878897257"><ele>1066.8</ele><time>2026-05-03T13:22:39Z</time></trkpt><trkpt lat="43.78290068942825" lon="11.60136776096869"><ele>1067.1999999999998</ele><time>2026-05-03T13:22:40Z</time></trkpt><trkpt lat="43.78289783981097" lon="11.601480665276057"><ele>1067.6</ele><time>2026-05-03T13:22:42Z</time></trkpt><trkpt lat="43.782885977747874" lon="11.601581512902204"><ele>1068.0</ele><time>2026-05-03T13:22:45Z</time></trkpt><trkpt lat="43.7829268580957" lon="11.601708834800798"><ele>1068.0</ele><time>2026-05-03T13:22:56Z</time></trkpt><trkpt lat="43.782981389072816" lon="11.60179322777435"><ele>1068.0</ele><time>2026-05-03T13:22:57Z</time></trkpt><trkpt lat="43.78304900717753" lon="11.60190303357837"><ele>1068.0</ele><time>2026-05-03T13:22:58Z</time></trkpt><trkpt lat="43.78314112259792" lon="11.602016620529943"><ele>1068.0</ele><time>2026-05-03T13:22:59Z</time></trkpt><trkpt lat="43.783267793274476" lon="11.602101338523479"><ele>1070.6666666666667</ele><time>2026-05-03T13:23:00Z</time></trkpt><trkpt lat="43.78342786461941" lon="11.602179554660104"><ele>1073.3333333333335</ele><time>2026-05-03T13:23:01Z</time></trkpt><trkpt lat="43.783546008430626" lon="11.602357192250855"><ele>1076.0</ele><time>2026-05-03T13:23:02Z</time></trkpt><trkpt lat="43.78364415437287" lon="11.602542647674847"><ele>1076.0</ele><time>2026-05-03T13:23:03Z</time></trkpt><trkpt lat="43.78376074055139" lon="11.602748175733032"><ele>1076.0</ele><time>2026-05-03T13:23:04Z</time></trkpt><trkpt lat="43.7838664821479" lon="11.602958133250825"><ele>1076.0</ele><time>2026-05-03T13:23:05Z</time></trkpt><trkpt lat="43.78397139570691" lon="11.603161020731646"><ele>1071.3333333333335</ele><time>2026-05-03T13:23:06Z</time></trkpt><trkpt lat="43.784072237200846" lon="11.60335273462807"><ele>1066.6666666666667</ele><time>2026-05-03T13:23:07Z</time></trkpt><trkpt lat="43.784165795258005" lon="11.603528718157648"><ele>1062.0</ele><time>2026-05-03T13:23:08Z</time></trkpt><trkpt lat="43.7842487639658" lon="11.60368770126506"><ele>1060.25</ele><time>2026-05-03T13:23:09Z</time></trkpt><trkpt lat="43.784327772015835" lon="11.60383480570144"><ele>1058.5</ele><time>2026-05-03T13:23:10Z</time></trkpt><trkpt lat="43.784421899367665" lon="11.603961053317072"><ele>1056.75</ele><time>2026-05-03T13:23:11Z</time></trkpt><trkpt lat="43.78455153628189" lon="11.604036102072314"><ele>1055.0</ele><time>2026-05-03T13:23:12Z</time></trkpt><trkpt lat="43.78471054023078" lon="11.604056185345597"><ele>1055.0</ele><time>2026-05-03T13:23:13Z</time></trkpt><trkpt lat="43.78488294992456" lon="11.604052895609755"><ele>1055.0</ele><time>2026-05-03T13:23:14Z</time></trkpt><trkpt lat="43.78505007771549" lon="11.604107634943883"><ele>1055.0</ele><time>2026-05-03T13:23:15Z</time></trkpt><trkpt lat="43.7852070452348" lon="11.604169269829868"><ele>1055.0</ele><time>2026-05-03T13:23:16Z</time></trkpt><trkpt lat="43.78535550005683" lon="11.604250209532228"><ele>1055.0</ele><time>2026-05-03T13:23:17Z</time></trkpt><trkpt lat="43.78545925878864" lon="11.604337561936267"><ele>1055.0</ele><time>2026-05-03T13:23:18Z</time></trkpt><trkpt lat="43.78553854200886" lon="11.604444860686568"><ele>1055.0</ele><time>2026-05-03T13:23:19Z</time></trkpt><trkpt lat="43.785546458162564" lon="11.604637034506741"><ele>1055.0</ele><time>2026-05-03T13:23:20Z</time></trkpt><trkpt lat="43.785477452325914" lon="11.604840141060278"><ele>1055.0</ele><time>2026-05-03T13:23:21Z</time></trkpt><trkpt lat="43.78538548373639" lon="11.605042988600623"><ele>1055.0</ele><time>2026-05-03T13:23:22Z</time></trkpt><trkpt lat="43.78527360407661" lon="11.605253265530175"><ele>1050.6666666666667</ele><time>2026-05-03T13:23:23Z</time></trkpt><trkpt lat="43.78516935168844" lon="11.605493842085632"><ele>1046.3333333333333</ele><time>2026-05-03T13:23:24Z</time></trkpt><trkpt lat="43.78506564269338" lon="11.605739261334977"><ele>1042.0</ele><time>2026-05-03T13:23:25Z</time></trkpt><trkpt lat="43.7849655703952" lon="11.6059729397213"><ele>1042.0</ele><time>2026-05-03T13:23:26Z</time></trkpt><trkpt lat="43.78487342471038" lon="11.606187187804538"><ele>1042.0</ele><time>2026-05-03T13:23:27Z</time></trkpt><trkpt lat="43.784799300201264" lon="11.60638319240301"><ele>1042.0</ele><time>2026-05-03T13:23:28Z</time></trkpt><trkpt lat="43.78475626707924" lon="11.606578876152842"><ele>1042.0</ele><time>2026-05-03T13:23:29Z</time></trkpt><trkpt lat="43.784744727376314" lon="11.606805340988732"><ele>1042.0</ele><time>2026-05-03T13:23:30Z</time></trkpt><trkpt lat="43.78476836988803" lon="11.607050717619076"><ele>1042.0</ele><time>2026-05-03T13:23:31Z</time></trkpt><trkpt lat="43.784811165946635" lon="11.607304023302683"><ele>1040.0</ele><time>2026-05-03T13:23:32Z</time></trkpt><trkpt lat="43.78486052490604" lon="11.607548795665696"><ele>1038.0</ele><time>2026-05-03T13:23:33Z</time></trkpt><trkpt lat="43.784906205925715" lon="11.607795251592137"><ele>1036.0</ele><time>2026-05-03T13:23:34Z</time></trkpt><trkpt lat="43.78494908864643" lon="11.608038948388577"><ele>1035.3333333333333</ele><time>2026-05-03T13:23:35Z</time></trkpt><trkpt lat="43.784994117186905" lon="11.60827697033337"><ele>1034.6666666666667</ele><time>2026-05-03T13:23:36Z</time></trkpt><trkpt lat="43.785046078392604" lon="11.608541436419705"><ele>1034.0</ele><time>2026-05-03T13:23:37Z</time></trkpt><trkpt lat="43.7851036715279" lon="11.608858641424288"><ele>1034.0</ele><time>2026-05-03T13:23:38Z</time></trkpt><trkpt lat="43.78515159170717" lon="11.609191534783825"><ele>1034.0</ele><time>2026-05-03T13:23:39Z</time></trkpt><trkpt lat="43.785190522188174" lon="11.6094983916398"><ele>1030.3333333333335</ele><time>2026-05-03T13:23:40Z</time></trkpt><trkpt lat="43.785235766589" lon="11.609780171869673"><ele>1026.6666666666667</ele><time>2026-05-03T13:23:41Z</time></trkpt><trkpt lat="43.78528308302277" lon="11.610047460522399"><ele>1023.0</ele><time>2026-05-03T13:23:42Z</time></trkpt><trkpt lat="43.78532777891148" lon="11.610309529460567"><ele>1022.6666666666667</ele><time>2026-05-03T13:23:43Z</time></trkpt><trkpt lat="43.78537693563373" lon="11.61056242735464"><ele>1022.3333333333334</ele><time>2026-05-03T13:23:44Z</time></trkpt><trkpt lat="43.78546097136319" lon="11.61081482423786"><ele>1022.0</ele><time>2026-05-03T13:23:45Z</time></trkpt><trkpt lat="43.78558082829771" lon="11.611058989519096"><ele>1022.6666666666667</ele><time>2026-05-03T13:23:46Z</time></trkpt><trkpt lat="43.78570369665764" lon="11.61127574457351"><ele>1023.3333333333333</ele><time>2026-05-03T13:23:47Z</time></trkpt><trkpt lat="43.78581077450596" lon="11.61148653376894"><ele>1024.0</ele><time>2026-05-03T13:23:48Z</time></trkpt><trkpt lat="43.785884350612605" lon="11.611701178220759"><ele>1024.0</ele><time>2026-05-03T13:23:49Z</time></trkpt><trkpt lat="43.785919263994856" lon="11.611938418783605"><ele>1024.0</ele><time>2026-05-03T13:23:50Z</time></trkpt><trkpt lat="43.78592077747701" lon="11.612197185256054"><ele>1024.0</ele><time>2026-05-03T13:23:51Z</time></trkpt><trkpt lat="43.78592940748533" lon="11.61245869176342"><ele>1023.25</ele><time>2026-05-03T13:23:52Z</time></trkpt><trkpt lat="43.78597400965803" lon="11.612687163653932"><ele>1022.5</ele><time>2026-05-03T13:23:53Z</time></trkpt><trkpt lat="43.786019648425444" lon="11.612877920787467"><ele>1021.75</ele><time>2026-05-03T13:23:54Z</time></trkpt><trkpt lat="43.78602157179962" lon="11.613022047341337"><ele>1021.0</ele><time>2026-05-03T13:23:55Z</time></trkpt><trkpt lat="43.785966182645275" lon="11.61317110751743"><ele>1017.6666666666666</ele><time>2026-05-03T13:23:56Z</time></trkpt><trkpt lat="43.785846450435955" lon="11.613287174876527"><ele>1014.3333333333333</ele><time>2026-05-03T13:23:57Z</time></trkpt><trkpt lat="43.78568107941824" lon="11.613307998291145"><ele>1011.0</ele><time>2026-05-03T13:23:58Z</time></trkpt><trkpt lat="43.78550543676381" lon="11.6133680385459"><ele>1011.0</ele><time>2026-05-03T13:23:59Z</time></trkpt><trkpt lat="43.785340758216314" lon="11.613429263454146"><ele>1011.0</ele><time>2026-05-03T13:24:00Z</time></trkpt><trkpt lat="43.78521097783425" lon="11.613539113492605"><ele>1011.0</ele><time>2026-05-03T13:24:01Z</time></trkpt><trkpt lat="43.7851180644193" lon="11.613711196478013"><ele>1005.6666666666667</ele><time>2026-05-03T13:24:02Z</time></trkpt><trkpt lat="43.78506085980257" lon="11.61394509696075"><ele>1000.3333333333334</ele><time>2026-05-03T13:24:03Z</time></trkpt><trkpt lat="43.78502597405568" lon="11.614223115612074"><ele>995.0</ele><time>2026-05-03T13:24:04Z</time></trkpt><trkpt lat="43.78499511924788" lon="11.614535292770034"><ele>994.0</ele><time>2026-05-03T13:24:05Z</time></trkpt><trkpt lat="43.784958005463054" lon="11.61482457400443"><ele>993.0</ele><time>2026-05-03T13:24:06Z</time></trkpt><trkpt lat="43.78491157202627" lon="11.615085290070338"><ele>992.0</ele><time>2026-05-03T13:24:07Z</time></trkpt><trkpt lat="43.78484955503738" lon="11.615331676961135"><ele>992.0</ele><time>2026-05-03T13:24:08Z</time></trkpt><trkpt lat="43.784764141021626" lon="11.615560290286492"><ele>992.0</ele><time>2026-05-03T13:24:09Z</time></trkpt><trkpt lat="43.78462429126998" lon="11.615729336488783"><ele>992.0</ele><time>2026-05-03T13:24:10Z</time></trkpt><trkpt lat="43.784496763433914" lon="11.615909773896623"><ele>992.0</ele><time>2026-05-03T13:24:11Z</time></trkpt><trkpt lat="43.78437059457417" lon="11.616075496305138"><ele>992.0</ele><time>2026-05-03T13:24:12Z</time></trkpt><trkpt lat="43.784289809754256" lon="11.616269177454766"><ele>992.0</ele><time>2026-05-03T13:24:13Z</time></trkpt><trkpt lat="43.78424113266285" lon="11.616502912959461"><ele>988.6666666666667</ele><time>2026-05-03T13:24:14Z</time></trkpt><trkpt lat="43.78422776751159" lon="11.61677656324616"><ele>985.3333333333333</ele><time>2026-05-03T13:24:15Z</time></trkpt><trkpt lat="43.78424820485605" lon="11.617075447220088"><ele>982.0</ele><time>2026-05-03T13:24:16Z</time></trkpt><trkpt lat="43.784290486318596" lon="11.617385133986174"><ele>979.6666666666666</ele><time>2026-05-03T13:24:17Z</time></trkpt><trkpt lat="43.78431501285897" lon="11.617685049390145"><ele>977.3333333333333</ele><time>2026-05-03T13:24:18Z</time></trkpt><trkpt lat="43.78429405384577" lon="11.617991662462416"><ele>975.0</ele><time>2026-05-03T13:24:19Z</time></trkpt><trkpt lat="43.78429296363493" lon="11.618298499218259"><ele>973.0</ele><time>2026-05-03T13:24:20Z</time></trkpt><trkpt lat="43.784271388239404" lon="11.618585541561734"><ele>971.0</ele><time>2026-05-03T13:24:21Z</time></trkpt><trkpt lat="43.78425105441762" lon="11.61881464447127"><ele>969.0</ele><time>2026-05-03T13:24:22Z</time></trkpt><trkpt lat="43.784227238833004" lon="11.618994319770115"><ele>966.75</ele><time>2026-05-03T13:24:23Z</time></trkpt><trkpt lat="43.78422644734258" lon="11.619177636660107"><ele>964.5</ele><time>2026-05-03T13:24:24Z</time></trkpt><trkpt lat="43.784274016097825" lon="11.61934501640309"><ele>962.25</ele><time>2026-05-03T13:24:25Z</time></trkpt><trkpt lat="43.78439090540708" lon="11.61950125177308"><ele>960.0</ele><time>2026-05-03T13:24:26Z</time></trkpt><trkpt lat="43.784529863267636" lon="11.619617644784261"><ele>957.0</ele><time>2026-05-03T13:24:27Z</time></trkpt><trkpt lat="43.7846882498097" lon="11.619711280185456"><ele>954.0</ele><time>2026-05-03T13:24:28Z</time></trkpt><trkpt lat="43.784837667471024" lon="11.619762654854503"><ele>951.0</ele><time>2026-05-03T13:24:29Z</time></trkpt><trkpt lat="43.784993769972004" lon="11.619760477740076"><ele>951.0</ele><time>2026-05-03T13:24:30Z</time></trkpt><trkpt lat="43.78514680688716" lon="11.619693910253625"><ele>951.0</ele><time>2026-05-03T13:24:31Z</time></trkpt><trkpt lat="43.785273175214705" lon="11.619594234170988"><ele>951.0</ele><time>2026-05-03T13:24:32Z</time></trkpt><trkpt lat="43.785386711967355" lon="11.619524766516847"><ele>951.0</ele><time>2026-05-03T13:24:33Z</time></trkpt><trkpt lat="43.78550115855047" lon="11.619530487570895"><ele>950.0</ele><time>2026-05-03T13:24:34Z</time></trkpt><trkpt lat="43.785602477709155" lon="11.619620735508779"><ele>949.0</ele><time>2026-05-03T13:24:35Z</time></trkpt><trkpt lat="43.785717945983855" lon="11.619693132396769"><ele>948.0</ele><time>2026-05-03T13:24:36Z</time></trkpt><trkpt lat="43.785835396510194" lon="11.619793752875491"><ele>947.0</ele><time>2026-05-03T13:24:37Z</time></trkpt><trkpt lat="43.785975720613074" lon="11.619888971077373"><ele>946.6666666666667</ele><time>2026-05-03T13:24:38Z</time></trkpt><trkpt lat="43.78612299968252" lon="11.619988730861714"><ele>946.3333333333333</ele><time>2026-05-03T13:24:39Z</time></trkpt><trkpt lat="43.78627290454695" lon="11.620104486297242"><ele>946.0</ele><time>2026-05-03T13:24:40Z</time></trkpt><trkpt lat="43.786429693356666" lon="11.620246322341973"><ele>944.6666666666666</ele><time>2026-05-03T13:24:41Z</time></trkpt><trkpt lat="43.7865924873047" lon="11.62042858021901"><ele>943.3333333333333</ele><time>2026-05-03T13:24:42Z</time></trkpt><trkpt lat="43.78675544470413" lon="11.620647424223302"><ele>942.0</ele><time>2026-05-03T13:24:43Z</time></trkpt><trkpt lat="43.78690128763987" lon="11.620871814143301"><ele>942.0</ele><time>2026-05-03T13:24:44Z</time></trkpt><trkpt lat="43.78703663364163" lon="11.621074267998862"><ele>942.0</ele><time>2026-05-03T13:24:45Z</time></trkpt><trkpt lat="43.787173321114174" lon="11.621271668788022"><ele>942.0</ele><time>2026-05-03T13:24:46Z</time></trkpt><trkpt lat="43.7873145351077" lon="11.621469777998826"><ele>940.0</ele><time>2026-05-03T13:24:47Z</time></trkpt><trkpt lat="43.78745888598298" lon="11.621666834697443"><ele>938.0</ele><time>2026-05-03T13:24:48Z</time></trkpt><trkpt lat="43.787593967204685" lon="11.621852647849693"><ele>936.0</ele><time>2026-05-03T13:24:49Z</time></trkpt><trkpt lat="43.78769620365247" lon="11.621994961181878"><ele>934.25</ele><time>2026-05-03T13:24:50Z</time></trkpt><trkpt lat="43.78778131850753" lon="11.622114176095865"><ele>932.5</ele><time>2026-05-03T13:24:51Z</time></trkpt><trkpt lat="43.787863225629415" lon="11.6222257343954"><ele>930.75</ele><time>2026-05-03T13:24:52Z</time></trkpt><trkpt lat="43.78795257693496" lon="11.62235561344568"><ele>929.0</ele><time>2026-05-03T13:24:53Z</time></trkpt><trkpt lat="43.788033331974916" lon="11.62252943850486"><ele>929.0</ele><time>2026-05-03T13:24:54Z</time></trkpt><trkpt lat="43.788114486833315" lon="11.62269627771987"><ele>929.0</ele><time>2026-05-03T13:24:55Z</time></trkpt><trkpt lat="43.78818125348743" lon="11.622902859434692"><ele>929.0</ele><time>2026-05-03T13:24:56Z</time></trkpt><trkpt lat="43.78824838110978" lon="11.623120073322802"><ele>929.0</ele><time>2026-05-03T13:24:57Z</time></trkpt><trkpt lat="43.788313022239116" lon="11.623328233348307"><ele>929.0</ele><time>2026-05-03T13:24:58Z</time></trkpt><trkpt lat="43.78836911534725" lon="11.623528273825963"><ele>929.0</ele><time>2026-05-03T13:24:59Z</time></trkpt><trkpt lat="43.78838047983131" lon="11.623733989490493"><ele>933.3333333333334</ele><time>2026-05-03T13:25:00Z</time></trkpt><trkpt lat="43.78834251148859" lon="11.62392613713293"><ele>937.6666666666667</ele><time>2026-05-03T13:25:01Z</time></trkpt><trkpt lat="43.78827257173655" lon="11.624106187172611"><ele>942.0</ele><time>2026-05-03T13:25:02Z</time></trkpt><trkpt lat="43.78813259584888" lon="11.624213899847282"><ele>942.0</ele><time>2026-05-03T13:25:03Z</time></trkpt><trkpt lat="43.78796075397165" lon="11.624237385321168"><ele>942.0</ele><time>2026-05-03T13:25:04Z</time></trkpt><trkpt lat="43.78780233168811" lon="11.624321987513904"><ele>942.0</ele><time>2026-05-03T13:25:05Z</time></trkpt><trkpt lat="43.787640449864845" lon="11.6244026184854"><ele>945.0</ele><time>2026-05-03T13:25:06Z</time></trkpt><trkpt lat="43.78748495328779" lon="11.624483858573095"><ele>948.0</ele><time>2026-05-03T13:25:07Z</time></trkpt><trkpt lat="43.78733951343785" lon="11.624561900159666"><ele>951.0</ele><time>2026-05-03T13:25:08Z</time></trkpt><trkpt lat="43.78720518904775" lon="11.62466272907301"><ele>951.0</ele><time>2026-05-03T13:25:09Z</time></trkpt><trkpt lat="43.78709881419112" lon="11.624819996109991"><ele>951.0</ele><time>2026-05-03T13:25:10Z</time></trkpt><trkpt lat="43.7870153853994" lon="11.62501662475915"><ele>951.0</ele><time>2026-05-03T13:25:11Z</time></trkpt><trkpt lat="43.786952267172694" lon="11.625208980979554"><ele>954.6666666666667</ele><time>2026-05-03T13:25:12Z</time></trkpt><trkpt lat="43.78693618105477" lon="11.625409972698165"><ele>958.3333333333334</ele><time>2026-05-03T13:25:13Z</time></trkpt><trkpt lat="43.78697235566118" lon="11.62563227908944"><ele>962.0</ele><time>2026-05-03T13:25:14Z</time></trkpt><trkpt lat="43.78705333862614" lon="11.625876085100156"><ele>962.0</ele><time>2026-05-03T13:25:15Z</time></trkpt><trkpt lat="43.787159711357496" lon="11.626121634650714"><ele>962.0</ele><time>2026-05-03T13:25:16Z</time></trkpt><trkpt lat="43.78731062840237" lon="11.626359644133025"><ele>962.0</ele><time>2026-05-03T13:25:17Z</time></trkpt><trkpt lat="43.787482640683045" lon="11.626581124528288"><ele>962.3333333333334</ele><time>2026-05-03T13:25:18Z</time></trkpt><trkpt lat="43.78763617163464" lon="11.626773473286846"><ele>962.6666666666667</ele><time>2026-05-03T13:25:19Z</time></trkpt><trkpt lat="43.78772400155811" lon="11.627002302753874"><ele>963.0</ele><time>2026-05-03T13:25:20Z</time></trkpt><trkpt lat="43.78783143792986" lon="11.62722709015884"><ele>968.0</ele><time>2026-05-03T13:25:21Z</time></trkpt><trkpt lat="43.787936095359704" lon="11.627422472992112"><ele>973.0</ele><time>2026-05-03T13:25:22Z</time></trkpt><trkpt lat="43.78804221215747" lon="11.627562053971173"><ele>978.0</ele><time>2026-05-03T13:25:23Z</time></trkpt><trkpt lat="43.78809087780201" lon="11.627708163491132"><ele>983.0</ele><time>2026-05-03T13:25:24Z</time></trkpt><trkpt lat="43.78805955764161" lon="11.627865413970088"><ele>982.0</ele><time>2026-05-03T13:25:25Z</time></trkpt><trkpt lat="43.78795375583511" lon="11.627952275251443"><ele>981.0</ele><time>2026-05-03T13:25:26Z</time></trkpt><trkpt lat="43.787835356135425" lon="11.627968837162623"><ele>980.0</ele><time>2026-05-03T13:25:27Z</time></trkpt><trkpt lat="43.787681165795426" lon="11.628037396704903"><ele>979.0</ele><time>2026-05-03T13:25:28Z</time></trkpt><trkpt lat="43.78752308020347" lon="11.62812669904123"><ele>979.0</ele><time>2026-05-03T13:25:29Z</time></trkpt><trkpt lat="43.78740434565504" lon="11.628299737671261"><ele>979.0</ele><time>2026-05-03T13:25:30Z</time></trkpt><trkpt lat="43.78734918549558" lon="11.628481597680146"><ele>979.0</ele><time>2026-05-03T13:25:31Z</time></trkpt><trkpt lat="43.78736856481919" lon="11.628637589431268"><ele>979.0</ele><time>2026-05-03T13:25:32Z</time></trkpt><trkpt lat="43.78744593144285" lon="11.62875585071309"><ele>977.5</ele><time>2026-05-03T13:25:33Z</time></trkpt><trkpt lat="43.787573640136614" lon="11.628850572673612"><ele>976.0</ele><time>2026-05-03T13:25:34Z</time></trkpt><trkpt lat="43.78769183389185" lon="11.628984648883367"><ele>974.5</ele><time>2026-05-03T13:25:35Z</time></trkpt><trkpt lat="43.7877842818534" lon="11.629139937360057"><ele>973.0</ele><time>2026-05-03T13:25:36Z</time></trkpt><trkpt lat="43.78779436845668" lon="11.629319071475914"><ele>974.0</ele><time>2026-05-03T13:25:37Z</time></trkpt><trkpt lat="43.78773858179737" lon="11.629479321220522"><ele>975.0</ele><time>2026-05-03T13:25:38Z</time></trkpt><trkpt lat="43.787629564204224" lon="11.629623770829866"><ele>976.0</ele><time>2026-05-03T13:25:39Z</time></trkpt><trkpt lat="43.78749079206599" lon="11.629782678334331"><ele>976.0</ele><time>2026-05-03T13:25:40Z</time></trkpt><trkpt lat="43.78734424485928" lon="11.629981290799025"><ele>976.0</ele><time>2026-05-03T13:25:41Z</time></trkpt><trkpt lat="43.78724428420217" lon="11.630242788288912"><ele>976.0</ele><time>2026-05-03T13:25:42Z</time></trkpt><trkpt lat="43.78719417218642" lon="11.63048282149384"><ele>975.25</ele><time>2026-05-03T13:25:43Z</time></trkpt><trkpt lat="43.78719724111972" lon="11.630662229846"><ele>974.5</ele><time>2026-05-03T13:25:44Z</time></trkpt><trkpt lat="43.7872610713218" lon="11.63082964901074"><ele>973.75</ele><time>2026-05-03T13:25:45Z</time></trkpt><trkpt lat="43.78737448057163" lon="11.630999645706208"><ele>973.0</ele><time>2026-05-03T13:25:46Z</time></trkpt><trkpt lat="43.7875352049928" lon="11.6311666763665"><ele>970.0</ele><time>2026-05-03T13:25:47Z</time></trkpt><trkpt lat="43.78772235315544" lon="11.631325894675937"><ele>967.0</ele><time>2026-05-03T13:25:48Z</time></trkpt><trkpt lat="43.78792066246407" lon="11.631448457590484"><ele>964.0</ele><time>2026-05-03T13:25:49Z</time></trkpt><trkpt lat="43.788085410804584" lon="11.631548075785796"><ele>964.0</ele><time>2026-05-03T13:25:50Z</time></trkpt><trkpt lat="43.78816685011724" lon="11.631732160732476"><ele>964.0</ele><time>2026-05-03T13:25:51Z</time></trkpt><trkpt lat="43.78821690735647" lon="11.63194322198302"><ele>964.0</ele><time>2026-05-03T13:25:52Z</time></trkpt><trkpt lat="43.78826760535397" lon="11.632221387626139"><ele>962.5</ele><time>2026-05-03T13:25:53Z</time></trkpt><trkpt lat="43.78830113278917" lon="11.632551964669535"><ele>961.0</ele><time>2026-05-03T13:25:54Z</time></trkpt><trkpt lat="43.7883466504449" lon="11.632920952905158"><ele>958.0</ele><time>2026-05-03T13:25:55Z</time></trkpt><trkpt lat="43.78838177015009" lon="11.633301837864435"><ele>955.0</ele><time>2026-05-03T13:25:56Z</time></trkpt><trkpt lat="43.788414756480904" lon="11.633646531572733"><ele>955.0</ele><time>2026-05-03T13:25:57Z</time></trkpt><trkpt lat="43.78843852393225" lon="11.633931996267977"><ele>955.0</ele><time>2026-05-03T13:25:58Z</time></trkpt><trkpt lat="43.788396821591206" lon="11.634171135131718"><ele>955.0</ele><time>2026-05-03T13:25:59Z</time></trkpt><trkpt lat="43.78831614460599" lon="11.634369406284325"><ele>957.3333333333333</ele><time>2026-05-03T13:26:00Z</time></trkpt><trkpt lat="43.78819151958548" lon="11.634579643215385"><ele>959.6666666666667</ele><time>2026-05-03T13:26:01Z</time></trkpt><trkpt lat="43.78805708105331" lon="11.634814426807845"><ele>962.0</ele><time>2026-05-03T13:26:02Z</time></trkpt><trkpt lat="43.78793605379426" lon="11.635023515233275"><ele>962.0</ele><time>2026-05-03T13:26:03Z</time></trkpt><trkpt lat="43.787872747212575" lon="11.63527915891529"><ele>962.0</ele><time>2026-05-03T13:26:04Z</time></trkpt><trkpt lat="43.7878433363594" lon="11.63556649264811"><ele>962.0</ele><time>2026-05-03T13:26:05Z</time></trkpt><trkpt lat="43.78783950588759" lon="11.63584743898194"><ele>965.0</ele><time>2026-05-03T13:26:06Z</time></trkpt><trkpt lat="43.78787821222471" lon="11.636137501954341"><ele>968.0</ele><time>2026-05-03T13:26:07Z</time></trkpt><trkpt lat="43.787936338146686" lon="11.636412929920143"><ele>971.0</ele><time>2026-05-03T13:26:08Z</time></trkpt><trkpt lat="43.78793990002936" lon="11.636695506207847"><ele>968.5</ele><time>2026-05-03T13:26:09Z</time></trkpt><trkpt lat="43.78793687196017" lon="11.63702784473778"><ele>966.0</ele><time>2026-05-03T13:26:10Z</time></trkpt><trkpt lat="43.78791651695778" lon="11.637357234735406"><ele>966.0</ele><time>2026-05-03T13:26:11Z</time></trkpt><trkpt lat="43.78791671567603" lon="11.637666507902734"><ele>966.0</ele><time>2026-05-03T13:26:12Z</time></trkpt><trkpt lat="43.787939149067746" lon="11.637960424284863"><ele>966.0</ele><time>2026-05-03T13:26:13Z</time></trkpt><trkpt lat="43.78796129320501" lon="11.638242105092079"><ele>963.6666666666667</ele><time>2026-05-03T13:26:14Z</time></trkpt><trkpt lat="43.78795847262446" lon="11.638528906267119"><ele>961.3333333333334</ele><time>2026-05-03T13:26:15Z</time></trkpt><trkpt lat="43.78789311563882" lon="11.638826323334742"><ele>959.0</ele><time>2026-05-03T13:26:16Z</time></trkpt><trkpt lat="43.78784025180753" lon="11.639111857524828"><ele>957.6666666666667</ele><time>2026-05-03T13:26:17Z</time></trkpt><trkpt lat="43.787757376352886" lon="11.639326919823962"><ele>956.3333333333333</ele><time>2026-05-03T13:26:18Z</time></trkpt><trkpt lat="43.78762101273206" lon="11.639425892184788"><ele>955.0</ele><time>2026-05-03T13:26:19Z</time></trkpt><trkpt lat="43.7874711685794" lon="11.639487152469249"><ele>958.3333333333333</ele><time>2026-05-03T13:26:20Z</time></trkpt><trkpt lat="43.78729650143389" lon="11.639571490021835"><ele>961.6666666666667</ele><time>2026-05-03T13:26:21Z</time></trkpt><trkpt lat="43.78711185167667" lon="11.639636056905166"><ele>965.0</ele><time>2026-05-03T13:26:22Z</time></trkpt><trkpt lat="43.78697083863045" lon="11.639724614124932"><ele>965.0</ele><time>2026-05-03T13:26:23Z</time></trkpt><trkpt lat="43.78689351014681" lon="11.639855538663872"><ele>965.0</ele><time>2026-05-03T13:26:24Z</time></trkpt><trkpt lat="43.786884680780304" lon="11.640034701759667"><ele>965.0</ele><time>2026-05-03T13:26:25Z</time></trkpt><trkpt lat="43.78694003627156" lon="11.640230945215455"><ele>965.0</ele><time>2026-05-03T13:26:26Z</time></trkpt><trkpt lat="43.787056005536094" lon="11.640420967516093"><ele>965.3333333333334</ele><time>2026-05-03T13:26:27Z</time></trkpt><trkpt lat="43.787189858835134" lon="11.64062732804644"><ele>965.6666666666667</ele><time>2026-05-03T13:26:28Z</time></trkpt><trkpt lat="43.78725882239806" lon="11.640882234433397"><ele>966.0</ele><time>2026-05-03T13:26:29Z</time></trkpt><trkpt lat="43.78725748307616" lon="11.64112023260799"><ele>964.3333333333333</ele><time>2026-05-03T13:26:30Z</time></trkpt><trkpt lat="43.787210649819876" lon="11.641333725919388"><ele>962.6666666666666</ele><time>2026-05-03T13:26:31Z</time></trkpt><trkpt lat="43.78715340809598" lon="11.641596116566513"><ele>961.0</ele><time>2026-05-03T13:26:32Z</time></trkpt><trkpt lat="43.787066702197755" lon="11.641888951018242"><ele>960.3333333333333</ele><time>2026-05-03T13:26:33Z</time></trkpt><trkpt lat="43.78700784337712" lon="11.642180168006165"><ele>959.6666666666667</ele><time>2026-05-03T13:26:34Z</time></trkpt><trkpt lat="43.78696926848642" lon="11.642452471018157"><ele>959.0</ele><time>2026-05-03T13:26:35Z</time></trkpt><trkpt lat="43.78696251067007" lon="11.642728601367004"><ele>960.3333333333334</ele><time>2026-05-03T13:26:36Z</time></trkpt><trkpt lat="43.786972146240636" lon="11.643024351687322"><ele>961.6666666666667</ele><time>2026-05-03T13:26:37Z</time></trkpt><trkpt lat="43.78699685481392" lon="11.64331020750253"><ele>963.0</ele><time>2026-05-03T13:26:38Z</time></trkpt><trkpt lat="43.787050555374044" lon="11.643584284568457"><ele>962.3333333333333</ele><time>2026-05-03T13:26:39Z</time></trkpt><trkpt lat="43.78714679172376" lon="11.643846134407031"><ele>961.6666666666666</ele><time>2026-05-03T13:26:40Z</time></trkpt><trkpt lat="43.78727717167834" lon="11.644100199330154"><ele>961.0</ele><time>2026-05-03T13:26:41Z</time></trkpt><trkpt lat="43.78739438818667" lon="11.64433581559212"><ele>959.6666666666666</ele><time>2026-05-03T13:26:42Z</time></trkpt><trkpt lat="43.7874489112703" lon="11.644577680410457"><ele>958.3333333333333</ele><time>2026-05-03T13:26:43Z</time></trkpt><trkpt lat="43.78745609172336" lon="11.644810244013327"><ele>957.0</ele><time>2026-05-03T13:26:44Z</time></trkpt><trkpt lat="43.787421316609965" lon="11.64505200525304"><ele>959.5</ele><time>2026-05-03T13:26:45Z</time></trkpt><trkpt lat="43.78730967803336" lon="11.64531909183561"><ele>962.0</ele><time>2026-05-03T13:26:46Z</time></trkpt><trkpt lat="43.78717970080266" lon="11.645592589168494"><ele>962.0</ele><time>2026-05-03T13:26:47Z</time></trkpt><trkpt lat="43.78709038836337" lon="11.645855491078478"><ele>962.0</ele><time>2026-05-03T13:26:48Z</time></trkpt><trkpt lat="43.78701298609256" lon="11.646111519494651"><ele>962.0</ele><time>2026-05-03T13:26:49Z</time></trkpt><trkpt lat="43.78694203742078" lon="11.646365606881979"><ele>963.0</ele><time>2026-05-03T13:26:50Z</time></trkpt><trkpt lat="43.78687060715902" lon="11.646614085276955"><ele>964.0</ele><time>2026-05-03T13:26:51Z</time></trkpt><trkpt lat="43.78679690907524" lon="11.646860198612709"><ele>965.0</ele><time>2026-05-03T13:26:52Z</time></trkpt><trkpt lat="43.786725020012994" lon="11.647094094844016"><ele>960.75</ele><time>2026-05-03T13:26:53Z</time></trkpt><trkpt lat="43.78666418673519" lon="11.647287243152048"><ele>956.5</ele><time>2026-05-03T13:26:54Z</time></trkpt><trkpt lat="43.78660860330513" lon="11.647464545284388"><ele>952.25</ele><time>2026-05-03T13:26:55Z</time></trkpt><trkpt lat="43.786565491580355" lon="11.647638402146294"><ele>948.0</ele><time>2026-05-03T13:26:56Z</time></trkpt><trkpt lat="43.78653807357122" lon="11.647844564403488"><ele>948.0</ele><time>2026-05-03T13:26:57Z</time></trkpt><trkpt lat="43.7865400140555" lon="11.648115662710268"><ele>948.0</ele><time>2026-05-03T13:26:58Z</time></trkpt><trkpt lat="43.78656163707587" lon="11.648430913035092"><ele>948.0</ele><time>2026-05-03T13:26:59Z</time></trkpt><trkpt lat="43.78657592043728" lon="11.648774221867454"><ele>949.0</ele><time>2026-05-03T13:27:00Z</time></trkpt><trkpt lat="43.78656958245019" lon="11.649095241381353"><ele>950.0</ele><time>2026-05-03T13:27:01Z</time></trkpt><trkpt lat="43.786537200977044" lon="11.64937911696922"><ele>951.0</ele><time>2026-05-03T13:27:02Z</time></trkpt><trkpt lat="43.78647653415555" lon="11.649627642722084"><ele>952.6666666666667</ele><time>2026-05-03T13:27:03Z</time></trkpt><trkpt lat="43.78638993673384" lon="11.649850108545504"><ele>954.3333333333334</ele><time>2026-05-03T13:27:04Z</time></trkpt><trkpt lat="43.786258228780014" lon="11.650004266132125"><ele>956.0</ele><time>2026-05-03T13:27:05Z</time></trkpt><trkpt lat="43.78610199986414" lon="11.650147892615461"><ele>956.0</ele><time>2026-05-03T13:27:06Z</time></trkpt><trkpt lat="43.78592297238324" lon="11.650308701533833"><ele>956.0</ele><time>2026-05-03T13:27:07Z</time></trkpt><trkpt lat="43.78572905561048" lon="11.650451296076167"><ele>956.0</ele><time>2026-05-03T13:27:08Z</time></trkpt><trkpt lat="43.78554889671765" lon="11.650549281666022"><ele>956.0</ele><time>2026-05-03T13:27:09Z</time></trkpt><trkpt lat="43.78536764529871" lon="11.65052128333786"><ele>956.0</ele><time>2026-05-03T13:27:10Z</time></trkpt><trkpt lat="43.7851878302767" lon="11.650479144960277"><ele>956.0</ele><time>2026-05-03T13:27:11Z</time></trkpt><trkpt lat="43.785029148711615" lon="11.650441836142207"><ele>955.6666666666667</ele><time>2026-05-03T13:27:12Z</time></trkpt><trkpt lat="43.784898386960386" lon="11.650366427185181"><ele>955.3333333333333</ele><time>2026-05-03T13:27:13Z</time></trkpt><trkpt lat="43.78476520855428" lon="11.650284521204142"><ele>955.0</ele><time>2026-05-03T13:27:14Z</time></trkpt><trkpt lat="43.784612287380305" lon="11.65019453227501"><ele>955.0</ele><time>2026-05-03T13:27:15Z</time></trkpt><trkpt lat="43.78443926820618" lon="11.650104868206347"><ele>955.0</ele><time>2026-05-03T13:27:16Z</time></trkpt><trkpt lat="43.784256374195856" lon="11.6500046376059"><ele>955.0</ele><time>2026-05-03T13:27:17Z</time></trkpt><trkpt lat="43.784065333404584" lon="11.649901242307186"><ele>955.0</ele><time>2026-05-03T13:27:18Z</time></trkpt><trkpt lat="43.783886444363915" lon="11.649796634758264"><ele>955.0</ele><time>2026-05-03T13:27:19Z</time></trkpt><trkpt lat="43.783716245131686" lon="11.649714126785947"><ele>955.0</ele><time>2026-05-03T13:27:20Z</time></trkpt><trkpt lat="43.78352723223829" lon="11.64967465648299"><ele>956.0</ele><time>2026-05-03T13:27:21Z</time></trkpt><trkpt lat="43.783312489833285" lon="11.649684553634733"><ele>957.0</ele><time>2026-05-03T13:27:22Z</time></trkpt><trkpt lat="43.78309485938218" lon="11.649719283256314"><ele>958.0</ele><time>2026-05-03T13:27:23Z</time></trkpt><trkpt lat="43.78288307743541" lon="11.64975652037677"><ele>958.0</ele><time>2026-05-03T13:27:24Z</time></trkpt><trkpt lat="43.78269119542623" lon="11.649830526835192"><ele>958.0</ele><time>2026-05-03T13:27:25Z</time></trkpt><trkpt lat="43.78251403797883" lon="11.64995882621974"><ele>958.0</ele><time>2026-05-03T13:27:26Z</time></trkpt><trkpt lat="43.78233784298057" lon="11.650140389294116"><ele>964.0</ele><time>2026-05-03T13:27:27Z</time></trkpt><trkpt lat="43.782151464671585" lon="11.650332836637633"><ele>970.0</ele><time>2026-05-03T13:27:28Z</time></trkpt><trkpt lat="43.78196286834672" lon="11.650492355023358"><ele>962.0</ele><time>2026-05-03T13:27:29Z</time></trkpt><trkpt lat="43.781773572337904" lon="11.650612089735073"><ele>954.0</ele><time>2026-05-03T13:27:30Z</time></trkpt><trkpt lat="43.781597210950146" lon="11.650728430792114"><ele>946.0</ele><time>2026-05-03T13:27:31Z</time></trkpt><trkpt lat="43.78144194765797" lon="11.650881858660188"><ele>946.0</ele><time>2026-05-03T13:27:32Z</time></trkpt><trkpt lat="43.78132513791755" lon="11.651052806840704"><ele>946.0</ele><time>2026-05-03T13:27:33Z</time></trkpt><trkpt lat="43.78125255650555" lon="11.651244016224497"><ele>946.0</ele><time>2026-05-03T13:27:34Z</time></trkpt><trkpt lat="43.781223777323326" lon="11.65147061518295"><ele>949.6666666666666</ele><time>2026-05-03T13:27:35Z</time></trkpt><trkpt lat="43.78121171659055" lon="11.651750217269738"><ele>953.3333333333333</ele><time>2026-05-03T13:27:36Z</time></trkpt><trkpt lat="43.781191287450895" lon="11.6520530383539"><ele>957.0</ele><time>2026-05-03T13:27:37Z</time></trkpt><trkpt lat="43.78116566989868" lon="11.65231863151253"><ele>957.0</ele><time>2026-05-03T13:27:38Z</time></trkpt><trkpt lat="43.78114749687677" lon="11.652547800372384"><ele>957.0</ele><time>2026-05-03T13:27:39Z</time></trkpt><trkpt lat="43.78116715401162" lon="11.652763388012115"><ele>957.0</ele><time>2026-05-03T13:27:40Z</time></trkpt><trkpt lat="43.7812440963564" lon="11.652989529517509"><ele>955.6666666666667</ele><time>2026-05-03T13:27:41Z</time></trkpt><trkpt lat="43.781347233922325" lon="11.653216009097171"><ele>954.3333333333334</ele><time>2026-05-03T13:27:42Z</time></trkpt><trkpt lat="43.78138144522031" lon="11.653466806425525"><ele>953.0</ele><time>2026-05-03T13:27:43Z</time></trkpt><trkpt lat="43.781394894030036" lon="11.653730666259676"><ele>949.0</ele><time>2026-05-03T13:27:44Z</time></trkpt><trkpt lat="43.78142233160661" lon="11.653933023102304"><ele>945.0</ele><time>2026-05-03T13:27:45Z</time></trkpt><trkpt lat="43.78151093565269" lon="11.654194188982864"><ele>941.0</ele><time>2026-05-03T13:27:46Z</time></trkpt><trkpt lat="43.78164630316457" lon="11.654416278819605"><ele>945.0</ele><time>2026-05-03T13:27:47Z</time></trkpt><trkpt lat="43.781825874019745" lon="11.65461660840703"><ele>949.0</ele><time>2026-05-03T13:27:48Z</time></trkpt><trkpt lat="43.78200465195201" lon="11.654840251634832"><ele>949.0</ele><time>2026-05-03T13:27:49Z</time></trkpt><trkpt lat="43.782163688857224" lon="11.65504558747674"><ele>949.0</ele><time>2026-05-03T13:27:50Z</time></trkpt><trkpt lat="43.782306160167174" lon="11.655229535856634"><ele>949.0</ele><time>2026-05-03T13:27:51Z</time></trkpt><trkpt lat="43.78242423348677" lon="11.65542093106208"><ele>947.6666666666666</ele><time>2026-05-03T13:27:52Z</time></trkpt><trkpt lat="43.78246713566939" lon="11.655682488965066"><ele>946.3333333333333</ele><time>2026-05-03T13:27:53Z</time></trkpt><trkpt lat="43.78246486988614" lon="11.655973894326841"><ele>945.0</ele><time>2026-05-03T13:27:54Z</time></trkpt><trkpt lat="43.78243061605678" lon="11.656269969822585"><ele>945.0</ele><time>2026-05-03T13:27:55Z</time></trkpt><trkpt lat="43.782365358695145" lon="11.65653540220168"><ele>945.0</ele><time>2026-05-03T13:27:56Z</time></trkpt><trkpt lat="43.78220732256657" lon="11.65669521445373"><ele>945.0</ele><time>2026-05-03T13:27:57Z</time></trkpt><trkpt lat="43.78203381947651" lon="11.656863744945607"><ele>944.6666666666667</ele><time>2026-05-03T13:27:58Z</time></trkpt><trkpt lat="43.78184441889232" lon="11.657037531651872"><ele>944.3333333333334</ele><time>2026-05-03T13:27:59Z</time></trkpt><trkpt lat="43.781653950173734" lon="11.657195924947194"><ele>944.0</ele><time>2026-05-03T13:28:00Z</time></trkpt><trkpt lat="43.781508584419505" lon="11.657353286807373"><ele>944.0</ele><time>2026-05-03T13:28:01Z</time></trkpt><trkpt lat="43.78142411782676" lon="11.657530015449485"><ele>944.0</ele><time>2026-05-03T13:28:02Z</time></trkpt><trkpt lat="43.781395562531415" lon="11.657744176154633"><ele>944.0</ele><time>2026-05-03T13:28:03Z</time></trkpt><trkpt lat="43.78140078591885" lon="11.657999504916281"><ele>946.0</ele><time>2026-05-03T13:28:04Z</time></trkpt><trkpt lat="43.78141847368336" lon="11.658290383429051"><ele>948.0</ele><time>2026-05-03T13:28:05Z</time></trkpt><trkpt lat="43.78143006040178" lon="11.658613609309253"><ele>950.0</ele><time>2026-05-03T13:28:06Z</time></trkpt><trkpt lat="43.78143470840803" lon="11.658963581633598"><ele>950.0</ele><time>2026-05-03T13:28:07Z</time></trkpt><trkpt lat="43.78144325301536" lon="11.659311288333805"><ele>950.0</ele><time>2026-05-03T13:28:08Z</time></trkpt><trkpt lat="43.78147633327293" lon="11.659620367842214"><ele>948.6666666666667</ele><time>2026-05-03T13:28:09Z</time></trkpt><trkpt lat="43.781536025600566" lon="11.659901201943523"><ele>947.3333333333333</ele><time>2026-05-03T13:28:10Z</time></trkpt><trkpt lat="43.78159399144174" lon="11.660172370812997"><ele>946.0</ele><time>2026-05-03T13:28:11Z</time></trkpt><trkpt lat="43.78157905829378" lon="11.660420075686135"><ele>944.6666666666666</ele><time>2026-05-03T13:28:12Z</time></trkpt><trkpt lat="43.781513575600115" lon="11.660618753004359"><ele>943.3333333333333</ele><time>2026-05-03T13:28:13Z</time></trkpt><trkpt lat="43.78145636489431" lon="11.660827794367194"><ele>942.0</ele><time>2026-05-03T13:28:14Z</time></trkpt><trkpt lat="43.78137460029942" lon="11.661000992059119"><ele>940.3333333333333</ele><time>2026-05-03T13:28:15Z</time></trkpt><trkpt lat="43.7813448887104" lon="11.661175542663353"><ele>938.6666666666666</ele><time>2026-05-03T13:28:16Z</time></trkpt><trkpt lat="43.78137973291874" lon="11.661371218349222"><ele>937.0</ele><time>2026-05-03T13:28:17Z</time></trkpt><trkpt lat="43.78146076018125" lon="11.66159709284133"><ele>937.0</ele><time>2026-05-03T13:28:18Z</time></trkpt><trkpt lat="43.78155161591066" lon="11.661872427990188"><ele>937.0</ele><time>2026-05-03T13:28:19Z</time></trkpt><trkpt lat="43.78162754430242" lon="11.662166147692606"><ele>937.0</ele><time>2026-05-03T13:28:20Z</time></trkpt><trkpt lat="43.78168296789868" lon="11.662442655679818"><ele>934.6666666666666</ele><time>2026-05-03T13:28:21Z</time></trkpt><trkpt lat="43.78172615245803" lon="11.662703536780489"><ele>932.3333333333333</ele><time>2026-05-03T13:28:22Z</time></trkpt><trkpt lat="43.781750420650745" lon="11.66294694397594"><ele>930.0</ele><time>2026-05-03T13:28:23Z</time></trkpt><trkpt lat="43.7817483350743" lon="11.663203510925095"><ele>929.3333333333333</ele><time>2026-05-03T13:28:24Z</time></trkpt><trkpt lat="43.781714013545816" lon="11.663471827610245"><ele>928.6666666666666</ele><time>2026-05-03T13:28:25Z</time></trkpt><trkpt lat="43.78160775441168" lon="11.663713942912095"><ele>928.0</ele><time>2026-05-03T13:28:26Z</time></trkpt><trkpt lat="43.78148378038041" lon="11.663991474029894"><ele>928.0</ele><time>2026-05-03T13:28:27Z</time></trkpt><trkpt lat="43.78135860787868" lon="11.664305814930009"><ele>928.0</ele><time>2026-05-03T13:28:28Z</time></trkpt><trkpt lat="43.78120869075858" lon="11.664627892021498"><ele>929.0</ele><time>2026-05-03T13:28:29Z</time></trkpt><trkpt lat="43.781073962411966" lon="11.664930909007142"><ele>930.0</ele><time>2026-05-03T13:28:30Z</time></trkpt><trkpt lat="43.78095402736087" lon="11.665197669288329"><ele>920.6666666666667</ele><time>2026-05-03T13:28:31Z</time></trkpt><trkpt lat="43.780860482217975" lon="11.665424644920677"><ele>911.3333333333334</ele><time>2026-05-03T13:28:32Z</time></trkpt><trkpt lat="43.780792275235775" lon="11.66566491875812"><ele>902.0</ele><time>2026-05-03T13:28:33Z</time></trkpt><trkpt lat="43.78077783885687" lon="11.665915386585665"><ele>900.3333333333334</ele><time>2026-05-03T13:28:34Z</time></trkpt><trkpt lat="43.780781506593456" lon="11.666202590189034"><ele>898.6666666666667</ele><time>2026-05-03T13:28:35Z</time></trkpt><trkpt lat="43.7807822563315" lon="11.66649073084091"><ele>897.0</ele><time>2026-05-03T13:28:36Z</time></trkpt><trkpt lat="43.780780929053286" lon="11.666740017500503"><ele>897.0</ele><time>2026-05-03T13:28:37Z</time></trkpt><trkpt lat="43.78082263668011" lon="11.66693301735019"><ele>897.0</ele><time>2026-05-03T13:28:38Z</time></trkpt><trkpt lat="43.78092892304253" lon="11.66712712637775"><ele>897.0</ele><time>2026-05-03T13:28:39Z</time></trkpt><trkpt lat="43.781077221531184" lon="11.667353288124687"><ele>900.3333333333333</ele><time>2026-05-03T13:28:40Z</time></trkpt><trkpt lat="43.7811962946855" lon="11.6675609511537"><ele>903.6666666666666</ele><time>2026-05-03T13:28:41Z</time></trkpt><trkpt lat="43.781221899193014" lon="11.667778915543186"><ele>907.0</ele><time>2026-05-03T13:28:42Z</time></trkpt><trkpt lat="43.781215608650555" lon="11.668032543741418"><ele>907.0</ele><time>2026-05-03T13:28:43Z</time></trkpt><trkpt lat="43.781216422997296" lon="11.668345159022232"><ele>907.0</ele><time>2026-05-03T13:28:44Z</time></trkpt><trkpt lat="43.781197677119835" lon="11.668670105626639"><ele>904.6666666666666</ele><time>2026-05-03T13:28:45Z</time></trkpt><trkpt lat="43.78121242974782" lon="11.668946023854748"><ele>902.3333333333333</ele><time>2026-05-03T13:28:46Z</time></trkpt><trkpt lat="43.781273770993245" lon="11.669187202094708"><ele>900.0</ele><time>2026-05-03T13:28:47Z</time></trkpt><trkpt lat="43.78137193033209" lon="11.669426434573786"><ele>895.0</ele><time>2026-05-03T13:28:48Z</time></trkpt><trkpt lat="43.78145064914154" lon="11.669695948194496"><ele>890.0</ele><time>2026-05-03T13:28:49Z</time></trkpt><trkpt lat="43.78145505078475" lon="11.669998031749362"><ele>885.0</ele><time>2026-05-03T13:28:50Z</time></trkpt><trkpt lat="43.781418863302996" lon="11.670294398782032"><ele>883.5</ele><time>2026-05-03T13:28:51Z</time></trkpt><trkpt lat="43.78134994378108" lon="11.67060925430259"><ele>882.0</ele><time>2026-05-03T13:28:52Z</time></trkpt><trkpt lat="43.78129971200244" lon="11.670932653439634"><ele>882.0</ele><time>2026-05-03T13:28:53Z</time></trkpt><trkpt lat="43.78123317603793" lon="11.671226524226478"><ele>882.0</ele><time>2026-05-03T13:28:54Z</time></trkpt><trkpt lat="43.78114720816447" lon="11.671509045879272"><ele>882.0</ele><time>2026-05-03T13:28:55Z</time></trkpt><trkpt lat="43.78103702818311" lon="11.671777352457493"><ele>874.3333333333333</ele><time>2026-05-03T13:28:56Z</time></trkpt><trkpt lat="43.78092597855641" lon="11.672031464377223"><ele>866.6666666666666</ele><time>2026-05-03T13:28:57Z</time></trkpt><trkpt lat="43.780811475467075" lon="11.672281010456492"><ele>859.0</ele><time>2026-05-03T13:28:58Z</time></trkpt><trkpt lat="43.7806861072544" lon="11.672543485051094"><ele>860.6666666666666</ele><time>2026-05-03T13:28:59Z</time></trkpt><trkpt lat="43.780561667528914" lon="11.672796999681479"><ele>862.3333333333333</ele><time>2026-05-03T13:29:00Z</time></trkpt><trkpt lat="43.78044664697816" lon="11.673014643942368"><ele>864.0</ele><time>2026-05-03T13:29:01Z</time></trkpt><trkpt lat="43.78031917506071" lon="11.67313837441851"><ele>864.0</ele><time>2026-05-03T13:29:02Z</time></trkpt><trkpt lat="43.78019184976812" lon="11.673193462486514"><ele>864.0</ele><time>2026-05-03T13:29:03Z</time></trkpt><trkpt lat="43.78005353256424" lon="11.67324678205545"><ele>864.0</ele><time>2026-05-03T13:29:04Z</time></trkpt><trkpt lat="43.77992250861287" lon="11.673300198486157"><ele>864.0</ele><time>2026-05-03T13:29:05Z</time></trkpt><trkpt lat="43.77982392771192" lon="11.673433519599266"><ele>858.0</ele><time>2026-05-03T13:29:06Z</time></trkpt><trkpt lat="43.77977841399765" lon="11.673611885461021"><ele>852.0</ele><time>2026-05-03T13:29:07Z</time></trkpt><trkpt lat="43.77978126619284" lon="11.673837778848887"><ele>846.0</ele><time>2026-05-03T13:29:08Z</time></trkpt><trkpt lat="43.77981374679598" lon="11.674098268748818"><ele>846.0</ele><time>2026-05-03T13:29:09Z</time></trkpt><trkpt lat="43.779815335732884" lon="11.67438783371201"><ele>846.0</ele><time>2026-05-03T13:29:10Z</time></trkpt><trkpt lat="43.77972761283752" lon="11.674663027039745"><ele>846.0</ele><time>2026-05-03T13:29:11Z</time></trkpt><trkpt lat="43.77966472331984" lon="11.674993185464464"><ele>843.0</ele><time>2026-05-03T13:29:12Z</time></trkpt><trkpt lat="43.77959532400759" lon="11.675322954244997"><ele>840.0</ele><time>2026-05-03T13:29:13Z</time></trkpt><trkpt lat="43.77955473490549" lon="11.675636228207562"><ele>840.0</ele><time>2026-05-03T13:29:14Z</time></trkpt><trkpt lat="43.77952462391529" lon="11.675936222665754"><ele>840.0</ele><time>2026-05-03T13:29:15Z</time></trkpt><trkpt lat="43.77949821067101" lon="11.676212840875786"><ele>840.0</ele><time>2026-05-03T13:29:16Z</time></trkpt><trkpt lat="43.77946382635042" lon="11.676461571414004"><ele>839.0</ele><time>2026-05-03T13:29:17Z</time></trkpt><trkpt lat="43.77941610624009" lon="11.676706571619722"><ele>838.0</ele><time>2026-05-03T13:29:18Z</time></trkpt><trkpt lat="43.77936012093729" lon="11.676949145140913"><ele>837.0</ele><time>2026-05-03T13:29:19Z</time></trkpt><trkpt lat="43.779301216380176" lon="11.677198876968392"><ele>830.3333333333333</ele><time>2026-05-03T13:29:20Z</time></trkpt><trkpt lat="43.77924689720091" lon="11.677453135692685"><ele>823.6666666666666</ele><time>2026-05-03T13:29:21Z</time></trkpt><trkpt lat="43.77919606288169" lon="11.677701839377356"><ele>817.0</ele><time>2026-05-03T13:29:22Z</time></trkpt><trkpt lat="43.77914592664735" lon="11.677931068511604"><ele>817.0</ele><time>2026-05-03T13:29:23Z</time></trkpt><trkpt lat="43.77909237566744" lon="11.678153335997758"><ele>817.0</ele><time>2026-05-03T13:29:24Z</time></trkpt><trkpt lat="43.7790199125621" lon="11.678343970099494"><ele>817.0</ele><time>2026-05-03T13:29:25Z</time></trkpt><trkpt lat="43.778901171531096" lon="11.678469533053455"><ele>817.0</ele><time>2026-05-03T13:29:26Z</time></trkpt><trkpt lat="43.778735550575604" lon="11.678482710507655"><ele>817.0</ele><time>2026-05-03T13:29:27Z</time></trkpt><trkpt lat="43.778535624291735" lon="11.678519268735055"><ele>817.0</ele><time>2026-05-03T13:29:28Z</time></trkpt><trkpt lat="43.7783395613598" lon="11.678559270388288"><ele>814.0</ele><time>2026-05-03T13:29:29Z</time></trkpt><trkpt lat="43.778171169771504" lon="11.678589215502972"><ele>811.0</ele><time>2026-05-03T13:29:30Z</time></trkpt><trkpt lat="43.77804446085815" lon="11.678636192215771"><ele>808.0</ele><time>2026-05-03T13:29:31Z</time></trkpt><trkpt lat="43.777950055792445" lon="11.678719685342783"><ele>805.0</ele><time>2026-05-03T13:29:32Z</time></trkpt><trkpt lat="43.77787701002669" lon="11.678870403906641"><ele>805.0</ele><time>2026-05-03T13:29:33Z</time></trkpt><trkpt lat="43.77781962014077" lon="11.679097815009651"><ele>805.0</ele><time>2026-05-03T13:29:34Z</time></trkpt><trkpt lat="43.777776515206" lon="11.679399739871736"><ele>805.0</ele><time>2026-05-03T13:29:35Z</time></trkpt><trkpt lat="43.777759359145385" lon="11.679746881292756"><ele>803.5</ele><time>2026-05-03T13:29:36Z</time></trkpt><trkpt lat="43.77777594576449" lon="11.680102770257752"><ele>802.0</ele><time>2026-05-03T13:29:37Z</time></trkpt><trkpt lat="43.77780532824655" lon="11.680395489079263"><ele>798.0</ele><time>2026-05-03T13:29:38Z</time></trkpt><trkpt lat="43.777850339614346" lon="11.680655530815647"><ele>794.0</ele><time>2026-05-03T13:29:39Z</time></trkpt><trkpt lat="43.777891079201005" lon="11.680880964475104"><ele>790.0</ele><time>2026-05-03T13:29:40Z</time></trkpt><trkpt lat="43.77792302738374" lon="11.681086978941366"><ele>787.6666666666666</ele><time>2026-05-03T13:29:41Z</time></trkpt><trkpt lat="43.77795246819381" lon="11.681293417133354"><ele>785.3333333333333</ele><time>2026-05-03T13:29:42Z</time></trkpt><trkpt lat="43.77797561455323" lon="11.681502430929745"><ele>783.0</ele><time>2026-05-03T13:29:43Z</time></trkpt><trkpt lat="43.77799753732252" lon="11.681721241372786"><ele>783.0</ele><time>2026-05-03T13:29:44Z</time></trkpt><trkpt lat="43.77801663015136" lon="11.681952710692896"><ele>783.0</ele><time>2026-05-03T13:29:45Z</time></trkpt><trkpt lat="43.7779818056322" lon="11.682205330658968"><ele>783.0</ele><time>2026-05-03T13:29:46Z</time></trkpt><trkpt lat="43.777908041364405" lon="11.682464475932523"><ele>783.0</ele><time>2026-05-03T13:29:47Z</time></trkpt><trkpt lat="43.77778578258502" lon="11.682733094488482"><ele>783.0</ele><time>2026-05-03T13:29:48Z</time></trkpt><trkpt lat="43.77764078786143" lon="11.683024320953177"><ele>775.5</ele><time>2026-05-03T13:29:49Z</time></trkpt><trkpt lat="43.7775039771217" lon="11.683307478210354"><ele>768.0</ele><time>2026-05-03T13:29:50Z</time></trkpt><trkpt lat="43.777387733393766" lon="11.683543992085992"><ele>769.3333333333333</ele><time>2026-05-03T13:29:51Z</time></trkpt><trkpt lat="43.77731197131139" lon="11.683778254950859"><ele>770.6666666666666</ele><time>2026-05-03T13:29:52Z</time></trkpt><trkpt lat="43.77725243736663" lon="11.68401963405012"><ele>772.0</ele><time>2026-05-03T13:29:53Z</time></trkpt><trkpt lat="43.77714544544395" lon="11.684203967562919"><ele>772.0</ele><time>2026-05-03T13:29:54Z</time></trkpt><trkpt lat="43.77699699031382" lon="11.684366651680145"><ele>772.0</ele><time>2026-05-03T13:29:55Z</time></trkpt><trkpt lat="43.776881563747075" lon="11.68458416961883"><ele>772.0</ele><time>2026-05-03T13:29:56Z</time></trkpt><trkpt lat="43.776774950186486" lon="11.68483516302903"><ele>767.3333333333333</ele><time>2026-05-03T13:29:57Z</time></trkpt><trkpt lat="43.77667760774795" lon="11.685096694669207"><ele>762.6666666666666</ele><time>2026-05-03T13:29:58Z</time></trkpt><trkpt lat="43.7765210475752" lon="11.685258522548134"><ele>758.0</ele><time>2026-05-03T13:29:59Z</time></trkpt><trkpt lat="43.7763438532558" lon="11.685376609733481"><ele>758.0</ele><time>2026-05-03T13:30:00Z</time></trkpt><trkpt lat="43.77613457530107" lon="11.685467967455985"><ele>758.0</ele><time>2026-05-03T13:30:01Z</time></trkpt><trkpt lat="43.775939771405085" lon="11.685548867623108"><ele>758.0</ele><time>2026-05-03T13:30:02Z</time></trkpt><trkpt lat="43.77576387093251" lon="11.685629420434228"><ele>757.0</ele><time>2026-05-03T13:30:03Z</time></trkpt><trkpt lat="43.77559301393457" lon="11.685762010241456"><ele>756.0</ele><time>2026-05-03T13:30:04Z</time></trkpt><trkpt lat="43.7754262351276" lon="11.685931952108406"><ele>755.0</ele><time>2026-05-03T13:30:05Z</time></trkpt><trkpt lat="43.77527721714024" lon="11.68609697840191"><ele>748.75</ele><time>2026-05-03T13:30:06Z</time></trkpt><trkpt lat="43.775138424368194" lon="11.686247554842788"><ele>742.5</ele><time>2026-05-03T13:30:07Z</time></trkpt><trkpt lat="43.77502280998686" lon="11.686375825937755"><ele>736.25</ele><time>2026-05-03T13:30:08Z</time></trkpt><trkpt lat="43.774954827800364" lon="11.686520680341971"><ele>730.0</ele><time>2026-05-03T13:30:09Z</time></trkpt><trkpt lat="43.77494421991623" lon="11.686705995397315"><ele>730.0</ele><time>2026-05-03T13:30:10Z</time></trkpt><trkpt lat="43.77498435228713" lon="11.686905949097337"><ele>730.0</ele><time>2026-05-03T13:30:11Z</time></trkpt><trkpt lat="43.775033402066825" lon="11.687111252501394"><ele>730.0</ele><time>2026-05-03T13:30:12Z</time></trkpt><trkpt lat="43.77501290387091" lon="11.687323291302153"><ele>731.0</ele><time>2026-05-03T13:30:13Z</time></trkpt><trkpt lat="43.77489448573649" lon="11.687509407249038"><ele>732.0</ele><time>2026-05-03T13:30:14Z</time></trkpt><trkpt lat="43.77479099882154" lon="11.687745791132187"><ele>733.0</ele><time>2026-05-03T13:30:15Z</time></trkpt><trkpt lat="43.77468819240738" lon="11.687966304898918"><ele>734.3333333333334</ele><time>2026-05-03T13:30:16Z</time></trkpt><trkpt lat="43.774639561649835" lon="11.688222449815603"><ele>735.6666666666666</ele><time>2026-05-03T13:30:17Z</time></trkpt><trkpt lat="43.77462987791085" lon="11.688510274691794"><ele>737.0</ele><time>2026-05-03T13:30:18Z</time></trkpt><trkpt lat="43.774668479200436" lon="11.688800773940727"><ele>737.0</ele><time>2026-05-03T13:30:19Z</time></trkpt><trkpt lat="43.7746817432647" lon="11.689118909621762"><ele>737.0</ele><time>2026-05-03T13:30:20Z</time></trkpt><trkpt lat="43.7746802134488" lon="11.689421020991196"><ele>737.0</ele><time>2026-05-03T13:30:21Z</time></trkpt><trkpt lat="43.774687732714796" lon="11.689712776216712"><ele>733.0</ele><time>2026-05-03T13:30:22Z</time></trkpt><trkpt lat="43.77468140195399" lon="11.689987915891273"><ele>729.0</ele><time>2026-05-03T13:30:23Z</time></trkpt><trkpt lat="43.774679382207665" lon="11.690251618947597"><ele>725.0</ele><time>2026-05-03T13:30:24Z</time></trkpt><trkpt lat="43.77470696056082" lon="11.690519181264426"><ele>722.3333333333333</ele><time>2026-05-03T13:30:25Z</time></trkpt><trkpt lat="43.774772020481215" lon="11.690804436628577"><ele>719.6666666666666</ele><time>2026-05-03T13:30:26Z</time></trkpt><trkpt lat="43.774831644717445" lon="11.691056454902219"><ele>717.0</ele><time>2026-05-03T13:30:27Z</time></trkpt><trkpt lat="43.774872770021375" lon="11.691250546023522"><ele>714.5</ele><time>2026-05-03T13:30:28Z</time></trkpt><trkpt lat="43.774905066980416" lon="11.691415223710322"><ele>712.0</ele><time>2026-05-03T13:30:29Z</time></trkpt><trkpt lat="43.774970264157275" lon="11.691540290876713"><ele>709.5</ele><time>2026-05-03T13:30:30Z</time></trkpt><trkpt lat="43.775085153572974" lon="11.691608040827937"><ele>707.0</ele><time>2026-05-03T13:30:31Z</time></trkpt><trkpt lat="43.77522183839388" lon="11.69159339069432"><ele>707.0</ele><time>2026-05-03T13:30:32Z</time></trkpt><trkpt lat="43.775347783926485" lon="11.691510542383538"><ele>707.0</ele><time>2026-05-03T13:30:33Z</time></trkpt><trkpt lat="43.77547828310004" lon="11.691360414931872"><ele>707.0</ele><time>2026-05-03T13:30:34Z</time></trkpt><trkpt lat="43.77560588157693" lon="11.691271302680901"><ele>707.0</ele><time>2026-05-03T13:30:35Z</time></trkpt><trkpt lat="43.775723004788425" lon="11.691331586947822"><ele>707.0</ele><time>2026-05-03T13:30:36Z</time></trkpt><trkpt lat="43.77579042064459" lon="11.691502354908184"><ele>707.0</ele><time>2026-05-03T13:30:37Z</time></trkpt><trkpt lat="43.775897355073155" lon="11.691676721653359"><ele>707.0</ele><time>2026-05-03T13:30:38Z</time></trkpt><trkpt lat="43.77602786509941" lon="11.691830902060678"><ele>707.25</ele><time>2026-05-03T13:30:39Z</time></trkpt><trkpt lat="43.77616819545068" lon="11.691924620774763"><ele>707.5</ele><time>2026-05-03T13:30:40Z</time></trkpt><trkpt lat="43.77629210957482" lon="11.691999753429739"><ele>707.75</ele><time>2026-05-03T13:30:41Z</time></trkpt><trkpt lat="43.77637481699986" lon="11.69212386556784"><ele>708.0</ele><time>2026-05-03T13:30:42Z</time></trkpt><trkpt lat="43.776373050267544" lon="11.692302777673852"><ele>708.0</ele><time>2026-05-03T13:30:43Z</time></trkpt><trkpt lat="43.77636132704873" lon="11.692467890392646"><ele>708.0</ele><time>2026-05-03T13:30:44Z</time></trkpt><trkpt lat="43.77633446466263" lon="11.69261915512139"><ele>708.0</ele><time>2026-05-03T13:30:45Z</time></trkpt><trkpt lat="43.77626559566116" lon="11.692734886322075"><ele>708.0</ele><time>2026-05-03T13:30:46Z</time></trkpt><trkpt lat="43.77620331282384" lon="11.692871945830746"><ele>707.2</ele><time>2026-05-03T13:30:47Z</time></trkpt><trkpt lat="43.77613146908117" lon="11.692979322419925"><ele>706.4</ele><time>2026-05-03T13:30:48Z</time></trkpt><trkpt lat="43.776069278536134" lon="11.693080645863585"><ele>705.6</ele><time>2026-05-03T13:30:49Z</time></trkpt><trkpt lat="43.77600221035163" lon="11.693187136273577"><ele>704.8000000000001</ele><time>2026-05-03T13:30:50Z</time></trkpt><trkpt lat="43.77592640812637" lon="11.693305299119372"><ele>704.0</ele><time>2026-05-03T13:30:51Z</time></trkpt><trkpt lat="43.775851341142626" lon="11.693443008000823"><ele>702.25</ele><time>2026-05-03T13:30:52Z</time></trkpt><trkpt lat="43.77577933414944" lon="11.693589094794698"><ele>700.5</ele><time>2026-05-03T13:30:53Z</time></trkpt><trkpt lat="43.77571907844784" lon="11.693747862412652"><ele>698.75</ele><time>2026-05-03T13:30:54Z</time></trkpt><trkpt lat="43.77566971808339" lon="11.693903089719589"><ele>697.0</ele><time>2026-05-03T13:30:55Z</time></trkpt><trkpt lat="43.77563061445994" lon="11.69405277524072"><ele>697.0</ele><time>2026-05-03T13:30:56Z</time></trkpt><trkpt lat="43.77559971413734" lon="11.694195166442377"><ele>697.0</ele><time>2026-05-03T13:30:57Z</time></trkpt><trkpt lat="43.77558476023166" lon="11.694323003778598"><ele>697.0</ele><time>2026-05-03T13:30:58Z</time></trkpt><trkpt lat="43.77559661534393" lon="11.694424452226412"><ele>697.0</ele><time>2026-05-03T13:30:59Z</time></trkpt><trkpt lat="43.77555775343687" lon="11.694497048615963"><ele>697.0</ele><time>2026-05-03T13:31:00Z</time></trkpt><trkpt lat="43.77569157040822" lon="11.694561141449949"><ele>697.0</ele><time>2026-05-03T13:31:01Z</time></trkpt><trkpt lat="43.775776250078756" lon="11.694590865863933"><ele>697.0</ele><time>2026-05-03T13:31:02Z</time></trkpt><trkpt lat="43.77586687901262" lon="11.69456882710355"><ele>697.0</ele><time>2026-05-03T13:31:03Z</time></trkpt><trkpt lat="43.77595288400323" lon="11.694514649608287"><ele>697.0</ele><time>2026-05-03T13:31:04Z</time></trkpt><trkpt lat="43.776030873108354" lon="11.694419669165173"><ele>697.0</ele><time>2026-05-03T13:31:05Z</time></trkpt><trkpt lat="43.77616093437869" lon="11.694402306535086"><ele>697.0</ele><time>2026-05-03T13:31:06Z</time></trkpt><trkpt lat="43.77628931753547" lon="11.69432191980178"><ele>697.0</ele><time>2026-05-03T13:31:07Z</time></trkpt><trkpt lat="43.77646098463569" lon="11.694230714523227"><ele>697.0</ele><time>2026-05-03T13:31:08Z</time></trkpt><trkpt lat="43.77665612125718" lon="11.694108610408646"><ele>693.5</ele><time>2026-05-03T13:31:09Z</time></trkpt><trkpt lat="43.77686548607029" lon="11.693963229295795"><ele>690.0</ele><time>2026-05-03T13:31:10Z</time></trkpt><trkpt lat="43.777070588770506" lon="11.693821440642273"><ele>690.0</ele><time>2026-05-03T13:31:11Z</time></trkpt><trkpt lat="43.777271367064785" lon="11.693695281642794"><ele>690.0</ele><time>2026-05-03T13:31:12Z</time></trkpt><trkpt lat="43.7774802271709" lon="11.693556899408074"><ele>691.0</ele><time>2026-05-03T13:31:13Z</time></trkpt><trkpt lat="43.77769757631634" lon="11.69340124201296"><ele>692.0</ele><time>2026-05-03T13:31:14Z</time></trkpt><trkpt lat="43.77791148941114" lon="11.693265637169898"><ele>692.0</ele><time>2026-05-03T13:31:15Z</time></trkpt><trkpt lat="43.77810789835741" lon="11.693126486342004"><ele>692.0</ele><time>2026-05-03T13:31:16Z</time></trkpt><trkpt lat="43.77829942359255" lon="11.692990527729654"><ele>692.0</ele><time>2026-05-03T13:31:17Z</time></trkpt><trkpt lat="43.7784487254277" lon="11.692863005551697"><ele>690.0</ele><time>2026-05-03T13:31:18Z</time></trkpt><trkpt lat="43.778562438513326" lon="11.692781414508191"><ele>688.0</ele><time>2026-05-03T13:31:19Z</time></trkpt><trkpt lat="43.77865966257193" lon="11.692680832667335"><ele>686.0</ele><time>2026-05-03T13:31:20Z</time></trkpt><trkpt lat="43.77873297947592" lon="11.692523211384227"><ele>684.0</ele><time>2026-05-03T13:31:21Z</time></trkpt><trkpt lat="43.77877931671874" lon="11.69230039627407"><ele>684.0</ele><time>2026-05-03T13:31:22Z</time></trkpt><trkpt lat="43.778784638152736" lon="11.692054192579196"><ele>684.0</ele><time>2026-05-03T13:31:23Z</time></trkpt><trkpt lat="43.77877594302531" lon="11.691849834978957"><ele>684.0</ele><time>2026-05-03T13:31:24Z</time></trkpt><trkpt lat="43.77880771476277" lon="11.691697232753244"><ele>684.0</ele><time>2026-05-03T13:31:25Z</time></trkpt><trkpt lat="43.77888195826193" lon="11.691595740523578"><ele>685.25</ele><time>2026-05-03T13:31:26Z</time></trkpt><trkpt lat="43.77899644800139" lon="11.69154231165557"><ele>686.5</ele><time>2026-05-03T13:31:27Z</time></trkpt><trkpt lat="43.779133087394584" lon="11.691510268878151"><ele>687.75</ele><time>2026-05-03T13:31:28Z</time></trkpt><trkpt lat="43.77929612215594" lon="11.691504485621918"><ele>689.0</ele><time>2026-05-03T13:31:29Z</time></trkpt><trkpt lat="43.7794653196481" lon="11.69156357349175"><ele>689.3333333333333</ele><time>2026-05-03T13:31:30Z</time></trkpt><trkpt lat="43.77964441826736" lon="11.691696372289664"><ele>689.6666666666666</ele><time>2026-05-03T13:31:31Z</time></trkpt><trkpt lat="43.77985364170427" lon="11.691851305945539"><ele>690.0</ele><time>2026-05-03T13:31:32Z</time></trkpt><trkpt lat="43.780079814045884" lon="11.692007121360131"><ele>689.6666666666666</ele><time>2026-05-03T13:31:33Z</time></trkpt><trkpt lat="43.78026855999556" lon="11.692153016652401"><ele>689.3333333333333</ele><time>2026-05-03T13:31:34Z</time></trkpt><trkpt lat="43.780390990293036" lon="11.692336536280441"><ele>689.0</ele><time>2026-05-03T13:31:35Z</time></trkpt><trkpt lat="43.780490292802746" lon="11.692534683560453"><ele>686.3333333333333</ele><time>2026-05-03T13:31:36Z</time></trkpt><trkpt lat="43.78059842233976" lon="11.692767837073978"><ele>683.6666666666666</ele><time>2026-05-03T13:31:37Z</time></trkpt><trkpt lat="43.78072147976428" lon="11.693019415980036"><ele>681.0</ele><time>2026-05-03T13:31:38Z</time></trkpt><trkpt lat="43.78082980778529" lon="11.69326223345281"><ele>681.0</ele><time>2026-05-03T13:31:39Z</time></trkpt><trkpt lat="43.7809154540508" lon="11.69343526918993"><ele>681.0</ele><time>2026-05-03T13:31:40Z</time></trkpt><trkpt lat="43.78102049958767" lon="11.69354758882705"><ele>681.0</ele><time>2026-05-03T13:31:41Z</time></trkpt><trkpt lat="43.78117618008072" lon="11.69361261748723"><ele>681.0</ele><time>2026-05-03T13:31:42Z</time></trkpt><trkpt lat="43.78137742100111" lon="11.693630330667528"><ele>680.6666666666666</ele><time>2026-05-03T13:31:43Z</time></trkpt><trkpt lat="43.78159238837871" lon="11.693644722068422"><ele>680.3333333333333</ele><time>2026-05-03T13:31:44Z</time></trkpt><trkpt lat="43.7817491928573" lon="11.69376882183113"><ele>680.0</ele><time>2026-05-03T13:31:45Z</time></trkpt><trkpt lat="43.781883913770464" lon="11.693924724983685"><ele>680.0</ele><time>2026-05-03T13:31:46Z</time></trkpt><trkpt lat="43.7820371128791" lon="11.694115192268434"><ele>680.0</ele><time>2026-05-03T13:31:47Z</time></trkpt><trkpt lat="43.7822249273246" lon="11.6943179486476"><ele>680.0</ele><time>2026-05-03T13:31:48Z</time></trkpt><trkpt lat="43.78240267757455" lon="11.694556762024026"><ele>680.0</ele><time>2026-05-03T13:31:49Z</time></trkpt><trkpt lat="43.782522033417045" lon="11.694756629711613"><ele>680.0</ele><time>2026-05-03T13:31:50Z</time></trkpt><trkpt lat="43.78262237373734" lon="11.694942880174619"><ele>680.0</ele><time>2026-05-03T13:31:51Z</time></trkpt><trkpt lat="43.78270982930611" lon="11.695134554983271"><ele>677.3333333333333</ele><time>2026-05-03T13:31:52Z</time></trkpt><trkpt lat="43.78277793245957" lon="11.695328912662552"><ele>674.6666666666666</ele><time>2026-05-03T13:31:53Z</time></trkpt><trkpt lat="43.782842917417874" lon="11.695563794557684"><ele>672.0</ele><time>2026-05-03T13:31:54Z</time></trkpt><trkpt lat="43.78288895023143" lon="11.695827201703864"><ele>669.6666666666666</ele><time>2026-05-03T13:31:55Z</time></trkpt><trkpt lat="43.78291258099889" lon="11.696096808060647"><ele>667.3333333333333</ele><time>2026-05-03T13:31:56Z</time></trkpt><trkpt lat="43.7829242861135" lon="11.696358957564232"><ele>665.0</ele><time>2026-05-03T13:31:57Z</time></trkpt><trkpt lat="43.78293090752021" lon="11.69656864481744"><ele>665.0</ele><time>2026-05-03T13:31:58Z</time></trkpt><trkpt lat="43.78294977947808" lon="11.696759561723667"><ele>665.0</ele><time>2026-05-03T13:31:59Z</time></trkpt><trkpt lat="43.782949873819454" lon="11.696941898294282"><ele>665.0</ele><time>2026-05-03T13:32:00Z</time></trkpt><trkpt lat="43.78295291564317" lon="11.697115710378872"><ele>665.0</ele><time>2026-05-03T13:32:01Z</time></trkpt><trkpt lat="43.78296065226474" lon="11.69728328040776"><ele>663.75</ele><time>2026-05-03T13:32:02Z</time></trkpt><trkpt lat="43.78297302942324" lon="11.69745760653025"><ele>662.5</ele><time>2026-05-03T13:32:03Z</time></trkpt><trkpt lat="43.783001826193995" lon="11.697636623497019"><ele>661.25</ele><time>2026-05-03T13:32:04Z</time></trkpt><trkpt lat="43.78305775565799" lon="11.697812024264651"><ele>660.0</ele><time>2026-05-03T13:32:05Z</time></trkpt><trkpt lat="43.78315238564036" lon="11.698007365876474"><ele>658.3333333333334</ele><time>2026-05-03T13:32:06Z</time></trkpt><trkpt lat="43.783249352284834" lon="11.698234533552304"><ele>656.6666666666667</ele><time>2026-05-03T13:32:07Z</time></trkpt><trkpt lat="43.783339471084524" lon="11.698508999675905"><ele>655.0</ele><time>2026-05-03T13:32:08Z</time></trkpt><trkpt lat="43.78344825662325" lon="11.698772531597099"><ele>654.6666666666667</ele><time>2026-05-03T13:32:09Z</time></trkpt><trkpt lat="43.783541903263284" lon="11.699045937843312"><ele>654.3333333333334</ele><time>2026-05-03T13:32:10Z</time></trkpt><trkpt lat="43.78363672726508" lon="11.699299080635399"><ele>654.0</ele><time>2026-05-03T13:32:11Z</time></trkpt><trkpt lat="43.783727547981584" lon="11.699531047102866"><ele>650.0</ele><time>2026-05-03T13:32:12Z</time></trkpt><trkpt lat="43.78380824135315" lon="11.699741844027805"><ele>646.0</ele><time>2026-05-03T13:32:13Z</time></trkpt><trkpt lat="43.78388136038353" lon="11.699929017986351"><ele>642.0</ele><time>2026-05-03T13:32:14Z</time></trkpt><trkpt lat="43.78395055497345" lon="11.70008131732075"><ele>642.0</ele><time>2026-05-03T13:32:15Z</time></trkpt><trkpt lat="43.78403397449167" lon="11.700211488495665"><ele>642.0</ele><time>2026-05-03T13:32:16Z</time></trkpt><trkpt lat="43.78414066659103" lon="11.700302313212092"><ele>642.0</ele><time>2026-05-03T13:32:17Z</time></trkpt><trkpt lat="43.78426065046217" lon="11.700354865490075"><ele>642.0</ele><time>2026-05-03T13:32:18Z</time></trkpt><trkpt lat="43.78439123387296" lon="11.700387439782238"><ele>642.0</ele><time>2026-05-03T13:32:19Z</time></trkpt><trkpt lat="43.78451769321046" lon="11.700417946437483"><ele>642.0</ele><time>2026-05-03T13:32:20Z</time></trkpt><trkpt lat="43.78462585226172" lon="11.700466134136365"><ele>642.0</ele><time>2026-05-03T13:32:21Z</time></trkpt><trkpt lat="43.78471431435401" lon="11.700525237850702"><ele>642.0</ele><time>2026-05-03T13:32:22Z</time></trkpt><trkpt lat="43.78478297215759" lon="11.700614680206884"><ele>642.0</ele><time>2026-05-03T13:32:23Z</time></trkpt><trkpt lat="43.78479784900831" lon="11.700740937437576"><ele>642.0</ele><time>2026-05-03T13:32:24Z</time></trkpt><trkpt lat="43.7847565367642" lon="11.7008930675733"><ele>642.0</ele><time>2026-05-03T13:32:25Z</time></trkpt><trkpt lat="43.78466379746048" lon="11.701048505490506"><ele>642.0</ele><time>2026-05-03T13:32:26Z</time></trkpt><trkpt lat="43.78456610440873" lon="11.70124094243372"><ele>642.0</ele><time>2026-05-03T13:32:27Z</time></trkpt><trkpt lat="43.78444567695032" lon="11.70144094282862"><ele>636.5</ele><time>2026-05-03T13:32:28Z</time></trkpt><trkpt lat="43.78431734484754" lon="11.7016795772089"><ele>631.0</ele><time>2026-05-03T13:32:29Z</time></trkpt><trkpt lat="43.78417460401162" lon="11.701948863838743"><ele>631.0</ele><time>2026-05-03T13:32:30Z</time></trkpt><trkpt lat="43.784015498298245" lon="11.702237783742778"><ele>631.0</ele><time>2026-05-03T13:32:31Z</time></trkpt><trkpt lat="43.783861723621364" lon="11.702506724680097"><ele>631.0</ele><time>2026-05-03T13:32:32Z</time></trkpt><trkpt lat="43.783727865561175" lon="11.702743996193028"><ele>631.0</ele><time>2026-05-03T13:32:33Z</time></trkpt><trkpt lat="43.78361628128637" lon="11.70294898393988"><ele>631.0</ele><time>2026-05-03T13:32:34Z</time></trkpt><trkpt lat="43.78352190335243" lon="11.703139321268381"><ele>627.6666666666667</ele><time>2026-05-03T13:32:35Z</time></trkpt><trkpt lat="43.78345421700472" lon="11.703335938643567"><ele>624.3333333333334</ele><time>2026-05-03T13:32:36Z</time></trkpt><trkpt lat="43.78341547925558" lon="11.703545740553217"><ele>621.0</ele><time>2026-05-03T13:32:37Z</time></trkpt><trkpt lat="43.78342007653516" lon="11.703752421092977"><ele>618.3333333333334</ele><time>2026-05-03T13:32:38Z</time></trkpt><trkpt lat="43.78346727602677" lon="11.703956623212058"><ele>615.6666666666667</ele><time>2026-05-03T13:32:39Z</time></trkpt><trkpt lat="43.783550695634126" lon="11.704159143727017"><ele>613.0</ele><time>2026-05-03T13:32:40Z</time></trkpt><trkpt lat="43.78365911844222" lon="11.704369008503878"><ele>618.6666666666667</ele><time>2026-05-03T13:32:41Z</time></trkpt><trkpt lat="43.78377227901896" lon="11.704580709030209"><ele>624.3333333333334</ele><time>2026-05-03T13:32:42Z</time></trkpt><trkpt lat="43.78385978642906" lon="11.704797434156166"><ele>630.0</ele><time>2026-05-03T13:32:43Z</time></trkpt><trkpt lat="43.78388229637895" lon="11.705027908796593"><ele>627.0</ele><time>2026-05-03T13:32:44Z</time></trkpt><trkpt lat="43.783850087135846" lon="11.705254697736233"><ele>624.0</ele><time>2026-05-03T13:32:45Z</time></trkpt><trkpt lat="43.78379472670545" lon="11.705487976425792"><ele>621.0</ele><time>2026-05-03T13:32:46Z</time></trkpt><trkpt lat="43.78364873100128" lon="11.70566046209013"><ele>621.0</ele><time>2026-05-03T13:32:47Z</time></trkpt><trkpt lat="43.78352772855685" lon="11.705867928291577"><ele>621.0</ele><time>2026-05-03T13:32:48Z</time></trkpt><trkpt lat="43.78339505867274" lon="11.706070877442782"><ele>621.0</ele><time>2026-05-03T13:32:49Z</time></trkpt><trkpt lat="43.78329550722914" lon="11.706285193039285"><ele>616.0</ele><time>2026-05-03T13:32:50Z</time></trkpt><trkpt lat="43.7832273267435" lon="11.706520570265296"><ele>611.0</ele><time>2026-05-03T13:32:51Z</time></trkpt><trkpt lat="43.78318037771987" lon="11.706793051050218"><ele>606.0</ele><time>2026-05-03T13:32:52Z</time></trkpt><trkpt lat="43.7831592455355" lon="11.707084877167143"><ele>605.0</ele><time>2026-05-03T13:32:53Z</time></trkpt><trkpt lat="43.78314322101384" lon="11.70738347113741"><ele>604.0</ele><time>2026-05-03T13:32:54Z</time></trkpt><trkpt lat="43.78312301037621" lon="11.707662148875517"><ele>603.0</ele><time>2026-05-03T13:32:55Z</time></trkpt><trkpt lat="43.78309380226559" lon="11.70791738351888"><ele>601.3333333333334</ele><time>2026-05-03T13:32:56Z</time></trkpt><trkpt lat="43.78308504433443" lon="11.70813761672286"><ele>599.6666666666667</ele><time>2026-05-03T13:32:57Z</time></trkpt><trkpt lat="43.783111510835454" lon="11.708340109439323"><ele>598.0</ele><time>2026-05-03T13:32:58Z</time></trkpt><trkpt lat="43.78318318447209" lon="11.708520158629089"><ele>595.3333333333334</ele><time>2026-05-03T13:32:59Z</time></trkpt><trkpt lat="43.783293180726076" lon="11.708659369734246"><ele>592.6666666666666</ele><time>2026-05-03T13:33:00Z</time></trkpt><trkpt lat="43.78343841372117" lon="11.708751008591259"><ele>590.0</ele><time>2026-05-03T13:33:01Z</time></trkpt><trkpt lat="43.78360566448816" lon="11.708808879398877"><ele>588.0</ele><time>2026-05-03T13:33:02Z</time></trkpt><trkpt lat="43.78378282040675" lon="11.708796268490744"><ele>586.0</ele><time>2026-05-03T13:33:03Z</time></trkpt><trkpt lat="43.78396255574689" lon="11.70872228167932"><ele>584.0</ele><time>2026-05-03T13:33:04Z</time></trkpt><trkpt lat="43.78415114699704" lon="11.708621252080308"><ele>582.0</ele><time>2026-05-03T13:33:05Z</time></trkpt><trkpt lat="43.78434795535669" lon="11.708591265778026"><ele>580.0</ele><time>2026-05-03T13:33:06Z</time></trkpt><trkpt lat="43.78454476908368" lon="11.708612910400607"><ele>578.0</ele><time>2026-05-03T13:33:07Z</time></trkpt><trkpt lat="43.7847501785586" lon="11.708670801054"><ele>578.0</ele><time>2026-05-03T13:33:08Z</time></trkpt><trkpt lat="43.7849425969512" lon="11.708714830518684"><ele>578.0</ele><time>2026-05-03T13:33:09Z</time></trkpt><trkpt lat="43.78509455132978" lon="11.708756359494712"><ele>578.0</ele><time>2026-05-03T13:33:10Z</time></trkpt><trkpt lat="43.78523445066194" lon="11.708727480782136"><ele>577.0</ele><time>2026-05-03T13:33:11Z</time></trkpt><trkpt lat="43.785387485067766" lon="11.708635907250924"><ele>576.0</ele><time>2026-05-03T13:33:12Z</time></trkpt><trkpt lat="43.78556055145385" lon="11.708482626236664"><ele>575.0</ele><time>2026-05-03T13:33:13Z</time></trkpt><trkpt lat="43.785755280818975" lon="11.708290285803105"><ele>575.0</ele><time>2026-05-03T13:33:14Z</time></trkpt><trkpt lat="43.78595678686248" lon="11.70810463134828"><ele>575.0</ele><time>2026-05-03T13:33:15Z</time></trkpt><trkpt lat="43.78613947493707" lon="11.707952325175501"><ele>575.6666666666666</ele><time>2026-05-03T13:33:16Z</time></trkpt><trkpt lat="43.78629967983838" lon="11.707820203390206"><ele>576.3333333333334</ele><time>2026-05-03T13:33:17Z</time></trkpt><trkpt lat="43.78644397965809" lon="11.707716839297987"><ele>577.0</ele><time>2026-05-03T13:33:18Z</time></trkpt><trkpt lat="43.78660522350992" lon="11.707695937834755"><ele>577.0</ele><time>2026-05-03T13:33:19Z</time></trkpt><trkpt lat="43.78678626389333" lon="11.707684966441322"><ele>577.0</ele><time>2026-05-03T13:33:20Z</time></trkpt><trkpt lat="43.78698798241067" lon="11.707665470107283"><ele>577.0</ele><time>2026-05-03T13:33:21Z</time></trkpt><trkpt lat="43.78719314250137" lon="11.707648454851492"><ele>573.6666666666667</ele><time>2026-05-03T13:33:22Z</time></trkpt><trkpt lat="43.787376074650574" lon="11.707578848865083"><ele>570.3333333333334</ele><time>2026-05-03T13:33:23Z</time></trkpt><trkpt lat="43.787549185569304" lon="11.70747799382611"><ele>567.0</ele><time>2026-05-03T13:33:24Z</time></trkpt><trkpt lat="43.787722649053265" lon="11.707354569871198"><ele>563.6666666666666</ele><time>2026-05-03T13:33:25Z</time></trkpt><trkpt lat="43.78789706832815" lon="11.707235432328618"><ele>560.3333333333333</ele><time>2026-05-03T13:33:26Z</time></trkpt><trkpt lat="43.788075941334974" lon="11.70712716975155"><ele>557.0</ele><time>2026-05-03T13:33:27Z</time></trkpt><trkpt lat="43.78824963621801" lon="11.707040228756442"><ele>557.0</ele><time>2026-05-03T13:33:28Z</time></trkpt><trkpt lat="43.78842574103909" lon="11.706991882895032"><ele>557.0</ele><time>2026-05-03T13:33:29Z</time></trkpt><trkpt lat="43.788620318845574" lon="11.706967352022097"><ele>557.0</ele><time>2026-05-03T13:33:30Z</time></trkpt><trkpt lat="43.78882316121344" lon="11.706953748977073"><ele>557.0</ele><time>2026-05-03T13:33:31Z</time></trkpt><trkpt lat="43.78903262862345" lon="11.70692957440517"><ele>557.0</ele><time>2026-05-03T13:33:32Z</time></trkpt><trkpt lat="43.789249227831576" lon="11.706899823032124"><ele>557.0</ele><time>2026-05-03T13:33:33Z</time></trkpt><trkpt lat="43.7894641316237" lon="11.706880111897277"><ele>555.3333333333333</ele><time>2026-05-03T13:33:34Z</time></trkpt><trkpt lat="43.78967776672087" lon="11.70688251115786"><ele>553.6666666666666</ele><time>2026-05-03T13:33:35Z</time></trkpt><trkpt lat="43.789879131267924" lon="11.706921640087886"><ele>552.0</ele><time>2026-05-03T13:33:36Z</time></trkpt><trkpt lat="43.790079557735936" lon="11.706985245706274"><ele>548.6666666666666</ele><time>2026-05-03T13:33:37Z</time></trkpt><trkpt lat="43.79028027693889" lon="11.707054858331547"><ele>545.3333333333333</ele><time>2026-05-03T13:33:38Z</time></trkpt><trkpt lat="43.790487221781866" lon="11.707125532147884"><ele>542.0</ele><time>2026-05-03T13:33:39Z</time></trkpt><trkpt lat="43.79070654552861" lon="11.707204681668363"><ele>542.0</ele><time>2026-05-03T13:33:40Z</time></trkpt><trkpt lat="43.79092068490993" lon="11.707279414728085"><ele>542.0</ele><time>2026-05-03T13:33:41Z</time></trkpt><trkpt lat="43.79112999543095" lon="11.70735669681306"><ele>542.0</ele><time>2026-05-03T13:33:42Z</time></trkpt><trkpt lat="43.791346273208745" lon="11.70744059698976"><ele>542.6666666666666</ele><time>2026-05-03T13:33:43Z</time></trkpt><trkpt lat="43.79155816825193" lon="11.707517053540702"><ele>543.3333333333334</ele><time>2026-05-03T13:33:44Z</time></trkpt><trkpt lat="43.79175491343394" lon="11.707585967632685"><ele>544.0</ele><time>2026-05-03T13:33:45Z</time></trkpt><trkpt lat="43.79194507785329" lon="11.70764920519712"><ele>542.6666666666667</ele><time>2026-05-03T13:33:46Z</time></trkpt><trkpt lat="43.792124408446576" lon="11.707712548954708"><ele>541.3333333333334</ele><time>2026-05-03T13:33:47Z</time></trkpt><trkpt lat="43.79229376575414" lon="11.70777801939252"><ele>540.0</ele><time>2026-05-03T13:33:48Z</time></trkpt><trkpt lat="43.792447422952705" lon="11.707844516890392"><ele>536.5</ele><time>2026-05-03T13:33:49Z</time></trkpt><trkpt lat="43.79256641748108" lon="11.70788467759853"><ele>533.0</ele><time>2026-05-03T13:33:50Z</time></trkpt><trkpt lat="43.79268145005748" lon="11.707882904313092"><ele>529.5</ele><time>2026-05-03T13:33:51Z</time></trkpt><trkpt lat="43.79279432589152" lon="11.707816416251484"><ele>526.0</ele><time>2026-05-03T13:33:52Z</time></trkpt><trkpt lat="43.79289338602251" lon="11.707698494523287"><ele>523.0</ele><time>2026-05-03T13:33:53Z</time></trkpt><trkpt lat="43.792960974323755" lon="11.707558757007805"><ele>520.0</ele><time>2026-05-03T13:33:54Z</time></trkpt><trkpt lat="43.79299422036333" lon="11.707423216731376"><ele>517.0</ele><time>2026-05-03T13:33:55Z</time></trkpt><trkpt lat="43.793002474508846" lon="11.707272572954947"><ele>514.0</ele><time>2026-05-03T13:33:56Z</time></trkpt><trkpt lat="43.792980850487304" lon="11.707064956821739"><ele>515.0</ele><time>2026-05-03T13:33:57Z</time></trkpt><trkpt lat="43.79294262941637" lon="11.706806822192236"><ele>516.0</ele><time>2026-05-03T13:33:58Z</time></trkpt><trkpt lat="43.79289204198509" lon="11.706510312301734"><ele>517.0</ele><time>2026-05-03T13:33:59Z</time></trkpt><trkpt lat="43.79285623769764" lon="11.706262066269646"><ele>518.0</ele><time>2026-05-03T13:34:00Z</time></trkpt><trkpt lat="43.7928444184202" lon="11.706074977318119"><ele>519.0</ele><time>2026-05-03T13:34:01Z</time></trkpt><trkpt lat="43.79287854687652" lon="11.705926563504073"><ele>520.0</ele><time>2026-05-03T13:34:02Z</time></trkpt><trkpt lat="43.79292839074353" lon="11.70579361847761"><ele>521.0</ele><time>2026-05-03T13:34:03Z</time></trkpt><trkpt lat="43.79300975076792" lon="11.705681188824503"><ele>521.0</ele><time>2026-05-03T13:34:04Z</time></trkpt><trkpt lat="43.793112341882846" lon="11.705586912219543"><ele>521.0</ele><time>2026-05-03T13:34:05Z</time></trkpt><trkpt lat="43.79325542617102" lon="11.705595655713344"><ele>521.0</ele><time>2026-05-03T13:34:06Z</time></trkpt><trkpt lat="43.793404457566" lon="11.705635433465215"><ele>521.0</ele><time>2026-05-03T13:34:07Z</time></trkpt><trkpt lat="43.79358453002625" lon="11.705674426171921"><ele>518.5</ele><time>2026-05-03T13:34:08Z</time></trkpt><trkpt lat="43.79379450178492" lon="11.705748171172859"><ele>516.0</ele><time>2026-05-03T13:34:09Z</time></trkpt><trkpt lat="43.79403914731121" lon="11.705820125801951"><ele>516.0</ele><time>2026-05-03T13:34:10Z</time></trkpt><trkpt lat="43.794281002174706" lon="11.705897426352962"><ele>516.0</ele><time>2026-05-03T13:34:11Z</time></trkpt><trkpt lat="43.79449199883667" lon="11.705968655991033"><ele>514.5</ele><time>2026-05-03T13:34:12Z</time></trkpt><trkpt lat="43.79465905272869" lon="11.706019051996009"><ele>513.0</ele><time>2026-05-03T13:34:13Z</time></trkpt><trkpt lat="43.79478314068336" lon="11.706032881484315"><ele>511.5</ele><time>2026-05-03T13:34:14Z</time></trkpt><trkpt lat="43.79490450521287" lon="11.705986222886692"><ele>510.0</ele><time>2026-05-03T13:34:15Z</time></trkpt><trkpt lat="43.79501486488049" lon="11.705866203733015"><ele>510.0</ele><time>2026-05-03T13:34:16Z</time></trkpt><trkpt lat="43.795107175706484" lon="11.705695286536955"><ele>510.0</ele><time>2026-05-03T13:34:17Z</time></trkpt><trkpt lat="43.79517333295064" lon="11.705482555948388"><ele>510.0</ele><time>2026-05-03T13:34:18Z</time></trkpt><trkpt lat="43.79520972920854" lon="11.705238081013244"><ele>505.0</ele><time>2026-05-03T13:34:19Z</time></trkpt><trkpt lat="43.79521191103777" lon="11.70495411813106"><ele>500.0</ele><time>2026-05-03T13:34:20Z</time></trkpt><trkpt lat="43.7951971312123" lon="11.704625994768977"><ele>495.0</ele><time>2026-05-03T13:34:21Z</time></trkpt><trkpt lat="43.79518160241609" lon="11.704298232984824"><ele>495.0</ele><time>2026-05-03T13:34:22Z</time></trkpt><trkpt lat="43.795170571616595" lon="11.704029646579022"><ele>495.0</ele><time>2026-05-03T13:34:23Z</time></trkpt><trkpt lat="43.79517425718794" lon="11.70383934464265"><ele>495.0</ele><time>2026-05-03T13:34:24Z</time></trkpt><trkpt lat="43.79522604595095" lon="11.703714339550723"><ele>495.0</ele><time>2026-05-03T13:34:25Z</time></trkpt><trkpt lat="43.795290982778155" lon="11.70361058416728"><ele>495.0</ele><time>2026-05-03T13:34:26Z</time></trkpt><trkpt lat="43.7954106790046" lon="11.703532305228514"><ele>495.0</ele><time>2026-05-03T13:34:27Z</time></trkpt><trkpt lat="43.795550877742606" lon="11.703521371189913"><ele>495.0</ele><time>2026-05-03T13:34:28Z</time></trkpt><trkpt lat="43.79568517790533" lon="11.70356974749806"><ele>495.0</ele><time>2026-05-03T13:34:29Z</time></trkpt><trkpt lat="43.79583977312238" lon="11.703659653677885"><ele>493.33333333333337</ele><time>2026-05-03T13:34:30Z</time></trkpt><trkpt lat="43.796031792599386" lon="11.703770481692576"><ele>491.6666666666667</ele><time>2026-05-03T13:34:31Z</time></trkpt><trkpt lat="43.79622722120074" lon="11.703896379062229"><ele>490.0</ele><time>2026-05-03T13:34:32Z</time></trkpt><trkpt lat="43.796397275646584" lon="11.70397157896187"><ele>490.0</ele><time>2026-05-03T13:34:33Z</time></trkpt><trkpt lat="43.79654806545165" lon="11.703987321404922"><ele>490.0</ele><time>2026-05-03T13:34:34Z</time></trkpt><trkpt lat="43.796706461689865" lon="11.703974303901667"><ele>490.0</ele><time>2026-05-03T13:34:35Z</time></trkpt><trkpt lat="43.79687994311875" lon="11.70395895390938"><ele>488.33333333333337</ele><time>2026-05-03T13:34:36Z</time></trkpt><trkpt lat="43.79706064100556" lon="11.703957313320569"><ele>486.66666666666663</ele><time>2026-05-03T13:34:37Z</time></trkpt><trkpt lat="43.79724164617561" lon="11.703947706830698"><ele>485.0</ele><time>2026-05-03T13:34:38Z</time></trkpt><trkpt lat="43.797409083887274" lon="11.703905489617537"><ele>485.0</ele><time>2026-05-03T13:34:39Z</time></trkpt><trkpt lat="43.79757399363827" lon="11.703827836814671"><ele>485.0</ele><time>2026-05-03T13:34:40Z</time></trkpt><trkpt lat="43.79775222575547" lon="11.703727853159707"><ele>485.0</ele><time>2026-05-03T13:34:41Z</time></trkpt><trkpt lat="43.797947208514046" lon="11.70360994289606"><ele>485.3333333333333</ele><time>2026-05-03T13:34:42Z</time></trkpt><trkpt lat="43.79812447123082" lon="11.703483365500784"><ele>485.66666666666663</ele><time>2026-05-03T13:34:43Z</time></trkpt><trkpt lat="43.79828261807864" lon="11.703358316266698"><ele>486.0</ele><time>2026-05-03T13:34:44Z</time></trkpt><trkpt lat="43.798425756042235" lon="11.70324672955358"><ele>483.33333333333337</ele><time>2026-05-03T13:34:45Z</time></trkpt><trkpt lat="43.798561725611705" lon="11.70314723490591"><ele>480.6666666666667</ele><time>2026-05-03T13:34:46Z</time></trkpt><trkpt lat="43.79873154573435" lon="11.70306543546235"><ele>478.0</ele><time>2026-05-03T13:34:47Z</time></trkpt><trkpt lat="43.798918825537015" lon="11.702948041647355"><ele>478.0</ele><time>2026-05-03T13:34:48Z</time></trkpt><trkpt lat="43.79910341498506" lon="11.702812717949568"><ele>478.0</ele><time>2026-05-03T13:34:49Z</time></trkpt><trkpt lat="43.799275616643776" lon="11.70271268735782"><ele>478.0</ele><time>2026-05-03T13:34:50Z</time></trkpt><trkpt lat="43.79942114110767" lon="11.702630298135892"><ele>480.25</ele><time>2026-05-03T13:34:51Z</time></trkpt><trkpt lat="43.79955133348086" lon="11.702552034499627"><ele>482.5</ele><time>2026-05-03T13:34:52Z</time></trkpt><trkpt lat="43.799664631713654" lon="11.702520846468087"><ele>484.75</ele><time>2026-05-03T13:34:53Z</time></trkpt><trkpt lat="43.79977389287638" lon="11.702562647513407"><ele>487.0</ele><time>2026-05-03T13:34:54Z</time></trkpt><trkpt lat="43.79984952606905" lon="11.702698472602755"><ele>483.0</ele><time>2026-05-03T13:34:55Z</time></trkpt><trkpt lat="43.799866627671314" lon="11.702863566872866"><ele>479.0</ele><time>2026-05-03T13:34:56Z</time></trkpt><trkpt lat="43.79984515734256" lon="11.703008845596987"><ele>475.0</ele><time>2026-05-03T13:34:57Z</time></trkpt><trkpt lat="43.799751621870854" lon="11.703144058330452"><ele>471.0</ele><time>2026-05-03T13:34:58Z</time></trkpt><trkpt lat="43.799598109507926" lon="11.70323853628545"><ele>471.0</ele><time>2026-05-03T13:34:59Z</time></trkpt><trkpt lat="43.79944115580361" lon="11.703394929701338"><ele>471.0</ele><time>2026-05-03T13:35:00Z</time></trkpt><trkpt lat="43.79925161630974" lon="11.703549413487279"><ele>471.0</ele><time>2026-05-03T13:35:01Z</time></trkpt><trkpt lat="43.79903320019985" lon="11.703735409875199"><ele>468.0</ele><time>2026-05-03T13:35:02Z</time></trkpt><trkpt lat="43.798809222300406" lon="11.703933337522557"><ele>465.0</ele><time>2026-05-03T13:35:03Z</time></trkpt><trkpt lat="43.79858694648787" lon="11.704124426750962"><ele>464.66666666666663</ele><time>2026-05-03T13:35:04Z</time></trkpt><trkpt lat="43.798394498491504" lon="11.704285905529861"><ele>464.3333333333333</ele><time>2026-05-03T13:35:05Z</time></trkpt><trkpt lat="43.798245962243584" lon="11.704407157547823"><ele>464.0</ele><time>2026-05-03T13:35:06Z</time></trkpt><trkpt lat="43.79812794128927" lon="11.704511386829592"><ele>464.0</ele><time>2026-05-03T13:35:07Z</time></trkpt><trkpt lat="43.79802969564221" lon="11.70463030181279"><ele>464.0</ele><time>2026-05-03T13:35:08Z</time></trkpt><trkpt lat="43.79796841258648" lon="11.704788421680544"><ele>464.0</ele><time>2026-05-03T13:35:09Z</time></trkpt><trkpt lat="43.797968402912446" lon="11.704963093830596"><ele>464.0</ele><time>2026-05-03T13:35:10Z</time></trkpt><trkpt lat="43.79800684790439" lon="11.705119546380622"><ele>464.0</ele><time>2026-05-03T13:35:11Z</time></trkpt><trkpt lat="43.79809292115312" lon="11.705242175366443"><ele>464.0</ele><time>2026-05-03T13:35:12Z</time></trkpt><trkpt lat="43.7982082362509" lon="11.705303865492908"><ele>464.0</ele><time>2026-05-03T13:35:13Z</time></trkpt><trkpt lat="43.79833592317787" lon="11.705325555183114"><ele>464.0</ele><time>2026-05-03T13:35:14Z</time></trkpt><trkpt lat="43.79847642857942" lon="11.705287465990422"><ele>460.0</ele><time>2026-05-03T13:35:15Z</time></trkpt><trkpt lat="43.798636393112986" lon="11.705224552858233"><ele>456.0</ele><time>2026-05-03T13:35:16Z</time></trkpt><trkpt lat="43.798829788226094" lon="11.705165900466856"><ele>452.0</ele><time>2026-05-03T13:35:17Z</time></trkpt><trkpt lat="43.799061212810415" lon="11.70510851335093"><ele>452.0</ele><time>2026-05-03T13:35:18Z</time></trkpt><trkpt lat="43.79928285716627" lon="11.705054241489742"><ele>452.0</ele><time>2026-05-03T13:35:19Z</time></trkpt><trkpt lat="43.79947697743946" lon="11.70500698733131"><ele>452.0</ele><time>2026-05-03T13:35:20Z</time></trkpt><trkpt lat="43.79963811569474" lon="11.704973734401584"><ele>451.0</ele><time>2026-05-03T13:35:21Z</time></trkpt><trkpt lat="43.79976817874238" lon="11.704950886460754"><ele>450.0</ele><time>2026-05-03T13:35:22Z</time></trkpt><trkpt lat="43.79989764561381" lon="11.704932486061086"><ele>449.0</ele><time>2026-05-03T13:35:23Z</time></trkpt><trkpt lat="43.80002026804331" lon="11.704921162917548"><ele>448.0</ele><time>2026-05-03T13:35:24Z</time></trkpt><trkpt lat="43.80013610240708" lon="11.704910264338588"><ele>447.1666666666667</ele><time>2026-05-03T13:35:25Z</time></trkpt><trkpt lat="43.80024253402939" lon="11.704899748616755"><ele>446.33333333333337</ele><time>2026-05-03T13:35:26Z</time></trkpt><trkpt lat="43.8003418477399" lon="11.704928534132478"><ele>445.5</ele><time>2026-05-03T13:35:27Z</time></trkpt><trkpt lat="43.800430479885584" lon="11.70494198083121"><ele>444.66666666666663</ele><time>2026-05-03T13:35:28Z</time></trkpt><trkpt lat="43.80048669778639" lon="11.705003073762118"><ele>443.8333333333333</ele><time>2026-05-03T13:35:29Z</time></trkpt><trkpt lat="43.800511790777705" lon="11.705096420334655"><ele>443.0</ele><time>2026-05-03T13:35:30Z</time></trkpt><trkpt lat="43.8005178157138" lon="11.705202188568062"><ele>443.3333333333333</ele><time>2026-05-03T13:35:31Z</time></trkpt><trkpt lat="43.80053027595964" lon="11.705321598078658"><ele>443.66666666666663</ele><time>2026-05-03T13:35:32Z</time></trkpt><trkpt lat="43.80053025047193" lon="11.70542833052939"><ele>444.0</ele><time>2026-05-03T13:35:33Z</time></trkpt><trkpt lat="43.80053473930684" lon="11.705533481639605"><ele>444.33333333333337</ele><time>2026-05-03T13:35:34Z</time></trkpt><trkpt lat="43.80053481665856" lon="11.705636376491652"><ele>444.6666666666667</ele><time>2026-05-03T13:35:35Z</time></trkpt><trkpt lat="43.80053707969366" lon="11.705739673346633"><ele>445.0</ele><time>2026-05-03T13:35:36Z</time></trkpt><trkpt lat="43.800490205358294" lon="11.705876182996935"><ele>445.0</ele><time>2026-05-03T13:35:38Z</time></trkpt><trkpt lat="43.80042115362568" lon="11.70588328666152"><ele>445.0</ele><time>2026-05-03T13:35:39Z</time></trkpt><trkpt lat="43.80032666732819" lon="11.705872667942051"><ele>445.0</ele><time>2026-05-03T13:35:40Z</time></trkpt><trkpt lat="43.800221485485444" lon="11.705832822926363"><ele>445.0</ele><time>2026-05-03T13:35:41Z</time></trkpt><trkpt lat="43.800102322313656" lon="11.70577021724381"><ele>445.0</ele><time>2026-05-03T13:35:42Z</time></trkpt><trkpt lat="43.79997833311003" lon="11.705737766301088"><ele>444.0</ele><time>2026-05-03T13:35:43Z</time></trkpt><trkpt lat="43.79986030953645" lon="11.705743681700454"><ele>443.0</ele><time>2026-05-03T13:35:44Z</time></trkpt><trkpt lat="43.79975803756436" lon="11.705799797680099"><ele>442.0</ele><time>2026-05-03T13:35:45Z</time></trkpt><trkpt lat="43.79967098887116" lon="11.705891855374093"><ele>441.0</ele><time>2026-05-03T13:35:46Z</time></trkpt><trkpt lat="43.79961756472061" lon="11.705988706550905"><ele>440.0</ele><time>2026-05-03T13:35:47Z</time></trkpt><trkpt lat="43.79957518691688" lon="11.706077611694942"><ele>440.25</ele><time>2026-05-03T13:35:49Z</time></trkpt><trkpt lat="43.79971503773478" lon="11.706231282482861"><ele>440.5</ele><time>2026-05-03T13:35:50Z</time></trkpt><trkpt lat="43.79977460187209" lon="11.706324169860423"><ele>440.75</ele><time>2026-05-03T13:35:51Z</time></trkpt><trkpt lat="43.79985676006387" lon="11.706400139964932"><ele>441.0</ele><time>2026-05-03T13:35:52Z</time></trkpt><trkpt lat="43.79993617556421" lon="11.70649462011168"><ele>441.0</ele><time>2026-05-03T13:35:53Z</time></trkpt><trkpt lat="43.80001609032341" lon="11.706588577255353"><ele>441.0</ele><time>2026-05-03T13:35:54Z</time></trkpt><trkpt lat="43.800086443045025" lon="11.706676965400467"><ele>441.0</ele><time>2026-05-03T13:35:55Z</time></trkpt><trkpt lat="43.800140245623126" lon="11.706755343628831"><ele>441.0</ele><time>2026-05-03T13:35:56Z</time></trkpt><trkpt lat="43.800172567014194" lon="11.706906205562966"><ele>441.0</ele><time>2026-05-03T13:35:58Z</time></trkpt><trkpt lat="43.80014188470929" lon="11.706998752016029"><ele>441.8333333333333</ele><time>2026-05-03T13:35:59Z</time></trkpt><trkpt lat="43.80008545212923" lon="11.707088129453913"><ele>442.66666666666663</ele><time>2026-05-03T13:36:00Z</time></trkpt><trkpt lat="43.80002001625458" lon="11.707177731359314"><ele>443.5</ele><time>2026-05-03T13:36:01Z</time></trkpt><trkpt lat="43.799954169703696" lon="11.707264809940016"><ele>444.3333333333333</ele><time>2026-05-03T13:36:02Z</time></trkpt><trkpt lat="43.79988749044012" lon="11.707344791029758"><ele>445.16666666666663</ele><time>2026-05-03T13:36:03Z</time></trkpt><trkpt lat="43.799819099409305" lon="11.707423082877169"><ele>446.0</ele><time>2026-05-03T13:36:04Z</time></trkpt><trkpt lat="43.799759650478094" lon="11.707503949403534"><ele>445.99999999999994</ele><time>2026-05-03T13:36:05Z</time></trkpt><trkpt lat="43.79969254239769" lon="11.707585711073252"><ele>446.0</ele><time>2026-05-03T13:36:06Z</time></trkpt><trkpt lat="43.799629356977015" lon="11.707666737466225"><ele>446.0</ele><time>2026-05-03T13:36:07Z</time></trkpt><trkpt lat="43.799565152431846" lon="11.707747094765176"><ele>446.0</ele><time>2026-05-03T13:36:08Z</time></trkpt><trkpt lat="43.79950000725932" lon="11.70783262819647"><ele>445.99999999999994</ele><time>2026-05-03T13:36:09Z</time></trkpt><trkpt lat="43.799436019773054" lon="11.707923505416362"><ele>446.0</ele><time>2026-05-03T13:36:10Z</time></trkpt><trkpt lat="43.79936998606647" lon="11.708024547231169"><ele>446.6</ele><time>2026-05-03T13:36:11Z</time></trkpt><trkpt lat="43.799300714088055" lon="11.708137071701257"><ele>447.20000000000005</ele><time>2026-05-03T13:36:12Z</time></trkpt><trkpt lat="43.799228207932586" lon="11.708250300047146"><ele>447.79999999999995</ele><time>2026-05-03T13:36:13Z</time></trkpt><trkpt lat="43.7991487027322" lon="11.708363941545118"><ele>448.4</ele><time>2026-05-03T13:36:14Z</time></trkpt><trkpt lat="43.79906403440564" lon="11.708472689806044"><ele>449.0</ele><time>2026-05-03T13:36:15Z</time></trkpt><trkpt lat="43.79898285582887" lon="11.708579379352678"><ele>449.6</ele><time>2026-05-03T13:36:16Z</time></trkpt><trkpt lat="43.79890244794423" lon="11.708686252131935"><ele>450.2</ele><time>2026-05-03T13:36:17Z</time></trkpt><trkpt lat="43.79882633584974" lon="11.708798056937205"><ele>450.80000000000007</ele><time>2026-05-03T13:36:18Z</time></trkpt><trkpt lat="43.79875287331669" lon="11.708908747886028"><ele>451.40000000000003</ele><time>2026-05-03T13:36:19Z</time></trkpt><trkpt lat="43.798680474620475" lon="11.709009700105454"><ele>452.0</ele><time>2026-05-03T13:36:20Z</time></trkpt><trkpt lat="43.79862120748659" lon="11.709095614943356"><ele>452.0</ele><time>2026-05-03T13:36:21Z</time></trkpt><trkpt lat="43.79856447069706" lon="11.709179015453403"><ele>452.00000000000006</ele><time>2026-05-03T13:36:23Z</time></trkpt><trkpt lat="43.798540713056354" lon="11.709306958248073"><ele>452.00000000000006</ele><time>2026-05-03T13:36:28Z</time></trkpt><trkpt lat="43.79868369407773" lon="11.70937453652656"><ele>452.0</ele><time>2026-05-03T13:36:29Z</time></trkpt><trkpt lat="43.79878961344896" lon="11.70941977525928"><ele>452.0</ele><time>2026-05-03T13:36:30Z</time></trkpt><trkpt lat="43.798914686078106" lon="11.709489457512332"><ele>452.66666666666663</ele><time>2026-05-03T13:36:31Z</time></trkpt><trkpt lat="43.79905843143367" lon="11.709533352348275"><ele>453.33333333333337</ele><time>2026-05-03T13:36:32Z</time></trkpt><trkpt lat="43.79920852009819" lon="11.709596606569376"><ele>454.0</ele><time>2026-05-03T13:36:33Z</time></trkpt><trkpt lat="43.79936754398236" lon="11.709626284159489"><ele>455.0</ele><time>2026-05-03T13:36:34Z</time></trkpt><trkpt lat="43.79952225253289" lon="11.709654761385373"><ele>456.0</ele><time>2026-05-03T13:36:35Z</time></trkpt><trkpt lat="43.79969736734241" lon="11.709673051151722"><ele>457.0</ele><time>2026-05-03T13:36:36Z</time></trkpt><trkpt lat="43.79987975738196" lon="11.709714545920534"><ele>457.0</ele><time>2026-05-03T13:36:37Z</time></trkpt><trkpt lat="43.800055770222386" lon="11.709746154810771"><ele>457.0</ele><time>2026-05-03T13:36:38Z</time></trkpt><trkpt lat="43.800226823466545" lon="11.709771520693826"><ele>457.0</ele><time>2026-05-03T13:36:39Z</time></trkpt><trkpt lat="43.80039765358698" lon="11.709805888411351"><ele>458.33333333333337</ele><time>2026-05-03T13:36:40Z</time></trkpt><trkpt lat="43.80054703802616" lon="11.709833006235444"><ele>459.66666666666663</ele><time>2026-05-03T13:36:41Z</time></trkpt><trkpt lat="43.800701819282935" lon="11.709864115368276"><ele>461.0</ele><time>2026-05-03T13:36:42Z</time></trkpt><trkpt lat="43.80086513709193" lon="11.7098971307283"><ele>463.3333333333333</ele><time>2026-05-03T13:36:43Z</time></trkpt><trkpt lat="43.801034066835356" lon="11.709922297402013"><ele>465.66666666666663</ele><time>2026-05-03T13:36:44Z</time></trkpt><trkpt lat="43.801207159995776" lon="11.709952405011894"><ele>468.0</ele><time>2026-05-03T13:36:45Z</time></trkpt><trkpt lat="43.80138817492213" lon="11.70998481670672"><ele>468.0</ele><time>2026-05-03T13:36:46Z</time></trkpt><trkpt lat="43.80156802941641" lon="11.710017139536152"><ele>468.0</ele><time>2026-05-03T13:36:47Z</time></trkpt><trkpt lat="43.801747343008365" lon="11.710046340833474"><ele>468.0</ele><time>2026-05-03T13:36:48Z</time></trkpt><trkpt lat="43.80192992934834" lon="11.71008050093685"><ele>465.33333333333337</ele><time>2026-05-03T13:36:49Z</time></trkpt><trkpt lat="43.80211580592743" lon="11.710110464697426"><ele>462.6666666666667</ele><time>2026-05-03T13:36:50Z</time></trkpt><trkpt lat="43.802290126534224" lon="11.710141820952257"><ele>460.0</ele><time>2026-05-03T13:36:51Z</time></trkpt><trkpt lat="43.80245087007796" lon="11.710165022595227"><ele>460.0</ele><time>2026-05-03T13:36:52Z</time></trkpt><trkpt lat="43.80258914975241" lon="11.710162638713"><ele>460.0</ele><time>2026-05-03T13:36:53Z</time></trkpt><trkpt lat="43.80272733092342" lon="11.710115741340362"><ele>460.0</ele><time>2026-05-03T13:36:54Z</time></trkpt><trkpt lat="43.80288584932227" lon="11.710035589385761"><ele>460.0</ele><time>2026-05-03T13:36:55Z</time></trkpt><trkpt lat="43.803049683385765" lon="11.709941659230537"><ele>460.6666666666667</ele><time>2026-05-03T13:36:56Z</time></trkpt><trkpt lat="43.80321338566915" lon="11.709850094345436"><ele>461.33333333333337</ele><time>2026-05-03T13:36:57Z</time></trkpt><trkpt lat="43.803373321901205" lon="11.709762347028427"><ele>462.0</ele><time>2026-05-03T13:36:58Z</time></trkpt><trkpt lat="43.803528669075355" lon="11.709690089476556"><ele>462.75</ele><time>2026-05-03T13:36:59Z</time></trkpt><trkpt lat="43.80367058299949" lon="11.709622316121242"><ele>463.5</ele><time>2026-05-03T13:37:00Z</time></trkpt><trkpt lat="43.80379751698316" lon="11.709562195041146"><ele>464.25</ele><time>2026-05-03T13:37:01Z</time></trkpt><trkpt lat="43.80390664696564" lon="11.709502816092133"><ele>465.0</ele><time>2026-05-03T13:37:02Z</time></trkpt><trkpt lat="43.80399918292694" lon="11.7094160888627"><ele>463.4</ele><time>2026-05-03T13:37:03Z</time></trkpt><trkpt lat="43.80405846792481" lon="11.709297388731589"><ele>461.8</ele><time>2026-05-03T13:37:04Z</time></trkpt><trkpt lat="43.804099091616" lon="11.709158287003074"><ele>460.20000000000005</ele><time>2026-05-03T13:37:05Z</time></trkpt><trkpt lat="43.80411593168439" lon="11.709003659992986"><ele>458.6</ele><time>2026-05-03T13:37:06Z</time></trkpt><trkpt lat="43.80412837041646" lon="11.708851594893844"><ele>457.0</ele><time>2026-05-03T13:37:07Z</time></trkpt><trkpt lat="43.80416231770534" lon="11.708733964046825"><ele>457.0</ele><time>2026-05-03T13:37:08Z</time></trkpt><trkpt lat="43.80423470766741" lon="11.708662507472644"><ele>457.0</ele><time>2026-05-03T13:37:09Z</time></trkpt><trkpt lat="43.80434571472905" lon="11.70866317621574"><ele>457.0</ele><time>2026-05-03T13:37:10Z</time></trkpt><trkpt lat="43.80445719022779" lon="11.70863344219529"><ele>457.0</ele><time>2026-05-03T13:37:11Z</time></trkpt><trkpt lat="43.804598346795544" lon="11.708626456744213"><ele>458.6666666666667</ele><time>2026-05-03T13:37:12Z</time></trkpt><trkpt lat="43.8047531270731" lon="11.70861255454153"><ele>460.33333333333337</ele><time>2026-05-03T13:37:13Z</time></trkpt><trkpt lat="43.80492368906943" lon="11.708589924957092"><ele>462.0</ele><time>2026-05-03T13:37:14Z</time></trkpt><trkpt lat="43.8051027497937" lon="11.708556939381625"><ele>465.66666666666663</ele><time>2026-05-03T13:37:15Z</time></trkpt><trkpt lat="43.805294747312146" lon="11.70850411509531"><ele>469.3333333333333</ele><time>2026-05-03T13:37:16Z</time></trkpt><trkpt lat="43.80549711301918" lon="11.708422275487045"><ele>473.0</ele><time>2026-05-03T13:37:17Z</time></trkpt><trkpt lat="43.80568778261041" lon="11.708331650045226"><ele>473.0</ele><time>2026-05-03T13:37:18Z</time></trkpt><trkpt lat="43.80585085463745" lon="11.70826280907693"><ele>473.0</ele><time>2026-05-03T13:37:19Z</time></trkpt><trkpt lat="43.805998929230796" lon="11.708227533266948"><ele>473.0</ele><time>2026-05-03T13:37:20Z</time></trkpt><trkpt lat="43.806135745002315" lon="11.708241037442166"><ele>473.25</ele><time>2026-05-03T13:37:21Z</time></trkpt><trkpt lat="43.80627250510334" lon="11.708309794090743"><ele>473.5</ele><time>2026-05-03T13:37:22Z</time></trkpt><trkpt lat="43.80638454767335" lon="11.708431565245707"><ele>473.75</ele><time>2026-05-03T13:37:23Z</time></trkpt><trkpt lat="43.80644666722112" lon="11.708616204546487"><ele>474.0</ele><time>2026-05-03T13:37:24Z</time></trkpt><trkpt lat="43.806532117550326" lon="11.708797224998172"><ele>474.0</ele><time>2026-05-03T13:37:25Z</time></trkpt><trkpt lat="43.80662591263845" lon="11.708951812004214"><ele>474.0</ele><time>2026-05-03T13:37:26Z</time></trkpt><trkpt lat="43.80675834922636" lon="11.709082688623816"><ele>474.0</ele><time>2026-05-03T13:37:27Z</time></trkpt><trkpt lat="43.80691256557648" lon="11.709204158981313"><ele>476.33333333333337</ele><time>2026-05-03T13:37:28Z</time></trkpt><trkpt lat="43.80708160446573" lon="11.70931317036819"><ele>478.6666666666667</ele><time>2026-05-03T13:37:29Z</time></trkpt><trkpt lat="43.807264850200994" lon="11.709397855204443"><ele>481.0</ele><time>2026-05-03T13:37:30Z</time></trkpt><trkpt lat="43.80746881984604" lon="11.70947405875649"><ele>483.0</ele><time>2026-05-03T13:37:31Z</time></trkpt><trkpt lat="43.80766775772392" lon="11.709550796492662"><ele>485.0</ele><time>2026-05-03T13:37:32Z</time></trkpt><trkpt lat="43.807854346957484" lon="11.709641759023606"><ele>487.0</ele><time>2026-05-03T13:37:33Z</time></trkpt><trkpt lat="43.80802369464593" lon="11.709750579185783"><ele>487.0</ele><time>2026-05-03T13:37:34Z</time></trkpt><trkpt lat="43.80817757575132" lon="11.709854441717692"><ele>487.0</ele><time>2026-05-03T13:37:35Z</time></trkpt><trkpt lat="43.80834540915425" lon="11.709918090364852"><ele>487.0</ele><time>2026-05-03T13:37:36Z</time></trkpt><trkpt lat="43.8085344868395" lon="11.709940456563832"><ele>489.0</ele><time>2026-05-03T13:37:37Z</time></trkpt><trkpt lat="43.808728588296" lon="11.709949437503012"><ele>491.0</ele><time>2026-05-03T13:37:38Z</time></trkpt><trkpt lat="43.80890114910801" lon="11.709994587079375"><ele>493.0</ele><time>2026-05-03T13:37:39Z</time></trkpt><trkpt lat="43.80906675493793" lon="11.71009399958606"><ele>493.0</ele><time>2026-05-03T13:37:40Z</time></trkpt><trkpt lat="43.80922426845834" lon="11.710234180551819"><ele>493.0</ele><time>2026-05-03T13:37:41Z</time></trkpt><trkpt lat="43.809363312810376" lon="11.710386536433957"><ele>493.0</ele><time>2026-05-03T13:37:42Z</time></trkpt><trkpt lat="43.80948699502886" lon="11.710498038579585"><ele>493.5</ele><time>2026-05-03T13:37:43Z</time></trkpt><trkpt lat="43.809610726694196" lon="11.710562422346523"><ele>494.0</ele><time>2026-05-03T13:37:44Z</time></trkpt><trkpt lat="43.80974231565743" lon="11.710590374792423"><ele>494.5</ele><time>2026-05-03T13:37:45Z</time></trkpt><trkpt lat="43.809885302288805" lon="11.710591369692366"><ele>495.0</ele><time>2026-05-03T13:37:46Z</time></trkpt><trkpt lat="43.81003215315384" lon="11.710576272849398"><ele>495.75</ele><time>2026-05-03T13:37:47Z</time></trkpt><trkpt lat="43.810173233235325" lon="11.710577567049379"><ele>496.5</ele><time>2026-05-03T13:37:48Z</time></trkpt><trkpt lat="43.810296894892495" lon="11.71064901740322"><ele>497.25</ele><time>2026-05-03T13:37:49Z</time></trkpt><trkpt lat="43.81042515351449" lon="11.710715756798919"><ele>498.0</ele><time>2026-05-03T13:37:50Z</time></trkpt><trkpt lat="43.81053365567342" lon="11.710817173886534"><ele>498.0</ele><time>2026-05-03T13:37:51Z</time></trkpt><trkpt lat="43.81063323696105" lon="11.710913612855753"><ele>498.0</ele><time>2026-05-03T13:37:52Z</time></trkpt><trkpt lat="43.810726970151805" lon="11.7110013613436"><ele>498.0</ele><time>2026-05-03T13:37:53Z</time></trkpt><trkpt lat="43.81082661939556" lon="11.711067383334798"><ele>498.0</ele><time>2026-05-03T13:37:54Z</time></trkpt><trkpt lat="43.81093901660655" lon="11.711094046757271"><ele>499.25</ele><time>2026-05-03T13:37:55Z</time></trkpt><trkpt lat="43.81106458716836" lon="11.711075951060845"><ele>500.5</ele><time>2026-05-03T13:37:56Z</time></trkpt><trkpt lat="43.811194417948485" lon="11.711026245927863"><ele>501.75</ele><time>2026-05-03T13:37:57Z</time></trkpt><trkpt lat="43.81132432818184" lon="11.711005696294814"><ele>503.0</ele><time>2026-05-03T13:37:58Z</time></trkpt><trkpt lat="43.811440360775585" lon="11.711093092389378"><ele>502.25</ele><time>2026-05-03T13:37:59Z</time></trkpt><trkpt lat="43.81156201793924" lon="11.71118601715446"><ele>501.5</ele><time>2026-05-03T13:38:00Z</time></trkpt><trkpt lat="43.81166944800014" lon="11.71131274344126"><ele>500.75</ele><time>2026-05-03T13:38:01Z</time></trkpt><trkpt lat="43.81177897705708" lon="11.71143519903198"><ele>500.0</ele><time>2026-05-03T13:38:02Z</time></trkpt><trkpt lat="43.81189501190368" lon="11.711566060615446"><ele>500.0</ele><time>2026-05-03T13:38:03Z</time></trkpt><trkpt lat="43.81201383032203" lon="11.71170018581041"><ele>500.0</ele><time>2026-05-03T13:38:04Z</time></trkpt><trkpt lat="43.81213129285979" lon="11.711836594219651"><ele>500.0</ele><time>2026-05-03T13:38:05Z</time></trkpt><trkpt lat="43.812212924738866" lon="11.712022838270613"><ele>499.0</ele><time>2026-05-03T13:38:06Z</time></trkpt><trkpt lat="43.812313346177625" lon="11.712170917892987"><ele>498.0</ele><time>2026-05-03T13:38:07Z</time></trkpt><trkpt lat="43.812393254021224" lon="11.7123012235852"><ele>497.0</ele><time>2026-05-03T13:38:08Z</time></trkpt><trkpt lat="43.81249517522352" lon="11.71238720919543"><ele>496.0</ele><time>2026-05-03T13:38:09Z</time></trkpt><trkpt lat="43.81262045585173" lon="11.712483615175671"><ele>496.33333333333337</ele><time>2026-05-03T13:38:10Z</time></trkpt><trkpt lat="43.81276886183821" lon="11.712579927227466"><ele>496.66666666666663</ele><time>2026-05-03T13:38:11Z</time></trkpt><trkpt lat="43.81293808162265" lon="11.712674763692618"><ele>497.0</ele><time>2026-05-03T13:38:12Z</time></trkpt><trkpt lat="43.81310977331355" lon="11.71279493805371"><ele>497.0</ele><time>2026-05-03T13:38:13Z</time></trkpt><trkpt lat="43.81326843835343" lon="11.71296965310505"><ele>497.0</ele><time>2026-05-03T13:38:14Z</time></trkpt><trkpt lat="43.813371046974204" lon="11.713200330322998"><ele>497.0</ele><time>2026-05-03T13:38:15Z</time></trkpt><trkpt lat="43.8134700013565" lon="11.71343350209345"><ele>500.3333333333333</ele><time>2026-05-03T13:38:16Z</time></trkpt><trkpt lat="43.81354320730092" lon="11.713673041204258"><ele>503.66666666666663</ele><time>2026-05-03T13:38:17Z</time></trkpt><trkpt lat="43.81363219470663" lon="11.713855997947164"><ele>507.0</ele><time>2026-05-03T13:38:18Z</time></trkpt><trkpt lat="43.81375759019529" lon="11.71400576661755"><ele>507.0</ele><time>2026-05-03T13:38:19Z</time></trkpt><trkpt lat="43.81391792617995" lon="11.714141394372104"><ele>507.0</ele><time>2026-05-03T13:38:20Z</time></trkpt><trkpt lat="43.81409249136813" lon="11.714240631861461"><ele>507.0</ele><time>2026-05-03T13:38:21Z</time></trkpt><trkpt lat="43.81424529322914" lon="11.714324749271565"><ele>513.0</ele><time>2026-05-03T13:38:22Z</time></trkpt><trkpt lat="43.8143482778077" lon="11.714482933476708"><ele>519.0</ele><time>2026-05-03T13:38:23Z</time></trkpt><trkpt lat="43.814434309355825" lon="11.714695235669675"><ele>525.0</ele><time>2026-05-03T13:38:24Z</time></trkpt><trkpt lat="43.8145475371931" lon="11.714913113623089"><ele>525.0</ele><time>2026-05-03T13:38:25Z</time></trkpt><trkpt lat="43.814645541913656" lon="11.715157613165738"><ele>525.0</ele><time>2026-05-03T13:38:26Z</time></trkpt><trkpt lat="43.814752485294775" lon="11.715400494277947"><ele>525.0</ele><time>2026-05-03T13:38:27Z</time></trkpt><trkpt lat="43.81484767449276" lon="11.715616751621276"><ele>525.0</ele><time>2026-05-03T13:38:28Z</time></trkpt><trkpt lat="43.81493113878591" lon="11.715803838374203"><ele>525.0</ele><time>2026-05-03T13:38:29Z</time></trkpt><trkpt lat="43.81498147443373" lon="11.715990369375348"><ele>525.0</ele><time>2026-05-03T13:38:30Z</time></trkpt><trkpt lat="43.814985273581506" lon="11.716181419584547"><ele>525.0</ele><time>2026-05-03T13:38:31Z</time></trkpt><trkpt lat="43.81492512555566" lon="11.716368857225804"><ele>525.0</ele><time>2026-05-03T13:38:32Z</time></trkpt><trkpt lat="43.81487883383063" lon="11.716584793140704"><ele>525.0</ele><time>2026-05-03T13:38:33Z</time></trkpt><trkpt lat="43.81480253092452" lon="11.71680692248275"><ele>525.0</ele><time>2026-05-03T13:38:34Z</time></trkpt><trkpt lat="43.81473535181025" lon="11.717055026384847"><ele>528.6666666666666</ele><time>2026-05-03T13:38:35Z</time></trkpt><trkpt lat="43.814655386420846" lon="11.717319810576813"><ele>532.3333333333333</ele><time>2026-05-03T13:38:36Z</time></trkpt><trkpt lat="43.81455556705299" lon="11.717589448528177"><ele>536.0</ele><time>2026-05-03T13:38:37Z</time></trkpt><trkpt lat="43.81444352864474" lon="11.717869814689237"><ele>527.0</ele><time>2026-05-03T13:38:38Z</time></trkpt><trkpt lat="43.814329871074634" lon="11.718163422291882"><ele>518.0</ele><time>2026-05-03T13:38:39Z</time></trkpt><trkpt lat="43.814219805685106" lon="11.718458231011894"><ele>522.3333333333333</ele><time>2026-05-03T13:38:40Z</time></trkpt><trkpt lat="43.81411994925632" lon="11.718728451765692"><ele>526.6666666666666</ele><time>2026-05-03T13:38:41Z</time></trkpt><trkpt lat="43.81402955640573" lon="11.718964463730073"><ele>531.0</ele><time>2026-05-03T13:38:42Z</time></trkpt><trkpt lat="43.813923693432635" lon="11.7191600576871"><ele>531.0</ele><time>2026-05-03T13:38:43Z</time></trkpt><trkpt lat="43.81378537264705" lon="11.719310012292778"><ele>531.0</ele><time>2026-05-03T13:38:44Z</time></trkpt><trkpt lat="43.813652729281316" lon="11.719457752183168"><ele>531.0</ele><time>2026-05-03T13:38:45Z</time></trkpt><trkpt lat="43.81356299432884" lon="11.719635609316665"><ele>531.3333333333334</ele><time>2026-05-03T13:38:46Z</time></trkpt><trkpt lat="43.81350826850655" lon="11.719850136826903"><ele>531.6666666666667</ele><time>2026-05-03T13:38:47Z</time></trkpt><trkpt lat="43.81348934616516" lon="11.720089316139033"><ele>532.0</ele><time>2026-05-03T13:38:48Z</time></trkpt><trkpt lat="43.813482254171625" lon="11.720351346161658"><ele>532.0</ele><time>2026-05-03T13:38:49Z</time></trkpt><trkpt lat="43.81348369306047" lon="11.720599650902221"><ele>532.0</ele><time>2026-05-03T13:38:50Z</time></trkpt><trkpt lat="43.81350572879208" lon="11.72081218220549"><ele>532.0</ele><time>2026-05-03T13:38:51Z</time></trkpt><trkpt lat="43.81358168557389" lon="11.72098488886943"><ele>530.3333333333334</ele><time>2026-05-03T13:38:52Z</time></trkpt><trkpt lat="43.813701492711445" lon="11.721114127897701"><ele>528.6666666666666</ele><time>2026-05-03T13:38:53Z</time></trkpt><trkpt lat="43.81384589193958" lon="11.72119679254049"><ele>527.0</ele><time>2026-05-03T13:38:54Z</time></trkpt><trkpt lat="43.813998457303455" lon="11.721297680704204"><ele>527.0</ele><time>2026-05-03T13:38:55Z</time></trkpt><trkpt lat="43.814111548475765" lon="11.721468504541841"><ele>527.0</ele><time>2026-05-03T13:38:56Z</time></trkpt><trkpt lat="43.81419733506266" lon="11.721661871470994"><ele>527.0</ele><time>2026-05-03T13:38:57Z</time></trkpt><trkpt lat="43.814241368300806" lon="11.721890063742363"><ele>527.6666666666666</ele><time>2026-05-03T13:38:58Z</time></trkpt><trkpt lat="43.814309431049786" lon="11.722146043695203"><ele>528.3333333333334</ele><time>2026-05-03T13:38:59Z</time></trkpt><trkpt lat="43.814367244537706" lon="11.722431758502546"><ele>529.0</ele><time>2026-05-03T13:39:00Z</time></trkpt><trkpt lat="43.81442477757379" lon="11.722696130978107"><ele>535.0</ele><time>2026-05-03T13:39:01Z</time></trkpt><trkpt lat="43.81442651666375" lon="11.72291282831309"><ele>541.0</ele><time>2026-05-03T13:39:02Z</time></trkpt><trkpt lat="43.81440276204141" lon="11.723112685250042"><ele>547.0</ele><time>2026-05-03T13:39:03Z</time></trkpt><trkpt lat="43.81439531781864" lon="11.723285550303856"><ele>553.0</ele><time>2026-05-03T13:39:04Z</time></trkpt><trkpt lat="43.81442698812341" lon="11.723460035139816"><ele>552.3333333333334</ele><time>2026-05-03T13:39:05Z</time></trkpt><trkpt lat="43.81451904436097" lon="11.72362203405904"><ele>551.6666666666666</ele><time>2026-05-03T13:39:06Z</time></trkpt><trkpt lat="43.81465301087027" lon="11.723777589562864"><ele>551.0</ele><time>2026-05-03T13:39:07Z</time></trkpt><trkpt lat="43.8147927662433" lon="11.723944515674233"><ele>551.0</ele><time>2026-05-03T13:39:08Z</time></trkpt><trkpt lat="43.81490632054519" lon="11.724181951155188"><ele>551.0</ele><time>2026-05-03T13:39:09Z</time></trkpt><trkpt lat="43.81503705011624" lon="11.72444194132648"><ele>551.0</ele><time>2026-05-03T13:39:10Z</time></trkpt><trkpt lat="43.81515455062805" lon="11.724707931773132"><ele>556.0</ele><time>2026-05-03T13:39:11Z</time></trkpt><trkpt lat="43.81525646920964" lon="11.724926668854936"><ele>561.0</ele><time>2026-05-03T13:39:12Z</time></trkpt><trkpt lat="43.815310135929856" lon="11.725140137167015"><ele>566.0</ele><time>2026-05-03T13:39:13Z</time></trkpt><trkpt lat="43.81536411678959" lon="11.725354037754586"><ele>566.0</ele><time>2026-05-03T13:39:14Z</time></trkpt><trkpt lat="43.8153697828597" lon="11.725603094658888"><ele>566.0</ele><time>2026-05-03T13:39:15Z</time></trkpt><trkpt lat="43.815287086603185" lon="11.725823178238992"><ele>566.0</ele><time>2026-05-03T13:39:16Z</time></trkpt><trkpt lat="43.81525513002295" lon="11.726023924737618"><ele>565.25</ele><time>2026-05-03T13:39:17Z</time></trkpt><trkpt lat="43.81522955778904" lon="11.726190511830998"><ele>564.5</ele><time>2026-05-03T13:39:18Z</time></trkpt><trkpt lat="43.81526227298245" lon="11.726369120228552"><ele>563.75</ele><time>2026-05-03T13:39:19Z</time></trkpt><trkpt lat="43.815352113667934" lon="11.72652627545854"><ele>563.0</ele><time>2026-05-03T13:39:20Z</time></trkpt><trkpt lat="43.81549201156281" lon="11.726629462557415"><ele>563.0</ele><time>2026-05-03T13:39:21Z</time></trkpt><trkpt lat="43.81564110499991" lon="11.726720070866945"><ele>563.0</ele><time>2026-05-03T13:39:22Z</time></trkpt><trkpt lat="43.815735733722406" lon="11.72684547254123"><ele>563.0</ele><time>2026-05-03T13:39:23Z</time></trkpt><trkpt lat="43.81577642656805" lon="11.727028238696219"><ele>563.0</ele><time>2026-05-03T13:39:24Z</time></trkpt><trkpt lat="43.815764665421966" lon="11.727275951251913"><ele>562.6666666666666</ele><time>2026-05-03T13:39:25Z</time></trkpt><trkpt lat="43.81577850207297" lon="11.727541236407356"><ele>562.3333333333334</ele><time>2026-05-03T13:39:26Z</time></trkpt><trkpt lat="43.81583679711546" lon="11.727796105200293"><ele>562.0</ele><time>2026-05-03T13:39:27Z</time></trkpt><trkpt lat="43.81592050290082" lon="11.728028717529783"><ele>568.6666666666667</ele><time>2026-05-03T13:39:28Z</time></trkpt><trkpt lat="43.8160137915951" lon="11.728289117755462"><ele>575.3333333333334</ele><time>2026-05-03T13:39:29Z</time></trkpt><trkpt lat="43.81610392524023" lon="11.728575256453981"><ele>582.0</ele><time>2026-05-03T13:39:30Z</time></trkpt><trkpt lat="43.81621344438379" lon="11.728879010870438"><ele>582.0</ele><time>2026-05-03T13:39:31Z</time></trkpt><trkpt lat="43.81630200780944" lon="11.729191476178737"><ele>582.0</ele><time>2026-05-03T13:39:32Z</time></trkpt><trkpt lat="43.81639819467415" lon="11.7294798787294"><ele>578.6666666666666</ele><time>2026-05-03T13:39:33Z</time></trkpt><trkpt lat="43.816490777558634" lon="11.729725306289572"><ele>575.3333333333333</ele><time>2026-05-03T13:39:34Z</time></trkpt><trkpt lat="43.81657743136558" lon="11.729959433015154"><ele>572.0</ele><time>2026-05-03T13:39:35Z</time></trkpt><trkpt lat="43.81667213546439" lon="11.730168035269093"><ele>569.6666666666666</ele><time>2026-05-03T13:39:36Z</time></trkpt><trkpt lat="43.81680398846896" lon="11.730361283241722"><ele>567.3333333333334</ele><time>2026-05-03T13:39:37Z</time></trkpt><trkpt lat="43.81695998238722" lon="11.73055191422452"><ele>565.0</ele><time>2026-05-03T13:39:38Z</time></trkpt><trkpt lat="43.817084989310985" lon="11.73073665759152"><ele>575.3333333333334</ele><time>2026-05-03T13:39:39Z</time></trkpt><trkpt lat="43.81715764482195" lon="11.730943961818639"><ele>585.6666666666666</ele><time>2026-05-03T13:39:40Z</time></trkpt><trkpt lat="43.81718136987757" lon="11.731191973848807"><ele>596.0</ele><time>2026-05-03T13:39:41Z</time></trkpt><trkpt lat="43.81722361870693" lon="11.731462295330894"><ele>596.0</ele><time>2026-05-03T13:39:42Z</time></trkpt><trkpt lat="43.817254568904254" lon="11.731761359003576"><ele>596.0</ele><time>2026-05-03T13:39:43Z</time></trkpt><trkpt lat="43.81729499622477" lon="11.7320595734127"><ele>596.0</ele><time>2026-05-03T13:39:44Z</time></trkpt><trkpt lat="43.81727425115904" lon="11.732348486061353"><ele>596.5</ele><time>2026-05-03T13:39:45Z</time></trkpt><trkpt lat="43.81729150414927" lon="11.732659466790158"><ele>597.0</ele><time>2026-05-03T13:39:46Z</time></trkpt><trkpt lat="43.81731159953861" lon="11.732987432287077"><ele>597.3333333333334</ele><time>2026-05-03T13:39:47Z</time></trkpt><trkpt lat="43.817352204352346" lon="11.73331195893872"><ele>597.6666666666667</ele><time>2026-05-03T13:39:48Z</time></trkpt><trkpt lat="43.81738098189086" lon="11.733595476181222"><ele>598.0</ele><time>2026-05-03T13:39:49Z</time></trkpt><trkpt lat="43.817371265356016" lon="11.733849292806307"><ele>601.0</ele><time>2026-05-03T13:39:50Z</time></trkpt><trkpt lat="43.817275144872326" lon="11.734078717993466"><ele>604.0</ele><time>2026-05-03T13:39:51Z</time></trkpt><trkpt lat="43.81721545998014" lon="11.734351843166628"><ele>607.0</ele><time>2026-05-03T13:39:52Z</time></trkpt><trkpt lat="43.81714966121764" lon="11.734619235614932"><ele>608.6666666666667</ele><time>2026-05-03T13:39:53Z</time></trkpt><trkpt lat="43.81711367352946" lon="11.73485417304467"><ele>610.3333333333334</ele><time>2026-05-03T13:39:54Z</time></trkpt><trkpt lat="43.81710541437377" lon="11.735053654963306"><ele>612.0</ele><time>2026-05-03T13:39:55Z</time></trkpt><trkpt lat="43.81714853062902" lon="11.73526082017612"><ele>612.0</ele><time>2026-05-03T13:39:56Z</time></trkpt><trkpt lat="43.81720705132025" lon="11.735453369707436"><ele>612.0</ele><time>2026-05-03T13:39:57Z</time></trkpt><trkpt lat="43.8171965199251" lon="11.735631655302681"><ele>612.0</ele><time>2026-05-03T13:39:58Z</time></trkpt><trkpt lat="43.81716592194466" lon="11.735827906144973"><ele>612.0</ele><time>2026-05-03T13:39:59Z</time></trkpt><trkpt lat="43.817075394304084" lon="11.736044489086533"><ele>613.0</ele><time>2026-05-03T13:40:00Z</time></trkpt><trkpt lat="43.81700645533285" lon="11.736282784302668"><ele>614.0</ele><time>2026-05-03T13:40:01Z</time></trkpt><trkpt lat="43.81697483498738" lon="11.736562006329157"><ele>615.0</ele><time>2026-05-03T13:40:02Z</time></trkpt><trkpt lat="43.81696164405585" lon="11.736858443569243"><ele>618.6666666666666</ele><time>2026-05-03T13:40:03Z</time></trkpt><trkpt lat="43.816944257835765" lon="11.7371310120962"><ele>622.3333333333333</ele><time>2026-05-03T13:40:04Z</time></trkpt><trkpt lat="43.81695318539891" lon="11.73737593958334"><ele>626.0</ele><time>2026-05-03T13:40:05Z</time></trkpt><trkpt lat="43.81700063643126" lon="11.73762235254868"><ele>625.25</ele><time>2026-05-03T13:40:06Z</time></trkpt><trkpt lat="43.81700941805584" lon="11.737854572565437"><ele>624.5</ele><time>2026-05-03T13:40:07Z</time></trkpt><trkpt lat="43.816963081506856" lon="11.738039115335065"><ele>623.75</ele><time>2026-05-03T13:40:08Z</time></trkpt><trkpt lat="43.816926783341984" lon="11.738223432476632"><ele>623.0</ele><time>2026-05-03T13:40:09Z</time></trkpt><trkpt lat="43.81688366524837" lon="11.73838114881705"><ele>623.0</ele><time>2026-05-03T13:40:10Z</time></trkpt><trkpt lat="43.81690545393006" lon="11.738526300162166"><ele>623.0</ele><time>2026-05-03T13:40:11Z</time></trkpt><trkpt lat="43.816988810172305" lon="11.7386370556042"><ele>623.0</ele><time>2026-05-03T13:40:12Z</time></trkpt><trkpt lat="43.817117296316944" lon="11.738690945267969"><ele>623.0</ele><time>2026-05-03T13:40:13Z</time></trkpt><trkpt lat="43.81728703797732" lon="11.73871398072462"><ele>621.0</ele><time>2026-05-03T13:40:14Z</time></trkpt><trkpt lat="43.817461649825226" lon="11.738754664061409"><ele>619.0</ele><time>2026-05-03T13:40:15Z</time></trkpt><trkpt lat="43.81765537164152" lon="11.738825960329143"><ele>617.0</ele><time>2026-05-03T13:40:16Z</time></trkpt><trkpt lat="43.817829405417505" lon="11.738904403723858"><ele>617.0</ele><time>2026-05-03T13:40:17Z</time></trkpt><trkpt lat="43.81795228694547" lon="11.739033383963106"><ele>617.0</ele><time>2026-05-03T13:40:18Z</time></trkpt><trkpt lat="43.81807451481581" lon="11.73919853195061"><ele>617.0</ele><time>2026-05-03T13:40:19Z</time></trkpt><trkpt lat="43.818198173972604" lon="11.739341763857514"><ele>613.0</ele><time>2026-05-03T13:40:20Z</time></trkpt><trkpt lat="43.81832278513043" lon="11.739447603020004"><ele>609.0</ele><time>2026-05-03T13:40:21Z</time></trkpt><trkpt lat="43.81849247757836" lon="11.739500653376338"><ele>605.0</ele><time>2026-05-03T13:40:22Z</time></trkpt><trkpt lat="43.818685759652595" lon="11.739539545180968"><ele>605.0</ele><time>2026-05-03T13:40:23Z</time></trkpt><trkpt lat="43.81888143884683" lon="11.739561681773969"><ele>605.0</ele><time>2026-05-03T13:40:24Z</time></trkpt><trkpt lat="43.819053232949436" lon="11.739533172674486"><ele>605.0</ele><time>2026-05-03T13:40:25Z</time></trkpt><trkpt lat="43.81920847109253" lon="11.73949992840132"><ele>609.6666666666666</ele><time>2026-05-03T13:40:26Z</time></trkpt><trkpt lat="43.819342926131505" lon="11.739574099275188"><ele>614.3333333333334</ele><time>2026-05-03T13:40:27Z</time></trkpt><trkpt lat="43.819477547108384" lon="11.739672380447159"><ele>619.0</ele><time>2026-05-03T13:40:28Z</time></trkpt><trkpt lat="43.81960979627292" lon="11.73983430592017"><ele>619.0</ele><time>2026-05-03T13:40:29Z</time></trkpt><trkpt lat="43.8197402448332" lon="11.740035385949314"><ele>619.0</ele><time>2026-05-03T13:40:30Z</time></trkpt><trkpt lat="43.81989258389805" lon="11.740222816734319"><ele>619.0</ele><time>2026-05-03T13:40:31Z</time></trkpt><trkpt lat="43.82004003915046" lon="11.740389375411644"><ele>619.0</ele><time>2026-05-03T13:40:32Z</time></trkpt><trkpt lat="43.82018944868192" lon="11.740512302623783"><ele>619.0</ele><time>2026-05-03T13:40:33Z</time></trkpt><trkpt lat="43.82036187093398" lon="11.7406027227204"><ele>619.0</ele><time>2026-05-03T13:40:34Z</time></trkpt><trkpt lat="43.820560232148175" lon="11.74064886189015"><ele>619.0</ele><time>2026-05-03T13:40:35Z</time></trkpt><trkpt lat="43.82076813362045" lon="11.74069246685187"><ele>619.0</ele><time>2026-05-03T13:40:36Z</time></trkpt><trkpt lat="43.82094430650517" lon="11.740752823099703"><ele>619.0</ele><time>2026-05-03T13:40:37Z</time></trkpt><trkpt lat="43.821050799924265" lon="11.740798459765795"><ele>620.6</ele><time>2026-05-03T13:40:38Z</time></trkpt><trkpt lat="43.82109562160153" lon="11.74090367346466"><ele>622.2</ele><time>2026-05-03T13:40:39Z</time></trkpt><trkpt lat="43.821101138606345" lon="11.741032386645065"><ele>623.8000000000001</ele><time>2026-05-03T13:40:40Z</time></trkpt><trkpt lat="43.8210555352376" lon="11.741185031632957"><ele>625.4</ele><time>2026-05-03T13:40:41Z</time></trkpt><trkpt lat="43.8209379925003" lon="11.741298942750616"><ele>627.0</ele><time>2026-05-03T13:40:42Z</time></trkpt><trkpt lat="43.82082701370831" lon="11.741461258604954"><ele>627.6666666666666</ele><time>2026-05-03T13:40:43Z</time></trkpt><trkpt lat="43.8206933201373" lon="11.74162058534273"><ele>628.3333333333333</ele><time>2026-05-03T13:40:44Z</time></trkpt><trkpt lat="43.82056716696989" lon="11.741776677231112"><ele>629.0</ele><time>2026-05-03T13:40:45Z</time></trkpt><trkpt lat="43.82042749502806" lon="11.741851765848063"><ele>629.0</ele><time>2026-05-03T13:40:46Z</time></trkpt><trkpt lat="43.820279725944694" lon="11.741847275164472"><ele>629.0</ele><time>2026-05-03T13:40:47Z</time></trkpt><trkpt lat="43.82013962982192" lon="11.741767865702421"><ele>629.0</ele><time>2026-05-03T13:40:48Z</time></trkpt><trkpt lat="43.81994611452658" lon="11.741643907199267"><ele>629.3333333333333</ele><time>2026-05-03T13:40:49Z</time></trkpt><trkpt lat="43.81978393958098" lon="11.741534135765788"><ele>629.6666666666666</ele><time>2026-05-03T13:40:50Z</time></trkpt><trkpt lat="43.81963171241477" lon="11.741483890796125"><ele>630.0</ele><time>2026-05-03T13:40:51Z</time></trkpt><trkpt lat="43.819478182316146" lon="11.74150666502378"><ele>631.6666666666666</ele><time>2026-05-03T13:40:52Z</time></trkpt><trkpt lat="43.8193054883589" lon="11.741593196040318"><ele>633.3333333333333</ele><time>2026-05-03T13:40:53Z</time></trkpt><trkpt lat="43.81911223232051" lon="11.741691622781175"><ele>635.0</ele><time>2026-05-03T13:40:54Z</time></trkpt><trkpt lat="43.81893408119948" lon="11.74169710631512"><ele>635.0</ele><time>2026-05-03T13:40:55Z</time></trkpt><trkpt lat="43.818767307214635" lon="11.741639478204826"><ele>635.0</ele><time>2026-05-03T13:40:56Z</time></trkpt><trkpt lat="43.818563788877995" lon="11.74158013781252"><ele>635.0</ele><time>2026-05-03T13:40:57Z</time></trkpt><trkpt lat="43.81835098058356" lon="11.74149612890389"><ele>637.3333333333333</ele><time>2026-05-03T13:40:58Z</time></trkpt><trkpt lat="43.81814999316443" lon="11.741429396257498"><ele>639.6666666666666</ele><time>2026-05-03T13:40:59Z</time></trkpt><trkpt lat="43.81799606796926" lon="11.74137031581299"><ele>642.0</ele><time>2026-05-03T13:41:00Z</time></trkpt><trkpt lat="43.81788591200625" lon="11.741347342936415"><ele>642.0</ele><time>2026-05-03T13:41:01Z</time></trkpt><trkpt lat="43.81779724884314" lon="11.741400106239906"><ele>642.0</ele><time>2026-05-03T13:41:02Z</time></trkpt><trkpt lat="43.81773892103706" lon="11.74153140133958"><ele>642.0</ele><time>2026-05-03T13:41:03Z</time></trkpt><trkpt lat="43.81773035964228" lon="11.741705880141694"><ele>642.0</ele><time>2026-05-03T13:41:04Z</time></trkpt><trkpt lat="43.817792665492355" lon="11.741859879516092"><ele>642.0</ele><time>2026-05-03T13:41:05Z</time></trkpt><trkpt lat="43.81790468117898" lon="11.741935169669507"><ele>642.0</ele><time>2026-05-03T13:41:06Z</time></trkpt><trkpt lat="43.818045204387985" lon="11.741926679036853"><ele>642.0</ele><time>2026-05-03T13:41:07Z</time></trkpt><trkpt lat="43.81821068925765" lon="11.741867780879172"><ele>642.0</ele><time>2026-05-03T13:41:08Z</time></trkpt><trkpt lat="43.81839863070628" lon="11.74186069306446"><ele>650.3333333333334</ele><time>2026-05-03T13:41:09Z</time></trkpt><trkpt lat="43.81857723123044" lon="11.741902279194623"><ele>658.6666666666667</ele><time>2026-05-03T13:41:10Z</time></trkpt><trkpt lat="43.81876818416098" lon="11.741999369192627"><ele>667.0</ele><time>2026-05-03T13:41:11Z</time></trkpt><trkpt lat="43.818979516419716" lon="11.74209216997882"><ele>667.0</ele><time>2026-05-03T13:41:12Z</time></trkpt><trkpt lat="43.819193158470696" lon="11.74221746167977"><ele>667.0</ele><time>2026-05-03T13:41:13Z</time></trkpt><trkpt lat="43.8194207322258" lon="11.742342982351841"><ele>662.0</ele><time>2026-05-03T13:41:14Z</time></trkpt><trkpt lat="43.81965452660189" lon="11.742465974159668"><ele>657.0</ele><time>2026-05-03T13:41:15Z</time></trkpt><trkpt lat="43.81989151375209" lon="11.74259076287693"><ele>664.0</ele><time>2026-05-03T13:41:16Z</time></trkpt><trkpt lat="43.82011396817363" lon="11.74272269856902"><ele>671.0</ele><time>2026-05-03T13:41:17Z</time></trkpt><trkpt lat="43.820321123854136" lon="11.742873164698901"><ele>671.0</ele><time>2026-05-03T13:41:18Z</time></trkpt><trkpt lat="43.82051730491969" lon="11.743033934848976"><ele>671.0</ele><time>2026-05-03T13:41:19Z</time></trkpt><trkpt lat="43.82068221693802" lon="11.743165457292637"><ele>671.0</ele><time>2026-05-03T13:41:20Z</time></trkpt><trkpt lat="43.82084763584786" lon="11.743252075101086"><ele>675.3333333333333</ele><time>2026-05-03T13:41:21Z</time></trkpt><trkpt lat="43.821041434940476" lon="11.743292073095624"><ele>679.6666666666666</ele><time>2026-05-03T13:41:22Z</time></trkpt><trkpt lat="43.821249568495354" lon="11.743262134169647"><ele>684.0</ele><time>2026-05-03T13:41:23Z</time></trkpt><trkpt lat="43.821468990158536" lon="11.743164493888889"><ele>684.0</ele><time>2026-05-03T13:41:24Z</time></trkpt><trkpt lat="43.82168974249313" lon="11.74302709416724"><ele>684.0</ele><time>2026-05-03T13:41:25Z</time></trkpt><trkpt lat="43.82191148977745" lon="11.742943769271157"><ele>687.0</ele><time>2026-05-03T13:41:26Z</time></trkpt><trkpt lat="43.82214056709916" lon="11.742927991595582"><ele>690.0</ele><time>2026-05-03T13:41:27Z</time></trkpt><trkpt lat="43.82236937926537" lon="11.742978393548473"><ele>690.0</ele><time>2026-05-03T13:41:28Z</time></trkpt><trkpt lat="43.82260918819132" lon="11.743079301143357"><ele>690.0</ele><time>2026-05-03T13:41:29Z</time></trkpt><trkpt lat="43.822847413246286" lon="11.743175235730785"><ele>687.3333333333334</ele><time>2026-05-03T13:41:30Z</time></trkpt><trkpt lat="43.823071919054755" lon="11.74327831053935"><ele>684.6666666666667</ele><time>2026-05-03T13:41:31Z</time></trkpt><trkpt lat="43.82323615015754" lon="11.743375362013603"><ele>682.0</ele><time>2026-05-03T13:41:32Z</time></trkpt><trkpt lat="43.82338829286454" lon="11.743493862283264"><ele>685.5</ele><time>2026-05-03T13:41:33Z</time></trkpt><trkpt lat="43.82342700732435" lon="11.743663916501726"><ele>689.0</ele><time>2026-05-03T13:41:34Z</time></trkpt><trkpt lat="43.82342683439359" lon="11.7438583535799"><ele>692.5</ele><time>2026-05-03T13:41:35Z</time></trkpt><trkpt lat="43.82343577598441" lon="11.74408559221665"><ele>696.0</ele><time>2026-05-03T13:41:36Z</time></trkpt><trkpt lat="43.823482734400116" lon="11.7442996534123"><ele>704.6666666666666</ele><time>2026-05-03T13:41:37Z</time></trkpt><trkpt lat="43.8235922518594" lon="11.744502614922876"><ele>713.3333333333333</ele><time>2026-05-03T13:41:38Z</time></trkpt><trkpt lat="43.82372687532563" lon="11.744649690858505"><ele>722.0</ele><time>2026-05-03T13:41:39Z</time></trkpt><trkpt lat="43.823907510348555" lon="11.744734249212998"><ele>722.0</ele><time>2026-05-03T13:41:40Z</time></trkpt><trkpt lat="43.824093805140414" lon="11.744734879284566"><ele>722.0</ele><time>2026-05-03T13:41:41Z</time></trkpt><trkpt lat="43.824270034271485" lon="11.744667619085952"><ele>722.0</ele><time>2026-05-03T13:41:42Z</time></trkpt><trkpt lat="43.82443366090497" lon="11.744579654916038"><ele>726.25</ele><time>2026-05-03T13:41:43Z</time></trkpt><trkpt lat="43.824568699261924" lon="11.744494131129"><ele>730.5</ele><time>2026-05-03T13:41:44Z</time></trkpt><trkpt lat="43.824687092255" lon="11.744432730147725"><ele>734.75</ele><time>2026-05-03T13:41:45Z</time></trkpt><trkpt lat="43.82479111437024" lon="11.74439089681747"><ele>739.0</ele><time>2026-05-03T13:41:46Z</time></trkpt><trkpt lat="43.824889010997104" lon="11.744389512723291"><ele>739.0</ele><time>2026-05-03T13:41:47Z</time></trkpt><trkpt lat="43.82500987236908" lon="11.744398213548058"><ele>739.0</ele><time>2026-05-03T13:41:48Z</time></trkpt><trkpt lat="43.825130582709555" lon="11.744398184274694"><ele>739.0</ele><time>2026-05-03T13:41:49Z</time></trkpt><trkpt lat="43.82525348462313" lon="11.744425946206263"><ele>739.0</ele><time>2026-05-03T13:41:50Z</time></trkpt><trkpt lat="43.82537661202497" lon="11.74443715947916"><ele>742.5</ele><time>2026-05-03T13:41:51Z</time></trkpt><trkpt lat="43.82551057633464" lon="11.744442700376265"><ele>746.0</ele><time>2026-05-03T13:41:52Z</time></trkpt><trkpt lat="43.82564512806359" lon="11.744428506981672"><ele>749.5</ele><time>2026-05-03T13:41:53Z</time></trkpt><trkpt lat="43.82577312591998" lon="11.744374610335996"><ele>753.0</ele><time>2026-05-03T13:41:54Z</time></trkpt><trkpt lat="43.825902890090795" lon="11.744282946745937"><ele>744.75</ele><time>2026-05-03T13:41:55Z</time></trkpt><trkpt lat="43.82602200027778" lon="11.744202579390173"><ele>736.5</ele><time>2026-05-03T13:41:56Z</time></trkpt><trkpt lat="43.82613022897684" lon="11.744125168114468"><ele>728.25</ele><time>2026-05-03T13:41:57Z</time></trkpt><trkpt lat="43.82623324669319" lon="11.7440700447989"><ele>720.0</ele><time>2026-05-03T13:41:58Z</time></trkpt><trkpt lat="43.82634706604618" lon="11.744045915281575"><ele>720.0</ele><time>2026-05-03T13:41:59Z</time></trkpt><trkpt lat="43.82646891137493" lon="11.744100110146075"><ele>720.0</ele><time>2026-05-03T13:42:00Z</time></trkpt><trkpt lat="43.82660838393085" lon="11.744109011349847"><ele>720.0</ele><time>2026-05-03T13:42:01Z</time></trkpt><trkpt lat="43.82674664190788" lon="11.744147752773303"><ele>720.0</ele><time>2026-05-03T13:42:02Z</time></trkpt><trkpt lat="43.82688679747003" lon="11.744172684951739"><ele>720.5</ele><time>2026-05-03T13:42:03Z</time></trkpt><trkpt lat="43.82700242851727" lon="11.744191862124206"><ele>721.0</ele><time>2026-05-03T13:42:04Z</time></trkpt><trkpt lat="43.827091283574994" lon="11.744279861930709"><ele>721.5</ele><time>2026-05-03T13:42:05Z</time></trkpt><trkpt lat="43.82715963826976" lon="11.744390479625386"><ele>722.0</ele><time>2026-05-03T13:42:06Z</time></trkpt><trkpt lat="43.82718839715253" lon="11.744553200270175"><ele>722.0</ele><time>2026-05-03T13:42:07Z</time></trkpt><trkpt lat="43.82716677799648" lon="11.744709716110359"><ele>722.0</ele><time>2026-05-03T13:42:08Z</time></trkpt><trkpt lat="43.82717137338117" lon="11.744894453714048"><ele>722.0</ele><time>2026-05-03T13:42:09Z</time></trkpt><trkpt lat="43.82719520880344" lon="11.745077010632839"><ele>722.0</ele><time>2026-05-03T13:42:10Z</time></trkpt><trkpt lat="43.82726252198304" lon="11.745220098945635"><ele>732.0</ele><time>2026-05-03T13:42:11Z</time></trkpt><trkpt lat="43.82733835011956" lon="11.745352037620513"><ele>742.0</ele><time>2026-05-03T13:42:12Z</time></trkpt><trkpt lat="43.82745997551176" lon="11.745479591933785"><ele>752.0</ele><time>2026-05-03T13:42:13Z</time></trkpt><trkpt lat="43.82759055383322" lon="11.745644906532428"><ele>758.0</ele><time>2026-05-03T13:42:14Z</time></trkpt><trkpt lat="43.827763448389796" lon="11.745855184568041"><ele>764.0</ele><time>2026-05-03T13:42:15Z</time></trkpt><trkpt lat="43.82792184453651" lon="11.746049013320476"><ele>770.0</ele><time>2026-05-03T13:42:16Z</time></trkpt><trkpt lat="43.828098859462685" lon="11.746254169895385"><ele>770.0</ele><time>2026-05-03T13:42:17Z</time></trkpt><trkpt lat="43.828200028588086" lon="11.746325610638758"><ele>770.0</ele><time>2026-05-03T13:42:18Z</time></trkpt><trkpt lat="43.828357416180765" lon="11.746377037645306"><ele>770.0</ele><time>2026-05-03T13:42:19Z</time></trkpt><trkpt lat="43.828532839203056" lon="11.746402070270458"><ele>763.0</ele><time>2026-05-03T13:42:20Z</time></trkpt><trkpt lat="43.82871873145735" lon="11.746449080855717"><ele>756.0</ele><time>2026-05-03T13:42:21Z</time></trkpt><trkpt lat="43.82887440785417" lon="11.746589732089243"><ele>749.0</ele><time>2026-05-03T13:42:22Z</time></trkpt><trkpt lat="43.829042016676055" lon="11.74674776917725"><ele>756.5</ele><time>2026-05-03T13:42:23Z</time></trkpt><trkpt lat="43.82924183004553" lon="11.746895688499825"><ele>764.0</ele><time>2026-05-03T13:42:24Z</time></trkpt><trkpt lat="43.82945977691971" lon="11.747036207778663"><ele>764.0</ele><time>2026-05-03T13:42:25Z</time></trkpt><trkpt lat="43.82969884723326" lon="11.747133923735152"><ele>764.0</ele><time>2026-05-03T13:42:26Z</time></trkpt><trkpt lat="43.82988682259818" lon="11.747215600990305"><ele>764.0</ele><time>2026-05-03T13:42:27Z</time></trkpt><trkpt lat="43.82998263230335" lon="11.747371944803655"><ele>764.0</ele><time>2026-05-03T13:42:28Z</time></trkpt><trkpt lat="43.83004950613271" lon="11.747515576417513"><ele>764.0</ele><time>2026-05-03T13:42:29Z</time></trkpt><trkpt lat="43.83023348931845" lon="11.747630496481221"><ele>764.0</ele><time>2026-05-03T13:42:30Z</time></trkpt><trkpt lat="43.83031946143003" lon="11.747927924249867"><ele>762.5</ele><time>2026-05-03T13:42:31Z</time></trkpt><trkpt lat="43.83049168095745" lon="11.748149275446771"><ele>761.0</ele><time>2026-05-03T13:42:32Z</time></trkpt><trkpt lat="43.83064909844586" lon="11.74838395025919"><ele>767.6666666666666</ele><time>2026-05-03T13:42:33Z</time></trkpt><trkpt lat="43.830779500011396" lon="11.748565213831371"><ele>774.3333333333333</ele><time>2026-05-03T13:42:34Z</time></trkpt><trkpt lat="43.8309096822932" lon="11.748677412749506"><ele>781.0</ele><time>2026-05-03T13:42:35Z</time></trkpt><trkpt lat="43.831073477120114" lon="11.748740240305247"><ele>781.0</ele><time>2026-05-03T13:42:36Z</time></trkpt><trkpt lat="43.83126287429341" lon="11.748819132391672"><ele>781.0</ele><time>2026-05-03T13:42:37Z</time></trkpt><trkpt lat="43.83145555646896" lon="11.748943634782595"><ele>781.0</ele><time>2026-05-03T13:42:38Z</time></trkpt><trkpt lat="43.83161194421848" lon="11.749069613635394"><ele>781.0</ele><time>2026-05-03T13:42:39Z</time></trkpt><trkpt lat="43.831743976225994" lon="11.749118998500967"><ele>781.0</ele><time>2026-05-03T13:42:40Z</time></trkpt><trkpt lat="43.83187761532404" lon="11.749068040773066"><ele>781.0</ele><time>2026-05-03T13:42:41Z</time></trkpt><trkpt lat="43.832002947039754" lon="11.748874901365303"><ele>781.0</ele><time>2026-05-03T13:42:42Z</time></trkpt><trkpt lat="43.832143712959535" lon="11.748703565523133"><ele>781.0</ele><time>2026-05-03T13:42:43Z</time></trkpt><trkpt lat="43.832278458599994" lon="11.748591594793261"><ele>781.0</ele><time>2026-05-03T13:42:44Z</time></trkpt><trkpt lat="43.83240375178649" lon="11.748565999916028"><ele>781.0</ele><time>2026-05-03T13:42:45Z</time></trkpt><trkpt lat="43.83252633920267" lon="11.748644486231242"><ele>781.0</ele><time>2026-05-03T13:42:46Z</time></trkpt><trkpt lat="43.83258715784455" lon="11.748812662400388"><ele>781.0</ele><time>2026-05-03T13:42:47Z</time></trkpt><trkpt lat="43.83262110132071" lon="11.748992738316517"><ele>781.0</ele><time>2026-05-03T13:42:48Z</time></trkpt><trkpt lat="43.832581223191674" lon="11.749198512519026"><ele>785.0</ele><time>2026-05-03T13:42:49Z</time></trkpt><trkpt lat="43.832579149043546" lon="11.749489243688537"><ele>789.0</ele><time>2026-05-03T13:42:50Z</time></trkpt><trkpt lat="43.832606077570375" lon="11.749769692944763"><ele>793.0</ele><time>2026-05-03T13:42:51Z</time></trkpt><trkpt lat="43.83262004133812" lon="11.750043941862806"><ele>799.6666666666666</ele><time>2026-05-03T13:42:52Z</time></trkpt><trkpt lat="43.832575840182884" lon="11.750328246784385"><ele>806.3333333333333</ele><time>2026-05-03T13:42:53Z</time></trkpt><trkpt lat="43.83252764437531" lon="11.750582096049486"><ele>813.0</ele><time>2026-05-03T13:42:54Z</time></trkpt><trkpt lat="43.832528855475985" lon="11.750798438671529"><ele>813.0</ele><time>2026-05-03T13:42:55Z</time></trkpt><trkpt lat="43.83253215021991" lon="11.750950184078137"><ele>813.0</ele><time>2026-05-03T13:42:56Z</time></trkpt><trkpt lat="43.8326020535354" lon="11.751086532787125"><ele>813.0</ele><time>2026-05-03T13:42:57Z</time></trkpt><trkpt lat="43.832727373432576" lon="11.751224348723353"><ele>813.0</ele><time>2026-05-03T13:42:58Z</time></trkpt><trkpt lat="43.83279717767992" lon="11.751441429238254"><ele>808.3333333333333</ele><time>2026-05-03T13:42:59Z</time></trkpt><trkpt lat="43.832889544968126" lon="11.751678344382245"><ele>803.6666666666666</ele><time>2026-05-03T13:43:00Z</time></trkpt><trkpt lat="43.83299760553026" lon="11.751923231287853"><ele>799.0</ele><time>2026-05-03T13:43:01Z</time></trkpt><trkpt lat="43.833077546466306" lon="11.75214122365524"><ele>799.0</ele><time>2026-05-03T13:43:02Z</time></trkpt><trkpt lat="43.83305582934267" lon="11.752348648319826"><ele>799.0</ele><time>2026-05-03T13:43:03Z</time></trkpt><trkpt lat="43.83307205398315" lon="11.75254790179425"><ele>799.0</ele><time>2026-05-03T13:43:04Z</time></trkpt><trkpt lat="43.83308989207297" lon="11.752725437739487"><ele>799.0</ele><time>2026-05-03T13:43:05Z</time></trkpt><trkpt lat="43.833183662057955" lon="11.752855701220563"><ele>793.3333333333333</ele><time>2026-05-03T13:43:06Z</time></trkpt><trkpt lat="43.833321782089165" lon="11.752963074598272"><ele>787.6666666666667</ele><time>2026-05-03T13:43:07Z</time></trkpt><trkpt lat="43.833487762698404" lon="11.753062433110438"><ele>782.0</ele><time>2026-05-03T13:43:08Z</time></trkpt><trkpt lat="43.833642116691045" lon="11.75319746127963"><ele>782.0</ele><time>2026-05-03T13:43:09Z</time></trkpt><trkpt lat="43.83377260414395" lon="11.753379210636183"><ele>782.0</ele><time>2026-05-03T13:43:10Z</time></trkpt><trkpt lat="43.83390075396732" lon="11.753547402919345"><ele>782.0</ele><time>2026-05-03T13:43:11Z</time></trkpt><trkpt lat="43.833938892753814" lon="11.753743481689137"><ele>788.6666666666667</ele><time>2026-05-03T13:43:12Z</time></trkpt><trkpt lat="43.833889593473245" lon="11.753925160301838"><ele>795.3333333333333</ele><time>2026-05-03T13:43:13Z</time></trkpt><trkpt lat="43.83386161633004" lon="11.754136141715659"><ele>802.0</ele><time>2026-05-03T13:43:14Z</time></trkpt><trkpt lat="43.833832295593446" lon="11.754394112213879"><ele>810.6666666666666</ele><time>2026-05-03T13:43:15Z</time></trkpt><trkpt lat="43.83385740703592" lon="11.754616614432416"><ele>819.3333333333333</ele><time>2026-05-03T13:43:16Z</time></trkpt><trkpt lat="43.83390029234481" lon="11.754839246298936"><ele>828.0</ele><time>2026-05-03T13:43:17Z</time></trkpt><trkpt lat="43.83400337798463" lon="11.75501765590511"><ele>828.0</ele><time>2026-05-03T13:43:18Z</time></trkpt><trkpt lat="43.834148301226946" lon="11.755153608703308"><ele>828.0</ele><time>2026-05-03T13:43:19Z</time></trkpt><trkpt lat="43.83428202813096" lon="11.755281667854781"><ele>828.0</ele><time>2026-05-03T13:43:20Z</time></trkpt><trkpt lat="43.8343387549886" lon="11.755434520946435"><ele>826.0</ele><time>2026-05-03T13:43:21Z</time></trkpt><trkpt lat="43.834326688752355" lon="11.755604372872659"><ele>824.0</ele><time>2026-05-03T13:43:22Z</time></trkpt><trkpt lat="43.834307701752564" lon="11.755849612279032"><ele>822.0</ele><time>2026-05-03T13:43:23Z</time></trkpt><trkpt lat="43.834365412800864" lon="11.75609558578839"><ele>822.0</ele><time>2026-05-03T13:43:24Z</time></trkpt><trkpt lat="43.834459322188984" lon="11.756272244849933"><ele>822.0</ele><time>2026-05-03T13:43:25Z</time></trkpt><trkpt lat="43.83454378357268" lon="11.756402538456955"><ele>822.0</ele><time>2026-05-03T13:43:26Z</time></trkpt><trkpt lat="43.83462940615931" lon="11.756530467781253"><ele>822.0</ele><time>2026-05-03T13:43:27Z</time></trkpt><trkpt lat="43.83470502788189" lon="11.756674017782561"><ele>822.0</ele><time>2026-05-03T13:43:28Z</time></trkpt><trkpt lat="43.8347637742781" lon="11.756787617017759"><ele>822.0</ele><time>2026-05-03T13:43:29Z</time></trkpt><trkpt lat="43.83481333182797" lon="11.756909440717234"><ele>822.0</ele><time>2026-05-03T13:43:30Z</time></trkpt><trkpt lat="43.83485033217559" lon="11.757069076902125"><ele>822.0</ele><time>2026-05-03T13:43:31Z</time></trkpt><trkpt lat="43.83488017321196" lon="11.757268616749343"><ele>826.5</ele><time>2026-05-03T13:43:32Z</time></trkpt><trkpt lat="43.83490418252501" lon="11.757475936324717"><ele>831.0</ele><time>2026-05-03T13:43:33Z</time></trkpt><trkpt lat="43.834938701524656" lon="11.757643764516999"><ele>835.5</ele><time>2026-05-03T13:43:34Z</time></trkpt><trkpt lat="43.83496764961254" lon="11.757806237470568"><ele>840.0</ele><time>2026-05-03T13:43:35Z</time></trkpt><trkpt lat="43.83507701559153" lon="11.75807152176983"><ele>845.0</ele><time>2026-05-03T13:43:36Z</time></trkpt><trkpt lat="43.83521379276209" lon="11.758083210485136"><ele>850.0</ele><time>2026-05-03T13:43:37Z</time></trkpt><trkpt lat="43.835385424740046" lon="11.758059639232648"><ele>855.0</ele><time>2026-05-03T13:43:38Z</time></trkpt><trkpt lat="43.835624229083706" lon="11.758014365996736"><ele>855.0</ele><time>2026-05-03T13:43:39Z</time></trkpt><trkpt lat="43.83579275997577" lon="11.758037586091678"><ele>855.0</ele><time>2026-05-03T13:43:40Z</time></trkpt><trkpt lat="43.83596117344804" lon="11.758085159995177"><ele>855.0</ele><time>2026-05-03T13:43:41Z</time></trkpt><trkpt lat="43.83616119615774" lon="11.758169568990281"><ele>853.5</ele><time>2026-05-03T13:43:42Z</time></trkpt><trkpt lat="43.83628668392124" lon="11.758318833307246"><ele>852.0</ele><time>2026-05-03T13:43:43Z</time></trkpt><trkpt lat="43.836332289991425" lon="11.75844035081755"><ele>850.5</ele><time>2026-05-03T13:43:44Z</time></trkpt><trkpt lat="43.83630258426228" lon="11.758569658900445"><ele>849.0</ele><time>2026-05-03T13:43:45Z</time></trkpt><trkpt lat="43.83629641633452" lon="11.7586986455574"><ele>849.0</ele><time>2026-05-03T13:43:46Z</time></trkpt><trkpt lat="43.836287064951065" lon="11.759144081272147"><ele>849.0</ele><time>2026-05-03T13:43:47Z</time></trkpt><trkpt lat="43.836327549581355" lon="11.75942881770938"><ele>854.3333333333333</ele><time>2026-05-03T13:43:48Z</time></trkpt><trkpt lat="43.83642749212696" lon="11.759647239368718"><ele>859.6666666666666</ele><time>2026-05-03T13:43:49Z</time></trkpt><trkpt lat="43.83656182499634" lon="11.759847141605718"><ele>865.0</ele><time>2026-05-03T13:43:50Z</time></trkpt><trkpt lat="43.83672162568886" lon="11.760043008997876"><ele>865.5</ele><time>2026-05-03T13:43:51Z</time></trkpt><trkpt lat="43.83689216716436" lon="11.760284319112806"><ele>866.0</ele><time>2026-05-03T13:43:52Z</time></trkpt><trkpt lat="43.837060958767616" lon="11.760524544553428"><ele>866.0</ele><time>2026-05-03T13:43:53Z</time></trkpt><trkpt lat="43.837179632590725" lon="11.760689289818362"><ele>866.0</ele><time>2026-05-03T13:43:54Z</time></trkpt><trkpt lat="43.83730452904858" lon="11.760816870353674"><ele>866.0</ele><time>2026-05-03T13:43:55Z</time></trkpt><trkpt lat="43.83740750139543" lon="11.760793214297694"><ele>866.0</ele><time>2026-05-03T13:43:56Z</time></trkpt><trkpt lat="43.83752101066851" lon="11.76071756994642"><ele>866.0</ele><time>2026-05-03T13:43:57Z</time></trkpt><trkpt lat="43.83762430606044" lon="11.760558832435477"><ele>866.0</ele><time>2026-05-03T13:43:58Z</time></trkpt><trkpt lat="43.83768547675105" lon="11.760351173292374"><ele>866.0</ele><time>2026-05-03T13:43:59Z</time></trkpt><trkpt lat="43.83769676804743" lon="11.760108528276112"><ele>862.6666666666667</ele><time>2026-05-03T13:44:00Z</time></trkpt><trkpt lat="43.83765744613917" lon="11.759854425031445"><ele>859.3333333333333</ele><time>2026-05-03T13:44:01Z</time></trkpt><trkpt lat="43.83756758477951" lon="11.759627665047573"><ele>856.0</ele><time>2026-05-03T13:44:02Z</time></trkpt><trkpt lat="43.837457313605114" lon="11.759460393794594"><ele>856.25</ele><time>2026-05-03T13:44:03Z</time></trkpt><trkpt lat="43.83742114691969" lon="11.759280642044178"><ele>856.5</ele><time>2026-05-03T13:44:04Z</time></trkpt><trkpt lat="43.837439318672345" lon="11.759120833555922"><ele>856.75</ele><time>2026-05-03T13:44:05Z</time></trkpt><trkpt lat="43.83747754172475" lon="11.758938259005683"><ele>857.0</ele><time>2026-05-03T13:44:06Z</time></trkpt><trkpt lat="43.8375138574362" lon="11.758728846017139"><ele>858.0</ele><time>2026-05-03T13:44:07Z</time></trkpt><trkpt lat="43.83756133277097" lon="11.75845294338573"><ele>859.0</ele><time>2026-05-03T13:44:08Z</time></trkpt><trkpt lat="43.83758704666788" lon="11.758208394053401"><ele>860.0</ele><time>2026-05-03T13:44:09Z</time></trkpt><trkpt lat="43.83752024510653" lon="11.757988399299258"><ele>860.0</ele><time>2026-05-03T13:44:10Z</time></trkpt><trkpt lat="43.83748957654131" lon="11.757766110011326"><ele>860.0</ele><time>2026-05-03T13:44:11Z</time></trkpt><trkpt lat="43.83744650636635" lon="11.757500487989178"><ele>860.0</ele><time>2026-05-03T13:44:12Z</time></trkpt><trkpt lat="43.83732788053376" lon="11.757266142131932"><ele>863.6666666666667</ele><time>2026-05-03T13:44:13Z</time></trkpt><trkpt lat="43.83722293101629" lon="11.75699561502999"><ele>867.3333333333333</ele><time>2026-05-03T13:44:14Z</time></trkpt><trkpt lat="43.837124018122324" lon="11.756713793106059"><ele>871.0</ele><time>2026-05-03T13:44:15Z</time></trkpt><trkpt lat="43.83701251397147" lon="11.7565093354409"><ele>870.25</ele><time>2026-05-03T13:44:16Z</time></trkpt><trkpt lat="43.836867354984165" lon="11.75639342469688"><ele>869.5</ele><time>2026-05-03T13:44:17Z</time></trkpt><trkpt lat="43.83673782725463" lon="11.756300619232121"><ele>868.75</ele><time>2026-05-03T13:44:18Z</time></trkpt><trkpt lat="43.83669976633401" lon="11.756147012464423"><ele>868.0</ele><time>2026-05-03T13:44:19Z</time></trkpt><trkpt lat="43.83671867945485" lon="11.75599788603614"><ele>868.0</ele><time>2026-05-03T13:44:20Z</time></trkpt><trkpt lat="43.836727609395844" lon="11.75580431550265"><ele>868.0</ele><time>2026-05-03T13:44:21Z</time></trkpt><trkpt lat="43.836733631298685" lon="11.75556724156889"><ele>868.0</ele><time>2026-05-03T13:44:22Z</time></trkpt><trkpt lat="43.83671182394347" lon="11.755303034685708"><ele>869.6666666666666</ele><time>2026-05-03T13:44:23Z</time></trkpt><trkpt lat="43.836720443004545" lon="11.755009142191565"><ele>871.3333333333333</ele><time>2026-05-03T13:44:24Z</time></trkpt><trkpt lat="43.83671734805631" lon="11.754701178561456"><ele>873.0</ele><time>2026-05-03T13:44:25Z</time></trkpt><trkpt lat="43.8367430825575" lon="11.754395476724518"><ele>874.6666666666667</ele><time>2026-05-03T13:44:26Z</time></trkpt><trkpt lat="43.83678384484555" lon="11.754127855209331"><ele>876.3333333333334</ele><time>2026-05-03T13:44:27Z</time></trkpt><trkpt lat="43.836797486877074" lon="11.753903859475278"><ele>878.0</ele><time>2026-05-03T13:44:28Z</time></trkpt><trkpt lat="43.836805708365695" lon="11.75370210067021"><ele>882.0</ele><time>2026-05-03T13:44:29Z</time></trkpt><trkpt lat="43.836762867156104" lon="11.753502522838545"><ele>886.0</ele><time>2026-05-03T13:44:30Z</time></trkpt><trkpt lat="43.836665638823646" lon="11.753307632516035"><ele>890.0</ele><time>2026-05-03T13:44:31Z</time></trkpt><trkpt lat="43.836528580341806" lon="11.753129905817218"><ele>890.0</ele><time>2026-05-03T13:44:32Z</time></trkpt><trkpt lat="43.83636827476404" lon="11.752924345515552"><ele>890.0</ele><time>2026-05-03T13:44:33Z</time></trkpt><trkpt lat="43.83621933196133" lon="11.752724568233317"><ele>890.0</ele><time>2026-05-03T13:44:34Z</time></trkpt><trkpt lat="43.83613253848747" lon="11.752554003407214"><ele>900.0</ele><time>2026-05-03T13:44:35Z</time></trkpt><trkpt lat="43.83613662887744" lon="11.752372168672466"><ele>910.0</ele><time>2026-05-03T13:44:36Z</time></trkpt><trkpt lat="43.8361032237635" lon="11.75212542613973"><ele>920.0</ele><time>2026-05-03T13:44:37Z</time></trkpt><trkpt lat="43.83602696279186" lon="11.751886785099247"><ele>908.6666666666667</ele><time>2026-05-03T13:44:38Z</time></trkpt><trkpt lat="43.835916882112095" lon="11.751706482214743"><ele>897.3333333333333</ele><time>2026-05-03T13:44:39Z</time></trkpt><trkpt lat="43.835772834632344" lon="11.75159847119925"><ele>886.0</ele><time>2026-05-03T13:44:40Z</time></trkpt><trkpt lat="43.83564401887436" lon="11.751493945044162"><ele>886.0</ele><time>2026-05-03T13:44:41Z</time></trkpt><trkpt lat="43.83557927631004" lon="11.751364436018623"><ele>886.0</ele><time>2026-05-03T13:44:42Z</time></trkpt><trkpt lat="43.83558032058011" lon="11.751206522519356"><ele>886.0</ele><time>2026-05-03T13:44:43Z</time></trkpt><trkpt lat="43.835581794788865" lon="11.75097619779015"><ele>886.0</ele><time>2026-05-03T13:44:44Z</time></trkpt><trkpt lat="43.835570894742155" lon="11.750715376467904"><ele>892.25</ele><time>2026-05-03T13:44:45Z</time></trkpt><trkpt lat="43.835531845239245" lon="11.750476364575245"><ele>898.5</ele><time>2026-05-03T13:44:46Z</time></trkpt><trkpt lat="43.83552718480338" lon="11.7503133613976"><ele>904.75</ele><time>2026-05-03T13:44:47Z</time></trkpt><trkpt lat="43.835522547993044" lon="11.750184395638684"><ele>911.0</ele><time>2026-05-03T13:44:48Z</time></trkpt><trkpt lat="43.83555434280442" lon="11.750075996522746"><ele>911.75</ele><time>2026-05-03T13:44:49Z</time></trkpt><trkpt lat="43.835604824771515" lon="11.74997602226712"><ele>912.5</ele><time>2026-05-03T13:44:50Z</time></trkpt><trkpt lat="43.835689194432945" lon="11.749818621121758"><ele>913.25</ele><time>2026-05-03T13:44:51Z</time></trkpt><trkpt lat="43.835781722856936" lon="11.74964780200728"><ele>914.0</ele><time>2026-05-03T13:44:52Z</time></trkpt><trkpt lat="43.835864452141514" lon="11.7495124665417"><ele>923.3333333333334</ele><time>2026-05-03T13:44:53Z</time></trkpt><trkpt lat="43.83598293631006" lon="11.749459423754011"><ele>932.6666666666667</ele><time>2026-05-03T13:44:54Z</time></trkpt><trkpt lat="43.83614542698641" lon="11.749518363600146"><ele>942.0</ele><time>2026-05-03T13:44:55Z</time></trkpt><trkpt lat="43.83631608155962" lon="11.749553486624368"><ele>942.0</ele><time>2026-05-03T13:44:56Z</time></trkpt><trkpt lat="43.83648425141224" lon="11.749527954325004"><ele>942.0</ele><time>2026-05-03T13:44:57Z</time></trkpt><trkpt lat="43.8366480924214" lon="11.749436564275879"><ele>942.0</ele><time>2026-05-03T13:44:58Z</time></trkpt><trkpt lat="43.836793640988446" lon="11.74928374798639"><ele>938.6666666666667</ele><time>2026-05-03T13:44:59Z</time></trkpt><trkpt lat="43.83692255397794" lon="11.749075725170055"><ele>935.3333333333334</ele><time>2026-05-03T13:45:00Z</time></trkpt><trkpt lat="43.837061340721675" lon="11.74894063655996"><ele>932.0</ele><time>2026-05-03T13:45:01Z</time></trkpt><trkpt lat="43.83725237237032" lon="11.74883553019713"><ele>932.0</ele><time>2026-05-03T13:45:02Z</time></trkpt><trkpt lat="43.83744898313546" lon="11.748679687303511"><ele>932.0</ele><time>2026-05-03T13:45:03Z</time></trkpt><trkpt lat="43.83761739713932" lon="11.748511998725496"><ele>932.0</ele><time>2026-05-03T13:45:04Z</time></trkpt><trkpt lat="43.83774283055973" lon="11.748373667558225"><ele>932.5</ele><time>2026-05-03T13:45:05Z</time></trkpt><trkpt lat="43.83788293886641" lon="11.7483678295041"><ele>933.0</ele><time>2026-05-03T13:45:06Z</time></trkpt><trkpt lat="43.83801696052133" lon="11.748394509618974"><ele>933.5</ele><time>2026-05-03T13:45:07Z</time></trkpt><trkpt lat="43.8381431957268" lon="11.748510875364994"><ele>934.0</ele><time>2026-05-03T13:45:08Z</time></trkpt><trkpt lat="43.83828980409703" lon="11.748661196846191"><ele>934.0</ele><time>2026-05-03T13:45:09Z</time></trkpt><trkpt lat="43.83841991087392" lon="11.748847422392519"><ele>934.0</ele><time>2026-05-03T13:45:10Z</time></trkpt><trkpt lat="43.8385596919574" lon="11.749006434311141"><ele>934.0</ele><time>2026-05-03T13:45:11Z</time></trkpt><trkpt lat="43.838715688140354" lon="11.749074891883152"><ele>932.0</ele><time>2026-05-03T13:45:12Z</time></trkpt><trkpt lat="43.8388844369763" lon="11.749103060010219"><ele>930.0</ele><time>2026-05-03T13:45:13Z</time></trkpt><trkpt lat="43.839061082972734" lon="11.749079646010518"><ele>928.0</ele><time>2026-05-03T13:45:14Z</time></trkpt><trkpt lat="43.83925246777115" lon="11.749041777079192"><ele>933.0</ele><time>2026-05-03T13:45:15Z</time></trkpt><trkpt lat="43.83943991352315" lon="11.749054360618596"><ele>938.0</ele><time>2026-05-03T13:45:16Z</time></trkpt><trkpt lat="43.83960285062504" lon="11.749063636204582"><ele>943.0</ele><time>2026-05-03T13:45:17Z</time></trkpt><trkpt lat="43.83977281108174" lon="11.749054625053995"><ele>943.0</ele><time>2026-05-03T13:45:18Z</time></trkpt><trkpt lat="43.83992203958925" lon="11.74895073719927"><ele>943.0</ele><time>2026-05-03T13:45:19Z</time></trkpt><trkpt lat="43.840042645268404" lon="11.748764681801868"><ele>943.0</ele><time>2026-05-03T13:45:20Z</time></trkpt><trkpt lat="43.840125550733" lon="11.748533358520586"><ele>946.0</ele><time>2026-05-03T13:45:21Z</time></trkpt><trkpt lat="43.84019021035755" lon="11.748330988207067"><ele>949.0</ele><time>2026-05-03T13:45:22Z</time></trkpt><trkpt lat="43.84032332149765" lon="11.74823809946255"><ele>952.0</ele><time>2026-05-03T13:45:23Z</time></trkpt><trkpt lat="43.84046827813197" lon="11.748110488529734"><ele>952.0</ele><time>2026-05-03T13:45:24Z</time></trkpt><trkpt lat="43.84062341535633" lon="11.747985680353612"><ele>952.0</ele><time>2026-05-03T13:45:25Z</time></trkpt><trkpt lat="43.84079977179556" lon="11.747978301664132"><ele>952.0</ele><time>2026-05-03T13:45:26Z</time></trkpt><trkpt lat="43.84098641095527" lon="11.74793223262466"><ele>956.0</ele><time>2026-05-03T13:45:27Z</time></trkpt><trkpt lat="43.841189381436166" lon="11.747909737521718"><ele>960.0</ele><time>2026-05-03T13:45:28Z</time></trkpt><trkpt lat="43.841388146801364" lon="11.747841500182028"><ele>964.0</ele><time>2026-05-03T13:45:29Z</time></trkpt><trkpt lat="43.84156001423363" lon="11.747825230147422"><ele>964.0</ele><time>2026-05-03T13:45:30Z</time></trkpt><trkpt lat="43.84169280258138" lon="11.747873583612199"><ele>964.0</ele><time>2026-05-03T13:45:31Z</time></trkpt><trkpt lat="43.841861815149215" lon="11.747954794369951"><ele>964.0</ele><time>2026-05-03T13:45:32Z</time></trkpt><trkpt lat="43.842063932568344" lon="11.748006773823207"><ele>962.6666666666666</ele><time>2026-05-03T13:45:33Z</time></trkpt><trkpt lat="43.842292254120935" lon="11.748037191466288"><ele>961.3333333333333</ele><time>2026-05-03T13:45:34Z</time></trkpt><trkpt lat="43.84249784566149" lon="11.748021165142864"><ele>960.0</ele><time>2026-05-03T13:45:35Z</time></trkpt><trkpt lat="43.84266193317817" lon="11.747983346906596"><ele>960.0</ele><time>2026-05-03T13:45:36Z</time></trkpt><trkpt lat="43.84277944472471" lon="11.74789807654944"><ele>960.0</ele><time>2026-05-03T13:45:37Z</time></trkpt><trkpt lat="43.84285999075439" lon="11.74775144883472"><ele>960.0</ele><time>2026-05-03T13:45:38Z</time></trkpt><trkpt lat="43.84292214781984" lon="11.747540900741912"><ele>960.0</ele><time>2026-05-03T13:45:39Z</time></trkpt><trkpt lat="43.843001866719234" lon="11.747287796242537"><ele>956.3333333333333</ele><time>2026-05-03T13:45:40Z</time></trkpt><trkpt lat="43.843122103309454" lon="11.747144585872197"><ele>952.6666666666666</ele><time>2026-05-03T13:45:41Z</time></trkpt><trkpt lat="43.843254681692095" lon="11.747095440384392"><ele>949.0</ele><time>2026-05-03T13:45:42Z</time></trkpt><trkpt lat="43.8434115469236" lon="11.74710781808224"><ele>946.3333333333333</ele><time>2026-05-03T13:45:43Z</time></trkpt><trkpt lat="43.843580218883346" lon="11.747154850974129"><ele>943.6666666666667</ele><time>2026-05-03T13:45:44Z</time></trkpt><trkpt lat="43.843752806822195" lon="11.747178127676047"><ele>941.0</ele><time>2026-05-03T13:45:45Z</time></trkpt><trkpt lat="43.84387792939872" lon="11.747200674619595"><ele>941.0</ele><time>2026-05-03T13:45:46Z</time></trkpt><trkpt lat="43.84397402592361" lon="11.747302638639848"><ele>941.0</ele><time>2026-05-03T13:45:47Z</time></trkpt><trkpt lat="43.84401188664543" lon="11.74743584001722"><ele>941.0</ele><time>2026-05-03T13:45:48Z</time></trkpt><trkpt lat="43.84397610341375" lon="11.747589381146694"><ele>941.0</ele><time>2026-05-03T13:45:49Z</time></trkpt><trkpt lat="43.843877307417905" lon="11.747693167197202"><ele>941.0</ele><time>2026-05-03T13:45:50Z</time></trkpt><trkpt lat="43.843749539574" lon="11.747698360497656"><ele>941.0</ele><time>2026-05-03T13:45:51Z</time></trkpt><trkpt lat="43.84365879636888" lon="11.747558742679576"><ele>941.0</ele><time>2026-05-03T13:45:52Z</time></trkpt><trkpt lat="43.84354605577157" lon="11.74745993557889"><ele>941.0</ele><time>2026-05-03T13:45:53Z</time></trkpt><trkpt lat="43.84343569041141" lon="11.747398370932737"><ele>943.0</ele><time>2026-05-03T13:45:54Z</time></trkpt><trkpt lat="43.84329344719581" lon="11.747407151819795"><ele>945.0</ele><time>2026-05-03T13:45:55Z</time></trkpt><trkpt lat="43.843164206265804" lon="11.747489022611328"><ele>947.0</ele><time>2026-05-03T13:45:56Z</time></trkpt><trkpt lat="43.84307193289828" lon="11.747659198864683"><ele>949.0</ele><time>2026-05-03T13:45:57Z</time></trkpt><trkpt lat="43.84302952302463" lon="11.747869785263786"><ele>952.6666666666666</ele><time>2026-05-03T13:45:58Z</time></trkpt><trkpt lat="43.84302886278062" lon="11.748115673398376"><ele>956.3333333333333</ele><time>2026-05-03T13:45:59Z</time></trkpt><trkpt lat="43.84298475012448" lon="11.748311425953652"><ele>960.0</ele><time>2026-05-03T13:46:00Z</time></trkpt><trkpt lat="43.84289767315243" lon="11.748485496234586"><ele>966.25</ele><time>2026-05-03T13:46:01Z</time></trkpt><trkpt lat="43.84284576854513" lon="11.748687174433572"><ele>972.5</ele><time>2026-05-03T13:46:02Z</time></trkpt><trkpt lat="43.84287634868045" lon="11.748856502958708"><ele>978.75</ele><time>2026-05-03T13:46:03Z</time></trkpt><trkpt lat="43.842951234636885" lon="11.748990022097269"><ele>985.0</ele><time>2026-05-03T13:46:04Z</time></trkpt><trkpt lat="43.843068307313544" lon="11.749097469622457"><ele>985.0</ele><time>2026-05-03T13:46:05Z</time></trkpt><trkpt lat="43.84320560418415" lon="11.749078508775309"><ele>985.0</ele><time>2026-05-03T13:46:06Z</time></trkpt><trkpt lat="43.84334924109247" lon="11.748956705138948"><ele>985.0</ele><time>2026-05-03T13:46:07Z</time></trkpt><trkpt lat="43.84349611049229" lon="11.748833246969589"><ele>984.3333333333333</ele><time>2026-05-03T13:46:08Z</time></trkpt><trkpt lat="43.843663194917525" lon="11.74867522248826"><ele>983.6666666666667</ele><time>2026-05-03T13:46:09Z</time></trkpt><trkpt lat="43.843809655628284" lon="11.748544878088191"><ele>983.0</ele><time>2026-05-03T13:46:10Z</time></trkpt><trkpt lat="43.843938351859784" lon="11.748497377712223"><ele>983.0</ele><time>2026-05-03T13:46:11Z</time></trkpt><trkpt lat="43.844061346655394" lon="11.748509554782261"><ele>983.0</ele><time>2026-05-03T13:46:12Z</time></trkpt><trkpt lat="43.84416709663029" lon="11.748598130767174"><ele>983.0</ele><time>2026-05-03T13:46:13Z</time></trkpt><trkpt lat="43.84424286171898" lon="11.748735736750218"><ele>983.0</ele><time>2026-05-03T13:46:14Z</time></trkpt><trkpt lat="43.84428410256332" lon="11.748931666864483"><ele>980.0</ele><time>2026-05-03T13:46:15Z</time></trkpt><trkpt lat="43.844374077165575" lon="11.749131237532943"><ele>977.0</ele><time>2026-05-03T13:46:16Z</time></trkpt><trkpt lat="43.84445523722601" lon="11.749281903238952"><ele>974.0</ele><time>2026-05-03T13:46:17Z</time></trkpt><trkpt lat="43.84461196770764" lon="11.749337550320455"><ele>977.75</ele><time>2026-05-03T13:46:18Z</time></trkpt><trkpt lat="43.84471480910903" lon="11.749441791724374"><ele>981.5</ele><time>2026-05-03T13:46:19Z</time></trkpt><trkpt lat="43.84474888297639" lon="11.74957850995412"><ele>985.25</ele><time>2026-05-03T13:46:20Z</time></trkpt><trkpt lat="43.84472838715533" lon="11.749744809850048"><ele>989.0</ele><time>2026-05-03T13:46:21Z</time></trkpt><trkpt lat="43.844631868574076" lon="11.749880342742438"><ele>989.0</ele><time>2026-05-03T13:46:22Z</time></trkpt><trkpt lat="43.84453163190089" lon="11.750004289171448"><ele>989.0</ele><time>2026-05-03T13:46:23Z</time></trkpt><trkpt lat="43.84449958310299" lon="11.750159638213932"><ele>989.0</ele><time>2026-05-03T13:46:24Z</time></trkpt><trkpt lat="43.84454730828684" lon="11.750289162929935"><ele>989.0</ele><time>2026-05-03T13:46:25Z</time></trkpt><trkpt lat="43.84463649405745" lon="11.750389061773724"><ele>989.0</ele><time>2026-05-03T13:46:26Z</time></trkpt><trkpt lat="43.84476944470184" lon="11.750432518253595"><ele>989.0</ele><time>2026-05-03T13:46:27Z</time></trkpt><trkpt lat="43.84490520287333" lon="11.750344011831372"><ele>989.0</ele><time>2026-05-03T13:46:28Z</time></trkpt><trkpt lat="43.844995057477156" lon="11.750151543312052"><ele>989.0</ele><time>2026-05-03T13:46:29Z</time></trkpt><trkpt lat="43.84511765638087" lon="11.750007335422994"><ele>989.0</ele><time>2026-05-03T13:46:30Z</time></trkpt><trkpt lat="43.845240361099826" lon="11.749840991196352"><ele>989.0</ele><time>2026-05-03T13:46:31Z</time></trkpt><trkpt lat="43.845343546664715" lon="11.749709661940168"><ele>989.2</ele><time>2026-05-03T13:46:32Z</time></trkpt><trkpt lat="43.84544103626696" lon="11.74963509305623"><ele>989.4000000000001</ele><time>2026-05-03T13:46:33Z</time></trkpt><trkpt lat="43.84554128079133" lon="11.749629763966944"><ele>989.6</ele><time>2026-05-03T13:46:34Z</time></trkpt><trkpt lat="43.845624665691595" lon="11.749701452415296"><ele>989.8</ele><time>2026-05-03T13:46:35Z</time></trkpt><trkpt lat="43.84571655796462" lon="11.74981753584228"><ele>990.0</ele><time>2026-05-03T13:46:36Z</time></trkpt><trkpt lat="43.84571926010199" lon="11.750030349553189"><ele>995.3333333333333</ele><time>2026-05-03T13:46:37Z</time></trkpt><trkpt lat="43.84574274536828" lon="11.750249096446309"><ele>1000.6666666666666</ele><time>2026-05-03T13:46:38Z</time></trkpt><trkpt lat="43.84576983447882" lon="11.750475696147754"><ele>1006.0</ele><time>2026-05-03T13:46:39Z</time></trkpt><trkpt lat="43.845819088943465" lon="11.750675867882784"><ele>1006.0</ele><time>2026-05-03T13:46:40Z</time></trkpt><trkpt lat="43.84586493361111" lon="11.750852326331914"><ele>1006.0</ele><time>2026-05-03T13:46:41Z</time></trkpt><trkpt lat="43.84590080934904" lon="11.7509868670279"><ele>1006.0</ele><time>2026-05-03T13:46:42Z</time></trkpt><trkpt lat="43.84592796608547" lon="11.751147126231157"><ele>1006.0</ele><time>2026-05-03T13:46:43Z</time></trkpt><trkpt lat="43.8459267797588" lon="11.751309804007125"><ele>1009.5</ele><time>2026-05-03T13:46:44Z</time></trkpt><trkpt lat="43.84592171909785" lon="11.751467887763267"><ele>1013.0</ele><time>2026-05-03T13:46:45Z</time></trkpt><trkpt lat="43.84598318122488" lon="11.751576494968873"><ele>1016.5</ele><time>2026-05-03T13:46:46Z</time></trkpt><trkpt lat="43.84609075929932" lon="11.75164385810405"><ele>1020.0</ele><time>2026-05-03T13:46:47Z</time></trkpt><trkpt lat="43.84620917344333" lon="11.751650911702514"><ele>1020.0</ele><time>2026-05-03T13:46:48Z</time></trkpt><trkpt lat="43.84632040892156" lon="11.751533034164288"><ele>1020.0</ele><time>2026-05-03T13:46:49Z</time></trkpt><trkpt lat="43.846429832701546" lon="11.751437763333522"><ele>1020.0</ele><time>2026-05-03T13:46:50Z</time></trkpt><trkpt lat="43.84653463009439" lon="11.751347633742176"><ele>1020.0</ele><time>2026-05-03T13:46:51Z</time></trkpt><trkpt lat="43.84664335712645" lon="11.751279212708392"><ele>1020.0</ele><time>2026-05-03T13:46:52Z</time></trkpt><trkpt lat="43.84676991886362" lon="11.751251055406302"><ele>1020.0</ele><time>2026-05-03T13:46:53Z</time></trkpt><trkpt lat="43.84688532414643" lon="11.751323249444475"><ele>1020.0</ele><time>2026-05-03T13:46:54Z</time></trkpt><trkpt lat="43.84694682287556" lon="11.751455934974189"><ele>1020.0</ele><time>2026-05-03T13:46:55Z</time></trkpt><trkpt lat="43.84704564443239" lon="11.751562331155084"><ele>1018.3333333333333</ele><time>2026-05-03T13:46:56Z</time></trkpt><trkpt lat="43.84718306907068" lon="11.7516260929869"><ele>1016.6666666666666</ele><time>2026-05-03T13:46:57Z</time></trkpt><trkpt lat="43.84733321674162" lon="11.751672460599393"><ele>1015.0</ele><time>2026-05-03T13:46:58Z</time></trkpt><trkpt lat="43.84748439245971" lon="11.751696775246277"><ele>1015.0</ele><time>2026-05-03T13:46:59Z</time></trkpt><trkpt lat="43.84761793429036" lon="11.751757566789195"><ele>1015.0</ele><time>2026-05-03T13:47:00Z</time></trkpt><trkpt lat="43.84772508997773" lon="11.751875259351026"><ele>1015.0</ele><time>2026-05-03T13:47:01Z</time></trkpt><trkpt lat="43.847822093828476" lon="11.752042981739075"><ele>1015.0</ele><time>2026-05-03T13:47:02Z</time></trkpt><trkpt lat="43.847916212006346" lon="11.75222695634071"><ele>1019.3333333333333</ele><time>2026-05-03T13:47:03Z</time></trkpt><trkpt lat="43.84795169043857" lon="11.752438250135155"><ele>1023.6666666666667</ele><time>2026-05-03T13:47:04Z</time></trkpt><trkpt lat="43.84800394375457" lon="11.752652427615157"><ele>1028.0</ele><time>2026-05-03T13:47:05Z</time></trkpt><trkpt lat="43.84803972804174" lon="11.752848781469437"><ele>1032.75</ele><time>2026-05-03T13:47:06Z</time></trkpt><trkpt lat="43.848117757894975" lon="11.75298461089542"><ele>1037.5</ele><time>2026-05-03T13:47:07Z</time></trkpt><trkpt lat="43.84823016983809" lon="11.753085251885823"><ele>1042.25</ele><time>2026-05-03T13:47:08Z</time></trkpt><trkpt lat="43.84836782040493" lon="11.753150060577036"><ele>1047.0</ele><time>2026-05-03T13:47:09Z</time></trkpt><trkpt lat="43.84849686633352" lon="11.75315070187266"><ele>1047.6666666666667</ele><time>2026-05-03T13:47:10Z</time></trkpt><trkpt lat="43.84859986964944" lon="11.753150740427788"><ele>1048.3333333333335</ele><time>2026-05-03T13:47:11Z</time></trkpt><trkpt lat="43.84869409640659" lon="11.753146656922288"><ele>1049.0</ele><time>2026-05-03T13:47:12Z</time></trkpt><trkpt lat="43.84873689585775" lon="11.752705509654339"><ele>1049.0</ele><time>2026-05-03T13:47:13Z</time></trkpt><trkpt lat="43.848764138845354" lon="11.75247541436032"><ele>1049.0</ele><time>2026-05-03T13:47:14Z</time></trkpt><trkpt lat="43.84881313117744" lon="11.752257105696174"><ele>1049.0</ele><time>2026-05-03T13:47:15Z</time></trkpt><trkpt lat="43.84889581602394" lon="11.7521110335478"><ele>1049.0</ele><time>2026-05-03T13:47:16Z</time></trkpt><trkpt lat="43.849033130029405" lon="11.752056079065026"><ele>1049.0</ele><time>2026-05-03T13:47:17Z</time></trkpt><trkpt lat="43.849193400188796" lon="11.752072368673186"><ele>1049.0</ele><time>2026-05-03T13:47:18Z</time></trkpt><trkpt lat="43.849353182516815" lon="11.752082210388489"><ele>1054.75</ele><time>2026-05-03T13:47:19Z</time></trkpt><trkpt lat="43.849484772082654" lon="11.752038382544033"><ele>1060.5</ele><time>2026-05-03T13:47:20Z</time></trkpt><trkpt lat="43.849576872065924" lon="11.751913415233348"><ele>1066.25</ele><time>2026-05-03T13:47:21Z</time></trkpt><trkpt lat="43.849614422748914" lon="11.751725934229514"><ele>1072.0</ele><time>2026-05-03T13:47:22Z</time></trkpt><trkpt lat="43.849595846166466" lon="11.751497067072595"><ele>1072.0</ele><time>2026-05-03T13:47:23Z</time></trkpt><trkpt lat="43.849579735001456" lon="11.751258318776994"><ele>1072.0</ele><time>2026-05-03T13:47:24Z</time></trkpt><trkpt lat="43.84962612269895" lon="11.751028060003215"><ele>1072.0</ele><time>2026-05-03T13:47:25Z</time></trkpt><trkpt lat="43.84972668533819" lon="11.750831050135297"><ele>1065.3333333333333</ele><time>2026-05-03T13:47:26Z</time></trkpt><trkpt lat="43.84985950814192" lon="11.750653021290958"><ele>1058.6666666666667</ele><time>2026-05-03T13:47:27Z</time></trkpt><trkpt lat="43.85001981960071" lon="11.750504281470404"><ele>1052.0</ele><time>2026-05-03T13:47:28Z</time></trkpt><trkpt lat="43.85017448983634" lon="11.750388062959646"><ele>1052.0</ele><time>2026-05-03T13:47:29Z</time></trkpt><trkpt lat="43.850330771643634" lon="11.750293660434043"><ele>1052.0</ele><time>2026-05-03T13:47:30Z</time></trkpt><trkpt lat="43.85049946064961" lon="11.750242289540441"><ele>1052.0</ele><time>2026-05-03T13:47:31Z</time></trkpt><trkpt lat="43.85068582429029" lon="11.750196522568462"><ele>1052.0</ele><time>2026-05-03T13:47:32Z</time></trkpt><trkpt lat="43.850850287551005" lon="11.750130493074426"><ele>1052.0</ele><time>2026-05-03T13:47:33Z</time></trkpt><trkpt lat="43.85098836902542" lon="11.750052701606347"><ele>1052.0</ele><time>2026-05-03T13:47:34Z</time></trkpt><trkpt lat="43.851106323199396" lon="11.749941401948494"><ele>1065.0</ele><time>2026-05-03T13:47:35Z</time></trkpt><trkpt lat="43.85120752011228" lon="11.749770316585005"><ele>1078.0</ele><time>2026-05-03T13:47:36Z</time></trkpt><trkpt lat="43.85130313873806" lon="11.749580096818228"><ele>1091.0</ele><time>2026-05-03T13:47:37Z</time></trkpt><trkpt lat="43.851418596368106" lon="11.749453960105276"><ele>1087.25</ele><time>2026-05-03T13:47:38Z</time></trkpt><trkpt lat="43.851536951559225" lon="11.74937150272161"><ele>1083.5</ele><time>2026-05-03T13:47:39Z</time></trkpt><trkpt lat="43.85160450632239" lon="11.749263584972855"><ele>1079.75</ele><time>2026-05-03T13:47:40Z</time></trkpt><trkpt lat="43.85160115099914" lon="11.749108272784563"><ele>1076.0</ele><time>2026-05-03T13:47:41Z</time></trkpt><trkpt lat="43.85153391275385" lon="11.748959706907314"><ele>1076.0</ele><time>2026-05-03T13:47:42Z</time></trkpt><trkpt lat="43.85143740209609" lon="11.748868486788693"><ele>1076.0</ele><time>2026-05-03T13:47:43Z</time></trkpt><trkpt lat="43.851346216965894" lon="11.748800668207469"><ele>1076.0</ele><time>2026-05-03T13:47:44Z</time></trkpt><trkpt lat="43.85126342521205" lon="11.748739956837573"><ele>1076.0</ele><time>2026-05-03T13:47:45Z</time></trkpt><trkpt lat="43.85119620626225" lon="11.748651737295479"><ele>1076.0</ele><time>2026-05-03T13:47:46Z</time></trkpt><trkpt lat="43.85115567656184" lon="11.748546712759653"><ele>1075.25</ele><time>2026-05-03T13:47:47Z</time></trkpt><trkpt lat="43.851203082522055" lon="11.74837884190513"><ele>1074.5</ele><time>2026-05-03T13:47:48Z</time></trkpt><trkpt lat="43.85130619081894" lon="11.748286379675795"><ele>1073.75</ele><time>2026-05-03T13:47:49Z</time></trkpt><trkpt lat="43.85142245787934" lon="11.748282219446203"><ele>1073.0</ele><time>2026-05-03T13:47:50Z</time></trkpt><trkpt lat="43.85152125819825" lon="11.748285176738731"><ele>1073.0</ele><time>2026-05-03T13:47:51Z</time></trkpt><trkpt lat="43.85160022254878" lon="11.748221918121024"><ele>1073.0</ele><time>2026-05-03T13:47:52Z</time></trkpt><trkpt lat="43.85166662022376" lon="11.748091621197405"><ele>1073.0</ele><time>2026-05-03T13:47:53Z</time></trkpt><trkpt lat="43.85174729286596" lon="11.74794415988735"><ele>1073.0</ele><time>2026-05-03T13:47:54Z</time></trkpt><trkpt lat="43.85181961640395" lon="11.747792454364076"><ele>1076.8</ele><time>2026-05-03T13:47:55Z</time></trkpt><trkpt lat="43.85188726218992" lon="11.74763999867368"><ele>1080.6</ele><time>2026-05-03T13:47:56Z</time></trkpt><trkpt lat="43.851957949876855" lon="11.747517565159493"><ele>1084.4</ele><time>2026-05-03T13:47:57Z</time></trkpt><trkpt lat="43.852026652621824" lon="11.747415959617571"><ele>1088.2</ele><time>2026-05-03T13:47:58Z</time></trkpt><trkpt lat="43.85211052242801" lon="11.747360773829389"><ele>1092.0</ele><time>2026-05-03T13:47:59Z</time></trkpt><trkpt lat="43.85218801041069" lon="11.74732019800908"><ele>1092.0</ele><time>2026-05-03T13:48:00Z</time></trkpt><trkpt lat="43.85226460404415" lon="11.747270498494558"><ele>1092.0</ele><time>2026-05-03T13:48:01Z</time></trkpt><trkpt lat="43.85234480573204" lon="11.747211556843576"><ele>1092.0</ele><time>2026-05-03T13:48:02Z</time></trkpt><trkpt lat="43.85242832018358" lon="11.747149188307176"><ele>1092.0</ele><time>2026-05-03T13:48:03Z</time></trkpt><trkpt lat="43.85251084605532" lon="11.747074125971716"><ele>1092.0</ele><time>2026-05-03T13:48:04Z</time></trkpt><trkpt lat="43.85259007341472" lon="11.746988437446786"><ele>1094.6</ele><time>2026-05-03T13:48:05Z</time></trkpt><trkpt lat="43.85266765642546" lon="11.7468996542144"><ele>1097.2</ele><time>2026-05-03T13:48:06Z</time></trkpt><trkpt lat="43.85275401119844" lon="11.746812089436153"><ele>1099.8</ele><time>2026-05-03T13:48:07Z</time></trkpt><trkpt lat="43.8528402175154" lon="11.746717671851435"><ele>1102.4</ele><time>2026-05-03T13:48:08Z</time></trkpt><trkpt lat="43.85292986553294" lon="11.746613991243256"><ele>1105.0</ele><time>2026-05-03T13:48:09Z</time></trkpt><trkpt lat="43.853024566732394" lon="11.746504715628209"><ele>1105.0</ele><time>2026-05-03T13:48:10Z</time></trkpt><trkpt lat="43.853123919020234" lon="11.746400249777114"><ele>1105.0</ele><time>2026-05-03T13:48:11Z</time></trkpt><trkpt lat="43.85322286874407" lon="11.746307686940659"><ele>1105.0</ele><time>2026-05-03T13:48:12Z</time></trkpt><trkpt lat="43.85331231600667" lon="11.74621580409367"><ele>1105.0</ele><time>2026-05-03T13:48:13Z</time></trkpt><trkpt lat="43.85335683890371" lon="11.746099982404811"><ele>1102.75</ele><time>2026-05-03T13:48:14Z</time></trkpt><trkpt lat="43.8533251024966" lon="11.745949619199346"><ele>1100.5</ele><time>2026-05-03T13:48:15Z</time></trkpt><trkpt lat="43.853248793966884" lon="11.745834181405272"><ele>1098.25</ele><time>2026-05-03T13:48:16Z</time></trkpt><trkpt lat="43.85313764819905" lon="11.7457900543759"><ele>1096.0</ele><time>2026-05-03T13:48:17Z</time></trkpt><trkpt lat="43.85300552667277" lon="11.745804653305736"><ele>1096.0</ele><time>2026-05-03T13:48:18Z</time></trkpt><trkpt lat="43.852859623595926" lon="11.745846544706236"><ele>1096.0</ele><time>2026-05-03T13:48:19Z</time></trkpt><trkpt lat="43.852682225419656" lon="11.745900700710562"><ele>1096.0</ele><time>2026-05-03T13:48:20Z</time></trkpt><trkpt lat="43.852531273714035" lon="11.745934332193091"><ele>1094.2</ele><time>2026-05-03T13:48:21Z</time></trkpt><trkpt lat="43.85240945040079" lon="11.745950108107467"><ele>1092.3999999999999</ele><time>2026-05-03T13:48:22Z</time></trkpt><trkpt lat="43.852318636212686" lon="11.745889836975387"><ele>1090.6</ele><time>2026-05-03T13:48:23Z</time></trkpt><trkpt lat="43.85224425104769" lon="11.745777169612179"><ele>1088.8</ele><time>2026-05-03T13:48:24Z</time></trkpt><trkpt lat="43.85219903376212" lon="11.745634866616944"><ele>1087.0</ele><time>2026-05-03T13:48:25Z</time></trkpt><trkpt lat="43.85219230062128" lon="11.745436312625435"><ele>1087.0</ele><time>2026-05-03T13:48:26Z</time></trkpt><trkpt lat="43.85220160311992" lon="11.745220713602782"><ele>1087.0</ele><time>2026-05-03T13:48:27Z</time></trkpt><trkpt lat="43.852232700657" lon="11.745025335989498"><ele>1087.0</ele><time>2026-05-03T13:48:28Z</time></trkpt><trkpt lat="43.85231223592367" lon="11.744869924391223"><ele>1087.0</ele><time>2026-05-03T13:48:29Z</time></trkpt><trkpt lat="43.85243670259669" lon="11.744751745680576"><ele>1091.0</ele><time>2026-05-03T13:48:30Z</time></trkpt><trkpt lat="43.852582359411365" lon="11.744696375870143"><ele>1095.0</ele><time>2026-05-03T13:48:31Z</time></trkpt><trkpt lat="43.85273933312612" lon="11.744706684531007"><ele>1099.0</ele><time>2026-05-03T13:48:32Z</time></trkpt><trkpt lat="43.85287592618849" lon="11.744764521821992"><ele>1098.25</ele><time>2026-05-03T13:48:33Z</time></trkpt><trkpt lat="43.85300524033322" lon="11.744825092493883"><ele>1097.5</ele><time>2026-05-03T13:48:34Z</time></trkpt><trkpt lat="43.85305823257404" lon="11.744968263342184"><ele>1096.75</ele><time>2026-05-03T13:48:35Z</time></trkpt><trkpt lat="43.85314959404645" lon="11.745112172399786"><ele>1096.0</ele><time>2026-05-03T13:48:36Z</time></trkpt><trkpt lat="43.85321384850345" lon="11.74548137128729"><ele>1096.0</ele><time>2026-05-03T13:48:37Z</time></trkpt><trkpt lat="43.85333914201922" lon="11.745508280000973"><ele>1096.0</ele><time>2026-05-03T13:48:38Z</time></trkpt><trkpt lat="43.85344992106977" lon="11.74543972053383"><ele>1096.0</ele><time>2026-05-03T13:48:39Z</time></trkpt><trkpt lat="43.853556526867564" lon="11.745326058424657"><ele>1096.0</ele><time>2026-05-03T13:48:40Z</time></trkpt><trkpt lat="43.85367248241137" lon="11.745147849251302"><ele>1105.3333333333333</ele><time>2026-05-03T13:48:41Z</time></trkpt><trkpt lat="43.85376015097727" lon="11.744954338574512"><ele>1114.6666666666667</ele><time>2026-05-03T13:48:42Z</time></trkpt><trkpt lat="43.85387732433003" lon="11.744818122576367"><ele>1124.0</ele><time>2026-05-03T13:48:43Z</time></trkpt><trkpt lat="43.854011466892544" lon="11.744784147313222"><ele>1124.0</ele><time>2026-05-03T13:48:44Z</time></trkpt><trkpt lat="43.85410531335238" lon="11.744844287709764"><ele>1124.0</ele><time>2026-05-03T13:48:45Z</time></trkpt><trkpt lat="43.8542506007751" lon="11.744933773701302"><ele>1124.0</ele><time>2026-05-03T13:48:46Z</time></trkpt><trkpt lat="43.85433967798067" lon="11.745025494105128"><ele>1124.0</ele><time>2026-05-03T13:48:47Z</time></trkpt><trkpt lat="43.85438932963445" lon="11.745169212747896"><ele>1125.0</ele><time>2026-05-03T13:48:48Z</time></trkpt><trkpt lat="43.854318036252465" lon="11.745325469950092"><ele>1126.0</ele><time>2026-05-03T13:48:49Z</time></trkpt><trkpt lat="43.854243884264875" lon="11.745528627977933"><ele>1127.0</ele><time>2026-05-03T13:48:50Z</time></trkpt><trkpt lat="43.854173127717075" lon="11.745746019671905"><ele>1127.0</ele><time>2026-05-03T13:48:51Z</time></trkpt><trkpt lat="43.85408853215225" lon="11.745942330990799"><ele>1127.0</ele><time>2026-05-03T13:48:52Z</time></trkpt><trkpt lat="43.85400459367924" lon="11.746199150748877"><ele>1127.0</ele><time>2026-05-03T13:48:53Z</time></trkpt><trkpt lat="43.8539044782136" lon="11.746472791940022"><ele>1132.0</ele><time>2026-05-03T13:48:54Z</time></trkpt><trkpt lat="43.85383277172249" lon="11.746726241165986"><ele>1137.0</ele><time>2026-05-03T13:48:55Z</time></trkpt><trkpt lat="43.85375211146921" lon="11.746959781449565"><ele>1142.0</ele><time>2026-05-03T13:48:56Z</time></trkpt><trkpt lat="43.853641562970374" lon="11.747116820989733"><ele>1138.75</ele><time>2026-05-03T13:48:57Z</time></trkpt><trkpt lat="43.85352050232552" lon="11.747210480592718"><ele>1135.5</ele><time>2026-05-03T13:48:58Z</time></trkpt><trkpt lat="43.85340428668635" lon="11.747299239457549"><ele>1132.25</ele><time>2026-05-03T13:48:59Z</time></trkpt><trkpt lat="43.853323600868976" lon="11.747391207833179"><ele>1129.0</ele><time>2026-05-03T13:49:00Z</time></trkpt><trkpt lat="43.8533193347219" lon="11.747526655926283"><ele>1129.0</ele><time>2026-05-03T13:49:01Z</time></trkpt><trkpt lat="43.85337067709953" lon="11.747637167862068"><ele>1129.0</ele><time>2026-05-03T13:49:02Z</time></trkpt><trkpt lat="43.85347215008797" lon="11.747707946660617"><ele>1129.0</ele><time>2026-05-03T13:49:03Z</time></trkpt><trkpt lat="43.85359326412079" lon="11.747759525306098"><ele>1129.0</ele><time>2026-05-03T13:49:04Z</time></trkpt><trkpt lat="43.85371055271461" lon="11.747603546292641"><ele>1140.3333333333333</ele><time>2026-05-03T13:49:05Z</time></trkpt><trkpt lat="43.853791502218854" lon="11.747445014687104"><ele>1151.6666666666667</ele><time>2026-05-03T13:49:06Z</time></trkpt><trkpt lat="43.85386066334252" lon="11.747256590511412"><ele>1163.0</ele><time>2026-05-03T13:49:07Z</time></trkpt><trkpt lat="43.853968035673596" lon="11.747069339791583"><ele>1156.0</ele><time>2026-05-03T13:49:08Z</time></trkpt><trkpt lat="43.85407305080907" lon="11.746848265050792"><ele>1149.0</ele><time>2026-05-03T13:49:09Z</time></trkpt><trkpt lat="43.85418516195641" lon="11.746619131889375"><ele>1142.0</ele><time>2026-05-03T13:49:10Z</time></trkpt><trkpt lat="43.8542914114607" lon="11.746319063532523"><ele>1155.5</ele><time>2026-05-03T13:49:11Z</time></trkpt><trkpt lat="43.85442346560291" lon="11.746015932047058"><ele>1169.0</ele><time>2026-05-03T13:49:12Z</time></trkpt><trkpt lat="43.85459218653264" lon="11.745748791019336"><ele>1169.0</ele><time>2026-05-03T13:49:13Z</time></trkpt><trkpt lat="43.854730135036384" lon="11.745511456154711"><ele>1169.0</ele><time>2026-05-03T13:49:14Z</time></trkpt><trkpt lat="43.854858745545954" lon="11.745295867070855"><ele>1169.0</ele><time>2026-05-03T13:49:15Z</time></trkpt><trkpt lat="43.85497895882651" lon="11.745108111134295"><ele>1172.75</ele><time>2026-05-03T13:49:16Z</time></trkpt><trkpt lat="43.85510771827355" lon="11.744964499517883"><ele>1176.5</ele><time>2026-05-03T13:49:17Z</time></trkpt><trkpt lat="43.85523922313164" lon="11.744840445216147"><ele>1180.25</ele><time>2026-05-03T13:49:18Z</time></trkpt><trkpt lat="43.855327452146874" lon="11.744725764940823"><ele>1184.0</ele><time>2026-05-03T13:49:19Z</time></trkpt><trkpt lat="43.855335565325646" lon="11.744552587583762"><ele>1182.25</ele><time>2026-05-03T13:49:20Z</time></trkpt><trkpt lat="43.855299165317874" lon="11.744351873435106"><ele>1180.5</ele><time>2026-05-03T13:49:21Z</time></trkpt><trkpt lat="43.8552595268819" lon="11.744176410634253"><ele>1178.75</ele><time>2026-05-03T13:49:22Z</time></trkpt><trkpt lat="43.85511057734897" lon="11.74409529724648"><ele>1177.0</ele><time>2026-05-03T13:49:23Z</time></trkpt><trkpt lat="43.85495172537092" lon="11.744030378785991"><ele>1168.6666666666665</ele><time>2026-05-03T13:49:24Z</time></trkpt><trkpt lat="43.85476884804513" lon="11.743945905726845"><ele>1160.3333333333333</ele><time>2026-05-03T13:49:25Z</time></trkpt><trkpt lat="43.85468711256493" lon="11.743761751023008"><ele>1152.0</ele><time>2026-05-03T13:49:26Z</time></trkpt><trkpt lat="43.8546380112889" lon="11.743566985580527"><ele>1155.6666666666667</ele><time>2026-05-03T13:49:27Z</time></trkpt><trkpt lat="43.85462874006376" lon="11.743356034815454"><ele>1159.3333333333335</ele><time>2026-05-03T13:49:28Z</time></trkpt><trkpt lat="43.85465385355396" lon="11.743150680860284"><ele>1163.0</ele><time>2026-05-03T13:49:29Z</time></trkpt><trkpt lat="43.8547357887743" lon="11.742886647359093"><ele>1163.0</ele><time>2026-05-03T13:49:30Z</time></trkpt><trkpt lat="43.854840755506565" lon="11.742733378872673"><ele>1163.0</ele><time>2026-05-03T13:49:31Z</time></trkpt><trkpt lat="43.85493303785872" lon="11.74271697895282"><ele>1163.0</ele><time>2026-05-03T13:49:32Z</time></trkpt><trkpt lat="43.85498434301717" lon="11.742771804689996"><ele>1163.0</ele><time>2026-05-03T13:49:33Z</time></trkpt><trkpt lat="43.85507606404981" lon="11.742885260717504"><ele>1163.0</ele><time>2026-05-03T13:49:34Z</time></trkpt><trkpt lat="43.85510901475849" lon="11.743100054909002"><ele>1167.6666666666667</ele><time>2026-05-03T13:49:35Z</time></trkpt><trkpt lat="43.85514891754517" lon="11.743297975034707"><ele>1172.3333333333333</ele><time>2026-05-03T13:49:36Z</time></trkpt><trkpt lat="43.8551918125475" lon="11.74352509619219"><ele>1177.0</ele><time>2026-05-03T13:49:37Z</time></trkpt><trkpt lat="43.855248076588545" lon="11.743765495489116"><ele>1177.0</ele><time>2026-05-03T13:49:38Z</time></trkpt><trkpt lat="43.85529936810345" lon="11.743896980865074"><ele>1177.0</ele><time>2026-05-03T13:49:39Z</time></trkpt><trkpt lat="43.85539780092388" lon="11.743948600061962"><ele>1177.0</ele><time>2026-05-03T13:49:40Z</time></trkpt><trkpt lat="43.85550898972366" lon="11.743960054769897"><ele>1177.0</ele><time>2026-05-03T13:49:41Z</time></trkpt><trkpt lat="43.85563942084037" lon="11.74401081084688"><ele>1177.0</ele><time>2026-05-03T13:49:42Z</time></trkpt><trkpt lat="43.85575393185315" lon="11.74413789577556"><ele>1177.0</ele><time>2026-05-03T13:49:43Z</time></trkpt><trkpt lat="43.85580412870314" lon="11.744377227567394"><ele>1177.0</ele><time>2026-05-03T13:49:44Z</time></trkpt><trkpt lat="43.85585635601129" lon="11.74456809433601"><ele>1178.75</ele><time>2026-05-03T13:49:45Z</time></trkpt><trkpt lat="43.85581449568781" lon="11.744750654675515"><ele>1180.5</ele><time>2026-05-03T13:49:46Z</time></trkpt><trkpt lat="43.855753037420605" lon="11.744877900678034"><ele>1182.25</ele><time>2026-05-03T13:49:47Z</time></trkpt><trkpt lat="43.855670860117094" lon="11.745043848603228"><ele>1184.0</ele><time>2026-05-03T13:49:48Z</time></trkpt><trkpt lat="43.85557778936754" lon="11.745209938925774"><ele>1192.0</ele><time>2026-05-03T13:49:49Z</time></trkpt><trkpt lat="43.85547990274926" lon="11.745445039398748"><ele>1200.0</ele><time>2026-05-03T13:49:50Z</time></trkpt><trkpt lat="43.85535371857921" lon="11.745724673827613"><ele>1208.0</ele><time>2026-05-03T13:49:51Z</time></trkpt><trkpt lat="43.85522528514856" lon="11.745988629838052"><ele>1196.5</ele><time>2026-05-03T13:49:52Z</time></trkpt><trkpt lat="43.85512072315988" lon="11.746266950782683"><ele>1185.0</ele><time>2026-05-03T13:49:53Z</time></trkpt><trkpt lat="43.855030687606586" lon="11.74657520056409"><ele>1192.0</ele><time>2026-05-03T13:49:54Z</time></trkpt><trkpt lat="43.85493443494126" lon="11.746893158475173"><ele>1199.0</ele><time>2026-05-03T13:49:55Z</time></trkpt><trkpt lat="43.854839965330015" lon="11.747168114982257"><ele>1199.0</ele><time>2026-05-03T13:49:56Z</time></trkpt><trkpt lat="43.854756343203036" lon="11.747443323323518"><ele>1199.0</ele><time>2026-05-03T13:49:57Z</time></trkpt><trkpt lat="43.85468951376196" lon="11.747646832781"><ele>1199.0</ele><time>2026-05-03T13:49:58Z</time></trkpt><trkpt lat="43.85465269724419" lon="11.747800561528447"><ele>1198.6000000000001</ele><time>2026-05-03T13:49:59Z</time></trkpt><trkpt lat="43.85468758374413" lon="11.747905854142541"><ele>1198.2</ele><time>2026-05-03T13:50:00Z</time></trkpt><trkpt lat="43.854745944563696" lon="11.747950023466675"><ele>1197.8000000000002</ele><time>2026-05-03T13:50:01Z</time></trkpt><trkpt lat="43.85485137459423" lon="11.748029491877901"><ele>1197.4</ele><time>2026-05-03T13:50:02Z</time></trkpt><trkpt lat="43.85497365246051" lon="11.748059751088066"><ele>1197.0</ele><time>2026-05-03T13:50:03Z</time></trkpt><trkpt lat="43.855126252815516" lon="11.74798699098427"><ele>1203.75</ele><time>2026-05-03T13:50:04Z</time></trkpt><trkpt lat="43.85530170310557" lon="11.747932296444738"><ele>1210.5</ele><time>2026-05-03T13:50:05Z</time></trkpt><trkpt lat="43.855435638834884" lon="11.747890556830539"><ele>1217.25</ele><time>2026-05-03T13:50:06Z</time></trkpt><trkpt lat="43.85551462378312" lon="11.747928042906024"><ele>1224.0</ele><time>2026-05-03T13:50:07Z</time></trkpt><trkpt lat="43.85561336081128" lon="11.74801696738362"><ele>1224.0</ele><time>2026-05-03T13:50:08Z</time></trkpt><trkpt lat="43.8556581615786" lon="11.748131195018644"><ele>1224.0</ele><time>2026-05-03T13:50:09Z</time></trkpt><trkpt lat="43.85567211869491" lon="11.748224450870941"><ele>1224.0</ele><time>2026-05-03T13:50:10Z</time></trkpt><trkpt lat="43.85550076676551" lon="11.74856156346998"><ele>1224.5</ele><time>2026-05-03T13:50:11Z</time></trkpt><trkpt lat="43.8554671537265" lon="11.748761619665604"><ele>1225.0</ele><time>2026-05-03T13:50:12Z</time></trkpt><trkpt lat="43.85550389536991" lon="11.748918132577371"><ele>1225.5</ele><time>2026-05-03T13:50:13Z</time></trkpt><trkpt lat="43.85560487766774" lon="11.749015408109418"><ele>1226.0</ele><time>2026-05-03T13:50:14Z</time></trkpt><trkpt lat="43.85568578999116" lon="11.749147821869535"><ele>1226.0</ele><time>2026-05-03T13:50:15Z</time></trkpt><trkpt lat="43.855684493765025" lon="11.749301793853283"><ele>1226.0</ele><time>2026-05-03T13:50:16Z</time></trkpt><trkpt lat="43.85559633253089" lon="11.749424521435207"><ele>1226.0</ele><time>2026-05-03T13:50:17Z</time></trkpt><trkpt lat="43.855495123350664" lon="11.749453014299627"><ele>1226.0</ele><time>2026-05-03T13:50:18Z</time></trkpt><trkpt lat="43.85538017054343" lon="11.749411647475142"><ele>1226.0</ele><time>2026-05-03T13:50:19Z</time></trkpt><trkpt lat="43.85525859026919" lon="11.749361042995615"><ele>1226.0</ele><time>2026-05-03T13:50:20Z</time></trkpt><trkpt lat="43.85513052181902" lon="11.749359573525808"><ele>1226.0</ele><time>2026-05-03T13:50:21Z</time></trkpt><trkpt lat="43.85503448362752" lon="11.749431006104297"><ele>1226.0</ele><time>2026-05-03T13:50:22Z</time></trkpt><trkpt lat="43.854960400712386" lon="11.749579694952786"><ele>1224.6666666666667</ele><time>2026-05-03T13:50:23Z</time></trkpt><trkpt lat="43.85490904433238" lon="11.74978881903172"><ele>1223.3333333333333</ele><time>2026-05-03T13:50:24Z</time></trkpt><trkpt lat="43.854847596587945" lon="11.75001645442837"><ele>1222.0</ele><time>2026-05-03T13:50:25Z</time></trkpt><trkpt lat="43.85474680768825" lon="11.750188621560213"><ele>1227.0</ele><time>2026-05-03T13:50:26Z</time></trkpt><trkpt lat="43.85462020547553" lon="11.750290155452358"><ele>1232.0</ele><time>2026-05-03T13:50:27Z</time></trkpt><trkpt lat="43.85451772851672" lon="11.750371621312988"><ele>1237.0</ele><time>2026-05-03T13:50:28Z</time></trkpt><trkpt lat="43.85448306489978" lon="11.75052217237612"><ele>1242.0</ele><time>2026-05-03T13:50:29Z</time></trkpt><trkpt lat="43.85445533608863" lon="11.750734838127887"><ele>1242.0</ele><time>2026-05-03T13:50:30Z</time></trkpt><trkpt lat="43.854423056369946" lon="11.750957103277328"><ele>1242.0</ele><time>2026-05-03T13:50:31Z</time></trkpt><trkpt lat="43.85435061119021" lon="11.751133314561638"><ele>1242.0</ele><time>2026-05-03T13:50:32Z</time></trkpt><trkpt lat="43.85424821194128" lon="11.751243742694543"><ele>1242.0</ele><time>2026-05-03T13:50:33Z</time></trkpt><trkpt lat="43.85412599084884" lon="11.751240167259741"><ele>1240.5</ele><time>2026-05-03T13:50:34Z</time></trkpt><trkpt lat="43.85396070435197" lon="11.75125277962905"><ele>1239.0</ele><time>2026-05-03T13:50:35Z</time></trkpt><trkpt lat="43.85383905129577" lon="11.75131796686943"><ele>1237.5</ele><time>2026-05-03T13:50:36Z</time></trkpt><trkpt lat="43.8537572809556" lon="11.751462658937353"><ele>1236.0</ele><time>2026-05-03T13:50:37Z</time></trkpt><trkpt lat="43.85369491455167" lon="11.751643250788714"><ele>1236.0</ele><time>2026-05-03T13:50:38Z</time></trkpt><trkpt lat="43.853645092954274" lon="11.751842663593164"><ele>1236.0</ele><time>2026-05-03T13:50:39Z</time></trkpt><trkpt lat="43.85362140624749" lon="11.752047772037434"><ele>1236.0</ele><time>2026-05-03T13:50:40Z</time></trkpt><trkpt lat="43.853639969596145" lon="11.752251428553516"><ele>1239.75</ele><time>2026-05-03T13:50:41Z</time></trkpt><trkpt lat="43.85367423780934" lon="11.752442255495007"><ele>1243.5</ele><time>2026-05-03T13:50:42Z</time></trkpt><trkpt lat="43.85367623598745" lon="11.752597706815234"><ele>1247.25</ele><time>2026-05-03T13:50:43Z</time></trkpt><trkpt lat="43.85362022553869" lon="11.752745508954359"><ele>1251.0</ele><time>2026-05-03T13:50:44Z</time></trkpt><trkpt lat="43.853568239552786" lon="11.75289076289503"><ele>1254.2</ele><time>2026-05-03T13:50:45Z</time></trkpt><trkpt lat="43.853529492231175" lon="11.752992247629104"><ele>1257.3999999999999</ele><time>2026-05-03T13:50:46Z</time></trkpt><trkpt lat="43.853572760335474" lon="11.753110417379759"><ele>1260.6</ele><time>2026-05-03T13:50:48Z</time></trkpt><trkpt lat="43.853713816602614" lon="11.753151504556552"><ele>1263.8</ele><time>2026-05-03T13:50:50Z</time></trkpt><trkpt lat="43.85379003974093" lon="11.753028658678208"><ele>1267.0</ele><time>2026-05-03T13:50:51Z</time></trkpt><trkpt lat="43.85379828908327" lon="11.752847681480503"><ele>1261.6666666666665</ele><time>2026-05-03T13:50:52Z</time></trkpt><trkpt lat="43.8538249529195" lon="11.752649353182129"><ele>1256.3333333333333</ele><time>2026-05-03T13:50:53Z</time></trkpt><trkpt lat="43.85384160925952" lon="11.752404073115693"><ele>1251.0</ele><time>2026-05-03T13:50:54Z</time></trkpt><trkpt lat="43.85385112233148" lon="11.752164737986936"><ele>1251.0</ele><time>2026-05-03T13:50:55Z</time></trkpt><trkpt lat="43.853892344390786" lon="11.751975853098447"><ele>1251.0</ele><time>2026-05-03T13:50:56Z</time></trkpt><trkpt lat="43.853973715995195" lon="11.751808729065855"><ele>1251.0</ele><time>2026-05-03T13:50:57Z</time></trkpt><trkpt lat="43.85406614648305" lon="11.751654482803593"><ele>1251.0</ele><time>2026-05-03T13:50:58Z</time></trkpt><trkpt lat="43.85416443723603" lon="11.751577093848866"><ele>1247.25</ele><time>2026-05-03T13:50:59Z</time></trkpt><trkpt lat="43.85426070805939" lon="11.751603446968478"><ele>1243.5</ele><time>2026-05-03T13:51:00Z</time></trkpt><trkpt lat="43.85437045896242" lon="11.751638398020214"><ele>1239.75</ele><time>2026-05-03T13:51:01Z</time></trkpt><trkpt lat="43.85448375822302" lon="11.751618157277045"><ele>1236.0</ele><time>2026-05-03T13:51:02Z</time></trkpt><trkpt lat="43.85460572938828" lon="11.751482829213266"><ele>1238.0</ele><time>2026-05-03T13:51:03Z</time></trkpt><trkpt lat="43.854724687773285" lon="11.751333044577189"><ele>1240.0</ele><time>2026-05-03T13:51:04Z</time></trkpt><trkpt lat="43.854845787732394" lon="11.751157542262916"><ele>1242.0</ele><time>2026-05-03T13:51:05Z</time></trkpt><trkpt lat="43.85497456503375" lon="11.75097389163776"><ele>1242.0</ele><time>2026-05-03T13:51:06Z</time></trkpt><trkpt lat="43.85510257043346" lon="11.750818086812261"><ele>1242.0</ele><time>2026-05-03T13:51:07Z</time></trkpt><trkpt lat="43.85524110271177" lon="11.750685457443167"><ele>1242.0</ele><time>2026-05-03T13:51:08Z</time></trkpt><trkpt lat="43.85538910314545" lon="11.750551762371272"><ele>1250.25</ele><time>2026-05-03T13:51:09Z</time></trkpt><trkpt lat="43.855526756619625" lon="11.750431461823188"><ele>1258.5</ele><time>2026-05-03T13:51:10Z</time></trkpt><trkpt lat="43.855644683781534" lon="11.750338425793386"><ele>1266.75</ele><time>2026-05-03T13:51:11Z</time></trkpt><trkpt lat="43.85577310397459" lon="11.750381280098981"><ele>1275.0</ele><time>2026-05-03T13:51:12Z</time></trkpt><trkpt lat="43.855919681255344" lon="11.750427119465275"><ele>1278.25</ele><time>2026-05-03T13:51:13Z</time></trkpt><trkpt lat="43.85608764692229" lon="11.750461755674854"><ele>1281.5</ele><time>2026-05-03T13:51:14Z</time></trkpt><trkpt lat="43.856231922619834" lon="11.750491109039878"><ele>1284.75</ele><time>2026-05-03T13:51:15Z</time></trkpt><trkpt lat="43.85634869815587" lon="11.750488310158872"><ele>1288.0</ele><time>2026-05-03T13:51:16Z</time></trkpt><trkpt lat="43.856441208354845" lon="11.750410857268482"><ele>1288.0</ele><time>2026-05-03T13:51:17Z</time></trkpt><trkpt lat="43.85650276418333" lon="11.750269409452171"><ele>1288.0</ele><time>2026-05-03T13:51:18Z</time></trkpt><trkpt lat="43.85652091372823" lon="11.750074073403884"><ele>1288.0</ele><time>2026-05-03T13:51:19Z</time></trkpt><trkpt lat="43.856537397219796" lon="11.749842200099657"><ele>1288.0</ele><time>2026-05-03T13:51:20Z</time></trkpt><trkpt lat="43.85655873091374" lon="11.749597986206755"><ele>1282.3333333333333</ele><time>2026-05-03T13:51:21Z</time></trkpt><trkpt lat="43.85661120483912" lon="11.749351465820064"><ele>1276.6666666666667</ele><time>2026-05-03T13:51:22Z</time></trkpt><trkpt lat="43.85664405121714" lon="11.749104106640653"><ele>1271.0</ele><time>2026-05-03T13:51:23Z</time></trkpt><trkpt lat="43.85662472223526" lon="11.748874648112249"><ele>1271.0</ele><time>2026-05-03T13:51:24Z</time></trkpt><trkpt lat="43.85662771850793" lon="11.74868585065525"><ele>1271.0</ele><time>2026-05-03T13:51:25Z</time></trkpt><trkpt lat="43.85665916544748" lon="11.748518923321042"><ele>1271.0</ele><time>2026-05-03T13:51:26Z</time></trkpt><trkpt lat="43.85670715817861" lon="11.748321144390871"><ele>1271.0</ele><time>2026-05-03T13:51:27Z</time></trkpt><trkpt lat="43.85678757122404" lon="11.748140404061244"><ele>1282.3333333333335</ele><time>2026-05-03T13:51:28Z</time></trkpt><trkpt lat="43.85688627595186" lon="11.7479860126415"><ele>1293.6666666666667</ele><time>2026-05-03T13:51:29Z</time></trkpt><trkpt lat="43.857025930006095" lon="11.747902661865881"><ele>1305.0</ele><time>2026-05-03T13:51:30Z</time></trkpt><trkpt lat="43.85716783822918" lon="11.747809870364305"><ele>1301.5</ele><time>2026-05-03T13:51:31Z</time></trkpt><trkpt lat="43.857254711986315" lon="11.747687095623503"><ele>1298.0</ele><time>2026-05-03T13:51:32Z</time></trkpt><trkpt lat="43.85730331710225" lon="11.747546608141162"><ele>1294.5</ele><time>2026-05-03T13:51:33Z</time></trkpt><trkpt lat="43.857342358165" lon="11.747346600113206"><ele>1291.0</ele><time>2026-05-03T13:51:34Z</time></trkpt><trkpt lat="43.85737175470925" lon="11.747140505479276"><ele>1291.0</ele><time>2026-05-03T13:51:35Z</time></trkpt><trkpt lat="43.85733793568982" lon="11.746936596561381"><ele>1291.0</ele><time>2026-05-03T13:51:36Z</time></trkpt><trkpt lat="43.85723789705584" lon="11.746786047501422"><ele>1291.0</ele><time>2026-05-03T13:51:37Z</time></trkpt><trkpt lat="43.85717032269386" lon="11.74661443724587"><ele>1291.0</ele><time>2026-05-03T13:51:38Z</time></trkpt><trkpt lat="43.85714808828961" lon="11.746474006300781"><ele>1291.75</ele><time>2026-05-03T13:51:39Z</time></trkpt><trkpt lat="43.85723670110026" lon="11.746392243918159"><ele>1292.5</ele><time>2026-05-03T13:51:40Z</time></trkpt><trkpt lat="43.8573377187883" lon="11.746293770344025"><ele>1293.25</ele><time>2026-05-03T13:51:41Z</time></trkpt><trkpt lat="43.85744792364656" lon="11.746153017239054"><ele>1294.0</ele><time>2026-05-03T13:51:42Z</time></trkpt><trkpt lat="43.857598978484795" lon="11.746020169702835"><ele>1297.0</ele><time>2026-05-03T13:51:43Z</time></trkpt><trkpt lat="43.857756980610965" lon="11.745881358305084"><ele>1300.0</ele><time>2026-05-03T13:51:44Z</time></trkpt><trkpt lat="43.85791121886481" lon="11.745755961762754"><ele>1303.0</ele><time>2026-05-03T13:51:45Z</time></trkpt><trkpt lat="43.85805510798334" lon="11.745641630797701"><ele>1303.0</ele><time>2026-05-03T13:51:46Z</time></trkpt><trkpt lat="43.858187679727536" lon="11.745514967096177"><ele>1303.0</ele><time>2026-05-03T13:51:47Z</time></trkpt><trkpt lat="43.85832462950226" lon="11.745404589077333"><ele>1303.0</ele><time>2026-05-03T13:51:48Z</time></trkpt><trkpt lat="43.858459176739046" lon="11.745296804841338"><ele>1300.5</ele><time>2026-05-03T13:51:49Z</time></trkpt><trkpt lat="43.85858951662036" lon="11.745190340714254"><ele>1298.0</ele><time>2026-05-03T13:51:50Z</time></trkpt><trkpt lat="43.85871047930926" lon="11.745092865437838"><ele>1295.5</ele><time>2026-05-03T13:51:51Z</time></trkpt><trkpt lat="43.858816510849664" lon="11.745002527051652"><ele>1293.0</ele><time>2026-05-03T13:51:52Z</time></trkpt><trkpt lat="43.85890585505874" lon="11.744917329099078"><ele>1293.0</ele><time>2026-05-03T13:51:53Z</time></trkpt><trkpt lat="43.85898402803677" lon="11.744831770017761"><ele>1293.0</ele><time>2026-05-03T13:51:54Z</time></trkpt><trkpt lat="43.859064926843445" lon="11.744785039161806"><ele>1293.0</ele><time>2026-05-03T13:51:55Z</time></trkpt><trkpt lat="43.85912375106587" lon="11.744719123522074"><ele>1293.0</ele><time>2026-05-03T13:51:56Z</time></trkpt><trkpt lat="43.85918813225832" lon="11.744690138679204"><ele>1293.0</ele><time>2026-05-03T13:51:57Z</time></trkpt><trkpt lat="43.859289834678435" lon="11.744652261844065"><ele>1293.0</ele><time>2026-05-03T13:51:59Z</time></trkpt><trkpt lat="43.859363077484836" lon="11.74461392211125"><ele>1285.0</ele><time>2026-05-03T13:52:02Z</time></trkpt><trkpt lat="43.85943423745869" lon="11.74457181075299"><ele>1285.0</ele><time>2026-05-03T13:52:05Z</time></trkpt><trkpt lat="43.85950124343163" lon="11.744543859780455"><ele>1285.0</ele><time>2026-05-03T13:52:10Z</time></trkpt><trkpt lat="43.859588285624405" lon="11.744556392561833"><ele>1285.0</ele><time>2026-05-03T13:52:13Z</time></trkpt><trkpt lat="43.859653012576125" lon="11.744592993952091"><ele>1285.0</ele><time>2026-05-03T13:52:16Z</time></trkpt><trkpt lat="43.85972389696344" lon="11.744545847950805"><ele>1285.0</ele><time>2026-05-03T13:52:20Z</time></trkpt></trkseg><trkseg><trkpt lat="43.859837690891005" lon="11.744421057967433"><ele>1285.0</ele><time>2026-05-03T14:22:54Z</time></trkpt><trkpt lat="43.85991633873826" lon="11.74439186251889"><ele>1285.0</ele><time>2026-05-03T14:22:55Z</time></trkpt><trkpt lat="43.85998115497892" lon="11.744377350838453"><ele>1285.0</ele><time>2026-05-03T14:22:56Z</time></trkpt><trkpt lat="43.860068067934336" lon="11.744377450288138"><ele>1285.0</ele><time>2026-05-03T14:22:57Z</time></trkpt><trkpt lat="43.86015277285026" lon="11.744366837057406"><ele>1285.0</ele><time>2026-05-03T14:22:58Z</time></trkpt><trkpt lat="43.860252872629026" lon="11.744359900624403"><ele>1285.0</ele><time>2026-05-03T14:22:59Z</time></trkpt><trkpt lat="43.86035159203477" lon="11.744345311913692"><ele>1289.5</ele><time>2026-05-03T14:23:00Z</time></trkpt><trkpt lat="43.860461717839655" lon="11.744344676952911"><ele>1294.0</ele><time>2026-05-03T14:23:01Z</time></trkpt><trkpt lat="43.86057823767468" lon="11.744351752438094"><ele>1298.5</ele><time>2026-05-03T14:23:02Z</time></trkpt><trkpt lat="43.86069669945725" lon="11.744347126321841"><ele>1303.0</ele><time>2026-05-03T14:23:03Z</time></trkpt><trkpt lat="43.86082331340135" lon="11.74435042071146"><ele>1302.75</ele><time>2026-05-03T14:23:04Z</time></trkpt><trkpt lat="43.86095608488123" lon="11.74438724695322"><ele>1302.5</ele><time>2026-05-03T14:23:05Z</time></trkpt><trkpt lat="43.86111079976753" lon="11.74436771296101"><ele>1302.25</ele><time>2026-05-03T14:23:06Z</time></trkpt><trkpt lat="43.86125311534041" lon="11.744354301805156"><ele>1302.0</ele><time>2026-05-03T14:23:07Z</time></trkpt><trkpt lat="43.86139237487502" lon="11.744367733269765"><ele>1292.5</ele><time>2026-05-03T14:23:08Z</time></trkpt><trkpt lat="43.86152369131229" lon="11.744408968779075"><ele>1283.0</ele><time>2026-05-03T14:23:09Z</time></trkpt><trkpt lat="43.861665334747485" lon="11.744460230188208"><ele>1273.5</ele><time>2026-05-03T14:23:10Z</time></trkpt><trkpt lat="43.86181521793331" lon="11.744483725690975"><ele>1264.0</ele><time>2026-05-03T14:23:11Z</time></trkpt><trkpt lat="43.86195126117695" lon="11.744493443692319"><ele>1260.25</ele><time>2026-05-03T14:23:12Z</time></trkpt><trkpt lat="43.86207530558982" lon="11.744489818197696"><ele>1256.5</ele><time>2026-05-03T14:23:13Z</time></trkpt><trkpt lat="43.86219252233429" lon="11.744466033182748"><ele>1252.75</ele><time>2026-05-03T14:23:14Z</time></trkpt><trkpt lat="43.86230403785722" lon="11.744387711869942"><ele>1249.0</ele><time>2026-05-03T14:23:15Z</time></trkpt><trkpt lat="43.86238317469688" lon="11.744254972715671"><ele>1251.0</ele><time>2026-05-03T14:23:16Z</time></trkpt><trkpt lat="43.86246413157049" lon="11.744145348233648"><ele>1253.0</ele><time>2026-05-03T14:23:17Z</time></trkpt><trkpt lat="43.862565834083824" lon="11.744057991970909"><ele>1255.0</ele><time>2026-05-03T14:23:18Z</time></trkpt><trkpt lat="43.86267443641532" lon="11.743953934814135"><ele>1257.0</ele><time>2026-05-03T14:23:19Z</time></trkpt><trkpt lat="43.86279770042934" lon="11.743867420961845"><ele>1257.0</ele><time>2026-05-03T14:23:20Z</time></trkpt><trkpt lat="43.86294157067931" lon="11.743794398720713"><ele>1257.0</ele><time>2026-05-03T14:23:21Z</time></trkpt><trkpt lat="43.86311443620848" lon="11.743711114155408"><ele>1257.0</ele><time>2026-05-03T14:23:22Z</time></trkpt><trkpt lat="43.8633047880735" lon="11.743605352453647"><ele>1260.0</ele><time>2026-05-03T14:23:23Z</time></trkpt><trkpt lat="43.86349132318793" lon="11.743497797446302"><ele>1263.0</ele><time>2026-05-03T14:23:24Z</time></trkpt><trkpt lat="43.8636840130501" lon="11.743396645401747"><ele>1266.0</ele><time>2026-05-03T14:23:25Z</time></trkpt><trkpt lat="43.863851199177994" lon="11.743316543805031"><ele>1266.0</ele><time>2026-05-03T14:23:26Z</time></trkpt><trkpt lat="43.86401752623323" lon="11.7432365778013"><ele>1266.0</ele><time>2026-05-03T14:23:27Z</time></trkpt><trkpt lat="43.864143499390295" lon="11.743112629950245"><ele>1266.0</ele><time>2026-05-03T14:23:28Z</time></trkpt><trkpt lat="43.86428237703654" lon="11.743029007577052"><ele>1260.0</ele><time>2026-05-03T14:23:29Z</time></trkpt><trkpt lat="43.864396998285144" lon="11.742916408550839"><ele>1254.0</ele><time>2026-05-03T14:23:30Z</time></trkpt><trkpt lat="43.864504334384364" lon="11.74276508550349"><ele>1248.0</ele><time>2026-05-03T14:23:31Z</time></trkpt><trkpt lat="43.86460010106657" lon="11.742543123573135"><ele>1248.0</ele><time>2026-05-03T14:23:32Z</time></trkpt><trkpt lat="43.86469257493569" lon="11.742357779937414"><ele>1248.0</ele><time>2026-05-03T14:23:33Z</time></trkpt><trkpt lat="43.864752686956656" lon="11.742173212765241"><ele>1248.0</ele><time>2026-05-03T14:23:34Z</time></trkpt><trkpt lat="43.86477194059922" lon="11.741984413588593"><ele>1248.0</ele><time>2026-05-03T14:23:35Z</time></trkpt><trkpt lat="43.86476879557045" lon="11.741807843610326"><ele>1248.5</ele><time>2026-05-03T14:23:36Z</time></trkpt><trkpt lat="43.86472861018677" lon="11.741659390975427"><ele>1249.0</ele><time>2026-05-03T14:23:37Z</time></trkpt><trkpt lat="43.86468656030886" lon="11.741519827756838"><ele>1249.5</ele><time>2026-05-03T14:23:38Z</time></trkpt><trkpt lat="43.864658257944" lon="11.741407682164585"><ele>1250.0</ele><time>2026-05-03T14:23:39Z</time></trkpt><trkpt lat="43.86465771576817" lon="11.741316582980552"><ele>1250.5</ele><time>2026-05-03T14:23:40Z</time></trkpt><trkpt lat="43.864679814654046" lon="11.74122111352998"><ele>1251.0</ele><time>2026-05-03T14:23:41Z</time></trkpt><trkpt lat="43.864756408418195" lon="11.741164643859673"><ele>1251.0</ele><time>2026-05-03T14:23:42Z</time></trkpt><trkpt lat="43.86485083479769" lon="11.741080374921188"><ele>1251.0</ele><time>2026-05-03T14:23:43Z</time></trkpt><trkpt lat="43.86497190119264" lon="11.740981906848539"><ele>1251.0</ele><time>2026-05-03T14:23:44Z</time></trkpt><trkpt lat="43.86511386625343" lon="11.740919644228883"><ele>1251.0</ele><time>2026-05-03T14:23:45Z</time></trkpt><trkpt lat="43.865263523764796" lon="11.740886806075375"><ele>1247.6666666666667</ele><time>2026-05-03T14:23:46Z</time></trkpt><trkpt lat="43.865459008178156" lon="11.740820367703838"><ele>1244.3333333333335</ele><time>2026-05-03T14:23:47Z</time></trkpt><trkpt lat="43.86565164530155" lon="11.740760064789306"><ele>1241.0</ele><time>2026-05-03T14:23:48Z</time></trkpt><trkpt lat="43.865807040726125" lon="11.740667243656322"><ele>1241.0</ele><time>2026-05-03T14:23:49Z</time></trkpt><trkpt lat="43.865929771680314" lon="11.740575736844345"><ele>1241.0</ele><time>2026-05-03T14:23:50Z</time></trkpt><trkpt lat="43.86599313297745" lon="11.740502033760817"><ele>1241.0</ele><time>2026-05-03T14:23:51Z</time></trkpt><trkpt lat="43.86603848965734" lon="11.740392597179703"><ele>1241.0</ele><time>2026-05-03T14:23:52Z</time></trkpt><trkpt lat="43.86606265005489" lon="11.74022813478216"><ele>1241.0</ele><time>2026-05-03T14:23:53Z</time></trkpt><trkpt lat="43.8660973771923" lon="11.74007057155038"><ele>1242.5</ele><time>2026-05-03T14:23:54Z</time></trkpt><trkpt lat="43.86620589327926" lon="11.740053894174764"><ele>1244.0</ele><time>2026-05-03T14:23:55Z</time></trkpt><trkpt lat="43.86631083841073" lon="11.74000580301208"><ele>1245.5</ele><time>2026-05-03T14:23:56Z</time></trkpt><trkpt lat="43.86645443611708" lon="11.739931446836302"><ele>1247.0</ele><time>2026-05-03T14:23:57Z</time></trkpt><trkpt lat="43.866608260007524" lon="11.739867806048412"><ele>1247.0</ele><time>2026-05-03T14:23:58Z</time></trkpt><trkpt lat="43.86674309445625" lon="11.739822094411078"><ele>1247.0</ele><time>2026-05-03T14:23:59Z</time></trkpt><trkpt lat="43.86683572203764" lon="11.739825953125276"><ele>1247.0</ele><time>2026-05-03T14:24:00Z</time></trkpt><trkpt lat="43.866908464144544" lon="11.73990589106244"><ele>1247.0</ele><time>2026-05-03T14:24:01Z</time></trkpt><trkpt lat="43.86698582432065" lon="11.740043593786163"><ele>1239.3333333333335</ele><time>2026-05-03T14:24:02Z</time></trkpt><trkpt lat="43.86706109738915" lon="11.740218332040424"><ele>1231.6666666666667</ele><time>2026-05-03T14:24:03Z</time></trkpt><trkpt lat="43.86715978876061" lon="11.740393424820352"><ele>1224.0</ele><time>2026-05-03T14:24:04Z</time></trkpt><trkpt lat="43.8672722566148" lon="11.74055358655183"><ele>1224.0</ele><time>2026-05-03T14:24:05Z</time></trkpt><trkpt lat="43.86734978133639" lon="11.740667303702766"><ele>1224.0</ele><time>2026-05-03T14:24:06Z</time></trkpt><trkpt lat="43.86738076871911" lon="11.74080034010173"><ele>1224.0</ele><time>2026-05-03T14:24:07Z</time></trkpt><trkpt lat="43.86738788305885" lon="11.740909803536745"><ele>1224.0</ele><time>2026-05-03T14:24:08Z</time></trkpt><trkpt lat="43.86734852927677" lon="11.740987718571056"><ele>1224.0</ele><time>2026-05-03T14:24:09Z</time></trkpt><trkpt lat="43.86728529513177" lon="11.741019829907826"><ele>1224.0</ele><time>2026-05-03T14:24:10Z</time></trkpt><trkpt lat="43.867208367740446" lon="11.74098952975948"><ele>1224.0</ele><time>2026-05-03T14:24:11Z</time></trkpt><trkpt lat="43.867138270548374" lon="11.740859571349029"><ele>1224.0</ele><time>2026-05-03T14:24:12Z</time></trkpt><trkpt lat="43.86702589916481" lon="11.74073824243421"><ele>1224.0</ele><time>2026-05-03T14:24:13Z</time></trkpt><trkpt lat="43.86691153140875" lon="11.740608350058444"><ele>1224.0</ele><time>2026-05-03T14:24:14Z</time></trkpt><trkpt lat="43.86682793788923" lon="11.740485686781328"><ele>1224.4</ele><time>2026-05-03T14:24:15Z</time></trkpt><trkpt lat="43.866746895237235" lon="11.740434690674986"><ele>1224.8000000000002</ele><time>2026-05-03T14:24:16Z</time></trkpt><trkpt lat="43.86665623932313" lon="11.740457176203014"><ele>1225.1999999999998</ele><time>2026-05-03T14:24:17Z</time></trkpt><trkpt lat="43.86656957639751" lon="11.740523393294612"><ele>1225.6</ele><time>2026-05-03T14:24:18Z</time></trkpt><trkpt lat="43.866457259156824" lon="11.740645877410078"><ele>1226.0</ele><time>2026-05-03T14:24:19Z</time></trkpt><trkpt lat="43.866341922866894" lon="11.740864198183642"><ele>1224.75</ele><time>2026-05-03T14:24:20Z</time></trkpt><trkpt lat="43.866227856373754" lon="11.741059763832618"><ele>1223.5</ele><time>2026-05-03T14:24:21Z</time></trkpt><trkpt lat="43.8660964488628" lon="11.741162572593556"><ele>1222.25</ele><time>2026-05-03T14:24:22Z</time></trkpt><trkpt lat="43.86599031198014" lon="11.741171618865415"><ele>1221.0</ele><time>2026-05-03T14:24:23Z</time></trkpt><trkpt lat="43.865907914792075" lon="11.741247330908024"><ele>1221.0</ele><time>2026-05-03T14:24:24Z</time></trkpt><trkpt lat="43.865844566830226" lon="11.741350648946169"><ele>1221.0</ele><time>2026-05-03T14:24:25Z</time></trkpt><trkpt lat="43.86583411908922" lon="11.741471595960515"><ele>1221.0</ele><time>2026-05-03T14:24:26Z</time></trkpt><trkpt lat="43.865869179812684" lon="11.741547370873116"><ele>1221.0</ele><time>2026-05-03T14:24:27Z</time></trkpt><trkpt lat="43.86596146348832" lon="11.741608508296789"><ele>1221.0</ele><time>2026-05-03T14:24:29Z</time></trkpt><trkpt lat="43.86612156613167" lon="11.741520826753137"><ele>1217.75</ele><time>2026-05-03T14:24:30Z</time></trkpt><trkpt lat="43.86622243777181" lon="11.74138851731536"><ele>1214.5</ele><time>2026-05-03T14:24:31Z</time></trkpt><trkpt lat="43.866331657109875" lon="11.741249580839082"><ele>1211.25</ele><time>2026-05-03T14:24:32Z</time></trkpt><trkpt lat="43.8664215269371" lon="11.741148931708612"><ele>1208.0</ele><time>2026-05-03T14:24:33Z</time></trkpt><trkpt lat="43.86649992764962" lon="11.741139510619163"><ele>1208.0</ele><time>2026-05-03T14:24:34Z</time></trkpt><trkpt lat="43.86657721180311" lon="11.741179162982247"><ele>1208.0</ele><time>2026-05-03T14:24:35Z</time></trkpt><trkpt lat="43.866648570211616" lon="11.741274756783607"><ele>1208.0</ele><time>2026-05-03T14:24:36Z</time></trkpt><trkpt lat="43.866658636027665" lon="11.741418326906695"><ele>1208.0</ele><time>2026-05-03T14:24:37Z</time></trkpt><trkpt lat="43.86661791693791" lon="11.741613897309374"><ele>1208.0</ele><time>2026-05-03T14:24:38Z</time></trkpt><trkpt lat="43.86660407456051" lon="11.741765210723846"><ele>1204.0</ele><time>2026-05-03T14:24:39Z</time></trkpt><trkpt lat="43.8666397695893" lon="11.74190067101774"><ele>1200.0</ele><time>2026-05-03T14:24:40Z</time></trkpt><trkpt lat="43.86670123276372" lon="11.741949877442886"><ele>1196.0</ele><time>2026-05-03T14:24:41Z</time></trkpt><trkpt lat="43.86679890225416" lon="11.742008368432737"><ele>1192.0</ele><time>2026-05-03T14:24:42Z</time></trkpt><trkpt lat="43.86693578362507" lon="11.741978047851275"><ele>1188.0</ele><time>2026-05-03T14:24:43Z</time></trkpt><trkpt lat="43.8670638329973" lon="11.741892150155756"><ele>1190.0</ele><time>2026-05-03T14:24:44Z</time></trkpt><trkpt lat="43.867222047062334" lon="11.741803500497253"><ele>1192.0</ele><time>2026-05-03T14:24:45Z</time></trkpt><trkpt lat="43.86737766500288" lon="11.74162901848435"><ele>1194.0</ele><time>2026-05-03T14:24:46Z</time></trkpt><trkpt lat="43.86754916525906" lon="11.74147307456456"><ele>1185.0</ele><time>2026-05-03T14:24:47Z</time></trkpt><trkpt lat="43.867696916440764" lon="11.741373060494954"><ele>1176.0</ele><time>2026-05-03T14:24:48Z</time></trkpt><trkpt lat="43.86786506251917" lon="11.741287280198758"><ele>1167.0</ele><time>2026-05-03T14:24:49Z</time></trkpt><trkpt lat="43.868041183158105" lon="11.741210815750991"><ele>1167.0</ele><time>2026-05-03T14:24:50Z</time></trkpt><trkpt lat="43.86818420194175" lon="11.741178189684954"><ele>1167.0</ele><time>2026-05-03T14:24:51Z</time></trkpt><trkpt lat="43.8682986548411" lon="11.741166792454285"><ele>1167.0</ele><time>2026-05-03T14:24:52Z</time></trkpt><trkpt lat="43.868398860436756" lon="11.741132575333074"><ele>1167.0</ele><time>2026-05-03T14:24:53Z</time></trkpt><trkpt lat="43.86846096578842" lon="11.741028127658927"><ele>1170.4</ele><time>2026-05-03T14:24:54Z</time></trkpt><trkpt lat="43.86847023656404" lon="11.740879899863884"><ele>1173.8000000000002</ele><time>2026-05-03T14:24:55Z</time></trkpt><trkpt lat="43.868444079362845" lon="11.74073264890723"><ele>1177.2</ele><time>2026-05-03T14:24:56Z</time></trkpt><trkpt lat="43.86838643166012" lon="11.740584759391712"><ele>1180.6000000000001</ele><time>2026-05-03T14:24:57Z</time></trkpt><trkpt lat="43.8683773446046" lon="11.7404584640761"><ele>1184.0</ele><time>2026-05-03T14:24:58Z</time></trkpt><trkpt lat="43.86844364547401" lon="11.740362364516377"><ele>1184.0</ele><time>2026-05-03T14:24:59Z</time></trkpt><trkpt lat="43.86855907018242" lon="11.740299864242592"><ele>1184.0</ele><time>2026-05-03T14:25:00Z</time></trkpt><trkpt lat="43.8686694224851" lon="11.740405091796578"><ele>1184.0</ele><time>2026-05-03T14:25:01Z</time></trkpt><trkpt lat="43.86880449219513" lon="11.740460158865748"><ele>1184.0</ele><time>2026-05-03T14:25:02Z</time></trkpt><trkpt lat="43.86891646502953" lon="11.740574883721672"><ele>1184.0</ele><time>2026-05-03T14:25:03Z</time></trkpt><trkpt lat="43.86904370573313" lon="11.740750671671638"><ele>1184.0</ele><time>2026-05-03T14:25:04Z</time></trkpt><trkpt lat="43.869197892611766" lon="11.740928289112436"><ele>1184.0</ele><time>2026-05-03T14:25:05Z</time></trkpt><trkpt lat="43.86938946520323" lon="11.741101327025621"><ele>1177.0</ele><time>2026-05-03T14:25:06Z</time></trkpt><trkpt lat="43.86954568982565" lon="11.74131832965962"><ele>1170.0</ele><time>2026-05-03T14:25:07Z</time></trkpt><trkpt lat="43.86968908827756" lon="11.741517468216587"><ele>1163.0</ele><time>2026-05-03T14:25:08Z</time></trkpt><trkpt lat="43.86978772960792" lon="11.741651290513502"><ele>1163.0</ele><time>2026-05-03T14:25:09Z</time></trkpt><trkpt lat="43.86988626084739" lon="11.741773154783344"><ele>1163.0</ele><time>2026-05-03T14:25:10Z</time></trkpt><trkpt lat="43.869994014009215" lon="11.74185788305855"><ele>1163.0</ele><time>2026-05-03T14:25:11Z</time></trkpt><trkpt lat="43.87010189351381" lon="11.741904515604098"><ele>1163.0</ele><time>2026-05-03T14:25:12Z</time></trkpt><trkpt lat="43.87018989258727" lon="11.74191283803136"><ele>1155.0</ele><time>2026-05-03T14:25:13Z</time></trkpt><trkpt lat="43.87029184982332" lon="11.741877865598079"><ele>1147.0</ele><time>2026-05-03T14:25:14Z</time></trkpt><trkpt lat="43.87035799800773" lon="11.741782596081837"><ele>1139.0</ele><time>2026-05-03T14:25:15Z</time></trkpt><trkpt lat="43.87040818729964" lon="11.741641622215278"><ele>1131.0</ele><time>2026-05-03T14:25:16Z</time></trkpt><trkpt lat="43.87044345683431" lon="11.741487796741183"><ele>1123.0</ele><time>2026-05-03T14:25:17Z</time></trkpt><trkpt lat="43.87045724012827" lon="11.741329772924319"><ele>1123.0</ele><time>2026-05-03T14:25:18Z</time></trkpt><trkpt lat="43.87046277931398" lon="11.7411691961123"><ele>1123.0</ele><time>2026-05-03T14:25:19Z</time></trkpt><trkpt lat="43.87047509025816" lon="11.741019543840933"><ele>1123.0</ele><time>2026-05-03T14:25:20Z</time></trkpt><trkpt lat="43.87046383900005" lon="11.74087426666269"><ele>1123.0</ele><time>2026-05-03T14:25:21Z</time></trkpt><trkpt lat="43.87042994115802" lon="11.74073807996171"><ele>1123.0</ele><time>2026-05-03T14:25:22Z</time></trkpt><trkpt lat="43.87040070696627" lon="11.740611114069093"><ele>1123.2</ele><time>2026-05-03T14:25:23Z</time></trkpt><trkpt lat="43.870385213572504" lon="11.740466968548203"><ele>1123.4</ele><time>2026-05-03T14:25:24Z</time></trkpt><trkpt lat="43.870392474327325" lon="11.740317934053737"><ele>1123.6000000000001</ele><time>2026-05-03T14:25:25Z</time></trkpt><trkpt lat="43.87044109494438" lon="11.740185433886138"><ele>1123.8</ele><time>2026-05-03T14:25:26Z</time></trkpt><trkpt lat="43.87047977702964" lon="11.74005570366821"><ele>1124.0</ele><time>2026-05-03T14:25:27Z</time></trkpt><trkpt lat="43.87050851903858" lon="11.739935586197944"><ele>1125.0</ele><time>2026-05-03T14:25:28Z</time></trkpt><trkpt lat="43.87047768382674" lon="11.73979712030585"><ele>1126.0</ele><time>2026-05-03T14:25:29Z</time></trkpt><trkpt lat="43.87043071704534" lon="11.739670577727816"><ele>1127.0</ele><time>2026-05-03T14:25:30Z</time></trkpt><trkpt lat="43.8703670228191" lon="11.739559746021595"><ele>1128.0</ele><time>2026-05-03T14:25:31Z</time></trkpt><trkpt lat="43.870336604966695" lon="11.739443522028864"><ele>1129.0</ele><time>2026-05-03T14:25:32Z</time></trkpt><trkpt lat="43.87032610846464" lon="11.739315466868925"><ele>1134.2</ele><time>2026-05-03T14:25:33Z</time></trkpt><trkpt lat="43.87032494724093" lon="11.739196683929304"><ele>1139.4</ele><time>2026-05-03T14:25:34Z</time></trkpt><trkpt lat="43.870352817085646" lon="11.739105902583447"><ele>1144.6</ele><time>2026-05-03T14:25:35Z</time></trkpt><trkpt lat="43.8704901304986" lon="11.739034483604977"><ele>1149.8</ele><time>2026-05-03T14:25:37Z</time></trkpt><trkpt lat="43.87059938832365" lon="11.739155151954058"><ele>1155.0</ele><time>2026-05-03T14:25:38Z</time></trkpt><trkpt lat="43.87076741726249" lon="11.73919324630012"><ele>1155.0</ele><time>2026-05-03T14:25:39Z</time></trkpt><trkpt lat="43.87093741800766" lon="11.739236840027203"><ele>1155.0</ele><time>2026-05-03T14:25:40Z</time></trkpt><trkpt lat="43.87107724941275" lon="11.73926361026443"><ele>1155.0</ele><time>2026-05-03T14:25:41Z</time></trkpt><trkpt lat="43.87120290628755" lon="11.739237599204845"><ele>1155.0</ele><time>2026-05-03T14:25:42Z</time></trkpt><trkpt lat="43.87134253526311" lon="11.739157432723157"><ele>1150.0</ele><time>2026-05-03T14:25:43Z</time></trkpt><trkpt lat="43.871478634929964" lon="11.739044805817617"><ele>1145.0</ele><time>2026-05-03T14:25:44Z</time></trkpt><trkpt lat="43.87159284658199" lon="11.738905136377525"><ele>1140.0</ele><time>2026-05-03T14:25:45Z</time></trkpt><trkpt lat="43.87176576711079" lon="11.73871687541646"><ele>1144.6666666666667</ele><time>2026-05-03T14:25:46Z</time></trkpt><trkpt lat="43.871938006507925" lon="11.738484661578283"><ele>1149.3333333333335</ele><time>2026-05-03T14:25:47Z</time></trkpt><trkpt lat="43.87206254780099" lon="11.738286929842435"><ele>1154.0</ele><time>2026-05-03T14:25:48Z</time></trkpt><trkpt lat="43.872140954833135" lon="11.738142119086465"><ele>1154.0</ele><time>2026-05-03T14:25:49Z</time></trkpt><trkpt lat="43.872208149433085" lon="11.738045368634284"><ele>1154.0</ele><time>2026-05-03T14:25:50Z</time></trkpt><trkpt lat="43.87230735636651" lon="11.73805733568826"><ele>1154.0</ele><time>2026-05-03T14:25:52Z</time></trkpt><trkpt lat="43.872349423628215" lon="11.738144241515945"><ele>1154.0</ele><time>2026-05-03T14:25:53Z</time></trkpt><trkpt lat="43.872375894112245" lon="11.73834339483044"><ele>1154.0</ele><time>2026-05-03T14:25:54Z</time></trkpt><trkpt lat="43.87217912997602" lon="11.738729939644992"><ele>1153.6666666666667</ele><time>2026-05-03T14:25:56Z</time></trkpt><trkpt lat="43.872080021490305" lon="11.738917382412518"><ele>1153.3333333333333</ele><time>2026-05-03T14:25:57Z</time></trkpt><trkpt lat="43.872024430042245" lon="11.739159038506632"><ele>1153.0</ele><time>2026-05-03T14:25:58Z</time></trkpt><trkpt lat="43.87196836637496" lon="11.739354807641126"><ele>1154.75</ele><time>2026-05-03T14:25:59Z</time></trkpt><trkpt lat="43.87191638084674" lon="11.739510149419994"><ele>1156.5</ele><time>2026-05-03T14:26:00Z</time></trkpt><trkpt lat="43.8718131737753" lon="11.739629695198921"><ele>1158.25</ele><time>2026-05-03T14:26:01Z</time></trkpt><trkpt lat="43.87168060440356" lon="11.739719434130649"><ele>1160.0</ele><time>2026-05-03T14:26:02Z</time></trkpt><trkpt lat="43.87150399775025" lon="11.73984853388533"><ele>1154.25</ele><time>2026-05-03T14:26:03Z</time></trkpt><trkpt lat="43.87135201614683" lon="11.739946811383259"><ele>1148.5</ele><time>2026-05-03T14:26:04Z</time></trkpt><trkpt lat="43.871236100798264" lon="11.74004910719735"><ele>1142.75</ele><time>2026-05-03T14:26:05Z</time></trkpt><trkpt lat="43.871168840777585" lon="11.740188583526342"><ele>1137.0</ele><time>2026-05-03T14:26:06Z</time></trkpt><trkpt lat="43.871142839608765" lon="11.740320926343745"><ele>1136.5</ele><time>2026-05-03T14:26:07Z</time></trkpt><trkpt lat="43.87118725735738" lon="11.740475648253055"><ele>1136.0</ele><time>2026-05-03T14:26:08Z</time></trkpt><trkpt lat="43.87125894954045" lon="11.740656414771163"><ele>1135.5</ele><time>2026-05-03T14:26:09Z</time></trkpt><trkpt lat="43.87136185141966" lon="11.74084058966939"><ele>1135.0</ele><time>2026-05-03T14:26:10Z</time></trkpt><trkpt lat="43.87142179247284" lon="11.741076950665652"><ele>1132.3333333333333</ele><time>2026-05-03T14:26:11Z</time></trkpt><trkpt lat="43.8714079632782" lon="11.741310657932166"><ele>1129.6666666666667</ele><time>2026-05-03T14:26:12Z</time></trkpt><trkpt lat="43.87143753176434" lon="11.741558583021067"><ele>1127.0</ele><time>2026-05-03T14:26:13Z</time></trkpt><trkpt lat="43.87149773310213" lon="11.741840672054668"><ele>1120.6666666666667</ele><time>2026-05-03T14:26:14Z</time></trkpt><trkpt lat="43.87155519847929" lon="11.742117275328274"><ele>1114.3333333333333</ele><time>2026-05-03T14:26:15Z</time></trkpt><trkpt lat="43.871575783989414" lon="11.742367111641478"><ele>1108.0</ele><time>2026-05-03T14:26:16Z</time></trkpt><trkpt lat="43.871644928199224" lon="11.742553711304897"><ele>1105.75</ele><time>2026-05-03T14:26:17Z</time></trkpt><trkpt lat="43.871737757430616" lon="11.742724305727528"><ele>1103.5</ele><time>2026-05-03T14:26:18Z</time></trkpt><trkpt lat="43.87184137435784" lon="11.742860475883269"><ele>1101.25</ele><time>2026-05-03T14:26:19Z</time></trkpt><trkpt lat="43.871950931972584" lon="11.742970295673254"><ele>1099.0</ele><time>2026-05-03T14:26:20Z</time></trkpt><trkpt lat="43.87204767511719" lon="11.743044920565897"><ele>1100.6000000000001</ele><time>2026-05-03T14:26:21Z</time></trkpt><trkpt lat="43.87213214571668" lon="11.743130307134093"><ele>1102.2</ele><time>2026-05-03T14:26:22Z</time></trkpt><trkpt lat="43.87221144392623" lon="11.743222919501886"><ele>1103.8000000000002</ele><time>2026-05-03T14:26:23Z</time></trkpt><trkpt lat="43.872269647845556" lon="11.743333076956302"><ele>1105.4</ele><time>2026-05-03T14:26:24Z</time></trkpt><trkpt lat="43.872310126368426" lon="11.743502113937785"><ele>1107.0</ele><time>2026-05-03T14:26:25Z</time></trkpt><trkpt lat="43.87236687041848" lon="11.743725898279562"><ele>1107.0</ele><time>2026-05-03T14:26:26Z</time></trkpt><trkpt lat="43.87242349792248" lon="11.743971533392005"><ele>1107.0</ele><time>2026-05-03T14:26:27Z</time></trkpt><trkpt lat="43.8724658865131" lon="11.74416154877792"><ele>1107.0</ele><time>2026-05-03T14:26:28Z</time></trkpt><trkpt lat="43.87250553667726" lon="11.744310817538086"><ele>1107.0</ele><time>2026-05-03T14:26:29Z</time></trkpt><trkpt lat="43.87249578522255" lon="11.744452593665736"><ele>1105.2</ele><time>2026-05-03T14:26:30Z</time></trkpt><trkpt lat="43.8725016023196" lon="11.74457921190243"><ele>1103.4</ele><time>2026-05-03T14:26:31Z</time></trkpt><trkpt lat="43.87245914743236" lon="11.744697339788425"><ele>1101.6</ele><time>2026-05-03T14:26:32Z</time></trkpt><trkpt lat="43.87240021407615" lon="11.744812412915445"><ele>1099.8</ele><time>2026-05-03T14:26:33Z</time></trkpt><trkpt lat="43.87234212240395" lon="11.744923641298715"><ele>1098.0</ele><time>2026-05-03T14:26:34Z</time></trkpt><trkpt lat="43.87230937678099" lon="11.745040176684993"><ele>1098.0</ele><time>2026-05-03T14:26:35Z</time></trkpt><trkpt lat="43.8723038521569" lon="11.745183224155134"><ele>1098.0</ele><time>2026-05-03T14:26:36Z</time></trkpt><trkpt lat="43.87233001853813" lon="11.74532743142021"><ele>1098.0</ele><time>2026-05-03T14:26:37Z</time></trkpt><trkpt lat="43.87238052807815" lon="11.745474701835132"><ele>1098.0</ele><time>2026-05-03T14:26:38Z</time></trkpt><trkpt lat="43.8724477824518" lon="11.74562335051098"><ele>1097.5</ele><time>2026-05-03T14:26:39Z</time></trkpt><trkpt lat="43.87253584680214" lon="11.74576593201539"><ele>1097.0</ele><time>2026-05-03T14:26:40Z</time></trkpt><trkpt lat="43.87259913469713" lon="11.745897338314073"><ele>1096.5</ele><time>2026-05-03T14:26:41Z</time></trkpt><trkpt lat="43.872628970448694" lon="11.746038391301381"><ele>1096.0</ele><time>2026-05-03T14:26:42Z</time></trkpt><trkpt lat="43.87262497824947" lon="11.746196157355676"><ele>1093.75</ele><time>2026-05-03T14:26:43Z</time></trkpt><trkpt lat="43.87258430760475" lon="11.746357481803681"><ele>1091.5</ele><time>2026-05-03T14:26:44Z</time></trkpt><trkpt lat="43.87253138729835" lon="11.746534285498658"><ele>1089.25</ele><time>2026-05-03T14:26:45Z</time></trkpt><trkpt lat="43.87250902286812" lon="11.746715674961827"><ele>1087.0</ele><time>2026-05-03T14:26:46Z</time></trkpt><trkpt lat="43.872493900853115" lon="11.74689801225344"><ele>1084.25</ele><time>2026-05-03T14:26:47Z</time></trkpt><trkpt lat="43.87250771132435" lon="11.747080432302786"><ele>1081.5</ele><time>2026-05-03T14:26:48Z</time></trkpt><trkpt lat="43.872545183026276" lon="11.747260864377912"><ele>1078.75</ele><time>2026-05-03T14:26:49Z</time></trkpt><trkpt lat="43.87260304682072" lon="11.747452462267992"><ele>1076.0</ele><time>2026-05-03T14:26:50Z</time></trkpt><trkpt lat="43.872670616727596" lon="11.747659183939485"><ele>1083.6666666666667</ele><time>2026-05-03T14:26:51Z</time></trkpt><trkpt lat="43.87274927954566" lon="11.747881391012974"><ele>1091.3333333333333</ele><time>2026-05-03T14:26:52Z</time></trkpt><trkpt lat="43.87285170169176" lon="11.748147289723818"><ele>1099.0</ele><time>2026-05-03T14:26:53Z</time></trkpt><trkpt lat="43.87295219480264" lon="11.74840036545265"><ele>1095.3333333333333</ele><time>2026-05-03T14:26:54Z</time></trkpt><trkpt lat="43.87303516343708" lon="11.748629293279894"><ele>1091.6666666666667</ele><time>2026-05-03T14:26:55Z</time></trkpt><trkpt lat="43.87311656069807" lon="11.748835434214188"><ele>1088.0</ele><time>2026-05-03T14:26:56Z</time></trkpt><trkpt lat="43.87319486931892" lon="11.749044354499024"><ele>1088.0</ele><time>2026-05-03T14:26:57Z</time></trkpt><trkpt lat="43.8732717323997" lon="11.749257865439182"><ele>1088.0</ele><time>2026-05-03T14:26:58Z</time></trkpt><trkpt lat="43.873348799609445" lon="11.74946055364159"><ele>1088.0</ele><time>2026-05-03T14:26:59Z</time></trkpt><trkpt lat="43.87342904156959" lon="11.749642460776247"><ele>1090.6666666666667</ele><time>2026-05-03T14:27:00Z</time></trkpt><trkpt lat="43.873540713983985" lon="11.749793064966019"><ele>1093.3333333333333</ele><time>2026-05-03T14:27:01Z</time></trkpt><trkpt lat="43.8736895232554" lon="11.749917461570856"><ele>1096.0</ele><time>2026-05-03T14:27:02Z</time></trkpt><trkpt lat="43.87383969695246" lon="11.750050951102358"><ele>1096.0</ele><time>2026-05-03T14:27:03Z</time></trkpt><trkpt lat="43.87394485499494" lon="11.750207826392618"><ele>1096.0</ele><time>2026-05-03T14:27:04Z</time></trkpt><trkpt lat="43.874014532176126" lon="11.750372270491527"><ele>1096.0</ele><time>2026-05-03T14:27:05Z</time></trkpt><trkpt lat="43.87410017560668" lon="11.7504780536596"><ele>1096.0</ele><time>2026-05-03T14:27:06Z</time></trkpt><trkpt lat="43.8742135025615" lon="11.750533954857293"><ele>1086.0</ele><time>2026-05-03T14:27:07Z</time></trkpt><trkpt lat="43.87434118923866" lon="11.750529837302059"><ele>1076.0</ele><time>2026-05-03T14:27:08Z</time></trkpt><trkpt lat="43.874482442581964" lon="11.75049667101353"><ele>1066.0</ele><time>2026-05-03T14:27:09Z</time></trkpt><trkpt lat="43.87462232741866" lon="11.750461394142587"><ele>1056.0</ele><time>2026-05-03T14:27:10Z</time></trkpt><trkpt lat="43.87472339272324" lon="11.750439299943325"><ele>1056.0</ele><time>2026-05-03T14:27:11Z</time></trkpt><trkpt lat="43.87479976382872" lon="11.750426890661325"><ele>1056.0</ele><time>2026-05-03T14:27:12Z</time></trkpt><trkpt lat="43.874897461506606" lon="11.750424653575607"><ele>1056.0</ele><time>2026-05-03T14:27:14Z</time></trkpt><trkpt lat="43.87497094020555" lon="11.750393938974993"><ele>1056.0</ele><time>2026-05-03T14:27:18Z</time></trkpt><trkpt lat="43.87502545193623" lon="11.750323242921088"><ele>1056.0</ele><time>2026-05-03T14:27:57Z</time></trkpt><trkpt lat="43.87506515993704" lon="11.75024503617529"><ele>1056.0</ele><time>2026-05-03T14:27:58Z</time></trkpt><trkpt lat="43.87510744985273" lon="11.750133085179252"><ele>1056.3999999999999</ele><time>2026-05-03T14:27:59Z</time></trkpt><trkpt lat="43.875151165125025" lon="11.750007161076836"><ele>1056.8</ele><time>2026-05-03T14:28:00Z</time></trkpt><trkpt lat="43.87519322770678" lon="11.749857813021338"><ele>1057.1999999999998</ele><time>2026-05-03T14:28:01Z</time></trkpt><trkpt lat="43.875242521121656" lon="11.749715824335592"><ele>1057.6</ele><time>2026-05-03T14:28:02Z</time></trkpt><trkpt lat="43.87528541226291" lon="11.749593442915165"><ele>1058.0</ele><time>2026-05-03T14:28:03Z</time></trkpt><trkpt lat="43.875336277944086" lon="11.749488470583191"><ele>1058.0</ele><time>2026-05-03T14:28:04Z</time></trkpt><trkpt lat="43.87540700900926" lon="11.749397936869153"><ele>1058.0</ele><time>2026-05-03T14:28:05Z</time></trkpt><trkpt lat="43.875513279022385" lon="11.749347307554453"><ele>1058.0</ele><time>2026-05-03T14:28:06Z</time></trkpt><trkpt lat="43.87564287143724" lon="11.749333801395784"><ele>1058.0</ele><time>2026-05-03T14:28:07Z</time></trkpt><trkpt lat="43.87578014104909" lon="11.749352688546434"><ele>1063.5</ele><time>2026-05-03T14:28:08Z</time></trkpt><trkpt lat="43.8759098478687" lon="11.749361542724465"><ele>1069.0</ele><time>2026-05-03T14:28:09Z</time></trkpt><trkpt lat="43.87604138958096" lon="11.749289782515195"><ele>1074.5</ele><time>2026-05-03T14:28:10Z</time></trkpt><trkpt lat="43.87619042945791" lon="11.749186272061394"><ele>1080.0</ele><time>2026-05-03T14:28:11Z</time></trkpt><trkpt lat="43.87634113379735" lon="11.749071548020499"><ele>1080.0</ele><time>2026-05-03T14:28:12Z</time></trkpt><trkpt lat="43.87647735468842" lon="11.748972496768364"><ele>1080.0</ele><time>2026-05-03T14:28:13Z</time></trkpt><trkpt lat="43.876592280769785" lon="11.748900988178873"><ele>1080.0</ele><time>2026-05-03T14:28:14Z</time></trkpt><trkpt lat="43.87671371403975" lon="11.74887264804467"><ele>1080.0</ele><time>2026-05-03T14:28:15Z</time></trkpt><trkpt lat="43.87682632212516" lon="11.74887776434449"><ele>1078.25</ele><time>2026-05-03T14:28:16Z</time></trkpt><trkpt lat="43.876924653282465" lon="11.749021420766981"><ele>1076.5</ele><time>2026-05-03T14:28:17Z</time></trkpt><trkpt lat="43.87701343532484" lon="11.749176856767118"><ele>1074.75</ele><time>2026-05-03T14:28:18Z</time></trkpt><trkpt lat="43.877125111883856" lon="11.749294181868214"><ele>1073.0</ele><time>2026-05-03T14:28:19Z</time></trkpt><trkpt lat="43.877210972657345" lon="11.749405526295769"><ele>1073.0</ele><time>2026-05-03T14:28:20Z</time></trkpt><trkpt lat="43.87729719125702" lon="11.749462102280187"><ele>1073.0</ele><time>2026-05-03T14:28:21Z</time></trkpt><trkpt lat="43.87740259653244" lon="11.749454040839366"><ele>1073.0</ele><time>2026-05-03T14:28:22Z</time></trkpt><trkpt lat="43.87751384412448" lon="11.749368850506931"><ele>1073.0</ele><time>2026-05-03T14:28:23Z</time></trkpt><trkpt lat="43.87759304537618" lon="11.749231332596283"><ele>1071.0</ele><time>2026-05-03T14:28:24Z</time></trkpt><trkpt lat="43.87763122215765" lon="11.749081310810064"><ele>1069.0</ele><time>2026-05-03T14:28:25Z</time></trkpt><trkpt lat="43.87765494956965" lon="11.748920382281817"><ele>1067.0</ele><time>2026-05-03T14:28:26Z</time></trkpt><trkpt lat="43.877702279595034" lon="11.748790676083992"><ele>1065.0</ele><time>2026-05-03T14:28:27Z</time></trkpt><trkpt lat="43.87777030977571" lon="11.748723156566616"><ele>1063.0</ele><time>2026-05-03T14:28:28Z</time></trkpt><trkpt lat="43.87785341488144" lon="11.748665114340591"><ele>1063.0</ele><time>2026-05-03T14:28:29Z</time></trkpt><trkpt lat="43.87797414861806" lon="11.748684358463274"><ele>1063.0</ele><time>2026-05-03T14:28:30Z</time></trkpt><trkpt lat="43.878094584752716" lon="11.748793498768615"><ele>1063.0</ele><time>2026-05-03T14:28:31Z</time></trkpt><trkpt lat="43.878215712638124" lon="11.748957518513233"><ele>1063.0</ele><time>2026-05-03T14:28:32Z</time></trkpt><trkpt lat="43.878364728716456" lon="11.749108172675287"><ele>1070.3333333333333</ele><time>2026-05-03T14:28:33Z</time></trkpt><trkpt lat="43.87850482121325" lon="11.749235709155133"><ele>1077.6666666666667</ele><time>2026-05-03T14:28:34Z</time></trkpt><trkpt lat="43.87864435634472" lon="11.749304945106779"><ele>1085.0</ele><time>2026-05-03T14:28:35Z</time></trkpt><trkpt lat="43.87879460166904" lon="11.749332457332395"><ele>1086.25</ele><time>2026-05-03T14:28:36Z</time></trkpt><trkpt lat="43.87894148477191" lon="11.749387924650247"><ele>1087.5</ele><time>2026-05-03T14:28:37Z</time></trkpt><trkpt lat="43.87907638383362" lon="11.749421711681101"><ele>1088.75</ele><time>2026-05-03T14:28:38Z</time></trkpt><trkpt lat="43.879197088677905" lon="11.749478654157226"><ele>1090.0</ele><time>2026-05-03T14:28:39Z</time></trkpt><trkpt lat="43.87926949008108" lon="11.749639946385912"><ele>1090.0</ele><time>2026-05-03T14:28:40Z</time></trkpt><trkpt lat="43.879307628808434" lon="11.749834920994584"><ele>1090.0</ele><time>2026-05-03T14:28:41Z</time></trkpt><trkpt lat="43.87933832133635" lon="11.750063104249508"><ele>1090.0</ele><time>2026-05-03T14:28:42Z</time></trkpt><trkpt lat="43.87934344056866" lon="11.750312105168229"><ele>1084.3333333333333</ele><time>2026-05-03T14:28:43Z</time></trkpt><trkpt lat="43.87937183359239" lon="11.750522692943633"><ele>1078.6666666666667</ele><time>2026-05-03T14:28:44Z</time></trkpt><trkpt lat="43.879440616978584" lon="11.750704070978244"><ele>1073.0</ele><time>2026-05-03T14:28:45Z</time></trkpt><trkpt lat="43.879542227143375" lon="11.750879008886635"><ele>1064.6666666666667</ele><time>2026-05-03T14:28:46Z</time></trkpt><trkpt lat="43.87966869615206" lon="11.751076356473375"><ele>1056.3333333333333</ele><time>2026-05-03T14:28:47Z</time></trkpt><trkpt lat="43.8797752728906" lon="11.751308362633571"><ele>1048.0</ele><time>2026-05-03T14:28:48Z</time></trkpt><trkpt lat="43.879844449567464" lon="11.751540226935866"><ele>1048.0</ele><time>2026-05-03T14:28:49Z</time></trkpt><trkpt lat="43.87990514909515" lon="11.75175146973313"><ele>1048.0</ele><time>2026-05-03T14:28:50Z</time></trkpt><trkpt lat="43.8799806597862" lon="11.751936908972688"><ele>1048.0</ele><time>2026-05-03T14:28:51Z</time></trkpt><trkpt lat="43.88006019883023" lon="11.752103612411403"><ele>1039.5</ele><time>2026-05-03T14:28:52Z</time></trkpt><trkpt lat="43.88013945277045" lon="11.752248866061834"><ele>1031.0</ele><time>2026-05-03T14:28:53Z</time></trkpt><trkpt lat="43.88023769767544" lon="11.75235442484069"><ele>1022.5</ele><time>2026-05-03T14:28:54Z</time></trkpt><trkpt lat="43.88035440854795" lon="11.752386762901095"><ele>1014.0</ele><time>2026-05-03T14:28:55Z</time></trkpt><trkpt lat="43.880482726700855" lon="11.752301763246452"><ele>1014.0</ele><time>2026-05-03T14:28:56Z</time></trkpt><trkpt lat="43.88059862110361" lon="11.752192439080634"><ele>1014.0</ele><time>2026-05-03T14:28:57Z</time></trkpt><trkpt lat="43.88071102800449" lon="11.75209443122956"><ele>1014.0</ele><time>2026-05-03T14:28:58Z</time></trkpt><trkpt lat="43.88085594846085" lon="11.752052203868649"><ele>1014.0</ele><time>2026-05-03T14:28:59Z</time></trkpt><trkpt lat="43.88098738317338" lon="11.752084073207312"><ele>1014.3333333333333</ele><time>2026-05-03T14:29:00Z</time></trkpt><trkpt lat="43.88113142300858" lon="11.752134185511002"><ele>1014.6666666666666</ele><time>2026-05-03T14:29:01Z</time></trkpt><trkpt lat="43.881295526084344" lon="11.752188140946613"><ele>1015.0</ele><time>2026-05-03T14:29:02Z</time></trkpt><trkpt lat="43.88144680110115" lon="11.752246124147183"><ele>1015.0</ele><time>2026-05-03T14:29:03Z</time></trkpt><trkpt lat="43.881583782731596" lon="11.752318471286994"><ele>1015.0</ele><time>2026-05-03T14:29:04Z</time></trkpt><trkpt lat="43.88170468848877" lon="11.752395202413107"><ele>1015.0</ele><time>2026-05-03T14:29:05Z</time></trkpt><trkpt lat="43.88181448253094" lon="11.752466728093573"><ele>1015.0</ele><time>2026-05-03T14:29:06Z</time></trkpt><trkpt lat="43.881916298135295" lon="11.752520265792727"><ele>1013.9999999999999</ele><time>2026-05-03T14:29:07Z</time></trkpt><trkpt lat="43.88200446110177" lon="11.75253627479166"><ele>1013.0</ele><time>2026-05-03T14:29:08Z</time></trkpt><trkpt lat="43.882089509237325" lon="11.752505979594075"><ele>1012.0</ele><time>2026-05-03T14:29:09Z</time></trkpt><trkpt lat="43.88216960785666" lon="11.752456579673154"><ele>1011.0</ele><time>2026-05-03T14:29:10Z</time></trkpt><trkpt lat="43.882241979180705" lon="11.752377790686031"><ele>1009.9999999999999</ele><time>2026-05-03T14:29:11Z</time></trkpt><trkpt lat="43.8823272016648" lon="11.752340251551086"><ele>1009.0</ele><time>2026-05-03T14:29:12Z</time></trkpt><trkpt lat="43.88242026897529" lon="11.752321182340154"><ele>1009.0</ele><time>2026-05-03T14:29:13Z</time></trkpt><trkpt lat="43.882522278687524" lon="11.752362302087645"><ele>1009.0000000000001</ele><time>2026-05-03T14:29:14Z</time></trkpt><trkpt lat="43.882617962882954" lon="11.752453243245183"><ele>1009.0000000000001</ele><time>2026-05-03T14:29:15Z</time></trkpt><trkpt lat="43.88268084474848" lon="11.752569424348179"><ele>1009.0</ele><time>2026-05-03T14:29:16Z</time></trkpt><trkpt lat="43.882771255163725" lon="11.752684091437114"><ele>1009.0</ele><time>2026-05-03T14:29:17Z</time></trkpt><trkpt lat="43.88283555642064" lon="11.752792406247671"><ele>1008.0</ele><time>2026-05-03T14:29:18Z</time></trkpt><trkpt lat="43.88293287191937" lon="11.75288010594047"><ele>1007.0</ele><time>2026-05-03T14:29:19Z</time></trkpt><trkpt lat="43.88307779269705" lon="11.752924868461783"><ele>1006.0</ele><time>2026-05-03T14:29:20Z</time></trkpt><trkpt lat="43.883278400931104" lon="11.752941713918078"><ele>998.5</ele><time>2026-05-03T14:29:21Z</time></trkpt><trkpt lat="43.88346710931648" lon="11.752983191470555"><ele>991.0</ele><time>2026-05-03T14:29:22Z</time></trkpt><trkpt lat="43.88357621226404" lon="11.753113487550877"><ele>983.5</ele><time>2026-05-03T14:29:23Z</time></trkpt><trkpt lat="43.88361675648711" lon="11.753236542717172"><ele>976.0</ele><time>2026-05-03T14:29:24Z</time></trkpt><trkpt lat="43.8835921539877" lon="11.75335620555036"><ele>976.0</ele><time>2026-05-03T14:29:25Z</time></trkpt><trkpt lat="43.883521141187444" lon="11.753456693652979"><ele>976.0</ele><time>2026-05-03T14:29:26Z</time></trkpt><trkpt lat="43.88349698792189" lon="11.753590820040811"><ele>976.0</ele><time>2026-05-03T14:29:27Z</time></trkpt><trkpt lat="43.883499379804746" lon="11.753790960377557"><ele>976.0</ele><time>2026-05-03T14:29:28Z</time></trkpt><trkpt lat="43.88353170960893" lon="11.754003931253399"><ele>976.6666666666666</ele><time>2026-05-03T14:29:29Z</time></trkpt><trkpt lat="43.883616149733" lon="11.754216323822686"><ele>977.3333333333333</ele><time>2026-05-03T14:29:30Z</time></trkpt><trkpt lat="43.88375971193361" lon="11.754429931933375"><ele>978.0</ele><time>2026-05-03T14:29:31Z</time></trkpt><trkpt lat="43.8839420796774" lon="11.754626216992401"><ele>978.6666666666667</ele><time>2026-05-03T14:29:32Z</time></trkpt><trkpt lat="43.88410606014201" lon="11.754799181797148"><ele>979.3333333333334</ele><time>2026-05-03T14:29:33Z</time></trkpt><trkpt lat="43.884226907330635" lon="11.754936861697722"><ele>980.0</ele><time>2026-05-03T14:29:34Z</time></trkpt><trkpt lat="43.884261293915614" lon="11.755129655145394"><ele>977.25</ele><time>2026-05-03T14:29:35Z</time></trkpt><trkpt lat="43.8843222682564" lon="11.755300666600936"><ele>974.5</ele><time>2026-05-03T14:29:36Z</time></trkpt><trkpt lat="43.88439344326929" lon="11.75543667945106"><ele>971.75</ele><time>2026-05-03T14:29:37Z</time></trkpt><trkpt lat="43.88449928417437" lon="11.755537891576468"><ele>969.0</ele><time>2026-05-03T14:29:38Z</time></trkpt><trkpt lat="43.88464527517854" lon="11.755608715725382"><ele>969.0</ele><time>2026-05-03T14:29:39Z</time></trkpt><trkpt lat="43.88482161844259" lon="11.755673049020057"><ele>969.0</ele><time>2026-05-03T14:29:40Z</time></trkpt><trkpt lat="43.884959459927806" lon="11.755743496753887"><ele>969.0</ele><time>2026-05-03T14:29:41Z</time></trkpt><trkpt lat="43.8850155790629" lon="11.755863564893014"><ele>969.0</ele><time>2026-05-03T14:29:42Z</time></trkpt><trkpt lat="43.884976790564984" lon="11.755977019941495"><ele>968.5</ele><time>2026-05-03T14:29:43Z</time></trkpt><trkpt lat="43.8849746524006" lon="11.75613023402545"><ele>968.0</ele><time>2026-05-03T14:29:44Z</time></trkpt><trkpt lat="43.884989169825424" lon="11.7563345657787"><ele>967.5</ele><time>2026-05-03T14:29:45Z</time></trkpt><trkpt lat="43.88504913059736" lon="11.756533944307376"><ele>967.0</ele><time>2026-05-03T14:29:46Z</time></trkpt><trkpt lat="43.885139538705545" lon="11.75673037121151"><ele>963.6666666666666</ele><time>2026-05-03T14:29:47Z</time></trkpt><trkpt lat="43.885283986496965" lon="11.7569327895713"><ele>960.3333333333333</ele><time>2026-05-03T14:29:48Z</time></trkpt><trkpt lat="43.88543233333675" lon="11.757127067637452"><ele>957.0</ele><time>2026-05-03T14:29:49Z</time></trkpt><trkpt lat="43.8855547010243" lon="11.757298765594555"><ele>957.0</ele><time>2026-05-03T14:29:50Z</time></trkpt><trkpt lat="43.88564968372289" lon="11.757443573972349"><ele>957.0</ele><time>2026-05-03T14:29:51Z</time></trkpt><trkpt lat="43.88568597256519" lon="11.757557575637055"><ele>957.0</ele><time>2026-05-03T14:29:52Z</time></trkpt><trkpt lat="43.88563685237523" lon="11.757660145203902"><ele>957.0</ele><time>2026-05-03T14:29:53Z</time></trkpt><trkpt lat="43.8855713257518" lon="11.75772323476624"><ele>957.0</ele><time>2026-05-03T14:29:54Z</time></trkpt><trkpt lat="43.88545366961702" lon="11.757682122572183"><ele>957.0</ele><time>2026-05-03T14:29:55Z</time></trkpt><trkpt lat="43.88536666296008" lon="11.7575931750445"><ele>957.0</ele><time>2026-05-03T14:29:56Z</time></trkpt><trkpt lat="43.88531010413867" lon="11.757426273953207"><ele>957.0</ele><time>2026-05-03T14:29:57Z</time></trkpt><trkpt lat="43.88520699955356" lon="11.757268842724137"><ele>957.0</ele><time>2026-05-03T14:29:58Z</time></trkpt><trkpt lat="43.88509347558591" lon="11.757077739906547"><ele>956.25</ele><time>2026-05-03T14:29:59Z</time></trkpt><trkpt lat="43.884991941624406" lon="11.75691218373979"><ele>955.5</ele><time>2026-05-03T14:30:00Z</time></trkpt><trkpt lat="43.884900010697486" lon="11.756768084678368"><ele>954.75</ele><time>2026-05-03T14:30:01Z</time></trkpt><trkpt lat="43.88482039856754" lon="11.756640221122295"><ele>954.0</ele><time>2026-05-03T14:30:02Z</time></trkpt><trkpt lat="43.88474798177349" lon="11.756527996442994"><ele>956.1666666666666</ele><time>2026-05-03T14:30:03Z</time></trkpt><trkpt lat="43.88468703112697" lon="11.756423184977"><ele>958.3333333333333</ele><time>2026-05-03T14:30:04Z</time></trkpt><trkpt lat="43.88463214989371" lon="11.756325866974557"><ele>960.5</ele><time>2026-05-03T14:30:05Z</time></trkpt><trkpt lat="43.884574038389616" lon="11.7562390124806"><ele>962.6666666666666</ele><time>2026-05-03T14:30:06Z</time></trkpt><trkpt lat="43.88450363733373" lon="11.756192496139933"><ele>964.8333333333333</ele><time>2026-05-03T14:30:07Z</time></trkpt><trkpt lat="43.884427741980595" lon="11.756231651941611"><ele>967.0</ele><time>2026-05-03T14:30:08Z</time></trkpt><trkpt lat="43.88436741994461" lon="11.756330573991155"><ele>967.0</ele><time>2026-05-03T14:30:09Z</time></trkpt><trkpt lat="43.884352734260524" lon="11.756472917669244"><ele>967.0</ele><time>2026-05-03T14:30:10Z</time></trkpt><trkpt lat="43.88438080845517" lon="11.756595861972528"><ele>967.0</ele><time>2026-05-03T14:30:11Z</time></trkpt><trkpt lat="43.88449132859234" lon="11.756667228340426"><ele>967.0</ele><time>2026-05-03T14:30:12Z</time></trkpt><trkpt lat="43.88460819276869" lon="11.756758926440238"><ele>962.6666666666666</ele><time>2026-05-03T14:30:13Z</time></trkpt><trkpt lat="43.88474613984527" lon="11.756892547736689"><ele>958.3333333333333</ele><time>2026-05-03T14:30:14Z</time></trkpt><trkpt lat="43.88488820641591" lon="11.757079750273533"><ele>954.0</ele><time>2026-05-03T14:30:15Z</time></trkpt><trkpt lat="43.8850002582626" lon="11.757327683004645"><ele>955.0</ele><time>2026-05-03T14:30:16Z</time></trkpt><trkpt lat="43.88512755154733" lon="11.757590405460093"><ele>956.0</ele><time>2026-05-03T14:30:17Z</time></trkpt><trkpt lat="43.88523922184251" lon="11.757801423702004"><ele>957.0</ele><time>2026-05-03T14:30:18Z</time></trkpt><trkpt lat="43.88531732416769" lon="11.757978636791984"><ele>954.75</ele><time>2026-05-03T14:30:19Z</time></trkpt><trkpt lat="43.88538779520464" lon="11.758152317230456"><ele>952.5</ele><time>2026-05-03T14:30:20Z</time></trkpt><trkpt lat="43.88545104808181" lon="11.758332441490849"><ele>950.25</ele><time>2026-05-03T14:30:21Z</time></trkpt><trkpt lat="43.88551710875004" lon="11.758524725856374"><ele>948.0</ele><time>2026-05-03T14:30:22Z</time></trkpt><trkpt lat="43.885576205145064" lon="11.75870948576183"><ele>948.0</ele><time>2026-05-03T14:30:23Z</time></trkpt><trkpt lat="43.885609642748456" lon="11.75889864639863"><ele>948.0</ele><time>2026-05-03T14:30:24Z</time></trkpt><trkpt lat="43.88556461362613" lon="11.75910122956005"><ele>948.0</ele><time>2026-05-03T14:30:25Z</time></trkpt><trkpt lat="43.885542249476416" lon="11.759342750628429"><ele>948.6666666666667</ele><time>2026-05-03T14:30:26Z</time></trkpt><trkpt lat="43.88556844813615" lon="11.759584701339078"><ele>949.3333333333334</ele><time>2026-05-03T14:30:27Z</time></trkpt><trkpt lat="43.885593793500036" lon="11.759804862710581"><ele>950.0</ele><time>2026-05-03T14:30:28Z</time></trkpt><trkpt lat="43.88561126945479" lon="11.759999423249"><ele>950.0</ele><time>2026-05-03T14:30:29Z</time></trkpt><trkpt lat="43.88555775433879" lon="11.760178745881921"><ele>950.0</ele><time>2026-05-03T14:30:30Z</time></trkpt><trkpt lat="43.88550360459691" lon="11.760380717309754"><ele>950.0</ele><time>2026-05-03T14:30:31Z</time></trkpt><trkpt lat="43.88543956495017" lon="11.760570438976757"><ele>950.0</ele><time>2026-05-03T14:30:32Z</time></trkpt><trkpt lat="43.885326025002385" lon="11.76070329363816"><ele>951.5</ele><time>2026-05-03T14:30:33Z</time></trkpt><trkpt lat="43.88524796402435" lon="11.760853447492792"><ele>953.0</ele><time>2026-05-03T14:30:34Z</time></trkpt><trkpt lat="43.88520363984044" lon="11.761017920310234"><ele>954.5</ele><time>2026-05-03T14:30:35Z</time></trkpt><trkpt lat="43.885199706520154" lon="11.761217730155073"><ele>956.0</ele><time>2026-05-03T14:30:36Z</time></trkpt><trkpt lat="43.88522392308263" lon="11.76141625855516"><ele>952.1999999999999</ele><time>2026-05-03T14:30:37Z</time></trkpt><trkpt lat="43.885241822220245" lon="11.761586888092305"><ele>948.3999999999999</ele><time>2026-05-03T14:30:38Z</time></trkpt><trkpt lat="43.88528626329679" lon="11.761711385426993"><ele>944.6</ele><time>2026-05-03T14:30:39Z</time></trkpt><trkpt lat="43.88535606231645" lon="11.761790398988323"><ele>940.8</ele><time>2026-05-03T14:30:40Z</time></trkpt><trkpt lat="43.885459674846636" lon="11.761815994675775"><ele>937.0</ele><time>2026-05-03T14:30:41Z</time></trkpt><trkpt lat="43.88558817513104" lon="11.761825779457773"><ele>937.0</ele><time>2026-05-03T14:30:42Z</time></trkpt><trkpt lat="43.88574756832221" lon="11.76183520704656"><ele>937.0</ele><time>2026-05-03T14:30:43Z</time></trkpt><trkpt lat="43.88592272840103" lon="11.761872198701782"><ele>937.0</ele><time>2026-05-03T14:30:44Z</time></trkpt><trkpt lat="43.88609625826138" lon="11.761926932702139"><ele>925.6666666666666</ele><time>2026-05-03T14:30:45Z</time></trkpt><trkpt lat="43.88627345020249" lon="11.761957886993697"><ele>914.3333333333333</ele><time>2026-05-03T14:30:46Z</time></trkpt><trkpt lat="43.886452428757806" lon="11.761954638727447"><ele>903.0</ele><time>2026-05-03T14:30:47Z</time></trkpt><trkpt lat="43.88662157545322" lon="11.761923568507758"><ele>909.5</ele><time>2026-05-03T14:30:48Z</time></trkpt><trkpt lat="43.88677610443914" lon="11.76190331691472"><ele>916.0</ele><time>2026-05-03T14:30:49Z</time></trkpt><trkpt lat="43.88691003543009" lon="11.761898668116775"><ele>922.5</ele><time>2026-05-03T14:30:50Z</time></trkpt><trkpt lat="43.887035863084684" lon="11.761901776978485"><ele>929.0</ele><time>2026-05-03T14:30:51Z</time></trkpt><trkpt lat="43.88714351658682" lon="11.761967260479256"><ele>929.0</ele><time>2026-05-03T14:30:52Z</time></trkpt><trkpt lat="43.88720389409319" lon="11.762120657002974"><ele>929.0</ele><time>2026-05-03T14:30:53Z</time></trkpt><trkpt lat="43.88722999975953" lon="11.762307981065666"><ele>929.0</ele><time>2026-05-03T14:30:54Z</time></trkpt><trkpt lat="43.88726946569793" lon="11.762548305348083"><ele>929.0</ele><time>2026-05-03T14:30:55Z</time></trkpt><trkpt lat="43.887317643861" lon="11.762809756721218"><ele>923.75</ele><time>2026-05-03T14:30:56Z</time></trkpt><trkpt lat="43.887349214852506" lon="11.763033260689035"><ele>918.5</ele><time>2026-05-03T14:30:57Z</time></trkpt><trkpt lat="43.887384303824525" lon="11.763219707256722"><ele>913.25</ele><time>2026-05-03T14:30:58Z</time></trkpt><trkpt lat="43.88743927111343" lon="11.763378097034"><ele>908.0</ele><time>2026-05-03T14:30:59Z</time></trkpt><trkpt lat="43.88753146895828" lon="11.763529014235862"><ele>903.3333333333334</ele><time>2026-05-03T14:31:00Z</time></trkpt><trkpt lat="43.8876542277414" lon="11.763678827113788"><ele>898.6666666666667</ele><time>2026-05-03T14:31:01Z</time></trkpt><trkpt lat="43.8877690764831" lon="11.763839975325943"><ele>894.0</ele><time>2026-05-03T14:31:02Z</time></trkpt><trkpt lat="43.88785381048386" lon="11.763969066186972"><ele>894.0</ele><time>2026-05-03T14:31:03Z</time></trkpt><trkpt lat="43.88792653620465" lon="11.764049245074947"><ele>894.0</ele><time>2026-05-03T14:31:04Z</time></trkpt><trkpt lat="43.88803054168093" lon="11.764068678306526"><ele>894.0</ele><time>2026-05-03T14:31:05Z</time></trkpt><trkpt lat="43.88816563943998" lon="11.76403836873475"><ele>894.0</ele><time>2026-05-03T14:31:06Z</time></trkpt><trkpt lat="43.88833457445234" lon="11.763937649227142"><ele>899.0</ele><time>2026-05-03T14:31:07Z</time></trkpt><trkpt lat="43.88851799111864" lon="11.763823465578088"><ele>904.0</ele><time>2026-05-03T14:31:08Z</time></trkpt><trkpt lat="43.888679147838545" lon="11.763767840996495"><ele>909.0</ele><time>2026-05-03T14:31:09Z</time></trkpt><trkpt lat="43.88876523400405" lon="11.763730331230919"><ele>909.0</ele><time>2026-05-03T14:31:10Z</time></trkpt><trkpt lat="43.888851324936034" lon="11.763755972328713"><ele>909.0</ele><time>2026-05-03T14:31:11Z</time></trkpt><trkpt lat="43.8889174712534" lon="11.763865364420752"><ele>909.0</ele><time>2026-05-03T14:31:12Z</time></trkpt><trkpt lat="43.8889144168698" lon="11.76403246776513"><ele>909.0</ele><time>2026-05-03T14:31:13Z</time></trkpt><trkpt lat="43.88892130868717" lon="11.76422957814844"><ele>905.6666666666667</ele><time>2026-05-03T14:31:14Z</time></trkpt><trkpt lat="43.88888023085918" lon="11.764466209457316"><ele>902.3333333333334</ele><time>2026-05-03T14:31:15Z</time></trkpt><trkpt lat="43.88885680915645" lon="11.76469692911731"><ele>899.0</ele><time>2026-05-03T14:31:16Z</time></trkpt><trkpt lat="43.888853972811184" lon="11.764889236877925"><ele>899.0</ele><time>2026-05-03T14:31:17Z</time></trkpt><trkpt lat="43.88871752446721" lon="11.765063860489876"><ele>899.0</ele><time>2026-05-03T14:31:18Z</time></trkpt><trkpt lat="43.888702977214045" lon="11.765256970403795"><ele>899.0</ele><time>2026-05-03T14:31:19Z</time></trkpt><trkpt lat="43.88870281657144" lon="11.76546659039385"><ele>895.75</ele><time>2026-05-03T14:31:20Z</time></trkpt><trkpt lat="43.888725632436554" lon="11.765667307062495"><ele>892.5</ele><time>2026-05-03T14:31:21Z</time></trkpt><trkpt lat="43.88873738936733" lon="11.765847504326151"><ele>889.25</ele><time>2026-05-03T14:31:22Z</time></trkpt><trkpt lat="43.88874944378933" lon="11.766016402851315"><ele>886.0</ele><time>2026-05-03T14:31:23Z</time></trkpt><trkpt lat="43.88878324296255" lon="11.766168842579503"><ele>882.0</ele><time>2026-05-03T14:31:24Z</time></trkpt><trkpt lat="43.888853463729454" lon="11.766300282065137"><ele>877.9999999999999</ele><time>2026-05-03T14:31:25Z</time></trkpt><trkpt lat="43.88894264915251" lon="11.766383204676863"><ele>873.9999999999999</ele><time>2026-05-03T14:31:26Z</time></trkpt><trkpt lat="43.889035109064515" lon="11.76642752775191"><ele>870.0</ele><time>2026-05-03T14:31:27Z</time></trkpt><trkpt lat="43.88913149016645" lon="11.766440193798067"><ele>866.0</ele><time>2026-05-03T14:31:28Z</time></trkpt><trkpt lat="43.88922887717587" lon="11.766408878942856"><ele>867.25</ele><time>2026-05-03T14:31:29Z</time></trkpt><trkpt lat="43.88932339323336" lon="11.766337339999197"><ele>868.5</ele><time>2026-05-03T14:31:30Z</time></trkpt><trkpt lat="43.8894118107891" lon="11.76622190043889"><ele>869.75</ele><time>2026-05-03T14:31:31Z</time></trkpt><trkpt lat="43.88950648472464" lon="11.76606610259613"><ele>871.0</ele><time>2026-05-03T14:31:32Z</time></trkpt><trkpt lat="43.88961051390201" lon="11.765947343025937"><ele>871.0</ele><time>2026-05-03T14:31:33Z</time></trkpt><trkpt lat="43.88972367675397" lon="11.765903258418403"><ele>871.0</ele><time>2026-05-03T14:31:34Z</time></trkpt><trkpt lat="43.88982922570273" lon="11.765930581460124"><ele>871.0</ele><time>2026-05-03T14:31:35Z</time></trkpt><trkpt lat="43.88991210513343" lon="11.766020539940167"><ele>871.0</ele><time>2026-05-03T14:31:36Z</time></trkpt><trkpt lat="43.889963110659856" lon="11.766181353800862"><ele>871.0</ele><time>2026-05-03T14:31:37Z</time></trkpt><trkpt lat="43.890046965470916" lon="11.766359983417452"><ele>871.0</ele><time>2026-05-03T14:31:38Z</time></trkpt><trkpt lat="43.89009241341777" lon="11.766553141414983"><ele>871.0</ele><time>2026-05-03T14:31:39Z</time></trkpt><trkpt lat="43.890066940134815" lon="11.766712399084959"><ele>871.0</ele><time>2026-05-03T14:31:40Z</time></trkpt><trkpt lat="43.89000817485619" lon="11.766831145861465"><ele>869.5</ele><time>2026-05-03T14:31:41Z</time></trkpt><trkpt lat="43.889917050351784" lon="11.766950133048534"><ele>868.0</ele><time>2026-05-03T14:31:42Z</time></trkpt><trkpt lat="43.88984157156074" lon="11.767083833463573"><ele>866.5</ele><time>2026-05-03T14:31:43Z</time></trkpt><trkpt lat="43.88979972718144" lon="11.767231111770379"><ele>865.0</ele><time>2026-05-03T14:31:44Z</time></trkpt><trkpt lat="43.88980238007594" lon="11.767419339648251"><ele>865.0</ele><time>2026-05-03T14:31:45Z</time></trkpt><trkpt lat="43.88984950417744" lon="11.767606952931226"><ele>865.0</ele><time>2026-05-03T14:31:46Z</time></trkpt><trkpt lat="43.88994825154196" lon="11.767786704807328"><ele>865.0</ele><time>2026-05-03T14:31:47Z</time></trkpt><trkpt lat="43.89006545374063" lon="11.767950328023337"><ele>873.5</ele><time>2026-05-03T14:31:48Z</time></trkpt><trkpt lat="43.89016721704038" lon="11.768093340384118"><ele>882.0</ele><time>2026-05-03T14:31:49Z</time></trkpt><trkpt lat="43.89023905187509" lon="11.768237531688486"><ele>890.5</ele><time>2026-05-03T14:31:50Z</time></trkpt><trkpt lat="43.89024966034052" lon="11.768392490462759"><ele>899.0</ele><time>2026-05-03T14:31:51Z</time></trkpt><trkpt lat="43.89022282640811" lon="11.768525577067763"><ele>900.0</ele><time>2026-05-03T14:31:52Z</time></trkpt><trkpt lat="43.890170233556034" lon="11.768664193833398"><ele>901.0</ele><time>2026-05-03T14:31:53Z</time></trkpt><trkpt lat="43.89004685937631" lon="11.768717509497403"><ele>902.0</ele><time>2026-05-03T14:31:54Z</time></trkpt><trkpt lat="43.88990925813383" lon="11.768765604167351"><ele>903.0</ele><time>2026-05-03T14:31:55Z</time></trkpt><trkpt lat="43.88978393570014" lon="11.768833303427678"><ele>894.25</ele><time>2026-05-03T14:31:56Z</time></trkpt><trkpt lat="43.889689101638744" lon="11.76890379635775"><ele>885.5</ele><time>2026-05-03T14:31:57Z</time></trkpt><trkpt lat="43.8896313953512" lon="11.769043966040288"><ele>876.75</ele><time>2026-05-03T14:31:58Z</time></trkpt><trkpt lat="43.88961747928198" lon="11.769228874811901"><ele>868.0</ele><time>2026-05-03T14:31:59Z</time></trkpt><trkpt lat="43.88965847747362" lon="11.769426638596492"><ele>868.0</ele><time>2026-05-03T14:32:00Z</time></trkpt><trkpt lat="43.889701749114394" lon="11.769611856200726"><ele>868.0</ele><time>2026-05-03T14:32:01Z</time></trkpt><trkpt lat="43.88964829171636" lon="11.769762667728099"><ele>868.0</ele><time>2026-05-03T14:32:02Z</time></trkpt><trkpt lat="43.88955586512482" lon="11.76984308898606"><ele>868.0</ele><time>2026-05-03T14:32:03Z</time></trkpt><trkpt lat="43.88942900392193" lon="11.769876810420797"><ele>868.0</ele><time>2026-05-03T14:32:04Z</time></trkpt><trkpt lat="43.889284508714226" lon="11.769890845829346"><ele>868.0</ele><time>2026-05-03T14:32:05Z</time></trkpt><trkpt lat="43.88916097271691" lon="11.769917834115923"><ele>868.0</ele><time>2026-05-03T14:32:06Z</time></trkpt><trkpt lat="43.88904960652131" lon="11.770032885075636"><ele>868.0</ele><time>2026-05-03T14:32:07Z</time></trkpt><trkpt lat="43.88895266353473" lon="11.770212116154958"><ele>862.5</ele><time>2026-05-03T14:32:08Z</time></trkpt><trkpt lat="43.888845671730564" lon="11.770401013941475"><ele>857.0</ele><time>2026-05-03T14:32:09Z</time></trkpt><trkpt lat="43.88874136862842" lon="11.770555699093672"><ele>851.5</ele><time>2026-05-03T14:32:10Z</time></trkpt><trkpt lat="43.888672918487295" lon="11.770683632947337"><ele>846.0</ele><time>2026-05-03T14:32:11Z</time></trkpt><trkpt lat="43.88865641388047" lon="11.770836791752961"><ele>846.0</ele><time>2026-05-03T14:32:12Z</time></trkpt><trkpt lat="43.88870130326506" lon="11.77100594885687"><ele>846.0</ele><time>2026-05-03T14:32:13Z</time></trkpt><trkpt lat="43.88880253718327" lon="11.771152891824807"><ele>846.0</ele><time>2026-05-03T14:32:14Z</time></trkpt><trkpt lat="43.88891136460866" lon="11.771288644771461"><ele>846.0</ele><time>2026-05-03T14:32:15Z</time></trkpt><trkpt lat="43.88897772863065" lon="11.771462846585102"><ele>843.6666666666667</ele><time>2026-05-03T14:32:16Z</time></trkpt><trkpt lat="43.88896795200582" lon="11.771667547449496"><ele>841.3333333333334</ele><time>2026-05-03T14:32:17Z</time></trkpt><trkpt lat="43.888926150460904" lon="11.771876110569686"><ele>839.0</ele><time>2026-05-03T14:32:18Z</time></trkpt><trkpt lat="43.88886654413244" lon="11.772113542659817"><ele>834.0</ele><time>2026-05-03T14:32:19Z</time></trkpt><trkpt lat="43.8887961306581" lon="11.772326956431034"><ele>829.0</ele><time>2026-05-03T14:32:20Z</time></trkpt><trkpt lat="43.8887516475887" lon="11.7725106175707"><ele>824.0</ele><time>2026-05-03T14:32:21Z</time></trkpt><trkpt lat="43.888762874494375" lon="11.772675122072567"><ele>819.0</ele><time>2026-05-03T14:32:22Z</time></trkpt><trkpt lat="43.88882712502639" lon="11.772831325266315"><ele>812.5</ele><time>2026-05-03T14:32:23Z</time></trkpt><trkpt lat="43.88894491629097" lon="11.772937560839683"><ele>806.0</ele><time>2026-05-03T14:32:24Z</time></trkpt><trkpt lat="43.889089528393846" lon="11.772956983595025"><ele>799.5</ele><time>2026-05-03T14:32:25Z</time></trkpt><trkpt lat="43.88923524673223" lon="11.77290684690704"><ele>793.0</ele><time>2026-05-03T14:32:26Z</time></trkpt><trkpt lat="43.88936523610261" lon="11.772797598026413"><ele>799.0</ele><time>2026-05-03T14:32:27Z</time></trkpt><trkpt lat="43.88948687961514" lon="11.772629674467598"><ele>805.0</ele><time>2026-05-03T14:32:28Z</time></trkpt><trkpt lat="43.889617003837046" lon="11.772453871755719"><ele>811.0</ele><time>2026-05-03T14:32:29Z</time></trkpt><trkpt lat="43.88974061134608" lon="11.772321497209653"><ele>811.0</ele><time>2026-05-03T14:32:30Z</time></trkpt><trkpt lat="43.88984395747563" lon="11.77223444794104"><ele>811.0</ele><time>2026-05-03T14:32:31Z</time></trkpt><trkpt lat="43.88993599055963" lon="11.77224818406258"><ele>811.0</ele><time>2026-05-03T14:32:32Z</time></trkpt><trkpt lat="43.89000116315313" lon="11.7722671910811"><ele>811.0</ele><time>2026-05-03T14:32:33Z</time></trkpt><trkpt lat="43.89003699740344" lon="11.77239081550212"><ele>811.0</ele><time>2026-05-03T14:32:34Z</time></trkpt><trkpt lat="43.89005581523197" lon="11.772519071817493"><ele>802.75</ele><time>2026-05-03T14:32:35Z</time></trkpt><trkpt lat="43.89007471729419" lon="11.772694695688118"><ele>794.5</ele><time>2026-05-03T14:32:36Z</time></trkpt><trkpt lat="43.89012722005855" lon="11.772860505703232"><ele>786.25</ele><time>2026-05-03T14:32:37Z</time></trkpt><trkpt lat="43.89021643535233" lon="11.77296665296045"><ele>778.0</ele><time>2026-05-03T14:32:38Z</time></trkpt><trkpt lat="43.89034079568515" lon="11.773003280698214"><ele>776.0</ele><time>2026-05-03T14:32:39Z</time></trkpt><trkpt lat="43.890487053158346" lon="11.772947005724026"><ele>774.0</ele><time>2026-05-03T14:32:40Z</time></trkpt><trkpt lat="43.89063472514877" lon="11.772847870066444"><ele>772.0</ele><time>2026-05-03T14:32:41Z</time></trkpt><trkpt lat="43.890793688434506" lon="11.77272272043944"><ele>786.6666666666666</ele><time>2026-05-03T14:32:42Z</time></trkpt><trkpt lat="43.890947138787375" lon="11.77261882826472"><ele>801.3333333333333</ele><time>2026-05-03T14:32:43Z</time></trkpt><trkpt lat="43.89109211230351" lon="11.772532740221491"><ele>816.0</ele><time>2026-05-03T14:32:44Z</time></trkpt><trkpt lat="43.89121535824873" lon="11.772456128981831"><ele>816.0</ele><time>2026-05-03T14:32:45Z</time></trkpt><trkpt lat="43.89131895424214" lon="11.772450758211686"><ele>816.0</ele><time>2026-05-03T14:32:46Z</time></trkpt><trkpt lat="43.891414696292145" lon="11.772494189428247"><ele>816.0</ele><time>2026-05-03T14:32:47Z</time></trkpt><trkpt lat="43.89149547790978" lon="11.772600804295147"><ele>816.0</ele><time>2026-05-03T14:32:48Z</time></trkpt><trkpt lat="43.891554577580145" lon="11.772754318828994"><ele>816.0</ele><time>2026-05-03T14:32:49Z</time></trkpt><trkpt lat="43.89157923684896" lon="11.772967576023033"><ele>810.6666666666667</ele><time>2026-05-03T14:32:50Z</time></trkpt><trkpt lat="43.89163619761953" lon="11.773169972597044"><ele>805.3333333333334</ele><time>2026-05-03T14:32:51Z</time></trkpt><trkpt lat="43.89170248012231" lon="11.77339131768911"><ele>800.0</ele><time>2026-05-03T14:32:52Z</time></trkpt><trkpt lat="43.891778198505236" lon="11.773608442324738"><ele>800.0</ele><time>2026-05-03T14:32:53Z</time></trkpt><trkpt lat="43.89184762241166" lon="11.773807882191596"><ele>800.0</ele><time>2026-05-03T14:32:54Z</time></trkpt><trkpt lat="43.89191015334078" lon="11.773993533693304"><ele>800.0</ele><time>2026-05-03T14:32:55Z</time></trkpt><trkpt lat="43.89198406612498" lon="11.774160841506768"><ele>800.0</ele><time>2026-05-03T14:32:56Z</time></trkpt><trkpt lat="43.892084463114195" lon="11.774286421677038"><ele>790.0</ele><time>2026-05-03T14:32:57Z</time></trkpt><trkpt lat="43.89221813189354" lon="11.774390831971767"><ele>780.0</ele><time>2026-05-03T14:32:58Z</time></trkpt><trkpt lat="43.89237181922603" lon="11.77446862813421"><ele>770.0</ele><time>2026-05-03T14:32:59Z</time></trkpt><trkpt lat="43.89251193994231" lon="11.77456149016737"><ele>772.5</ele><time>2026-05-03T14:33:00Z</time></trkpt><trkpt lat="43.89263404381753" lon="11.77465323011546"><ele>775.0</ele><time>2026-05-03T14:33:01Z</time></trkpt><trkpt lat="43.89273976593568" lon="11.774755453367987"><ele>777.5</ele><time>2026-05-03T14:33:02Z</time></trkpt><trkpt lat="43.89281706835786" lon="11.774893921129118"><ele>780.0</ele><time>2026-05-03T14:33:03Z</time></trkpt><trkpt lat="43.892835614323" lon="11.775085297648939"><ele>773.0</ele><time>2026-05-03T14:33:04Z</time></trkpt><trkpt lat="43.89287988041062" lon="11.775287846247268"><ele>766.0</ele><time>2026-05-03T14:33:05Z</time></trkpt><trkpt lat="43.8929296756162" lon="11.775465259718038"><ele>759.0</ele><time>2026-05-03T14:33:06Z</time></trkpt><trkpt lat="43.89303352652348" lon="11.77558921691436"><ele>752.0</ele><time>2026-05-03T14:33:07Z</time></trkpt><trkpt lat="43.89316799096812" lon="11.775650882982832"><ele>752.0</ele><time>2026-05-03T14:33:08Z</time></trkpt><trkpt lat="43.893290154439605" lon="11.775640132921232"><ele>752.0</ele><time>2026-05-03T14:33:09Z</time></trkpt><trkpt lat="43.89338064469087" lon="11.775550108513247"><ele>752.0</ele><time>2026-05-03T14:33:10Z</time></trkpt><trkpt lat="43.89343116561693" lon="11.77536182017622"><ele>752.0</ele><time>2026-05-03T14:33:11Z</time></trkpt><trkpt lat="43.893469264272746" lon="11.775119402040357"><ele>746.0</ele><time>2026-05-03T14:33:12Z</time></trkpt><trkpt lat="43.893531635368554" lon="11.774832169307613"><ele>740.0</ele><time>2026-05-03T14:33:13Z</time></trkpt><trkpt lat="43.89358352350619" lon="11.77453424000153"><ele>734.0</ele><time>2026-05-03T14:33:14Z</time></trkpt><trkpt lat="43.89364231175967" lon="11.774303665264837"><ele>734.0</ele><time>2026-05-03T14:33:15Z</time></trkpt><trkpt lat="43.893669009822936" lon="11.77412104054812"><ele>734.0</ele><time>2026-05-03T14:33:16Z</time></trkpt><trkpt lat="43.89366276784415" lon="11.773976411550905"><ele>734.0</ele><time>2026-05-03T14:33:17Z</time></trkpt><trkpt lat="43.8936245348009" lon="11.773820222632683"><ele>734.0</ele><time>2026-05-03T14:33:18Z</time></trkpt><trkpt lat="43.893566311046" lon="11.773655351688909"><ele>738.75</ele><time>2026-05-03T14:33:19Z</time></trkpt><trkpt lat="43.89356116819001" lon="11.77350351893521"><ele>743.5</ele><time>2026-05-03T14:33:20Z</time></trkpt><trkpt lat="43.89359403229592" lon="11.773369865511643"><ele>748.25</ele><time>2026-05-03T14:33:21Z</time></trkpt><trkpt lat="43.89369982751953" lon="11.77327678869265"><ele>753.0</ele><time>2026-05-03T14:33:22Z</time></trkpt><trkpt lat="43.893829307225396" lon="11.77317060005793"><ele>753.0</ele><time>2026-05-03T14:33:23Z</time></trkpt><trkpt lat="43.893938621461345" lon="11.773020662236027"><ele>753.0</ele><time>2026-05-03T14:33:24Z</time></trkpt><trkpt lat="43.894000332830245" lon="11.772864278604576"><ele>753.0</ele><time>2026-05-03T14:33:25Z</time></trkpt><trkpt lat="43.89403468473827" lon="11.772707498575668"><ele>753.0</ele><time>2026-05-03T14:33:26Z</time></trkpt><trkpt lat="43.8941009285611" lon="11.772624061124489"><ele>757.75</ele><time>2026-05-03T14:33:27Z</time></trkpt><trkpt lat="43.894200919370334" lon="11.77263776285149"><ele>762.5</ele><time>2026-05-03T14:33:28Z</time></trkpt><trkpt lat="43.894296238003825" lon="11.77272851574905"><ele>767.25</ele><time>2026-05-03T14:33:29Z</time></trkpt><trkpt lat="43.894339890343126" lon="11.772896583712171"><ele>772.0</ele><time>2026-05-03T14:33:30Z</time></trkpt><trkpt lat="43.89437715413045" lon="11.773112214317221"><ele>776.0</ele><time>2026-05-03T14:33:31Z</time></trkpt><trkpt lat="43.89439274211627" lon="11.773379952397354"><ele>780.0</ele><time>2026-05-03T14:33:32Z</time></trkpt><trkpt lat="43.89441990799387" lon="11.773608377614249"><ele>784.0</ele><time>2026-05-03T14:33:33Z</time></trkpt><trkpt lat="43.89445810357428" lon="11.773774859778324"><ele>776.75</ele><time>2026-05-03T14:33:34Z</time></trkpt><trkpt lat="43.89453562924953" lon="11.77389163483154"><ele>769.5</ele><time>2026-05-03T14:33:35Z</time></trkpt><trkpt lat="43.89466076657718" lon="11.773941406964882"><ele>762.25</ele><time>2026-05-03T14:33:36Z</time></trkpt><trkpt lat="43.894788093746726" lon="11.773960330231972"><ele>755.0</ele><time>2026-05-03T14:33:37Z</time></trkpt><trkpt lat="43.89490664787061" lon="11.773980226857713"><ele>755.0</ele><time>2026-05-03T14:33:38Z</time></trkpt><trkpt lat="43.894966016930766" lon="11.774117294292347"><ele>755.0</ele><time>2026-05-03T14:33:39Z</time></trkpt><trkpt lat="43.89500021402979" lon="11.77427760282545"><ele>755.0</ele><time>2026-05-03T14:33:40Z</time></trkpt><trkpt lat="43.89499532078798" lon="11.774475219396702"><ele>755.0</ele><time>2026-05-03T14:33:41Z</time></trkpt><trkpt lat="43.89497621524443" lon="11.77469640878886"><ele>747.3333333333333</ele><time>2026-05-03T14:33:42Z</time></trkpt><trkpt lat="43.89501388661291" lon="11.774962099691827"><ele>739.6666666666666</ele><time>2026-05-03T14:33:43Z</time></trkpt><trkpt lat="43.89508683472486" lon="11.775247902758114"><ele>732.0</ele><time>2026-05-03T14:33:44Z</time></trkpt><trkpt lat="43.895141393976395" lon="11.775441942423047"><ele>727.2</ele><time>2026-05-03T14:33:45Z</time></trkpt><trkpt lat="43.895162271407855" lon="11.775578826791145"><ele>722.4000000000001</ele><time>2026-05-03T14:33:46Z</time></trkpt><trkpt lat="43.895211376141" lon="11.775685795767915"><ele>717.5999999999999</ele><time>2026-05-03T14:33:47Z</time></trkpt><trkpt lat="43.89530451692881" lon="11.775742314214778"><ele>712.8</ele><time>2026-05-03T14:33:48Z</time></trkpt><trkpt lat="43.89541874824067" lon="11.775739703241511"><ele>708.0</ele><time>2026-05-03T14:33:49Z</time></trkpt><trkpt lat="43.89552576514509" lon="11.775638587492663"><ele>708.0</ele><time>2026-05-03T14:33:50Z</time></trkpt><trkpt lat="43.895636367333495" lon="11.775470203196011"><ele>708.0</ele><time>2026-05-03T14:33:51Z</time></trkpt><trkpt lat="43.895774074026626" lon="11.775257742297606"><ele>708.0</ele><time>2026-05-03T14:33:52Z</time></trkpt><trkpt lat="43.895895317764094" lon="11.775099442400771"><ele>714.75</ele><time>2026-05-03T14:33:53Z</time></trkpt><trkpt lat="43.896008688104686" lon="11.774966806445006"><ele>721.5</ele><time>2026-05-03T14:33:54Z</time></trkpt><trkpt lat="43.896098720369274" lon="11.774877992373515"><ele>728.25</ele><time>2026-05-03T14:33:55Z</time></trkpt><trkpt lat="43.89620003411199" lon="11.774798003886787"><ele>735.0</ele><time>2026-05-03T14:33:56Z</time></trkpt><trkpt lat="43.89630934831337" lon="11.774776043108739"><ele>735.0</ele><time>2026-05-03T14:33:57Z</time></trkpt><trkpt lat="43.89642311919231" lon="11.774858474707397"><ele>735.0</ele><time>2026-05-03T14:33:58Z</time></trkpt><trkpt lat="43.896585489338804" lon="11.774974442870214"><ele>735.0</ele><time>2026-05-03T14:33:59Z</time></trkpt><trkpt lat="43.89672974263418" lon="11.775070410615184"><ele>731.75</ele><time>2026-05-03T14:34:00Z</time></trkpt><trkpt lat="43.89682117972794" lon="11.775185747717012"><ele>728.5</ele><time>2026-05-03T14:34:01Z</time></trkpt><trkpt lat="43.896880205543326" lon="11.775329897318406"><ele>725.25</ele><time>2026-05-03T14:34:02Z</time></trkpt><trkpt lat="43.896900698595076" lon="11.775522030883375"><ele>722.0</ele><time>2026-05-03T14:34:03Z</time></trkpt><trkpt lat="43.89695821214331" lon="11.77571010160805"><ele>722.0</ele><time>2026-05-03T14:34:04Z</time></trkpt><trkpt lat="43.89705593707929" lon="11.775828281691265"><ele>722.0</ele><time>2026-05-03T14:34:05Z</time></trkpt><trkpt lat="43.89719204095895" lon="11.775887918957872"><ele>722.0</ele><time>2026-05-03T14:34:06Z</time></trkpt><trkpt lat="43.89736243847187" lon="11.7758993945046"><ele>722.0</ele><time>2026-05-03T14:34:07Z</time></trkpt><trkpt lat="43.897541598289116" lon="11.775908720926772"><ele>720.0</ele><time>2026-05-03T14:34:08Z</time></trkpt><trkpt lat="43.89768935119577" lon="11.775981426297227"><ele>718.0</ele><time>2026-05-03T14:34:09Z</time></trkpt><trkpt lat="43.8978068582472" lon="11.776091500569015"><ele>716.0</ele><time>2026-05-03T14:34:10Z</time></trkpt><trkpt lat="43.89794647856603" lon="11.77624136954546"><ele>716.0</ele><time>2026-05-03T14:34:11Z</time></trkpt><trkpt lat="43.898128333231995" lon="11.776412792423669"><ele>716.0</ele><time>2026-05-03T14:34:12Z</time></trkpt><trkpt lat="43.898304715131886" lon="11.776631849553617"><ele>714.0</ele><time>2026-05-03T14:34:13Z</time></trkpt><trkpt lat="43.898490747268816" lon="11.776836019122493"><ele>712.0</ele><time>2026-05-03T14:34:14Z</time></trkpt><trkpt lat="43.89867158168866" lon="11.777007699813748"><ele>712.0</ele><time>2026-05-03T14:34:15Z</time></trkpt><trkpt lat="43.89879783680541" lon="11.77719785152894"><ele>712.0</ele><time>2026-05-03T14:34:16Z</time></trkpt><trkpt lat="43.89887506863066" lon="11.777358611263033"><ele>712.0</ele><time>2026-05-03T14:34:17Z</time></trkpt><trkpt lat="43.898946855381574" lon="11.77748982104211"><ele>712.0</ele><time>2026-05-03T14:34:18Z</time></trkpt><trkpt lat="43.899052284740804" lon="11.77758806399048"><ele>712.0</ele><time>2026-05-03T14:34:19Z</time></trkpt><trkpt lat="43.899192131760415" lon="11.777642771379009"><ele>712.0</ele><time>2026-05-03T14:34:20Z</time></trkpt><trkpt lat="43.89936434169398" lon="11.777678929151943"><ele>712.0</ele><time>2026-05-03T14:34:21Z</time></trkpt><trkpt lat="43.89949276934861" lon="11.777771443578477"><ele>709.5</ele><time>2026-05-03T14:34:22Z</time></trkpt><trkpt lat="43.89957536200733" lon="11.77788631800684"><ele>707.0</ele><time>2026-05-03T14:34:23Z</time></trkpt><trkpt lat="43.899612891013085" lon="11.778049151416019"><ele>704.5</ele><time>2026-05-03T14:34:24Z</time></trkpt><trkpt lat="43.89968238715734" lon="11.778213785098595"><ele>702.0</ele><time>2026-05-03T14:34:25Z</time></trkpt><trkpt lat="43.89974701582325" lon="11.778370490513273"><ele>702.0</ele><time>2026-05-03T14:34:26Z</time></trkpt><trkpt lat="43.89989228616526" lon="11.778488957849515"><ele>702.0</ele><time>2026-05-03T14:34:27Z</time></trkpt><trkpt lat="43.90002716737943" lon="11.778617148286486"><ele>702.0</ele><time>2026-05-03T14:34:28Z</time></trkpt><trkpt lat="43.900110537016246" lon="11.778805609105694"><ele>694.5</ele><time>2026-05-03T14:34:29Z</time></trkpt><trkpt lat="43.90020969568167" lon="11.778991660903928"><ele>687.0</ele><time>2026-05-03T14:34:30Z</time></trkpt><trkpt lat="43.90028665306158" lon="11.779146706762353"><ele>679.5</ele><time>2026-05-03T14:34:31Z</time></trkpt><trkpt lat="43.90037211396765" lon="11.779260116751182"><ele>672.0</ele><time>2026-05-03T14:34:32Z</time></trkpt><trkpt lat="43.90048200846965" lon="11.779308722714944"><ele>672.0</ele><time>2026-05-03T14:34:33Z</time></trkpt><trkpt lat="43.90061364634708" lon="11.77928152592838"><ele>672.0</ele><time>2026-05-03T14:34:34Z</time></trkpt><trkpt lat="43.90077045571418" lon="11.779203027007707"><ele>672.0</ele><time>2026-05-03T14:34:35Z</time></trkpt><trkpt lat="43.900947063308976" lon="11.779114725764384"><ele>672.6666666666666</ele><time>2026-05-03T14:34:36Z</time></trkpt><trkpt lat="43.90112705653051" lon="11.779070994638172"><ele>673.3333333333333</ele><time>2026-05-03T14:34:37Z</time></trkpt><trkpt lat="43.9012765381411" lon="11.778999400841364"><ele>674.0</ele><time>2026-05-03T14:34:38Z</time></trkpt><trkpt lat="43.90141093994478" lon="11.778963821671688"><ele>674.0</ele><time>2026-05-03T14:34:39Z</time></trkpt><trkpt lat="43.90154153497913" lon="11.778925292034575"><ele>674.0</ele><time>2026-05-03T14:34:40Z</time></trkpt><trkpt lat="43.901660571743875" lon="11.778920859007766"><ele>674.0</ele><time>2026-05-03T14:34:41Z</time></trkpt><trkpt lat="43.901752912825785" lon="11.77902707502237"><ele>674.0</ele><time>2026-05-03T14:34:42Z</time></trkpt><trkpt lat="43.90183217947937" lon="11.779171614068515"><ele>679.6666666666666</ele><time>2026-05-03T14:34:43Z</time></trkpt><trkpt lat="43.90186415097527" lon="11.779397014922864"><ele>685.3333333333334</ele><time>2026-05-03T14:34:44Z</time></trkpt><trkpt lat="43.901920272704004" lon="11.779656015560532"><ele>691.0</ele><time>2026-05-03T14:34:45Z</time></trkpt><trkpt lat="43.90196297678003" lon="11.779915091421678"><ele>691.0</ele><time>2026-05-03T14:34:46Z</time></trkpt><trkpt lat="43.902030147874996" lon="11.780138006835548"><ele>691.0</ele><time>2026-05-03T14:34:47Z</time></trkpt><trkpt lat="43.90211842196501" lon="11.780321804667711"><ele>691.0</ele><time>2026-05-03T14:34:48Z</time></trkpt><trkpt lat="43.90221408834211" lon="11.780468963041704"><ele>687.0</ele><time>2026-05-03T14:34:49Z</time></trkpt><trkpt lat="43.90229468647343" lon="11.780598919975677"><ele>683.0</ele><time>2026-05-03T14:34:50Z</time></trkpt><trkpt lat="43.90233677726157" lon="11.780710319304177"><ele>679.0</ele><time>2026-05-03T14:34:51Z</time></trkpt><trkpt lat="43.90233314283931" lon="11.780823645390486"><ele>675.0</ele><time>2026-05-03T14:34:52Z</time></trkpt><trkpt lat="43.90226999497876" lon="11.78091253961879"><ele>671.0</ele><time>2026-05-03T14:34:53Z</time></trkpt><trkpt lat="43.90217624324913" lon="11.780933119513373"><ele>671.0</ele><time>2026-05-03T14:34:54Z</time></trkpt><trkpt lat="43.9020851035075" lon="11.780859162973334"><ele>671.0</ele><time>2026-05-03T14:34:55Z</time></trkpt><trkpt lat="43.90204693676109" lon="11.780722372640009"><ele>671.0</ele><time>2026-05-03T14:34:56Z</time></trkpt><trkpt lat="43.90200769605572" lon="11.78052160195294"><ele>671.0</ele><time>2026-05-03T14:34:57Z</time></trkpt><trkpt lat="43.90194856476438" lon="11.780313083436866"><ele>677.6666666666666</ele><time>2026-05-03T14:34:58Z</time></trkpt><trkpt lat="43.901876075249376" lon="11.780042800679503"><ele>684.3333333333334</ele><time>2026-05-03T14:34:59Z</time></trkpt><trkpt lat="43.90181218486003" lon="11.779826049441782"><ele>691.0</ele><time>2026-05-03T14:35:00Z</time></trkpt><trkpt lat="43.90176337660388" lon="11.779639895785841"><ele>686.75</ele><time>2026-05-03T14:35:01Z</time></trkpt><trkpt lat="43.90172049182712" lon="11.779473442483521"><ele>682.5</ele><time>2026-05-03T14:35:02Z</time></trkpt><trkpt lat="43.90165134399748" lon="11.77933998038917"><ele>678.25</ele><time>2026-05-03T14:35:03Z</time></trkpt><trkpt lat="43.9015530068888" lon="11.779250899807218"><ele>674.0</ele><time>2026-05-03T14:35:04Z</time></trkpt><trkpt lat="43.901437103395125" lon="11.779242924500439"><ele>674.0</ele><time>2026-05-03T14:35:05Z</time></trkpt><trkpt lat="43.90130884097969" lon="11.779304381491777"><ele>674.0</ele><time>2026-05-03T14:35:06Z</time></trkpt><trkpt lat="43.901170907699864" lon="11.779432572317127"><ele>674.0</ele><time>2026-05-03T14:35:07Z</time></trkpt><trkpt lat="43.90100514144199" lon="11.77953286489113"><ele>664.75</ele><time>2026-05-03T14:35:08Z</time></trkpt><trkpt lat="43.90086446505586" lon="11.779628666502251"><ele>655.5</ele><time>2026-05-03T14:35:09Z</time></trkpt><trkpt lat="43.900742403773" lon="11.779710782770161"><ele>646.25</ele><time>2026-05-03T14:35:10Z</time></trkpt><trkpt lat="43.90062471834479" lon="11.77979035390662"><ele>637.0</ele><time>2026-05-03T14:35:11Z</time></trkpt><trkpt lat="43.90052880108625" lon="11.779880174272003"><ele>637.0</ele><time>2026-05-03T14:35:12Z</time></trkpt><trkpt lat="43.900433121874464" lon="11.779937067112597"><ele>637.0</ele><time>2026-05-03T14:35:13Z</time></trkpt><trkpt lat="43.90034115938607" lon="11.779960899859947"><ele>637.0</ele><time>2026-05-03T14:35:14Z</time></trkpt><trkpt lat="43.90027018032755" lon="11.779977179126778"><ele>637.0</ele><time>2026-05-03T14:35:15Z</time></trkpt><trkpt lat="43.90020397703616" lon="11.779939282414034"><ele>637.0</ele><time>2026-05-03T14:35:16Z</time></trkpt><trkpt lat="43.90013132495731" lon="11.77987940121883"><ele>637.0</ele><time>2026-05-03T14:35:17Z</time></trkpt><trkpt lat="43.90005671846958" lon="11.779762687507292"><ele>634.3333333333334</ele><time>2026-05-03T14:35:18Z</time></trkpt><trkpt lat="43.899962554265905" lon="11.779593108934042"><ele>631.6666666666666</ele><time>2026-05-03T14:35:19Z</time></trkpt><trkpt lat="43.89984554717428" lon="11.779405033010597"><ele>629.0</ele><time>2026-05-03T14:35:20Z</time></trkpt><trkpt lat="43.899745723904935" lon="11.779185449147528"><ele>640.0</ele><time>2026-05-03T14:35:21Z</time></trkpt><trkpt lat="43.89963019516134" lon="11.779027810915315"><ele>651.0</ele><time>2026-05-03T14:35:22Z</time></trkpt><trkpt lat="43.899501304529856" lon="11.778950940496262"><ele>662.0</ele><time>2026-05-03T14:35:23Z</time></trkpt><trkpt lat="43.89934103232313" lon="11.778952244669695"><ele>654.0</ele><time>2026-05-03T14:35:24Z</time></trkpt><trkpt lat="43.89917776490987" lon="11.778965404491775"><ele>646.0</ele><time>2026-05-03T14:35:25Z</time></trkpt><trkpt lat="43.89905595812777" lon="11.778898899124552"><ele>638.0</ele><time>2026-05-03T14:35:26Z</time></trkpt><trkpt lat="43.89897168810795" lon="11.778790785265766"><ele>630.0</ele><time>2026-05-03T14:35:27Z</time></trkpt><trkpt lat="43.898894476034094" lon="11.778633469459443"><ele>630.0</ele><time>2026-05-03T14:35:28Z</time></trkpt><trkpt lat="43.89879257039631" lon="11.778528310045477"><ele>630.0</ele><time>2026-05-03T14:35:29Z</time></trkpt><trkpt lat="43.898658535277775" lon="11.778526417589333"><ele>630.0</ele><time>2026-05-03T14:35:30Z</time></trkpt><trkpt lat="43.89850472889131" lon="11.778608708850989"><ele>630.0</ele><time>2026-05-03T14:35:31Z</time></trkpt><trkpt lat="43.8983890797748" lon="11.778652812281917"><ele>631.25</ele><time>2026-05-03T14:35:32Z</time></trkpt><trkpt lat="43.8982782484596" lon="11.77863849038781"><ele>632.5</ele><time>2026-05-03T14:35:33Z</time></trkpt><trkpt lat="43.8981985863142" lon="11.778532288035308"><ele>633.75</ele><time>2026-05-03T14:35:34Z</time></trkpt><trkpt lat="43.89809590413384" lon="11.778369903116339"><ele>635.0</ele><time>2026-05-03T14:35:35Z</time></trkpt><trkpt lat="43.89797344560685" lon="11.77814536841669"><ele>635.0</ele><time>2026-05-03T14:35:36Z</time></trkpt><trkpt lat="43.897830554776064" lon="11.777902006649892"><ele>635.0</ele><time>2026-05-03T14:35:37Z</time></trkpt><trkpt lat="43.89770341750056" lon="11.777697203161106"><ele>635.0</ele><time>2026-05-03T14:35:38Z</time></trkpt><trkpt lat="43.897627292397324" lon="11.777597992150918"><ele>637.3333333333333</ele><time>2026-05-03T14:35:39Z</time></trkpt><trkpt lat="43.8974980061232" lon="11.777566357228975"><ele>639.6666666666666</ele><time>2026-05-03T14:35:40Z</time></trkpt><trkpt lat="43.8973328290314" lon="11.777568162402803"><ele>642.0</ele><time>2026-05-03T14:35:41Z</time></trkpt><trkpt lat="43.89716690052882" lon="11.777516391159589"><ele>642.0</ele><time>2026-05-03T14:35:42Z</time></trkpt><trkpt lat="43.8970508342522" lon="11.777404029842915"><ele>642.0</ele><time>2026-05-03T14:35:43Z</time></trkpt><trkpt lat="43.89694892843103" lon="11.777312519920432"><ele>642.0</ele><time>2026-05-03T14:35:44Z</time></trkpt><trkpt lat="43.89687090086211" lon="11.77731433955252"><ele>642.0</ele><time>2026-05-03T14:35:45Z</time></trkpt><trkpt lat="43.89680453863893" lon="11.777417674989143"><ele>642.0</ele><time>2026-05-03T14:35:46Z</time></trkpt><trkpt lat="43.896769272197844" lon="11.777555005894305"><ele>630.0</ele><time>2026-05-03T14:35:47Z</time></trkpt><trkpt lat="43.89679659575787" lon="11.777697667526406"><ele>618.0</ele><time>2026-05-03T14:35:48Z</time></trkpt><trkpt lat="43.896885225238655" lon="11.777781274935773"><ele>606.0</ele><time>2026-05-03T14:35:49Z</time></trkpt><trkpt lat="43.89701301204559" lon="11.777794688167596"><ele>594.0</ele><time>2026-05-03T14:35:50Z</time></trkpt><trkpt lat="43.89718291596641" lon="11.777771188422973"><ele>594.0</ele><time>2026-05-03T14:35:51Z</time></trkpt><trkpt lat="43.897384144481535" lon="11.777783767654018"><ele>594.0</ele><time>2026-05-03T14:35:52Z</time></trkpt><trkpt lat="43.89753564870242" lon="11.77784463894873"><ele>594.0</ele><time>2026-05-03T14:35:53Z</time></trkpt><trkpt lat="43.89763998655815" lon="11.777965405542982"><ele>593.75</ele><time>2026-05-03T14:35:54Z</time></trkpt><trkpt lat="43.89775643387956" lon="11.77811972024788"><ele>593.5</ele><time>2026-05-03T14:35:55Z</time></trkpt><trkpt lat="43.89786183161978" lon="11.77826624868934"><ele>593.25</ele><time>2026-05-03T14:35:56Z</time></trkpt><trkpt lat="43.89791117433314" lon="11.778419851898512"><ele>593.0</ele><time>2026-05-03T14:35:57Z</time></trkpt><trkpt lat="43.897940725418806" lon="11.77855744822086"><ele>593.0</ele><time>2026-05-03T14:35:58Z</time></trkpt><trkpt lat="43.89796093963265" lon="11.778669280917981"><ele>593.0</ele><time>2026-05-03T14:35:59Z</time></trkpt><trkpt lat="43.89799227983068" lon="11.778780077924946"><ele>593.0</ele><time>2026-05-03T14:36:00Z</time></trkpt><trkpt lat="43.89801454895169" lon="11.778887321943825"><ele>593.0</ele><time>2026-05-03T14:36:01Z</time></trkpt><trkpt lat="43.89806630678395" lon="11.778981815462432"><ele>593.0</ele><time>2026-05-03T14:36:02Z</time></trkpt><trkpt lat="43.89816908921083" lon="11.779059512262027"><ele>593.0</ele><time>2026-05-03T14:36:03Z</time></trkpt><trkpt lat="43.898315665058334" lon="11.779123650143108"><ele>593.0</ele><time>2026-05-03T14:36:04Z</time></trkpt><trkpt lat="43.89850614827712" lon="11.779237509333752"><ele>593.0</ele><time>2026-05-03T14:36:05Z</time></trkpt><trkpt lat="43.898717069076234" lon="11.779334181034862"><ele>592.0</ele><time>2026-05-03T14:36:06Z</time></trkpt><trkpt lat="43.898852694984555" lon="11.77939515367107"><ele>591.0</ele><time>2026-05-03T14:36:07Z</time></trkpt><trkpt lat="43.89896822044768" lon="11.779450733041497"><ele>590.0</ele><time>2026-05-03T14:36:08Z</time></trkpt><trkpt lat="43.89909552548767" lon="11.779525774417655"><ele>589.0</ele><time>2026-05-03T14:36:09Z</time></trkpt><trkpt lat="43.89920748665142" lon="11.77961959205658"><ele>592.3333333333334</ele><time>2026-05-03T14:36:10Z</time></trkpt><trkpt lat="43.89926740005027" lon="11.7797690604846"><ele>595.6666666666666</ele><time>2026-05-03T14:36:11Z</time></trkpt><trkpt lat="43.899301486474066" lon="11.77998901375062"><ele>599.0</ele><time>2026-05-03T14:36:12Z</time></trkpt><trkpt lat="43.899322995420476" lon="11.780273553588183"><ele>599.0</ele><time>2026-05-03T14:36:13Z</time></trkpt><trkpt lat="43.899356431244904" lon="11.7805239493155"><ele>599.0</ele><time>2026-05-03T14:36:14Z</time></trkpt><trkpt lat="43.89936827893087" lon="11.780723670966117"><ele>599.0</ele><time>2026-05-03T14:36:15Z</time></trkpt><trkpt lat="43.899381598974045" lon="11.78087587998359"><ele>599.0</ele><time>2026-05-03T14:36:16Z</time></trkpt><trkpt lat="43.89943001383569" lon="11.780995140387567"><ele>587.3333333333333</ele><time>2026-05-03T14:36:17Z</time></trkpt><trkpt lat="43.89953962785327" lon="11.781083660981572"><ele>575.6666666666666</ele><time>2026-05-03T14:36:18Z</time></trkpt><trkpt lat="43.89968657651432" lon="11.781174480017162"><ele>564.0</ele><time>2026-05-03T14:36:19Z</time></trkpt><trkpt lat="43.89982271983566" lon="11.781305750236584"><ele>564.0</ele><time>2026-05-03T14:36:20Z</time></trkpt><trkpt lat="43.89996023883846" lon="11.781360309636904"><ele>564.0</ele><time>2026-05-03T14:36:21Z</time></trkpt><trkpt lat="43.900105204753665" lon="11.78138432012442"><ele>564.0</ele><time>2026-05-03T14:36:22Z</time></trkpt><trkpt lat="43.900280758597845" lon="11.781368319838265"><ele>567.75</ele><time>2026-05-03T14:36:23Z</time></trkpt><trkpt lat="43.90044369568991" lon="11.781379265181096"><ele>571.5</ele><time>2026-05-03T14:36:24Z</time></trkpt><trkpt lat="43.90057914344142" lon="11.781398617302974"><ele>575.25</ele><time>2026-05-03T14:36:25Z</time></trkpt><trkpt lat="43.900686776695906" lon="11.781473127548352"><ele>579.0</ele><time>2026-05-03T14:36:26Z</time></trkpt><trkpt lat="43.90072300887713" lon="11.78162810181645"><ele>579.0</ele><time>2026-05-03T14:36:27Z</time></trkpt><trkpt lat="43.90072545560378" lon="11.781798763237319"><ele>579.0</ele><time>2026-05-03T14:36:28Z</time></trkpt><trkpt lat="43.90073833168468" lon="11.782033602726209"><ele>579.0</ele><time>2026-05-03T14:36:29Z</time></trkpt><trkpt lat="43.90076442902436" lon="11.782217399812913"><ele>579.0</ele><time>2026-05-03T14:36:30Z</time></trkpt><trkpt lat="43.90082452531298" lon="11.782344028509547"><ele>580.75</ele><time>2026-05-03T14:36:31Z</time></trkpt><trkpt lat="43.900938868313446" lon="11.782426443006058"><ele>582.5</ele><time>2026-05-03T14:36:32Z</time></trkpt><trkpt lat="43.90108047589329" lon="11.782466654607115"><ele>584.25</ele><time>2026-05-03T14:36:33Z</time></trkpt><trkpt lat="43.901220459220795" lon="11.782478630626363"><ele>586.0</ele><time>2026-05-03T14:36:34Z</time></trkpt><trkpt lat="43.901314056162995" lon="11.782574389633616"><ele>579.0</ele><time>2026-05-03T14:36:35Z</time></trkpt><trkpt lat="43.90137534889651" lon="11.78271646350855"><ele>572.0</ele><time>2026-05-03T14:36:36Z</time></trkpt><trkpt lat="43.90146927443452" lon="11.78295090835671"><ele>565.0</ele><time>2026-05-03T14:36:37Z</time></trkpt><trkpt lat="43.901586784465785" lon="11.783232285663695"><ele>565.0</ele><time>2026-05-03T14:36:38Z</time></trkpt><trkpt lat="43.90170169627531" lon="11.783551109304883"><ele>565.0</ele><time>2026-05-03T14:36:39Z</time></trkpt><trkpt lat="43.90179368045286" lon="11.783783900297653"><ele>565.0</ele><time>2026-05-03T14:36:40Z</time></trkpt><trkpt lat="43.90186148250696" lon="11.784003277501318"><ele>565.0</ele><time>2026-05-03T14:36:41Z</time></trkpt><trkpt lat="43.901927326472084" lon="11.784189622698033"><ele>565.0</ele><time>2026-05-03T14:36:42Z</time></trkpt><trkpt lat="43.90200009474371" lon="11.784311310310322"><ele>565.0</ele><time>2026-05-03T14:36:43Z</time></trkpt><trkpt lat="43.90206865169218" lon="11.784418442598813"><ele>565.0</ele><time>2026-05-03T14:36:44Z</time></trkpt><trkpt lat="43.90216935527229" lon="11.78445269184559"><ele>558.0</ele><time>2026-05-03T14:36:45Z</time></trkpt><trkpt lat="43.90229644414158" lon="11.784428478513025"><ele>551.0</ele><time>2026-05-03T14:36:46Z</time></trkpt><trkpt lat="43.902441045980325" lon="11.784374257211562"><ele>544.0</ele><time>2026-05-03T14:36:47Z</time></trkpt><trkpt lat="43.90256665574287" lon="11.78438965934536"><ele>537.0</ele><time>2026-05-03T14:36:48Z</time></trkpt><trkpt lat="43.90268257453963" lon="11.784488646603199"><ele>536.3333333333334</ele><time>2026-05-03T14:36:49Z</time></trkpt><trkpt lat="43.90283031547652" lon="11.784612729589602"><ele>535.6666666666667</ele><time>2026-05-03T14:36:50Z</time></trkpt><trkpt lat="43.90297135972157" lon="11.784725882907477"><ele>535.0</ele><time>2026-05-03T14:36:51Z</time></trkpt><trkpt lat="43.90308424966088" lon="11.78480094533923"><ele>535.0</ele><time>2026-05-03T14:36:52Z</time></trkpt><trkpt lat="43.90320237174903" lon="11.784798382465546"><ele>535.0</ele><time>2026-05-03T14:36:53Z</time></trkpt><trkpt lat="43.903346015230156" lon="11.78473001694021"><ele>535.0</ele><time>2026-05-03T14:36:54Z</time></trkpt><trkpt lat="43.903509247849584" lon="11.784605255241145"><ele>534.75</ele><time>2026-05-03T14:36:55Z</time></trkpt><trkpt lat="43.903657687395096" lon="11.784551667957121"><ele>534.5</ele><time>2026-05-03T14:36:56Z</time></trkpt><trkpt lat="43.90377230585803" lon="11.784520741447178"><ele>534.25</ele><time>2026-05-03T14:36:57Z</time></trkpt><trkpt lat="43.90389027690738" lon="11.784565420371907"><ele>534.0</ele><time>2026-05-03T14:36:58Z</time></trkpt><trkpt lat="43.90400495161663" lon="11.784632607122846"><ele>534.0</ele><time>2026-05-03T14:36:59Z</time></trkpt><trkpt lat="43.90409493368801" lon="11.78469698963259"><ele>534.0</ele><time>2026-05-03T14:37:00Z</time></trkpt><trkpt lat="43.90418455969629" lon="11.78473730468464"><ele>534.0</ele><time>2026-05-03T14:37:01Z</time></trkpt><trkpt lat="43.90425374288261" lon="11.784786403042006"><ele>534.0</ele><time>2026-05-03T14:37:02Z</time></trkpt><trkpt lat="43.904314184250936" lon="11.78482747456137"><ele>534.0</ele><time>2026-05-03T14:37:03Z</time></trkpt><trkpt lat="43.904370501277555" lon="11.784870886655776"><ele>534.0</ele><time>2026-05-03T14:37:04Z</time></trkpt><trkpt lat="43.904423516173075" lon="11.7849551814773"><ele>539.1666666666666</ele><time>2026-05-03T14:37:05Z</time></trkpt><trkpt lat="43.90444948602238" lon="11.785054431571654"><ele>544.3333333333334</ele><time>2026-05-03T14:37:06Z</time></trkpt><trkpt lat="43.90444860214514" lon="11.785183527104978"><ele>549.5</ele><time>2026-05-03T14:37:07Z</time></trkpt><trkpt lat="43.904426411741255" lon="11.785301243276294"><ele>554.6666666666667</ele><time>2026-05-03T14:37:08Z</time></trkpt><trkpt lat="43.90440130285589" lon="11.785397825916789"><ele>559.8333333333334</ele><time>2026-05-03T14:37:09Z</time></trkpt><trkpt lat="43.904370816249475" lon="11.78548232294469"><ele>565.0</ele><time>2026-05-03T14:37:54Z</time></trkpt><trkpt lat="43.9043589335582" lon="11.785654774307899"><ele>565.25</ele><time>2026-05-03T14:37:56Z</time></trkpt><trkpt lat="43.90433748964638" lon="11.785776946683992"><ele>565.5</ele><time>2026-05-03T14:37:57Z</time></trkpt><trkpt lat="43.904312266764045" lon="11.785935088511671"><ele>565.75</ele><time>2026-05-03T14:37:58Z</time></trkpt><trkpt lat="43.90427800845421" lon="11.786136630797305"><ele>566.0</ele><time>2026-05-03T14:37:59Z</time></trkpt><trkpt lat="43.90422674593086" lon="11.786347187918004"><ele>558.5</ele><time>2026-05-03T14:38:00Z</time></trkpt><trkpt lat="43.90416716398269" lon="11.786524331437219"><ele>551.0</ele><time>2026-05-03T14:38:01Z</time></trkpt><trkpt lat="43.904099468277366" lon="11.78667736024365"><ele>543.5</ele><time>2026-05-03T14:38:02Z</time></trkpt><trkpt lat="43.904047913660364" lon="11.786817994743366"><ele>536.0</ele><time>2026-05-03T14:38:03Z</time></trkpt><trkpt lat="43.9040152132759" lon="11.786955451046113"><ele>535.75</ele><time>2026-05-03T14:38:04Z</time></trkpt><trkpt lat="43.90400070385096" lon="11.787106374651591"><ele>535.5</ele><time>2026-05-03T14:38:05Z</time></trkpt><trkpt lat="43.90401891943061" lon="11.78726222390476"><ele>535.25</ele><time>2026-05-03T14:38:06Z</time></trkpt><trkpt lat="43.90407460486236" lon="11.787406472916611"><ele>535.0</ele><time>2026-05-03T14:38:07Z</time></trkpt><trkpt lat="43.90416896172786" lon="11.787532645216622"><ele>533.6666666666667</ele><time>2026-05-03T14:38:08Z</time></trkpt><trkpt lat="43.90428790085485" lon="11.787634808283485"><ele>532.3333333333334</ele><time>2026-05-03T14:38:09Z</time></trkpt><trkpt lat="43.90442164274628" lon="11.787719518429956"><ele>531.0</ele><time>2026-05-03T14:38:10Z</time></trkpt><trkpt lat="43.90459857494174" lon="11.78778506685454"><ele>531.0</ele><time>2026-05-03T14:38:11Z</time></trkpt><trkpt lat="43.90478841258954" lon="11.787849355428753"><ele>531.0</ele><time>2026-05-03T14:38:12Z</time></trkpt><trkpt lat="43.90494626248873" lon="11.787918515757887"><ele>531.0</ele><time>2026-05-03T14:38:13Z</time></trkpt><trkpt lat="43.905084502977836" lon="11.788001628868392"><ele>538.0</ele><time>2026-05-03T14:38:14Z</time></trkpt><trkpt lat="43.90523647498879" lon="11.7881015759918"><ele>545.0</ele><time>2026-05-03T14:38:15Z</time></trkpt><trkpt lat="43.90533326878667" lon="11.78822499526588"><ele>552.0</ele><time>2026-05-03T14:38:16Z</time></trkpt><trkpt lat="43.90542227265686" lon="11.788349824897132"><ele>559.0</ele><time>2026-05-03T14:38:17Z</time></trkpt><trkpt lat="43.90549014879956" lon="11.788512880430675"><ele>559.0</ele><time>2026-05-03T14:38:18Z</time></trkpt><trkpt lat="43.90555693691142" lon="11.78871374163064"><ele>559.0</ele><time>2026-05-03T14:38:19Z</time></trkpt><trkpt lat="43.9056161932669" lon="11.788958780988434"><ele>559.0</ele><time>2026-05-03T14:38:20Z</time></trkpt><trkpt lat="43.90568343899574" lon="11.789227828871448"><ele>551.0</ele><time>2026-05-03T14:38:21Z</time></trkpt><trkpt lat="43.905725918681306" lon="11.789498941060117"><ele>543.0</ele><time>2026-05-03T14:38:22Z</time></trkpt><trkpt lat="43.905764026274014" lon="11.78972841316557"><ele>535.0</ele><time>2026-05-03T14:38:23Z</time></trkpt><trkpt lat="43.90579114001731" lon="11.78989418012338"><ele>535.0</ele><time>2026-05-03T14:38:24Z</time></trkpt><trkpt lat="43.905836082993105" lon="11.790041894411889"><ele>535.0</ele><time>2026-05-03T14:38:25Z</time></trkpt><trkpt lat="43.90592816294788" lon="11.790161753901232"><ele>535.0</ele><time>2026-05-03T14:38:26Z</time></trkpt><trkpt lat="43.90606146618709" lon="11.790247916824715"><ele>535.0</ele><time>2026-05-03T14:38:27Z</time></trkpt><trkpt lat="43.90622803216647" lon="11.790275503247868"><ele>532.0</ele><time>2026-05-03T14:38:28Z</time></trkpt><trkpt lat="43.90642796384464" lon="11.790286393852549"><ele>529.0</ele><time>2026-05-03T14:38:29Z</time></trkpt><trkpt lat="43.90661077626629" lon="11.790313736127075"><ele>526.0</ele><time>2026-05-03T14:38:30Z</time></trkpt><trkpt lat="43.90674028138474" lon="11.790418225384244"><ele>529.5</ele><time>2026-05-03T14:38:31Z</time></trkpt><trkpt lat="43.90683586080226" lon="11.790556988894036"><ele>533.0</ele><time>2026-05-03T14:38:32Z</time></trkpt><trkpt lat="43.90694316227184" lon="11.790669130520524"><ele>536.5</ele><time>2026-05-03T14:38:33Z</time></trkpt><trkpt lat="43.90707179062065" lon="11.790751097761499"><ele>540.0</ele><time>2026-05-03T14:38:34Z</time></trkpt><trkpt lat="43.90720211363432" lon="11.790784821535462"><ele>540.0</ele><time>2026-05-03T14:38:35Z</time></trkpt><trkpt lat="43.90733609824762" lon="11.790763471373213"><ele>540.0</ele><time>2026-05-03T14:38:36Z</time></trkpt><trkpt lat="43.90746920254272" lon="11.79072188382691"><ele>540.0</ele><time>2026-05-03T14:38:37Z</time></trkpt><trkpt lat="43.90760613783789" lon="11.790685176531644"><ele>540.0</ele><time>2026-05-03T14:38:38Z</time></trkpt><trkpt lat="43.90773798449848" lon="11.79070847548505"><ele>543.0</ele><time>2026-05-03T14:38:39Z</time></trkpt><trkpt lat="43.90786903892575" lon="11.790742151397989"><ele>546.0</ele><time>2026-05-03T14:38:40Z</time></trkpt><trkpt lat="43.907997487219" lon="11.790829599602393"><ele>549.0</ele><time>2026-05-03T14:38:41Z</time></trkpt><trkpt lat="43.90813635652524" lon="11.790911855304836"><ele>552.0</ele><time>2026-05-03T14:38:42Z</time></trkpt><trkpt lat="43.90825236054598" lon="11.790985102321196"><ele>552.4</ele><time>2026-05-03T14:38:43Z</time></trkpt><trkpt lat="43.908356068886114" lon="11.791042274798823"><ele>552.8000000000001</ele><time>2026-05-03T14:38:44Z</time></trkpt><trkpt lat="43.90843504084395" lon="11.791114381101195"><ele>553.2</ele><time>2026-05-03T14:38:45Z</time></trkpt><trkpt lat="43.90851729328799" lon="11.79119803876802"><ele>553.6</ele><time>2026-05-03T14:38:46Z</time></trkpt><trkpt lat="43.908565919421264" lon="11.79131371636038"><ele>554.0</ele><time>2026-05-03T14:38:47Z</time></trkpt><trkpt lat="43.90856271169808" lon="11.791450865638694"><ele>554.0</ele><time>2026-05-03T14:38:48Z</time></trkpt><trkpt lat="43.90858586454547" lon="11.791586113055269"><ele>554.0</ele><time>2026-05-03T14:38:49Z</time></trkpt><trkpt lat="43.90858163271941" lon="11.791710127205778"><ele>554.0</ele><time>2026-05-03T14:38:50Z</time></trkpt><trkpt lat="43.90856565557527" lon="11.791839086582964"><ele>554.0</ele><time>2026-05-03T14:38:51Z</time></trkpt><trkpt lat="43.90852178033869" lon="11.791946138190925"><ele>554.0</ele><time>2026-05-03T14:38:52Z</time></trkpt><trkpt lat="43.908444730634635" lon="11.79202778500755"><ele>557.2</ele><time>2026-05-03T14:38:53Z</time></trkpt><trkpt lat="43.90834859284754" lon="11.792062593473036"><ele>560.4</ele><time>2026-05-03T14:38:54Z</time></trkpt><trkpt lat="43.90825263150051" lon="11.792046551931088"><ele>563.6</ele><time>2026-05-03T14:38:55Z</time></trkpt><trkpt lat="43.90817685359513" lon="11.791961942760665"><ele>566.8</ele><time>2026-05-03T14:38:56Z</time></trkpt><trkpt lat="43.90809963706693" lon="11.791896961135613"><ele>570.0</ele><time>2026-05-03T14:38:57Z</time></trkpt><trkpt lat="43.908015923388625" lon="11.791853661090808"><ele>570.0</ele><time>2026-05-03T14:38:58Z</time></trkpt><trkpt lat="43.90793411507093" lon="11.791795246362009"><ele>570.0</ele><time>2026-05-03T14:38:59Z</time></trkpt><trkpt lat="43.90783748149945" lon="11.791776034098996"><ele>570.0</ele><time>2026-05-03T14:39:00Z</time></trkpt><trkpt lat="43.90774895402454" lon="11.79179815690381"><ele>570.0</ele><time>2026-05-03T14:39:01Z</time></trkpt><trkpt lat="43.90766824944252" lon="11.791858793972189"><ele>570.0</ele><time>2026-05-03T14:39:02Z</time></trkpt><trkpt lat="43.907602236452405" lon="11.791967847299048"><ele>566.5</ele><time>2026-05-03T14:39:03Z</time></trkpt><trkpt lat="43.90752302211374" lon="11.792108035485892"><ele>563.0</ele><time>2026-05-03T14:39:04Z</time></trkpt><trkpt lat="43.907441908851865" lon="11.792252019081436"><ele>559.5</ele><time>2026-05-03T14:39:05Z</time></trkpt><trkpt lat="43.90736229128427" lon="11.7923861343546"><ele>556.0</ele><time>2026-05-03T14:39:06Z</time></trkpt><trkpt lat="43.9072776304079" lon="11.792527836768448"><ele>556.0</ele><time>2026-05-03T14:39:07Z</time></trkpt><trkpt lat="43.9071912571568" lon="11.792672319332677"><ele>556.0</ele><time>2026-05-03T14:39:08Z</time></trkpt><trkpt lat="43.90710488440492" lon="11.792814793702398"><ele>556.0</ele><time>2026-05-03T14:39:09Z</time></trkpt><trkpt lat="43.90702986422492" lon="11.792963842680555"><ele>556.0</ele><time>2026-05-03T14:39:10Z</time></trkpt><trkpt lat="43.90694782471462" lon="11.793098096154884"><ele>558.0</ele><time>2026-05-03T14:39:11Z</time></trkpt><trkpt lat="43.90686533296525" lon="11.793232911538473"><ele>560.0</ele><time>2026-05-03T14:39:12Z</time></trkpt><trkpt lat="43.90677770291349" lon="11.79337114983681"><ele>562.0</ele><time>2026-05-03T14:39:13Z</time></trkpt><trkpt lat="43.90669234965554" lon="11.793517673962771"><ele>564.0</ele><time>2026-05-03T14:39:14Z</time></trkpt><trkpt lat="43.906608922956394" lon="11.793671102017145"><ele>564.0</ele><time>2026-05-03T14:39:15Z</time></trkpt><trkpt lat="43.90653078634314" lon="11.793836500728872"><ele>564.0</ele><time>2026-05-03T14:39:16Z</time></trkpt><trkpt lat="43.90646000068042" lon="11.794019406440269"><ele>564.0</ele><time>2026-05-03T14:39:17Z</time></trkpt><trkpt lat="43.906398129928185" lon="11.79421230740915"><ele>564.0</ele><time>2026-05-03T14:39:18Z</time></trkpt><trkpt lat="43.906331047356694" lon="11.794402004889513"><ele>566.5</ele><time>2026-05-03T14:39:19Z</time></trkpt><trkpt lat="43.906262581630244" lon="11.794571920296443"><ele>569.0</ele><time>2026-05-03T14:39:20Z</time></trkpt><trkpt lat="43.90619382114047" lon="11.794743391017812"><ele>571.5</ele><time>2026-05-03T14:39:21Z</time></trkpt><trkpt lat="43.906131205474004" lon="11.794926879069465"><ele>574.0</ele><time>2026-05-03T14:39:22Z</time></trkpt><trkpt lat="43.90608084189562" lon="11.795124994800744"><ele>576.6666666666667</ele><time>2026-05-03T14:39:23Z</time></trkpt><trkpt lat="43.906043994930286" lon="11.795358496190042"><ele>579.3333333333334</ele><time>2026-05-03T14:39:24Z</time></trkpt><trkpt lat="43.906002319500544" lon="11.795605045169117"><ele>582.0</ele><time>2026-05-03T14:39:25Z</time></trkpt><trkpt lat="43.905955414627044" lon="11.795834071103107"><ele>583.0</ele><time>2026-05-03T14:39:26Z</time></trkpt><trkpt lat="43.90592171960516" lon="11.796027246750102"><ele>584.0</ele><time>2026-05-03T14:39:27Z</time></trkpt><trkpt lat="43.90589097258716" lon="11.796173301087778"><ele>585.0</ele><time>2026-05-03T14:39:28Z</time></trkpt><trkpt lat="43.90586689547964" lon="11.796302682788735"><ele>586.0</ele><time>2026-05-03T14:39:29Z</time></trkpt><trkpt lat="43.905842847453286" lon="11.796418465541672"><ele>587.0</ele><time>2026-05-03T14:39:30Z</time></trkpt><trkpt lat="43.9058207120917" lon="11.796522690129597"><ele>582.8333333333333</ele><time>2026-05-03T14:39:31Z</time></trkpt><trkpt lat="43.90580482939769" lon="11.79661483087964"><ele>578.6666666666666</ele><time>2026-05-03T14:39:32Z</time></trkpt><trkpt lat="43.90575304743997" lon="11.796667749786955"><ele>574.5</ele><time>2026-05-03T14:39:33Z</time></trkpt><trkpt lat="43.90570009478265" lon="11.796753486735517"><ele>570.3333333333334</ele><time>2026-05-03T14:39:35Z</time></trkpt><trkpt lat="43.90579759587747" lon="11.796841627059456"><ele>566.1666666666667</ele><time>2026-05-03T14:39:38Z</time></trkpt><trkpt lat="43.905869114811665" lon="11.796771223863127"><ele>562.0</ele><time>2026-05-03T14:39:40Z</time></trkpt><trkpt lat="43.90591078541433" lon="11.796668141319133"><ele>567.0</ele><time>2026-05-03T14:39:41Z</time></trkpt><trkpt lat="43.90595050721509" lon="11.796548295671279"><ele>572.0</ele><time>2026-05-03T14:39:42Z</time></trkpt><trkpt lat="43.905985404182935" lon="11.796428844998095"><ele>577.0</ele><time>2026-05-03T14:39:43Z</time></trkpt><trkpt lat="43.906021327458454" lon="11.796335749314764"><ele>582.0</ele><time>2026-05-03T14:39:44Z</time></trkpt><trkpt lat="43.90605424119755" lon="11.796248172888118"><ele>587.0</ele><time>2026-05-03T14:39:45Z</time></trkpt><trkpt lat="43.90611622894394" lon="11.796098843459994"><ele>586.1666666666666</ele><time>2026-05-03T14:39:47Z</time></trkpt><trkpt lat="43.906189567714755" lon="11.795951046371357"><ele>585.3333333333333</ele><time>2026-05-03T14:39:49Z</time></trkpt><trkpt lat="43.90623419517953" lon="11.795853221696786"><ele>584.5</ele><time>2026-05-03T14:39:50Z</time></trkpt><trkpt lat="43.9062840120213" lon="11.795758887525873"><ele>583.6666666666666</ele><time>2026-05-03T14:39:51Z</time></trkpt><trkpt lat="43.90633073156503" lon="11.795671477191517"><ele>582.8333333333334</ele><time>2026-05-03T14:39:52Z</time></trkpt><trkpt lat="43.906375965338206" lon="11.795601769130633"><ele>582.0</ele><time>2026-05-03T14:39:53Z</time></trkpt><trkpt lat="43.906424375035336" lon="11.795530455805878"><ele>582.0</ele><time>2026-05-03T14:39:54Z</time></trkpt><trkpt lat="43.90647584232489" lon="11.795460211436572"><ele>582.0</ele><time>2026-05-03T14:39:55Z</time></trkpt><trkpt lat="43.90653345340303" lon="11.795394915841852"><ele>582.0</ele><time>2026-05-03T14:39:56Z</time></trkpt><trkpt lat="43.90659567266232" lon="11.795328177011102"><ele>582.0</ele><time>2026-05-03T14:39:57Z</time></trkpt><trkpt lat="43.90665990636266" lon="11.79525793390959"><ele>582.0</ele><time>2026-05-03T14:39:58Z</time></trkpt><trkpt lat="43.90672344630773" lon="11.79518193564353"><ele>582.0</ele><time>2026-05-03T14:39:59Z</time></trkpt><trkpt lat="43.90678611923194" lon="11.795104416500726"><ele>584.1666666666666</ele><time>2026-05-03T14:40:00Z</time></trkpt><trkpt lat="43.9068341310164" lon="11.795044607618442"><ele>586.3333333333334</ele><time>2026-05-03T14:40:01Z</time></trkpt><trkpt lat="43.906915062034884" lon="11.79494444178537"><ele>588.5</ele><time>2026-05-03T14:40:03Z</time></trkpt><trkpt lat="43.907006046789796" lon="11.79483184537644"><ele>590.6666666666667</ele><time>2026-05-03T14:40:05Z</time></trkpt><trkpt lat="43.907053785638745" lon="11.794765224730353"><ele>592.8333333333334</ele><time>2026-05-03T14:40:06Z</time></trkpt><trkpt lat="43.90709371857416" lon="11.794681292337847"><ele>595.0</ele><time>2026-05-03T14:40:07Z</time></trkpt><trkpt lat="43.90712272196611" lon="11.79459167038305"><ele>595.0</ele><time>2026-05-03T14:40:08Z</time></trkpt><trkpt lat="43.90713846764497" lon="11.794504736142239"><ele>595.0</ele><time>2026-05-03T14:40:09Z</time></trkpt><trkpt lat="43.90717249191898" lon="11.79435012802111"><ele>595.0</ele><time>2026-05-03T14:40:11Z</time></trkpt><trkpt lat="43.90720875912116" lon="11.794275678236396"><ele>595.0</ele><time>2026-05-03T14:40:12Z</time></trkpt><trkpt lat="43.90726579214638" lon="11.794220968270261"><ele>595.0</ele><time>2026-05-03T14:40:13Z</time></trkpt><trkpt lat="43.907335904598206" lon="11.79419468899315"><ele>595.0</ele><time>2026-05-03T14:40:14Z</time></trkpt><trkpt lat="43.90740648326843" lon="11.79416409897551"><ele>596.0</ele><time>2026-05-03T14:40:15Z</time></trkpt><trkpt lat="43.90750815966732" lon="11.794094624362781"><ele>597.0</ele><time>2026-05-03T14:40:17Z</time></trkpt><trkpt lat="43.907562692321804" lon="11.794048617693996"><ele>598.0</ele><time>2026-05-03T14:40:18Z</time></trkpt><trkpt lat="43.90761831963102" lon="11.793999820277504"><ele>599.0</ele><time>2026-05-03T14:40:19Z</time></trkpt><trkpt lat="43.90770184729921" lon="11.793903675883454"><ele>600.0</ele><time>2026-05-03T14:40:21Z</time></trkpt><trkpt lat="43.907791169887915" lon="11.793798856853849"><ele>600.0</ele><time>2026-05-03T14:40:23Z</time></trkpt><trkpt lat="43.90784039550737" lon="11.793734565300804"><ele>600.0</ele><time>2026-05-03T14:40:24Z</time></trkpt><trkpt lat="43.907893166652514" lon="11.793665060610916"><ele>600.0</ele><time>2026-05-03T14:40:25Z</time></trkpt><trkpt lat="43.90794997359999" lon="11.793592461838506"><ele>600.0</ele><time>2026-05-03T14:40:26Z</time></trkpt><trkpt lat="43.90800793050441" lon="11.793509957941703"><ele>600.0</ele><time>2026-05-03T14:40:27Z</time></trkpt><trkpt lat="43.908068448872854" lon="11.793426523127764"><ele>600.0</ele><time>2026-05-03T14:40:28Z</time></trkpt><trkpt lat="43.90813167335334" lon="11.79334222216121"><ele>601.0</ele><time>2026-05-03T14:40:29Z</time></trkpt><trkpt lat="43.908198781429235" lon="11.793261101816308"><ele>602.0</ele><time>2026-05-03T14:40:30Z</time></trkpt><trkpt lat="43.90826747311218" lon="11.793179886381838"><ele>603.0</ele><time>2026-05-03T14:40:31Z</time></trkpt><trkpt lat="43.90833484329177" lon="11.793111686195516"><ele>604.0</ele><time>2026-05-03T14:40:32Z</time></trkpt><trkpt lat="43.908413189545065" lon="11.793060906927508"><ele>605.0</ele><time>2026-05-03T14:40:33Z</time></trkpt><trkpt lat="43.908494685550174" lon="11.79303397268093"><ele>606.0</ele><time>2026-05-03T14:40:34Z</time></trkpt><trkpt lat="43.90857776263686" lon="11.793033498480067"><ele>606.0</ele><time>2026-05-03T14:40:35Z</time></trkpt><trkpt lat="43.908660072283986" lon="11.793031923585007"><ele>606.0</ele><time>2026-05-03T14:40:36Z</time></trkpt><trkpt lat="43.90874710178041" lon="11.793020225840538"><ele>606.0</ele><time>2026-05-03T14:40:37Z</time></trkpt><trkpt lat="43.90882730377893" lon="11.793015504890656"><ele>606.0</ele><time>2026-05-03T14:40:38Z</time></trkpt><trkpt lat="43.90890521133514" lon="11.793006419444858"><ele>606.0</ele><time>2026-05-03T14:40:39Z</time></trkpt><trkpt lat="43.90897905221964" lon="11.792988858188329"><ele>606.0</ele><time>2026-05-03T14:40:40Z</time></trkpt><trkpt lat="43.9090546576857" lon="11.792968958649972"><ele>606.0</ele><time>2026-05-03T14:40:41Z</time></trkpt><trkpt lat="43.90912925694966" lon="11.792948866718927"><ele>606.0</ele><time>2026-05-03T14:40:42Z</time></trkpt><trkpt lat="43.909202168053646" lon="11.792923622846084"><ele>606.0</ele><time>2026-05-03T14:40:43Z</time></trkpt><trkpt lat="43.909273775524674" lon="11.792891763042642"><ele>606.0</ele><time>2026-05-03T14:40:44Z</time></trkpt><trkpt lat="43.90934312161871" lon="11.792868092713745"><ele>606.0</ele><time>2026-05-03T14:40:45Z</time></trkpt><trkpt lat="43.90941876283369" lon="11.792852923369331"><ele>606.0</ele><time>2026-05-03T14:40:46Z</time></trkpt><trkpt lat="43.9095006703922" lon="11.792854680216065"><ele>606.5</ele><time>2026-05-03T14:40:47Z</time></trkpt><trkpt lat="43.9095856913679" lon="11.792885069066875"><ele>607.0</ele><time>2026-05-03T14:40:48Z</time></trkpt><trkpt lat="43.909662979776435" lon="11.79292480471398"><ele>607.5</ele><time>2026-05-03T14:40:49Z</time></trkpt><trkpt lat="43.909732992290856" lon="11.792974426730304"><ele>608.0</ele><time>2026-05-03T14:40:50Z</time></trkpt><trkpt lat="43.90980834308663" lon="11.793005735503337"><ele>608.5</ele><time>2026-05-03T14:40:51Z</time></trkpt><trkpt lat="43.90988165571428" lon="11.793038967138576"><ele>609.0</ele><time>2026-05-03T14:40:52Z</time></trkpt><trkpt lat="43.90995433429" lon="11.793074600470167"><ele>609.0</ele><time>2026-05-03T14:40:53Z</time></trkpt><trkpt lat="43.910026826073285" lon="11.793127826963591"><ele>609.0</ele><time>2026-05-03T14:40:54Z</time></trkpt><trkpt lat="43.91009721022646" lon="11.793208981947917"><ele>609.0</ele><time>2026-05-03T14:40:55Z</time></trkpt><trkpt lat="43.91016628097053" lon="11.793307886913201"><ele>609.0</ele><time>2026-05-03T14:40:56Z</time></trkpt><trkpt lat="43.9102373074252" lon="11.7934140085932"><ele>609.0</ele><time>2026-05-03T14:40:57Z</time></trkpt><trkpt lat="43.91031278661217" lon="11.793510491927755"><ele>612.8</ele><time>2026-05-03T14:40:58Z</time></trkpt><trkpt lat="43.91039140438883" lon="11.79358848620156"><ele>616.5999999999999</ele><time>2026-05-03T14:40:59Z</time></trkpt><trkpt lat="43.910486789468216" lon="11.793652469061124"><ele>620.4</ele><time>2026-05-03T14:41:00Z</time></trkpt><trkpt lat="43.910593741130434" lon="11.793697308622725"><ele>624.1999999999999</ele><time>2026-05-03T14:41:01Z</time></trkpt><trkpt lat="43.910708036232826" lon="11.793723646649974"><ele>628.0</ele><time>2026-05-03T14:41:02Z</time></trkpt><trkpt lat="43.91082882046073" lon="11.793735070288522"><ele>625.75</ele><time>2026-05-03T14:41:03Z</time></trkpt><trkpt lat="43.91095231049435" lon="11.793776820350056"><ele>623.5</ele><time>2026-05-03T14:41:04Z</time></trkpt><trkpt lat="43.911079715801634" lon="11.793825108075497"><ele>621.25</ele><time>2026-05-03T14:41:05Z</time></trkpt><trkpt lat="43.91122131681146" lon="11.793894062717042"><ele>619.0</ele><time>2026-05-03T14:41:06Z</time></trkpt><trkpt lat="43.91134896127469" lon="11.79396076650373"><ele>619.0</ele><time>2026-05-03T14:41:07Z</time></trkpt><trkpt lat="43.91147752039816" lon="11.794019729918384"><ele>619.0</ele><time>2026-05-03T14:41:08Z</time></trkpt><trkpt lat="43.91158002869479" lon="11.794102763808649"><ele>619.0</ele><time>2026-05-03T14:41:09Z</time></trkpt><trkpt lat="43.91166950989228" lon="11.794193455660816"><ele>619.0</ele><time>2026-05-03T14:41:10Z</time></trkpt><trkpt lat="43.91175297915211" lon="11.794256227196191"><ele>620.0</ele><time>2026-05-03T14:41:11Z</time></trkpt><trkpt lat="43.911843851063644" lon="11.794255828794483"><ele>621.0</ele><time>2026-05-03T14:41:12Z</time></trkpt><trkpt lat="43.91193148941572" lon="11.794189742524754"><ele>622.0</ele><time>2026-05-03T14:41:13Z</time></trkpt><trkpt lat="43.91200349264218" lon="11.79406408420709"><ele>623.0</ele><time>2026-05-03T14:41:14Z</time></trkpt><trkpt lat="43.912022447303976" lon="11.793908066807012"><ele>624.0</ele><time>2026-05-03T14:41:15Z</time></trkpt><trkpt lat="43.91199988851176" lon="11.793711750167834"><ele>626.3333333333334</ele><time>2026-05-03T14:41:16Z</time></trkpt><trkpt lat="43.91195161395874" lon="11.79347587586345"><ele>628.6666666666667</ele><time>2026-05-03T14:41:17Z</time></trkpt><trkpt lat="43.911914915046545" lon="11.793221021223271"><ele>631.0</ele><time>2026-05-03T14:41:18Z</time></trkpt><trkpt lat="43.91188611129708" lon="11.792977298419263"><ele>631.0</ele><time>2026-05-03T14:41:19Z</time></trkpt><trkpt lat="43.91183120001055" lon="11.792793049923684"><ele>631.0</ele><time>2026-05-03T14:41:20Z</time></trkpt><trkpt lat="43.911729909794765" lon="11.792666837248458"><ele>631.0</ele><time>2026-05-03T14:41:21Z</time></trkpt><trkpt lat="43.91158566193724" lon="11.792600597841101"><ele>631.0</ele><time>2026-05-03T14:41:22Z</time></trkpt><trkpt lat="43.911419146049546" lon="11.792487279436106"><ele>626.25</ele><time>2026-05-03T14:41:23Z</time></trkpt><trkpt lat="43.91125582574891" lon="11.792409277866447"><ele>621.5</ele><time>2026-05-03T14:41:24Z</time></trkpt><trkpt lat="43.911160208541936" lon="11.792298897254271"><ele>616.75</ele><time>2026-05-03T14:41:25Z</time></trkpt><trkpt lat="43.91113664434523" lon="11.79213818579113"><ele>612.0</ele><time>2026-05-03T14:41:26Z</time></trkpt><trkpt lat="43.91112426869916" lon="11.791990961150447"><ele>612.0</ele><time>2026-05-03T14:41:27Z</time></trkpt><trkpt lat="43.911149610074276" lon="11.791844408510684"><ele>612.0</ele><time>2026-05-03T14:41:28Z</time></trkpt><trkpt lat="43.91120440657766" lon="11.791728915941375"><ele>612.0</ele><time>2026-05-03T14:41:29Z</time></trkpt><trkpt lat="43.91127227659655" lon="11.791573753550571"><ele>612.0</ele><time>2026-05-03T14:41:30Z</time></trkpt><trkpt lat="43.91134951096126" lon="11.7914541840314"><ele>612.8000000000001</ele><time>2026-05-03T14:41:31Z</time></trkpt><trkpt lat="43.91141967012788" lon="11.791346671567736"><ele>613.6</ele><time>2026-05-03T14:41:32Z</time></trkpt><trkpt lat="43.91149388289432" lon="11.791243671465976"><ele>614.4000000000001</ele><time>2026-05-03T14:41:33Z</time></trkpt><trkpt lat="43.91157345988619" lon="11.791140712059546"><ele>615.2</ele><time>2026-05-03T14:41:34Z</time></trkpt><trkpt lat="43.911662059551404" lon="11.791033574788177"><ele>616.0</ele><time>2026-05-03T14:41:35Z</time></trkpt><trkpt lat="43.911758019182415" lon="11.790917163491606"><ele>618.25</ele><time>2026-05-03T14:41:36Z</time></trkpt><trkpt lat="43.9118603155406" lon="11.79079613142391"><ele>620.5</ele><time>2026-05-03T14:41:37Z</time></trkpt><trkpt lat="43.91196341951332" lon="11.790671131501837"><ele>622.75</ele><time>2026-05-03T14:41:38Z</time></trkpt><trkpt lat="43.91206440141302" lon="11.790553138792577"><ele>625.0</ele><time>2026-05-03T14:41:39Z</time></trkpt><trkpt lat="43.912155334905" lon="11.790448393385326"><ele>625.0</ele><time>2026-05-03T14:41:40Z</time></trkpt><trkpt lat="43.91224047491633" lon="11.79034410389804"><ele>625.0</ele><time>2026-05-03T14:41:41Z</time></trkpt><trkpt lat="43.91233289214757" lon="11.790234910684399"><ele>625.0</ele><time>2026-05-03T14:41:42Z</time></trkpt><trkpt lat="43.91242457937474" lon="11.790114036561931"><ele>625.0</ele><time>2026-05-03T14:41:43Z</time></trkpt><trkpt lat="43.91252639915662" lon="11.789994036074507"><ele>626.25</ele><time>2026-05-03T14:41:44Z</time></trkpt><trkpt lat="43.912630884469195" lon="11.789871412950193"><ele>627.5</ele><time>2026-05-03T14:41:45Z</time></trkpt><trkpt lat="43.91273561526247" lon="11.78973856165446"><ele>628.75</ele><time>2026-05-03T14:41:46Z</time></trkpt><trkpt lat="43.912833290773435" lon="11.789621634846123"><ele>630.0</ele><time>2026-05-03T14:41:47Z</time></trkpt><trkpt lat="43.91291441765877" lon="11.789536574323291"><ele>630.0</ele><time>2026-05-03T14:41:48Z</time></trkpt><trkpt lat="43.912989040487" lon="11.789480372712266"><ele>630.0</ele><time>2026-05-03T14:41:49Z</time></trkpt><trkpt lat="43.913075835395716" lon="11.789441551819078"><ele>630.0</ele><time>2026-05-03T14:41:50Z</time></trkpt><trkpt lat="43.91315661292938" lon="11.789425527157686"><ele>630.0</ele><time>2026-05-03T14:41:52Z</time></trkpt><trkpt lat="43.91322464650787" lon="11.78940543001791"><ele>630.0</ele><time>2026-05-03T14:41:56Z</time></trkpt><trkpt lat="43.91330111905811" lon="11.789451923576225"><ele>630.0</ele><time>2026-05-03T14:43:23Z</time></trkpt><trkpt lat="43.91341371311186" lon="11.78952032363017"><ele>631.1666666666666</ele><time>2026-05-03T14:43:25Z</time></trkpt><trkpt lat="43.91349070007954" lon="11.789556681287271"><ele>632.3333333333334</ele><time>2026-05-03T14:43:26Z</time></trkpt><trkpt lat="43.913568438159245" lon="11.789604293338037"><ele>633.5</ele><time>2026-05-03T14:43:27Z</time></trkpt><trkpt lat="43.913648940204986" lon="11.789657524948945"><ele>634.6666666666667</ele><time>2026-05-03T14:43:28Z</time></trkpt><trkpt lat="43.913734649802144" lon="11.789709521977732"><ele>635.8333333333334</ele><time>2026-05-03T14:43:29Z</time></trkpt><trkpt lat="43.913828426404635" lon="11.789747972313652"><ele>637.0</ele><time>2026-05-03T14:43:30Z</time></trkpt><trkpt lat="43.91392630634576" lon="11.789796463401345"><ele>637.0</ele><time>2026-05-03T14:43:31Z</time></trkpt><trkpt lat="43.91403504350398" lon="11.789790573086329"><ele>637.0</ele><time>2026-05-03T14:43:32Z</time></trkpt><trkpt lat="43.91414347480476" lon="11.789775863297683"><ele>637.0</ele><time>2026-05-03T14:43:33Z</time></trkpt><trkpt lat="43.91425306122518" lon="11.789758974742112"><ele>637.0</ele><time>2026-05-03T14:43:34Z</time></trkpt><trkpt lat="43.91435433804054" lon="11.789721304461635"><ele>637.0</ele><time>2026-05-03T14:43:35Z</time></trkpt><trkpt lat="43.914451946046036" lon="11.789748603866332"><ele>638.2</ele><time>2026-05-03T14:43:36Z</time></trkpt><trkpt lat="43.9145420707478" lon="11.789812240869162"><ele>639.4000000000001</ele><time>2026-05-03T14:43:37Z</time></trkpt><trkpt lat="43.91464475842363" lon="11.78985262132504"><ele>640.5999999999999</ele><time>2026-05-03T14:43:38Z</time></trkpt><trkpt lat="43.914746137152655" lon="11.789902759880425"><ele>641.8</ele><time>2026-05-03T14:43:39Z</time></trkpt><trkpt lat="43.91485817521595" lon="11.789928822236043"><ele>643.0</ele><time>2026-05-03T14:43:40Z</time></trkpt><trkpt lat="43.91498084516415" lon="11.789922291374452"><ele>645.8</ele><time>2026-05-03T14:43:41Z</time></trkpt><trkpt lat="43.91509489760372" lon="11.78990421547518"><ele>648.5999999999999</ele><time>2026-05-03T14:43:42Z</time></trkpt><trkpt lat="43.91518839000537" lon="11.789874230931765"><ele>651.4000000000001</ele><time>2026-05-03T14:43:43Z</time></trkpt><trkpt lat="43.91526752425218" lon="11.789839234318311"><ele>654.2</ele><time>2026-05-03T14:43:44Z</time></trkpt><trkpt lat="43.91534141916834" lon="11.78979936125113"><ele>657.0</ele><time>2026-05-03T14:43:45Z</time></trkpt><trkpt lat="43.915415182033314" lon="11.789765977532229"><ele>657.0</ele><time>2026-05-03T14:43:46Z</time></trkpt><trkpt lat="43.91548909405281" lon="11.789725330431672"><ele>657.0</ele><time>2026-05-03T14:43:47Z</time></trkpt><trkpt lat="43.91555739561451" lon="11.78969796682326"><ele>657.0</ele><time>2026-05-03T14:43:48Z</time></trkpt><trkpt lat="43.91562196019193" lon="11.789674626638345"><ele>657.0</ele><time>2026-05-03T14:43:49Z</time></trkpt><trkpt lat="43.91569439698615" lon="11.78965717490264"><ele>657.0</ele><time>2026-05-03T14:43:50Z</time></trkpt><trkpt lat="43.91576953640365" lon="11.78963125834657"><ele>657.0</ele><time>2026-05-03T14:43:51Z</time></trkpt><trkpt lat="43.91583367935666" lon="11.789591098301226"><ele>657.0</ele><time>2026-05-03T14:43:52Z</time></trkpt><trkpt lat="43.91591632556965" lon="11.789566862548392"><ele>659.6</ele><time>2026-05-03T14:43:53Z</time></trkpt><trkpt lat="43.916006347334466" lon="11.789532691865938"><ele>662.2</ele><time>2026-05-03T14:43:54Z</time></trkpt><trkpt lat="43.916102997865025" lon="11.789498798164887"><ele>664.8</ele><time>2026-05-03T14:43:55Z</time></trkpt><trkpt lat="43.91620166444795" lon="11.78947409702661"><ele>667.4</ele><time>2026-05-03T14:43:56Z</time></trkpt><trkpt lat="43.91630712737867" lon="11.789485359534584"><ele>670.0</ele><time>2026-05-03T14:43:57Z</time></trkpt><trkpt lat="43.91642795159628" lon="11.78952758214034"><ele>670.0</ele><time>2026-05-03T14:43:58Z</time></trkpt><trkpt lat="43.91656046759486" lon="11.789576841953782"><ele>670.0</ele><time>2026-05-03T14:43:59Z</time></trkpt><trkpt lat="43.916707688245175" lon="11.78963554872389"><ele>670.0</ele><time>2026-05-03T14:44:00Z</time></trkpt><trkpt lat="43.91686471757932" lon="11.789678473588863"><ele>667.0</ele><time>2026-05-03T14:44:01Z</time></trkpt><trkpt lat="43.9169957735987" lon="11.789737502457488"><ele>664.0</ele><time>2026-05-03T14:44:02Z</time></trkpt><trkpt lat="43.91710456212084" lon="11.789790754237854"><ele>661.0</ele><time>2026-05-03T14:44:03Z</time></trkpt><trkpt lat="43.91717863632617" lon="11.789861965957842"><ele>658.0</ele><time>2026-05-03T14:44:04Z</time></trkpt><trkpt lat="43.91721915076501" lon="11.789956747269239"><ele>655.0</ele><time>2026-05-03T14:44:05Z</time></trkpt><trkpt lat="43.91722820990349" lon="11.790095306939387"><ele>659.2</ele><time>2026-05-03T14:44:06Z</time></trkpt><trkpt lat="43.91727700728285" lon="11.790221362822587"><ele>663.4</ele><time>2026-05-03T14:44:07Z</time></trkpt><trkpt lat="43.91731909024977" lon="11.790334596751931"><ele>667.5999999999999</ele><time>2026-05-03T14:44:08Z</time></trkpt><trkpt lat="43.917383544809155" lon="11.790408091496085"><ele>671.8</ele><time>2026-05-03T14:44:09Z</time></trkpt><trkpt lat="43.917472449031905" lon="11.790446424248278"><ele>676.0</ele><time>2026-05-03T14:44:10Z</time></trkpt><trkpt lat="43.91758564254937" lon="11.790426759816503"><ele>677.4</ele><time>2026-05-03T14:44:11Z</time></trkpt><trkpt lat="43.91767619498047" lon="11.790354869249287"><ele>678.8</ele><time>2026-05-03T14:44:12Z</time></trkpt><trkpt lat="43.91772957925756" lon="11.790238058225604"><ele>680.1999999999999</ele><time>2026-05-03T14:44:13Z</time></trkpt><trkpt lat="43.91776733943523" lon="11.790104236621481"><ele>681.5999999999999</ele><time>2026-05-03T14:44:14Z</time></trkpt><trkpt lat="43.91784469732719" lon="11.789982085537584"><ele>683.0</ele><time>2026-05-03T14:44:15Z</time></trkpt><trkpt lat="43.917914129127716" lon="11.78988267083376"><ele>683.0</ele><time>2026-05-03T14:44:16Z</time></trkpt><trkpt lat="43.917990641917875" lon="11.789892920926409"><ele>683.0</ele><time>2026-05-03T14:44:17Z</time></trkpt><trkpt lat="43.91804858956058" lon="11.789991700717662"><ele>683.0</ele><time>2026-05-03T14:44:18Z</time></trkpt><trkpt lat="43.91811910282713" lon="11.790096063373943"><ele>683.0</ele><time>2026-05-03T14:44:19Z</time></trkpt><trkpt lat="43.918215427153015" lon="11.79022607349133"><ele>683.0</ele><time>2026-05-03T14:44:20Z</time></trkpt><trkpt lat="43.91833532092999" lon="11.7903549862484"><ele>682.6666666666666</ele><time>2026-05-03T14:44:21Z</time></trkpt><trkpt lat="43.918460808876965" lon="11.790465181216442"><ele>682.3333333333334</ele><time>2026-05-03T14:44:22Z</time></trkpt><trkpt lat="43.91861400031304" lon="11.790522974221883"><ele>682.0</ele><time>2026-05-03T14:44:23Z</time></trkpt><trkpt lat="43.91877843299345" lon="11.79054434234386"><ele>682.0</ele><time>2026-05-03T14:44:24Z</time></trkpt><trkpt lat="43.91891761802298" lon="11.79056593818463"><ele>682.0</ele><time>2026-05-03T14:44:25Z</time></trkpt><trkpt lat="43.91901757068096" lon="11.790699640175239"><ele>682.0</ele><time>2026-05-03T14:44:26Z</time></trkpt><trkpt lat="43.91916921178729" lon="11.79078385945518"><ele>682.0</ele><time>2026-05-03T14:44:27Z</time></trkpt><trkpt lat="43.91935038722048" lon="11.790891650758763"><ele>687.0</ele><time>2026-05-03T14:44:28Z</time></trkpt><trkpt lat="43.91951502236115" lon="11.791020953351026"><ele>692.0</ele><time>2026-05-03T14:44:29Z</time></trkpt><trkpt lat="43.919631018859135" lon="11.791147595847804"><ele>697.0</ele><time>2026-05-03T14:44:30Z</time></trkpt><trkpt lat="43.919715912802545" lon="11.79127162558408"><ele>697.0</ele><time>2026-05-03T14:44:31Z</time></trkpt><trkpt lat="43.91973001805364" lon="11.79143500354451"><ele>697.0</ele><time>2026-05-03T14:44:32Z</time></trkpt><trkpt lat="43.91975463761669" lon="11.791583735593107"><ele>697.0</ele><time>2026-05-03T14:44:33Z</time></trkpt><trkpt lat="43.91976351840171" lon="11.79172272353007"><ele>697.0</ele><time>2026-05-03T14:44:34Z</time></trkpt><trkpt lat="43.919811602381614" lon="11.791810131026551"><ele>697.0</ele><time>2026-05-03T14:44:35Z</time></trkpt><trkpt lat="43.91989775011005" lon="11.79184263802038"><ele>697.0</ele><time>2026-05-03T14:44:36Z</time></trkpt><trkpt lat="43.91998946987016" lon="11.791815527301743"><ele>697.0</ele><time>2026-05-03T14:44:37Z</time></trkpt><trkpt lat="43.920081813536314" lon="11.791709384676228"><ele>697.0</ele><time>2026-05-03T14:44:38Z</time></trkpt><trkpt lat="43.92021513142722" lon="11.79163632639225"><ele>697.0</ele><time>2026-05-03T14:44:39Z</time></trkpt><trkpt lat="43.920375416243765" lon="11.791573356812743"><ele>699.3333333333334</ele><time>2026-05-03T14:44:40Z</time></trkpt><trkpt lat="43.92056486208661" lon="11.79146612479467"><ele>701.6666666666666</ele><time>2026-05-03T14:44:41Z</time></trkpt><trkpt lat="43.920728572520474" lon="11.791338056233151"><ele>704.0</ele><time>2026-05-03T14:44:42Z</time></trkpt><trkpt lat="43.92085581598422" lon="11.791278826644731"><ele>703.25</ele><time>2026-05-03T14:44:43Z</time></trkpt><trkpt lat="43.92094989991094" lon="11.791256006102135"><ele>702.5</ele><time>2026-05-03T14:44:44Z</time></trkpt><trkpt lat="43.92101228145543" lon="11.791372691101438"><ele>701.75</ele><time>2026-05-03T14:44:45Z</time></trkpt><trkpt lat="43.92110440856531" lon="11.79147597248679"><ele>701.0</ele><time>2026-05-03T14:44:46Z</time></trkpt><trkpt lat="43.921242070370155" lon="11.79158781989138"><ele>701.0</ele><time>2026-05-03T14:44:47Z</time></trkpt><trkpt lat="43.92139554940941" lon="11.791690118984723"><ele>701.0</ele><time>2026-05-03T14:44:48Z</time></trkpt><trkpt lat="43.921556556253776" lon="11.791789974406697"><ele>701.0</ele><time>2026-05-03T14:44:49Z</time></trkpt><trkpt lat="43.92168116620949" lon="11.791910333765895"><ele>705.0</ele><time>2026-05-03T14:44:50Z</time></trkpt><trkpt lat="43.9218227497357" lon="11.792064891230197"><ele>709.0</ele><time>2026-05-03T14:44:51Z</time></trkpt><trkpt lat="43.9219735525218" lon="11.79220119983772"><ele>713.0</ele><time>2026-05-03T14:44:52Z</time></trkpt><trkpt lat="43.922100914263105" lon="11.792324549841142"><ele>713.0</ele><time>2026-05-03T14:44:53Z</time></trkpt><trkpt lat="43.922205884903484" lon="11.792392642202763"><ele>713.0</ele><time>2026-05-03T14:44:54Z</time></trkpt><trkpt lat="43.922289241810326" lon="11.792419880875169"><ele>713.0</ele><time>2026-05-03T14:44:55Z</time></trkpt><trkpt lat="43.92238979746098" lon="11.792447811547204"><ele>713.0</ele><time>2026-05-03T14:44:56Z</time></trkpt><trkpt lat="43.922518890805776" lon="11.792477493014333"><ele>713.0</ele><time>2026-05-03T14:44:57Z</time></trkpt><trkpt lat="43.92266939566074" lon="11.792513755666898"><ele>713.25</ele><time>2026-05-03T14:44:58Z</time></trkpt><trkpt lat="43.922824738676695" lon="11.792553131062542"><ele>713.5</ele><time>2026-05-03T14:44:59Z</time></trkpt><trkpt lat="43.92294435752337" lon="11.79258164910546"><ele>713.75</ele><time>2026-05-03T14:45:00Z</time></trkpt><trkpt lat="43.92304411001105" lon="11.792609874350507"><ele>714.0</ele><time>2026-05-03T14:45:01Z</time></trkpt><trkpt lat="43.92313096520703" lon="11.792609229049855"><ele>714.0</ele><time>2026-05-03T14:45:02Z</time></trkpt><trkpt lat="43.92320786367134" lon="11.792626952060132"><ele>714.0</ele><time>2026-05-03T14:45:03Z</time></trkpt><trkpt lat="43.92329679325919" lon="11.792646268491326"><ele>714.0</ele><time>2026-05-03T14:45:04Z</time></trkpt><trkpt lat="43.92337979039101" lon="11.792666458072157"><ele>714.0</ele><time>2026-05-03T14:45:05Z</time></trkpt><trkpt lat="43.92345238956344" lon="11.792714268015542"><ele>714.0</ele><time>2026-05-03T14:45:06Z</time></trkpt><trkpt lat="43.92351607767375" lon="11.792758424963342"><ele>714.0</ele><time>2026-05-03T14:45:07Z</time></trkpt><trkpt lat="43.923569529038936" lon="11.792820198593523"><ele>716.8333333333334</ele><time>2026-05-03T14:45:08Z</time></trkpt><trkpt lat="43.9236274139838" lon="11.792888744471936"><ele>719.6666666666666</ele><time>2026-05-03T14:45:09Z</time></trkpt><trkpt lat="43.923691538712134" lon="11.792947201851474"><ele>722.5</ele><time>2026-05-03T14:45:10Z</time></trkpt><trkpt lat="43.92375056316124" lon="11.79301994894657"><ele>725.3333333333333</ele><time>2026-05-03T14:45:11Z</time></trkpt><trkpt lat="43.923816446847304" lon="11.793096193832252"><ele>728.1666666666666</ele><time>2026-05-03T14:45:12Z</time></trkpt><trkpt lat="43.92387565203577" lon="11.793200154108451"><ele>731.0</ele><time>2026-05-03T14:45:13Z</time></trkpt><trkpt lat="43.923955086130654" lon="11.793277900291484"><ele>731.0</ele><time>2026-05-03T14:45:14Z</time></trkpt><trkpt lat="43.924021469636024" lon="11.79336619302813"><ele>731.0</ele><time>2026-05-03T14:45:15Z</time></trkpt><trkpt lat="43.9240923397063" lon="11.793446487473393"><ele>731.0</ele><time>2026-05-03T14:45:16Z</time></trkpt><trkpt lat="43.92417075404926" lon="11.793521311367257"><ele>731.0</ele><time>2026-05-03T14:45:17Z</time></trkpt><trkpt lat="43.92425961170247" lon="11.793590231727656"><ele>731.0</ele><time>2026-05-03T14:45:18Z</time></trkpt><trkpt lat="43.92437514137253" lon="11.793664836306828"><ele>734.1999999999999</ele><time>2026-05-03T14:45:19Z</time></trkpt><trkpt lat="43.924493811824576" lon="11.793744568781564"><ele>737.4</ele><time>2026-05-03T14:45:20Z</time></trkpt><trkpt lat="43.92457894891959" lon="11.793856084102242"><ele>740.6</ele><time>2026-05-03T14:45:21Z</time></trkpt><trkpt lat="43.92465997293473" lon="11.793939442024035"><ele>743.8</ele><time>2026-05-03T14:45:22Z</time></trkpt><trkpt lat="43.924729212910464" lon="11.794014244098582"><ele>747.0</ele><time>2026-05-03T14:45:23Z</time></trkpt><trkpt lat="43.92480719763385" lon="11.794063556026092"><ele>747.0</ele><time>2026-05-03T14:45:24Z</time></trkpt><trkpt lat="43.924916666211296" lon="11.79401898547282"><ele>747.0</ele><time>2026-05-03T14:45:25Z</time></trkpt><trkpt lat="43.92504258891289" lon="11.794004717493138"><ele>747.0</ele><time>2026-05-03T14:45:26Z</time></trkpt><trkpt lat="43.92515965975127" lon="11.793942979289225"><ele>747.0</ele><time>2026-05-03T14:45:27Z</time></trkpt><trkpt lat="43.92529149359479" lon="11.793909717622624"><ele>749.5</ele><time>2026-05-03T14:45:28Z</time></trkpt><trkpt lat="43.92541116602" lon="11.79380439160145"><ele>752.0</ele><time>2026-05-03T14:45:29Z</time></trkpt><trkpt lat="43.92556111674444" lon="11.793733003841753"><ele>754.5</ele><time>2026-05-03T14:45:30Z</time></trkpt><trkpt lat="43.925682553724016" lon="11.79365081212443"><ele>757.0</ele><time>2026-05-03T14:45:31Z</time></trkpt><trkpt lat="43.92578293786611" lon="11.79357047731785"><ele>758.75</ele><time>2026-05-03T14:45:32Z</time></trkpt><trkpt lat="43.92586211732622" lon="11.793465819832534"><ele>760.5</ele><time>2026-05-03T14:45:33Z</time></trkpt><trkpt lat="43.92590511113845" lon="11.793281513082473"><ele>762.25</ele><time>2026-05-03T14:45:34Z</time></trkpt><trkpt lat="43.92598462110839" lon="11.793112128265161"><ele>764.0</ele><time>2026-05-03T14:45:35Z</time></trkpt><trkpt lat="43.92604708186903" lon="11.792943486381278"><ele>764.0</ele><time>2026-05-03T14:45:36Z</time></trkpt><trkpt lat="43.926082800044924" lon="11.792815887405654"><ele>764.0</ele><time>2026-05-03T14:45:37Z</time></trkpt><trkpt lat="43.926097918608406" lon="11.792715028619082"><ele>764.0</ele><time>2026-05-03T14:45:38Z</time></trkpt><trkpt lat="43.92604475538625" lon="11.792610663512104"><ele>764.0</ele><time>2026-05-03T14:45:39Z</time></trkpt><trkpt lat="43.92598121747318" lon="11.792535330381101"><ele>764.0</ele><time>2026-05-03T14:45:40Z</time></trkpt><trkpt lat="43.92590587483852" lon="11.792486186780073"><ele>764.0</ele><time>2026-05-03T14:45:41Z</time></trkpt><trkpt lat="43.92580904422616" lon="11.792461485879615"><ele>762.8333333333333</ele><time>2026-05-03T14:45:42Z</time></trkpt><trkpt lat="43.92571964371878" lon="11.792462883134721"><ele>761.6666666666666</ele><time>2026-05-03T14:45:43Z</time></trkpt><trkpt lat="43.925631541447096" lon="11.792488547812116"><ele>760.5</ele><time>2026-05-03T14:45:44Z</time></trkpt><trkpt lat="43.92555860486516" lon="11.792552234820388"><ele>759.3333333333334</ele><time>2026-05-03T14:45:45Z</time></trkpt><trkpt lat="43.92550070466806" lon="11.79264036464299"><ele>758.1666666666667</ele><time>2026-05-03T14:45:46Z</time></trkpt><trkpt lat="43.92545127959977" lon="11.792754755579121"><ele>757.0</ele><time>2026-05-03T14:45:47Z</time></trkpt><trkpt lat="43.925402982906675" lon="11.792878837059822"><ele>755.1666666666667</ele><time>2026-05-03T14:45:48Z</time></trkpt><trkpt lat="43.92534246277829" lon="11.792945314649744"><ele>753.3333333333334</ele><time>2026-05-03T14:45:49Z</time></trkpt><trkpt lat="43.92527351422567" lon="11.79297364413482"><ele>751.5</ele><time>2026-05-03T14:45:50Z</time></trkpt><trkpt lat="43.92519603407043" lon="11.79293379188788"><ele>749.6666666666666</ele><time>2026-05-03T14:45:51Z</time></trkpt><trkpt lat="43.925129067044516" lon="11.792852019265707"><ele>747.8333333333333</ele><time>2026-05-03T14:45:52Z</time></trkpt><trkpt lat="43.92506355482333" lon="11.792725933199637"><ele>746.0</ele><time>2026-05-03T14:45:53Z</time></trkpt><trkpt lat="43.92501171485213" lon="11.792577359582873"><ele>746.0</ele><time>2026-05-03T14:45:54Z</time></trkpt><trkpt lat="43.92500138342618" lon="11.792449705611133"><ele>746.0</ele><time>2026-05-03T14:45:55Z</time></trkpt><trkpt lat="43.92502343562898" lon="11.79232563482803"><ele>746.0</ele><time>2026-05-03T14:45:56Z</time></trkpt><trkpt lat="43.92510722082833" lon="11.792223121083872"><ele>746.0</ele><time>2026-05-03T14:45:57Z</time></trkpt><trkpt lat="43.92517405662594" lon="11.792083471209876"><ele>746.0</ele><time>2026-05-03T14:45:58Z</time></trkpt><trkpt lat="43.92524071831161" lon="11.791898083790054"><ele>754.0</ele><time>2026-05-03T14:45:59Z</time></trkpt><trkpt lat="43.92530393706248" lon="11.791706967607478"><ele>762.0</ele><time>2026-05-03T14:46:00Z</time></trkpt><trkpt lat="43.92534548407921" lon="11.7915209017842"><ele>770.0</ele><time>2026-05-03T14:46:01Z</time></trkpt><trkpt lat="43.92537054878589" lon="11.79136388414698"><ele>778.0</ele><time>2026-05-03T14:46:02Z</time></trkpt><trkpt lat="43.92539213134942" lon="11.791218114627938"><ele>778.0</ele><time>2026-05-03T14:46:03Z</time></trkpt><trkpt lat="43.92539680212935" lon="11.7910815943647"><ele>778.0</ele><time>2026-05-03T14:46:04Z</time></trkpt><trkpt lat="43.925371073722744" lon="11.79094903453544"><ele>778.0</ele><time>2026-05-03T14:46:05Z</time></trkpt><trkpt lat="43.925309008135756" lon="11.790827551872272"><ele>778.0</ele><time>2026-05-03T14:46:06Z</time></trkpt><trkpt lat="43.92523990594696" lon="11.790706304383585"><ele>778.0</ele><time>2026-05-03T14:46:07Z</time></trkpt><trkpt lat="43.92518466573506" lon="11.79058233991263"><ele>780.2</ele><time>2026-05-03T14:46:08Z</time></trkpt><trkpt lat="43.92517481081006" lon="11.790466485117902"><ele>782.4</ele><time>2026-05-03T14:46:09Z</time></trkpt><trkpt lat="43.92520867018954" lon="11.790371697318415"><ele>784.6</ele><time>2026-05-03T14:46:10Z</time></trkpt><trkpt lat="43.925295180458306" lon="11.790316640364468"><ele>786.8000000000001</ele><time>2026-05-03T14:46:11Z</time></trkpt><trkpt lat="43.92539278385606" lon="11.790273989904396"><ele>789.0</ele><time>2026-05-03T14:46:12Z</time></trkpt><trkpt lat="43.925490428244814" lon="11.790181262809345"><ele>787.25</ele><time>2026-05-03T14:46:13Z</time></trkpt><trkpt lat="43.925574748570305" lon="11.790077313265757"><ele>785.5</ele><time>2026-05-03T14:46:14Z</time></trkpt><trkpt lat="43.92563102575025" lon="11.789928646939382"><ele>783.75</ele><time>2026-05-03T14:46:15Z</time></trkpt><trkpt lat="43.92564724931171" lon="11.789723338961442"><ele>782.0</ele><time>2026-05-03T14:46:16Z</time></trkpt><trkpt lat="43.925671483825425" lon="11.789518125589899"><ele>782.0</ele><time>2026-05-03T14:46:17Z</time></trkpt><trkpt lat="43.925743087133114" lon="11.789377782467339"><ele>782.0</ele><time>2026-05-03T14:46:18Z</time></trkpt><trkpt lat="43.925828333545155" lon="11.789279515625603"><ele>782.0</ele><time>2026-05-03T14:46:19Z</time></trkpt><trkpt lat="43.92593134459306" lon="11.789165654547693"><ele>782.0</ele><time>2026-05-03T14:46:20Z</time></trkpt><trkpt lat="43.92605637133894" lon="11.789048805249976"><ele>787.3333333333334</ele><time>2026-05-03T14:46:21Z</time></trkpt><trkpt lat="43.926195710889175" lon="11.788968092730803"><ele>792.6666666666667</ele><time>2026-05-03T14:46:22Z</time></trkpt><trkpt lat="43.92635390135868" lon="11.788896411280279"><ele>798.0</ele><time>2026-05-03T14:46:23Z</time></trkpt><trkpt lat="43.92652721343444" lon="11.78881529866966"><ele>798.0</ele><time>2026-05-03T14:46:24Z</time></trkpt><trkpt lat="43.926693445241604" lon="11.788715756934517"><ele>798.0</ele><time>2026-05-03T14:46:25Z</time></trkpt><trkpt lat="43.92685305707617" lon="11.788620651439357"><ele>798.0</ele><time>2026-05-03T14:46:26Z</time></trkpt><trkpt lat="43.926996054568384" lon="11.788493627945146"><ele>798.6666666666667</ele><time>2026-05-03T14:46:27Z</time></trkpt><trkpt lat="43.927145069942874" lon="11.788360874894995"><ele>799.3333333333334</ele><time>2026-05-03T14:46:28Z</time></trkpt><trkpt lat="43.92728179282108" lon="11.788243889419618"><ele>800.0</ele><time>2026-05-03T14:46:29Z</time></trkpt><trkpt lat="43.92739376356885" lon="11.788136844887537"><ele>800.0000000000001</ele><time>2026-05-03T14:46:30Z</time></trkpt><trkpt lat="43.92748399984922" lon="11.788024952183589"><ele>800.0</ele><time>2026-05-03T14:46:31Z</time></trkpt><trkpt lat="43.92754877556636" lon="11.787933364129849"><ele>800.0</ele><time>2026-05-03T14:46:32Z</time></trkpt><trkpt lat="43.92758290618279" lon="11.787852694525235"><ele>800.0</ele><time>2026-05-03T14:46:33Z</time></trkpt><trkpt lat="43.92759004059554" lon="11.787749424329819"><ele>800.0000000000001</ele><time>2026-05-03T14:46:34Z</time></trkpt><trkpt lat="43.92756068225773" lon="11.787636092095397"><ele>800.0</ele><time>2026-05-03T14:46:35Z</time></trkpt><trkpt lat="43.92749099277096" lon="11.787541134330647"><ele>799.6</ele><time>2026-05-03T14:46:36Z</time></trkpt><trkpt lat="43.92740737393161" lon="11.787494713637727"><ele>799.2</ele><time>2026-05-03T14:46:37Z</time></trkpt><trkpt lat="43.927311725327634" lon="11.787492338146198"><ele>798.8</ele><time>2026-05-03T14:46:38Z</time></trkpt><trkpt lat="43.927213081755184" lon="11.78749994374538"><ele>798.4</ele><time>2026-05-03T14:46:39Z</time></trkpt><trkpt lat="43.92711223286364" lon="11.787460717735323"><ele>798.0</ele><time>2026-05-03T14:46:40Z</time></trkpt><trkpt lat="43.9270235977428" lon="11.787358613403255"><ele>798.0</ele><time>2026-05-03T14:46:41Z</time></trkpt><trkpt lat="43.92690827261949" lon="11.787276563713863"><ele>798.0</ele><time>2026-05-03T14:46:42Z</time></trkpt><trkpt lat="43.92680578457356" lon="11.787172341406093"><ele>798.0</ele><time>2026-05-03T14:46:43Z</time></trkpt><trkpt lat="43.92672135698269" lon="11.787055261733437"><ele>798.0</ele><time>2026-05-03T14:46:44Z</time></trkpt><trkpt lat="43.926656746792766" lon="11.78693378025656"><ele>799.5</ele><time>2026-05-03T14:46:45Z</time></trkpt><trkpt lat="43.92657545389425" lon="11.786782150263328"><ele>801.0</ele><time>2026-05-03T14:46:46Z</time></trkpt><trkpt lat="43.926504611085804" lon="11.786607717258814"><ele>802.5</ele><time>2026-05-03T14:46:47Z</time></trkpt><trkpt lat="43.92643164074104" lon="11.78642426173925"><ele>804.0</ele><time>2026-05-03T14:46:48Z</time></trkpt><trkpt lat="43.92636041654842" lon="11.786306738115368"><ele>804.0</ele><time>2026-05-03T14:46:49Z</time></trkpt><trkpt lat="43.926286487100285" lon="11.786223765775572"><ele>804.0</ele><time>2026-05-03T14:46:50Z</time></trkpt><trkpt lat="43.92620819551644" lon="11.786137504246621"><ele>804.0</ele><time>2026-05-03T14:46:51Z</time></trkpt><trkpt lat="43.92609090738508" lon="11.786142410225459"><ele>804.0</ele><time>2026-05-03T14:46:52Z</time></trkpt><trkpt lat="43.925977886338174" lon="11.786164980286577"><ele>804.0</ele><time>2026-05-03T14:46:53Z</time></trkpt><trkpt lat="43.92586373948948" lon="11.786225065541093"><ele>802.8000000000001</ele><time>2026-05-03T14:46:54Z</time></trkpt><trkpt lat="43.925770206560365" lon="11.786239373908522"><ele>801.6</ele><time>2026-05-03T14:46:55Z</time></trkpt><trkpt lat="43.92570153759721" lon="11.786160218670398"><ele>800.4</ele><time>2026-05-03T14:46:56Z</time></trkpt><trkpt lat="43.92561788286754" lon="11.786073972102962"><ele>799.2</ele><time>2026-05-03T14:46:57Z</time></trkpt><trkpt lat="43.92551371935327" lon="11.785976912170831"><ele>798.0</ele><time>2026-05-03T14:46:58Z</time></trkpt><trkpt lat="43.92542068406334" lon="11.78584590181054"><ele>801.0</ele><time>2026-05-03T14:46:59Z</time></trkpt><trkpt lat="43.92538011248164" lon="11.785691705701678"><ele>804.0</ele><time>2026-05-03T14:47:00Z</time></trkpt><trkpt lat="43.92532757841357" lon="11.785605398184252"><ele>807.0</ele><time>2026-05-03T14:47:01Z</time></trkpt><trkpt lat="43.92526586574712" lon="11.785542640615645"><ele>810.0</ele><time>2026-05-03T14:47:02Z</time></trkpt><trkpt lat="43.92515904342395" lon="11.785523169084431"><ele>813.0</ele><time>2026-05-03T14:47:03Z</time></trkpt><trkpt lat="43.92503047549264" lon="11.785523412940918"><ele>813.0</ele><time>2026-05-03T14:47:04Z</time></trkpt><trkpt lat="43.92488485823093" lon="11.785531206643242"><ele>813.0</ele><time>2026-05-03T14:47:05Z</time></trkpt><trkpt lat="43.92474321856173" lon="11.78548403787678"><ele>813.0</ele><time>2026-05-03T14:47:06Z</time></trkpt><trkpt lat="43.924605212767375" lon="11.785489368260446"><ele>813.0</ele><time>2026-05-03T14:47:07Z</time></trkpt><trkpt lat="43.924477653642334" lon="11.7855032216362"><ele>813.0</ele><time>2026-05-03T14:47:08Z</time></trkpt><trkpt lat="43.92434981173652" lon="11.78554946234611"><ele>813.0</ele><time>2026-05-03T14:47:09Z</time></trkpt><trkpt lat="43.92421391986168" lon="11.78561312010945"><ele>813.0</ele><time>2026-05-03T14:47:10Z</time></trkpt><trkpt lat="43.92408491033217" lon="11.785657513958332"><ele>813.0</ele><time>2026-05-03T14:47:11Z</time></trkpt><trkpt lat="43.92397702444611" lon="11.785664503015449"><ele>815.2</ele><time>2026-05-03T14:47:12Z</time></trkpt><trkpt lat="43.9238919482741" lon="11.785673519883908"><ele>817.4</ele><time>2026-05-03T14:47:13Z</time></trkpt><trkpt lat="43.92382158815004" lon="11.78569976694059"><ele>819.6</ele><time>2026-05-03T14:47:14Z</time></trkpt><trkpt lat="43.923763817071936" lon="11.785829526910133"><ele>821.8000000000001</ele><time>2026-05-03T14:47:15Z</time></trkpt><trkpt lat="43.92369964507457" lon="11.785975440348551"><ele>824.0</ele><time>2026-05-03T14:47:16Z</time></trkpt><trkpt lat="43.92360839484183" lon="11.786098696166032"><ele>823.2</ele><time>2026-05-03T14:47:17Z</time></trkpt><trkpt lat="43.9235011978957" lon="11.786223527152359"><ele>822.4000000000001</ele><time>2026-05-03T14:47:18Z</time></trkpt><trkpt lat="43.92340811095622" lon="11.786354925481998"><ele>821.6</ele><time>2026-05-03T14:47:19Z</time></trkpt><trkpt lat="43.92332906484682" lon="11.78640683127315"><ele>820.8</ele><time>2026-05-03T14:47:20Z</time></trkpt><trkpt lat="43.92325418785368" lon="11.786413100283102"><ele>820.0</ele><time>2026-05-03T14:47:21Z</time></trkpt><trkpt lat="43.92316630428937" lon="11.786390653941876"><ele>820.0</ele><time>2026-05-03T14:47:22Z</time></trkpt><trkpt lat="43.92305521718484" lon="11.786364320315153"><ele>820.0</ele><time>2026-05-03T14:47:23Z</time></trkpt><trkpt lat="43.92294101835034" lon="11.786324068472247"><ele>820.0</ele><time>2026-05-03T14:47:24Z</time></trkpt><trkpt lat="43.9228643626214" lon="11.78626030411814"><ele>820.0</ele><time>2026-05-03T14:47:25Z</time></trkpt><trkpt lat="43.92281470538836" lon="11.786166656450476"><ele>820.0</ele><time>2026-05-03T14:47:26Z</time></trkpt><trkpt lat="43.9227932007185" lon="11.786060460924961"><ele>825.0</ele><time>2026-05-03T14:47:27Z</time></trkpt><trkpt lat="43.922819233489285" lon="11.785952336253121"><ele>830.0</ele><time>2026-05-03T14:47:28Z</time></trkpt><trkpt lat="43.922892452427895" lon="11.785876458243768"><ele>835.0</ele><time>2026-05-03T14:47:29Z</time></trkpt><trkpt lat="43.922982742663734" lon="11.785809629129652"><ele>840.0</ele><time>2026-05-03T14:47:30Z</time></trkpt><trkpt lat="43.92306892465642" lon="11.785710998529792"><ele>845.0</ele><time>2026-05-03T14:47:31Z</time></trkpt><trkpt lat="43.92309309226795" lon="11.785562373617545"><ele>845.0</ele><time>2026-05-03T14:47:32Z</time></trkpt><trkpt lat="43.923090971396775" lon="11.785421935817608"><ele>845.0</ele><time>2026-05-03T14:47:33Z</time></trkpt><trkpt lat="43.92306820076823" lon="11.7852728961383"><ele>845.0</ele><time>2026-05-03T14:47:34Z</time></trkpt><trkpt lat="43.92312182622938" lon="11.785169866702722"><ele>845.0</ele><time>2026-05-03T14:47:35Z</time></trkpt><trkpt lat="43.92319403013904" lon="11.785072058493911"><ele>845.0</ele><time>2026-05-03T14:47:36Z</time></trkpt><trkpt lat="43.92329661838707" lon="11.784951970565862"><ele>847.6666666666667</ele><time>2026-05-03T14:47:37Z</time></trkpt><trkpt lat="43.9234256043252" lon="11.784848990612176"><ele>850.3333333333333</ele><time>2026-05-03T14:47:38Z</time></trkpt><trkpt lat="43.92357506471596" lon="11.784762729844665"><ele>853.0</ele><time>2026-05-03T14:47:39Z</time></trkpt><trkpt lat="43.923750514967196" lon="11.784691859562441"><ele>853.0</ele><time>2026-05-03T14:47:40Z</time></trkpt><trkpt lat="43.92391931125314" lon="11.784637601304317"><ele>853.0</ele><time>2026-05-03T14:47:41Z</time></trkpt><trkpt lat="43.9240726964901" lon="11.784613788645148"><ele>853.0</ele><time>2026-05-03T14:47:42Z</time></trkpt><trkpt lat="43.92422658558773" lon="11.78462612895858"><ele>852.0</ele><time>2026-05-03T14:47:43Z</time></trkpt><trkpt lat="43.92434082412072" lon="11.784657876704813"><ele>851.0</ele><time>2026-05-03T14:47:44Z</time></trkpt><trkpt lat="43.924405490040506" lon="11.784704578758255"><ele>850.0</ele><time>2026-05-03T14:47:45Z</time></trkpt><trkpt lat="43.924453014744316" lon="11.78479593828379"><ele>849.0</ele><time>2026-05-03T14:47:46Z</time></trkpt><trkpt lat="43.92452524739118" lon="11.784884747383318"><ele>848.0</ele><time>2026-05-03T14:47:47Z</time></trkpt><trkpt lat="43.92461280343784" lon="11.784935370884027"><ele>848.0</ele><time>2026-05-03T14:47:48Z</time></trkpt><trkpt lat="43.92471012558457" lon="11.784929159371192"><ele>848.0</ele><time>2026-05-03T14:47:49Z</time></trkpt><trkpt lat="43.92480352623201" lon="11.784848684892662"><ele>848.0</ele><time>2026-05-03T14:47:50Z</time></trkpt><trkpt lat="43.92489808739432" lon="11.784741071443218"><ele>848.0</ele><time>2026-05-03T14:47:51Z</time></trkpt><trkpt lat="43.92501310247976" lon="11.784622741434179"><ele>852.0</ele><time>2026-05-03T14:47:52Z</time></trkpt><trkpt lat="43.925143344195234" lon="11.784484449640287"><ele>856.0</ele><time>2026-05-03T14:47:53Z</time></trkpt><trkpt lat="43.925259077449795" lon="11.784308820833012"><ele>860.0</ele><time>2026-05-03T14:47:53.999Z</time></trkpt><trkpt lat="43.925368090447485" lon="11.784130788755151"><ele>865.5</ele><time>2026-05-03T14:47:55Z</time></trkpt><trkpt lat="43.92548543204302" lon="11.783970789554928"><ele>871.0</ele><time>2026-05-03T14:47:56Z</time></trkpt><trkpt lat="43.92559354383066" lon="11.783833247476894"><ele>876.5</ele><time>2026-05-03T14:47:57Z</time></trkpt><trkpt lat="43.925664473938575" lon="11.783711489528535"><ele>882.0</ele><time>2026-05-03T14:47:58Z</time></trkpt><trkpt lat="43.925718991735586" lon="11.783612729559092"><ele>883.0</ele><time>2026-05-03T14:47:59Z</time></trkpt><trkpt lat="43.92574177667563" lon="11.783500720167059"><ele>884.0</ele><time>2026-05-03T14:48:00Z</time></trkpt><trkpt lat="43.92573250430091" lon="11.783360828856981"><ele>885.0</ele><time>2026-05-03T14:48:01Z</time></trkpt><trkpt lat="43.92569687833643" lon="11.783209411417703"><ele>886.0</ele><time>2026-05-03T14:48:02Z</time></trkpt><trkpt lat="43.92565302924419" lon="11.783059270304742"><ele>887.0</ele><time>2026-05-03T14:48:03Z</time></trkpt><trkpt lat="43.92559805723553" lon="11.78294563972146"><ele>887.0</ele><time>2026-05-03T14:48:04Z</time></trkpt><trkpt lat="43.92552399395112" lon="11.782877700973037"><ele>887.0</ele><time>2026-05-03T14:48:05Z</time></trkpt><trkpt lat="43.92543148217359" lon="11.782833733467353"><ele>887.0</ele><time>2026-05-03T14:48:06Z</time></trkpt><trkpt lat="43.925342789205935" lon="11.78277651951789"><ele>887.0</ele><time>2026-05-03T14:48:07Z</time></trkpt><trkpt lat="43.92525520447291" lon="11.782709917830646"><ele>887.0</ele><time>2026-05-03T14:48:08Z</time></trkpt><trkpt lat="43.92515938091366" lon="11.782666483726295"><ele>887.2</ele><time>2026-05-03T14:48:09Z</time></trkpt><trkpt lat="43.9250516592572" lon="11.782656545972236"><ele>887.4000000000001</ele><time>2026-05-03T14:48:10Z</time></trkpt><trkpt lat="43.92493127588186" lon="11.782685248111544"><ele>887.5999999999999</ele><time>2026-05-03T14:48:11Z</time></trkpt><trkpt lat="43.924830799441665" lon="11.782689203199698"><ele>887.8</ele><time>2026-05-03T14:48:12Z</time></trkpt><trkpt lat="43.92477198850767" lon="11.782623889575179"><ele>888.0</ele><time>2026-05-03T14:48:13Z</time></trkpt><trkpt lat="43.9247595410628" lon="11.782513044029834"><ele>888.0</ele><time>2026-05-03T14:48:14Z</time></trkpt><trkpt lat="43.924795365859" lon="11.782388970022646"><ele>888.0</ele><time>2026-05-03T14:48:15Z</time></trkpt><trkpt lat="43.924793549170374" lon="11.782241043806602"><ele>888.0</ele><time>2026-05-03T14:48:16Z</time></trkpt><trkpt lat="43.92481608290267" lon="11.782074543814744"><ele>888.0</ele><time>2026-05-03T14:48:17Z</time></trkpt><trkpt lat="43.92481151445625" lon="11.781907172872252"><ele>888.0</ele><time>2026-05-03T14:48:18Z</time></trkpt><trkpt lat="43.92477277770683" lon="11.781757452191194"><ele>893.5</ele><time>2026-05-03T14:48:19Z</time></trkpt><trkpt lat="43.92471213616004" lon="11.78162819833423"><ele>899.0</ele><time>2026-05-03T14:48:20Z</time></trkpt><trkpt lat="43.92463205772742" lon="11.781522278216691"><ele>904.5</ele><time>2026-05-03T14:48:21Z</time></trkpt><trkpt lat="43.92452232497446" lon="11.7814351860985"><ele>910.0</ele><time>2026-05-03T14:48:22Z</time></trkpt><trkpt lat="43.92439546369416" lon="11.781339679780848"><ele>910.0</ele><time>2026-05-03T14:48:23Z</time></trkpt><trkpt lat="43.92426836502099" lon="11.781190966059887"><ele>910.0</ele><time>2026-05-03T14:48:24Z</time></trkpt><trkpt lat="43.92414938001388" lon="11.781024890840186"><ele>910.0</ele><time>2026-05-03T14:48:25Z</time></trkpt><trkpt lat="43.92404529448598" lon="11.780896297457952"><ele>909.4</ele><time>2026-05-03T14:48:26Z</time></trkpt><trkpt lat="43.923939320515295" lon="11.780842508832434"><ele>908.8</ele><time>2026-05-03T14:48:27Z</time></trkpt><trkpt lat="43.923840489840885" lon="11.780810156521127"><ele>908.2</ele><time>2026-05-03T14:48:28Z</time></trkpt><trkpt lat="43.92377198623007" lon="11.780731412661131"><ele>907.6</ele><time>2026-05-03T14:48:29Z</time></trkpt><trkpt lat="43.9237460581177" lon="11.78061090710833"><ele>907.0</ele><time>2026-05-03T14:48:30Z</time></trkpt><trkpt lat="43.92375926966778" lon="11.78049486577677"><ele>907.0</ele><time>2026-05-03T14:48:31Z</time></trkpt><trkpt lat="43.92381511274968" lon="11.780388231356934"><ele>907.0</ele><time>2026-05-03T14:48:32Z</time></trkpt><trkpt lat="43.923900603132026" lon="11.780294522440947"><ele>907.0</ele><time>2026-05-03T14:48:33Z</time></trkpt><trkpt lat="43.92400416338544" lon="11.780195456487196"><ele>907.0</ele><time>2026-05-03T14:48:34Z</time></trkpt><trkpt lat="43.92410734195588" lon="11.780073667345683"><ele>908.4999999999999</ele><time>2026-05-03T14:48:35Z</time></trkpt><trkpt lat="43.924171355871245" lon="11.779955421905267"><ele>910.0</ele><time>2026-05-03T14:48:36Z</time></trkpt><trkpt lat="43.92419821659133" lon="11.779862525116815"><ele>911.5</ele><time>2026-05-03T14:48:37Z</time></trkpt><trkpt lat="43.924163006428714" lon="11.779711203853031"><ele>913.0</ele><time>2026-05-03T14:48:39Z</time></trkpt><trkpt lat="43.924154066128715" lon="11.779619529168261"><ele>914.4999999999999</ele><time>2026-05-03T14:48:40Z</time></trkpt><trkpt lat="43.924112724898905" lon="11.779529698760221"><ele>916.0</ele><time>2026-05-03T14:48:41Z</time></trkpt><trkpt lat="43.92404713656068" lon="11.779441877769516"><ele>916.0</ele><time>2026-05-03T14:48:42Z</time></trkpt><trkpt lat="43.92396746811909" lon="11.779366210671018"><ele>915.9999999999999</ele><time>2026-05-03T14:48:43Z</time></trkpt><trkpt lat="43.92390163149022" lon="11.779258913469905"><ele>915.9999999999999</ele><time>2026-05-03T14:48:44Z</time></trkpt><trkpt lat="43.92383587876473" lon="11.779129492408613"><ele>916.0</ele><time>2026-05-03T14:48:45Z</time></trkpt><trkpt lat="43.92379941078339" lon="11.77898321886075"><ele>916.0</ele><time>2026-05-03T14:48:46Z</time></trkpt><trkpt lat="43.923785460707386" lon="11.778857729726878"><ele>918.1999999999999</ele><time>2026-05-03T14:48:47Z</time></trkpt><trkpt lat="43.92380922317345" lon="11.778748469298831"><ele>920.3999999999999</ele><time>2026-05-03T14:48:48Z</time></trkpt><trkpt lat="43.923863583928956" lon="11.778626013401249"><ele>922.6</ele><time>2026-05-03T14:48:49Z</time></trkpt><trkpt lat="43.9239136096945" lon="11.77848532495393"><ele>924.8</ele><time>2026-05-03T14:48:50Z</time></trkpt><trkpt lat="43.9239217978996" lon="11.778328399331029"><ele>927.0</ele><time>2026-05-03T14:48:51Z</time></trkpt><trkpt lat="43.92390705370152" lon="11.77813848856073"><ele>930.6666666666667</ele><time>2026-05-03T14:48:52Z</time></trkpt><trkpt lat="43.92389641164693" lon="11.777898222812786"><ele>934.3333333333334</ele><time>2026-05-03T14:48:53Z</time></trkpt><trkpt lat="43.92387834070096" lon="11.7776588709136"><ele>938.0</ele><time>2026-05-03T14:48:54Z</time></trkpt><trkpt lat="43.923844341489364" lon="11.77746035325162"><ele>941.25</ele><time>2026-05-03T14:48:55Z</time></trkpt><trkpt lat="43.92381870352154" lon="11.777300321070127"><ele>944.5</ele><time>2026-05-03T14:48:56Z</time></trkpt><trkpt lat="43.92382531959054" lon="11.777133064182392"><ele>947.75</ele><time>2026-05-03T14:48:57Z</time></trkpt><trkpt lat="43.92384607918012" lon="11.776958097129626"><ele>951.0</ele><time>2026-05-03T14:48:58Z</time></trkpt><trkpt lat="43.923854504532805" lon="11.776775380301574"><ele>954.75</ele><time>2026-05-03T14:48:59Z</time></trkpt><trkpt lat="43.9238480094873" lon="11.776599833085374"><ele>958.5</ele><time>2026-05-03T14:49:00Z</time></trkpt><trkpt lat="43.923786006323624" lon="11.776421498032738"><ele>962.25</ele><time>2026-05-03T14:49:01Z</time></trkpt><trkpt lat="43.92371308138691" lon="11.776245090485665"><ele>966.0</ele><time>2026-05-03T14:49:02Z</time></trkpt><trkpt lat="43.9236653253296" lon="11.776086888999268"><ele>970.0</ele><time>2026-05-03T14:49:03Z</time></trkpt><trkpt lat="43.92364084255976" lon="11.775946543294857"><ele>974.0</ele><time>2026-05-03T14:49:04Z</time></trkpt><trkpt lat="43.92359424866456" lon="11.775826476673306"><ele>978.0</ele><time>2026-05-03T14:49:05Z</time></trkpt><trkpt lat="43.923483891617444" lon="11.775704379564495"><ele>982.0</ele><time>2026-05-03T14:49:06Z</time></trkpt><trkpt lat="43.923343473535006" lon="11.775597278931045"><ele>973.75</ele><time>2026-05-03T14:49:07Z</time></trkpt><trkpt lat="43.92317984184008" lon="11.775512315815202"><ele>965.5</ele><time>2026-05-03T14:49:08Z</time></trkpt><trkpt lat="43.92302776435928" lon="11.775517947746442"><ele>957.25</ele><time>2026-05-03T14:49:09Z</time></trkpt><trkpt lat="43.922927151084856" lon="11.775508003045829"><ele>949.0</ele><time>2026-05-03T14:49:10Z</time></trkpt><trkpt lat="43.922857366985696" lon="11.77546808804258"><ele>949.0</ele><time>2026-05-03T14:49:11Z</time></trkpt><trkpt lat="43.92279865109125" lon="11.775398756116486"><ele>949.0000000000001</ele><time>2026-05-03T14:49:12Z</time></trkpt><trkpt lat="43.922757086547236" lon="11.775272829869108"><ele>949.0000000000001</ele><time>2026-05-03T14:49:13Z</time></trkpt><trkpt lat="43.92273093245921" lon="11.775119570224634"><ele>949.0</ele><time>2026-05-03T14:49:14Z</time></trkpt><trkpt lat="43.92270208476491" lon="11.774941197395767"><ele>949.0</ele><time>2026-05-03T14:49:15Z</time></trkpt><trkpt lat="43.92265625011906" lon="11.774742381411613"><ele>951.8000000000001</ele><time>2026-05-03T14:49:16Z</time></trkpt><trkpt lat="43.92262354635985" lon="11.774588685031553"><ele>954.6000000000001</ele><time>2026-05-03T14:49:17Z</time></trkpt><trkpt lat="43.922623741650405" lon="11.774482414166126"><ele>957.4</ele><time>2026-05-03T14:49:18Z</time></trkpt><trkpt lat="43.922711328411786" lon="11.774399252559707"><ele>960.2</ele><time>2026-05-03T14:49:20Z</time></trkpt><trkpt lat="43.92278664974108" lon="11.774433215176506"><ele>963.0</ele><time>2026-05-03T14:49:21Z</time></trkpt><trkpt lat="43.92285605379919" lon="11.774470307566975"><ele>963.0</ele><time>2026-05-03T14:49:22Z</time></trkpt><trkpt lat="43.922943856761435" lon="11.77451524393607"><ele>963.0</ele><time>2026-05-03T14:49:23Z</time></trkpt><trkpt lat="43.92303719501153" lon="11.774592966834671"><ele>963.0</ele><time>2026-05-03T14:49:24Z</time></trkpt><trkpt lat="43.92314465609616" lon="11.774655597905479"><ele>963.0</ele><time>2026-05-03T14:49:25Z</time></trkpt><trkpt lat="43.92324132605322" lon="11.774715356594596"><ele>963.0</ele><time>2026-05-03T14:49:26Z</time></trkpt><trkpt lat="43.92336234787249" lon="11.774720226786503"><ele>965.0</ele><time>2026-05-03T14:49:26.999Z</time></trkpt><trkpt lat="43.92349825041339" lon="11.774695376048111"><ele>967.0</ele><time>2026-05-03T14:49:27.999Z</time></trkpt><trkpt lat="43.923652550668635" lon="11.774642476277206"><ele>969.0</ele><time>2026-05-03T14:49:28.999Z</time></trkpt><trkpt lat="43.923824516687255" lon="11.774578748183243"><ele>969.0</ele><time>2026-05-03T14:49:29.999Z</time></trkpt><trkpt lat="43.92400424375734" lon="11.774507570053402"><ele>969.0</ele><time>2026-05-03T14:49:30.999Z</time></trkpt><trkpt lat="43.92418825825824" lon="11.774487324255844"><ele>969.0</ele><time>2026-05-03T14:49:31.999Z</time></trkpt><trkpt lat="43.92434806698304" lon="11.774456831313321"><ele>965.2</ele><time>2026-05-03T14:49:32.999Z</time></trkpt><trkpt lat="43.92447714840783" lon="11.77446459099565"><ele>961.4000000000001</ele><time>2026-05-03T14:49:33.999Z</time></trkpt><trkpt lat="43.924555687416685" lon="11.774517959659697"><ele>957.6</ele><time>2026-05-03T14:49:34.999Z</time></trkpt><trkpt lat="43.92462263141621" lon="11.774598602220735"><ele>953.8</ele><time>2026-05-03T14:49:35.999Z</time></trkpt><trkpt lat="43.92468767130445" lon="11.774722786254875"><ele>950.0</ele><time>2026-05-03T14:49:36.999Z</time></trkpt><trkpt lat="43.92478499048329" lon="11.774830693837199"><ele>950.0</ele><time>2026-05-03T14:49:37.999Z</time></trkpt><trkpt lat="43.92489167418083" lon="11.774886495175085"><ele>950.0</ele><time>2026-05-03T14:49:38.999Z</time></trkpt><trkpt lat="43.925015038737186" lon="11.774897143171925"><ele>950.0</ele><time>2026-05-03T14:49:39.999Z</time></trkpt><trkpt lat="43.92515682745761" lon="11.77488184694242"><ele>950.0</ele><time>2026-05-03T14:49:40.999Z</time></trkpt><trkpt lat="43.925310655830785" lon="11.774840306082123"><ele>949.0</ele><time>2026-05-03T14:49:41.999Z</time></trkpt><trkpt lat="43.925474778719035" lon="11.774762987376443"><ele>948.0</ele><time>2026-05-03T14:49:42.999Z</time></trkpt><trkpt lat="43.92563491058163" lon="11.77465248739196"><ele>947.0</ele><time>2026-05-03T14:49:43.999Z</time></trkpt><trkpt lat="43.92578577775637" lon="11.774525957924034"><ele>948.6666666666667</ele><time>2026-05-03T14:49:44.999Z</time></trkpt><trkpt lat="43.9259313055797" lon="11.774415586347377"><ele>950.3333333333333</ele><time>2026-05-03T14:49:46Z</time></trkpt><trkpt lat="43.9260604169419" lon="11.77429462883004"><ele>952.0</ele><time>2026-05-03T14:49:47Z</time></trkpt><trkpt lat="43.92618662689633" lon="11.774192525508793"><ele>947.25</ele><time>2026-05-03T14:49:48Z</time></trkpt><trkpt lat="43.92629661938516" lon="11.774078857528412"><ele>942.5</ele><time>2026-05-03T14:49:49Z</time></trkpt><trkpt lat="43.92641964806179" lon="11.77402697868537"><ele>937.75</ele><time>2026-05-03T14:49:50Z</time></trkpt><trkpt lat="43.92650950990472" lon="11.773953274140554"><ele>933.0</ele><time>2026-05-03T14:49:51Z</time></trkpt><trkpt lat="43.92658411759646" lon="11.773893107407472"><ele>933.0</ele><time>2026-05-03T14:49:52Z</time></trkpt><trkpt lat="43.92662172763134" lon="11.77379241149125"><ele>933.0</ele><time>2026-05-03T14:49:53Z</time></trkpt><trkpt lat="43.926636620085134" lon="11.773670439553118"><ele>933.0</ele><time>2026-05-03T14:49:54Z</time></trkpt><trkpt lat="43.926624921568774" lon="11.773532891946788"><ele>933.0</ele><time>2026-05-03T14:49:55Z</time></trkpt><trkpt lat="43.92659076827672" lon="11.773410692408968"><ele>933.0</ele><time>2026-05-03T14:49:56Z</time></trkpt><trkpt lat="43.9265356305894" lon="11.773328837120832"><ele>933.0</ele><time>2026-05-03T14:49:57Z</time></trkpt><trkpt lat="43.9264940395788" lon="11.773259593849833"><ele>929.8</ele><time>2026-05-03T14:49:58Z</time></trkpt><trkpt lat="43.92639601261554" lon="11.77330550579375"><ele>926.5999999999999</ele><time>2026-05-03T14:49:59Z</time></trkpt><trkpt lat="43.92629990240135" lon="11.77334687674436"><ele>923.4000000000001</ele><time>2026-05-03T14:50:00Z</time></trkpt><trkpt lat="43.92619151075428" lon="11.773368726287488"><ele>920.2</ele><time>2026-05-03T14:50:01Z</time></trkpt><trkpt lat="43.92607070680519" lon="11.773413417523251"><ele>917.0</ele><time>2026-05-03T14:50:02Z</time></trkpt><trkpt lat="43.925930665162085" lon="11.77345009559132"><ele>920.0</ele><time>2026-05-03T14:50:03Z</time></trkpt><trkpt lat="43.92577806438635" lon="11.773498616176958"><ele>923.0</ele><time>2026-05-03T14:50:04Z</time></trkpt><trkpt lat="43.92560462843475" lon="11.773556829809946"><ele>926.0</ele><time>2026-05-03T14:50:05Z</time></trkpt><trkpt lat="43.925434593734046" lon="11.77358450594396"><ele>926.0</ele><time>2026-05-03T14:50:06Z</time></trkpt><trkpt lat="43.925269980953075" lon="11.773630972883073"><ele>926.0</ele><time>2026-05-03T14:50:07Z</time></trkpt><trkpt lat="43.925121473934915" lon="11.773671676795693"><ele>926.0</ele><time>2026-05-03T14:50:08Z</time></trkpt><trkpt lat="43.92500893794497" lon="11.773722725871188"><ele>926.0</ele><time>2026-05-03T14:50:09Z</time></trkpt><trkpt lat="43.92491837344582" lon="11.773735348639317"><ele>925.6666666666667</ele><time>2026-05-03T14:50:10Z</time></trkpt><trkpt lat="43.92485067203616" lon="11.773689517803431"><ele>925.3333333333334</ele><time>2026-05-03T14:50:11Z</time></trkpt><trkpt lat="43.92478048897595" lon="11.773654241248789"><ele>925.0</ele><time>2026-05-03T14:50:12Z</time></trkpt><trkpt lat="43.924764248834556" lon="11.773539068303165"><ele>924.6666666666667</ele><time>2026-05-03T14:50:13Z</time></trkpt><trkpt lat="43.924762322039285" lon="11.773435770192949"><ele>924.3333333333334</ele><time>2026-05-03T14:50:14Z</time></trkpt><trkpt lat="43.92480341139521" lon="11.773331253024931"><ele>924.0</ele><time>2026-05-03T14:50:15Z</time></trkpt><trkpt lat="43.92487661604531" lon="11.773244937798692"><ele>919.75</ele><time>2026-05-03T14:50:16Z</time></trkpt><trkpt lat="43.92495941792781" lon="11.773154522735906"><ele>915.5</ele><time>2026-05-03T14:50:17Z</time></trkpt><trkpt lat="43.92506151932725" lon="11.773044538310725"><ele>911.25</ele><time>2026-05-03T14:50:18Z</time></trkpt><trkpt lat="43.92517892408712" lon="11.772923862187195"><ele>907.0</ele><time>2026-05-03T14:50:19Z</time></trkpt><trkpt lat="43.92531988173152" lon="11.772794941251547"><ele>903.0</ele><time>2026-05-03T14:50:20Z</time></trkpt><trkpt lat="43.9254702759858" lon="11.772665138791064"><ele>899.0</ele><time>2026-05-03T14:50:21Z</time></trkpt><trkpt lat="43.925613179259635" lon="11.77251624456752"><ele>895.0</ele><time>2026-05-03T14:50:22Z</time></trkpt><trkpt lat="43.92576028332398" lon="11.772399687146637"><ele>895.0</ele><time>2026-05-03T14:50:23Z</time></trkpt><trkpt lat="43.92589446180519" lon="11.772296287749846"><ele>895.0</ele><time>2026-05-03T14:50:24Z</time></trkpt><trkpt lat="43.92599857789928" lon="11.772168070778717"><ele>895.0</ele><time>2026-05-03T14:50:25Z</time></trkpt><trkpt lat="43.92610506277517" lon="11.772036657253944"><ele>895.0</ele><time>2026-05-03T14:50:26Z</time></trkpt><trkpt lat="43.926226705150206" lon="11.771896817691415"><ele>892.6666666666666</ele><time>2026-05-03T14:50:27Z</time></trkpt><trkpt lat="43.926343424759246" lon="11.771736770679325"><ele>890.3333333333333</ele><time>2026-05-03T14:50:28Z</time></trkpt><trkpt lat="43.92645813395899" lon="11.771578953267786"><ele>888.0</ele><time>2026-05-03T14:50:29Z</time></trkpt><trkpt lat="43.926551661786114" lon="11.771444628079385"><ele>888.0</ele><time>2026-05-03T14:50:30Z</time></trkpt><trkpt lat="43.926610534905834" lon="11.771323777350748"><ele>888.0</ele><time>2026-05-03T14:50:31Z</time></trkpt><trkpt lat="43.92665272299233" lon="11.771222345160567"><ele>888.0</ele><time>2026-05-03T14:50:32Z</time></trkpt><trkpt lat="43.92666847020666" lon="11.77109386097385"><ele>888.0</ele><time>2026-05-03T14:50:33Z</time></trkpt><trkpt lat="43.926650973806176" lon="11.770939480405904"><ele>888.0</ele><time>2026-05-03T14:50:34Z</time></trkpt><trkpt lat="43.92659937799478" lon="11.77079378108719"><ele>884.25</ele><time>2026-05-03T14:50:35Z</time></trkpt><trkpt lat="43.92652476637009" lon="11.770675414663824"><ele>880.5</ele><time>2026-05-03T14:50:36Z</time></trkpt><trkpt lat="43.92642410127791" lon="11.77058984511284"><ele>876.75</ele><time>2026-05-03T14:50:37Z</time></trkpt><trkpt lat="43.92631289227126" lon="11.770543973189689"><ele>873.0</ele><time>2026-05-03T14:50:38Z</time></trkpt><trkpt lat="43.926189294070234" lon="11.770511959068774"><ele>873.0</ele><time>2026-05-03T14:50:39Z</time></trkpt><trkpt lat="43.926044565974195" lon="11.77048053170888"><ele>873.0</ele><time>2026-05-03T14:50:40Z</time></trkpt><trkpt lat="43.92591548811236" lon="11.770458395575545"><ele>873.0</ele><time>2026-05-03T14:50:41Z</time></trkpt><trkpt lat="43.925824711852535" lon="11.770472077130359"><ele>873.0</ele><time>2026-05-03T14:50:42Z</time></trkpt><trkpt lat="43.92574805518937" lon="11.770529493666004"><ele>872.8</ele><time>2026-05-03T14:50:43Z</time></trkpt><trkpt lat="43.9256810070694" lon="11.770639848371298"><ele>872.5999999999999</ele><time>2026-05-03T14:50:44Z</time></trkpt><trkpt lat="43.92561698156947" lon="11.77078061822702"><ele>872.4000000000001</ele><time>2026-05-03T14:50:45Z</time></trkpt><trkpt lat="43.92554339225395" lon="11.770918991086699"><ele>872.2</ele><time>2026-05-03T14:50:46Z</time></trkpt><trkpt lat="43.925464091854664" lon="11.770996210652797"><ele>872.0</ele><time>2026-05-03T14:50:47Z</time></trkpt><trkpt lat="43.92534520942089" lon="11.771045696867395"><ele>872.25</ele><time>2026-05-03T14:50:48Z</time></trkpt><trkpt lat="43.92522092544204" lon="11.77107831509106"><ele>872.5</ele><time>2026-05-03T14:50:49Z</time></trkpt><trkpt lat="43.92507395849653" lon="11.771111924040476"><ele>872.75</ele><time>2026-05-03T14:50:50Z</time></trkpt><trkpt lat="43.92492542508037" lon="11.771171459248725"><ele>873.0</ele><time>2026-05-03T14:50:51Z</time></trkpt><trkpt lat="43.92479552326217" lon="11.771225995595364"><ele>873.0</ele><time>2026-05-03T14:50:52Z</time></trkpt><trkpt lat="43.924686264964684" lon="11.771327118950998"><ele>873.0</ele><time>2026-05-03T14:50:53Z</time></trkpt><trkpt lat="43.924582999464334" lon="11.771408171152252"><ele>873.0</ele><time>2026-05-03T14:50:54Z</time></trkpt><trkpt lat="43.924515782977146" lon="11.771447081078021"><ele>873.0</ele><time>2026-05-03T14:50:55Z</time></trkpt><trkpt lat="43.92444901063805" lon="11.771371713223585"><ele>873.0</ele><time>2026-05-03T14:50:57Z</time></trkpt><trkpt lat="43.92450849797367" lon="11.771201926371166"><ele>873.0</ele><time>2026-05-03T14:50:59Z</time></trkpt><trkpt lat="43.92459778571661" lon="11.771160531022892"><ele>873.0</ele><time>2026-05-03T14:51:00Z</time></trkpt><trkpt lat="43.92469023934784" lon="11.771087125215029"><ele>873.0</ele><time>2026-05-03T14:51:01Z</time></trkpt><trkpt lat="43.924798663612314" lon="11.770972650290545"><ele>873.0</ele><time>2026-05-03T14:51:02Z</time></trkpt><trkpt lat="43.924946469475664" lon="11.770855583943446"><ele>872.75</ele><time>2026-05-03T14:51:03Z</time></trkpt><trkpt lat="43.92509694618607" lon="11.770714828342212"><ele>872.5</ele><time>2026-05-03T14:51:04Z</time></trkpt><trkpt lat="43.925215841382496" lon="11.770611840631622"><ele>872.25</ele><time>2026-05-03T14:51:05Z</time></trkpt><trkpt lat="43.92529762468565" lon="11.770512227577479"><ele>872.0</ele><time>2026-05-03T14:51:06Z</time></trkpt><trkpt lat="43.925356307263094" lon="11.77035791701389"><ele>866.3333333333334</ele><time>2026-05-03T14:51:07Z</time></trkpt><trkpt lat="43.9253992199054" lon="11.770161911564983"><ele>860.6666666666667</ele><time>2026-05-03T14:51:08Z</time></trkpt><trkpt lat="43.925444521976985" lon="11.769934316986603"><ele>855.0</ele><time>2026-05-03T14:51:09Z</time></trkpt><trkpt lat="43.92550514509384" lon="11.769688081673195"><ele>855.0</ele><time>2026-05-03T14:51:10Z</time></trkpt><trkpt lat="43.92556190789741" lon="11.769488940797345"><ele>855.0</ele><time>2026-05-03T14:51:11Z</time></trkpt><trkpt lat="43.92564101099505" lon="11.769376897679246"><ele>855.0</ele><time>2026-05-03T14:51:12Z</time></trkpt><trkpt lat="43.925723952070435" lon="11.769339132206548"><ele>855.0</ele><time>2026-05-03T14:51:13Z</time></trkpt><trkpt lat="43.92582490256162" lon="11.769287975694978"><ele>845.5</ele><time>2026-05-03T14:51:14Z</time></trkpt><trkpt lat="43.925946150509986" lon="11.769231704578656"><ele>836.0</ele><time>2026-05-03T14:51:15Z</time></trkpt><trkpt lat="43.92607844704197" lon="11.769184250473495"><ele>826.5</ele><time>2026-05-03T14:51:16Z</time></trkpt><trkpt lat="43.926175652661456" lon="11.769249444062366"><ele>817.0</ele><time>2026-05-03T14:51:17Z</time></trkpt><trkpt lat="43.926241984959084" lon="11.769344473902217"><ele>825.0</ele><time>2026-05-03T14:51:18Z</time></trkpt><trkpt lat="43.926340983150084" lon="11.769453079071814"><ele>833.0</ele><time>2026-05-03T14:51:19Z</time></trkpt><trkpt lat="43.9264660906788" lon="11.769565311809515"><ele>841.0</ele><time>2026-05-03T14:51:20Z</time></trkpt><trkpt lat="43.92658355220309" lon="11.769684288742631"><ele>849.0</ele><time>2026-05-03T14:51:21Z</time></trkpt><trkpt lat="43.9266853813734" lon="11.769757333020548"><ele>844.75</ele><time>2026-05-03T14:51:22Z</time></trkpt><trkpt lat="43.92679669572713" lon="11.769790863109582"><ele>840.5</ele><time>2026-05-03T14:51:23Z</time></trkpt><trkpt lat="43.926923642895666" lon="11.769771779897711"><ele>836.25</ele><time>2026-05-03T14:51:24Z</time></trkpt><trkpt lat="43.92705086199537" lon="11.769708364161737"><ele>832.0</ele><time>2026-05-03T14:51:25Z</time></trkpt><trkpt lat="43.92717811398124" lon="11.769692759505668"><ele>832.0</ele><time>2026-05-03T14:51:26Z</time></trkpt><trkpt lat="43.92729629981261" lon="11.76970712939689"><ele>832.0</ele><time>2026-05-03T14:51:27Z</time></trkpt><trkpt lat="43.927409192344605" lon="11.769754723019437"><ele>832.0</ele><time>2026-05-03T14:51:28Z</time></trkpt><trkpt lat="43.92753707430964" lon="11.769824332283145"><ele>832.0</ele><time>2026-05-03T14:51:29Z</time></trkpt><trkpt lat="43.92767869570581" lon="11.769897473073994"><ele>828.25</ele><time>2026-05-03T14:51:30Z</time></trkpt><trkpt lat="43.927807889205035" lon="11.769963129645731"><ele>824.5</ele><time>2026-05-03T14:51:31Z</time></trkpt><trkpt lat="43.92793595811055" lon="11.77002821475023"><ele>820.75</ele><time>2026-05-03T14:51:32Z</time></trkpt><trkpt lat="43.928066126904646" lon="11.770048087230878"><ele>817.0</ele><time>2026-05-03T14:51:33Z</time></trkpt><trkpt lat="43.92819178531062" lon="11.770064291396176"><ele>817.0</ele><time>2026-05-03T14:51:34Z</time></trkpt><trkpt lat="43.928314208308024" lon="11.770034992867716"><ele>817.0</ele><time>2026-05-03T14:51:35Z</time></trkpt><trkpt lat="43.92844544515903" lon="11.769990644937716"><ele>817.0</ele><time>2026-05-03T14:51:36Z</time></trkpt><trkpt lat="43.92858879263007" lon="11.769929701559855"><ele>817.0</ele><time>2026-05-03T14:51:37Z</time></trkpt><trkpt lat="43.92874584049287" lon="11.769855672583695"><ele>814.3333333333333</ele><time>2026-05-03T14:51:38Z</time></trkpt><trkpt lat="43.92892023897934" lon="11.76977329766859"><ele>811.6666666666667</ele><time>2026-05-03T14:51:39Z</time></trkpt><trkpt lat="43.929089088738856" lon="11.769673317183562"><ele>809.0</ele><time>2026-05-03T14:51:40Z</time></trkpt><trkpt lat="43.92925031889169" lon="11.76961740676248"><ele>804.8000000000001</ele><time>2026-05-03T14:51:41Z</time></trkpt><trkpt lat="43.92937749907784" lon="11.769563017609006"><ele>800.6</ele><time>2026-05-03T14:51:42Z</time></trkpt><trkpt lat="43.929498731006525" lon="11.769535706331217"><ele>796.4</ele><time>2026-05-03T14:51:43Z</time></trkpt><trkpt lat="43.92960333086412" lon="11.7695391302469"><ele>792.2</ele><time>2026-05-03T14:51:44Z</time></trkpt><trkpt lat="43.929686442582664" lon="11.769569300439693"><ele>788.0</ele><time>2026-05-03T14:51:45Z</time></trkpt><trkpt lat="43.92975398157538" lon="11.76956581133217"><ele>788.0</ele><time>2026-05-03T14:51:46Z</time></trkpt><trkpt lat="43.92985346207121" lon="11.769574596275346"><ele>788.0</ele><time>2026-05-03T14:51:48Z</time></trkpt><trkpt lat="43.92989881498369" lon="11.7699086328262"><ele>788.0</ele><time>2026-05-03T14:51:49Z</time></trkpt><trkpt lat="43.92995749312054" lon="11.770000830266659"><ele>788.0</ele><time>2026-05-03T14:51:50Z</time></trkpt><trkpt lat="43.93001530141942" lon="11.770103275205638"><ele>781.2</ele><time>2026-05-03T14:51:51Z</time></trkpt><trkpt lat="43.93007967237774" lon="11.770212554390477"><ele>774.4</ele><time>2026-05-03T14:51:52Z</time></trkpt><trkpt lat="43.93013836103336" lon="11.77033522121699"><ele>767.6</ele><time>2026-05-03T14:51:53Z</time></trkpt><trkpt lat="43.93016809430337" lon="11.77047090919851"><ele>760.8000000000001</ele><time>2026-05-03T14:51:54Z</time></trkpt><trkpt lat="43.9301948660025" lon="11.770597984007937"><ele>754.0</ele><time>2026-05-03T14:51:55Z</time></trkpt><trkpt lat="43.93020661215223" lon="11.77073115109201"><ele>754.0</ele><time>2026-05-03T14:51:56Z</time></trkpt><trkpt lat="43.93022290684667" lon="11.770882580563136"><ele>754.0</ele><time>2026-05-03T14:51:57Z</time></trkpt><trkpt lat="43.93023435614851" lon="11.771054294483719"><ele>754.0</ele><time>2026-05-03T14:51:58Z</time></trkpt><trkpt lat="43.93023915488239" lon="11.771215109350607"><ele>754.0</ele><time>2026-05-03T14:51:59Z</time></trkpt><trkpt lat="43.93025738504078" lon="11.771345565967398"><ele>754.0</ele><time>2026-05-03T14:52:00Z</time></trkpt><trkpt lat="43.93028282954516" lon="11.77146059460417"><ele>758.2</ele><time>2026-05-03T14:52:01Z</time></trkpt><trkpt lat="43.93033434653523" lon="11.771557827610549"><ele>762.4000000000001</ele><time>2026-05-03T14:52:02Z</time></trkpt><trkpt lat="43.93040263746381" lon="11.771627063111685"><ele>766.6</ele><time>2026-05-03T14:52:03Z</time></trkpt><trkpt lat="43.93048292799336" lon="11.771675140109483"><ele>770.8</ele><time>2026-05-03T14:52:04Z</time></trkpt><trkpt lat="43.93058308193012" lon="11.771710885995898"><ele>775.0</ele><time>2026-05-03T14:52:05Z</time></trkpt><trkpt lat="43.93069618965568" lon="11.771741930255944"><ele>775.0</ele><time>2026-05-03T14:52:06Z</time></trkpt><trkpt lat="43.93081150145629" lon="11.77177256190491"><ele>775.0</ele><time>2026-05-03T14:52:07Z</time></trkpt><trkpt lat="43.93093597393797" lon="11.77179525881405"><ele>775.0</ele><time>2026-05-03T14:52:08Z</time></trkpt><trkpt lat="43.93105866694398" lon="11.77188884279411"><ele>775.0</ele><time>2026-05-03T14:52:09Z</time></trkpt><trkpt lat="43.93120928837073" lon="11.771942928441565"><ele>774.5</ele><time>2026-05-03T14:52:10Z</time></trkpt><trkpt lat="43.93135317374445" lon="11.7719883160938"><ele>774.0</ele><time>2026-05-03T14:52:11Z</time></trkpt><trkpt lat="43.9314790947941" lon="11.772023172367776"><ele>773.5</ele><time>2026-05-03T14:52:12Z</time></trkpt><trkpt lat="43.9315823127861" lon="11.772064709157231"><ele>773.0</ele><time>2026-05-03T14:52:13Z</time></trkpt><trkpt lat="43.931668914533155" lon="11.772128080591331"><ele>773.0</ele><time>2026-05-03T14:52:14Z</time></trkpt><trkpt lat="43.93171776700298" lon="11.772216851866625"><ele>773.0</ele><time>2026-05-03T14:52:15Z</time></trkpt><trkpt lat="43.93176363200556" lon="11.772341510306765"><ele>773.0</ele><time>2026-05-03T14:52:16Z</time></trkpt><trkpt lat="43.93180695078818" lon="11.772498330524849"><ele>773.0</ele><time>2026-05-03T14:52:17Z</time></trkpt><trkpt lat="43.93187797047319" lon="11.772666838055136"><ele>773.0</ele><time>2026-05-03T14:52:18Z</time></trkpt><trkpt lat="43.93194141503666" lon="11.772804860538864"><ele>770.5999999999999</ele><time>2026-05-03T14:52:19Z</time></trkpt><trkpt lat="43.93200227928615" lon="11.77292157987224"><ele>768.1999999999999</ele><time>2026-05-03T14:52:20Z</time></trkpt><trkpt lat="43.93206190566126" lon="11.773029752685648"><ele>765.8</ele><time>2026-05-03T14:52:21Z</time></trkpt><trkpt lat="43.932114874643865" lon="11.773134863681895"><ele>763.4</ele><time>2026-05-03T14:52:22Z</time></trkpt><trkpt lat="43.9321717704188" lon="11.77322858413815"><ele>761.0</ele><time>2026-05-03T14:52:23Z</time></trkpt><trkpt lat="43.932254607696294" lon="11.77330873268501"><ele>761.0</ele><time>2026-05-03T14:52:24Z</time></trkpt><trkpt lat="43.93235613853697" lon="11.7734049000896"><ele>761.0</ele><time>2026-05-03T14:52:25Z</time></trkpt><trkpt lat="43.932457257160394" lon="11.773488929998667"><ele>761.0</ele><time>2026-05-03T14:52:26Z</time></trkpt><trkpt lat="43.93253248309104" lon="11.773548766542374"><ele>761.0</ele><time>2026-05-03T14:52:27Z</time></trkpt><trkpt lat="43.93259957691318" lon="11.773581802570895"><ele>761.0</ele><time>2026-05-03T14:52:28Z</time></trkpt><trkpt lat="43.93266464460565" lon="11.773580291602721"><ele>759.0</ele><time>2026-05-03T14:52:29Z</time></trkpt><trkpt lat="43.932748389585875" lon="11.773547562495446"><ele>757.0</ele><time>2026-05-03T14:52:30Z</time></trkpt><trkpt lat="43.93285642473244" lon="11.773490932434258"><ele>755.0</ele><time>2026-05-03T14:52:31Z</time></trkpt><trkpt lat="43.93297371004901" lon="11.77342179533849"><ele>753.0</ele><time>2026-05-03T14:52:32Z</time></trkpt><trkpt lat="43.93307557190198" lon="11.773358829970812"><ele>751.0</ele><time>2026-05-03T14:52:33Z</time></trkpt><trkpt lat="43.93314413061904" lon="11.773285176352504"><ele>751.0</ele><time>2026-05-03T14:52:34Z</time></trkpt><trkpt lat="43.93318594412735" lon="11.773189036909763"><ele>751.0</ele><time>2026-05-03T14:52:35Z</time></trkpt><trkpt lat="43.933192964692786" lon="11.773082699573242"><ele>751.0</ele><time>2026-05-03T14:52:36Z</time></trkpt><trkpt lat="43.933169469256256" lon="11.772988764099981"><ele>751.0</ele><time>2026-05-03T14:52:37Z</time></trkpt><trkpt lat="43.933117635351365" lon="11.772894328578193"><ele>751.0</ele><time>2026-05-03T14:52:38Z</time></trkpt><trkpt lat="43.933045872203856" lon="11.77279527335631"><ele>751.0</ele><time>2026-05-03T14:52:39Z</time></trkpt><trkpt lat="43.93297253356949" lon="11.772680446408847"><ele>751.25</ele><time>2026-05-03T14:52:40Z</time></trkpt><trkpt lat="43.93289549382576" lon="11.772545507937373"><ele>751.5</ele><time>2026-05-03T14:52:41Z</time></trkpt><trkpt lat="43.93283995561759" lon="11.772410413531267"><ele>751.75</ele><time>2026-05-03T14:52:42Z</time></trkpt><trkpt lat="43.93279681533566" lon="11.772260073361407"><ele>752.0</ele><time>2026-05-03T14:52:43Z</time></trkpt><trkpt lat="43.93276938995878" lon="11.772098904747574"><ele>752.0</ele><time>2026-05-03T14:52:44Z</time></trkpt><trkpt lat="43.93275370169389" lon="11.771923081061"><ele>752.0</ele><time>2026-05-03T14:52:45Z</time></trkpt><trkpt lat="43.93273978390337" lon="11.771740318190403"><ele>752.0</ele><time>2026-05-03T14:52:46Z</time></trkpt><trkpt lat="43.932725683545875" lon="11.77154471742934"><ele>752.0</ele><time>2026-05-03T14:52:47Z</time></trkpt><trkpt lat="43.93270849983656" lon="11.771337180956479"><ele>751.4000000000001</ele><time>2026-05-03T14:52:48Z</time></trkpt><trkpt lat="43.932691745820755" lon="11.771137548833277"><ele>750.8000000000001</ele><time>2026-05-03T14:52:49Z</time></trkpt><trkpt lat="43.93268283414926" lon="11.770984131895224"><ele>750.2</ele><time>2026-05-03T14:52:50Z</time></trkpt><trkpt lat="43.93266398233258" lon="11.770857850155553"><ele>749.6</ele><time>2026-05-03T14:52:51Z</time></trkpt><trkpt lat="43.932616440620166" lon="11.77075895536631"><ele>749.0</ele><time>2026-05-03T14:52:52Z</time></trkpt><trkpt lat="43.932537317734095" lon="11.770686879084668"><ele>749.0</ele><time>2026-05-03T14:52:53Z</time></trkpt><trkpt lat="43.93243427233634" lon="11.770651164868035"><ele>749.0</ele><time>2026-05-03T14:52:54Z</time></trkpt><trkpt lat="43.93232289370528" lon="11.770627012795115"><ele>749.0</ele><time>2026-05-03T14:52:55Z</time></trkpt><trkpt lat="43.93225302578429" lon="11.770566698027665"><ele>749.0</ele><time>2026-05-03T14:52:56Z</time></trkpt><trkpt lat="43.932209834600066" lon="11.770476821108277"><ele>749.0</ele><time>2026-05-03T14:52:57Z</time></trkpt><trkpt lat="43.93218988707293" lon="11.770353437878375"><ele>749.0</ele><time>2026-05-03T14:52:58Z</time></trkpt><trkpt lat="43.932181888609286" lon="11.770210045242976"><ele>749.0</ele><time>2026-05-03T14:52:59Z</time></trkpt><trkpt lat="43.93217792561602" lon="11.770051238566978"><ele>749.0</ele><time>2026-05-03T14:53:00Z</time></trkpt><trkpt lat="43.93216670211234" lon="11.769871247351952"><ele>749.0</ele><time>2026-05-03T14:53:01Z</time></trkpt><trkpt lat="43.9321601499057" lon="11.769708505815514"><ele>749.8333333333333</ele><time>2026-05-03T14:53:02Z</time></trkpt><trkpt lat="43.932118004387526" lon="11.769584990573499"><ele>750.6666666666666</ele><time>2026-05-03T14:53:03Z</time></trkpt><trkpt lat="43.93205811769474" lon="11.769490833667462"><ele>751.5</ele><time>2026-05-03T14:53:04Z</time></trkpt><trkpt lat="43.931983731459354" lon="11.769439011969668"><ele>752.3333333333334</ele><time>2026-05-03T14:53:05Z</time></trkpt><trkpt lat="43.93190825085726" lon="11.769386289091337"><ele>753.1666666666667</ele><time>2026-05-03T14:53:06Z</time></trkpt><trkpt lat="43.931823946104075" lon="11.769345718967184"><ele>754.0</ele><time>2026-05-03T14:53:07Z</time></trkpt><trkpt lat="43.93172350550054" lon="11.769313446915413"><ele>754.0</ele><time>2026-05-03T14:53:08Z</time></trkpt><trkpt lat="43.931624267880515" lon="11.769264296580511"><ele>754.0</ele><time>2026-05-03T14:53:09Z</time></trkpt><trkpt lat="43.9315224428688" lon="11.769203020488593"><ele>754.0</ele><time>2026-05-03T14:53:10Z</time></trkpt><trkpt lat="43.93141615032858" lon="11.769132575097917"><ele>754.0</ele><time>2026-05-03T14:53:11Z</time></trkpt><trkpt lat="43.931312063080554" lon="11.76904659361396"><ele>754.0</ele><time>2026-05-03T14:53:12Z</time></trkpt><trkpt lat="43.93122897477148" lon="11.768940349024506"><ele>754.0</ele><time>2026-05-03T14:53:13Z</time></trkpt><trkpt lat="43.9311623883322" lon="11.768821550438867"><ele>754.0</ele><time>2026-05-03T14:53:14Z</time></trkpt><trkpt lat="43.93111141487682" lon="11.768697162374286"><ele>754.0</ele><time>2026-05-03T14:53:15Z</time></trkpt><trkpt lat="43.931087923886906" lon="11.768553074144819"><ele>754.0</ele><time>2026-05-03T14:53:16Z</time></trkpt><trkpt lat="43.93108859657324" lon="11.768387592796062"><ele>758.75</ele><time>2026-05-03T14:53:17Z</time></trkpt><trkpt lat="43.93107345993353" lon="11.768212443825275"><ele>763.5</ele><time>2026-05-03T14:53:18Z</time></trkpt><trkpt lat="43.93104034100441" lon="11.768044275133576"><ele>768.25</ele><time>2026-05-03T14:53:19Z</time></trkpt><trkpt lat="43.93097889331628" lon="11.767882147837064"><ele>773.0</ele><time>2026-05-03T14:53:20Z</time></trkpt><trkpt lat="43.93091127475313" lon="11.767706489370243"><ele>766.75</ele><time>2026-05-03T14:53:21Z</time></trkpt><trkpt lat="43.9308520962492" lon="11.76753151237497"><ele>760.5</ele><time>2026-05-03T14:53:22Z</time></trkpt><trkpt lat="43.93079358713508" lon="11.767337886298254"><ele>754.25</ele><time>2026-05-03T14:53:23Z</time></trkpt><trkpt lat="43.930738446716774" lon="11.767152575082955"><ele>748.0</ele><time>2026-05-03T14:53:24Z</time></trkpt><trkpt lat="43.930683708461366" lon="11.767011008028533"><ele>748.0</ele><time>2026-05-03T14:53:25Z</time></trkpt><trkpt lat="43.93062556575654" lon="11.766908101088193"><ele>748.0</ele><time>2026-05-03T14:53:26Z</time></trkpt><trkpt lat="43.930540236054604" lon="11.766827956293907"><ele>748.0</ele><time>2026-05-03T14:53:27Z</time></trkpt><trkpt lat="43.93044708947472" lon="11.766752278454927"><ele>748.0</ele><time>2026-05-03T14:53:28Z</time></trkpt><trkpt lat="43.9303671125958" lon="11.766687768348048"><ele>748.0</ele><time>2026-05-03T14:53:29Z</time></trkpt><trkpt lat="43.93029739858795" lon="11.766618080741356"><ele>750.5999999999999</ele><time>2026-05-03T14:53:30Z</time></trkpt><trkpt lat="43.93025326240202" lon="11.766530631426683"><ele>753.1999999999999</ele><time>2026-05-03T14:53:31Z</time></trkpt><trkpt lat="43.93023330892972" lon="11.766426605710068"><ele>755.8</ele><time>2026-05-03T14:53:32Z</time></trkpt><trkpt lat="43.9302396065584" lon="11.766306082935403"><ele>758.4</ele><time>2026-05-03T14:53:33Z</time></trkpt><trkpt lat="43.930274583178" lon="11.766170055054898"><ele>761.0</ele><time>2026-05-03T14:53:34Z</time></trkpt><trkpt lat="43.93032034064588" lon="11.766028758156693"><ele>760.75</ele><time>2026-05-03T14:53:35Z</time></trkpt><trkpt lat="43.9303741480223" lon="11.765871879714886"><ele>760.5</ele><time>2026-05-03T14:53:36Z</time></trkpt><trkpt lat="43.93043145184265" lon="11.765697430662051"><ele>760.25</ele><time>2026-05-03T14:53:37Z</time></trkpt><trkpt lat="43.93048440164846" lon="11.765491202758371"><ele>760.0</ele><time>2026-05-03T14:53:38Z</time></trkpt><trkpt lat="43.93054001275292" lon="11.765309602081805"><ele>758.25</ele><time>2026-05-03T14:53:39Z</time></trkpt><trkpt lat="43.93059424746467" lon="11.76514807827832"><ele>756.5</ele><time>2026-05-03T14:53:40Z</time></trkpt><trkpt lat="43.93063343656263" lon="11.764990313350623"><ele>754.75</ele><time>2026-05-03T14:53:41Z</time></trkpt><trkpt lat="43.93065751004719" lon="11.764828544075787"><ele>753.0</ele><time>2026-05-03T14:53:42Z</time></trkpt><trkpt lat="43.93066206803553" lon="11.764656079332404"><ele>753.0</ele><time>2026-05-03T14:53:43Z</time></trkpt><trkpt lat="43.93065031527581" lon="11.764473764774555"><ele>753.0</ele><time>2026-05-03T14:53:44Z</time></trkpt><trkpt lat="43.93063417468587" lon="11.764282679285452"><ele>753.0</ele><time>2026-05-03T14:53:45Z</time></trkpt><trkpt lat="43.930626399975374" lon="11.764103944379384"><ele>753.0</ele><time>2026-05-03T14:53:46Z</time></trkpt><trkpt lat="43.93062560817049" lon="11.763948472582365"><ele>752.2</ele><time>2026-05-03T14:53:47Z</time></trkpt><trkpt lat="43.93065714922637" lon="11.763806105616476"><ele>751.4</ele><time>2026-05-03T14:53:48Z</time></trkpt><trkpt lat="43.93070392333304" lon="11.763667727396223"><ele>750.6</ele><time>2026-05-03T14:53:49Z</time></trkpt><trkpt lat="43.93076542573886" lon="11.7635258184742"><ele>749.8000000000001</ele><time>2026-05-03T14:53:50Z</time></trkpt><trkpt lat="43.93080569303757" lon="11.763383312508283"><ele>749.0</ele><time>2026-05-03T14:53:51Z</time></trkpt><trkpt lat="43.93081478268629" lon="11.763225827137207"><ele>747.25</ele><time>2026-05-03T14:53:52Z</time></trkpt><trkpt lat="43.93080811383379" lon="11.763046479300481"><ele>745.5</ele><time>2026-05-03T14:53:52.999Z</time></trkpt><trkpt lat="43.93082833055967" lon="11.762852959397508"><ele>743.75</ele><time>2026-05-03T14:53:53.999Z</time></trkpt><trkpt lat="43.93085887802263" lon="11.76264419081912"><ele>742.0</ele><time>2026-05-03T14:53:54.999Z</time></trkpt><trkpt lat="43.93089173562872" lon="11.762421951122356"><ele>745.6666666666667</ele><time>2026-05-03T14:53:55.999Z</time></trkpt><trkpt lat="43.930925015175475" lon="11.762181986503531"><ele>749.3333333333334</ele><time>2026-05-03T14:53:57Z</time></trkpt><trkpt lat="43.93095925731349" lon="11.761942374923999"><ele>753.0</ele><time>2026-05-03T14:53:58Z</time></trkpt><trkpt lat="43.9309863372695" lon="11.761716217383004"><ele>753.0</ele><time>2026-05-03T14:53:59Z</time></trkpt><trkpt lat="43.931015005576306" lon="11.761503410861792"><ele>753.0</ele><time>2026-05-03T14:54:00Z</time></trkpt><trkpt lat="43.9310375291191" lon="11.761316804806633"><ele>753.0</ele><time>2026-05-03T14:54:01Z</time></trkpt><trkpt lat="43.93106661618406" lon="11.761170930706259"><ele>753.0</ele><time>2026-05-03T14:54:02Z</time></trkpt><trkpt lat="43.931106766702285" lon="11.761040797991516"><ele>749.5999999999999</ele><time>2026-05-03T14:54:03Z</time></trkpt><trkpt lat="43.9311699292591" lon="11.760928934305236"><ele>746.1999999999999</ele><time>2026-05-03T14:54:04Z</time></trkpt><trkpt lat="43.93125020424394" lon="11.760833176129422"><ele>742.8</ele><time>2026-05-03T14:54:05Z</time></trkpt><trkpt lat="43.93133373895365" lon="11.760741836428593"><ele>739.4</ele><time>2026-05-03T14:54:06Z</time></trkpt><trkpt lat="43.93139135197236" lon="11.760639466073389"><ele>736.0</ele><time>2026-05-03T14:54:07Z</time></trkpt><trkpt lat="43.93142033845494" lon="11.760527769608881"><ele>736.0</ele><time>2026-05-03T14:54:08Z</time></trkpt><trkpt lat="43.931410810491656" lon="11.760385082808263"><ele>736.0</ele><time>2026-05-03T14:54:09Z</time></trkpt><trkpt lat="43.93137987833277" lon="11.760231468082011"><ele>736.0</ele><time>2026-05-03T14:54:10Z</time></trkpt><trkpt lat="43.931346963561865" lon="11.760075677683853"><ele>736.0</ele><time>2026-05-03T14:54:11Z</time></trkpt><trkpt lat="43.9313275044316" lon="11.7599222596683"><ele>736.0</ele><time>2026-05-03T14:54:12Z</time></trkpt><trkpt lat="43.93132773453752" lon="11.759777069547734"><ele>732.75</ele><time>2026-05-03T14:54:13Z</time></trkpt><trkpt lat="43.93135109036852" lon="11.759641871830091"><ele>729.5</ele><time>2026-05-03T14:54:14Z</time></trkpt><trkpt lat="43.93140010572996" lon="11.759506863541446"><ele>726.25</ele><time>2026-05-03T14:54:15Z</time></trkpt><trkpt lat="43.93145808210663" lon="11.75936489667517"><ele>723.0</ele><time>2026-05-03T14:54:16Z</time></trkpt><trkpt lat="43.9315114938578" lon="11.75920957739861"><ele>721.0</ele><time>2026-05-03T14:54:17Z</time></trkpt><trkpt lat="43.9315617103472" lon="11.75904934971093"><ele>719.0</ele><time>2026-05-03T14:54:18Z</time></trkpt><trkpt lat="43.93159851087182" lon="11.758876467257892"><ele>717.0</ele><time>2026-05-03T14:54:19Z</time></trkpt><trkpt lat="43.93163610197885" lon="11.758703560720857"><ele>715.0</ele><time>2026-05-03T14:54:20Z</time></trkpt><trkpt lat="43.93168209383435" lon="11.758531461123669"><ele>718.0</ele><time>2026-05-03T14:54:21Z</time></trkpt><trkpt lat="43.93173705171906" lon="11.758350586237528"><ele>721.0</ele><time>2026-05-03T14:54:22Z</time></trkpt><trkpt lat="43.93179039545679" lon="11.758163193788697"><ele>724.0</ele><time>2026-05-03T14:54:23Z</time></trkpt><trkpt lat="43.93183813512289" lon="11.757977025377757"><ele>727.0</ele><time>2026-05-03T14:54:24Z</time></trkpt><trkpt lat="43.9318779801324" lon="11.757779443150657"><ele>723.3333333333334</ele><time>2026-05-03T14:54:25Z</time></trkpt><trkpt lat="43.93190923245799" lon="11.757571486572976"><ele>719.6666666666666</ele><time>2026-05-03T14:54:26Z</time></trkpt><trkpt lat="43.93193588890103" lon="11.757356600196795"><ele>716.0</ele><time>2026-05-03T14:54:27Z</time></trkpt><trkpt lat="43.93196597490455" lon="11.757135711083679"><ele>716.0</ele><time>2026-05-03T14:54:28Z</time></trkpt><trkpt lat="43.93199910313029" lon="11.756911359541899"><ele>716.0</ele><time>2026-05-03T14:54:29Z</time></trkpt><trkpt lat="43.93203892325131" lon="11.756680502955984"><ele>716.0</ele><time>2026-05-03T14:54:30Z</time></trkpt><trkpt lat="43.93208021459329" lon="11.75645824104004"><ele>712.6666666666666</ele><time>2026-05-03T14:54:31Z</time></trkpt><trkpt lat="43.93212073097212" lon="11.756245834143458"><ele>709.3333333333334</ele><time>2026-05-03T14:54:32Z</time></trkpt><trkpt lat="43.93216603190392" lon="11.756026615099273"><ele>706.0</ele><time>2026-05-03T14:54:33Z</time></trkpt><trkpt lat="43.93221080421021" lon="11.755799317447215"><ele>703.75</ele><time>2026-05-03T14:54:34Z</time></trkpt><trkpt lat="43.932250141970556" lon="11.75557370199299"><ele>701.5</ele><time>2026-05-03T14:54:35Z</time></trkpt><trkpt lat="43.93228120498843" lon="11.755377090393383"><ele>699.25</ele><time>2026-05-03T14:54:36Z</time></trkpt><trkpt lat="43.93231426959803" lon="11.755242617405468"><ele>697.0</ele><time>2026-05-03T14:54:37Z</time></trkpt><trkpt lat="43.93235252987155" lon="11.75512907026246"><ele>694.4000000000001</ele><time>2026-05-03T14:54:38Z</time></trkpt><trkpt lat="43.9324194939011" lon="11.755026448196915"><ele>691.8000000000001</ele><time>2026-05-03T14:54:39Z</time></trkpt><trkpt lat="43.93250274554446" lon="11.754942860154763"><ele>689.2</ele><time>2026-05-03T14:54:40Z</time></trkpt><trkpt lat="43.93260465989659" lon="11.754881538551807"><ele>686.6</ele><time>2026-05-03T14:54:41Z</time></trkpt><trkpt lat="43.9327108789249" lon="11.754812041987552"><ele>684.0</ele><time>2026-05-03T14:54:42Z</time></trkpt><trkpt lat="43.932796873479624" lon="11.754705691597039"><ele>684.0</ele><time>2026-05-03T14:54:43Z</time></trkpt><trkpt lat="43.93286451892032" lon="11.75457013264831"><ele>684.0</ele><time>2026-05-03T14:54:44Z</time></trkpt><trkpt lat="43.93293622814745" lon="11.754433936468732"><ele>684.0</ele><time>2026-05-03T14:54:45Z</time></trkpt><trkpt lat="43.93302034830034" lon="11.754356271041322"><ele>684.0</ele><time>2026-05-03T14:54:46Z</time></trkpt><trkpt lat="43.933103914654644" lon="11.75435338352523"><ele>684.0</ele><time>2026-05-03T14:54:47Z</time></trkpt><trkpt lat="43.933175265775986" lon="11.754386814861585"><ele>684.0</ele><time>2026-05-03T14:54:48Z</time></trkpt><trkpt lat="43.93327558265082" lon="11.754402681452806"><ele>684.0</ele><time>2026-05-03T14:54:49Z</time></trkpt><trkpt lat="43.93336523166086" lon="11.75443252708524"><ele>684.0</ele><time>2026-05-03T14:54:50Z</time></trkpt><trkpt lat="43.93346112636682" lon="11.754470268404377"><ele>684.0</ele><time>2026-05-03T14:54:51Z</time></trkpt><trkpt lat="43.93357660218692" lon="11.754490199121323"><ele>684.0</ele><time>2026-05-03T14:54:52Z</time></trkpt><trkpt lat="43.9336982495723" lon="11.75448776443021"><ele>682.75</ele><time>2026-05-03T14:54:53Z</time></trkpt><trkpt lat="43.93383571636235" lon="11.754474271471356"><ele>681.5</ele><time>2026-05-03T14:54:54Z</time></trkpt><trkpt lat="43.933963514385155" lon="11.754465205495482"><ele>680.25</ele><time>2026-05-03T14:54:55Z</time></trkpt><trkpt lat="43.934083597596874" lon="11.754452616081977"><ele>679.0</ele><time>2026-05-03T14:54:56Z</time></trkpt><trkpt lat="43.93419994224367" lon="11.75444774263175"><ele>679.75</ele><time>2026-05-03T14:54:57Z</time></trkpt><trkpt lat="43.93433125118151" lon="11.754465876008831"><ele>680.5</ele><time>2026-05-03T14:54:58Z</time></trkpt><trkpt lat="43.93446871337739" lon="11.75452923261649"><ele>681.25</ele><time>2026-05-03T14:54:59Z</time></trkpt><trkpt lat="43.934597610149275" lon="11.754581196495934"><ele>682.0</ele><time>2026-05-03T14:55:00Z</time></trkpt><trkpt lat="43.93471297331148" lon="11.754611172283377"><ele>682.0</ele><time>2026-05-03T14:55:01Z</time></trkpt><trkpt lat="43.93481740232288" lon="11.754596122104946"><ele>682.0</ele><time>2026-05-03T14:55:02Z</time></trkpt><trkpt lat="43.934912610023524" lon="11.754537023695809"><ele>682.0</ele><time>2026-05-03T14:55:03Z</time></trkpt><trkpt lat="43.93499993640217" lon="11.754438026769382"><ele>682.0</ele><time>2026-05-03T14:55:04Z</time></trkpt><trkpt lat="43.93509510929142" lon="11.75429614746954"><ele>676.3333333333334</ele><time>2026-05-03T14:55:05Z</time></trkpt><trkpt lat="43.935215344027384" lon="11.754157131906267"><ele>670.6666666666666</ele><time>2026-05-03T14:55:06Z</time></trkpt><trkpt lat="43.935350345751054" lon="11.754012085227151"><ele>665.0</ele><time>2026-05-03T14:55:07Z</time></trkpt><trkpt lat="43.93549578187193" lon="11.75385709368365"><ele>665.0</ele><time>2026-05-03T14:55:08Z</time></trkpt><trkpt lat="43.935633036727545" lon="11.753714905945092"><ele>665.0</ele><time>2026-05-03T14:55:09Z</time></trkpt><trkpt lat="43.93574396970933" lon="11.75359327884711"><ele>665.0</ele><time>2026-05-03T14:55:10Z</time></trkpt><trkpt lat="43.93581374178507" lon="11.75349696528949"><ele>665.0</ele><time>2026-05-03T14:55:11Z</time></trkpt><trkpt lat="43.93584510934407" lon="11.753401496369348"><ele>664.8</ele><time>2026-05-03T14:55:12Z</time></trkpt><trkpt lat="43.9358548176364" lon="11.753277731695322"><ele>664.6</ele><time>2026-05-03T14:55:13Z</time></trkpt><trkpt lat="43.935856797041424" lon="11.753144057576202"><ele>664.4000000000001</ele><time>2026-05-03T14:55:14Z</time></trkpt><trkpt lat="43.935910547555835" lon="11.753035970572881"><ele>664.2</ele><time>2026-05-03T14:55:15Z</time></trkpt><trkpt lat="43.93599314130224" lon="11.752963946409857"><ele>664.0</ele><time>2026-05-03T14:55:16Z</time></trkpt><trkpt lat="43.93609489570692" lon="11.752923907688489"><ele>664.0</ele><time>2026-05-03T14:55:17Z</time></trkpt><trkpt lat="43.93619671385984" lon="11.752906605509448"><ele>664.0</ele><time>2026-05-03T14:55:18Z</time></trkpt><trkpt lat="43.93631167410161" lon="11.752865819012799"><ele>664.0</ele><time>2026-05-03T14:55:19Z</time></trkpt><trkpt lat="43.936435531634174" lon="11.752789148088944"><ele>664.0</ele><time>2026-05-03T14:55:20Z</time></trkpt><trkpt lat="43.93656904591424" lon="11.75267542147282"><ele>665.0</ele><time>2026-05-03T14:55:21Z</time></trkpt><trkpt lat="43.9367161895613" lon="11.752537015766265"><ele>666.0</ele><time>2026-05-03T14:55:22Z</time></trkpt><trkpt lat="43.93688787487033" lon="11.75236660989452"><ele>667.0</ele><time>2026-05-03T14:55:23Z</time></trkpt><trkpt lat="43.937065308504145" lon="11.752190880453266"><ele>667.0</ele><time>2026-05-03T14:55:24Z</time></trkpt><trkpt lat="43.937206740228774" lon="11.752056160905576"><ele>667.0</ele><time>2026-05-03T14:55:25Z</time></trkpt><trkpt lat="43.93729976208127" lon="11.751966274654396"><ele>667.0</ele><time>2026-05-03T14:55:26Z</time></trkpt><trkpt lat="43.937360138358144" lon="11.751897650641656"><ele>667.0</ele><time>2026-05-03T14:55:27Z</time></trkpt><trkpt lat="43.93739224024997" lon="11.751806799495274"><ele>667.0</ele><time>2026-05-03T14:55:28Z</time></trkpt><trkpt lat="43.9373926675227" lon="11.751687521331698"><ele>664.3333333333334</ele><time>2026-05-03T14:55:29Z</time></trkpt><trkpt lat="43.93735096036534" lon="11.751568029926398"><ele>661.6666666666667</ele><time>2026-05-03T14:55:30Z</time></trkpt><trkpt lat="43.937284571923065" lon="11.751479874709597"><ele>659.0</ele><time>2026-05-03T14:55:31Z</time></trkpt><trkpt lat="43.937201311902946" lon="11.75144537569093"><ele>656.3333333333334</ele><time>2026-05-03T14:55:32Z</time></trkpt><trkpt lat="43.93711506511182" lon="11.751457058445109"><ele>653.6666666666666</ele><time>2026-05-03T14:55:33Z</time></trkpt><trkpt lat="43.93703464015578" lon="11.751507669303658"><ele>651.0</ele><time>2026-05-03T14:55:34Z</time></trkpt><trkpt lat="43.93694409286124" lon="11.751572857745721"><ele>651.0</ele><time>2026-05-03T14:55:35Z</time></trkpt><trkpt lat="43.93683857171377" lon="11.751637903348342"><ele>651.0</ele><time>2026-05-03T14:55:36Z</time></trkpt><trkpt lat="43.936714605188655" lon="11.75171952842594"><ele>651.0</ele><time>2026-05-03T14:55:37Z</time></trkpt><trkpt lat="43.936569823777425" lon="11.751803903227604"><ele>651.0</ele><time>2026-05-03T14:55:38Z</time></trkpt><trkpt lat="43.93640806802963" lon="11.751887654912496"><ele>650.3333333333334</ele><time>2026-05-03T14:55:39Z</time></trkpt><trkpt lat="43.936227447807525" lon="11.751977760599809"><ele>649.6666666666667</ele><time>2026-05-03T14:55:40Z</time></trkpt><trkpt lat="43.936035092217566" lon="11.75208096113023"><ele>649.0</ele><time>2026-05-03T14:55:41Z</time></trkpt><trkpt lat="43.93584860993624" lon="11.752181083611552"><ele>646.75</ele><time>2026-05-03T14:55:42Z</time></trkpt><trkpt lat="43.93568079979597" lon="11.752273940574664"><ele>644.5</ele><time>2026-05-03T14:55:43Z</time></trkpt><trkpt lat="43.935556057526355" lon="11.752347197588707"><ele>642.25</ele><time>2026-05-03T14:55:44Z</time></trkpt><trkpt lat="43.935465177916925" lon="11.752396926287014"><ele>640.0</ele><time>2026-05-03T14:55:44.999Z</time></trkpt><trkpt lat="43.93538355284187" lon="11.75241255842833"><ele>640.0</ele><time>2026-05-03T14:55:45.999Z</time></trkpt><trkpt lat="43.93530374481572" lon="11.75238771087766"><ele>640.0</ele><time>2026-05-03T14:55:46.999Z</time></trkpt><trkpt lat="43.935248282299625" lon="11.752315006933339"><ele>640.0</ele><time>2026-05-03T14:55:47.999Z</time></trkpt><trkpt lat="43.93522512967501" lon="11.752211294818945"><ele>640.0</ele><time>2026-05-03T14:55:48.999Z</time></trkpt><trkpt lat="43.93523225628067" lon="11.752107471258569"><ele>640.0</ele><time>2026-05-03T14:55:49.999Z</time></trkpt><trkpt lat="43.93528055616358" lon="11.752005458022248"><ele>640.0</ele><time>2026-05-03T14:55:50.999Z</time></trkpt><trkpt lat="43.93535543872868" lon="11.751945071259158"><ele>640.0</ele><time>2026-05-03T14:55:51.999Z</time></trkpt><trkpt lat="43.93544913504062" lon="11.751906466973786"><ele>640.0</ele><time>2026-05-03T14:55:52.999Z</time></trkpt><trkpt lat="43.935558347377125" lon="11.751883488433625"><ele>640.0</ele><time>2026-05-03T14:55:53.999Z</time></trkpt><trkpt lat="43.93568169675182" lon="11.751845215783998"><ele>640.0</ele><time>2026-05-03T14:55:54.999Z</time></trkpt><trkpt lat="43.93581491268063" lon="11.751791871154774"><ele>638.5</ele><time>2026-05-03T14:55:55.999Z</time></trkpt><trkpt lat="43.935951244277156" lon="11.751722655085507"><ele>637.0</ele><time>2026-05-03T14:55:56.999Z</time></trkpt><trkpt lat="43.936071226279424" lon="11.75163454584883"><ele>635.5</ele><time>2026-05-03T14:55:57.999Z</time></trkpt><trkpt lat="43.93618039840529" lon="11.75153478660273"><ele>634.0</ele><time>2026-05-03T14:55:58.999Z</time></trkpt><trkpt lat="43.9362723185401" lon="11.751406631458082"><ele>634.0</ele><time>2026-05-03T14:55:59.999Z</time></trkpt><trkpt lat="43.93635858445006" lon="11.751270979888368"><ele>634.0</ele><time>2026-05-03T14:56:00.999Z</time></trkpt><trkpt lat="43.936431273737604" lon="11.751131733411897"><ele>634.0</ele><time>2026-05-03T14:56:01.999Z</time></trkpt><trkpt lat="43.93648755744325" lon="11.75099870773041"><ele>634.0</ele><time>2026-05-03T14:56:03Z</time></trkpt><trkpt lat="43.93652539305607" lon="11.750866411852202"><ele>631.1666666666667</ele><time>2026-05-03T14:56:04Z</time></trkpt><trkpt lat="43.936552894781" lon="11.750732510269165"><ele>628.3333333333334</ele><time>2026-05-03T14:56:05Z</time></trkpt><trkpt lat="43.9365835287572" lon="11.750606495615699"><ele>625.5</ele><time>2026-05-03T14:56:06Z</time></trkpt><trkpt lat="43.93661218541866" lon="11.750489753036513"><ele>622.6666666666666</ele><time>2026-05-03T14:56:07Z</time></trkpt><trkpt lat="43.93664442169851" lon="11.750379648537985"><ele>619.8333333333333</ele><time>2026-05-03T14:56:08Z</time></trkpt><trkpt lat="43.93666437172977" lon="11.750290183012723"><ele>617.0</ele><time>2026-05-03T14:56:09Z</time></trkpt><trkpt lat="43.93670292817325" lon="11.750178823888657"><ele>614.8000000000001</ele><time>2026-05-03T14:56:11Z</time></trkpt><trkpt lat="43.93673418137642" lon="11.75009481931948"><ele>612.6</ele><time>2026-05-03T14:56:14Z</time></trkpt><trkpt lat="43.936753050107775" lon="11.749983841191758"><ele>610.4000000000001</ele><time>2026-05-03T14:56:16Z</time></trkpt><trkpt lat="43.93679909930183" lon="11.74985409470442"><ele>608.2</ele><time>2026-05-03T14:56:18Z</time></trkpt><trkpt lat="43.93688548352165" lon="11.749725762390055"><ele>606.0</ele><time>2026-05-03T14:56:20Z</time></trkpt><trkpt lat="43.93694385396614" lon="11.749668245445072"><ele>606.0</ele><time>2026-05-03T14:56:21Z</time></trkpt><trkpt lat="43.93700850368159" lon="11.74961922539079"><ele>606.0</ele><time>2026-05-03T14:56:22Z</time></trkpt><trkpt lat="43.93708810924039" lon="11.749583780469218"><ele>606.0</ele><time>2026-05-03T14:56:23Z</time></trkpt><trkpt lat="43.93716924120832" lon="11.74954974481718"><ele>606.0</ele><time>2026-05-03T14:56:24Z</time></trkpt><trkpt lat="43.93725708767966" lon="11.749515875461114"><ele>606.0</ele><time>2026-05-03T14:56:25Z</time></trkpt><trkpt lat="43.93735040738938" lon="11.74948495338627"><ele>606.0</ele><time>2026-05-03T14:56:26Z</time></trkpt><trkpt lat="43.93744352865936" lon="11.749449846504673"><ele>606.0</ele><time>2026-05-03T14:56:27Z</time></trkpt><trkpt lat="43.93754494363606" lon="11.74942383521805"><ele>606.0</ele><time>2026-05-03T14:56:28Z</time></trkpt><trkpt lat="43.937649831035706" lon="11.749410668091285"><ele>606.0</ele><time>2026-05-03T14:56:29Z</time></trkpt><trkpt lat="43.93775776884312" lon="11.749402319413742"><ele>606.0</ele><time>2026-05-03T14:56:30Z</time></trkpt><trkpt lat="43.93786966197628" lon="11.749403241034216"><ele>606.0</ele><time>2026-05-03T14:56:31Z</time></trkpt><trkpt lat="43.93797861198205" lon="11.749415939814257"><ele>607.0</ele><time>2026-05-03T14:56:32Z</time></trkpt><trkpt lat="43.93809307680276" lon="11.7494364546126"><ele>608.0</ele><time>2026-05-03T14:56:33Z</time></trkpt><trkpt lat="43.938201266345935" lon="11.749466623753303"><ele>609.0</ele><time>2026-05-03T14:56:34Z</time></trkpt><trkpt lat="43.93829405165971" lon="11.74947921094634"><ele>610.0</ele><time>2026-05-03T14:56:35Z</time></trkpt><trkpt lat="43.93837437365656" lon="11.749466890999955"><ele>611.0</ele><time>2026-05-03T14:56:36Z</time></trkpt><trkpt lat="43.938449309654665" lon="11.749436150999907"><ele>611.0</ele><time>2026-05-03T14:56:37Z</time></trkpt><trkpt lat="43.93852983771194" lon="11.74938805759013"><ele>611.0</ele><time>2026-05-03T14:56:38Z</time></trkpt><trkpt lat="43.938608126286965" lon="11.749320615314828"><ele>611.0</ele><time>2026-05-03T14:56:39Z</time></trkpt><trkpt lat="43.93868191830387" lon="11.74922221384919"><ele>611.0</ele><time>2026-05-03T14:56:40Z</time></trkpt><trkpt lat="43.93875766435733" lon="11.749092526038584"><ele>611.0</ele><time>2026-05-03T14:56:41Z</time></trkpt><trkpt lat="43.938845723378776" lon="11.748945252153852"><ele>611.0</ele><time>2026-05-03T14:56:42Z</time></trkpt><trkpt lat="43.938948033200866" lon="11.748800293815568"><ele>611.0</ele><time>2026-05-03T14:56:43Z</time></trkpt><trkpt lat="43.93905370645979" lon="11.748699146751695"><ele>611.0</ele><time>2026-05-03T14:56:44Z</time></trkpt><trkpt lat="43.93916376716825" lon="11.74863611541592"><ele>611.0</ele><time>2026-05-03T14:56:45Z</time></trkpt><trkpt lat="43.93926199989278" lon="11.748622688512294"><ele>611.2</ele><time>2026-05-03T14:56:46Z</time></trkpt><trkpt lat="43.93934777902558" lon="11.748653995957248"><ele>611.4000000000001</ele><time>2026-05-03T14:56:47Z</time></trkpt><trkpt lat="43.939433658596194" lon="11.748728651147497"><ele>611.6</ele><time>2026-05-03T14:56:48Z</time></trkpt><trkpt lat="43.939536839952346" lon="11.748817938937512"><ele>611.8000000000001</ele><time>2026-05-03T14:56:49Z</time></trkpt><trkpt lat="43.9396526946289" lon="11.748907719691488"><ele>612.0</ele><time>2026-05-03T14:56:50Z</time></trkpt><trkpt lat="43.939780604141795" lon="11.748972579783189"><ele>612.0</ele><time>2026-05-03T14:56:51Z</time></trkpt><trkpt lat="43.93991815461593" lon="11.748993614631386"><ele>612.0</ele><time>2026-05-03T14:56:52Z</time></trkpt><trkpt lat="43.94006334177942" lon="11.748986438684557"><ele>612.0</ele><time>2026-05-03T14:56:53Z</time></trkpt><trkpt lat="43.94020863742956" lon="11.748991113875071"><ele>612.0</ele><time>2026-05-03T14:56:54Z</time></trkpt><trkpt lat="43.940341574016415" lon="11.748997975098014"><ele>611.25</ele><time>2026-05-03T14:56:55Z</time></trkpt><trkpt lat="43.940453742536974" lon="11.748994657128925"><ele>610.5</ele><time>2026-05-03T14:56:56Z</time></trkpt><trkpt lat="43.9405593543103" lon="11.748976463522354"><ele>609.75</ele><time>2026-05-03T14:56:57Z</time></trkpt><trkpt lat="43.94067839794341" lon="11.74892622463622"><ele>609.0</ele><time>2026-05-03T14:56:58Z</time></trkpt><trkpt lat="43.94081346946574" lon="11.748843979077577"><ele>610.0</ele><time>2026-05-03T14:56:59Z</time></trkpt><trkpt lat="43.94095726563994" lon="11.748757801868837"><ele>611.0</ele><time>2026-05-03T14:57:00Z</time></trkpt><trkpt lat="43.941099928298826" lon="11.748677708198793"><ele>612.0</ele><time>2026-05-03T14:57:01Z</time></trkpt><trkpt lat="43.94123148767735" lon="11.748602849931201"><ele>611.0</ele><time>2026-05-03T14:57:02Z</time></trkpt><trkpt lat="43.94135157537247" lon="11.748532516560878"><ele>610.0</ele><time>2026-05-03T14:57:03Z</time></trkpt><trkpt lat="43.941464880883004" lon="11.748468693097568"><ele>609.0</ele><time>2026-05-03T14:57:04Z</time></trkpt><trkpt lat="43.94157521009858" lon="11.748404036207194"><ele>608.0</ele><time>2026-05-03T14:57:05Z</time></trkpt><trkpt lat="43.94168913442132" lon="11.748339220788928"><ele>607.0</ele><time>2026-05-03T14:57:06Z</time></trkpt><trkpt lat="43.9418036441299" lon="11.748280068301266"><ele>606.0</ele><time>2026-05-03T14:57:07Z</time></trkpt><trkpt lat="43.941914524219634" lon="11.748240535973618"><ele>605.0</ele><time>2026-05-03T14:57:08Z</time></trkpt><trkpt lat="43.94202709289894" lon="11.748230015183772"><ele>604.0</ele><time>2026-05-03T14:57:09Z</time></trkpt><trkpt lat="43.94214268727475" lon="11.74824212502522"><ele>604.0</ele><time>2026-05-03T14:57:10Z</time></trkpt><trkpt lat="43.942255914898254" lon="11.748269388702008"><ele>604.0</ele><time>2026-05-03T14:57:11Z</time></trkpt><trkpt lat="43.94236001483637" lon="11.748295990543188"><ele>604.0</ele><time>2026-05-03T14:57:12Z</time></trkpt><trkpt lat="43.94245247435519" lon="11.748321739972056"><ele>604.0</ele><time>2026-05-03T14:57:13Z</time></trkpt><trkpt lat="43.942535787564466" lon="11.748341692312694"><ele>604.0</ele><time>2026-05-03T14:57:14Z</time></trkpt><trkpt lat="43.94261359268092" lon="11.74833214392789"><ele>603.2</ele><time>2026-05-03T14:57:15Z</time></trkpt><trkpt lat="43.94268381165561" lon="11.74829343143743"><ele>602.4</ele><time>2026-05-03T14:57:16Z</time></trkpt><trkpt lat="43.942773075661805" lon="11.748269484059326"><ele>601.6</ele><time>2026-05-03T14:57:17Z</time></trkpt><trkpt lat="43.942840060930116" lon="11.74818346005568"><ele>600.8</ele><time>2026-05-03T14:57:18Z</time></trkpt><trkpt lat="43.94288578873756" lon="11.748062487099139"><ele>600.0</ele><time>2026-05-03T14:57:19Z</time></trkpt><trkpt lat="43.942917901816955" lon="11.747925289793994"><ele>600.0</ele><time>2026-05-03T14:57:20Z</time></trkpt><trkpt lat="43.942928100033704" lon="11.747778250972475"><ele>600.0</ele><time>2026-05-03T14:57:21Z</time></trkpt><trkpt lat="43.942942484849645" lon="11.747629658820552"><ele>600.0</ele><time>2026-05-03T14:57:22Z</time></trkpt><trkpt lat="43.94296867644455" lon="11.747495287983144"><ele>600.0</ele><time>2026-05-03T14:57:23Z</time></trkpt><trkpt lat="43.94300484392839" lon="11.747381147757187"><ele>600.0</ele><time>2026-05-03T14:57:24Z</time></trkpt><trkpt lat="43.94303757874523" lon="11.747268333295533"><ele>599.4</ele><time>2026-05-03T14:57:25Z</time></trkpt><trkpt lat="43.94308663639643" lon="11.747161952151714"><ele>598.8</ele><time>2026-05-03T14:57:26Z</time></trkpt><trkpt lat="43.94315802755769" lon="11.747057638313176"><ele>598.2</ele><time>2026-05-03T14:57:27Z</time></trkpt><trkpt lat="43.94323686158533" lon="11.74697656550595"><ele>597.6</ele><time>2026-05-03T14:57:28Z</time></trkpt><trkpt lat="43.94331840400762" lon="11.74692045533793"><ele>597.0</ele><time>2026-05-03T14:57:29Z</time></trkpt><trkpt lat="43.943401150335305" lon="11.746891004117533"><ele>597.0</ele><time>2026-05-03T14:57:30Z</time></trkpt><trkpt lat="43.943478515735414" lon="11.746898121291531"><ele>597.0</ele><time>2026-05-03T14:57:31Z</time></trkpt><trkpt lat="43.94355033276241" lon="11.746945112279082"><ele>597.0</ele><time>2026-05-03T14:57:32Z</time></trkpt><trkpt lat="43.94362515994154" lon="11.747024785779441"><ele>597.0</ele><time>2026-05-03T14:57:33Z</time></trkpt><trkpt lat="43.94371065903871" lon="11.747161323141373"><ele>597.0</ele><time>2026-05-03T14:57:34Z</time></trkpt><trkpt lat="43.943829053498256" lon="11.74733415927516"><ele>597.0</ele><time>2026-05-03T14:57:35Z</time></trkpt><trkpt lat="43.943962998812545" lon="11.747519546744293"><ele>597.0</ele><time>2026-05-03T14:57:36Z</time></trkpt><trkpt lat="43.94406576313953" lon="11.747679130975257"><ele>597.0</ele><time>2026-05-03T14:57:37Z</time></trkpt><trkpt lat="43.944140919340064" lon="11.747790592393144"><ele>595.8333333333334</ele><time>2026-05-03T14:57:38Z</time></trkpt><trkpt lat="43.94421073601792" lon="11.747893082380447"><ele>594.6666666666666</ele><time>2026-05-03T14:57:38.999Z</time></trkpt><trkpt lat="43.94427078431009" lon="11.747987452985562"><ele>593.5</ele><time>2026-05-03T14:57:39.999Z</time></trkpt><trkpt lat="43.944326235242585" lon="11.748075792258936"><ele>592.3333333333333</ele><time>2026-05-03T14:57:40.999Z</time></trkpt><trkpt lat="43.94438039892465" lon="11.748147130179772"><ele>591.1666666666666</ele><time>2026-05-03T14:57:41.999Z</time></trkpt><trkpt lat="43.944441633536286" lon="11.748191819705632"><ele>590.0</ele><time>2026-05-03T14:57:42.999Z</time></trkpt><trkpt lat="43.94451993350551" lon="11.748200824864686"><ele>589.8</ele><time>2026-05-03T14:57:43.999Z</time></trkpt><trkpt lat="43.94459809315857" lon="11.748158642938776"><ele>589.6</ele><time>2026-05-03T14:57:44.999Z</time></trkpt><trkpt lat="43.94465836255312" lon="11.748069571547868"><ele>589.4</ele><time>2026-05-03T14:57:45.999Z</time></trkpt><trkpt lat="43.944713758713256" lon="11.747938364747677"><ele>589.2</ele><time>2026-05-03T14:57:46.999Z</time></trkpt><trkpt lat="43.94477690582625" lon="11.747782267864304"><ele>589.0</ele><time>2026-05-03T14:57:47.999Z</time></trkpt><trkpt lat="43.94490124729351" lon="11.747640226294285"><ele>589.0</ele><time>2026-05-03T14:57:48.999Z</time></trkpt><trkpt lat="43.94501188141547" lon="11.747498606629105"><ele>589.0</ele><time>2026-05-03T14:57:49.999Z</time></trkpt><trkpt lat="43.94510971122739" lon="11.747352694997298"><ele>589.0</ele><time>2026-05-03T14:57:50.999Z</time></trkpt><trkpt lat="43.94517217729493" lon="11.747208819127351"><ele>589.0</ele><time>2026-05-03T14:57:51.999Z</time></trkpt><trkpt lat="43.94523082248318" lon="11.74708875555037"><ele>589.4</ele><time>2026-05-03T14:57:52.999Z</time></trkpt><trkpt lat="43.94529580236293" lon="11.74702905218934"><ele>589.8</ele><time>2026-05-03T14:57:53.999Z</time></trkpt><trkpt lat="43.945367650512146" lon="11.747011989345166"><ele>590.2</ele><time>2026-05-03T14:57:54.999Z</time></trkpt><trkpt lat="43.94544864343517" lon="11.747042523368211"><ele>590.6</ele><time>2026-05-03T14:57:55.999Z</time></trkpt><trkpt lat="43.94553868190513" lon="11.747119219156707"><ele>591.0</ele><time>2026-05-03T14:57:56.999Z</time></trkpt><trkpt lat="43.94563070761037" lon="11.747223689819094"><ele>591.0</ele><time>2026-05-03T14:57:57.999Z</time></trkpt><trkpt lat="43.94571729782999" lon="11.747370556838558"><ele>591.0</ele><time>2026-05-03T14:57:58.999Z</time></trkpt><trkpt lat="43.94582107226417" lon="11.747548663258833"><ele>591.0</ele><time>2026-05-03T14:57:59.999Z</time></trkpt><trkpt lat="43.94592453863951" lon="11.74771688294296"><ele>591.5</ele><time>2026-05-03T14:58:00.999Z</time></trkpt><trkpt lat="43.94601986120465" lon="11.747841519617262"><ele>592.0</ele><time>2026-05-03T14:58:01.999Z</time></trkpt><trkpt lat="43.94612129196839" lon="11.747913330351274"><ele>592.5</ele><time>2026-05-03T14:58:02.999Z</time></trkpt><trkpt lat="43.94623624170473" lon="11.747932153845397"><ele>593.0</ele><time>2026-05-03T14:58:03.999Z</time></trkpt><trkpt lat="43.94635308743809" lon="11.747911139529725"><ele>593.0</ele><time>2026-05-03T14:58:04.999Z</time></trkpt><trkpt lat="43.94647373458204" lon="11.747840904344601"><ele>593.0</ele><time>2026-05-03T14:58:05.999Z</time></trkpt><trkpt lat="43.946610017434715" lon="11.747725012401684"><ele>593.0</ele><time>2026-05-03T14:58:06.999Z</time></trkpt><trkpt lat="43.94676692697058" lon="11.747579170391283"><ele>590.6666666666666</ele><time>2026-05-03T14:58:07.999Z</time></trkpt><trkpt lat="43.94693368852381" lon="11.74742093733278"><ele>588.3333333333334</ele><time>2026-05-03T14:58:09Z</time></trkpt><trkpt lat="43.947085122184916" lon="11.747286623691464"><ele>586.0</ele><time>2026-05-03T14:58:10Z</time></trkpt><trkpt lat="43.94723466931451" lon="11.747214194412145"><ele>586.0</ele><time>2026-05-03T14:58:11Z</time></trkpt><trkpt lat="43.947382553064" lon="11.747193876792162"><ele>586.0</ele><time>2026-05-03T14:58:12Z</time></trkpt><trkpt lat="43.947525856726976" lon="11.747243336946259"><ele>586.0</ele><time>2026-05-03T14:58:13Z</time></trkpt><trkpt lat="43.94766576144631" lon="11.747328342437061"><ele>586.0</ele><time>2026-05-03T14:58:14Z</time></trkpt><trkpt lat="43.94780022969042" lon="11.747462135100546"><ele>585.75</ele><time>2026-05-03T14:58:15Z</time></trkpt><trkpt lat="43.94790896891194" lon="11.74762385003113"><ele>585.5</ele><time>2026-05-03T14:58:16Z</time></trkpt><trkpt lat="43.94801747567298" lon="11.747764495839004"><ele>585.25</ele><time>2026-05-03T14:58:17Z</time></trkpt><trkpt lat="43.94812829929473" lon="11.74782178945157"><ele>585.0</ele><time>2026-05-03T14:58:18Z</time></trkpt><trkpt lat="43.94823660853056" lon="11.747822075186242"><ele>584.25</ele><time>2026-05-03T14:58:19Z</time></trkpt><trkpt lat="43.94832392014862" lon="11.747769723116187"><ele>583.5</ele><time>2026-05-03T14:58:20Z</time></trkpt><trkpt lat="43.94839612151318" lon="11.747664199893627"><ele>582.75</ele><time>2026-05-03T14:58:21Z</time></trkpt><trkpt lat="43.94846763253675" lon="11.747524996074093"><ele>582.0</ele><time>2026-05-03T14:58:22Z</time></trkpt><trkpt lat="43.948558393265465" lon="11.747371191436036"><ele>577.6666666666666</ele><time>2026-05-03T14:58:23Z</time></trkpt><trkpt lat="43.94867882359436" lon="11.747207790581992"><ele>573.3333333333333</ele><time>2026-05-03T14:58:24Z</time></trkpt><trkpt lat="43.948815401386156" lon="11.747045856793665"><ele>569.0</ele><time>2026-05-03T14:58:25Z</time></trkpt><trkpt lat="43.94895300730969" lon="11.74690400910298"><ele>568.5</ele><time>2026-05-03T14:58:26Z</time></trkpt><trkpt lat="43.949065389119376" lon="11.746824278394259"><ele>568.0</ele><time>2026-05-03T14:58:27Z</time></trkpt><trkpt lat="43.949158299446076" lon="11.746833292923522"><ele>567.5</ele><time>2026-05-03T14:58:28Z</time></trkpt><trkpt lat="43.94924570708889" lon="11.746882302943272"><ele>567.0</ele><time>2026-05-03T14:58:29Z</time></trkpt><trkpt lat="43.949365864473315" lon="11.746974605536396"><ele>567.0</ele><time>2026-05-03T14:58:30Z</time></trkpt><trkpt lat="43.94948105077165" lon="11.747080866505224"><ele>567.0</ele><time>2026-05-03T14:58:31Z</time></trkpt><trkpt lat="43.94955501950722" lon="11.747110669731443"><ele>567.0</ele><time>2026-05-03T14:58:32Z</time></trkpt><trkpt lat="43.94966067996961" lon="11.74708355309936"><ele>567.0</ele><time>2026-05-03T14:58:33Z</time></trkpt><trkpt lat="43.949799297057986" lon="11.747051857001843"><ele>567.0</ele><time>2026-05-03T14:58:34Z</time></trkpt><trkpt lat="43.94996230106384" lon="11.747013168761022"><ele>567.0</ele><time>2026-05-03T14:58:35Z</time></trkpt><trkpt lat="43.95012073461068" lon="11.746977121061661"><ele>567.0</ele><time>2026-05-03T14:58:36Z</time></trkpt><trkpt lat="43.95024496872356" lon="11.746946770394288"><ele>566.6</ele><time>2026-05-03T14:58:37Z</time></trkpt><trkpt lat="43.95031629033732" lon="11.74688588283367"><ele>566.2</ele><time>2026-05-03T14:58:38Z</time></trkpt><trkpt lat="43.95038754348579" lon="11.746796474226628"><ele>565.8</ele><time>2026-05-03T14:58:39Z</time></trkpt><trkpt lat="43.950426490130106" lon="11.746662212450662"><ele>565.4</ele><time>2026-05-03T14:58:40Z</time></trkpt><trkpt lat="43.950462834692665" lon="11.746506117651005"><ele>565.0</ele><time>2026-05-03T14:58:41Z</time></trkpt><trkpt lat="43.95051367595049" lon="11.746335124510829"><ele>564.75</ele><time>2026-05-03T14:58:42Z</time></trkpt><trkpt lat="43.95058837454141" lon="11.746195329402829"><ele>564.5</ele><time>2026-05-03T14:58:43Z</time></trkpt><trkpt lat="43.95069296407647" lon="11.746090592329677"><ele>564.25</ele><time>2026-05-03T14:58:44Z</time></trkpt><trkpt lat="43.95081333408994" lon="11.746015503953197"><ele>564.0</ele><time>2026-05-03T14:58:45Z</time></trkpt><trkpt lat="43.95095249933924" lon="11.745996435904708"><ele>561.6666666666666</ele><time>2026-05-03T14:58:46Z</time></trkpt><trkpt lat="43.95109347453837" lon="11.746024913864307"><ele>559.3333333333333</ele><time>2026-05-03T14:58:47Z</time></trkpt><trkpt lat="43.951233502199315" lon="11.746109072904442"><ele>557.0</ele><time>2026-05-03T14:58:48Z</time></trkpt><trkpt lat="43.951366892204604" lon="11.74623785062127"><ele>555.6666666666666</ele><time>2026-05-03T14:58:49Z</time></trkpt><trkpt lat="43.95149628782975" lon="11.746397556598254"><ele>554.3333333333334</ele><time>2026-05-03T14:58:50Z</time></trkpt><trkpt lat="43.95162091181516" lon="11.746571678933401"><ele>553.0</ele><time>2026-05-03T14:58:51Z</time></trkpt><trkpt lat="43.951738867939135" lon="11.746739813069967"><ele>551.5</ele><time>2026-05-03T14:58:52Z</time></trkpt><trkpt lat="43.95185570627285" lon="11.746879695272364"><ele>550.0</ele><time>2026-05-03T14:58:53Z</time></trkpt><trkpt lat="43.951972675897416" lon="11.746980131940372"><ele>548.5</ele><time>2026-05-03T14:58:54Z</time></trkpt><trkpt lat="43.95210862922414" lon="11.747030114224213"><ele>547.0</ele><time>2026-05-03T14:58:55Z</time></trkpt><trkpt lat="43.95225365505377" lon="11.747057251648704"><ele>547.0</ele><time>2026-05-03T14:58:56Z</time></trkpt><trkpt lat="43.95240871523357" lon="11.74708784516046"><ele>547.0</ele><time>2026-05-03T14:58:57Z</time></trkpt><trkpt lat="43.952559661471774" lon="11.747126127906686"><ele>547.0</ele><time>2026-05-03T14:58:58Z</time></trkpt><trkpt lat="43.95268009133486" lon="11.747159803866715"><ele>547.0</ele><time>2026-05-03T14:58:59Z</time></trkpt><trkpt lat="43.95274826544967" lon="11.747176651575577"><ele>551.2</ele><time>2026-05-03T14:59:00Z</time></trkpt><trkpt lat="43.95281693383713" lon="11.74722733963477"><ele>555.4000000000001</ele><time>2026-05-03T14:59:02Z</time></trkpt><trkpt lat="43.95288308479085" lon="11.747323811506119"><ele>559.5999999999999</ele><time>2026-05-03T14:59:05Z</time></trkpt><trkpt lat="43.95297982666204" lon="11.747415166491187"><ele>563.8</ele><time>2026-05-03T14:59:07Z</time></trkpt><trkpt lat="43.95304688292031" lon="11.747466209347749"><ele>568.0</ele><time>2026-05-03T14:59:08Z</time></trkpt><trkpt lat="43.95316175746119" lon="11.747538467607795"><ele>568.0</ele><time>2026-05-03T14:59:10Z</time></trkpt><trkpt lat="43.953236234736124" lon="11.747577252076319"><ele>568.0</ele><time>2026-05-03T14:59:11Z</time></trkpt><trkpt lat="43.95332264312664" lon="11.747623821538372"><ele>568.0</ele><time>2026-05-03T14:59:12Z</time></trkpt><trkpt lat="43.953419093817594" lon="11.747686694838196"><ele>568.0</ele><time>2026-05-03T14:59:13Z</time></trkpt><trkpt lat="43.95352950311799" lon="11.747744472567609"><ele>568.0</ele><time>2026-05-03T14:59:14Z</time></trkpt><trkpt lat="43.95365183623061" lon="11.747810132830839"><ele>564.3333333333334</ele><time>2026-05-03T14:59:15Z</time></trkpt><trkpt lat="43.95379223102182" lon="11.747878843660958"><ele>560.6666666666666</ele><time>2026-05-03T14:59:16Z</time></trkpt><trkpt lat="43.95394040356674" lon="11.747953974934545"><ele>557.0</ele><time>2026-05-03T14:59:17Z</time></trkpt><trkpt lat="43.954093085019444" lon="11.748015366929444"><ele>554.3333333333333</ele><time>2026-05-03T14:59:18Z</time></trkpt><trkpt lat="43.95426946053701" lon="11.748042912759253"><ele>551.6666666666666</ele><time>2026-05-03T14:59:19Z</time></trkpt><trkpt lat="43.954457940830416" lon="11.748050772508082"><ele>549.0</ele><time>2026-05-03T14:59:20Z</time></trkpt><trkpt lat="43.95464275350601" lon="11.748033299838331"><ele>549.0</ele><time>2026-05-03T14:59:21Z</time></trkpt><trkpt lat="43.954836645707786" lon="11.747979566674523"><ele>549.0</ele><time>2026-05-03T14:59:22Z</time></trkpt><trkpt lat="43.955022098860134" lon="11.747904918970907"><ele>549.0</ele><time>2026-05-03T14:59:23Z</time></trkpt><trkpt lat="43.955194210984125" lon="11.747864933683081"><ele>549.0</ele><time>2026-05-03T14:59:24Z</time></trkpt><trkpt lat="43.955371653584535" lon="11.747863304484643"><ele>549.0</ele><time>2026-05-03T14:59:25Z</time></trkpt><trkpt lat="43.955549073785484" lon="11.747869822208006"><ele>549.0</ele><time>2026-05-03T14:59:26Z</time></trkpt><trkpt lat="43.95572313559043" lon="11.747895614151263"><ele>557.0</ele><time>2026-05-03T14:59:27Z</time></trkpt><trkpt lat="43.95589822679689" lon="11.747968245087678"><ele>565.0</ele><time>2026-05-03T14:59:28Z</time></trkpt><trkpt lat="43.95607130281355" lon="11.74808011445666"><ele>573.0</ele><time>2026-05-03T14:59:29Z</time></trkpt><trkpt lat="43.9562392890015" lon="11.74819879428775"><ele>573.0</ele><time>2026-05-03T14:59:30Z</time></trkpt><trkpt lat="43.95638519511209" lon="11.748313044478188"><ele>573.0</ele><time>2026-05-03T14:59:31Z</time></trkpt><trkpt lat="43.95649691152904" lon="11.74844478147547"><ele>573.0</ele><time>2026-05-03T14:59:32Z</time></trkpt><trkpt lat="43.95656089212842" lon="11.748611531561984"><ele>566.3333333333334</ele><time>2026-05-03T14:59:33Z</time></trkpt><trkpt lat="43.95658976022929" lon="11.748818690341148"><ele>559.6666666666667</ele><time>2026-05-03T14:59:34Z</time></trkpt><trkpt lat="43.95662527860594" lon="11.749028442129998"><ele>553.0</ele><time>2026-05-03T14:59:35Z</time></trkpt><trkpt lat="43.95666358008912" lon="11.749229043863684"><ele>553.0</ele><time>2026-05-03T14:59:36Z</time></trkpt><trkpt lat="43.95673678061106" lon="11.749388062252313"><ele>553.0</ele><time>2026-05-03T14:59:37Z</time></trkpt><trkpt lat="43.956858280801015" lon="11.749530397104216"><ele>553.0</ele><time>2026-05-03T14:59:38Z</time></trkpt><trkpt lat="43.95700652376765" lon="11.74965870075929"><ele>553.0</ele><time>2026-05-03T14:59:39Z</time></trkpt><trkpt lat="43.957146113681304" lon="11.749774356905261"><ele>553.0</ele><time>2026-05-03T14:59:40Z</time></trkpt><trkpt lat="43.957311743547784" lon="11.749823101252677"><ele>553.0</ele><time>2026-05-03T14:59:41Z</time></trkpt><trkpt lat="43.957485401982545" lon="11.749798868084254"><ele>561.25</ele><time>2026-05-03T14:59:42Z</time></trkpt><trkpt lat="43.957568857451655" lon="11.74978859871416"><ele>569.5</ele><time>2026-05-03T14:59:43Z</time></trkpt><trkpt lat="43.957698365472424" lon="11.749750720836277"><ele>577.75</ele><time>2026-05-03T14:59:44Z</time></trkpt><trkpt lat="43.957824477172856" lon="11.74984057408294"><ele>586.0</ele><time>2026-05-03T14:59:45Z</time></trkpt><trkpt lat="43.95795703353486" lon="11.749955698668202"><ele>586.0</ele><time>2026-05-03T14:59:46Z</time></trkpt><trkpt lat="43.95810697391781" lon="11.750040912531519"><ele>586.0</ele><time>2026-05-03T14:59:47Z</time></trkpt><trkpt lat="43.9582851687421" lon="11.750091165513775"><ele>586.0</ele><time>2026-05-03T14:59:48Z</time></trkpt><trkpt lat="43.95843313024371" lon="11.750109924104594"><ele>589.8</ele><time>2026-05-03T14:59:49Z</time></trkpt><trkpt lat="43.95851463450743" lon="11.750151811086267"><ele>593.6</ele><time>2026-05-03T14:59:50Z</time></trkpt><trkpt lat="43.9585775650005" lon="11.75025315350954"><ele>597.4</ele><time>2026-05-03T14:59:51Z</time></trkpt><trkpt lat="43.958608994698196" lon="11.75040277267675"><ele>601.2</ele><time>2026-05-03T14:59:52Z</time></trkpt><trkpt lat="43.95855136022757" lon="11.750579125640462"><ele>605.0</ele><time>2026-05-03T14:59:53Z</time></trkpt><trkpt lat="43.95847774230346" lon="11.750750787619223"><ele>605.0</ele><time>2026-05-03T14:59:53.999Z</time></trkpt><trkpt lat="43.958449359316894" lon="11.750909173009768"><ele>605.0</ele><time>2026-05-03T14:59:54.999Z</time></trkpt><trkpt lat="43.958487740337745" lon="11.75109119867111"><ele>605.0</ele><time>2026-05-03T14:59:55.999Z</time></trkpt><trkpt lat="43.9585723663705" lon="11.75126901626776"><ele>605.0</ele><time>2026-05-03T14:59:56.999Z</time></trkpt><trkpt lat="43.95867035769499" lon="11.751480039975043"><ele>597.3333333333333</ele><time>2026-05-03T14:59:57.999Z</time></trkpt><trkpt lat="43.95874982287468" lon="11.751730732142564"><ele>589.6666666666666</ele><time>2026-05-03T14:59:58.999Z</time></trkpt><trkpt lat="43.958789558814445" lon="11.7519999897059"><ele>582.0</ele><time>2026-05-03T14:59:59.999Z</time></trkpt><trkpt lat="43.95882407771058" lon="11.752228146840658"><ele>571.3333333333334</ele><time>2026-05-03T15:00:00.999Z</time></trkpt><trkpt lat="43.95889410596985" lon="11.752417465679736"><ele>560.6666666666667</ele><time>2026-05-03T15:00:01.999Z</time></trkpt><trkpt lat="43.959015036756185" lon="11.752558479425192"><ele>550.0</ele><time>2026-05-03T15:00:02.999Z</time></trkpt><trkpt lat="43.95916993984427" lon="11.752651507641781"><ele>553.0</ele><time>2026-05-03T15:00:03.999Z</time></trkpt><trkpt lat="43.95933946057585" lon="11.752670902268266"><ele>556.0</ele><time>2026-05-03T15:00:04.999Z</time></trkpt><trkpt lat="43.959535851363334" lon="11.752571268710183"><ele>559.0</ele><time>2026-05-03T15:00:05.999Z</time></trkpt><trkpt lat="43.95969440415771" lon="11.75252993839283"><ele>559.0</ele><time>2026-05-03T15:00:06.999Z</time></trkpt><trkpt lat="43.9598098598647" lon="11.75254055164982"><ele>559.0</ele><time>2026-05-03T15:00:07.999Z</time></trkpt><trkpt lat="43.95987794467623" lon="11.752630799682873"><ele>559.0</ele><time>2026-05-03T15:00:08.999Z</time></trkpt><trkpt lat="43.959908700498936" lon="11.752760533931305"><ele>559.0</ele><time>2026-05-03T15:00:09.999Z</time></trkpt><trkpt lat="43.959927273336355" lon="11.752925392718955"><ele>559.0</ele><time>2026-05-03T15:00:10.999Z</time></trkpt><trkpt lat="43.9599623490847" lon="11.753103001446945"><ele>562.3333333333334</ele><time>2026-05-03T15:00:11.999Z</time></trkpt><trkpt lat="43.96004334221214" lon="11.753241075029031"><ele>565.6666666666666</ele><time>2026-05-03T15:00:12.999Z</time></trkpt><trkpt lat="43.960171513613645" lon="11.753340569853565"><ele>569.0</ele><time>2026-05-03T15:00:13.999Z</time></trkpt><trkpt lat="43.96034369477446" lon="11.753422547573908"><ele>569.0</ele><time>2026-05-03T15:00:15Z</time></trkpt><trkpt lat="43.960531895406476" lon="11.75350987197476"><ele>569.0</ele><time>2026-05-03T15:00:16Z</time></trkpt><trkpt lat="43.96068694889358" lon="11.753617531013436"><ele>569.0</ele><time>2026-05-03T15:00:17Z</time></trkpt><trkpt lat="43.96082216535809" lon="11.753771876857344"><ele>565.3333333333333</ele><time>2026-05-03T15:00:18Z</time></trkpt><trkpt lat="43.96095538779383" lon="11.75398805354184"><ele>561.6666666666666</ele><time>2026-05-03T15:00:19Z</time></trkpt><trkpt lat="43.961084981481825" lon="11.754248479788547"><ele>558.0</ele><time>2026-05-03T15:00:20Z</time></trkpt><trkpt lat="43.96121321513111" lon="11.754559615886746"><ele>547.0</ele><time>2026-05-03T15:00:21Z</time></trkpt><trkpt lat="43.96136640544496" lon="11.75487597360533"><ele>536.0</ele><time>2026-05-03T15:00:22Z</time></trkpt><trkpt lat="43.96154100282405" lon="11.755164960232404"><ele>540.5</ele><time>2026-05-03T15:00:23Z</time></trkpt><trkpt lat="43.96172074632647" lon="11.755405881580494"><ele>545.0</ele><time>2026-05-03T15:00:24Z</time></trkpt><trkpt lat="43.96186508499659" lon="11.755610591015751"><ele>545.0</ele><time>2026-05-03T15:00:25Z</time></trkpt><trkpt lat="43.96196231284515" lon="11.755754528081006"><ele>545.0</ele><time>2026-05-03T15:00:26Z</time></trkpt><trkpt lat="43.96206970898906" lon="11.7558604181492"><ele>545.0</ele><time>2026-05-03T15:00:27Z</time></trkpt><trkpt lat="43.96221944333874" lon="11.755918093965136"><ele>545.0</ele><time>2026-05-03T15:00:28Z</time></trkpt><trkpt lat="43.96239024039041" lon="11.755958927457941"><ele>545.3333333333333</ele><time>2026-05-03T15:00:29Z</time></trkpt><trkpt lat="43.96254463259213" lon="11.75600624326368"><ele>545.6666666666666</ele><time>2026-05-03T15:00:30Z</time></trkpt><trkpt lat="43.962665315685385" lon="11.756087105618741"><ele>546.0</ele><time>2026-05-03T15:00:31Z</time></trkpt><trkpt lat="43.96277194207862" lon="11.756250024346153"><ele>546.0</ele><time>2026-05-03T15:00:32Z</time></trkpt><trkpt lat="43.962874242440506" lon="11.756457158879753"><ele>546.0</ele><time>2026-05-03T15:00:33Z</time></trkpt><trkpt lat="43.96298889187054" lon="11.756702611558817"><ele>546.0</ele><time>2026-05-03T15:00:34Z</time></trkpt><trkpt lat="43.96313150964991" lon="11.75696776264182"><ele>537.0</ele><time>2026-05-03T15:00:35Z</time></trkpt><trkpt lat="43.96328900835656" lon="11.757242498978382"><ele>528.0</ele><time>2026-05-03T15:00:36Z</time></trkpt><trkpt lat="43.96343287841593" lon="11.757499732360845"><ele>534.6666666666666</ele><time>2026-05-03T15:00:37Z</time></trkpt><trkpt lat="43.963544579900166" lon="11.75773527380571"><ele>541.3333333333333</ele><time>2026-05-03T15:00:38Z</time></trkpt><trkpt lat="43.96360919408573" lon="11.75798288584597"><ele>548.0</ele><time>2026-05-03T15:00:39Z</time></trkpt><trkpt lat="43.9636438105323" lon="11.758261070819826"><ele>548.0</ele><time>2026-05-03T15:00:40Z</time></trkpt><trkpt lat="43.9636704608681" lon="11.758533188872084"><ele>548.0</ele><time>2026-05-03T15:00:41Z</time></trkpt><trkpt lat="43.96370155452707" lon="11.758772916264943"><ele>548.0</ele><time>2026-05-03T15:00:42Z</time></trkpt><trkpt lat="43.96374465648993" lon="11.758974587334693"><ele>542.0</ele><time>2026-05-03T15:00:43Z</time></trkpt><trkpt lat="43.96382176652411" lon="11.75911519929081"><ele>536.0</ele><time>2026-05-03T15:00:44Z</time></trkpt><trkpt lat="43.963938381559" lon="11.75917034121085"><ele>530.0</ele><time>2026-05-03T15:00:45Z</time></trkpt><trkpt lat="43.9640878089653" lon="11.759128689017238"><ele>524.0</ele><time>2026-05-03T15:00:46Z</time></trkpt><trkpt lat="43.964266037023556" lon="11.759077617714123"><ele>523.3333333333333</ele><time>2026-05-03T15:00:47Z</time></trkpt><trkpt lat="43.96446938800886" lon="11.75906656474667"><ele>522.6666666666666</ele><time>2026-05-03T15:00:48Z</time></trkpt><trkpt lat="43.96467280465546" lon="11.759087157960048"><ele>522.0</ele><time>2026-05-03T15:00:49Z</time></trkpt><trkpt lat="43.96488855651217" lon="11.759127822429265"><ele>523.6666666666666</ele><time>2026-05-03T15:00:50Z</time></trkpt><trkpt lat="43.965109158626355" lon="11.759177184760425"><ele>525.3333333333333</ele><time>2026-05-03T15:00:51Z</time></trkpt><trkpt lat="43.96529438805398" lon="11.759235945621802"><ele>527.0</ele><time>2026-05-03T15:00:52Z</time></trkpt><trkpt lat="43.96545224564251" lon="11.759225874599318"><ele>527.0</ele><time>2026-05-03T15:00:53Z</time></trkpt><trkpt lat="43.96558173651134" lon="11.759201242685725"><ele>527.0</ele><time>2026-05-03T15:00:54Z</time></trkpt><trkpt lat="43.96569503233274" lon="11.759273801418024"><ele>527.0</ele><time>2026-05-03T15:00:55Z</time></trkpt><trkpt lat="43.96580241293766" lon="11.759383314792458"><ele>527.0</ele><time>2026-05-03T15:00:56Z</time></trkpt><trkpt lat="43.965939168765296" lon="11.759417681308364"><ele>529.3333333333333</ele><time>2026-05-03T15:00:57Z</time></trkpt><trkpt lat="43.96611028965648" lon="11.75937745112217"><ele>531.6666666666666</ele><time>2026-05-03T15:00:58Z</time></trkpt><trkpt lat="43.96628383373493" lon="11.759349507706316"><ele>534.0</ele><time>2026-05-03T15:00:59Z</time></trkpt><trkpt lat="43.966418721088246" lon="11.759410564933292"><ele>527.75</ele><time>2026-05-03T15:01:00Z</time></trkpt><trkpt lat="43.96653070729027" lon="11.759525966735747"><ele>521.5</ele><time>2026-05-03T15:01:01Z</time></trkpt><trkpt lat="43.966611036023394" lon="11.759667556055668"><ele>515.25</ele><time>2026-05-03T15:01:02Z</time></trkpt><trkpt lat="43.96665723772333" lon="11.759802419840243"><ele>509.0</ele><time>2026-05-03T15:01:03Z</time></trkpt><trkpt lat="43.9666934610627" lon="11.759909015174161"><ele>511.99999999999994</ele><time>2026-05-03T15:01:04Z</time></trkpt><trkpt lat="43.96673835279206" lon="11.759997070181997"><ele>515.0</ele><time>2026-05-03T15:01:05Z</time></trkpt><trkpt lat="43.966810240304135" lon="11.760061843142767"><ele>518.0</ele><time>2026-05-03T15:01:06Z</time></trkpt><trkpt lat="43.966896922878455" lon="11.76009496773038"><ele>521.0</ele><time>2026-05-03T15:01:07Z</time></trkpt><trkpt lat="43.96699362887085" lon="11.760103086200576"><ele>524.0</ele><time>2026-05-03T15:01:08Z</time></trkpt><trkpt lat="43.9670889172204" lon="11.76008364267083"><ele>527.0</ele><time>2026-05-03T15:01:09Z</time></trkpt><trkpt lat="43.96717755649258" lon="11.760070338465047"><ele>527.0</ele><time>2026-05-03T15:01:10Z</time></trkpt><trkpt lat="43.967259716528645" lon="11.760095856232574"><ele>527.0</ele><time>2026-05-03T15:01:11Z</time></trkpt><trkpt lat="43.96731979681554" lon="11.760210609645796"><ele>527.0</ele><time>2026-05-03T15:01:12Z</time></trkpt><trkpt lat="43.96740608039346" lon="11.760293338028943"><ele>527.0</ele><time>2026-05-03T15:01:13Z</time></trkpt><trkpt lat="43.96750818557721" lon="11.760389710801402"><ele>527.0</ele><time>2026-05-03T15:01:14Z</time></trkpt><trkpt lat="43.96761953845614" lon="11.760492026478593"><ele>523.0</ele><time>2026-05-03T15:01:15Z</time></trkpt><trkpt lat="43.96773867514327" lon="11.76060219675627"><ele>519.0</ele><time>2026-05-03T15:01:16Z</time></trkpt><trkpt lat="43.967862853209134" lon="11.760718657905052"><ele>515.0</ele><time>2026-05-03T15:01:17Z</time></trkpt><trkpt lat="43.96799680807662" lon="11.760839948939605"><ele>515.0</ele><time>2026-05-03T15:01:18Z</time></trkpt><trkpt lat="43.96814237153928" lon="11.76095174626162"><ele>515.0</ele><time>2026-05-03T15:01:19Z</time></trkpt><trkpt lat="43.968282000432026" lon="11.761085361817038"><ele>515.0</ele><time>2026-05-03T15:01:20Z</time></trkpt><trkpt lat="43.968420513903645" lon="11.761232346260506"><ele>518.6666666666666</ele><time>2026-05-03T15:01:21Z</time></trkpt><trkpt lat="43.9685292011798" lon="11.761432086895507"><ele>522.3333333333334</ele><time>2026-05-03T15:01:22Z</time></trkpt><trkpt lat="43.968648312103504" lon="11.761591336635785"><ele>526.0</ele><time>2026-05-03T15:01:23Z</time></trkpt><trkpt lat="43.96874881955464" lon="11.761729279601102"><ele>526.5</ele><time>2026-05-03T15:01:24Z</time></trkpt><trkpt lat="43.96884400586464" lon="11.761871353298067"><ele>527.0</ele><time>2026-05-03T15:01:25Z</time></trkpt><trkpt lat="43.968970737719914" lon="11.761976529792546"><ele>527.5</ele><time>2026-05-03T15:01:26Z</time></trkpt><trkpt lat="43.96911558122794" lon="11.762064376469969"><ele>528.0</ele><time>2026-05-03T15:01:27Z</time></trkpt><trkpt lat="43.969284610194954" lon="11.762101153154791"><ele>528.0</ele><time>2026-05-03T15:01:28Z</time></trkpt><trkpt lat="43.96943583178603" lon="11.76214370812201"><ele>528.0</ele><time>2026-05-03T15:01:29Z</time></trkpt><trkpt lat="43.969524391452694" lon="11.762297149311582"><ele>528.0</ele><time>2026-05-03T15:01:30Z</time></trkpt><trkpt lat="43.96961994594704" lon="11.762470356895575"><ele>528.0</ele><time>2026-05-03T15:01:31Z</time></trkpt><trkpt lat="43.96973672531075" lon="11.762663733835202"><ele>528.0</ele><time>2026-05-03T15:01:32Z</time></trkpt><trkpt lat="43.969868693219624" lon="11.762854366907598"><ele>528.0</ele><time>2026-05-03T15:01:33Z</time></trkpt><trkpt lat="43.96998352573489" lon="11.76307515816797"><ele>537.0</ele><time>2026-05-03T15:01:34Z</time></trkpt><trkpt lat="43.97010154456685" lon="11.763252234137711"><ele>546.0</ele><time>2026-05-03T15:01:35Z</time></trkpt><trkpt lat="43.97017520609652" lon="11.763483944774109"><ele>555.0</ele><time>2026-05-03T15:01:36Z</time></trkpt><trkpt lat="43.9702233788003" lon="11.763727136303759"><ele>555.0</ele><time>2026-05-03T15:01:37Z</time></trkpt><trkpt lat="43.970233568593514" lon="11.763972945952913"><ele>555.0</ele><time>2026-05-03T15:01:38Z</time></trkpt><trkpt lat="43.97021878210306" lon="11.764198121776577"><ele>555.0</ele><time>2026-05-03T15:01:38.999Z</time></trkpt><trkpt lat="43.970215604814655" lon="11.764388873493068"><ele>552.0</ele><time>2026-05-03T15:01:39.999Z</time></trkpt><trkpt lat="43.9702004254549" lon="11.764531034378487"><ele>549.0</ele><time>2026-05-03T15:01:40.999Z</time></trkpt><trkpt lat="43.97018819797101" lon="11.764666520680501"><ele>546.0</ele><time>2026-05-03T15:01:41.999Z</time></trkpt><trkpt lat="43.970176696933834" lon="11.764786103164063"><ele>543.0</ele><time>2026-05-03T15:01:42.999Z</time></trkpt><trkpt lat="43.970170330432424" lon="11.764896789397687"><ele>540.0</ele><time>2026-05-03T15:01:43.999Z</time></trkpt><trkpt lat="43.97017590305422" lon="11.765000250727534"><ele>537.0</ele><time>2026-05-03T15:01:44.999Z</time></trkpt><trkpt lat="43.97020194373398" lon="11.765090732809806"><ele>537.0</ele><time>2026-05-03T15:01:45.999Z</time></trkpt><trkpt lat="43.97026626569084" lon="11.765158110478074"><ele>537.0</ele><time>2026-05-03T15:01:46.999Z</time></trkpt><trkpt lat="43.97035834152509" lon="11.765200215357458"><ele>537.0</ele><time>2026-05-03T15:01:47.999Z</time></trkpt><trkpt lat="43.97045653603207" lon="11.765279004071767"><ele>537.0</ele><time>2026-05-03T15:01:48.999Z</time></trkpt><trkpt lat="43.97059829641118" lon="11.76537382124202"><ele>537.0</ele><time>2026-05-03T15:01:49.999Z</time></trkpt><trkpt lat="43.970776996822494" lon="11.765493383388563"><ele>522.5</ele><time>2026-05-03T15:01:50.999Z</time></trkpt><trkpt lat="43.97098402203291" lon="11.765628612906758"><ele>508.0</ele><time>2026-05-03T15:01:51.999Z</time></trkpt><trkpt lat="43.97119307663125" lon="11.765745263570228"><ele>508.0</ele><time>2026-05-03T15:01:52.999Z</time></trkpt><trkpt lat="43.97133508252248" lon="11.765931346767973"><ele>508.0</ele><time>2026-05-03T15:01:53.999Z</time></trkpt><trkpt lat="43.971465955510766" lon="11.766094638257291"><ele>508.0</ele><time>2026-05-03T15:01:54.999Z</time></trkpt><trkpt lat="43.97157220977583" lon="11.766214888034126"><ele>505.79999999999995</ele><time>2026-05-03T15:01:55.999Z</time></trkpt><trkpt lat="43.97165182897879" lon="11.766298812563567"><ele>503.59999999999997</ele><time>2026-05-03T15:01:56.999Z</time></trkpt><trkpt lat="43.97174762555064" lon="11.766245095015195"><ele>501.40000000000003</ele><time>2026-05-03T15:01:57.999Z</time></trkpt><trkpt lat="43.97182235068994" lon="11.766197486109869"><ele>499.20000000000005</ele><time>2026-05-03T15:01:58.999Z</time></trkpt><trkpt lat="43.971839020820966" lon="11.766020330505143"><ele>497.0</ele><time>2026-05-03T15:01:59.999Z</time></trkpt><trkpt lat="43.97183190163318" lon="11.765848740025618"><ele>503.0</ele><time>2026-05-03T15:02:00.999Z</time></trkpt><trkpt lat="43.97183770879204" lon="11.765674903958756"><ele>509.0</ele><time>2026-05-03T15:02:01.999Z</time></trkpt><trkpt lat="43.971929144728655" lon="11.765574712983208"><ele>515.0</ele><time>2026-05-03T15:02:02.999Z</time></trkpt><trkpt lat="43.97204188291183" lon="11.765490526427783"><ele>521.0</ele><time>2026-05-03T15:02:03.999Z</time></trkpt><trkpt lat="43.9721578817894" lon="11.76544956933104"><ele>521.0</ele><time>2026-05-03T15:02:04.999Z</time></trkpt><trkpt lat="43.97224361833049" lon="11.765515131799958"><ele>521.0</ele><time>2026-05-03T15:02:05.999Z</time></trkpt><trkpt lat="43.97229678626651" lon="11.765624001541754"><ele>521.0</ele><time>2026-05-03T15:02:06.999Z</time></trkpt><trkpt lat="43.97230693932741" lon="11.765798821419907"><ele>521.0</ele><time>2026-05-03T15:02:07.999Z</time></trkpt><trkpt lat="43.97234189792994" lon="11.765995779194226"><ele>513.0</ele><time>2026-05-03T15:02:08.999Z</time></trkpt><trkpt lat="43.9723777115318" lon="11.766226239964164"><ele>505.0</ele><time>2026-05-03T15:02:09.999Z</time></trkpt><trkpt lat="43.97241866483129" lon="11.766430013812798"><ele>497.0</ele><time>2026-05-03T15:02:10.999Z</time></trkpt><trkpt lat="43.97249018338609" lon="11.766584142155494"><ele>505.0</ele><time>2026-05-03T15:02:11.999Z</time></trkpt><trkpt lat="43.97261575763886" lon="11.766682282630253"><ele>513.0</ele><time>2026-05-03T15:02:12.999Z</time></trkpt><trkpt lat="43.97279100363077" lon="11.766735313797295"><ele>521.0</ele><time>2026-05-03T15:02:13.999Z</time></trkpt><trkpt lat="43.97296395933944" lon="11.766833908444609"><ele>517.3333333333333</ele><time>2026-05-03T15:02:14.999Z</time></trkpt><trkpt lat="43.973161558396654" lon="11.766946451531423"><ele>513.6666666666666</ele><time>2026-05-03T15:02:15.999Z</time></trkpt><trkpt lat="43.97338060528376" lon="11.767051508714943"><ele>510.0</ele><time>2026-05-03T15:02:16.999Z</time></trkpt><trkpt lat="43.97355582367515" lon="11.767156269069506"><ele>510.0</ele><time>2026-05-03T15:02:17.999Z</time></trkpt><trkpt lat="43.97369537004159" lon="11.76722032347557"><ele>510.0</ele><time>2026-05-03T15:02:18.999Z</time></trkpt><trkpt lat="43.973827799476396" lon="11.767222934430082"><ele>510.0</ele><time>2026-05-03T15:02:19.999Z</time></trkpt><trkpt lat="43.97392758240551" lon="11.767159787357283"><ele>510.0</ele><time>2026-05-03T15:02:21Z</time></trkpt><trkpt lat="43.974049171753485" lon="11.767165181923234"><ele>510.0</ele><time>2026-05-03T15:02:22Z</time></trkpt><trkpt lat="43.97415286428119" lon="11.767205024374551"><ele>510.0</ele><time>2026-05-03T15:02:23Z</time></trkpt><trkpt lat="43.97417492136097" lon="11.767353648045416"><ele>510.0</ele><time>2026-05-03T15:02:24Z</time></trkpt><trkpt lat="43.97415836207259" lon="11.767601668738045"><ele>510.0</ele><time>2026-05-03T15:02:25Z</time></trkpt><trkpt lat="43.97416375462214" lon="11.767797036681124"><ele>518.3333333333334</ele><time>2026-05-03T15:02:26Z</time></trkpt><trkpt lat="43.974228752515096" lon="11.768044188722927"><ele>526.6666666666667</ele><time>2026-05-03T15:02:27Z</time></trkpt><trkpt lat="43.97432031548025" lon="11.76824728433964"><ele>535.0</ele><time>2026-05-03T15:02:28Z</time></trkpt><trkpt lat="43.97445833866343" lon="11.768394955603664"><ele>525.0</ele><time>2026-05-03T15:02:29Z</time></trkpt><trkpt lat="43.974625824210264" lon="11.768600550822821"><ele>515.0</ele><time>2026-05-03T15:02:30Z</time></trkpt><trkpt lat="43.974801322629496" lon="11.768794939313427"><ele>505.0</ele><time>2026-05-03T15:02:31Z</time></trkpt><trkpt lat="43.97501181420422" lon="11.769039327548327"><ele>513.0</ele><time>2026-05-03T15:02:32Z</time></trkpt><trkpt lat="43.97518044695992" lon="11.769283678781965"><ele>521.0</ele><time>2026-05-03T15:02:33Z</time></trkpt><trkpt lat="43.975309865551246" lon="11.769528436013463"><ele>521.0</ele><time>2026-05-03T15:02:34Z</time></trkpt><trkpt lat="43.9754276809783" lon="11.769816123716852"><ele>521.0</ele><time>2026-05-03T15:02:35Z</time></trkpt><trkpt lat="43.9755137230999" lon="11.770118129891976"><ele>514.6666666666666</ele><time>2026-05-03T15:02:36Z</time></trkpt><trkpt lat="43.975586312845145" lon="11.770440155201827"><ele>508.33333333333337</ele><time>2026-05-03T15:02:37Z</time></trkpt><trkpt lat="43.97565609056654" lon="11.770689894173113"><ele>502.0</ele><time>2026-05-03T15:02:38Z</time></trkpt><trkpt lat="43.97571320988102" lon="11.770940793437772"><ele>500.6</ele><time>2026-05-03T15:02:39Z</time></trkpt><trkpt lat="43.97574746086506" lon="11.771093172747115"><ele>499.20000000000005</ele><time>2026-05-03T15:02:40Z</time></trkpt><trkpt lat="43.97576317030746" lon="11.771257543627483"><ele>497.8</ele><time>2026-05-03T15:02:41Z</time></trkpt><trkpt lat="43.97573802638683" lon="11.771400918606439"><ele>496.4</ele><time>2026-05-03T15:02:42Z</time></trkpt><trkpt lat="43.97568285034769" lon="11.771495220230502"><ele>495.0</ele><time>2026-05-03T15:02:43Z</time></trkpt><trkpt lat="43.97562579628223" lon="11.771634575159776"><ele>495.0</ele><time>2026-05-03T15:02:44Z</time></trkpt><trkpt lat="43.9755452298049" lon="11.771760291356202"><ele>495.0</ele><time>2026-05-03T15:02:45Z</time></trkpt><trkpt lat="43.975462616915515" lon="11.771946830959093"><ele>495.0</ele><time>2026-05-03T15:02:46Z</time></trkpt><trkpt lat="43.975383448422264" lon="11.772132467619615"><ele>495.0</ele><time>2026-05-03T15:02:47Z</time></trkpt><trkpt lat="43.97529728788696" lon="11.772322375854023"><ele>496.33333333333337</ele><time>2026-05-03T15:02:48Z</time></trkpt><trkpt lat="43.975211207087035" lon="11.772519496236626"><ele>497.6666666666667</ele><time>2026-05-03T15:02:49Z</time></trkpt><trkpt lat="43.97513509945698" lon="11.772717180346897"><ele>499.0</ele><time>2026-05-03T15:02:50Z</time></trkpt><trkpt lat="43.9750912115454" lon="11.772915877941283"><ele>498.5</ele><time>2026-05-03T15:02:51Z</time></trkpt><trkpt lat="43.975086083554196" lon="11.77310040325508"><ele>498.0</ele><time>2026-05-03T15:02:52Z</time></trkpt><trkpt lat="43.9751129698502" lon="11.773270080321158"><ele>497.5</ele><time>2026-05-03T15:02:53Z</time></trkpt><trkpt lat="43.97515910304605" lon="11.773460922509491"><ele>497.0</ele><time>2026-05-03T15:02:54Z</time></trkpt><trkpt lat="43.975216886554705" lon="11.773657961040579"><ele>497.0</ele><time>2026-05-03T15:02:55Z</time></trkpt><trkpt lat="43.97526786722254" lon="11.773864203848074"><ele>497.0</ele><time>2026-05-03T15:02:56Z</time></trkpt><trkpt lat="43.97526518704861" lon="11.774070323016291"><ele>497.0</ele><time>2026-05-03T15:02:57Z</time></trkpt><trkpt lat="43.975254096760835" lon="11.774258640193999"><ele>497.0</ele><time>2026-05-03T15:02:58Z</time></trkpt><trkpt lat="43.97525362254294" lon="11.77442642133873"><ele>493.6</ele><time>2026-05-03T15:02:59Z</time></trkpt><trkpt lat="43.97525739682775" lon="11.774556569648675"><ele>490.20000000000005</ele><time>2026-05-03T15:03:00Z</time></trkpt><trkpt lat="43.97529722938352" lon="11.77467628054545"><ele>486.8</ele><time>2026-05-03T15:03:01Z</time></trkpt><trkpt lat="43.97534963434045" lon="11.774778640118521"><ele>483.4</ele><time>2026-05-03T15:03:02Z</time></trkpt><trkpt lat="43.97541426003754" lon="11.774867846623886"><ele>480.0</ele><time>2026-05-03T15:03:03Z</time></trkpt><trkpt lat="43.97548414694257" lon="11.77494541875372"><ele>480.0</ele><time>2026-05-03T15:03:04Z</time></trkpt><trkpt lat="43.9755604833761" lon="11.775006628998723"><ele>480.0</ele><time>2026-05-03T15:03:05Z</time></trkpt><trkpt lat="43.975634112228505" lon="11.775070091806786"><ele>480.0</ele><time>2026-05-03T15:03:06Z</time></trkpt><trkpt lat="43.975708734632036" lon="11.775132199928285"><ele>480.0</ele><time>2026-05-03T15:03:07Z</time></trkpt><trkpt lat="43.97578819760142" lon="11.775193064761744"><ele>480.0</ele><time>2026-05-03T15:03:08Z</time></trkpt><trkpt lat="43.975883139189285" lon="11.775228606826758"><ele>480.4</ele><time>2026-05-03T15:03:09Z</time></trkpt><trkpt lat="43.97598011116797" lon="11.7752256256974"><ele>480.8</ele><time>2026-05-03T15:03:10Z</time></trkpt><trkpt lat="43.976079357565055" lon="11.775174712261942"><ele>481.20000000000005</ele><time>2026-05-03T15:03:11Z</time></trkpt><trkpt lat="43.976181765210704" lon="11.775096040422792"><ele>481.6</ele><time>2026-05-03T15:03:12Z</time></trkpt><trkpt lat="43.97629468543401" lon="11.775060913772329"><ele>482.0</ele><time>2026-05-03T15:03:13Z</time></trkpt><trkpt lat="43.97640636752933" lon="11.775011103142605"><ele>482.0</ele><time>2026-05-03T15:03:14Z</time></trkpt><trkpt lat="43.976520906575885" lon="11.774975323231201"><ele>482.0</ele><time>2026-05-03T15:03:15Z</time></trkpt><trkpt lat="43.97664247052331" lon="11.774972925849784"><ele>482.0</ele><time>2026-05-03T15:03:16Z</time></trkpt><trkpt lat="43.97676341402599" lon="11.774989716375439"><ele>482.0</ele><time>2026-05-03T15:03:17Z</time></trkpt><trkpt lat="43.97689236600947" lon="11.775014570626377"><ele>486.25</ele><time>2026-05-03T15:03:18Z</time></trkpt><trkpt lat="43.97701630271746" lon="11.775018270538327"><ele>490.5</ele><time>2026-05-03T15:03:19Z</time></trkpt><trkpt lat="43.97713266444749" lon="11.775053080220326"><ele>494.75</ele><time>2026-05-03T15:03:20Z</time></trkpt><trkpt lat="43.977251458824405" lon="11.775069864545392"><ele>499.0</ele><time>2026-05-03T15:03:21Z</time></trkpt><trkpt lat="43.977365349900865" lon="11.775099174681458"><ele>499.0</ele><time>2026-05-03T15:03:22Z</time></trkpt><trkpt lat="43.97747615709901" lon="11.775140209836135"><ele>499.0</ele><time>2026-05-03T15:03:23Z</time></trkpt><trkpt lat="43.977580437409806" lon="11.775236612319796"><ele>499.0</ele><time>2026-05-03T15:03:24Z</time></trkpt><trkpt lat="43.977683492224976" lon="11.77532371183705"><ele>499.0</ele><time>2026-05-03T15:03:25Z</time></trkpt><trkpt lat="43.9777796536153" lon="11.775438037826836"><ele>496.0</ele><time>2026-05-03T15:03:26Z</time></trkpt><trkpt lat="43.97788890645639" lon="11.775550051120812"><ele>493.0</ele><time>2026-05-03T15:03:27Z</time></trkpt><trkpt lat="43.977985864939974" lon="11.775687773249127"><ele>490.0</ele><time>2026-05-03T15:03:28Z</time></trkpt><trkpt lat="43.97806324951581" lon="11.775838467837168"><ele>487.0</ele><time>2026-05-03T15:03:29Z</time></trkpt><trkpt lat="43.97813027256311" lon="11.77597721114424"><ele>482.0</ele><time>2026-05-03T15:03:30Z</time></trkpt><trkpt lat="43.978183348129896" lon="11.776116303373973"><ele>477.00000000000006</ele><time>2026-05-03T15:03:31Z</time></trkpt><trkpt lat="43.9782121024601" lon="11.776258106508589"><ele>472.00000000000006</ele><time>2026-05-03T15:03:32Z</time></trkpt><trkpt lat="43.97823393208422" lon="11.776411316857084"><ele>467.0</ele><time>2026-05-03T15:03:33Z</time></trkpt><trkpt lat="43.97825269625424" lon="11.776568285177621"><ele>462.0</ele><time>2026-05-03T15:03:34Z</time></trkpt><trkpt lat="43.9782874592067" lon="11.776726779066655"><ele>460.0</ele><time>2026-05-03T15:03:35Z</time></trkpt><trkpt lat="43.978310273009626" lon="11.776889342532707"><ele>458.0</ele><time>2026-05-03T15:03:36Z</time></trkpt><trkpt lat="43.978315718656084" lon="11.77705397062545"><ele>456.0</ele><time>2026-05-03T15:03:37Z</time></trkpt><trkpt lat="43.97833676596417" lon="11.777215504366277"><ele>454.0</ele><time>2026-05-03T15:03:38Z</time></trkpt><trkpt lat="43.97835907924327" lon="11.77738309810778"><ele>456.75</ele><time>2026-05-03T15:03:39Z</time></trkpt><trkpt lat="43.978382976773936" lon="11.777549158612645"><ele>459.5</ele><time>2026-05-03T15:03:40Z</time></trkpt><trkpt lat="43.97842321172865" lon="11.77771480096644"><ele>462.25</ele><time>2026-05-03T15:03:41Z</time></trkpt><trkpt lat="43.97844461523003" lon="11.777884697163321"><ele>465.0</ele><time>2026-05-03T15:03:42Z</time></trkpt><trkpt lat="43.978467946856675" lon="11.77805672970225"><ele>465.0</ele><time>2026-05-03T15:03:43Z</time></trkpt><trkpt lat="43.97849034335331" lon="11.778215842975808"><ele>465.0</ele><time>2026-05-03T15:03:44Z</time></trkpt><trkpt lat="43.97850926651522" lon="11.778356969363768"><ele>465.0</ele><time>2026-05-03T15:03:45Z</time></trkpt><trkpt lat="43.978527489649494" lon="11.778466335725954"><ele>465.0</ele><time>2026-05-03T15:03:46Z</time></trkpt><trkpt lat="43.97853274754764" lon="11.778561795309606"><ele>451.0</ele><time>2026-05-03T15:03:48Z</time></trkpt><trkpt lat="43.978558814043595" lon="11.778644056738804"><ele>451.0</ele><time>2026-05-03T15:03:51Z</time></trkpt></trkseg><trkseg><trkpt lat="43.933890978095036" lon="11.68573866174551"><ele>893.0</ele><time>2026-05-03T15:19:57Z</time></trkpt><trkpt lat="43.93383958884692" lon="11.685791930215203"><ele>893.0</ele><time>2026-05-03T15:20:39Z</time></trkpt><trkpt lat="43.93377826596061" lon="11.685828554631277"><ele>893.0</ele><time>2026-05-03T15:20:40Z</time></trkpt><trkpt lat="43.933690149177814" lon="11.685880417738293"><ele>893.0</ele><time>2026-05-03T15:20:41Z</time></trkpt><trkpt lat="43.93358430145427" lon="11.685944180370806"><ele>893.0</ele><time>2026-05-03T15:20:42Z</time></trkpt><trkpt lat="43.93348725124323" lon="11.686015850528994"><ele>890.5</ele><time>2026-05-03T15:20:43Z</time></trkpt><trkpt lat="43.93341264876424" lon="11.686123926936652"><ele>888.0</ele><time>2026-05-03T15:20:44Z</time></trkpt><trkpt lat="43.933361274489144" lon="11.686278664651155"><ele>885.5</ele><time>2026-05-03T15:20:45Z</time></trkpt><trkpt lat="43.933362301207865" lon="11.686486788547066"><ele>883.0</ele><time>2026-05-03T15:20:46Z</time></trkpt><trkpt lat="43.93338211205127" lon="11.686696764145026"><ele>884.75</ele><time>2026-05-03T15:20:47Z</time></trkpt><trkpt lat="43.93337583084524" lon="11.68688574534828"><ele>886.5</ele><time>2026-05-03T15:20:48Z</time></trkpt><trkpt lat="43.93331865322865" lon="11.687055202375767"><ele>888.25</ele><time>2026-05-03T15:20:49Z</time></trkpt><trkpt lat="43.93321257402904" lon="11.687215175338054"><ele>890.0</ele><time>2026-05-03T15:20:50Z</time></trkpt><trkpt lat="43.933082018204075" lon="11.687379681433233"><ele>890.0</ele><time>2026-05-03T15:20:51Z</time></trkpt><trkpt lat="43.93295920791909" lon="11.68760155763281"><ele>890.0</ele><time>2026-05-03T15:20:52Z</time></trkpt><trkpt lat="43.932855372514695" lon="11.687823699965161"><ele>890.0</ele><time>2026-05-03T15:20:53Z</time></trkpt><trkpt lat="43.93273787368834" lon="11.688018857414502"><ele>893.6666666666667</ele><time>2026-05-03T15:20:54Z</time></trkpt><trkpt lat="43.93261638673864" lon="11.688219808140298"><ele>897.3333333333333</ele><time>2026-05-03T15:20:55Z</time></trkpt><trkpt lat="43.932419480988735" lon="11.6882654154598"><ele>901.0</ele><time>2026-05-03T15:20:56Z</time></trkpt><trkpt lat="43.93225767739117" lon="11.688340424059056"><ele>901.0</ele><time>2026-05-03T15:20:57Z</time></trkpt><trkpt lat="43.932130685391726" lon="11.688378685595692"><ele>901.0</ele><time>2026-05-03T15:20:58Z</time></trkpt><trkpt lat="43.932039542058504" lon="11.688356978506203"><ele>901.0</ele><time>2026-05-03T15:20:59Z</time></trkpt><trkpt lat="43.931969191869456" lon="11.688253694266903"><ele>901.0</ele><time>2026-05-03T15:21:00Z</time></trkpt><trkpt lat="43.93191739064262" lon="11.688093609678521"><ele>901.0</ele><time>2026-05-03T15:21:01Z</time></trkpt><trkpt lat="43.9318544035807" lon="11.687876311847946"><ele>901.0</ele><time>2026-05-03T15:21:02Z</time></trkpt><trkpt lat="43.93180174270135" lon="11.687612504993673"><ele>901.0</ele><time>2026-05-03T15:21:03Z</time></trkpt><trkpt lat="43.93177603235485" lon="11.687309001549897"><ele>903.6666666666666</ele><time>2026-05-03T15:21:04Z</time></trkpt><trkpt lat="43.93173422534833" lon="11.686989873172516"><ele>906.3333333333333</ele><time>2026-05-03T15:21:05Z</time></trkpt><trkpt lat="43.93168084470032" lon="11.686736121690153"><ele>909.0</ele><time>2026-05-03T15:21:06Z</time></trkpt><trkpt lat="43.931654163470824" lon="11.686531278740949"><ele>909.0</ele><time>2026-05-03T15:21:07Z</time></trkpt><trkpt lat="43.93168778715299" lon="11.686299091474748"><ele>909.0</ele><time>2026-05-03T15:21:08Z</time></trkpt><trkpt lat="43.93173475232755" lon="11.685998489221651"><ele>909.0</ele><time>2026-05-03T15:21:09Z</time></trkpt><trkpt lat="43.93178038947565" lon="11.685683626281742"><ele>919.0</ele><time>2026-05-03T15:21:10Z</time></trkpt><trkpt lat="43.93181624674755" lon="11.685395455506711"><ele>929.0</ele><time>2026-05-03T15:21:11Z</time></trkpt><trkpt lat="43.931850934470894" lon="11.685175212779109"><ele>939.0</ele><time>2026-05-03T15:21:12Z</time></trkpt><trkpt lat="43.931846307452396" lon="11.684993884290591"><ele>943.0</ele><time>2026-05-03T15:21:13Z</time></trkpt><trkpt lat="43.931774645978976" lon="11.684795174218738"><ele>947.0</ele><time>2026-05-03T15:21:14Z</time></trkpt><trkpt lat="43.93166530448427" lon="11.68460805217478"><ele>951.0</ele><time>2026-05-03T15:21:15Z</time></trkpt><trkpt lat="43.93153692414318" lon="11.68449628188811"><ele>948.0</ele><time>2026-05-03T15:21:16Z</time></trkpt><trkpt lat="43.93138064714052" lon="11.684445971148106"><ele>945.0</ele><time>2026-05-03T15:21:17Z</time></trkpt><trkpt lat="43.93126695085732" lon="11.684364121677703"><ele>942.0</ele><time>2026-05-03T15:21:18Z</time></trkpt><trkpt lat="43.931202614824684" lon="11.684195293955664"><ele>939.0</ele><time>2026-05-03T15:21:19Z</time></trkpt><trkpt lat="43.93120141800787" lon="11.683999211311567"><ele>939.0</ele><time>2026-05-03T15:21:20Z</time></trkpt><trkpt lat="43.9312463568071" lon="11.683791774188437"><ele>939.0</ele><time>2026-05-03T15:21:21Z</time></trkpt><trkpt lat="43.9312862823128" lon="11.68356551602817"><ele>939.0</ele><time>2026-05-03T15:21:22Z</time></trkpt><trkpt lat="43.931254745525216" lon="11.683357531778357"><ele>937.0</ele><time>2026-05-03T15:21:23Z</time></trkpt><trkpt lat="43.93115446517874" lon="11.68312488550156"><ele>935.0</ele><time>2026-05-03T15:21:24Z</time></trkpt><trkpt lat="43.93103155316027" lon="11.682877321268599"><ele>933.0</ele><time>2026-05-03T15:21:25Z</time></trkpt><trkpt lat="43.93089076458557" lon="11.682611130985348"><ele>933.0</ele><time>2026-05-03T15:21:26Z</time></trkpt><trkpt lat="43.930767895663244" lon="11.682334595015025"><ele>933.0</ele><time>2026-05-03T15:21:27Z</time></trkpt><trkpt lat="43.93068883902871" lon="11.682085292953948"><ele>933.0</ele><time>2026-05-03T15:21:28Z</time></trkpt><trkpt lat="43.93063930608034" lon="11.681847999168602"><ele>935.3333333333333</ele><time>2026-05-03T15:21:29Z</time></trkpt><trkpt lat="43.93061663218082" lon="11.681569206465271"><ele>937.6666666666666</ele><time>2026-05-03T15:21:30Z</time></trkpt><trkpt lat="43.93063316215326" lon="11.681290001047"><ele>940.0</ele><time>2026-05-03T15:21:31Z</time></trkpt><trkpt lat="43.930697418277454" lon="11.681039728811546"><ele>941.3333333333333</ele><time>2026-05-03T15:21:32Z</time></trkpt><trkpt lat="43.93079676986293" lon="11.680795029097457"><ele>942.6666666666667</ele><time>2026-05-03T15:21:33Z</time></trkpt><trkpt lat="43.93089003728226" lon="11.680507465547015"><ele>944.0</ele><time>2026-05-03T15:21:34Z</time></trkpt><trkpt lat="43.93095594366311" lon="11.680179193579647"><ele>959.5</ele><time>2026-05-03T15:21:35Z</time></trkpt><trkpt lat="43.93099205559636" lon="11.679813001596866"><ele>975.0</ele><time>2026-05-03T15:21:36Z</time></trkpt><trkpt lat="43.93102932234489" lon="11.679436421537993"><ele>973.0</ele><time>2026-05-03T15:21:37Z</time></trkpt><trkpt lat="43.93107662553202" lon="11.67906976841889"><ele>971.0</ele><time>2026-05-03T15:21:38Z</time></trkpt><trkpt lat="43.93113545516226" lon="11.67874206008421"><ele>970.0</ele><time>2026-05-03T15:21:39Z</time></trkpt><trkpt lat="43.931215608649275" lon="11.678462756872886"><ele>969.0</ele><time>2026-05-03T15:21:40Z</time></trkpt><trkpt lat="43.93129008803682" lon="11.67821921364673"><ele>968.0</ele><time>2026-05-03T15:21:41Z</time></trkpt><trkpt lat="43.93134207737683" lon="11.678022037126638"><ele>968.0</ele><time>2026-05-03T15:21:42Z</time></trkpt><trkpt lat="43.93134956168745" lon="11.67785689360116"><ele>968.0</ele><time>2026-05-03T15:21:43Z</time></trkpt><trkpt lat="43.93127353864779" lon="11.67776955716406"><ele>968.0</ele><time>2026-05-03T15:21:44Z</time></trkpt><trkpt lat="43.9311821487002" lon="11.677643015091547"><ele>968.0</ele><time>2026-05-03T15:21:45Z</time></trkpt><trkpt lat="43.93109417623416" lon="11.677480715324522"><ele>971.0</ele><time>2026-05-03T15:21:46Z</time></trkpt><trkpt lat="43.9310383102712" lon="11.677279518227456"><ele>974.0</ele><time>2026-05-03T15:21:47Z</time></trkpt><trkpt lat="43.931045548530754" lon="11.677052330352605"><ele>977.0</ele><time>2026-05-03T15:21:48Z</time></trkpt><trkpt lat="43.93108708114929" lon="11.676828649333556"><ele>977.8</ele><time>2026-05-03T15:21:49Z</time></trkpt><trkpt lat="43.93113972248625" lon="11.676646546148834"><ele>978.6</ele><time>2026-05-03T15:21:50Z</time></trkpt><trkpt lat="43.93112675706632" lon="11.676508969022825"><ele>979.3999999999999</ele><time>2026-05-03T15:21:51Z</time></trkpt><trkpt lat="43.93105790001796" lon="11.67641495950224"><ele>980.1999999999999</ele><time>2026-05-03T15:21:52Z</time></trkpt><trkpt lat="43.930958859366164" lon="11.676361534881261"><ele>981.0</ele><time>2026-05-03T15:21:53Z</time></trkpt><trkpt lat="43.930846094063284" lon="11.676393443031412"><ele>976.25</ele><time>2026-05-03T15:21:54Z</time></trkpt><trkpt lat="43.93075380850273" lon="11.676502512199992"><ele>971.5</ele><time>2026-05-03T15:21:55Z</time></trkpt><trkpt lat="43.930660773556966" lon="11.676559329241558"><ele>966.75</ele><time>2026-05-03T15:21:56Z</time></trkpt><trkpt lat="43.93055552823691" lon="11.676518645652852"><ele>962.0</ele><time>2026-05-03T15:21:57Z</time></trkpt><trkpt lat="43.93046049117199" lon="11.676419973021837"><ele>962.0</ele><time>2026-05-03T15:21:58Z</time></trkpt><trkpt lat="43.930374693128385" lon="11.676287731477169"><ele>962.0</ele><time>2026-05-03T15:21:59Z</time></trkpt><trkpt lat="43.930285187423344" lon="11.67620505123829"><ele>962.0</ele><time>2026-05-03T15:22:00Z</time></trkpt><trkpt lat="43.93017868718707" lon="11.676234141630431"><ele>962.0</ele><time>2026-05-03T15:22:01Z</time></trkpt><trkpt lat="43.93008696450562" lon="11.676326859666524"><ele>962.0</ele><time>2026-05-03T15:22:02Z</time></trkpt><trkpt lat="43.93002714492023" lon="11.676471436288606"><ele>962.0</ele><time>2026-05-03T15:22:03Z</time></trkpt><trkpt lat="43.93002941600418" lon="11.676652994120115"><ele>962.0</ele><time>2026-05-03T15:22:04Z</time></trkpt><trkpt lat="43.93009080982927" lon="11.676847284306653"><ele>962.0</ele><time>2026-05-03T15:22:05Z</time></trkpt><trkpt lat="43.9301859319918" lon="11.677050842390658"><ele>960.6666666666667</ele><time>2026-05-03T15:22:06Z</time></trkpt><trkpt lat="43.93025860112182" lon="11.677315051165108"><ele>959.3333333333333</ele><time>2026-05-03T15:22:07Z</time></trkpt><trkpt lat="43.9303080732145" lon="11.67762428519831"><ele>958.0</ele><time>2026-05-03T15:22:08Z</time></trkpt><trkpt lat="43.93034625952642" lon="11.67791935911561"><ele>957.5</ele><time>2026-05-03T15:22:09Z</time></trkpt><trkpt lat="43.93037878311423" lon="11.678152972673024"><ele>957.0</ele><time>2026-05-03T15:22:10Z</time></trkpt><trkpt lat="43.93038339905016" lon="11.678327377088047"><ele>956.5</ele><time>2026-05-03T15:22:11Z</time></trkpt><trkpt lat="43.93035852757814" lon="11.67843127943289"><ele>956.0</ele><time>2026-05-03T15:22:12Z</time></trkpt><trkpt lat="43.93028085449998" lon="11.678455382261138"><ele>956.0</ele><time>2026-05-03T15:22:13Z</time></trkpt><trkpt lat="43.93017157755673" lon="11.678464201604177"><ele>956.0</ele><time>2026-05-03T15:22:14Z</time></trkpt><trkpt lat="43.93003811994488" lon="11.67848302483022"><ele>956.0</ele><time>2026-05-03T15:22:15Z</time></trkpt><trkpt lat="43.92993147387864" lon="11.678569089322707"><ele>956.0</ele><time>2026-05-03T15:22:16Z</time></trkpt><trkpt lat="43.92987753309126" lon="11.678707539272326"><ele>957.25</ele><time>2026-05-03T15:22:17Z</time></trkpt><trkpt lat="43.929873227318346" lon="11.67887581030637"><ele>958.5</ele><time>2026-05-03T15:22:18Z</time></trkpt><trkpt lat="43.92986544574575" lon="11.679037013564683"><ele>959.75</ele><time>2026-05-03T15:22:19Z</time></trkpt><trkpt lat="43.9297954606281" lon="11.67913561058277"><ele>961.0</ele><time>2026-05-03T15:22:20Z</time></trkpt><trkpt lat="43.929676457806956" lon="11.679145095274638"><ele>961.0</ele><time>2026-05-03T15:22:21Z</time></trkpt><trkpt lat="43.92955890141663" lon="11.679127506676158"><ele>961.0</ele><time>2026-05-03T15:22:22Z</time></trkpt><trkpt lat="43.92941225010049" lon="11.679042699584425"><ele>961.0</ele><time>2026-05-03T15:22:23Z</time></trkpt><trkpt lat="43.92926152411374" lon="11.67888159190637"><ele>963.6666666666666</ele><time>2026-05-03T15:22:24Z</time></trkpt><trkpt lat="43.92911598813227" lon="11.678692274187657"><ele>966.3333333333333</ele><time>2026-05-03T15:22:25Z</time></trkpt><trkpt lat="43.92898315459914" lon="11.67853216866163"><ele>969.0</ele><time>2026-05-03T15:22:26Z</time></trkpt><trkpt lat="43.92885903979039" lon="11.678477495992189"><ele>976.6666666666667</ele><time>2026-05-03T15:22:27Z</time></trkpt><trkpt lat="43.9286937517795" lon="11.67848642950628"><ele>984.3333333333334</ele><time>2026-05-03T15:22:28Z</time></trkpt><trkpt lat="43.92853153255025" lon="11.678503200977046"><ele>992.0</ele><time>2026-05-03T15:22:29Z</time></trkpt><trkpt lat="43.92835843923019" lon="11.678444338305162"><ele>992.0</ele><time>2026-05-03T15:22:30Z</time></trkpt><trkpt lat="43.92815564099711" lon="11.678331737393005"><ele>992.0</ele><time>2026-05-03T15:22:31Z</time></trkpt><trkpt lat="43.927958104163146" lon="11.678225670784064"><ele>992.0</ele><time>2026-05-03T15:22:32Z</time></trkpt><trkpt lat="43.927764744462905" lon="11.678138217895704"><ele>992.0</ele><time>2026-05-03T15:22:33Z</time></trkpt><trkpt lat="43.92761709352058" lon="11.678075930398142"><ele>992.0</ele><time>2026-05-03T15:22:34Z</time></trkpt><trkpt lat="43.927525334091804" lon="11.678038453882003"><ele>992.0</ele><time>2026-05-03T15:22:35Z</time></trkpt><trkpt lat="43.927427512520374" lon="11.678048483540698"><ele>992.0</ele><time>2026-05-03T15:22:37Z</time></trkpt><trkpt lat="43.927369252132785" lon="11.678082085814658"><ele>992.0</ele><time>2026-05-03T15:23:16Z</time></trkpt><trkpt lat="43.92724111669041" lon="11.6781834634927"><ele>990.25</ele><time>2026-05-03T15:23:18Z</time></trkpt><trkpt lat="43.92715240030876" lon="11.67825040548755"><ele>988.5</ele><time>2026-05-03T15:23:19Z</time></trkpt><trkpt lat="43.92705207436268" lon="11.678327762041384"><ele>986.75</ele><time>2026-05-03T15:23:20Z</time></trkpt><trkpt lat="43.92694316167237" lon="11.678410827746598"><ele>985.0</ele><time>2026-05-03T15:23:21Z</time></trkpt><trkpt lat="43.926831795899574" lon="11.678492048250135"><ele>986.0</ele><time>2026-05-03T15:23:22Z</time></trkpt><trkpt lat="43.92672300107016" lon="11.678571391909998"><ele>987.0</ele><time>2026-05-03T15:23:23Z</time></trkpt><trkpt lat="43.926616546342004" lon="11.678661596125243"><ele>988.0</ele><time>2026-05-03T15:23:24Z</time></trkpt><trkpt lat="43.92650923059575" lon="11.678748627494016"><ele>989.0</ele><time>2026-05-03T15:23:25Z</time></trkpt><trkpt lat="43.92640921416409" lon="11.678850546134695"><ele>989.0</ele><time>2026-05-03T15:23:26Z</time></trkpt><trkpt lat="43.926302506265" lon="11.67900041876066"><ele>989.0</ele><time>2026-05-03T15:23:27Z</time></trkpt><trkpt lat="43.92618868546741" lon="11.679181192975777"><ele>989.0</ele><time>2026-05-03T15:23:28Z</time></trkpt><trkpt lat="43.92607290910682" lon="11.679358462839176"><ele>987.0</ele><time>2026-05-03T15:23:29Z</time></trkpt><trkpt lat="43.925961427240175" lon="11.679511247891257"><ele>985.0</ele><time>2026-05-03T15:23:30Z</time></trkpt><trkpt lat="43.92585044199562" lon="11.679636364861361"><ele>983.0</ele><time>2026-05-03T15:23:31Z</time></trkpt><trkpt lat="43.92574107186366" lon="11.679746204725129"><ele>981.0</ele><time>2026-05-03T15:23:32Z</time></trkpt><trkpt lat="43.92564362082421" lon="11.679841975646395"><ele>981.0</ele><time>2026-05-03T15:23:33Z</time></trkpt><trkpt lat="43.925557751742446" lon="11.679913009048592"><ele>981.0</ele><time>2026-05-03T15:23:34Z</time></trkpt><trkpt lat="43.925481878327204" lon="11.6799420150585"><ele>981.0</ele><time>2026-05-03T15:23:35Z</time></trkpt><trkpt lat="43.925403987996056" lon="11.679920504645745"><ele>981.0</ele><time>2026-05-03T15:23:36Z</time></trkpt><trkpt lat="43.925348070166066" lon="11.679832154474262"><ele>981.0</ele><time>2026-05-03T15:23:37Z</time></trkpt><trkpt lat="43.92533393559532" lon="11.67970281512305"><ele>981.0</ele><time>2026-05-03T15:23:38Z</time></trkpt><trkpt lat="43.92537176446784" lon="11.679589367468505"><ele>981.0</ele><time>2026-05-03T15:23:39Z</time></trkpt><trkpt lat="43.92546350742029" lon="11.679495521360856"><ele>981.0</ele><time>2026-05-03T15:23:40Z</time></trkpt><trkpt lat="43.92556661872374" lon="11.679400665123438"><ele>981.0</ele><time>2026-05-03T15:23:41Z</time></trkpt><trkpt lat="43.92567298551835" lon="11.679283011524994"><ele>981.0</ele><time>2026-05-03T15:23:42Z</time></trkpt><trkpt lat="43.92576662027789" lon="11.679107699993098"><ele>978.6666666666667</ele><time>2026-05-03T15:23:43Z</time></trkpt><trkpt lat="43.925827638593226" lon="11.678886468313415"><ele>976.3333333333334</ele><time>2026-05-03T15:23:44Z</time></trkpt><trkpt lat="43.92586495444561" lon="11.67863169932688"><ele>974.0</ele><time>2026-05-03T15:23:45Z</time></trkpt><trkpt lat="43.92590165758543" lon="11.678370190445122"><ele>974.0</ele><time>2026-05-03T15:23:46Z</time></trkpt><trkpt lat="43.92597349150714" lon="11.678115892211162"><ele>974.0</ele><time>2026-05-03T15:23:47Z</time></trkpt><trkpt lat="43.92608311345504" lon="11.6778454874712"><ele>974.0</ele><time>2026-05-03T15:23:48Z</time></trkpt><trkpt lat="43.926202135801766" lon="11.677563275840367"><ele>968.0</ele><time>2026-05-03T15:23:49Z</time></trkpt><trkpt lat="43.926308948705625" lon="11.677277934906165"><ele>962.0</ele><time>2026-05-03T15:23:50Z</time></trkpt><trkpt lat="43.92641836148941" lon="11.677011928205635"><ele>964.3333333333334</ele><time>2026-05-03T15:23:51Z</time></trkpt><trkpt lat="43.92652915279728" lon="11.676771915040057"><ele>966.6666666666667</ele><time>2026-05-03T15:23:52Z</time></trkpt><trkpt lat="43.92664989011432" lon="11.676534719645092"><ele>969.0</ele><time>2026-05-03T15:23:53Z</time></trkpt><trkpt lat="43.92676118063662" lon="11.676294350958726"><ele>965.6666666666667</ele><time>2026-05-03T15:23:54Z</time></trkpt><trkpt lat="43.92683996585854" lon="11.676033105637034"><ele>962.3333333333334</ele><time>2026-05-03T15:23:55Z</time></trkpt><trkpt lat="43.926902820752126" lon="11.675756284508564"><ele>959.0</ele><time>2026-05-03T15:23:56Z</time></trkpt><trkpt lat="43.92696529168729" lon="11.675473094657448"><ele>955.3333333333334</ele><time>2026-05-03T15:23:57Z</time></trkpt><trkpt lat="43.927029420185065" lon="11.675216841789723"><ele>951.6666666666667</ele><time>2026-05-03T15:23:58Z</time></trkpt><trkpt lat="43.92706727320459" lon="11.674993405364706"><ele>948.0</ele><time>2026-05-03T15:23:59Z</time></trkpt><trkpt lat="43.92706490998015" lon="11.674743044144451"><ele>948.0</ele><time>2026-05-03T15:24:00Z</time></trkpt><trkpt lat="43.927043447734704" lon="11.674473500303266"><ele>948.0</ele><time>2026-05-03T15:24:01Z</time></trkpt><trkpt lat="43.92703055764603" lon="11.674219382694837"><ele>948.0</ele><time>2026-05-03T15:24:02Z</time></trkpt><trkpt lat="43.9270242522275" lon="11.674008961948292"><ele>947.0</ele><time>2026-05-03T15:24:03Z</time></trkpt><trkpt lat="43.92699970758652" lon="11.673867271294919"><ele>946.0</ele><time>2026-05-03T15:24:04Z</time></trkpt><trkpt lat="43.92693409683721" lon="11.6737780698427"><ele>945.0</ele><time>2026-05-03T15:24:05Z</time></trkpt><trkpt lat="43.926833347692806" lon="11.673719070981587"><ele>944.0</ele><time>2026-05-03T15:24:06Z</time></trkpt><trkpt lat="43.92669532013552" lon="11.673726763146732"><ele>943.0</ele><time>2026-05-03T15:24:07Z</time></trkpt><trkpt lat="43.9265363288773" lon="11.67378180791347"><ele>937.6666666666666</ele><time>2026-05-03T15:24:08Z</time></trkpt><trkpt lat="43.926365095739364" lon="11.673845850078242"><ele>932.3333333333333</ele><time>2026-05-03T15:24:09Z</time></trkpt><trkpt lat="43.926196238913214" lon="11.673882870286524"><ele>927.0</ele><time>2026-05-03T15:24:10Z</time></trkpt><trkpt lat="43.92603520099431" lon="11.673858321876233"><ele>927.3333333333333</ele><time>2026-05-03T15:24:11Z</time></trkpt><trkpt lat="43.9258760392537" lon="11.67377220619065"><ele>927.6666666666666</ele><time>2026-05-03T15:24:12Z</time></trkpt><trkpt lat="43.925743654631844" lon="11.67367547181068"><ele>928.0</ele><time>2026-05-03T15:24:13Z</time></trkpt><trkpt lat="43.92561485357322" lon="11.673565951809692"><ele>928.0</ele><time>2026-05-03T15:24:14Z</time></trkpt><trkpt lat="43.92551769291435" lon="11.67343662203438"><ele>928.0</ele><time>2026-05-03T15:24:15Z</time></trkpt><trkpt lat="43.92546802565609" lon="11.673279588264066"><ele>928.0</ele><time>2026-05-03T15:24:16Z</time></trkpt><trkpt lat="43.92543855913578" lon="11.673100330402884"><ele>928.0</ele><time>2026-05-03T15:24:17Z</time></trkpt><trkpt lat="43.92540263655747" lon="11.67294034390656"><ele>928.25</ele><time>2026-05-03T15:24:18Z</time></trkpt><trkpt lat="43.92537641398335" lon="11.67273019500359"><ele>928.5</ele><time>2026-05-03T15:24:19Z</time></trkpt><trkpt lat="43.92538138256679" lon="11.672556911231604"><ele>928.75</ele><time>2026-05-03T15:24:20Z</time></trkpt><trkpt lat="43.92543443813001" lon="11.672402767653411"><ele>929.0</ele><time>2026-05-03T15:24:21Z</time></trkpt><trkpt lat="43.925535048087795" lon="11.672282847451276"><ele>929.0</ele><time>2026-05-03T15:24:22Z</time></trkpt><trkpt lat="43.92565827780441" lon="11.672180355245356"><ele>929.0</ele><time>2026-05-03T15:24:23Z</time></trkpt><trkpt lat="43.925755563338676" lon="11.672066140929548"><ele>929.0</ele><time>2026-05-03T15:24:24Z</time></trkpt><trkpt lat="43.92579334027295" lon="11.671926036768594"><ele>929.0</ele><time>2026-05-03T15:24:25Z</time></trkpt><trkpt lat="43.92577377338038" lon="11.671784757276372"><ele>929.25</ele><time>2026-05-03T15:24:26Z</time></trkpt><trkpt lat="43.92571381284519" lon="11.67164378128751"><ele>929.5</ele><time>2026-05-03T15:24:27Z</time></trkpt><trkpt lat="43.92560673750856" lon="11.671484967642042"><ele>929.75</ele><time>2026-05-03T15:24:28Z</time></trkpt><trkpt lat="43.925508274841675" lon="11.671304304516026"><ele>930.0</ele><time>2026-05-03T15:24:29Z</time></trkpt><trkpt lat="43.92543287421211" lon="11.671104781313058"><ele>930.0</ele><time>2026-05-03T15:24:30Z</time></trkpt><trkpt lat="43.925396191681834" lon="11.670898444752027"><ele>930.0</ele><time>2026-05-03T15:24:31Z</time></trkpt><trkpt lat="43.92541047500991" lon="11.670670863329464"><ele>930.0</ele><time>2026-05-03T15:24:32Z</time></trkpt><trkpt lat="43.925458870026176" lon="11.670415175801969"><ele>924.3333333333333</ele><time>2026-05-03T15:24:33Z</time></trkpt><trkpt lat="43.92550080630071" lon="11.670173503262296"><ele>918.6666666666666</ele><time>2026-05-03T15:24:34Z</time></trkpt><trkpt lat="43.92554892202377" lon="11.669982511145486"><ele>913.0</ele><time>2026-05-03T15:24:35Z</time></trkpt><trkpt lat="43.92563347058436" lon="11.669835569275442"><ele>913.0</ele><time>2026-05-03T15:24:36Z</time></trkpt><trkpt lat="43.925761110735294" lon="11.66972355293129"><ele>913.0</ele><time>2026-05-03T15:24:37Z</time></trkpt><trkpt lat="43.92589363049734" lon="11.669664369193525"><ele>913.0</ele><time>2026-05-03T15:24:38Z</time></trkpt><trkpt lat="43.92602753801997" lon="11.669680030522628"><ele>913.0</ele><time>2026-05-03T15:24:39Z</time></trkpt><trkpt lat="43.92615713878626" lon="11.66968308032403"><ele>910.25</ele><time>2026-05-03T15:24:40Z</time></trkpt><trkpt lat="43.926272444737975" lon="11.66962066480292"><ele>907.5</ele><time>2026-05-03T15:24:41Z</time></trkpt><trkpt lat="43.92635742918775" lon="11.669477124643475"><ele>904.75</ele><time>2026-05-03T15:24:42Z</time></trkpt><trkpt lat="43.92643743505847" lon="11.669278076186968"><ele>902.0</ele><time>2026-05-03T15:24:43Z</time></trkpt><trkpt lat="43.92653147313237" lon="11.669044578420758"><ele>902.0</ele><time>2026-05-03T15:24:44Z</time></trkpt><trkpt lat="43.926640782864446" lon="11.668825713459066"><ele>902.0</ele><time>2026-05-03T15:24:45Z</time></trkpt><trkpt lat="43.92670800121022" lon="11.668644459596136"><ele>902.0</ele><time>2026-05-03T15:24:46Z</time></trkpt><trkpt lat="43.926764345151206" lon="11.668484117034298"><ele>897.6666666666667</ele><time>2026-05-03T15:24:47Z</time></trkpt><trkpt lat="43.92697119031016" lon="11.668483937477665"><ele>893.3333333333333</ele><time>2026-05-03T15:24:48Z</time></trkpt><trkpt lat="43.92709580312969" lon="11.668508660831794"><ele>889.0</ele><time>2026-05-03T15:24:49Z</time></trkpt><trkpt lat="43.927228741504614" lon="11.668570014885578"><ele>898.3333333333333</ele><time>2026-05-03T15:24:50Z</time></trkpt><trkpt lat="43.92738370989274" lon="11.668667902595681"><ele>907.6666666666667</ele><time>2026-05-03T15:24:51Z</time></trkpt><trkpt lat="43.927532201742366" lon="11.66870647249421"><ele>917.0</ele><time>2026-05-03T15:24:52Z</time></trkpt><trkpt lat="43.92767646950427" lon="11.668641702189003"><ele>916.0</ele><time>2026-05-03T15:24:53Z</time></trkpt><trkpt lat="43.927815143694694" lon="11.668500053241281"><ele>915.0</ele><time>2026-05-03T15:24:54Z</time></trkpt><trkpt lat="43.9279517934935" lon="11.668277808013299"><ele>914.0</ele><time>2026-05-03T15:24:55Z</time></trkpt><trkpt lat="43.92810815867849" lon="11.668034274633992"><ele>914.0</ele><time>2026-05-03T15:24:56Z</time></trkpt><trkpt lat="43.92828727607602" lon="11.667805583948672"><ele>914.0</ele><time>2026-05-03T15:24:57Z</time></trkpt><trkpt lat="43.92843275103563" lon="11.667616575252215"><ele>914.0</ele><time>2026-05-03T15:24:58Z</time></trkpt><trkpt lat="43.92853229689389" lon="11.667486373233949"><ele>916.75</ele><time>2026-05-03T15:24:59Z</time></trkpt><trkpt lat="43.92859094290586" lon="11.667376445956226"><ele>919.5</ele><time>2026-05-03T15:25:00Z</time></trkpt><trkpt lat="43.92860472396046" lon="11.667235460646497"><ele>922.25</ele><time>2026-05-03T15:25:01Z</time></trkpt><trkpt lat="43.92855335381633" lon="11.667072476450263"><ele>925.0</ele><time>2026-05-03T15:25:02Z</time></trkpt><trkpt lat="43.92844121918366" lon="11.66691604177879"><ele>915.75</ele><time>2026-05-03T15:25:03Z</time></trkpt><trkpt lat="43.928354650204355" lon="11.666759629016665"><ele>906.5</ele><time>2026-05-03T15:25:04Z</time></trkpt><trkpt lat="43.92833010198998" lon="11.666593106313302"><ele>897.25</ele><time>2026-05-03T15:25:05Z</time></trkpt><trkpt lat="43.928358501760975" lon="11.666426425912077"><ele>888.0</ele><time>2026-05-03T15:25:06Z</time></trkpt><trkpt lat="43.92835829191877" lon="11.666269593373125"><ele>888.0</ele><time>2026-05-03T15:25:07Z</time></trkpt><trkpt lat="43.92827315678764" lon="11.666152071173357"><ele>888.0</ele><time>2026-05-03T15:25:08Z</time></trkpt><trkpt lat="43.928149810206016" lon="11.666038656552617"><ele>888.0</ele><time>2026-05-03T15:25:09Z</time></trkpt><trkpt lat="43.92806355703535" lon="11.665886003977443"><ele>888.0</ele><time>2026-05-03T15:25:10Z</time></trkpt><trkpt lat="43.92803563904884" lon="11.66569290704388"><ele>891.0</ele><time>2026-05-03T15:25:11Z</time></trkpt><trkpt lat="43.927991723156026" lon="11.665541863165016"><ele>894.0</ele><time>2026-05-03T15:25:12Z</time></trkpt><trkpt lat="43.92793563742136" lon="11.665485585504612"><ele>897.0</ele><time>2026-05-03T15:25:13Z</time></trkpt><trkpt lat="43.92784441995803" lon="11.665505686618385"><ele>900.0</ele><time>2026-05-03T15:25:14Z</time></trkpt><trkpt lat="43.927743506763015" lon="11.665595558049318"><ele>903.0</ele><time>2026-05-03T15:25:15Z</time></trkpt><trkpt lat="43.927619439978265" lon="11.665815284300578"><ele>895.75</ele><time>2026-05-03T15:25:16Z</time></trkpt><trkpt lat="43.927504370020294" lon="11.665968782893911"><ele>888.5</ele><time>2026-05-03T15:25:17Z</time></trkpt><trkpt lat="43.92740685458814" lon="11.666011770600738"><ele>881.25</ele><time>2026-05-03T15:25:18Z</time></trkpt><trkpt lat="43.92732109648751" lon="11.665976845583124"><ele>874.0</ele><time>2026-05-03T15:25:19Z</time></trkpt><trkpt lat="43.92723573671185" lon="11.66587138806423"><ele>874.0</ele><time>2026-05-03T15:25:20Z</time></trkpt><trkpt lat="43.92715818317207" lon="11.66569824816656"><ele>874.0</ele><time>2026-05-03T15:25:21Z</time></trkpt><trkpt lat="43.92711537854922" lon="11.665468505274895"><ele>874.0</ele><time>2026-05-03T15:25:22Z</time></trkpt><trkpt lat="43.927115914831255" lon="11.665239397568536"><ele>882.3333333333333</ele><time>2026-05-03T15:25:23Z</time></trkpt><trkpt lat="43.927087380466965" lon="11.66502458118853"><ele>890.6666666666667</ele><time>2026-05-03T15:25:24Z</time></trkpt><trkpt lat="43.926996446372335" lon="11.664870666365893"><ele>899.0</ele><time>2026-05-03T15:25:25Z</time></trkpt><trkpt lat="43.926877431733" lon="11.664743718136405"><ele>899.0</ele><time>2026-05-03T15:25:26Z</time></trkpt><trkpt lat="43.92678614834503" lon="11.664568201867707"><ele>899.0</ele><time>2026-05-03T15:25:27Z</time></trkpt><trkpt lat="43.92674348011422" lon="11.66434618074499"><ele>899.0</ele><time>2026-05-03T15:25:28Z</time></trkpt><trkpt lat="43.92674030015429" lon="11.664075458101328"><ele>905.0</ele><time>2026-05-03T15:25:29Z</time></trkpt><trkpt lat="43.92673003628577" lon="11.663805962379236"><ele>911.0</ele><time>2026-05-03T15:25:30Z</time></trkpt><trkpt lat="43.92674522720137" lon="11.663590988648837"><ele>917.0</ele><time>2026-05-03T15:25:31Z</time></trkpt><trkpt lat="43.92677225127975" lon="11.663417191443807"><ele>917.0</ele><time>2026-05-03T15:25:32Z</time></trkpt><trkpt lat="43.92675099997163" lon="11.663250851804996"><ele>917.0</ele><time>2026-05-03T15:25:33Z</time></trkpt><trkpt lat="43.926661534012744" lon="11.663082101305873"><ele>917.0</ele><time>2026-05-03T15:25:34Z</time></trkpt><trkpt lat="43.92653289659722" lon="11.66289738379782"><ele>903.0</ele><time>2026-05-03T15:25:35Z</time></trkpt><trkpt lat="43.926416172824865" lon="11.662669772491444"><ele>889.0</ele><time>2026-05-03T15:25:36Z</time></trkpt><trkpt lat="43.926341266533" lon="11.662418543536774"><ele>875.0</ele><time>2026-05-03T15:25:37Z</time></trkpt><trkpt lat="43.926298946472535" lon="11.662244275048954"><ele>875.0</ele><time>2026-05-03T15:25:38Z</time></trkpt><trkpt lat="43.926228054905856" lon="11.662160939310356"><ele>875.0</ele><time>2026-05-03T15:25:39Z</time></trkpt><trkpt lat="43.92611001749256" lon="11.662146121512253"><ele>875.0</ele><time>2026-05-03T15:25:40Z</time></trkpt><trkpt lat="43.92596061683737" lon="11.662167861538725"><ele>875.0</ele><time>2026-05-03T15:25:41Z</time></trkpt><trkpt lat="43.92577444940545" lon="11.662197020384111"><ele>865.3333333333334</ele><time>2026-05-03T15:25:42Z</time></trkpt><trkpt lat="43.92555700828771" lon="11.662181013458602"><ele>855.6666666666667</ele><time>2026-05-03T15:25:43Z</time></trkpt><trkpt lat="43.92536650346105" lon="11.662185260453443"><ele>846.0</ele><time>2026-05-03T15:25:44Z</time></trkpt><trkpt lat="43.92518961652316" lon="11.662235917932541"><ele>842.3333333333333</ele><time>2026-05-03T15:25:45Z</time></trkpt><trkpt lat="43.92502139134395" lon="11.662237880647178"><ele>838.6666666666666</ele><time>2026-05-03T15:25:46Z</time></trkpt><trkpt lat="43.924818097448316" lon="11.662173814890357"><ele>835.0</ele><time>2026-05-03T15:25:47Z</time></trkpt><trkpt lat="43.924610099022544" lon="11.662113670446288"><ele>835.0</ele><time>2026-05-03T15:25:48Z</time></trkpt><trkpt lat="43.92436149298512" lon="11.662051272039218"><ele>835.0</ele><time>2026-05-03T15:25:49Z</time></trkpt><trkpt lat="43.924126554604236" lon="11.662016920701767"><ele>834.75</ele><time>2026-05-03T15:25:50Z</time></trkpt><trkpt lat="43.92393807819583" lon="11.661981285287334"><ele>834.5</ele><time>2026-05-03T15:25:51Z</time></trkpt><trkpt lat="43.9238105085826" lon="11.661947432045102"><ele>834.25</ele><time>2026-05-03T15:25:52Z</time></trkpt><trkpt lat="43.9237445308857" lon="11.661877035712646"><ele>834.0</ele><time>2026-05-03T15:25:53Z</time></trkpt><trkpt lat="43.92371244760382" lon="11.661766859166923"><ele>834.0</ele><time>2026-05-03T15:25:54Z</time></trkpt><trkpt lat="43.92372918200571" lon="11.661634116756057"><ele>834.0</ele><time>2026-05-03T15:25:55Z</time></trkpt><trkpt lat="43.92380504797169" lon="11.661533409839775"><ele>834.0</ele><time>2026-05-03T15:25:56Z</time></trkpt><trkpt lat="43.92392117362441" lon="11.66151934448253"><ele>834.0</ele><time>2026-05-03T15:25:57Z</time></trkpt><trkpt lat="43.92403135903844" lon="11.66155726899946"><ele>834.0</ele><time>2026-05-03T15:25:58Z</time></trkpt><trkpt lat="43.924161577946414" lon="11.66160890269451"><ele>834.3333333333333</ele><time>2026-05-03T15:25:59Z</time></trkpt><trkpt lat="43.92431664392721" lon="11.661599399431212"><ele>834.6666666666666</ele><time>2026-05-03T15:26:00Z</time></trkpt><trkpt lat="43.924492979412534" lon="11.661503326257911"><ele>835.0</ele><time>2026-05-03T15:26:01Z</time></trkpt><trkpt lat="43.924687160958804" lon="11.6613718835674"><ele>835.0</ele><time>2026-05-03T15:26:02Z</time></trkpt><trkpt lat="43.92484887704162" lon="11.661301039510988"><ele>835.0</ele><time>2026-05-03T15:26:03Z</time></trkpt><trkpt lat="43.92498027499325" lon="11.661324642350927"><ele>835.0</ele><time>2026-05-03T15:26:04Z</time></trkpt><trkpt lat="43.925111913306395" lon="11.661420605273701"><ele>837.25</ele><time>2026-05-03T15:26:05Z</time></trkpt><trkpt lat="43.925249221865585" lon="11.661544667700587"><ele>839.5</ele><time>2026-05-03T15:26:06Z</time></trkpt><trkpt lat="43.92538566497293" lon="11.661585646313087"><ele>841.75</ele><time>2026-05-03T15:26:07Z</time></trkpt><trkpt lat="43.925522839930785" lon="11.66154165176874"><ele>844.0</ele><time>2026-05-03T15:26:08Z</time></trkpt><trkpt lat="43.92565093806453" lon="11.661411980350838"><ele>844.0</ele><time>2026-05-03T15:26:09Z</time></trkpt><trkpt lat="43.92577724958664" lon="11.661214551776835"><ele>844.0</ele><time>2026-05-03T15:26:10Z</time></trkpt><trkpt lat="43.925925694790855" lon="11.6610215480263"><ele>844.0</ele><time>2026-05-03T15:26:11Z</time></trkpt><trkpt lat="43.9260967828065" lon="11.660910528946898"><ele>841.3333333333333</ele><time>2026-05-03T15:26:12Z</time></trkpt><trkpt lat="43.926299203297226" lon="11.660834217999275"><ele>838.6666666666667</ele><time>2026-05-03T15:26:13Z</time></trkpt><trkpt lat="43.926489502523005" lon="11.660763730228712"><ele>836.0</ele><time>2026-05-03T15:26:14Z</time></trkpt><trkpt lat="43.92662837784305" lon="11.66066778649052"><ele>833.6666666666667</ele><time>2026-05-03T15:26:15Z</time></trkpt><trkpt lat="43.92673599008586" lon="11.660498254983967"><ele>831.3333333333333</ele><time>2026-05-03T15:26:16Z</time></trkpt><trkpt lat="43.926843211668434" lon="11.660250823293067"><ele>829.0</ele><time>2026-05-03T15:26:17Z</time></trkpt><trkpt lat="43.92696338301526" lon="11.66001267164876"><ele>829.0</ele><time>2026-05-03T15:26:18Z</time></trkpt><trkpt lat="43.927102370741736" lon="11.659828077246324"><ele>829.0</ele><time>2026-05-03T15:26:19Z</time></trkpt><trkpt lat="43.927289130952545" lon="11.659679715402085"><ele>829.0</ele><time>2026-05-03T15:26:20Z</time></trkpt><trkpt lat="43.927492335279425" lon="11.659572412118226"><ele>834.6666666666666</ele><time>2026-05-03T15:26:21Z</time></trkpt><trkpt lat="43.92769402827915" lon="11.659486094804244"><ele>840.3333333333333</ele><time>2026-05-03T15:26:22Z</time></trkpt><trkpt lat="43.927905211474595" lon="11.659435177472085"><ele>846.0</ele><time>2026-05-03T15:26:23Z</time></trkpt><trkpt lat="43.92811229698765" lon="11.659416593761547"><ele>841.3333333333333</ele><time>2026-05-03T15:26:24Z</time></trkpt><trkpt lat="43.9282687322282" lon="11.659392539620056"><ele>836.6666666666666</ele><time>2026-05-03T15:26:25Z</time></trkpt><trkpt lat="43.928393231160854" lon="11.659298373091785"><ele>832.0</ele><time>2026-05-03T15:26:26Z</time></trkpt><trkpt lat="43.92851759542161" lon="11.659129860591623"><ele>832.0</ele><time>2026-05-03T15:26:27Z</time></trkpt><trkpt lat="43.92867275151671" lon="11.658932402530052"><ele>832.0</ele><time>2026-05-03T15:26:28Z</time></trkpt><trkpt lat="43.92885402556454" lon="11.658742736318482"><ele>832.0</ele><time>2026-05-03T15:26:29Z</time></trkpt><trkpt lat="43.928997083915206" lon="11.658579979656087"><ele>825.0</ele><time>2026-05-03T15:26:30Z</time></trkpt><trkpt lat="43.92909170632486" lon="11.658400705860766"><ele>818.0</ele><time>2026-05-03T15:26:31Z</time></trkpt><trkpt lat="43.9291567795859" lon="11.658157275186442"><ele>811.0</ele><time>2026-05-03T15:26:32Z</time></trkpt><trkpt lat="43.92921110524079" lon="11.657859571754223"><ele>824.5</ele><time>2026-05-03T15:26:33Z</time></trkpt><trkpt lat="43.92924352791576" lon="11.657543080275564"><ele>838.0</ele><time>2026-05-03T15:26:34Z</time></trkpt><trkpt lat="43.92927071606607" lon="11.657181998126806"><ele>829.0</ele><time>2026-05-03T15:26:35Z</time></trkpt><trkpt lat="43.92926811804346" lon="11.65681409390716"><ele>820.0</ele><time>2026-05-03T15:26:36Z</time></trkpt><trkpt lat="43.929288344114404" lon="11.656479667471789"><ele>820.0</ele><time>2026-05-03T15:26:37Z</time></trkpt><trkpt lat="43.92933829221598" lon="11.656140109305122"><ele>820.0</ele><time>2026-05-03T15:26:38Z</time></trkpt><trkpt lat="43.929418691555185" lon="11.655766695259112"><ele>817.5</ele><time>2026-05-03T15:26:39Z</time></trkpt><trkpt lat="43.92950057936434" lon="11.65539798482419"><ele>815.0</ele><time>2026-05-03T15:26:40Z</time></trkpt><trkpt lat="43.92956880874394" lon="11.655077334954514"><ele>815.0</ele><time>2026-05-03T15:26:41Z</time></trkpt><trkpt lat="43.929599261224" lon="11.654867916913078"><ele>815.0</ele><time>2026-05-03T15:26:42Z</time></trkpt><trkpt lat="43.92958211986092" lon="11.654782350185927"><ele>815.0</ele><time>2026-05-03T15:26:43Z</time></trkpt><trkpt lat="43.92948115557128" lon="11.654657350940331"><ele>815.0</ele><time>2026-05-03T15:26:45Z</time></trkpt><trkpt lat="43.92936390652007" lon="11.654545813136949"><ele>806.3333333333334</ele><time>2026-05-03T15:26:46Z</time></trkpt><trkpt lat="43.9291920548215" lon="11.654407677183857"><ele>797.6666666666667</ele><time>2026-05-03T15:26:47Z</time></trkpt><trkpt lat="43.928991547607865" lon="11.654273128861696"><ele>789.0</ele><time>2026-05-03T15:26:48Z</time></trkpt><trkpt lat="43.92878045410265" lon="11.654132950816564"><ele>789.0</ele><time>2026-05-03T15:26:49Z</time></trkpt><trkpt lat="43.92862051986615" lon="11.65402240431097"><ele>789.0</ele><time>2026-05-03T15:26:50Z</time></trkpt><trkpt lat="43.92851103347603" lon="11.653943717598715"><ele>789.0</ele><time>2026-05-03T15:26:51Z</time></trkpt><trkpt lat="43.92846055446569" lon="11.653871117709192"><ele>789.0</ele><time>2026-05-03T15:26:52Z</time></trkpt><trkpt lat="43.92846406592492" lon="11.653767007442386"><ele>793.6666666666667</ele><time>2026-05-03T15:26:53Z</time></trkpt><trkpt lat="43.92850002425586" lon="11.653563565196412"><ele>798.3333333333334</ele><time>2026-05-03T15:26:54Z</time></trkpt><trkpt lat="43.928560412375745" lon="11.653339838119436"><ele>803.0</ele><time>2026-05-03T15:26:55Z</time></trkpt><trkpt lat="43.92865121598332" lon="11.653101976478894"><ele>803.0</ele><time>2026-05-03T15:26:56Z</time></trkpt><trkpt lat="43.928766971283586" lon="11.652890866716715"><ele>803.0</ele><time>2026-05-03T15:26:57Z</time></trkpt><trkpt lat="43.928890607399126" lon="11.65273400827291"><ele>803.0</ele><time>2026-05-03T15:26:58Z</time></trkpt><trkpt lat="43.92895896972406" lon="11.65257872940891"><ele>798.25</ele><time>2026-05-03T15:26:59Z</time></trkpt><trkpt lat="43.92896524261221" lon="11.652410814317243"><ele>793.5</ele><time>2026-05-03T15:27:00Z</time></trkpt><trkpt lat="43.92891959906343" lon="11.65222984572807"><ele>788.75</ele><time>2026-05-03T15:27:01Z</time></trkpt><trkpt lat="43.92888920124543" lon="11.652042481809369"><ele>784.0</ele><time>2026-05-03T15:27:02Z</time></trkpt><trkpt lat="43.92893383174727" lon="11.65188165375223"><ele>780.0</ele><time>2026-05-03T15:27:03Z</time></trkpt><trkpt lat="43.929029012743236" lon="11.651754458709053"><ele>776.0</ele><time>2026-05-03T15:27:04Z</time></trkpt><trkpt lat="43.92916319900917" lon="11.651675320866016"><ele>772.0</ele><time>2026-05-03T15:27:05Z</time></trkpt><trkpt lat="43.92928007729506" lon="11.651584387303936"><ele>768.0</ele><time>2026-05-03T15:27:06Z</time></trkpt><trkpt lat="43.929341506389015" lon="11.651404199404343"><ele>773.3333333333333</ele><time>2026-05-03T15:27:07Z</time></trkpt><trkpt lat="43.929390177129584" lon="11.651154368958522"><ele>778.6666666666666</ele><time>2026-05-03T15:27:08Z</time></trkpt><trkpt lat="43.92946124797975" lon="11.65087391256942"><ele>784.0</ele><time>2026-05-03T15:27:09Z</time></trkpt><trkpt lat="43.92953685715946" lon="11.65055818306507"><ele>777.0</ele><time>2026-05-03T15:27:10Z</time></trkpt><trkpt lat="43.92959013481777" lon="11.650268930044133"><ele>770.0</ele><time>2026-05-03T15:27:11Z</time></trkpt><trkpt lat="43.929633673083" lon="11.650047046823255"><ele>763.0</ele><time>2026-05-03T15:27:12Z</time></trkpt><trkpt lat="43.92970025921772" lon="11.649874052312406"><ele>763.0</ele><time>2026-05-03T15:27:13Z</time></trkpt><trkpt lat="43.92979630707579" lon="11.649767958461696"><ele>763.0</ele><time>2026-05-03T15:27:14Z</time></trkpt><trkpt lat="43.92991111959003" lon="11.649716037070181"><ele>763.0</ele><time>2026-05-03T15:27:15Z</time></trkpt><trkpt lat="43.93005433070881" lon="11.649680006772943"><ele>763.0</ele><time>2026-05-03T15:27:16Z</time></trkpt><trkpt lat="43.930180847344275" lon="11.649583107093623"><ele>759.3333333333334</ele><time>2026-05-03T15:27:17Z</time></trkpt><trkpt lat="43.93026436378962" lon="11.649404310248055"><ele>755.6666666666666</ele><time>2026-05-03T15:27:18Z</time></trkpt><trkpt lat="43.93034884697375" lon="11.649183102872431"><ele>752.0</ele><time>2026-05-03T15:27:19Z</time></trkpt><trkpt lat="43.930477152426505" lon="11.648974801803636"><ele>752.0</ele><time>2026-05-03T15:27:20Z</time></trkpt><trkpt lat="43.93062547289134" lon="11.648805235502564"><ele>752.0</ele><time>2026-05-03T15:27:21Z</time></trkpt><trkpt lat="43.93074678482646" lon="11.648685796083724"><ele>752.0</ele><time>2026-05-03T15:27:22Z</time></trkpt><trkpt lat="43.930851504589135" lon="11.648647280462743"><ele>752.0</ele><time>2026-05-03T15:27:23Z</time></trkpt><trkpt lat="43.93094861221068" lon="11.648745766645623"><ele>746.3333333333333</ele><time>2026-05-03T15:27:24Z</time></trkpt><trkpt lat="43.93106598953808" lon="11.64883922063933"><ele>740.6666666666666</ele><time>2026-05-03T15:27:25Z</time></trkpt><trkpt lat="43.93123898901442" lon="11.648954941767217"><ele>735.0</ele><time>2026-05-03T15:27:26Z</time></trkpt><trkpt lat="43.93139507902036" lon="11.64906931496166"><ele>735.0</ele><time>2026-05-03T15:27:27Z</time></trkpt><trkpt lat="43.93151746195565" lon="11.649191481617821"><ele>735.0</ele><time>2026-05-03T15:27:28Z</time></trkpt><trkpt lat="43.931588868738615" lon="11.649352573223261"><ele>735.0</ele><time>2026-05-03T15:27:29Z</time></trkpt><trkpt lat="43.931619015546204" lon="11.649528741780479"><ele>735.0</ele><time>2026-05-03T15:27:30Z</time></trkpt><trkpt lat="43.93165951885071" lon="11.649674230812835"><ele>738.25</ele><time>2026-05-03T15:27:31.001Z</time></trkpt><trkpt lat="43.931732265589076" lon="11.64976372747396"><ele>741.5</ele><time>2026-05-03T15:27:32.001Z</time></trkpt><trkpt lat="43.93184267425212" lon="11.649798644489472"><ele>744.75</ele><time>2026-05-03T15:27:33.001Z</time></trkpt><trkpt lat="43.931971650021204" lon="11.649709121360527"><ele>748.0</ele><time>2026-05-03T15:27:34.001Z</time></trkpt><trkpt lat="43.93207680456473" lon="11.649589515038535"><ele>745.0</ele><time>2026-05-03T15:27:35.001Z</time></trkpt><trkpt lat="43.93219353258529" lon="11.649451641627918"><ele>742.0</ele><time>2026-05-03T15:27:36.001Z</time></trkpt><trkpt lat="43.93231014742324" lon="11.649313901880827"><ele>739.0</ele><time>2026-05-03T15:27:37.001Z</time></trkpt><trkpt lat="43.93241406044703" lon="11.649184385011859"><ele>736.0</ele><time>2026-05-03T15:27:38.001Z</time></trkpt><trkpt lat="43.932500197789196" lon="11.649084635652718"><ele>736.0</ele><time>2026-05-03T15:27:39.001Z</time></trkpt><trkpt lat="43.93254217044891" lon="11.648948655854502"><ele>736.0</ele><time>2026-05-03T15:27:40.001Z</time></trkpt><trkpt lat="43.9325016291798" lon="11.648795732026766"><ele>736.0</ele><time>2026-05-03T15:27:41.001Z</time></trkpt><trkpt lat="43.93243519360559" lon="11.648649182706404"><ele>736.0</ele><time>2026-05-03T15:27:42Z</time></trkpt><trkpt lat="43.93235715595412" lon="11.648475524694"><ele>738.5</ele><time>2026-05-03T15:27:43Z</time></trkpt><trkpt lat="43.93234108860293" lon="11.648324707031653"><ele>741.0</ele><time>2026-05-03T15:27:44Z</time></trkpt><trkpt lat="43.93222953277263" lon="11.64816807467154"><ele>743.5</ele><time>2026-05-03T15:27:45Z</time></trkpt><trkpt lat="43.9320815774697" lon="11.648080322471737"><ele>746.0</ele><time>2026-05-03T15:27:46Z</time></trkpt><trkpt lat="43.93194335224049" lon="11.648023335921968"><ele>746.0</ele><time>2026-05-03T15:27:47Z</time></trkpt><trkpt lat="43.93184742713056" lon="11.647921421951443"><ele>746.0</ele><time>2026-05-03T15:27:48Z</time></trkpt><trkpt lat="43.931764401885694" lon="11.647742935857975"><ele>746.0</ele><time>2026-05-03T15:27:49Z</time></trkpt><trkpt lat="43.931703419403775" lon="11.647537366160552"><ele>746.0</ele><time>2026-05-03T15:27:50Z</time></trkpt><trkpt lat="43.93165962916699" lon="11.64733081345994"><ele>743.0</ele><time>2026-05-03T15:27:51Z</time></trkpt><trkpt lat="43.93164909403986" lon="11.647132168300576"><ele>740.0</ele><time>2026-05-03T15:27:52Z</time></trkpt><trkpt lat="43.931693864305885" lon="11.647020663247872"><ele>737.0</ele><time>2026-05-03T15:27:53Z</time></trkpt><trkpt lat="43.93177101696781" lon="11.646933352637914"><ele>734.0</ele><time>2026-05-03T15:27:54Z</time></trkpt><trkpt lat="43.93185549625742" lon="11.646794817540073"><ele>741.5</ele><time>2026-05-03T15:27:55Z</time></trkpt><trkpt lat="43.931912668530735" lon="11.64664847192825"><ele>749.0</ele><time>2026-05-03T15:27:56Z</time></trkpt><trkpt lat="43.93193640676227" lon="11.646522348553562"><ele>756.5</ele><time>2026-05-03T15:27:57Z</time></trkpt><trkpt lat="43.93189414703195" lon="11.646393981674722"><ele>764.0</ele><time>2026-05-03T15:27:58Z</time></trkpt><trkpt lat="43.93179116173574" lon="11.64627402439163"><ele>760.6666666666666</ele><time>2026-05-03T15:27:59Z</time></trkpt><trkpt lat="43.93164946130646" lon="11.646175679788234"><ele>757.3333333333334</ele><time>2026-05-03T15:28:00Z</time></trkpt><trkpt lat="43.931503543957945" lon="11.646106332453646"><ele>754.0</ele><time>2026-05-03T15:28:01Z</time></trkpt><trkpt lat="43.93135404065955" lon="11.646117934340525"><ele>754.0</ele><time>2026-05-03T15:28:02Z</time></trkpt><trkpt lat="43.931211675892484" lon="11.646123016054377"><ele>754.0</ele><time>2026-05-03T15:28:03Z</time></trkpt><trkpt lat="43.931104723508994" lon="11.646053062421341"><ele>754.0</ele><time>2026-05-03T15:28:04Z</time></trkpt><trkpt lat="43.93105848445714" lon="11.645918239559435"><ele>754.0</ele><time>2026-05-03T15:28:05Z</time></trkpt><trkpt lat="43.93108248239894" lon="11.645773797675346"><ele>754.0</ele><time>2026-05-03T15:28:06Z</time></trkpt><trkpt lat="43.93111760386869" lon="11.645597714928329"><ele>754.0</ele><time>2026-05-03T15:28:07Z</time></trkpt><trkpt lat="43.93115935832562" lon="11.64538525172186"><ele>754.0</ele><time>2026-05-03T15:28:08Z</time></trkpt><trkpt lat="43.93119176877636" lon="11.645177720950574"><ele>754.0</ele><time>2026-05-03T15:28:09Z</time></trkpt><trkpt lat="43.93114663292444" lon="11.644977128657398"><ele>754.5</ele><time>2026-05-03T15:28:10Z</time></trkpt><trkpt lat="43.931092482124384" lon="11.644795925153765"><ele>755.0</ele><time>2026-05-03T15:28:11Z</time></trkpt><trkpt lat="43.93104707596527" lon="11.644643788567613"><ele>755.5</ele><time>2026-05-03T15:28:12Z</time></trkpt><trkpt lat="43.93109691714238" lon="11.644525934146436"><ele>756.0</ele><time>2026-05-03T15:28:13Z</time></trkpt><trkpt lat="43.93119749997811" lon="11.644438152039625"><ele>750.75</ele><time>2026-05-03T15:28:14Z</time></trkpt><trkpt lat="43.931311591249475" lon="11.644406244567419"><ele>745.5</ele><time>2026-05-03T15:28:15Z</time></trkpt><trkpt lat="43.93146040540248" lon="11.644366789414857"><ele>740.25</ele><time>2026-05-03T15:28:16Z</time></trkpt><trkpt lat="43.93162349558823" lon="11.6443659491496"><ele>735.0</ele><time>2026-05-03T15:28:17Z</time></trkpt><trkpt lat="43.93174485160279" lon="11.644348817182111"><ele>745.5</ele><time>2026-05-03T15:28:18Z</time></trkpt><trkpt lat="43.931827532006416" lon="11.644294978357339"><ele>756.0</ele><time>2026-05-03T15:28:19Z</time></trkpt><trkpt lat="43.9318504753892" lon="11.644130230775946"><ele>766.5</ele><time>2026-05-03T15:28:20Z</time></trkpt><trkpt lat="43.931879598795874" lon="11.643962662300737"><ele>777.0</ele><time>2026-05-03T15:28:21Z</time></trkpt><trkpt lat="43.931921141929195" lon="11.643789148499746"><ele>775.8</ele><time>2026-05-03T15:28:22Z</time></trkpt><trkpt lat="43.931972871176875" lon="11.643623110028038"><ele>774.6</ele><time>2026-05-03T15:28:23Z</time></trkpt><trkpt lat="43.93201355282331" lon="11.64348606188302"><ele>773.4</ele><time>2026-05-03T15:28:24Z</time></trkpt><trkpt lat="43.93201330647895" lon="11.643372093862718"><ele>772.1999999999999</ele><time>2026-05-03T15:28:25Z</time></trkpt><trkpt lat="43.93197724172897" lon="11.643276309617203"><ele>771.0</ele><time>2026-05-03T15:28:26Z</time></trkpt><trkpt lat="43.93193089391339" lon="11.643205224392348"><ele>771.0</ele><time>2026-05-03T15:28:27Z</time></trkpt><trkpt lat="43.93186120021486" lon="11.6430851004024"><ele>771.0</ele><time>2026-05-03T15:28:29Z</time></trkpt><trkpt lat="43.931826457861156" lon="11.642985983575677"><ele>771.0</ele><time>2026-05-03T15:28:53Z</time></trkpt><trkpt lat="43.93180623171585" lon="11.64284864966202"><ele>771.0</ele><time>2026-05-03T15:28:55Z</time></trkpt><trkpt lat="43.93184370545299" lon="11.642738364337617"><ele>771.0</ele><time>2026-05-03T15:28:56Z</time></trkpt><trkpt lat="43.93183378847107" lon="11.642626129521297"><ele>769.5999999999999</ele><time>2026-05-03T15:28:57Z</time></trkpt><trkpt lat="43.931841433818455" lon="11.642520484607413"><ele>768.2</ele><time>2026-05-03T15:28:58Z</time></trkpt><trkpt lat="43.93185028716833" lon="11.642413691047553"><ele>766.8</ele><time>2026-05-03T15:28:59Z</time></trkpt><trkpt lat="43.93187647557191" lon="11.642294830722454"><ele>765.4000000000001</ele><time>2026-05-03T15:29:00Z</time></trkpt><trkpt lat="43.93192523736747" lon="11.64216069695907"><ele>764.0</ele><time>2026-05-03T15:29:01Z</time></trkpt><trkpt lat="43.931993384263635" lon="11.642044025278173"><ele>760.4000000000001</ele><time>2026-05-03T15:29:02Z</time></trkpt><trkpt lat="43.93207766174521" lon="11.641950272192531"><ele>756.8</ele><time>2026-05-03T15:29:03Z</time></trkpt><trkpt lat="43.932159068527056" lon="11.64186242404321"><ele>753.2</ele><time>2026-05-03T15:29:04Z</time></trkpt><trkpt lat="43.9322394767101" lon="11.641768073248782"><ele>749.5999999999999</ele><time>2026-05-03T15:29:05Z</time></trkpt><trkpt lat="43.93230203601839" lon="11.641650305134062"><ele>746.0</ele><time>2026-05-03T15:29:06Z</time></trkpt><trkpt lat="43.93234334560838" lon="11.641507817152531"><ele>746.0</ele><time>2026-05-03T15:29:07Z</time></trkpt><trkpt lat="43.93234856117683" lon="11.641343241519891"><ele>746.0</ele><time>2026-05-03T15:29:08Z</time></trkpt><trkpt lat="43.93234082119671" lon="11.641180613140616"><ele>746.0</ele><time>2026-05-03T15:29:09Z</time></trkpt><trkpt lat="43.93232123947789" lon="11.641039133425934"><ele>746.0</ele><time>2026-05-03T15:29:10Z</time></trkpt><trkpt lat="43.932284960273954" lon="11.640905089767875"><ele>746.0</ele><time>2026-05-03T15:29:11Z</time></trkpt><trkpt lat="43.932228349702676" lon="11.640777448472935"><ele>742.5999999999999</ele><time>2026-05-03T15:29:12Z</time></trkpt><trkpt lat="43.93214435027162" lon="11.640673436781535"><ele>739.2</ele><time>2026-05-03T15:29:13Z</time></trkpt><trkpt lat="43.93206198158778" lon="11.640587745525332"><ele>735.8</ele><time>2026-05-03T15:29:14Z</time></trkpt><trkpt lat="43.93199071223377" lon="11.640479441008868"><ele>732.4000000000001</ele><time>2026-05-03T15:29:15Z</time></trkpt><trkpt lat="43.93192664331955" lon="11.640338097910078"><ele>729.0</ele><time>2026-05-03T15:29:16Z</time></trkpt><trkpt lat="43.93186595705765" lon="11.640157990814481"><ele>727.0</ele><time>2026-05-03T15:29:17Z</time></trkpt><trkpt lat="43.93180021530839" lon="11.639954625471765"><ele>725.0</ele><time>2026-05-03T15:29:18Z</time></trkpt><trkpt lat="43.9317298867959" lon="11.639748120351587"><ele>723.0</ele><time>2026-05-03T15:29:19Z</time></trkpt><trkpt lat="43.931679404159716" lon="11.639578514296566"><ele>720.5</ele><time>2026-05-03T15:29:20Z</time></trkpt><trkpt lat="43.93163901053542" lon="11.639434670616636"><ele>718.0</ele><time>2026-05-03T15:29:21Z</time></trkpt><trkpt lat="43.93161483749393" lon="11.639336601643633"><ele>715.5</ele><time>2026-05-03T15:29:22Z</time></trkpt><trkpt lat="43.9315991619063" lon="11.639243802341994"><ele>713.0</ele><time>2026-05-03T15:29:23Z</time></trkpt><trkpt lat="43.9316003864895" lon="11.639142661741111"><ele>710.5</ele><time>2026-05-03T15:29:24Z</time></trkpt><trkpt lat="43.93162050975828" lon="11.639021702419896"><ele>708.0</ele><time>2026-05-03T15:29:25Z</time></trkpt><trkpt lat="43.93168252103126" lon="11.638883445541026"><ele>707.0</ele><time>2026-05-03T15:29:26Z</time></trkpt><trkpt lat="43.93174326846132" lon="11.638700679157397"><ele>706.0</ele><time>2026-05-03T15:29:27Z</time></trkpt><trkpt lat="43.93179348051556" lon="11.638514194156576"><ele>705.0</ele><time>2026-05-03T15:29:28Z</time></trkpt><trkpt lat="43.931838251189355" lon="11.638341654566364"><ele>704.0</ele><time>2026-05-03T15:29:29Z</time></trkpt><trkpt lat="43.9318663071832" lon="11.638178327077323"><ele>704.0</ele><time>2026-05-03T15:29:30Z</time></trkpt><trkpt lat="43.93188338682273" lon="11.638040896445178"><ele>704.0</ele><time>2026-05-03T15:29:31Z</time></trkpt><trkpt lat="43.9319010769216" lon="11.63792470932826"><ele>704.0</ele><time>2026-05-03T15:29:32Z</time></trkpt><trkpt lat="43.931917785469864" lon="11.63781514036292"><ele>704.0</ele><time>2026-05-03T15:29:33Z</time></trkpt><trkpt lat="43.93192593764481" lon="11.637709470554269"><ele>704.0</ele><time>2026-05-03T15:29:34Z</time></trkpt><trkpt lat="43.93192704056142" lon="11.637607408543342"><ele>704.0</ele><time>2026-05-03T15:29:35Z</time></trkpt><trkpt lat="43.931923119284924" lon="11.637504675895617"><ele>701.8333333333333</ele><time>2026-05-03T15:29:36Z</time></trkpt><trkpt lat="43.93192263290544" lon="11.637402755532037"><ele>699.6666666666666</ele><time>2026-05-03T15:29:37.001Z</time></trkpt><trkpt lat="43.9319210707279" lon="11.637313728275759"><ele>697.5</ele><time>2026-05-03T15:29:38.001Z</time></trkpt><trkpt lat="43.931999707991096" lon="11.637184434837776"><ele>695.3333333333334</ele><time>2026-05-03T15:29:40.001Z</time></trkpt><trkpt lat="43.93207023580398" lon="11.637197398461051"><ele>693.1666666666667</ele><time>2026-05-03T15:29:41.001Z</time></trkpt><trkpt lat="43.932107085461915" lon="11.637269412018576"><ele>691.0</ele><time>2026-05-03T15:29:42.001Z</time></trkpt><trkpt lat="43.93212155762323" lon="11.637466756222784"><ele>691.0</ele><time>2026-05-03T15:29:44.001Z</time></trkpt><trkpt lat="43.93213139934817" lon="11.637640030756232"><ele>691.0</ele><time>2026-05-03T15:29:45.001Z</time></trkpt><trkpt lat="43.932152234597645" lon="11.637817425954623"><ele>691.0</ele><time>2026-05-03T15:29:46.001Z</time></trkpt><trkpt lat="43.932199474721116" lon="11.637968675525464"><ele>691.0</ele><time>2026-05-03T15:29:47Z</time></trkpt><trkpt lat="43.932261251767414" lon="11.638125025768431"><ele>691.3333333333334</ele><time>2026-05-03T15:29:48Z</time></trkpt><trkpt lat="43.93237205129286" lon="11.638318216601965"><ele>691.6666666666666</ele><time>2026-05-03T15:29:49Z</time></trkpt><trkpt lat="43.93252240297944" lon="11.63853985563861"><ele>692.0</ele><time>2026-05-03T15:29:50Z</time></trkpt><trkpt lat="43.93266333803129" lon="11.638759553961663"><ele>692.0</ele><time>2026-05-03T15:29:51Z</time></trkpt><trkpt lat="43.93276902422189" lon="11.638958468838318"><ele>692.0</ele><time>2026-05-03T15:29:52Z</time></trkpt><trkpt lat="43.932832901941595" lon="11.639147177624956"><ele>692.0</ele><time>2026-05-03T15:29:53Z</time></trkpt><trkpt lat="43.93286644117941" lon="11.639346097974434"><ele>696.6666666666666</ele><time>2026-05-03T15:29:54Z</time></trkpt><trkpt lat="43.932875117357185" lon="11.639575113537038"><ele>701.3333333333334</ele><time>2026-05-03T15:29:55Z</time></trkpt><trkpt lat="43.93290351923988" lon="11.639791357959433"><ele>706.0</ele><time>2026-05-03T15:29:56Z</time></trkpt><trkpt lat="43.932965211509185" lon="11.639994399363857"><ele>706.0</ele><time>2026-05-03T15:29:57Z</time></trkpt><trkpt lat="43.93307136747822" lon="11.640179993565726"><ele>706.0</ele><time>2026-05-03T15:29:58Z</time></trkpt><trkpt lat="43.93316476354425" lon="11.640310186164896"><ele>706.0</ele><time>2026-05-03T15:29:59Z</time></trkpt><trkpt lat="43.933240763184656" lon="11.640341295963443"><ele>706.0</ele><time>2026-05-03T15:30:00Z</time></trkpt><trkpt lat="43.93332182373186" lon="11.64029549511628"><ele>706.0</ele><time>2026-05-03T15:30:01Z</time></trkpt><trkpt lat="43.93338731491055" lon="11.640199625214812"><ele>706.0</ele><time>2026-05-03T15:30:02Z</time></trkpt><trkpt lat="43.93340725628706" lon="11.640049736485153"><ele>706.0</ele><time>2026-05-03T15:30:03Z</time></trkpt><trkpt lat="43.93339199752109" lon="11.639874268048665"><ele>706.0</ele><time>2026-05-03T15:30:04Z</time></trkpt><trkpt lat="43.93340914034514" lon="11.639702704839044"><ele>703.3333333333334</ele><time>2026-05-03T15:30:05Z</time></trkpt><trkpt lat="43.93352907347359" lon="11.639590944493804"><ele>700.6666666666666</ele><time>2026-05-03T15:30:06Z</time></trkpt><trkpt lat="43.93360695830772" lon="11.639375291627045"><ele>698.0</ele><time>2026-05-03T15:30:07Z</time></trkpt><trkpt lat="43.933700998519086" lon="11.639125073605417"><ele>698.0</ele><time>2026-05-03T15:30:08Z</time></trkpt><trkpt lat="43.93377888435029" lon="11.638837997228777"><ele>698.0</ele><time>2026-05-03T15:30:09Z</time></trkpt><trkpt lat="43.93383776383925" lon="11.638626323826337"><ele>698.0</ele><time>2026-05-03T15:30:10Z</time></trkpt><trkpt lat="43.933921370253856" lon="11.63852221600201"><ele>692.75</ele><time>2026-05-03T15:30:11Z</time></trkpt><trkpt lat="43.9340202735652" lon="11.638488497041445"><ele>687.5</ele><time>2026-05-03T15:30:12Z</time></trkpt><trkpt lat="43.934139028243656" lon="11.63848092132273"><ele>682.25</ele><time>2026-05-03T15:30:13Z</time></trkpt><trkpt lat="43.934291414670646" lon="11.638477656767066"><ele>677.0</ele><time>2026-05-03T15:30:14Z</time></trkpt><trkpt lat="43.934470771031066" lon="11.638511505421095"><ele>677.0</ele><time>2026-05-03T15:30:15Z</time></trkpt><trkpt lat="43.93464734549547" lon="11.638579295708576"><ele>677.0</ele><time>2026-05-03T15:30:16Z</time></trkpt><trkpt lat="43.9347918721423" lon="11.638667033021672"><ele>677.0</ele><time>2026-05-03T15:30:17Z</time></trkpt><trkpt lat="43.9349257141198" lon="11.638815766611087"><ele>680.2</ele><time>2026-05-03T15:30:18Z</time></trkpt><trkpt lat="43.93503222585021" lon="11.638910368492276"><ele>683.4000000000001</ele><time>2026-05-03T15:30:19Z</time></trkpt><trkpt lat="43.93512205893049" lon="11.63892858657252"><ele>686.5999999999999</ele><time>2026-05-03T15:30:20Z</time></trkpt><trkpt lat="43.93520393275215" lon="11.638895945341318"><ele>689.8</ele><time>2026-05-03T15:30:21Z</time></trkpt><trkpt lat="43.935257170320895" lon="11.638748179890843"><ele>693.0</ele><time>2026-05-03T15:30:22Z</time></trkpt><trkpt lat="43.93526454533274" lon="11.638586388704276"><ele>695.6666666666666</ele><time>2026-05-03T15:30:23Z</time></trkpt><trkpt lat="43.935234638544195" lon="11.638393472362248"><ele>698.3333333333333</ele><time>2026-05-03T15:30:24Z</time></trkpt><trkpt lat="43.93518965507027" lon="11.638144049945321"><ele>701.0</ele><time>2026-05-03T15:30:25Z</time></trkpt><trkpt lat="43.93513077081337" lon="11.637923454406325"><ele>695.1999999999999</ele><time>2026-05-03T15:30:26Z</time></trkpt><trkpt lat="43.93507338467682" lon="11.637745203428572"><ele>689.4</ele><time>2026-05-03T15:30:27Z</time></trkpt><trkpt lat="43.93508593134279" lon="11.63761341127847"><ele>683.6</ele><time>2026-05-03T15:30:28Z</time></trkpt><trkpt lat="43.935148074748795" lon="11.637527227332802"><ele>677.8</ele><time>2026-05-03T15:30:29Z</time></trkpt><trkpt lat="43.93524807963384" lon="11.637452580433678"><ele>672.0</ele><time>2026-05-03T15:30:30Z</time></trkpt><trkpt lat="43.93537385226865" lon="11.637320613602007"><ele>672.0</ele><time>2026-05-03T15:30:31Z</time></trkpt><trkpt lat="43.93553155764326" lon="11.637209813015499"><ele>672.0</ele><time>2026-05-03T15:30:32Z</time></trkpt><trkpt lat="43.93571439996859" lon="11.637161722919965"><ele>672.0</ele><time>2026-05-03T15:30:33Z</time></trkpt><trkpt lat="43.935936872416264" lon="11.6371135964778"><ele>674.6666666666666</ele><time>2026-05-03T15:30:34Z</time></trkpt><trkpt lat="43.93613305851599" lon="11.6371281204935"><ele>677.3333333333333</ele><time>2026-05-03T15:30:35Z</time></trkpt><trkpt lat="43.93628357434207" lon="11.637114805542453"><ele>680.0</ele><time>2026-05-03T15:30:36Z</time></trkpt><trkpt lat="43.936399720056194" lon="11.637071686292314"><ele>675.75</ele><time>2026-05-03T15:30:37Z</time></trkpt><trkpt lat="43.93647821281553" lon="11.636956641021104"><ele>671.5</ele><time>2026-05-03T15:30:38Z</time></trkpt><trkpt lat="43.93653279096777" lon="11.636790959581258"><ele>667.25</ele><time>2026-05-03T15:30:39Z</time></trkpt><trkpt lat="43.93655561149879" lon="11.636584216303465"><ele>663.0</ele><time>2026-05-03T15:30:40Z</time></trkpt><trkpt lat="43.936527089844105" lon="11.636414867931963"><ele>663.0</ele><time>2026-05-03T15:30:41Z</time></trkpt><trkpt lat="43.93643224894545" lon="11.636258910064463"><ele>663.0</ele><time>2026-05-03T15:30:42Z</time></trkpt><trkpt lat="43.9362841631174" lon="11.636117321852698"><ele>663.0</ele><time>2026-05-03T15:30:43Z</time></trkpt><trkpt lat="43.93610251487891" lon="11.635948393919488"><ele>654.0</ele><time>2026-05-03T15:30:44Z</time></trkpt><trkpt lat="43.93588154620515" lon="11.63583099812916"><ele>645.0</ele><time>2026-05-03T15:30:45Z</time></trkpt><trkpt lat="43.93565879169448" lon="11.635784588664137"><ele>645.0</ele><time>2026-05-03T15:30:46Z</time></trkpt><trkpt lat="43.935436558308446" lon="11.63578701855072"><ele>645.0</ele><time>2026-05-03T15:30:47Z</time></trkpt><trkpt lat="43.93519603565865" lon="11.635814802182201"><ele>642.0</ele><time>2026-05-03T15:30:48Z</time></trkpt><trkpt lat="43.93497193660833" lon="11.635871747413441"><ele>639.0</ele><time>2026-05-03T15:30:49Z</time></trkpt><trkpt lat="43.93480458506116" lon="11.635914329830825"><ele>636.0</ele><time>2026-05-03T15:30:50Z</time></trkpt><trkpt lat="43.934708987577494" lon="11.635881344492956"><ele>636.0</ele><time>2026-05-03T15:30:51Z</time></trkpt><trkpt lat="43.93464230966601" lon="11.635757914968723"><ele>636.0</ele><time>2026-05-03T15:30:53Z</time></trkpt><trkpt lat="43.93459837129471" lon="11.63561036076674"><ele>636.0</ele><time>2026-05-03T15:30:54Z</time></trkpt><trkpt lat="43.93452270902251" lon="11.635430671008274"><ele>636.0</ele><time>2026-05-03T15:30:55Z</time></trkpt><trkpt lat="43.9344246739552" lon="11.63529585491137"><ele>634.5</ele><time>2026-05-03T15:30:56Z</time></trkpt><trkpt lat="43.93432329995498" lon="11.635222504058651"><ele>633.0</ele><time>2026-05-03T15:30:57Z</time></trkpt><trkpt lat="43.93430091380899" lon="11.635064162989238"><ele>631.5</ele><time>2026-05-03T15:30:58Z</time></trkpt><trkpt lat="43.93436049463148" lon="11.63498078829424"><ele>630.0</ele><time>2026-05-03T15:30:59Z</time></trkpt><trkpt lat="43.93440070522602" lon="11.63479187951315"><ele>630.0</ele><time>2026-05-03T15:31:00Z</time></trkpt><trkpt lat="43.93443652385967" lon="11.634538093339959"><ele>630.0</ele><time>2026-05-03T15:31:01Z</time></trkpt><trkpt lat="43.93450471743876" lon="11.634361875569281"><ele>630.0</ele><time>2026-05-03T15:31:02Z</time></trkpt><trkpt lat="43.93456263722476" lon="11.634279976868822"><ele>630.0</ele><time>2026-05-03T15:31:03Z</time></trkpt><trkpt lat="43.93463730934871" lon="11.634309042706855"><ele>630.0</ele><time>2026-05-03T15:31:04Z</time></trkpt><trkpt lat="43.93470051118969" lon="11.634375577781332"><ele>630.0</ele><time>2026-05-03T15:31:05Z</time></trkpt><trkpt lat="43.93477066155008" lon="11.634473560345688"><ele>630.0</ele><time>2026-05-03T15:31:06Z</time></trkpt><trkpt lat="43.934893905902406" lon="11.634594945506553"><ele>630.0</ele><time>2026-05-03T15:31:07Z</time></trkpt><trkpt lat="43.93504363585658" lon="11.634671606100484"><ele>632.6666666666666</ele><time>2026-05-03T15:31:08Z</time></trkpt><trkpt lat="43.935207118382515" lon="11.63470487942284"><ele>635.3333333333333</ele><time>2026-05-03T15:31:09Z</time></trkpt><trkpt lat="43.935385195816636" lon="11.634653532376337"><ele>638.0</ele><time>2026-05-03T15:31:10Z</time></trkpt><trkpt lat="43.93556529042645" lon="11.634557790043948"><ele>634.0</ele><time>2026-05-03T15:31:11Z</time></trkpt><trkpt lat="43.93571349715805" lon="11.634458728722276"><ele>630.0</ele><time>2026-05-03T15:31:12Z</time></trkpt><trkpt lat="43.9357934685658" lon="11.634367966367677"><ele>626.0</ele><time>2026-05-03T15:31:13Z</time></trkpt><trkpt lat="43.93581396711312" lon="11.634255047959355"><ele>622.0</ele><time>2026-05-03T15:31:14Z</time></trkpt><trkpt lat="43.93577778888246" lon="11.634128794500922"><ele>618.0</ele><time>2026-05-03T15:31:15Z</time></trkpt><trkpt lat="43.93569445212535" lon="11.63404213830629"><ele>618.0</ele><time>2026-05-03T15:31:16Z</time></trkpt><trkpt lat="43.93558153282283" lon="11.634020064586249"><ele>618.0</ele><time>2026-05-03T15:31:17Z</time></trkpt><trkpt lat="43.9354762187414" lon="11.633987578465817"><ele>618.0</ele><time>2026-05-03T15:31:18Z</time></trkpt><trkpt lat="43.93540525527517" lon="11.633875129809255"><ele>618.0</ele><time>2026-05-03T15:31:19Z</time></trkpt><trkpt lat="43.935396215885994" lon="11.633691028432434"><ele>618.3333333333334</ele><time>2026-05-03T15:31:20Z</time></trkpt><trkpt lat="43.935408643247044" lon="11.633458431191926"><ele>618.6666666666667</ele><time>2026-05-03T15:31:21Z</time></trkpt><trkpt lat="43.935377926546714" lon="11.633194152808864"><ele>619.0</ele><time>2026-05-03T15:31:22Z</time></trkpt><trkpt lat="43.935310158463565" lon="11.63295628572604"><ele>615.0</ele><time>2026-05-03T15:31:23Z</time></trkpt><trkpt lat="43.93527731516703" lon="11.632772076573517"><ele>611.0</ele><time>2026-05-03T15:31:24Z</time></trkpt><trkpt lat="43.93528260209511" lon="11.632616224312645"><ele>607.0</ele><time>2026-05-03T15:31:25Z</time></trkpt><trkpt lat="43.935362473439156" lon="11.632548671301471"><ele>603.0</ele><time>2026-05-03T15:31:26Z</time></trkpt><trkpt lat="43.93547862043058" lon="11.632533974053786"><ele>603.0</ele><time>2026-05-03T15:31:27Z</time></trkpt><trkpt lat="43.935609918654045" lon="11.632465775212612"><ele>603.0</ele><time>2026-05-03T15:31:28Z</time></trkpt><trkpt lat="43.93577181229253" lon="11.632349246961049"><ele>603.0</ele><time>2026-05-03T15:31:29Z</time></trkpt><trkpt lat="43.93592842512149" lon="11.6322506118587"><ele>609.25</ele><time>2026-05-03T15:31:30Z</time></trkpt><trkpt lat="43.936042515352575" lon="11.632139793694613"><ele>615.5</ele><time>2026-05-03T15:31:31Z</time></trkpt><trkpt lat="43.93610238603524" lon="11.63199099306665"><ele>621.75</ele><time>2026-05-03T15:31:32Z</time></trkpt><trkpt lat="43.93609153882614" lon="11.63183142963964"><ele>628.0</ele><time>2026-05-03T15:31:33Z</time></trkpt><trkpt lat="43.93603626446272" lon="11.631677033649646"><ele>628.0</ele><time>2026-05-03T15:31:34Z</time></trkpt><trkpt lat="43.935938107955494" lon="11.631543123786164"><ele>628.0</ele><time>2026-05-03T15:31:35Z</time></trkpt><trkpt lat="43.935883127289344" lon="11.63140347659255"><ele>628.0</ele><time>2026-05-03T15:31:36Z</time></trkpt><trkpt lat="43.93590598527124" lon="11.63124669448514"><ele>628.0</ele><time>2026-05-03T15:31:37Z</time></trkpt><trkpt lat="43.93597454462379" lon="11.631099829055106"><ele>623.3333333333334</ele><time>2026-05-03T15:31:38Z</time></trkpt><trkpt lat="43.936075222957626" lon="11.63088105167093"><ele>618.6666666666666</ele><time>2026-05-03T15:31:39Z</time></trkpt><trkpt lat="43.93617113531233" lon="11.630647003509978"><ele>614.0</ele><time>2026-05-03T15:31:40Z</time></trkpt><trkpt lat="43.93627416932936" lon="11.630442268253178"><ele>608.25</ele><time>2026-05-03T15:31:41Z</time></trkpt><trkpt lat="43.936345516858545" lon="11.63024961279812"><ele>602.5</ele><time>2026-05-03T15:31:42Z</time></trkpt><trkpt lat="43.9363653049663" lon="11.630048747558403"><ele>596.75</ele><time>2026-05-03T15:31:43Z</time></trkpt><trkpt lat="43.93634440605623" lon="11.629846636708645"><ele>591.0</ele><time>2026-05-03T15:31:44Z</time></trkpt><trkpt lat="43.93635590922733" lon="11.629665688178214"><ele>591.0</ele><time>2026-05-03T15:31:45Z</time></trkpt><trkpt lat="43.93646372378697" lon="11.62957885527156"><ele>591.0</ele><time>2026-05-03T15:31:46Z</time></trkpt><trkpt lat="43.93654647630019" lon="11.629445581327722"><ele>591.0</ele><time>2026-05-03T15:31:47Z</time></trkpt><trkpt lat="43.936598462843236" lon="11.629307829495376"><ele>591.0</ele><time>2026-05-03T15:31:48Z</time></trkpt><trkpt lat="43.93658437858528" lon="11.629142204827163"><ele>588.0</ele><time>2026-05-03T15:31:49Z</time></trkpt><trkpt lat="43.936555857895954" lon="11.629000855672148"><ele>585.0</ele><time>2026-05-03T15:31:50Z</time></trkpt><trkpt lat="43.936535795924435" lon="11.628895126372067"><ele>582.0</ele><time>2026-05-03T15:31:51Z</time></trkpt><trkpt lat="43.93654354667758" lon="11.628793587075045"><ele>579.0</ele><time>2026-05-03T15:35:33Z</time></trkpt><trkpt lat="43.93658432805746" lon="11.628628656710625"><ele>576.0</ele><time>2026-05-03T15:35:35Z</time></trkpt><trkpt lat="43.93665254006344" lon="11.628552399098359"><ele>581.6</ele><time>2026-05-03T15:35:36Z</time></trkpt><trkpt lat="43.93672785263864" lon="11.628474634886599"><ele>587.2</ele><time>2026-05-03T15:35:37Z</time></trkpt><trkpt lat="43.93680174115429" lon="11.62837529440365"><ele>592.8</ele><time>2026-05-03T15:35:38Z</time></trkpt><trkpt lat="43.93684446896545" lon="11.628244674500717"><ele>598.4</ele><time>2026-05-03T15:35:39Z</time></trkpt><trkpt lat="43.93687283501756" lon="11.628083009449933"><ele>604.0</ele><time>2026-05-03T15:35:40Z</time></trkpt><trkpt lat="43.93689740658012" lon="11.627903905688326"><ele>597.0</ele><time>2026-05-03T15:35:41Z</time></trkpt><trkpt lat="43.93692723019191" lon="11.627717980253987"><ele>590.0</ele><time>2026-05-03T15:35:42Z</time></trkpt><trkpt lat="43.936968390789474" lon="11.627557738402215"><ele>583.0</ele><time>2026-05-03T15:35:43Z</time></trkpt><trkpt lat="43.93703331983285" lon="11.627412781751008"><ele>576.0</ele><time>2026-05-03T15:35:44Z</time></trkpt><trkpt lat="43.93712647320829" lon="11.627274898779547"><ele>576.0</ele><time>2026-05-03T15:35:45Z</time></trkpt><trkpt lat="43.93723391489868" lon="11.627139652905853"><ele>576.0</ele><time>2026-05-03T15:35:46Z</time></trkpt><trkpt lat="43.9373229733364" lon="11.627004993045695"><ele>576.0</ele><time>2026-05-03T15:35:47Z</time></trkpt><trkpt lat="43.93738443913041" lon="11.626841586222936"><ele>576.0</ele><time>2026-05-03T15:35:48Z</time></trkpt><trkpt lat="43.93741755358946" lon="11.626656252098856"><ele>570.25</ele><time>2026-05-03T15:35:49Z</time></trkpt><trkpt lat="43.9374208208774" lon="11.626482491955631"><ele>564.5</ele><time>2026-05-03T15:35:50Z</time></trkpt><trkpt lat="43.93743557893468" lon="11.626319069855754"><ele>558.75</ele><time>2026-05-03T15:35:51Z</time></trkpt><trkpt lat="43.937491032552636" lon="11.626177973185303"><ele>553.0</ele><time>2026-05-03T15:35:52Z</time></trkpt><trkpt lat="43.93757944637491" lon="11.626057662504463"><ele>553.0</ele><time>2026-05-03T15:35:53Z</time></trkpt><trkpt lat="43.93764664114622" lon="11.625929252923694"><ele>553.0</ele><time>2026-05-03T15:35:54Z</time></trkpt><trkpt lat="43.93768444771907" lon="11.625764888315578"><ele>553.0</ele><time>2026-05-03T15:35:55Z</time></trkpt><trkpt lat="43.937730454217665" lon="11.62562788395385"><ele>553.0</ele><time>2026-05-03T15:35:56Z</time></trkpt><trkpt lat="43.93781446068857" lon="11.625543041160686"><ele>553.0</ele><time>2026-05-03T15:35:57Z</time></trkpt><trkpt lat="43.937933071985526" lon="11.625491717800221"><ele>553.0</ele><time>2026-05-03T15:35:58Z</time></trkpt><trkpt lat="43.938077711983695" lon="11.625460868759834"><ele>553.0</ele><time>2026-05-03T15:35:59Z</time></trkpt><trkpt lat="43.93823662816041" lon="11.6254477174213"><ele>553.0</ele><time>2026-05-03T15:36:00Z</time></trkpt><trkpt lat="43.938382535231796" lon="11.625442990420442"><ele>553.4</ele><time>2026-05-03T15:36:01Z</time></trkpt><trkpt lat="43.93849290997211" lon="11.625417880720985"><ele>553.8</ele><time>2026-05-03T15:36:02Z</time></trkpt><trkpt lat="43.93858046515468" lon="11.625358414771288"><ele>554.2</ele><time>2026-05-03T15:36:03Z</time></trkpt><trkpt lat="43.938603079944606" lon="11.62520892056722"><ele>554.6</ele><time>2026-05-03T15:36:04Z</time></trkpt><trkpt lat="43.93862663684002" lon="11.625038684929955"><ele>555.0</ele><time>2026-05-03T15:36:05Z</time></trkpt><trkpt lat="43.93863496007466" lon="11.624869259413547"><ele>555.0</ele><time>2026-05-03T15:36:06Z</time></trkpt><trkpt lat="43.93855495095161" lon="11.624700793256924"><ele>555.0</ele><time>2026-05-03T15:36:07Z</time></trkpt><trkpt lat="43.93845004453178" lon="11.624512301685165"><ele>555.0</ele><time>2026-05-03T15:36:08Z</time></trkpt><trkpt lat="43.93834288159148" lon="11.624351010277783"><ele>550.3333333333334</ele><time>2026-05-03T15:36:09Z</time></trkpt><trkpt lat="43.93822042333487" lon="11.624260194968727"><ele>545.6666666666667</ele><time>2026-05-03T15:36:10Z</time></trkpt><trkpt lat="43.93806561051944" lon="11.624189644357706"><ele>541.0</ele><time>2026-05-03T15:36:11Z</time></trkpt><trkpt lat="43.93791241586629" lon="11.624110364565855"><ele>541.0</ele><time>2026-05-03T15:36:12Z</time></trkpt><trkpt lat="43.93774953548532" lon="11.624038524202499"><ele>541.0</ele><time>2026-05-03T15:36:13Z</time></trkpt><trkpt lat="43.93759881129117" lon="11.623982558480499"><ele>541.0</ele><time>2026-05-03T15:36:14Z</time></trkpt><trkpt lat="43.93744375240912" lon="11.623984254744597"><ele>537.0</ele><time>2026-05-03T15:36:15Z</time></trkpt><trkpt lat="43.93728428251796" lon="11.624049165063917"><ele>533.0</ele><time>2026-05-03T15:36:16Z</time></trkpt><trkpt lat="43.93715723571378" lon="11.624146137311218"><ele>529.0</ele><time>2026-05-03T15:36:17Z</time></trkpt><trkpt lat="43.93705918058544" lon="11.624198869408968"><ele>525.0</ele><time>2026-05-03T15:36:18Z</time></trkpt><trkpt lat="43.93695967377869" lon="11.624191103687219"><ele>525.0</ele><time>2026-05-03T15:36:19Z</time></trkpt><trkpt lat="43.936854696043106" lon="11.624120663260253"><ele>525.0</ele><time>2026-05-03T15:36:20Z</time></trkpt><trkpt lat="43.936722298465625" lon="11.624043060874584"><ele>525.0</ele><time>2026-05-03T15:36:21Z</time></trkpt><trkpt lat="43.936572042073955" lon="11.62400698325733"><ele>525.0</ele><time>2026-05-03T15:36:22Z</time></trkpt><trkpt lat="43.93642794422581" lon="11.624011169681003"><ele>522.0</ele><time>2026-05-03T15:36:23Z</time></trkpt><trkpt lat="43.93627032425495" lon="11.624098060120005"><ele>519.0</ele><time>2026-05-03T15:36:24Z</time></trkpt><trkpt lat="43.93610817828112" lon="11.624192637404802"><ele>516.0</ele><time>2026-05-03T15:36:25Z</time></trkpt><trkpt lat="43.93596014801717" lon="11.624279706839216"><ele>519.6666666666666</ele><time>2026-05-03T15:36:26Z</time></trkpt><trkpt lat="43.93581922008659" lon="11.624410485510193"><ele>523.3333333333333</ele><time>2026-05-03T15:36:27Z</time></trkpt><trkpt lat="43.93567993549298" lon="11.62461120627489"><ele>527.0</ele><time>2026-05-03T15:36:28Z</time></trkpt><trkpt lat="43.935569870726795" lon="11.624857957954834"><ele>518.0</ele><time>2026-05-03T15:36:29Z</time></trkpt><trkpt lat="43.935496959274815" lon="11.625107666609619"><ele>509.0</ele><time>2026-05-03T15:36:30Z</time></trkpt><trkpt lat="43.935443431938275" lon="11.62530957704857"><ele>500.0</ele><time>2026-05-03T15:36:31Z</time></trkpt><trkpt lat="43.935395098977644" lon="11.625454482466399"><ele>497.25</ele><time>2026-05-03T15:36:32Z</time></trkpt><trkpt lat="43.93531543920796" lon="11.625516565028285"><ele>494.5</ele><time>2026-05-03T15:36:33Z</time></trkpt><trkpt lat="43.93521365693583" lon="11.625550241516844"><ele>491.75</ele><time>2026-05-03T15:36:34Z</time></trkpt><trkpt lat="43.93509191180225" lon="11.625544542942245"><ele>489.0</ele><time>2026-05-03T15:36:35Z</time></trkpt><trkpt lat="43.93494002740033" lon="11.625514681102125"><ele>489.0</ele><time>2026-05-03T15:36:36Z</time></trkpt><trkpt lat="43.93475991469177" lon="11.625484889700811"><ele>489.0</ele><time>2026-05-03T15:36:37Z</time></trkpt><trkpt lat="43.93457630418844" lon="11.625465013098415"><ele>489.0</ele><time>2026-05-03T15:36:38Z</time></trkpt><trkpt lat="43.934423361565926" lon="11.625436990803887"><ele>489.0</ele><time>2026-05-03T15:36:39Z</time></trkpt><trkpt lat="43.934288042458796" lon="11.625405822187929"><ele>489.0</ele><time>2026-05-03T15:36:40Z</time></trkpt><trkpt lat="43.9341748976449" lon="11.625307202951976"><ele>489.0</ele><time>2026-05-03T15:36:41Z</time></trkpt><trkpt lat="43.934101717950305" lon="11.625161537296908"><ele>489.0</ele><time>2026-05-03T15:36:42Z</time></trkpt><trkpt lat="43.93405046739025" lon="11.624990774249056"><ele>490.0</ele><time>2026-05-03T15:36:43Z</time></trkpt><trkpt lat="43.93406002647588" lon="11.624808164993166"><ele>491.0</ele><time>2026-05-03T15:36:44Z</time></trkpt><trkpt lat="43.93403368587791" lon="11.624599818208052"><ele>492.0</ele><time>2026-05-03T15:36:45Z</time></trkpt><trkpt lat="43.93395968422935" lon="11.624413242853368"><ele>493.0</ele><time>2026-05-03T15:36:46Z</time></trkpt><trkpt lat="43.9338491003284" lon="11.624221873638108"><ele>502.0</ele><time>2026-05-03T15:36:47Z</time></trkpt><trkpt lat="43.93372341953017" lon="11.624035509081345"><ele>511.0</ele><time>2026-05-03T15:36:48Z</time></trkpt><trkpt lat="43.93361429201834" lon="11.623879900431163"><ele>520.0</ele><time>2026-05-03T15:36:49Z</time></trkpt><trkpt lat="43.933483073768365" lon="11.623789830780447"><ele>504.6666666666667</ele><time>2026-05-03T15:36:50Z</time></trkpt><trkpt lat="43.933321846143535" lon="11.623777656984991"><ele>489.33333333333337</ele><time>2026-05-03T15:36:51Z</time></trkpt><trkpt lat="43.93316665189414" lon="11.623811002593568"><ele>474.0</ele><time>2026-05-03T15:36:52Z</time></trkpt><trkpt lat="43.93303047209538" lon="11.623800534986334"><ele>474.0</ele><time>2026-05-03T15:36:53Z</time></trkpt><trkpt lat="43.932886844901226" lon="11.62369759964471"><ele>474.0</ele><time>2026-05-03T15:36:54Z</time></trkpt><trkpt lat="43.93272345601235" lon="11.623605354266843"><ele>474.0</ele><time>2026-05-03T15:36:55Z</time></trkpt><trkpt lat="43.93258394835635" lon="11.62351977054004"><ele>472.2</ele><time>2026-05-03T15:36:56Z</time></trkpt><trkpt lat="43.93247298782362" lon="11.623454671957658"><ele>470.4</ele><time>2026-05-03T15:36:57Z</time></trkpt><trkpt lat="43.932404085986406" lon="11.623401904929281"><ele>468.6</ele><time>2026-05-03T15:36:58Z</time></trkpt><trkpt lat="43.93236633185681" lon="11.623312324429822"><ele>466.8</ele><time>2026-05-03T15:36:59Z</time></trkpt><trkpt lat="43.932369383880705" lon="11.623179163991807"><ele>465.0</ele><time>2026-05-03T15:37:00Z</time></trkpt><trkpt lat="43.9324464786512" lon="11.623046303319224"><ele>465.0</ele><time>2026-05-03T15:37:01Z</time></trkpt><trkpt lat="43.93251399395716" lon="11.62288778158303"><ele>465.0</ele><time>2026-05-03T15:37:02Z</time></trkpt><trkpt lat="43.932581875480004" lon="11.622741178471124"><ele>465.0</ele><time>2026-05-03T15:37:03Z</time></trkpt><trkpt lat="43.93258283622258" lon="11.62257225274768"><ele>465.0</ele><time>2026-05-03T15:37:04Z</time></trkpt><trkpt lat="43.93253015214559" lon="11.622410600439276"><ele>467.66666666666663</ele><time>2026-05-03T15:37:05Z</time></trkpt><trkpt lat="43.932424246943604" lon="11.622273190321463"><ele>470.3333333333333</ele><time>2026-05-03T15:37:06Z</time></trkpt><trkpt lat="43.93228145587523" lon="11.622230559008347"><ele>473.0</ele><time>2026-05-03T15:37:07Z</time></trkpt><trkpt lat="43.93211536326511" lon="11.622260335316865"><ele>473.0</ele><time>2026-05-03T15:37:08Z</time></trkpt><trkpt lat="43.9319481232379" lon="11.62232447366943"><ele>473.0</ele><time>2026-05-03T15:37:09Z</time></trkpt><trkpt lat="43.931783737238725" lon="11.622406038545703"><ele>473.0</ele><time>2026-05-03T15:37:10Z</time></trkpt><trkpt lat="43.93162993933113" lon="11.622491664771847"><ele>467.3333333333333</ele><time>2026-05-03T15:37:11Z</time></trkpt><trkpt lat="43.93148469955628" lon="11.622570099949195"><ele>461.66666666666663</ele><time>2026-05-03T15:37:12Z</time></trkpt><trkpt lat="43.93133412352566" lon="11.622566083590494"><ele>456.0</ele><time>2026-05-03T15:37:13Z</time></trkpt><trkpt lat="43.93117016611763" lon="11.62254271320228"><ele>456.0</ele><time>2026-05-03T15:37:14Z</time></trkpt><trkpt lat="43.93099756770609" lon="11.62253092456093"><ele>456.0</ele><time>2026-05-03T15:37:15Z</time></trkpt><trkpt lat="43.930853836443674" lon="11.622501811842175"><ele>456.0</ele><time>2026-05-03T15:37:16Z</time></trkpt><trkpt lat="43.93076653316144" lon="11.622487043158449"><ele>456.0</ele><time>2026-05-03T15:37:17Z</time></trkpt><trkpt lat="43.93069603576079" lon="11.62245813396673"><ele>454.4</ele><time>2026-05-03T15:37:18Z</time></trkpt><trkpt lat="43.93064401144264" lon="11.622380429895246"><ele>452.8</ele><time>2026-05-03T15:37:19Z</time></trkpt><trkpt lat="43.93063159025058" lon="11.622251713153398"><ele>451.19999999999993</ele><time>2026-05-03T15:37:20Z</time></trkpt><trkpt lat="43.93067734330057" lon="11.62209214226414"><ele>449.59999999999997</ele><time>2026-05-03T15:37:21Z</time></trkpt><trkpt lat="43.93077702461159" lon="11.621936913455448"><ele>448.0</ele><time>2026-05-03T15:37:22Z</time></trkpt><trkpt lat="43.93084315885469" lon="11.621759254554211"><ele>448.0</ele><time>2026-05-03T15:37:23Z</time></trkpt><trkpt lat="43.93087262121232" lon="11.621601413497187"><ele>448.0</ele><time>2026-05-03T15:37:24Z</time></trkpt><trkpt lat="43.93082078900746" lon="11.621470258784699"><ele>448.0</ele><time>2026-05-03T15:37:25Z</time></trkpt><trkpt lat="43.930711784771894" lon="11.621377135509809"><ele>448.0</ele><time>2026-05-03T15:37:26Z</time></trkpt><trkpt lat="43.93057978462321" lon="11.621356759639164"><ele>448.0</ele><time>2026-05-03T15:37:27Z</time></trkpt><trkpt lat="43.93042508629098" lon="11.621404894168919"><ele>448.0</ele><time>2026-05-03T15:37:28Z</time></trkpt><trkpt lat="43.93027809397707" lon="11.621451455502354"><ele>448.0</ele><time>2026-05-03T15:37:29Z</time></trkpt><trkpt lat="43.93014855366137" lon="11.621459210592048"><ele>448.0</ele><time>2026-05-03T15:37:30Z</time></trkpt><trkpt lat="43.930049104668775" lon="11.62135395820215"><ele>444.25</ele><time>2026-05-03T15:37:31Z</time></trkpt><trkpt lat="43.92997900444517" lon="11.621216651644408"><ele>440.5</ele><time>2026-05-03T15:37:32Z</time></trkpt><trkpt lat="43.92993125217732" lon="11.621063108594795"><ele>436.75</ele><time>2026-05-03T15:37:33Z</time></trkpt><trkpt lat="43.929935724003705" lon="11.620887076094114"><ele>433.0</ele><time>2026-05-03T15:37:34Z</time></trkpt><trkpt lat="43.929959316894006" lon="11.620708835002182"><ele>433.0</ele><time>2026-05-03T15:37:35Z</time></trkpt><trkpt lat="43.92996782194508" lon="11.6205615329341"><ele>432.99999999999994</ele><time>2026-05-03T15:37:36Z</time></trkpt><trkpt lat="43.92992869435892" lon="11.620461357257126"><ele>432.99999999999994</ele><time>2026-05-03T15:37:37Z</time></trkpt><trkpt lat="43.92984618374892" lon="11.620411126915071"><ele>433.0</ele><time>2026-05-03T15:37:38Z</time></trkpt><trkpt lat="43.92974406683838" lon="11.620434876162003"><ele>433.0</ele><time>2026-05-03T15:37:39Z</time></trkpt><trkpt lat="43.92967105889958" lon="11.620534951402473"><ele>433.0</ele><time>2026-05-03T15:37:40Z</time></trkpt><trkpt lat="43.929630062797166" lon="11.620666038175399"><ele>433.0</ele><time>2026-05-03T15:37:41Z</time></trkpt><trkpt lat="43.92968003104609" lon="11.620871851515204"><ele>433.0</ele><time>2026-05-03T15:37:42Z</time></trkpt><trkpt lat="43.929744842157405" lon="11.621075121193225"><ele>433.0</ele><time>2026-05-03T15:37:43Z</time></trkpt><trkpt lat="43.9298490810144" lon="11.621311489259295"><ele>428.33333333333337</ele><time>2026-05-03T15:37:44Z</time></trkpt><trkpt lat="43.92992300587526" lon="11.621544832076793"><ele>423.66666666666663</ele><time>2026-05-03T15:37:45Z</time></trkpt><trkpt lat="43.92996929061286" lon="11.621741982158039"><ele>419.0</ele><time>2026-05-03T15:37:46Z</time></trkpt><trkpt lat="43.929982292297616" lon="11.621931665462082"><ele>418.25</ele><time>2026-05-03T15:37:47Z</time></trkpt><trkpt lat="43.92996228048115" lon="11.62211728985617"><ele>417.5</ele><time>2026-05-03T15:37:48Z</time></trkpt><trkpt lat="43.92991045838715" lon="11.622266248619185"><ele>416.75</ele><time>2026-05-03T15:37:49Z</time></trkpt><trkpt lat="43.92982754746491" lon="11.622372180295773"><ele>416.0</ele><time>2026-05-03T15:37:50Z</time></trkpt><trkpt lat="43.92972053076802" lon="11.622492785004399"><ele>416.0</ele><time>2026-05-03T15:37:51Z</time></trkpt><trkpt lat="43.92959625076" lon="11.622608732044624"><ele>416.0</ele><time>2026-05-03T15:37:52Z</time></trkpt><trkpt lat="43.92949194494225" lon="11.622698317843879"><ele>416.0</ele><time>2026-05-03T15:37:53Z</time></trkpt><trkpt lat="43.92938878845797" lon="11.622706070017257"><ele>416.0</ele><time>2026-05-03T15:37:54Z</time></trkpt><trkpt lat="43.9292824596201" lon="11.622628181936493"><ele>416.3333333333333</ele><time>2026-05-03T15:37:55Z</time></trkpt><trkpt lat="43.9291976967726" lon="11.62247254959265"><ele>416.66666666666663</ele><time>2026-05-03T15:37:56Z</time></trkpt><trkpt lat="43.92910054304287" lon="11.622306357393029"><ele>417.0</ele><time>2026-05-03T15:37:57Z</time></trkpt><trkpt lat="43.92902487986172" lon="11.622093067953518"><ele>412.66666666666663</ele><time>2026-05-03T15:37:58Z</time></trkpt><trkpt lat="43.92894490872799" lon="11.62189781862563"><ele>408.3333333333333</ele><time>2026-05-03T15:37:59Z</time></trkpt><trkpt lat="43.928829699407586" lon="11.621714539918324"><ele>404.0</ele><time>2026-05-03T15:38:00Z</time></trkpt><trkpt lat="43.92870668507325" lon="11.621543266156932"><ele>404.0</ele><time>2026-05-03T15:38:01Z</time></trkpt><trkpt lat="43.92859746947315" lon="11.621384743955101"><ele>404.0</ele><time>2026-05-03T15:38:02Z</time></trkpt><trkpt lat="43.92849958913449" lon="11.621229983646826"><ele>404.0</ele><time>2026-05-03T15:38:03Z</time></trkpt><trkpt lat="43.92840379066626" lon="11.621081125352902"><ele>403.5</ele><time>2026-05-03T15:38:04Z</time></trkpt><trkpt lat="43.92831286582079" lon="11.620942447938166"><ele>403.0</ele><time>2026-05-03T15:38:05Z</time></trkpt><trkpt lat="43.92822375737426" lon="11.62081588195856"><ele>402.5</ele><time>2026-05-03T15:38:06Z</time></trkpt><trkpt lat="43.92813051566692" lon="11.620674651900256"><ele>402.0</ele><time>2026-05-03T15:38:07Z</time></trkpt><trkpt lat="43.92803770161422" lon="11.620525696082675"><ele>402.0</ele><time>2026-05-03T15:38:08Z</time></trkpt><trkpt lat="43.927938866850965" lon="11.620373754660687"><ele>402.0</ele><time>2026-05-03T15:38:09Z</time></trkpt><trkpt lat="43.92783853859909" lon="11.620218827592092"><ele>402.0</ele><time>2026-05-03T15:38:10Z</time></trkpt><trkpt lat="43.92773596343117" lon="11.620067394694631"><ele>402.0</ele><time>2026-05-03T15:38:11Z</time></trkpt><trkpt lat="43.927637328321026" lon="11.619917595791438"><ele>403.25</ele><time>2026-05-03T15:38:12Z</time></trkpt><trkpt lat="43.92753526757284" lon="11.619776518844798"><ele>404.5</ele><time>2026-05-03T15:38:13Z</time></trkpt><trkpt lat="43.92743569776285" lon="11.619656334948905"><ele>405.75</ele><time>2026-05-03T15:38:14Z</time></trkpt><trkpt lat="43.927324877398256" lon="11.619562714267893"><ele>407.0</ele><time>2026-05-03T15:38:15Z</time></trkpt><trkpt lat="43.92719823571564" lon="11.619495612080916"><ele>405.5</ele><time>2026-05-03T15:38:16Z</time></trkpt><trkpt lat="43.92706837505779" lon="11.619435906737431"><ele>404.0</ele><time>2026-05-03T15:38:17Z</time></trkpt><trkpt lat="43.92693668245418" lon="11.619363938193079"><ele>402.5</ele><time>2026-05-03T15:38:18Z</time></trkpt><trkpt lat="43.92681139579592" lon="11.61928035115989"><ele>401.0</ele><time>2026-05-03T15:38:19Z</time></trkpt><trkpt lat="43.926695113100784" lon="11.619169856168284"><ele>401.0</ele><time>2026-05-03T15:38:20Z</time></trkpt><trkpt lat="43.92658756134501" lon="11.61904121603737"><ele>401.0</ele><time>2026-05-03T15:38:21Z</time></trkpt><trkpt lat="43.9264931622329" lon="11.618911377314085"><ele>401.0</ele><time>2026-05-03T15:38:22Z</time></trkpt><trkpt lat="43.926427254598806" lon="11.618772226916837"><ele>401.0</ele><time>2026-05-03T15:38:23Z</time></trkpt><trkpt lat="43.926388503835184" lon="11.618625695802825"><ele>398.6</ele><time>2026-05-03T15:38:24Z</time></trkpt><trkpt lat="43.92636916613383" lon="11.618480144402271"><ele>396.20000000000005</ele><time>2026-05-03T15:38:25Z</time></trkpt><trkpt lat="43.92635197518548" lon="11.618332242913565"><ele>393.79999999999995</ele><time>2026-05-03T15:38:26Z</time></trkpt><trkpt lat="43.926332370048094" lon="11.61818700497287"><ele>391.4</ele><time>2026-05-03T15:38:27Z</time></trkpt><trkpt lat="43.926294757726495" lon="11.618077327526962"><ele>389.0</ele><time>2026-05-03T15:38:28Z</time></trkpt><trkpt lat="43.92622801738385" lon="11.61800404837262"><ele>389.0</ele><time>2026-05-03T15:38:29Z</time></trkpt><trkpt lat="43.926126905714916" lon="11.61796726235864"><ele>389.0</ele><time>2026-05-03T15:38:30Z</time></trkpt><trkpt lat="43.92602089020118" lon="11.61794006255424"><ele>389.0</ele><time>2026-05-03T15:38:31Z</time></trkpt><trkpt lat="43.92593725823802" lon="11.617904095351976"><ele>389.0</ele><time>2026-05-03T15:38:32Z</time></trkpt><trkpt lat="43.925849529194785" lon="11.617872317546823"><ele>389.0</ele><time>2026-05-03T15:38:33Z</time></trkpt><trkpt lat="43.92573908197717" lon="11.617871777673578"><ele>391.75</ele><time>2026-05-03T15:38:34Z</time></trkpt><trkpt lat="43.92565347029061" lon="11.617896328068337"><ele>394.5</ele><time>2026-05-03T15:38:35Z</time></trkpt><trkpt lat="43.92556477598095" lon="11.617996365121126"><ele>397.25</ele><time>2026-05-03T15:38:36Z</time></trkpt><trkpt lat="43.92548790022988" lon="11.618146566105102"><ele>400.0</ele><time>2026-05-03T15:38:37Z</time></trkpt><trkpt lat="43.92540010402096" lon="11.618260450441834"><ele>400.0</ele><time>2026-05-03T15:38:38Z</time></trkpt><trkpt lat="43.92533735355071" lon="11.618383215204048"><ele>400.0</ele><time>2026-05-03T15:38:39Z</time></trkpt><trkpt lat="43.92527729365459" lon="11.618480855185995"><ele>400.0</ele><time>2026-05-03T15:38:40Z</time></trkpt><trkpt lat="43.925250320170306" lon="11.6185924701473"><ele>400.0</ele><time>2026-05-03T15:38:41Z</time></trkpt><trkpt lat="43.925246454179394" lon="11.618708098376365"><ele>400.0</ele><time>2026-05-03T15:38:42Z</time></trkpt><trkpt lat="43.92525935507745" lon="11.618826996310219"><ele>401.00000000000006</ele><time>2026-05-03T15:38:43Z</time></trkpt><trkpt lat="43.92526959285297" lon="11.618935933403192"><ele>402.0</ele><time>2026-05-03T15:38:44Z</time></trkpt><trkpt lat="43.92526789742283" lon="11.619024350849049"><ele>403.0</ele><time>2026-05-03T15:38:45Z</time></trkpt><trkpt lat="43.925242104791344" lon="11.61910796308164"><ele>404.0</ele><time>2026-05-03T15:38:46Z</time></trkpt><trkpt lat="43.92515173323667" lon="11.61917576502781"><ele>405.00000000000006</ele><time>2026-05-03T15:38:48Z</time></trkpt><trkpt lat="43.925077739264175" lon="11.619252350093634"><ele>406.0</ele><time>2026-05-03T15:38:51Z</time></trkpt><trkpt lat="43.9250004728591" lon="11.619244982875166"><ele>402.0</ele><time>2026-05-03T15:38:53Z</time></trkpt><trkpt lat="43.92494157349525" lon="11.619091728972858"><ele>398.0</ele><time>2026-05-03T15:38:55Z</time></trkpt><trkpt lat="43.924973410369006" lon="11.6189751447496"><ele>394.0</ele><time>2026-05-03T15:38:56Z</time></trkpt><trkpt lat="43.92497820234309" lon="11.618831668590131"><ele>390.0</ele><time>2026-05-03T15:38:57Z</time></trkpt><trkpt lat="43.9250025300906" lon="11.618674548064222"><ele>386.0</ele><time>2026-05-03T15:38:58Z</time></trkpt><trkpt lat="43.92502123464964" lon="11.61851391162448"><ele>384.4</ele><time>2026-05-03T15:38:59Z</time></trkpt><trkpt lat="43.925035985599045" lon="11.61837552292665"><ele>382.8</ele><time>2026-05-03T15:39:00Z</time></trkpt><trkpt lat="43.92505203216474" lon="11.618244776040227"><ele>381.2</ele><time>2026-05-03T15:39:01Z</time></trkpt><trkpt lat="43.92507215936742" lon="11.618118458004677"><ele>379.59999999999997</ele><time>2026-05-03T15:39:02Z</time></trkpt><trkpt lat="43.92510239369569" lon="11.618001998949573"><ele>378.0</ele><time>2026-05-03T15:39:03Z</time></trkpt><trkpt lat="43.92517112495252" lon="11.617887218661613"><ele>380.75</ele><time>2026-05-03T15:39:04Z</time></trkpt><trkpt lat="43.92525980488357" lon="11.617755834877793"><ele>383.5</ele><time>2026-05-03T15:39:05Z</time></trkpt><trkpt lat="43.92537932262356" lon="11.617613344374638"><ele>386.25</ele><time>2026-05-03T15:39:06Z</time></trkpt><trkpt lat="43.925476910039286" lon="11.617440564950282"><ele>389.0</ele><time>2026-05-03T15:39:07Z</time></trkpt><trkpt lat="43.92557164726456" lon="11.617298789739671"><ele>389.0</ele><time>2026-05-03T15:39:08Z</time></trkpt><trkpt lat="43.925641723042936" lon="11.617162120543679"><ele>389.0</ele><time>2026-05-03T15:39:09Z</time></trkpt><trkpt lat="43.925694441435276" lon="11.617010530614337"><ele>389.0</ele><time>2026-05-03T15:39:10Z</time></trkpt><trkpt lat="43.92572343785536" lon="11.616856309687874"><ele>389.0</ele><time>2026-05-03T15:39:11Z</time></trkpt><trkpt lat="43.92576661648626" lon="11.616705872924934"><ele>386.0</ele><time>2026-05-03T15:39:12Z</time></trkpt><trkpt lat="43.92579010263113" lon="11.61654532015233"><ele>383.0</ele><time>2026-05-03T15:39:13Z</time></trkpt><trkpt lat="43.92580370755252" lon="11.616388698885075"><ele>380.0</ele><time>2026-05-03T15:39:14Z</time></trkpt><trkpt lat="43.92581046922875" lon="11.61622140648961"><ele>377.0</ele><time>2026-05-03T15:39:15Z</time></trkpt><trkpt lat="43.92582527314174" lon="11.616122789321487"><ele>374.0</ele><time>2026-05-03T15:39:16Z</time></trkpt><trkpt lat="43.92582519954969" lon="11.615974801362608"><ele>372.25</ele><time>2026-05-03T15:39:17Z</time></trkpt><trkpt lat="43.92582445905866" lon="11.615819231266327"><ele>370.5</ele><time>2026-05-03T15:39:18Z</time></trkpt><trkpt lat="43.92582360241152" lon="11.615659489830012"><ele>368.75</ele><time>2026-05-03T15:39:19Z</time></trkpt><trkpt lat="43.92582276149634" lon="11.615495568427592"><ele>367.0</ele><time>2026-05-03T15:39:20Z</time></trkpt><trkpt lat="43.92582347565248" lon="11.615336812488602"><ele>366.0</ele><time>2026-05-03T15:39:21Z</time></trkpt><trkpt lat="43.92581213502215" lon="11.615178104783588"><ele>365.0</ele><time>2026-05-03T15:39:22Z</time></trkpt><trkpt lat="43.92578459105837" lon="11.615026176403225"><ele>364.0</ele><time>2026-05-03T15:39:23Z</time></trkpt><trkpt lat="43.92575891490548" lon="11.61488092263759"><ele>363.0</ele><time>2026-05-03T15:39:24Z</time></trkpt><trkpt lat="43.92573266608497" lon="11.61473956742445"><ele>362.0</ele><time>2026-05-03T15:39:25Z</time></trkpt><trkpt lat="43.925705161714355" lon="11.614597271694795"><ele>361.25</ele><time>2026-05-03T15:39:26Z</time></trkpt><trkpt lat="43.9256829128563" lon="11.614453686759491"><ele>360.5</ele><time>2026-05-03T15:39:27Z</time></trkpt><trkpt lat="43.925669478458055" lon="11.614307955060735"><ele>359.75</ele><time>2026-05-03T15:39:28Z</time></trkpt><trkpt lat="43.92566955720086" lon="11.61413850893617"><ele>359.0</ele><time>2026-05-03T15:39:29Z</time></trkpt><trkpt lat="43.925672104501416" lon="11.613976187728952"><ele>359.0</ele><time>2026-05-03T15:39:30Z</time></trkpt><trkpt lat="43.925670756830954" lon="11.613817095657083"><ele>359.0</ele><time>2026-05-03T15:39:31Z</time></trkpt><trkpt lat="43.92567039093393" lon="11.613669651395961"><ele>359.0</ele><time>2026-05-03T15:39:32Z</time></trkpt><trkpt lat="43.92566975086957" lon="11.613534224819935"><ele>359.0</ele><time>2026-05-03T15:39:33Z</time></trkpt><trkpt lat="43.92566643667463" lon="11.6134092514425"><ele>359.0</ele><time>2026-05-03T15:39:34Z</time></trkpt><trkpt lat="43.92565721163679" lon="11.613289135647912"><ele>357.0</ele><time>2026-05-03T15:39:35Z</time></trkpt><trkpt lat="43.92567311491319" lon="11.613173467334645"><ele>355.0</ele><time>2026-05-03T15:39:36Z</time></trkpt><trkpt lat="43.92572813582538" lon="11.613088530587175"><ele>353.0</ele><time>2026-05-03T15:39:37Z</time></trkpt><trkpt lat="43.925773940367904" lon="11.613012583152319"><ele>351.0</ele><time>2026-05-03T15:39:38Z</time></trkpt><trkpt lat="43.92585281814181" lon="11.612946890597309"><ele>349.0</ele><time>2026-05-03T15:39:40Z</time></trkpt><trkpt lat="43.92597740718202" lon="11.61291318300295"><ele>348.79999999999995</ele><time>2026-05-03T15:39:42Z</time></trkpt><trkpt lat="43.92603598483871" lon="11.61299814257261"><ele>348.59999999999997</ele><time>2026-05-03T15:39:43Z</time></trkpt><trkpt lat="43.92610769345572" lon="11.613074040787863"><ele>348.4</ele><time>2026-05-03T15:39:44Z</time></trkpt><trkpt lat="43.92619408452187" lon="11.613141989368232"><ele>348.2</ele><time>2026-05-03T15:39:45Z</time></trkpt><trkpt lat="43.926269093550175" lon="11.613238832662205"><ele>348.0</ele><time>2026-05-03T15:39:46Z</time></trkpt><trkpt lat="43.926345185458885" lon="11.613324783404575"><ele>348.0</ele><time>2026-05-03T15:39:47Z</time></trkpt><trkpt lat="43.926404009185596" lon="11.61338738003401"><ele>348.0</ele><time>2026-05-03T15:39:48Z</time></trkpt><trkpt lat="43.92646117076956" lon="11.61342955629584"><ele>348.0</ele><time>2026-05-03T15:39:49Z</time></trkpt><trkpt lat="43.926580288460535" lon="11.61335894258584"><ele>348.0</ele><time>2026-05-03T15:39:51Z</time></trkpt><trkpt lat="43.926618482979045" lon="11.613257131745181"><ele>348.0</ele><time>2026-05-03T15:39:52Z</time></trkpt><trkpt lat="43.92664360695263" lon="11.613128107085975"><ele>348.0</ele><time>2026-05-03T15:39:53Z</time></trkpt><trkpt lat="43.92665799862344" lon="11.613007579976207"><ele>348.0</ele><time>2026-05-03T15:39:54Z</time></trkpt><trkpt lat="43.92668139874607" lon="11.612893228071846"><ele>348.0</ele><time>2026-05-03T15:39:55Z</time></trkpt><trkpt lat="43.92670056436022" lon="11.612792643610556"><ele>348.0</ele><time>2026-05-03T15:39:56Z</time></trkpt><trkpt lat="43.92672172210066" lon="11.612690655061806"><ele>348.0</ele><time>2026-05-03T15:39:57Z</time></trkpt><trkpt lat="43.92674377892946" lon="11.6125824035944"><ele>348.0</ele><time>2026-05-03T15:39:58Z</time></trkpt><trkpt lat="43.926760153738265" lon="11.612480878133766"><ele>348.0</ele><time>2026-05-03T15:39:59Z</time></trkpt><trkpt lat="43.926771448596675" lon="11.612367583819143"><ele>347.3333333333333</ele><time>2026-05-03T15:40:00Z</time></trkpt><trkpt lat="43.926767680461644" lon="11.612252057419468"><ele>346.6666666666667</ele><time>2026-05-03T15:40:01Z</time></trkpt><trkpt lat="43.92674019513589" lon="11.612127414296753"><ele>346.0</ele><time>2026-05-03T15:40:02Z</time></trkpt><trkpt lat="43.92668577144569" lon="11.612006812221388"><ele>345.33333333333337</ele><time>2026-05-03T15:40:03Z</time></trkpt><trkpt lat="43.926618671886175" lon="11.611920580842748"><ele>344.6666666666667</ele><time>2026-05-03T15:40:04Z</time></trkpt><trkpt lat="43.92655172159253" lon="11.611864168771831"><ele>344.0</ele><time>2026-05-03T15:40:05Z</time></trkpt><trkpt lat="43.92647753667015" lon="11.611837337241152"><ele>344.0</ele><time>2026-05-03T15:40:06Z</time></trkpt><trkpt lat="43.92639567635955" lon="11.611825153494452"><ele>344.0</ele><time>2026-05-03T15:40:07Z</time></trkpt><trkpt lat="43.926305473931436" lon="11.611837907518165"><ele>344.0</ele><time>2026-05-03T15:40:08Z</time></trkpt><trkpt lat="43.9262439556711" lon="11.61186043596308"><ele>344.0</ele><time>2026-05-03T15:40:09Z</time></trkpt><trkpt lat="43.926144733322815" lon="11.611878771631028"><ele>344.0</ele><time>2026-05-03T15:40:11Z</time></trkpt><trkpt lat="43.92604196276559" lon="11.611821181366096"><ele>344.0</ele><time>2026-05-03T15:40:13Z</time></trkpt><trkpt lat="43.92598457027015" lon="11.611667124996748"><ele>344.0</ele><time>2026-05-03T15:40:15Z</time></trkpt><trkpt lat="43.92597712583081" lon="11.611571704667304"><ele>344.0</ele><time>2026-05-03T15:40:16Z</time></trkpt><trkpt lat="43.92599743266807" lon="11.611460979435005"><ele>344.0</ele><time>2026-05-03T15:40:17Z</time></trkpt><trkpt lat="43.92607057074316" lon="11.61138080852192"><ele>344.0</ele><time>2026-05-03T15:40:18Z</time></trkpt><trkpt lat="43.92613454410605" lon="11.611288106332626"><ele>344.0</ele><time>2026-05-03T15:40:19Z</time></trkpt><trkpt lat="43.9262027502528" lon="11.611199881032938"><ele>344.0</ele><time>2026-05-03T15:40:20Z</time></trkpt><trkpt lat="43.92626570459637" lon="11.6110957914078"><ele>340.5</ele><time>2026-05-03T15:40:21Z</time></trkpt><trkpt lat="43.92636396792598" lon="11.611053804005161"><ele>337.0</ele><time>2026-05-03T15:40:22Z</time></trkpt><trkpt lat="43.92646160160641" lon="11.611036660658991"><ele>333.5</ele><time>2026-05-03T15:40:23Z</time></trkpt><trkpt lat="43.926571154059566" lon="11.611056763487943"><ele>330.0</ele><time>2026-05-03T15:40:24Z</time></trkpt><trkpt lat="43.92671858714712" lon="11.611065635776574"><ele>331.25</ele><time>2026-05-03T15:40:25Z</time></trkpt><trkpt lat="43.92687537642016" lon="11.611050116111192"><ele>332.5</ele><time>2026-05-03T15:40:26Z</time></trkpt><trkpt lat="43.92702015456787" lon="11.611012248440264"><ele>333.75</ele><time>2026-05-03T15:40:27Z</time></trkpt><trkpt lat="43.92714679403082" lon="11.610947263530841"><ele>335.0</ele><time>2026-05-03T15:40:28Z</time></trkpt><trkpt lat="43.92726081021429" lon="11.610898861854668"><ele>335.0</ele><time>2026-05-03T15:40:29Z</time></trkpt><trkpt lat="43.92735882254748" lon="11.610882409877927"><ele>335.0</ele><time>2026-05-03T15:40:30Z</time></trkpt><trkpt lat="43.927447654250095" lon="11.610844957120465"><ele>335.0</ele><time>2026-05-03T15:40:31Z</time></trkpt><trkpt lat="43.927528771202674" lon="11.61077681961136"><ele>335.0</ele><time>2026-05-03T15:40:32Z</time></trkpt><trkpt lat="43.927617255113915" lon="11.610716684381467"><ele>335.0</ele><time>2026-05-03T15:40:33Z</time></trkpt><trkpt lat="43.92769428867471" lon="11.61062349400562"><ele>337.4</ele><time>2026-05-03T15:40:34Z</time></trkpt><trkpt lat="43.92775449318424" lon="11.610506465175874"><ele>339.8</ele><time>2026-05-03T15:40:35Z</time></trkpt><trkpt lat="43.92779841222049" lon="11.610372686167691"><ele>342.20000000000005</ele><time>2026-05-03T15:40:36Z</time></trkpt><trkpt lat="43.927818579199496" lon="11.610215433150586"><ele>344.6</ele><time>2026-05-03T15:40:37Z</time></trkpt><trkpt lat="43.92780857955435" lon="11.610048997972406"><ele>347.0</ele><time>2026-05-03T15:40:38Z</time></trkpt><trkpt lat="43.92777088224449" lon="11.60987806058324"><ele>347.0</ele><time>2026-05-03T15:40:39Z</time></trkpt><trkpt lat="43.9277206077022" lon="11.609715219798439"><ele>347.0</ele><time>2026-05-03T15:40:40Z</time></trkpt><trkpt lat="43.927682816578724" lon="11.609557593864306"><ele>347.0</ele><time>2026-05-03T15:40:41Z</time></trkpt><trkpt lat="43.92765357003303" lon="11.609411227481253"><ele>347.0</ele><time>2026-05-03T15:40:42Z</time></trkpt><trkpt lat="43.92762583942529" lon="11.609273548520466"><ele>343.6</ele><time>2026-05-03T15:40:43Z</time></trkpt><trkpt lat="43.92759419484685" lon="11.609135798369284"><ele>340.20000000000005</ele><time>2026-05-03T15:40:44Z</time></trkpt><trkpt lat="43.927561889589036" lon="11.608996737299819"><ele>336.8</ele><time>2026-05-03T15:40:45Z</time></trkpt><trkpt lat="43.9275280357835" lon="11.608853415890666"><ele>333.4</ele><time>2026-05-03T15:40:46Z</time></trkpt><trkpt lat="43.927480151534155" lon="11.608718333909051"><ele>330.0</ele><time>2026-05-03T15:40:47Z</time></trkpt><trkpt lat="43.927408773733916" lon="11.608598883248915"><ele>327.75</ele><time>2026-05-03T15:40:48Z</time></trkpt><trkpt lat="43.92732550041474" lon="11.608483555274352"><ele>325.5</ele><time>2026-05-03T15:40:49Z</time></trkpt><trkpt lat="43.927240423763" lon="11.608364907400635"><ele>323.25</ele><time>2026-05-03T15:40:50Z</time></trkpt><trkpt lat="43.92716592160975" lon="11.60824719738135"><ele>321.0</ele><time>2026-05-03T15:40:51Z</time></trkpt><trkpt lat="43.92709494255378" lon="11.608133987608655"><ele>321.0</ele><time>2026-05-03T15:40:52Z</time></trkpt><trkpt lat="43.92702485537138" lon="11.608012431063756"><ele>321.0</ele><time>2026-05-03T15:40:53Z</time></trkpt><trkpt lat="43.926957843466255" lon="11.60788284919021"><ele>321.0</ele><time>2026-05-03T15:40:54Z</time></trkpt><trkpt lat="43.92689821415147" lon="11.607741088987911"><ele>321.0</ele><time>2026-05-03T15:40:55Z</time></trkpt><trkpt lat="43.92685228586363" lon="11.607587996350059"><ele>320.5</ele><time>2026-05-03T15:40:56Z</time></trkpt><trkpt lat="43.92681293519378" lon="11.607430212141239"><ele>320.0</ele><time>2026-05-03T15:40:57Z</time></trkpt><trkpt lat="43.92677238997804" lon="11.60726977859329"><ele>319.5</ele><time>2026-05-03T15:40:58Z</time></trkpt><trkpt lat="43.92672247135257" lon="11.60710939081384"><ele>319.0</ele><time>2026-05-03T15:40:59Z</time></trkpt><trkpt lat="43.92668072736505" lon="11.606946236670113"><ele>319.0</ele><time>2026-05-03T15:41:00Z</time></trkpt><trkpt lat="43.926632094308005" lon="11.606782026400769"><ele>319.0</ele><time>2026-05-03T15:41:01Z</time></trkpt><trkpt lat="43.92658577233753" lon="11.60661310924763"><ele>319.0</ele><time>2026-05-03T15:41:02Z</time></trkpt><trkpt lat="43.92653963265063" lon="11.606443953608759"><ele>319.0</ele><time>2026-05-03T15:41:03Z</time></trkpt><trkpt lat="43.926498481004714" lon="11.606262578294935"><ele>319.25</ele><time>2026-05-03T15:41:04Z</time></trkpt><trkpt lat="43.92645919068299" lon="11.606066223586073"><ele>319.5</ele><time>2026-05-03T15:41:05Z</time></trkpt><trkpt lat="43.92642863638043" lon="11.605861688349622"><ele>319.75</ele><time>2026-05-03T15:41:06Z</time></trkpt><trkpt lat="43.926414548987125" lon="11.60566230030544"><ele>320.0</ele><time>2026-05-03T15:41:07Z</time></trkpt><trkpt lat="43.926402139139434" lon="11.605464997260981"><ele>320.25</ele><time>2026-05-03T15:41:08Z</time></trkpt><trkpt lat="43.9263882921532" lon="11.605266451634785"><ele>320.5</ele><time>2026-05-03T15:41:09Z</time></trkpt><trkpt lat="43.926376875951306" lon="11.605064369609954"><ele>320.75</ele><time>2026-05-03T15:41:10Z</time></trkpt><trkpt lat="43.92636538282941" lon="11.604845213663184"><ele>321.0</ele><time>2026-05-03T15:41:11Z</time></trkpt><trkpt lat="43.92635151110775" lon="11.604618693753569"><ele>320.6666666666667</ele><time>2026-05-03T15:41:12Z</time></trkpt><trkpt lat="43.92634804954583" lon="11.604384877994951"><ele>320.33333333333337</ele><time>2026-05-03T15:41:13Z</time></trkpt><trkpt lat="43.92634904238194" lon="11.60417855281434"><ele>320.0</ele><time>2026-05-03T15:41:14Z</time></trkpt><trkpt lat="43.926346151229254" lon="11.603976207446902"><ele>320.0</ele><time>2026-05-03T15:41:15Z</time></trkpt><trkpt lat="43.92633968926931" lon="11.603765322563643"><ele>320.0</ele><time>2026-05-03T15:41:16Z</time></trkpt><trkpt lat="43.92633454312449" lon="11.603543416590378"><ele>320.0</ele><time>2026-05-03T15:41:17Z</time></trkpt><trkpt lat="43.92633204717584" lon="11.6032966095952"><ele>320.0</ele><time>2026-05-03T15:41:18Z</time></trkpt><trkpt lat="43.92634921047895" lon="11.603008377193065"><ele>320.0</ele><time>2026-05-03T15:41:19Z</time></trkpt><trkpt lat="43.926353427343805" lon="11.60266421329435"><ele>323.0</ele><time>2026-05-03T15:41:20Z</time></trkpt><trkpt lat="43.92635879686119" lon="11.602294274600338"><ele>326.0</ele><time>2026-05-03T15:41:21Z</time></trkpt><trkpt lat="43.92635956639325" lon="11.601895098626564"><ele>326.0</ele><time>2026-05-03T15:41:22Z</time></trkpt><trkpt lat="43.92636875307614" lon="11.601497978167918"><ele>326.0</ele><time>2026-05-03T15:41:23Z</time></trkpt><trkpt lat="43.9263524634365" lon="11.601153072568561"><ele>329.0</ele><time>2026-05-03T15:41:24Z</time></trkpt><trkpt lat="43.9263174791907" lon="11.600858130162896"><ele>332.0</ele><time>2026-05-03T15:41:25Z</time></trkpt><trkpt lat="43.926288649173024" lon="11.600628022610616"><ele>335.0</ele><time>2026-05-03T15:41:26Z</time></trkpt><trkpt lat="43.926263461211235" lon="11.60044832066122"><ele>341.33333333333337</ele><time>2026-05-03T15:41:27Z</time></trkpt><trkpt lat="43.92620410367316" lon="11.60028638071013"><ele>347.6666666666667</ele><time>2026-05-03T15:41:28Z</time></trkpt><trkpt lat="43.926087818356166" lon="11.600114406313438"><ele>354.0</ele><time>2026-05-03T15:41:29Z</time></trkpt><trkpt lat="43.92593215672862" lon="11.59990462879007"><ele>340.0</ele><time>2026-05-03T15:41:30Z</time></trkpt><trkpt lat="43.92576343166809" lon="11.599649623489439"><ele>326.0</ele><time>2026-05-03T15:41:31Z</time></trkpt><trkpt lat="43.9255925673004" lon="11.599389353757742"><ele>326.0</ele><time>2026-05-03T15:41:32Z</time></trkpt><trkpt lat="43.92544033127472" lon="11.599156020138562"><ele>326.0</ele><time>2026-05-03T15:41:33Z</time></trkpt><trkpt lat="43.925316839438715" lon="11.59896821306072"><ele>326.0</ele><time>2026-05-03T15:41:34Z</time></trkpt><trkpt lat="43.925233358998724" lon="11.59874982028962"><ele>324.33333333333337</ele><time>2026-05-03T15:41:35Z</time></trkpt><trkpt lat="43.92514993109762" lon="11.598532282368856"><ele>322.6666666666667</ele><time>2026-05-03T15:41:36Z</time></trkpt><trkpt lat="43.92511827739632" lon="11.598329499119364"><ele>321.0</ele><time>2026-05-03T15:41:37Z</time></trkpt><trkpt lat="43.925142691179396" lon="11.598122552756715"><ele>321.0</ele><time>2026-05-03T15:41:38Z</time></trkpt><trkpt lat="43.92517547366307" lon="11.597884873354552"><ele>321.0</ele><time>2026-05-03T15:41:39Z</time></trkpt><trkpt lat="43.92527582452388" lon="11.59771730975268"><ele>321.0</ele><time>2026-05-03T15:41:40Z</time></trkpt><trkpt lat="43.92538735143538" lon="11.597589822061154"><ele>325.3333333333333</ele><time>2026-05-03T15:41:41Z</time></trkpt><trkpt lat="43.92553486373323" lon="11.59746615062001"><ele>329.66666666666663</ele><time>2026-05-03T15:41:42Z</time></trkpt><trkpt lat="43.9257145800739" lon="11.597299051368342"><ele>334.0</ele><time>2026-05-03T15:41:43Z</time></trkpt><trkpt lat="43.925909181486254" lon="11.597148145107457"><ele>326.66666666666663</ele><time>2026-05-03T15:41:44Z</time></trkpt><trkpt lat="43.92606126714721" lon="11.596979123063008"><ele>319.3333333333333</ele><time>2026-05-03T15:41:45Z</time></trkpt><trkpt lat="43.92618339375445" lon="11.596746551534531"><ele>312.0</ele><time>2026-05-03T15:41:46Z</time></trkpt><trkpt lat="43.926286530462804" lon="11.596466927519236"><ele>312.0</ele><time>2026-05-03T15:41:47Z</time></trkpt><trkpt lat="43.92636892927089" lon="11.596195475188907"><ele>312.0</ele><time>2026-05-03T15:41:48Z</time></trkpt><trkpt lat="43.92642323015563" lon="11.595933406249204"><ele>312.0</ele><time>2026-05-03T15:41:49Z</time></trkpt><trkpt lat="43.92643949656821" lon="11.595668539035078"><ele>311.6666666666667</ele><time>2026-05-03T15:41:50Z</time></trkpt><trkpt lat="43.92642001333843" lon="11.595438572220031"><ele>311.33333333333337</ele><time>2026-05-03T15:41:51Z</time></trkpt><trkpt lat="43.9263736284887" lon="11.595242487842128"><ele>311.0</ele><time>2026-05-03T15:41:52Z</time></trkpt><trkpt lat="43.926277966486005" lon="11.595076236990838"><ele>314.25</ele><time>2026-05-03T15:41:53Z</time></trkpt><trkpt lat="43.92615290565068" lon="11.594947623590809"><ele>317.5</ele><time>2026-05-03T15:41:54Z</time></trkpt><trkpt lat="43.9260956913894" lon="11.594793556888751"><ele>320.75</ele><time>2026-05-03T15:41:55Z</time></trkpt><trkpt lat="43.92612062795726" lon="11.594626464472737"><ele>324.0</ele><time>2026-05-03T15:41:56Z</time></trkpt><trkpt lat="43.9261328018827" lon="11.594386689885605"><ele>324.0</ele><time>2026-05-03T15:41:57Z</time></trkpt><trkpt lat="43.926174500296646" lon="11.594103510391431"><ele>324.0</ele><time>2026-05-03T15:41:58Z</time></trkpt><trkpt lat="43.92620572839658" lon="11.593769910778276"><ele>321.0</ele><time>2026-05-03T15:41:59Z</time></trkpt><trkpt lat="43.92623741791044" lon="11.59340196637476"><ele>318.0</ele><time>2026-05-03T15:42:00Z</time></trkpt><trkpt lat="43.92628470642352" lon="11.593007151217542"><ele>311.5</ele><time>2026-05-03T15:42:01Z</time></trkpt><trkpt lat="43.92633730598179" lon="11.592607785349859"><ele>305.0</ele><time>2026-05-03T15:42:02Z</time></trkpt><trkpt lat="43.92641824952706" lon="11.592276348211408"><ele>303.6666666666667</ele><time>2026-05-03T15:42:03Z</time></trkpt><trkpt lat="43.92646035649908" lon="11.591999958052126"><ele>302.3333333333333</ele><time>2026-05-03T15:42:04Z</time></trkpt><trkpt lat="43.92649323275696" lon="11.591774079201237"><ele>301.0</ele><time>2026-05-03T15:42:05Z</time></trkpt><trkpt lat="43.92646893348676" lon="11.591572964318907"><ele>301.0</ele><time>2026-05-03T15:42:06Z</time></trkpt><trkpt lat="43.926415536607585" lon="11.59136446445757"><ele>301.0</ele><time>2026-05-03T15:42:07Z</time></trkpt><trkpt lat="43.9264182510517" lon="11.59113734330081"><ele>301.0</ele><time>2026-05-03T15:42:08Z</time></trkpt><trkpt lat="43.926475684458445" lon="11.590929900882768"><ele>300.0</ele><time>2026-05-03T15:42:09Z</time></trkpt><trkpt lat="43.92657137575339" lon="11.590721380674996"><ele>299.0</ele><time>2026-05-03T15:42:10Z</time></trkpt><trkpt lat="43.92671427806966" lon="11.590550836752858"><ele>298.0</ele><time>2026-05-03T15:42:11Z</time></trkpt><trkpt lat="43.92681731766399" lon="11.590346994354089"><ele>307.3333333333333</ele><time>2026-05-03T15:42:12Z</time></trkpt><trkpt lat="43.92690542289472" lon="11.590132356549775"><ele>316.6666666666667</ele><time>2026-05-03T15:42:13Z</time></trkpt><trkpt lat="43.926947263486994" lon="11.589893912618557"><ele>326.0</ele><time>2026-05-03T15:42:14Z</time></trkpt><trkpt lat="43.926947187144165" lon="11.589621736056616"><ele>327.33333333333337</ele><time>2026-05-03T15:42:15Z</time></trkpt><trkpt lat="43.92693126816523" lon="11.589349575158353"><ele>328.6666666666667</ele><time>2026-05-03T15:42:16Z</time></trkpt><trkpt lat="43.92688621345276" lon="11.589093952043777"><ele>330.0</ele><time>2026-05-03T15:42:17Z</time></trkpt><trkpt lat="43.926796953040586" lon="11.58885401046296"><ele>319.3333333333333</ele><time>2026-05-03T15:42:18Z</time></trkpt><trkpt lat="43.926666365059745" lon="11.588660375943771"><ele>308.66666666666663</ele><time>2026-05-03T15:42:19Z</time></trkpt><trkpt lat="43.92650530203064" lon="11.588494059976707"><ele>298.0</ele><time>2026-05-03T15:42:20Z</time></trkpt><trkpt lat="43.92633397882166" lon="11.588336524853657"><ele>298.0</ele><time>2026-05-03T15:42:21Z</time></trkpt><trkpt lat="43.92621367309126" lon="11.588129369242656"><ele>298.0</ele><time>2026-05-03T15:42:22Z</time></trkpt><trkpt lat="43.92611046367627" lon="11.58788147230343"><ele>298.0</ele><time>2026-05-03T15:42:23Z</time></trkpt><trkpt lat="43.926039088909064" lon="11.58759930134995"><ele>297.5</ele><time>2026-05-03T15:42:24Z</time></trkpt><trkpt lat="43.9259858185209" lon="11.587306117339693"><ele>297.0</ele><time>2026-05-03T15:42:25Z</time></trkpt><trkpt lat="43.925939244389824" lon="11.586990592777891"><ele>296.5</ele><time>2026-05-03T15:42:26Z</time></trkpt><trkpt lat="43.92591104037564" lon="11.586643999709882"><ele>296.0</ele><time>2026-05-03T15:42:27Z</time></trkpt><trkpt lat="43.92588231634072" lon="11.586322964301806"><ele>300.33333333333337</ele><time>2026-05-03T15:42:28Z</time></trkpt><trkpt lat="43.92585939819799" lon="11.586050689088427"><ele>304.6666666666667</ele><time>2026-05-03T15:42:29Z</time></trkpt><trkpt lat="43.92586044275745" lon="11.585806820727797"><ele>309.0</ele><time>2026-05-03T15:42:30Z</time></trkpt><trkpt lat="43.925895855680565" lon="11.58558310154846"><ele>309.0</ele><time>2026-05-03T15:42:31Z</time></trkpt><trkpt lat="43.92596268534969" lon="11.58534788908927"><ele>309.0</ele><time>2026-05-03T15:42:32Z</time></trkpt><trkpt lat="43.92606202820043" lon="11.585110068202686"><ele>309.0</ele><time>2026-05-03T15:42:33Z</time></trkpt><trkpt lat="43.92619601946033" lon="11.584933741958228"><ele>304.6666666666667</ele><time>2026-05-03T15:42:34Z</time></trkpt><trkpt lat="43.92634903165248" lon="11.584756164619401"><ele>300.33333333333337</ele><time>2026-05-03T15:42:35Z</time></trkpt><trkpt lat="43.926526056474394" lon="11.584544035078109"><ele>296.0</ele><time>2026-05-03T15:42:36Z</time></trkpt><trkpt lat="43.926714298236774" lon="11.584299515033768"><ele>297.0</ele><time>2026-05-03T15:42:37Z</time></trkpt><trkpt lat="43.92690590817323" lon="11.584048053779975"><ele>298.0</ele><time>2026-05-03T15:42:38Z</time></trkpt><trkpt lat="43.92705473508349" lon="11.58381389713629"><ele>294.3333333333333</ele><time>2026-05-03T15:42:39Z</time></trkpt><trkpt lat="43.927182133895855" lon="11.583592582822426"><ele>290.6666666666667</ele><time>2026-05-03T15:42:40Z</time></trkpt><trkpt lat="43.92727120842391" lon="11.583365105394178"><ele>287.0</ele><time>2026-05-03T15:42:41Z</time></trkpt><trkpt lat="43.92731669028229" lon="11.583169777599712"><ele>287.0</ele><time>2026-05-03T15:42:42Z</time></trkpt><trkpt lat="43.92730102504835" lon="11.582990856508564"><ele>287.0</ele><time>2026-05-03T15:42:43Z</time></trkpt><trkpt lat="43.927224403961546" lon="11.582825153868237"><ele>287.0</ele><time>2026-05-03T15:42:44Z</time></trkpt><trkpt lat="43.92710480112267" lon="11.582667001478331"><ele>287.0</ele><time>2026-05-03T15:42:45Z</time></trkpt><trkpt lat="43.92695147731227" lon="11.582510129097402"><ele>291.0</ele><time>2026-05-03T15:42:46Z</time></trkpt><trkpt lat="43.9267783677155" lon="11.582290603197887"><ele>295.0</ele><time>2026-05-03T15:42:47Z</time></trkpt><trkpt lat="43.926614000145165" lon="11.581991900346582"><ele>282.0</ele><time>2026-05-03T15:42:48Z</time></trkpt><trkpt lat="43.92643078120587" lon="11.581671057647211"><ele>269.0</ele><time>2026-05-03T15:42:49Z</time></trkpt><trkpt lat="43.92630255315133" lon="11.581520024729057"><ele>269.0</ele><time>2026-05-03T15:42:50Z</time></trkpt><trkpt lat="43.926126024741926" lon="11.581264337724072"><ele>269.0</ele><time>2026-05-03T15:42:51Z</time></trkpt><trkpt lat="43.92600772430951" lon="11.580988776979524"><ele>268.33333333333337</ele><time>2026-05-03T15:42:52Z</time></trkpt><trkpt lat="43.9258828109536" lon="11.580735714090565"><ele>267.6666666666667</ele><time>2026-05-03T15:42:53Z</time></trkpt><trkpt lat="43.925776315931806" lon="11.580501997549304"><ele>267.0</ele><time>2026-05-03T15:42:54Z</time></trkpt><trkpt lat="43.92564093655758" lon="11.580329437912965"><ele>269.6666666666667</ele><time>2026-05-03T15:42:55Z</time></trkpt><trkpt lat="43.9254828626635" lon="11.58020247725798"><ele>272.33333333333337</ele><time>2026-05-03T15:42:56Z</time></trkpt><trkpt lat="43.92532624891368" lon="11.580109193581988"><ele>275.0</ele><time>2026-05-03T15:42:57Z</time></trkpt><trkpt lat="43.92524081562071" lon="11.579944728097633"><ele>275.0</ele><time>2026-05-03T15:42:58Z</time></trkpt><trkpt lat="43.92520186919149" lon="11.579750204109127"><ele>275.0</ele><time>2026-05-03T15:42:59Z</time></trkpt><trkpt lat="43.92517654687114" lon="11.579524930525228"><ele>275.0</ele><time>2026-05-03T15:43:00Z</time></trkpt><trkpt lat="43.92514598666799" lon="11.579289802648558"><ele>272.33333333333337</ele><time>2026-05-03T15:43:01Z</time></trkpt><trkpt lat="43.92510899670969" lon="11.579058772986329"><ele>269.6666666666667</ele><time>2026-05-03T15:43:02Z</time></trkpt><trkpt lat="43.925078147427406" lon="11.578850866585102"><ele>267.0</ele><time>2026-05-03T15:43:03Z</time></trkpt><trkpt lat="43.92504880264491" lon="11.578634211405715"><ele>267.0</ele><time>2026-05-03T15:43:04Z</time></trkpt><trkpt lat="43.92501928671603" lon="11.578411633926015"><ele>267.0</ele><time>2026-05-03T15:43:05Z</time></trkpt><trkpt lat="43.92499414290076" lon="11.578177164634855"><ele>267.0</ele><time>2026-05-03T15:43:06Z</time></trkpt><trkpt lat="43.924968454511244" lon="11.577950322763183"><ele>266.6666666666667</ele><time>2026-05-03T15:43:07Z</time></trkpt><trkpt lat="43.924937297721875" lon="11.57772356655487"><ele>266.33333333333337</ele><time>2026-05-03T15:43:08Z</time></trkpt><trkpt lat="43.92488996837779" lon="11.577525175913333"><ele>266.0</ele><time>2026-05-03T15:43:09Z</time></trkpt><trkpt lat="43.92481429205531" lon="11.577373134703395"><ele>266.0</ele><time>2026-05-03T15:43:10Z</time></trkpt><trkpt lat="43.924726572757415" lon="11.57725767561413"><ele>266.0</ele><time>2026-05-03T15:43:11Z</time></trkpt><trkpt lat="43.92464082456477" lon="11.577147852179763"><ele>266.0</ele><time>2026-05-03T15:43:12Z</time></trkpt><trkpt lat="43.92456321604568" lon="11.577035354950045"><ele>266.0</ele><time>2026-05-03T15:43:13Z</time></trkpt><trkpt lat="43.92448969062145" lon="11.576919644359899"><ele>266.2</ele><time>2026-05-03T15:43:14Z</time></trkpt><trkpt lat="43.92442094530614" lon="11.576805818171602"><ele>266.40000000000003</ele><time>2026-05-03T15:43:15Z</time></trkpt><trkpt lat="43.924357228237795" lon="11.57669366235045"><ele>266.6</ele><time>2026-05-03T15:43:16Z</time></trkpt><trkpt lat="43.92429324014322" lon="11.576585072552355"><ele>266.8</ele><time>2026-05-03T15:43:17Z</time></trkpt><trkpt lat="43.92423329408509" lon="11.57648287456004"><ele>267.0</ele><time>2026-05-03T15:43:18Z</time></trkpt><trkpt lat="43.92417730169194" lon="11.576389714344927"><ele>265.2</ele><time>2026-05-03T15:43:19Z</time></trkpt><trkpt lat="43.92412076340387" lon="11.576293844218682"><ele>263.4</ele><time>2026-05-03T15:43:20Z</time></trkpt><trkpt lat="43.924062381397874" lon="11.576202143166539"><ele>261.6</ele><time>2026-05-03T15:43:21Z</time></trkpt><trkpt lat="43.924001302643944" lon="11.576104030581472"><ele>259.8</ele><time>2026-05-03T15:43:22Z</time></trkpt><trkpt lat="43.92393973644394" lon="11.57600764787985"><ele>258.0</ele><time>2026-05-03T15:43:23Z</time></trkpt><trkpt lat="43.92387776986089" lon="11.575912555638364"><ele>258.0</ele><time>2026-05-03T15:43:24Z</time></trkpt><trkpt lat="43.923815996748765" lon="11.575817483334456"><ele>258.0</ele><time>2026-05-03T15:43:25Z</time></trkpt><trkpt lat="43.92375056259463" lon="11.575722680398913"><ele>258.0</ele><time>2026-05-03T15:43:26Z</time></trkpt><trkpt lat="43.9236789368996" lon="11.575636444215016"><ele>258.0</ele><time>2026-05-03T15:43:27Z</time></trkpt><trkpt lat="43.92360484019552" lon="11.57554453546253"><ele>258.0</ele><time>2026-05-03T15:43:28Z</time></trkpt><trkpt lat="43.923524356804414" lon="11.575437039422184"><ele>257.25</ele><time>2026-05-03T15:43:29Z</time></trkpt><trkpt lat="43.923438594446125" lon="11.575313123377638"><ele>256.5</ele><time>2026-05-03T15:43:30Z</time></trkpt><trkpt lat="43.92334738245341" lon="11.575181699629708"><ele>255.75</ele><time>2026-05-03T15:43:31Z</time></trkpt><trkpt lat="43.92324523875627" lon="11.575048487125759"><ele>255.0</ele><time>2026-05-03T15:43:32Z</time></trkpt><trkpt lat="43.92313800952037" lon="11.574913714801621"><ele>255.0</ele><time>2026-05-03T15:43:33Z</time></trkpt><trkpt lat="43.9230247175849" lon="11.574768118579987"><ele>255.0</ele><time>2026-05-03T15:43:34Z</time></trkpt><trkpt lat="43.92290918553831" lon="11.574620698137014"><ele>255.0</ele><time>2026-05-03T15:43:35Z</time></trkpt><trkpt lat="43.922785433754925" lon="11.574476587538776"><ele>255.0</ele><time>2026-05-03T15:43:36Z</time></trkpt><trkpt lat="43.92263829616002" lon="11.574339159103113"><ele>255.0</ele><time>2026-05-03T15:43:37Z</time></trkpt><trkpt lat="43.922465693785966" lon="11.574216311384468"><ele>255.0</ele><time>2026-05-03T15:43:38Z</time></trkpt><trkpt lat="43.922291297228966" lon="11.5741035082944"><ele>255.0</ele><time>2026-05-03T15:43:39Z</time></trkpt><trkpt lat="43.9221513984918" lon="11.573929937280774"><ele>255.0</ele><time>2026-05-03T15:43:40Z</time></trkpt><trkpt lat="43.92200710251166" lon="11.573744962933148"><ele>255.0</ele><time>2026-05-03T15:43:41Z</time></trkpt><trkpt lat="43.92186318043914" lon="11.573582114680818"><ele>253.0</ele><time>2026-05-03T15:43:42Z</time></trkpt><trkpt lat="43.92174258779733" lon="11.573415869396731"><ele>251.0</ele><time>2026-05-03T15:43:43Z</time></trkpt><trkpt lat="43.921634529652756" lon="11.573238047446463"><ele>249.0</ele><time>2026-05-03T15:43:44Z</time></trkpt><trkpt lat="43.92153995948056" lon="11.573037271126882"><ele>251.33333333333331</ele><time>2026-05-03T15:43:45Z</time></trkpt><trkpt lat="43.921489300792466" lon="11.572819831716446"><ele>253.66666666666666</ele><time>2026-05-03T15:43:46Z</time></trkpt><trkpt lat="43.92142357860952" lon="11.572606097485092"><ele>256.0</ele><time>2026-05-03T15:43:47Z</time></trkpt><trkpt lat="43.92136293653855" lon="11.572382042774517"><ele>256.0</ele><time>2026-05-03T15:43:48Z</time></trkpt><trkpt lat="43.92127666145859" lon="11.572154382306394"><ele>256.0</ele><time>2026-05-03T15:43:49Z</time></trkpt><trkpt lat="43.921184431334055" lon="11.571940883816163"><ele>256.0</ele><time>2026-05-03T15:43:50Z</time></trkpt><trkpt lat="43.92109838201309" lon="11.571752769329692"><ele>253.66666666666666</ele><time>2026-05-03T15:43:51Z</time></trkpt><trkpt lat="43.920999508410254" lon="11.571573586059554"><ele>251.33333333333331</ele><time>2026-05-03T15:43:52Z</time></trkpt><trkpt lat="43.920873500466634" lon="11.571394252499273"><ele>249.0</ele><time>2026-05-03T15:43:53Z</time></trkpt><trkpt lat="43.92071670881727" lon="11.571205421469548"><ele>252.0</ele><time>2026-05-03T15:43:54Z</time></trkpt><trkpt lat="43.92053213401914" lon="11.571002443187677"><ele>255.0</ele><time>2026-05-03T15:43:55Z</time></trkpt><trkpt lat="43.920372725857035" lon="11.57084314660967"><ele>258.0</ele><time>2026-05-03T15:43:56Z</time></trkpt><trkpt lat="43.92019724868002" lon="11.570718443217675"><ele>253.5</ele><time>2026-05-03T15:43:57Z</time></trkpt><trkpt lat="43.91998179956369" lon="11.570609717369514"><ele>249.0</ele><time>2026-05-03T15:43:58Z</time></trkpt><trkpt lat="43.919741687681025" lon="11.57052883133493"><ele>249.0</ele><time>2026-05-03T15:43:59Z</time></trkpt><trkpt lat="43.91952543837118" lon="11.570481327599524"><ele>249.0</ele><time>2026-05-03T15:44:00Z</time></trkpt><trkpt lat="43.919335605766356" lon="11.570473177069196"><ele>249.0</ele><time>2026-05-03T15:44:01Z</time></trkpt><trkpt lat="43.919169659085284" lon="11.570454903867367"><ele>248.33333333333331</ele><time>2026-05-03T15:44:02Z</time></trkpt><trkpt lat="43.91902233859981" lon="11.570389563171814"><ele>247.66666666666666</ele><time>2026-05-03T15:44:03Z</time></trkpt><trkpt lat="43.918891998228226" lon="11.570217668975069"><ele>247.0</ele><time>2026-05-03T15:44:04Z</time></trkpt><trkpt lat="43.91871206574233" lon="11.57002082347619"><ele>246.0</ele><time>2026-05-03T15:44:05Z</time></trkpt><trkpt lat="43.918520767259075" lon="11.56980090926182"><ele>245.0</ele><time>2026-05-03T15:44:06Z</time></trkpt><trkpt lat="43.918316163624844" lon="11.569590822778107"><ele>249.33333333333334</ele><time>2026-05-03T15:44:07Z</time></trkpt><trkpt lat="43.91813449909851" lon="11.569399692369956"><ele>253.66666666666669</ele><time>2026-05-03T15:44:08Z</time></trkpt><trkpt lat="43.91796900583514" lon="11.569221807289617"><ele>258.0</ele><time>2026-05-03T15:44:09Z</time></trkpt><trkpt lat="43.91780581601199" lon="11.569048024477365"><ele>258.0</ele><time>2026-05-03T15:44:10Z</time></trkpt><trkpt lat="43.917637997447216" lon="11.568870678872456"><ele>258.0</ele><time>2026-05-03T15:44:11Z</time></trkpt><trkpt lat="43.917476535649044" lon="11.568692299472715"><ele>258.0</ele><time>2026-05-03T15:44:12Z</time></trkpt><trkpt lat="43.91733084507898" lon="11.568501228165442"><ele>258.0</ele><time>2026-05-03T15:44:13Z</time></trkpt><trkpt lat="43.91721351731158" lon="11.56827885123822"><ele>258.0</ele><time>2026-05-03T15:44:14Z</time></trkpt><trkpt lat="43.91712958680223" lon="11.568030252717346"><ele>258.0</ele><time>2026-05-03T15:44:15Z</time></trkpt><trkpt lat="43.91706430728418" lon="11.567752283719244"><ele>256.5</ele><time>2026-05-03T15:44:16Z</time></trkpt><trkpt lat="43.91701172348622" lon="11.567447115452481"><ele>255.0</ele><time>2026-05-03T15:44:17Z</time></trkpt><trkpt lat="43.91695684001348" lon="11.567109402733797"><ele>249.0</ele><time>2026-05-03T15:44:18Z</time></trkpt><trkpt lat="43.9168859069872" lon="11.566770893851519"><ele>243.0</ele><time>2026-05-03T15:44:19Z</time></trkpt><trkpt lat="43.9168033395025" lon="11.566456016890156"><ele>244.5</ele><time>2026-05-03T15:44:20Z</time></trkpt><trkpt lat="43.91671382816845" lon="11.5661726422572"><ele>246.0</ele><time>2026-05-03T15:44:21Z</time></trkpt><trkpt lat="43.91659163742634" lon="11.565890914262603"><ele>246.0</ele><time>2026-05-03T15:44:22Z</time></trkpt><trkpt lat="43.916442918365746" lon="11.565607795768402"><ele>246.0</ele><time>2026-05-03T15:44:23Z</time></trkpt><trkpt lat="43.916309154136115" lon="11.565328960532623"><ele>252.0</ele><time>2026-05-03T15:44:24Z</time></trkpt><trkpt lat="43.91621521557692" lon="11.565028854319173"><ele>258.0</ele><time>2026-05-03T15:44:25Z</time></trkpt><trkpt lat="43.91611022592073" lon="11.564717067461746"><ele>263.0</ele><time>2026-05-03T15:44:26Z</time></trkpt><trkpt lat="43.915973432822454" lon="11.56439570955795"><ele>268.0</ele><time>2026-05-03T15:44:27Z</time></trkpt><trkpt lat="43.91584155641618" lon="11.564051507537544"><ele>263.0</ele><time>2026-05-03T15:44:28Z</time></trkpt><trkpt lat="43.91571137191174" lon="11.563740271566683"><ele>258.0</ele><time>2026-05-03T15:44:29Z</time></trkpt><trkpt lat="43.91560269004006" lon="11.563475793210177"><ele>258.0</ele><time>2026-05-03T15:44:30Z</time></trkpt><trkpt lat="43.91550527772864" lon="11.563235458112477"><ele>258.0</ele><time>2026-05-03T15:44:31Z</time></trkpt><trkpt lat="43.91540007118649" lon="11.563016528540883"><ele>258.0</ele><time>2026-05-03T15:44:32Z</time></trkpt><trkpt lat="43.91525123111439" lon="11.562838356541155"><ele>251.0</ele><time>2026-05-03T15:44:33Z</time></trkpt><trkpt lat="43.91506070995263" lon="11.562674456227333"><ele>244.0</ele><time>2026-05-03T15:44:34Z</time></trkpt><trkpt lat="43.914860792627685" lon="11.562487548747008"><ele>244.0</ele><time>2026-05-03T15:44:35Z</time></trkpt><trkpt lat="43.914674555488965" lon="11.562287502553575"><ele>244.0</ele><time>2026-05-03T15:44:36Z</time></trkpt><trkpt lat="43.9144969889254" lon="11.562108145849486"><ele>247.0</ele><time>2026-05-03T15:44:37Z</time></trkpt><trkpt lat="43.914306022280485" lon="11.561970293963695"><ele>250.0</ele><time>2026-05-03T15:44:38Z</time></trkpt><trkpt lat="43.914088846097854" lon="11.561893538778156"><ele>253.0</ele><time>2026-05-03T15:44:39Z</time></trkpt><trkpt lat="43.91384888163909" lon="11.561852581317178"><ele>253.0</ele><time>2026-05-03T15:44:40Z</time></trkpt><trkpt lat="43.913599094422004" lon="11.56178694723718"><ele>253.0</ele><time>2026-05-03T15:44:41Z</time></trkpt><trkpt lat="43.91335124317398" lon="11.561696351828227"><ele>250.0</ele><time>2026-05-03T15:44:42Z</time></trkpt><trkpt lat="43.913121945961265" lon="11.561613840782679"><ele>247.0</ele><time>2026-05-03T15:44:43Z</time></trkpt><trkpt lat="43.912927618788665" lon="11.561540235953355"><ele>244.0</ele><time>2026-05-03T15:44:44Z</time></trkpt><trkpt lat="43.912753825520475" lon="11.56147647713345"><ele>244.0</ele><time>2026-05-03T15:44:45Z</time></trkpt><trkpt lat="43.91258857915024" lon="11.561443729939098"><ele>244.0</ele><time>2026-05-03T15:44:46Z</time></trkpt><trkpt lat="43.912407991630026" lon="11.561477835128638"><ele>244.0</ele><time>2026-05-03T15:44:47Z</time></trkpt><trkpt lat="43.912210409668965" lon="11.56155823032677"><ele>241.66666666666666</ele><time>2026-05-03T15:44:48Z</time></trkpt><trkpt lat="43.91202313527343" lon="11.561612945005354"><ele>239.33333333333331</ele><time>2026-05-03T15:44:49Z</time></trkpt><trkpt lat="43.91185225008697" lon="11.5615716873108"><ele>237.0</ele><time>2026-05-03T15:44:50Z</time></trkpt><trkpt lat="43.911695709663384" lon="11.561482984872606"><ele>235.33333333333331</ele><time>2026-05-03T15:44:51Z</time></trkpt><trkpt lat="43.9115544294611" lon="11.561366995777876"><ele>233.66666666666666</ele><time>2026-05-03T15:44:52Z</time></trkpt><trkpt lat="43.91142468013017" lon="11.561182729852641"><ele>232.0</ele><time>2026-05-03T15:44:53Z</time></trkpt><trkpt lat="43.91130891456162" lon="11.560947412909297"><ele>237.33333333333331</ele><time>2026-05-03T15:44:54Z</time></trkpt><trkpt lat="43.911215848966876" lon="11.560704700151796"><ele>242.66666666666669</ele><time>2026-05-03T15:44:55Z</time></trkpt><trkpt lat="43.91114133357886" lon="11.56050194195729"><ele>248.0</ele><time>2026-05-03T15:44:56Z</time></trkpt><trkpt lat="43.91108562618556" lon="11.560361678963245"><ele>245.16666666666669</ele><time>2026-05-03T15:44:57Z</time></trkpt><trkpt lat="43.91105051130837" lon="11.560260815667798"><ele>242.33333333333334</ele><time>2026-05-03T15:44:58Z</time></trkpt><trkpt lat="43.911049961317794" lon="11.560167088232403"><ele>239.5</ele><time>2026-05-03T15:45:08Z</time></trkpt><trkpt lat="43.91101496956101" lon="11.56007908204964"><ele>236.66666666666669</ele><time>2026-05-03T15:45:51Z</time></trkpt><trkpt lat="43.91098254947681" lon="11.55996413587401"><ele>233.83333333333334</ele><time>2026-05-03T15:45:53Z</time></trkpt><trkpt lat="43.91093417666125" lon="11.55979158148223"><ele>231.0</ele><time>2026-05-03T15:45:55Z</time></trkpt><trkpt lat="43.91089122498546" lon="11.559691543545117"><ele>231.0</ele><time>2026-05-03T15:45:56Z</time></trkpt><trkpt lat="43.91086453850538" lon="11.5595917128046"><ele>231.00000000000003</ele><time>2026-05-03T15:45:57Z</time></trkpt><trkpt lat="43.910841200667505" lon="11.55949892134863"><ele>231.00000000000003</ele><time>2026-05-03T15:45:58Z</time></trkpt><trkpt lat="43.91080450620785" lon="11.559339255722556"><ele>231.0</ele><time>2026-05-03T15:46:00Z</time></trkpt><trkpt lat="43.91077328384725" lon="11.559219150857768"><ele>231.0</ele><time>2026-05-03T15:46:02Z</time></trkpt><trkpt lat="43.91069616089694" lon="11.559088599297194"><ele>232.25</ele><time>2026-05-03T15:46:24Z</time></trkpt><trkpt lat="43.91063062547029" lon="11.558966222755279"><ele>233.5</ele><time>2026-05-03T15:46:25Z</time></trkpt><trkpt lat="43.910549470941866" lon="11.558793188080088"><ele>234.75</ele><time>2026-05-03T15:46:26Z</time></trkpt><trkpt lat="43.91045400226335" lon="11.558602782358905"><ele>236.0</ele><time>2026-05-03T15:46:27Z</time></trkpt><trkpt lat="43.910334738736736" lon="11.558400773769511"><ele>231.66666666666669</ele><time>2026-05-03T15:46:28Z</time></trkpt><trkpt lat="43.91018084765662" lon="11.558200491571931"><ele>227.33333333333331</ele><time>2026-05-03T15:46:29Z</time></trkpt><trkpt lat="43.91001432705023" lon="11.558026031324003"><ele>223.0</ele><time>2026-05-03T15:46:30Z</time></trkpt><trkpt lat="43.90983948163879" lon="11.557886995862852"><ele>229.66666666666666</ele><time>2026-05-03T15:46:31Z</time></trkpt><trkpt lat="43.90964647331071" lon="11.55778853910028"><ele>236.33333333333331</ele><time>2026-05-03T15:46:32Z</time></trkpt><trkpt lat="43.90948299131581" lon="11.557740855565692"><ele>243.0</ele><time>2026-05-03T15:46:33Z</time></trkpt><trkpt lat="43.90933448259614" lon="11.557753091696005"><ele>237.66666666666669</ele><time>2026-05-03T15:46:34Z</time></trkpt><trkpt lat="43.909175715443205" lon="11.557796226232467"><ele>232.33333333333334</ele><time>2026-05-03T15:46:35Z</time></trkpt><trkpt lat="43.90902639832133" lon="11.557869116522696"><ele>227.0</ele><time>2026-05-03T15:46:36Z</time></trkpt><trkpt lat="43.90887795485107" lon="11.557885745991044"><ele>227.0</ele><time>2026-05-03T15:46:37Z</time></trkpt><trkpt lat="43.908740756533305" lon="11.557842917585093"><ele>227.0</ele><time>2026-05-03T15:46:38Z</time></trkpt><trkpt lat="43.90862368407428" lon="11.557711492969757"><ele>227.0</ele><time>2026-05-03T15:46:39Z</time></trkpt><trkpt lat="43.908539812449675" lon="11.557540397362285"><ele>227.0</ele><time>2026-05-03T15:46:40Z</time></trkpt><trkpt lat="43.90842931396853" lon="11.557329114872797"><ele>225.33333333333334</ele><time>2026-05-03T15:46:41Z</time></trkpt><trkpt lat="43.908304938146905" lon="11.557091050814012"><ele>223.66666666666669</ele><time>2026-05-03T15:46:42Z</time></trkpt><trkpt lat="43.908197483029525" lon="11.556888207796328"><ele>222.0</ele><time>2026-05-03T15:46:43Z</time></trkpt><trkpt lat="43.90812658084506" lon="11.556704377016894"><ele>222.0</ele><time>2026-05-03T15:46:44Z</time></trkpt><trkpt lat="43.90806000330474" lon="11.556542608728016"><ele>222.0</ele><time>2026-05-03T15:46:45Z</time></trkpt><trkpt lat="43.907968316551" lon="11.556447417053374"><ele>222.0</ele><time>2026-05-03T15:46:46Z</time></trkpt><trkpt lat="43.907847615115095" lon="11.556419429150312"><ele>222.0</ele><time>2026-05-03T15:46:47Z</time></trkpt><trkpt lat="43.907699431335665" lon="11.556454608738271"><ele>219.66666666666669</ele><time>2026-05-03T15:46:48Z</time></trkpt><trkpt lat="43.90754958051698" lon="11.556527307237591"><ele>217.33333333333334</ele><time>2026-05-03T15:46:49Z</time></trkpt><trkpt lat="43.90738598687463" lon="11.55650864024053"><ele>215.0</ele><time>2026-05-03T15:46:50Z</time></trkpt><trkpt lat="43.90724885630036" lon="11.556435364538988"><ele>215.0</ele><time>2026-05-03T15:46:51Z</time></trkpt><trkpt lat="43.907106311920025" lon="11.556311915736075"><ele>215.0</ele><time>2026-05-03T15:46:52Z</time></trkpt><trkpt lat="43.90696881802397" lon="11.55612336119406"><ele>215.0</ele><time>2026-05-03T15:46:53Z</time></trkpt><trkpt lat="43.90679957681913" lon="11.555892709386592"><ele>214.5</ele><time>2026-05-03T15:46:54Z</time></trkpt><trkpt lat="43.90660485477229" lon="11.555652373139692"><ele>214.0</ele><time>2026-05-03T15:46:55Z</time></trkpt><trkpt lat="43.90641231786203" lon="11.555379479842301"><ele>212.5</ele><time>2026-05-03T15:46:56Z</time></trkpt><trkpt lat="43.90623532624368" lon="11.555133599349288"><ele>211.0</ele><time>2026-05-03T15:46:57Z</time></trkpt><trkpt lat="43.90606002912312" lon="11.554897811663855"><ele>210.33333333333331</ele><time>2026-05-03T15:46:58Z</time></trkpt><trkpt lat="43.90588430213553" lon="11.554663479121015"><ele>209.66666666666669</ele><time>2026-05-03T15:46:59Z</time></trkpt><trkpt lat="43.9057428103742" lon="11.554462654469194"><ele>209.0</ele><time>2026-05-03T15:47:00Z</time></trkpt><trkpt lat="43.90563690449901" lon="11.554318758051513"><ele>209.0</ele><time>2026-05-03T15:47:01Z</time></trkpt><trkpt lat="43.90552029505541" lon="11.554168573244795"><ele>209.0</ele><time>2026-05-03T15:47:02Z</time></trkpt><trkpt lat="43.90535639678496" lon="11.554025120166084"><ele>209.0</ele><time>2026-05-03T15:47:03Z</time></trkpt><trkpt lat="43.90517005482529" lon="11.553858493187334"><ele>209.0</ele><time>2026-05-03T15:47:04Z</time></trkpt><trkpt lat="43.90498189917239" lon="11.553729830439229"><ele>209.0</ele><time>2026-05-03T15:47:05Z</time></trkpt><trkpt lat="43.90481547923741" lon="11.55363898179819"><ele>209.0</ele><time>2026-05-03T15:47:06Z</time></trkpt><trkpt lat="43.90461204225571" lon="11.553600877908792"><ele>209.0</ele><time>2026-05-03T15:47:07Z</time></trkpt><trkpt lat="43.90436897148207" lon="11.553589321266603"><ele>209.0</ele><time>2026-05-03T15:47:08Z</time></trkpt><trkpt lat="43.90410730731204" lon="11.553560499112109"><ele>208.5</ele><time>2026-05-03T15:47:09Z</time></trkpt><trkpt lat="43.903824888593796" lon="11.553512975458231"><ele>208.0</ele><time>2026-05-03T15:47:10Z</time></trkpt><trkpt lat="43.9035443023311" lon="11.553461505515495"><ele>206.5</ele><time>2026-05-03T15:47:11Z</time></trkpt><trkpt lat="43.903291654278455" lon="11.553412694586246"><ele>205.0</ele><time>2026-05-03T15:47:12Z</time></trkpt><trkpt lat="43.90306045386126" lon="11.553372947983119"><ele>205.0</ele><time>2026-05-03T15:47:13Z</time></trkpt><trkpt lat="43.90285723743009" lon="11.55333836499998"><ele>205.0</ele><time>2026-05-03T15:47:14Z</time></trkpt><trkpt lat="43.90266792638103" lon="11.55330334243974"><ele>205.0</ele><time>2026-05-03T15:47:15Z</time></trkpt><trkpt lat="43.90249011332452" lon="11.553227189228181"><ele>206.33333333333331</ele><time>2026-05-03T15:47:16Z</time></trkpt><trkpt lat="43.9023195040759" lon="11.55306318247074"><ele>207.66666666666669</ele><time>2026-05-03T15:47:17Z</time></trkpt><trkpt lat="43.902110406850795" lon="11.552896852564125"><ele>209.0</ele><time>2026-05-03T15:47:18Z</time></trkpt><trkpt lat="43.901898061224514" lon="11.552716063196057"><ele>207.0</ele><time>2026-05-03T15:47:19Z</time></trkpt><trkpt lat="43.90170402382328" lon="11.552572176262919"><ele>205.0</ele><time>2026-05-03T15:47:20Z</time></trkpt><trkpt lat="43.90153315573504" lon="11.552442406359567"><ele>203.0</ele><time>2026-05-03T15:47:21Z</time></trkpt><trkpt lat="43.90138278074156" lon="11.552312749513359"><ele>203.0</ele><time>2026-05-03T15:47:22Z</time></trkpt><trkpt lat="43.90125792482711" lon="11.552145988578035"><ele>203.0</ele><time>2026-05-03T15:47:23Z</time></trkpt><trkpt lat="43.90112337683164" lon="11.551983597551109"><ele>203.0</ele><time>2026-05-03T15:47:24Z</time></trkpt><trkpt lat="43.900980829133665" lon="11.55178739398134"><ele>201.5</ele><time>2026-05-03T15:47:25Z</time></trkpt><trkpt lat="43.90082418549099" lon="11.551552134300552"><ele>200.0</ele><time>2026-05-03T15:47:26Z</time></trkpt><trkpt lat="43.9006627245655" lon="11.55132477440378"><ele>198.33333333333334</ele><time>2026-05-03T15:47:27Z</time></trkpt><trkpt lat="43.900555564871894" lon="11.551079602345624"><ele>196.66666666666669</ele><time>2026-05-03T15:47:28Z</time></trkpt><trkpt lat="43.90048070808027" lon="11.550812837601638"><ele>195.0</ele><time>2026-05-03T15:47:29Z</time></trkpt><trkpt lat="43.90038260177385" lon="11.550522857632915"><ele>195.66666666666669</ele><time>2026-05-03T15:47:30Z</time></trkpt><trkpt lat="43.90029867064264" lon="11.55023607922377"><ele>196.33333333333334</ele><time>2026-05-03T15:47:31Z</time></trkpt><trkpt lat="43.90019958402021" lon="11.54999225760635"><ele>197.0</ele><time>2026-05-03T15:47:32Z</time></trkpt><trkpt lat="43.90007222115727" lon="11.549783209403435"><ele>197.0</ele><time>2026-05-03T15:47:33Z</time></trkpt><trkpt lat="43.89990839923012" lon="11.549587161477469"><ele>197.0</ele><time>2026-05-03T15:47:34Z</time></trkpt><trkpt lat="43.89973571731049" lon="11.549391469791443"><ele>197.0</ele><time>2026-05-03T15:47:35Z</time></trkpt><trkpt lat="43.89957976664802" lon="11.54920339919037"><ele>195.66666666666669</ele><time>2026-05-03T15:47:36Z</time></trkpt><trkpt lat="43.899444705636256" lon="11.549024347896582"><ele>194.33333333333331</ele><time>2026-05-03T15:47:37Z</time></trkpt><trkpt lat="43.89932578953945" lon="11.548863255877466"><ele>193.0</ele><time>2026-05-03T15:47:38Z</time></trkpt><trkpt lat="43.89920355965524" lon="11.548708048762071"><ele>199.0</ele><time>2026-05-03T15:47:39Z</time></trkpt><trkpt lat="43.899070485405396" lon="11.548527906360414"><ele>205.0</ele><time>2026-05-03T15:47:40Z</time></trkpt><trkpt lat="43.898926384894665" lon="11.548346435982333"><ele>211.0</ele><time>2026-05-03T15:47:41Z</time></trkpt><trkpt lat="43.89867943149634" lon="11.548304327573337"><ele>211.0</ele><time>2026-05-03T15:47:42Z</time></trkpt><trkpt lat="43.89844271809896" lon="11.548242531427944"><ele>211.0</ele><time>2026-05-03T15:47:43Z</time></trkpt><trkpt lat="43.89821050933894" lon="11.548206611832983"><ele>209.66666666666666</ele><time>2026-05-03T15:47:44Z</time></trkpt><trkpt lat="43.89803665333207" lon="11.548172014934515"><ele>208.33333333333331</ele><time>2026-05-03T15:47:45Z</time></trkpt><trkpt lat="43.89789386838099" lon="11.548105313236436"><ele>207.0</ele><time>2026-05-03T15:47:46Z</time></trkpt><trkpt lat="43.89775369794855" lon="11.547999427168278"><ele>203.33333333333331</ele><time>2026-05-03T15:47:47Z</time></trkpt><trkpt lat="43.897636580270905" lon="11.5478367276122"><ele>199.66666666666666</ele><time>2026-05-03T15:47:48Z</time></trkpt><trkpt lat="43.89753878545095" lon="11.547636776740983"><ele>196.0</ele><time>2026-05-03T15:47:49Z</time></trkpt><trkpt lat="43.897458835792065" lon="11.547386191518736"><ele>196.0</ele><time>2026-05-03T15:47:50Z</time></trkpt><trkpt lat="43.89737611262481" lon="11.547093909405389"><ele>196.0</ele><time>2026-05-03T15:47:51Z</time></trkpt><trkpt lat="43.89727299350138" lon="11.5468127357885"><ele>198.66666666666666</ele><time>2026-05-03T15:47:52Z</time></trkpt><trkpt lat="43.89717721269996" lon="11.546534479235156"><ele>201.33333333333331</ele><time>2026-05-03T15:47:53Z</time></trkpt><trkpt lat="43.89708322405227" lon="11.546251295628728"><ele>204.0</ele><time>2026-05-03T15:47:54Z</time></trkpt><trkpt lat="43.896981935728704" lon="11.54593735655504"><ele>207.0</ele><time>2026-05-03T15:47:55Z</time></trkpt><trkpt lat="43.89690660930687" lon="11.545623472210126"><ele>210.0</ele><time>2026-05-03T15:47:56Z</time></trkpt><trkpt lat="43.896825460876144" lon="11.54536565077092"><ele>213.0</ele><time>2026-05-03T15:47:57Z</time></trkpt><trkpt lat="43.896749708279046" lon="11.545125273936906"><ele>211.66666666666669</ele><time>2026-05-03T15:47:58Z</time></trkpt><trkpt lat="43.8966662644989" lon="11.544882221639673"><ele>210.33333333333334</ele><time>2026-05-03T15:47:59Z</time></trkpt><trkpt lat="43.89656381984563" lon="11.544645737221787"><ele>209.0</ele><time>2026-05-03T15:48:00Z</time></trkpt><trkpt lat="43.89644721232829" lon="11.544405909518943"><ele>209.0</ele><time>2026-05-03T15:48:01Z</time></trkpt><trkpt lat="43.89638813316508" lon="11.544283567783214"><ele>209.0</ele><time>2026-05-03T15:48:02Z</time></trkpt><trkpt lat="43.89621110148517" lon="11.544177030299515"><ele>209.0</ele><time>2026-05-03T15:48:03Z</time></trkpt><trkpt lat="43.89601118641017" lon="11.544093118280768"><ele>204.0</ele><time>2026-05-03T15:48:04Z</time></trkpt><trkpt lat="43.89582192811186" lon="11.544017988113408"><ele>199.0</ele><time>2026-05-03T15:48:05Z</time></trkpt><trkpt lat="43.8956587436243" lon="11.54392590343693"><ele>194.0</ele><time>2026-05-03T15:48:06Z</time></trkpt><trkpt lat="43.89551103696761" lon="11.543785072483917"><ele>198.33333333333334</ele><time>2026-05-03T15:48:07Z</time></trkpt><trkpt lat="43.895366373715426" lon="11.543598984856203"><ele>202.66666666666669</ele><time>2026-05-03T15:48:08Z</time></trkpt><trkpt lat="43.895256608969184" lon="11.543385589269379"><ele>207.0</ele><time>2026-05-03T15:48:09Z</time></trkpt><trkpt lat="43.895172870249475" lon="11.54315248983787"><ele>207.0</ele><time>2026-05-03T15:48:10Z</time></trkpt><trkpt lat="43.8950958506944" lon="11.542907794007993"><ele>207.0</ele><time>2026-05-03T15:48:11Z</time></trkpt><trkpt lat="43.895005028498666" lon="11.542640626662116"><ele>207.0</ele><time>2026-05-03T15:48:12Z</time></trkpt><trkpt lat="43.89492689771576" lon="11.542399123212201"><ele>202.33333333333331</ele><time>2026-05-03T15:48:13Z</time></trkpt><trkpt lat="43.89487065627582" lon="11.542154788842309"><ele>197.66666666666666</ele><time>2026-05-03T15:48:14Z</time></trkpt><trkpt lat="43.89484379215747" lon="11.541883629613052"><ele>193.0</ele><time>2026-05-03T15:48:15Z</time></trkpt><trkpt lat="43.894807835877856" lon="11.54161459709542"><ele>193.0</ele><time>2026-05-03T15:48:16Z</time></trkpt><trkpt lat="43.894768359360185" lon="11.541247872903952"><ele>193.0</ele><time>2026-05-03T15:48:17Z</time></trkpt><trkpt lat="43.8947266784085" lon="11.54084719509967"><ele>194.5</ele><time>2026-05-03T15:48:18Z</time></trkpt><trkpt lat="43.89471083438949" lon="11.54048662681332"><ele>196.0</ele><time>2026-05-03T15:48:19Z</time></trkpt><trkpt lat="43.89468158510274" lon="11.540126827068407"><ele>196.5</ele><time>2026-05-03T15:48:20Z</time></trkpt><trkpt lat="43.89464336380715" lon="11.539790534237381"><ele>197.0</ele><time>2026-05-03T15:48:21Z</time></trkpt><trkpt lat="43.89459583019113" lon="11.539470951576437"><ele>196.66666666666669</ele><time>2026-05-03T15:48:22Z</time></trkpt><trkpt lat="43.894539984601664" lon="11.539182242047369"><ele>196.33333333333331</ele><time>2026-05-03T15:48:23Z</time></trkpt><trkpt lat="43.89447981095411" lon="11.53891496959913"><ele>196.0</ele><time>2026-05-03T15:48:24Z</time></trkpt><trkpt lat="43.89441786759279" lon="11.538661490337292"><ele>196.0</ele><time>2026-05-03T15:48:25Z</time></trkpt><trkpt lat="43.89436193092559" lon="11.538413026426879"><ele>196.0</ele><time>2026-05-03T15:48:26Z</time></trkpt><trkpt lat="43.89431174552527" lon="11.538163373975319"><ele>196.0</ele><time>2026-05-03T15:48:27Z</time></trkpt><trkpt lat="43.89426614336627" lon="11.53792681748987"><ele>190.33333333333331</ele><time>2026-05-03T15:48:28Z</time></trkpt><trkpt lat="43.89422303082184" lon="11.537696906966282"><ele>184.66666666666666</ele><time>2026-05-03T15:48:29Z</time></trkpt><trkpt lat="43.89417326447282" lon="11.537471570807957"><ele>179.0</ele><time>2026-05-03T15:48:30Z</time></trkpt><trkpt lat="43.894122629719284" lon="11.537268446792172"><ele>179.0</ele><time>2026-05-03T15:48:31Z</time></trkpt><trkpt lat="43.89408045475627" lon="11.537064426730682"><ele>179.0</ele><time>2026-05-03T15:48:32Z</time></trkpt><trkpt lat="43.89403784461123" lon="11.536868511299827"><ele>179.0</ele><time>2026-05-03T15:48:33Z</time></trkpt><trkpt lat="43.893987142931834" lon="11.53668505415935"><ele>179.0</ele><time>2026-05-03T15:48:34Z</time></trkpt><trkpt lat="43.893908039280916" lon="11.536537440043496"><ele>179.33333333333331</ele><time>2026-05-03T15:48:35Z</time></trkpt><trkpt lat="43.89378203841995" lon="11.536427917400685"><ele>179.66666666666666</ele><time>2026-05-03T15:48:36Z</time></trkpt><trkpt lat="43.893609976337004" lon="11.536355813740306"><ele>180.0</ele><time>2026-05-03T15:48:37Z</time></trkpt><trkpt lat="43.893460821362325" lon="11.536268299589175"><ele>178.75</ele><time>2026-05-03T15:48:38Z</time></trkpt><trkpt lat="43.8933346990635" lon="11.53616019069152"><ele>177.5</ele><time>2026-05-03T15:48:39Z</time></trkpt><trkpt lat="43.89323745999092" lon="11.536028007485747"><ele>176.25</ele><time>2026-05-03T15:48:40Z</time></trkpt><trkpt lat="43.89316916036539" lon="11.535872431614838"><ele>175.0</ele><time>2026-05-03T15:48:41Z</time></trkpt><trkpt lat="43.89311576997195" lon="11.535689189268215"><ele>175.0</ele><time>2026-05-03T15:48:42Z</time></trkpt><trkpt lat="43.89306022501641" lon="11.535518600893097"><ele>175.0</ele><time>2026-05-03T15:48:43Z</time></trkpt><trkpt lat="43.8930098818879" lon="11.53537992235959"><ele>175.0</ele><time>2026-05-03T15:48:44Z</time></trkpt><trkpt lat="43.892957438721226" lon="11.53524526588741"><ele>175.0</ele><time>2026-05-03T15:48:45Z</time></trkpt><trkpt lat="43.89290578145533" lon="11.535092196352426"><ele>176.5</ele><time>2026-05-03T15:48:46Z</time></trkpt><trkpt lat="43.89286397680067" lon="11.534920874774095"><ele>178.0</ele><time>2026-05-03T15:48:47Z</time></trkpt><trkpt lat="43.8928406040628" lon="11.534728376650719"><ele>179.5</ele><time>2026-05-03T15:48:48Z</time></trkpt><trkpt lat="43.89283557170521" lon="11.534514366935992"><ele>181.0</ele><time>2026-05-03T15:48:49Z</time></trkpt><trkpt lat="43.89282831980981" lon="11.53428839517292"><ele>183.0</ele><time>2026-05-03T15:48:50Z</time></trkpt><trkpt lat="43.89281542716563" lon="11.534052171398066"><ele>185.0</ele><time>2026-05-03T15:48:51Z</time></trkpt><trkpt lat="43.89280222413162" lon="11.53382130645621"><ele>187.0</ele><time>2026-05-03T15:48:52Z</time></trkpt><trkpt lat="43.89278357101085" lon="11.53360624136884"><ele>187.66666666666669</ele><time>2026-05-03T15:48:53Z</time></trkpt><trkpt lat="43.89274559983591" lon="11.533402444767066"><ele>188.33333333333334</ele><time>2026-05-03T15:48:54Z</time></trkpt><trkpt lat="43.89268344194217" lon="11.533211084027382"><ele>189.0</ele><time>2026-05-03T15:48:55Z</time></trkpt><trkpt lat="43.89260419844775" lon="11.533031112671079"><ele>184.0</ele><time>2026-05-03T15:48:56Z</time></trkpt><trkpt lat="43.89252369204893" lon="11.532856350063582"><ele>179.0</ele><time>2026-05-03T15:48:57Z</time></trkpt><trkpt lat="43.89245226992903" lon="11.532677080747423"><ele>174.0</ele><time>2026-05-03T15:48:58Z</time></trkpt><trkpt lat="43.8923783052601" lon="11.53250184413172"><ele>169.0</ele><time>2026-05-03T15:48:59Z</time></trkpt><trkpt lat="43.89230775954533" lon="11.532317216819866"><ele>169.0</ele><time>2026-05-03T15:49:00Z</time></trkpt><trkpt lat="43.89225628956451" lon="11.532140419268577"><ele>169.0</ele><time>2026-05-03T15:49:01Z</time></trkpt><trkpt lat="43.89225856145089" lon="11.531947355805762"><ele>169.0</ele><time>2026-05-03T15:49:02Z</time></trkpt><trkpt lat="43.892281673621625" lon="11.531726228005327"><ele>169.0</ele><time>2026-05-03T15:49:03Z</time></trkpt><trkpt lat="43.89230131994367" lon="11.531496671479456"><ele>169.0</ele><time>2026-05-03T15:49:04Z</time></trkpt><trkpt lat="43.89232865759965" lon="11.531309026873979"><ele>169.0</ele><time>2026-05-03T15:49:05Z</time></trkpt><trkpt lat="43.892342827693646" lon="11.531150746743332"><ele>169.0</ele><time>2026-05-03T15:49:06Z</time></trkpt><trkpt lat="43.892354904102156" lon="11.531001790225973"><ele>169.0</ele><time>2026-05-03T15:49:07Z</time></trkpt><trkpt lat="43.892366222142186" lon="11.530841873063864"><ele>169.0</ele><time>2026-05-03T15:49:08Z</time></trkpt><trkpt lat="43.89237135587196" lon="11.530671011632359"><ele>169.0</ele><time>2026-05-03T15:49:09Z</time></trkpt><trkpt lat="43.89237637821032" lon="11.530497425370278"><ele>169.0</ele><time>2026-05-03T15:49:10Z</time></trkpt><trkpt lat="43.89237634707861" lon="11.530302343591885"><ele>169.0</ele><time>2026-05-03T15:49:11Z</time></trkpt><trkpt lat="43.89237880348324" lon="11.530086079558243"><ele>169.33333333333334</ele><time>2026-05-03T15:49:12Z</time></trkpt><trkpt lat="43.892382032233364" lon="11.529853375827173"><ele>169.66666666666666</ele><time>2026-05-03T15:49:13Z</time></trkpt><trkpt lat="43.89238551581452" lon="11.529637401639667"><ele>170.0</ele><time>2026-05-03T15:49:14Z</time></trkpt><trkpt lat="43.89238493385027" lon="11.529434412600443"><ele>170.25</ele><time>2026-05-03T15:49:15Z</time></trkpt><trkpt lat="43.89238009035269" lon="11.529229301708396"><ele>170.5</ele><time>2026-05-03T15:49:16Z</time></trkpt><trkpt lat="43.892372971953684" lon="11.529028936035118"><ele>170.75</ele><time>2026-05-03T15:49:17Z</time></trkpt><trkpt lat="43.89236032663623" lon="11.528847650437706"><ele>171.0</ele><time>2026-05-03T15:49:18Z</time></trkpt><trkpt lat="43.89234844117143" lon="11.528687071869497"><ele>171.75</ele><time>2026-05-03T15:49:19Z</time></trkpt><trkpt lat="43.89234364830709" lon="11.528529308408592"><ele>172.5</ele><time>2026-05-03T15:49:20Z</time></trkpt><trkpt lat="43.89232859057045" lon="11.528362588605306"><ele>173.25</ele><time>2026-05-03T15:49:21Z</time></trkpt><trkpt lat="43.892306120638665" lon="11.528188218338338"><ele>174.0</ele><time>2026-05-03T15:49:22Z</time></trkpt><trkpt lat="43.892276081591135" lon="11.528011264130022"><ele>175.0</ele><time>2026-05-03T15:49:23Z</time></trkpt><trkpt lat="43.892244318715136" lon="11.527831608606627"><ele>176.0</ele><time>2026-05-03T15:49:24Z</time></trkpt><trkpt lat="43.892207136990315" lon="11.527654572573907"><ele>177.0</ele><time>2026-05-03T15:49:25Z</time></trkpt><trkpt lat="43.89217174949968" lon="11.527480016101112"><ele>178.0</ele><time>2026-05-03T15:49:26Z</time></trkpt><trkpt lat="43.892131629404" lon="11.527315325161839"><ele>178.0</ele><time>2026-05-03T15:49:27Z</time></trkpt><trkpt lat="43.892090414301485" lon="11.527153807531052"><ele>178.0</ele><time>2026-05-03T15:49:28Z</time></trkpt><trkpt lat="43.892056242882106" lon="11.52700573735237"><ele>178.0</ele><time>2026-05-03T15:49:29Z</time></trkpt><trkpt lat="43.89203253938824" lon="11.526871170285863"><ele>178.0</ele><time>2026-05-03T15:49:30Z</time></trkpt><trkpt lat="43.89200813952991" lon="11.526740414896777"><ele>178.0</ele><time>2026-05-03T15:49:31Z</time></trkpt><trkpt lat="43.89199342295821" lon="11.526611568730468"><ele>178.2</ele><time>2026-05-03T15:49:32Z</time></trkpt><trkpt lat="43.89197982739844" lon="11.52646294540427"><ele>178.4</ele><time>2026-05-03T15:49:33Z</time></trkpt><trkpt lat="43.89196724064315" lon="11.526311790270423"><ele>178.6</ele><time>2026-05-03T15:49:34Z</time></trkpt><trkpt lat="43.8919566879769" lon="11.526168396541946"><ele>178.79999999999998</ele><time>2026-05-03T15:49:35Z</time></trkpt><trkpt lat="43.891947327447994" lon="11.526030974180685"><ele>179.0</ele><time>2026-05-03T15:49:36Z</time></trkpt><trkpt lat="43.891938702136706" lon="11.525894064587074"><ele>179.0</ele><time>2026-05-03T15:49:37Z</time></trkpt><trkpt lat="43.89192880812265" lon="11.52575872885002"><ele>179.0</ele><time>2026-05-03T15:49:38Z</time></trkpt><trkpt lat="43.89191128023765" lon="11.525624786789649"><ele>179.0</ele><time>2026-05-03T15:49:39Z</time></trkpt><trkpt lat="43.89189438532055" lon="11.525495273703202"><ele>179.0</ele><time>2026-05-03T15:49:40Z</time></trkpt><trkpt lat="43.89188442585333" lon="11.525368623135664"><ele>179.0</ele><time>2026-05-03T15:49:41Z</time></trkpt><trkpt lat="43.891879816384275" lon="11.525253318938374"><ele>179.33333333333331</ele><time>2026-05-03T15:49:42Z</time></trkpt><trkpt lat="43.89187121641337" lon="11.525150497566862"><ele>179.66666666666666</ele><time>2026-05-03T15:49:43Z</time></trkpt><trkpt lat="43.89186275228879" lon="11.52505867305932"><ele>180.0</ele><time>2026-05-03T15:49:44Z</time></trkpt><trkpt lat="43.89185053578253" lon="11.5249520452203"><ele>180.33333333333334</ele><time>2026-05-03T15:49:45Z</time></trkpt><trkpt lat="43.891839595443166" lon="11.52483385662218"><ele>180.66666666666669</ele><time>2026-05-03T15:49:46Z</time></trkpt><trkpt lat="43.89183104817063" lon="11.524712049097767"><ele>181.0</ele><time>2026-05-03T15:49:47Z</time></trkpt><trkpt lat="43.89182393364165" lon="11.524588327575373"><ele>179.60000000000002</ele><time>2026-05-03T15:49:48Z</time></trkpt><trkpt lat="43.89181287242016" lon="11.524462062357696"><ele>178.2</ele><time>2026-05-03T15:49:49Z</time></trkpt><trkpt lat="43.891802560627575" lon="11.52433196307134"><ele>176.8</ele><time>2026-05-03T15:49:50Z</time></trkpt><trkpt lat="43.89178956031826" lon="11.524194634216535"><ele>175.39999999999998</ele><time>2026-05-03T15:49:51Z</time></trkpt><trkpt lat="43.89177730981846" lon="11.524056914489462"><ele>174.0</ele><time>2026-05-03T15:49:52Z</time></trkpt><trkpt lat="43.89176373619599" lon="11.523911251890185"><ele>172.0</ele><time>2026-05-03T15:49:53Z</time></trkpt><trkpt lat="43.89174970205416" lon="11.523763438722348"><ele>170.0</ele><time>2026-05-03T15:49:54Z</time></trkpt><trkpt lat="43.891732707156855" lon="11.523626716289844"><ele>168.0</ele><time>2026-05-03T15:49:55Z</time></trkpt><trkpt lat="43.89170521458202" lon="11.523504593312849"><ele>166.0</ele><time>2026-05-03T15:49:56Z</time></trkpt><trkpt lat="43.89166209926853" lon="11.52340447888401"><ele>164.0</ele><time>2026-05-03T15:49:57Z</time></trkpt><trkpt lat="43.8916037322195" lon="11.523313599348501"><ele>163.79999999999998</ele><time>2026-05-03T15:49:58Z</time></trkpt><trkpt lat="43.891537925631674" lon="11.52323207444309"><ele>163.6</ele><time>2026-05-03T15:49:59Z</time></trkpt><trkpt lat="43.89146292849788" lon="11.523161081725217"><ele>163.4</ele><time>2026-05-03T15:50:00Z</time></trkpt><trkpt lat="43.89138555140497" lon="11.523132940035977"><ele>163.2</ele><time>2026-05-03T15:50:01Z</time></trkpt><trkpt lat="43.8912726066032" lon="11.523146696791029"><ele>163.0</ele><time>2026-05-03T15:50:03Z</time></trkpt><trkpt lat="43.89119406399278" lon="11.523157426185293"><ele>163.0</ele><time>2026-05-03T15:50:05Z</time></trkpt><trkpt lat="43.89111422779125" lon="11.523165092004975"><ele>163.0</ele><time>2026-05-03T15:50:08Z</time></trkpt><trkpt lat="43.89103569473856" lon="11.52317956504475"><ele>163.0</ele><time>2026-05-03T15:50:12Z</time></trkpt><trkpt lat="43.8909720293781" lon="11.523194324654856"><ele>163.0</ele><time>2026-05-03T15:50:14Z</time></trkpt><trkpt lat="43.890895273008596" lon="11.523220825516717"><ele>163.0</ele><time>2026-05-03T15:50:16Z</time></trkpt><trkpt lat="43.89080354235686" lon="11.523239600064517"><ele>163.0</ele><time>2026-05-03T15:50:19Z</time></trkpt><trkpt lat="43.890706140018445" lon="11.523239092909817"><ele>162.4</ele><time>2026-05-03T15:50:21Z</time></trkpt><trkpt lat="43.890599615453475" lon="11.52325018724254"><ele>161.8</ele><time>2026-05-03T15:50:23Z</time></trkpt><trkpt lat="43.890494466707715" lon="11.523273578259737"><ele>161.2</ele><time>2026-05-03T15:50:25Z</time></trkpt><trkpt lat="43.89038486783818" lon="11.523319406915272"><ele>160.6</ele><time>2026-05-03T15:50:27Z</time></trkpt><trkpt lat="43.890320287844006" lon="11.523361456208074"><ele>160.0</ele><time>2026-05-03T15:50:28Z</time></trkpt><trkpt lat="43.890255204300445" lon="11.523412676222774"><ele>160.0</ele><time>2026-05-03T15:50:29Z</time></trkpt><trkpt lat="43.890192828460236" lon="11.523488457751135"><ele>160.0</ele><time>2026-05-03T15:50:30Z</time></trkpt><trkpt lat="43.890133407698066" lon="11.523573754318257"><ele>160.0</ele><time>2026-05-03T15:50:31Z</time></trkpt><trkpt lat="43.890076821298656" lon="11.523667382617534"><ele>160.0</ele><time>2026-05-03T15:50:32Z</time></trkpt><trkpt lat="43.89002310218629" lon="11.5237628906638"><ele>160.0</ele><time>2026-05-03T15:50:33Z</time></trkpt><trkpt lat="43.889968813398546" lon="11.523855725817484"><ele>160.0</ele><time>2026-05-03T15:50:34Z</time></trkpt><trkpt lat="43.88991918486055" lon="11.523931778369324"><ele>158.8</ele><time>2026-05-03T15:50:35Z</time></trkpt><trkpt lat="43.88987726967484" lon="11.524003507801694"><ele>157.6</ele><time>2026-05-03T15:50:36Z</time></trkpt><trkpt lat="43.88981234072673" lon="11.52413274262097"><ele>156.4</ele><time>2026-05-03T15:50:38Z</time></trkpt><trkpt lat="43.889780783195185" lon="11.524243216241043"><ele>155.2</ele><time>2026-05-03T15:50:40Z</time></trkpt><trkpt lat="43.889853297007186" lon="11.524346103395242"><ele>154.0</ele><time>2026-05-03T15:50:42Z</time></trkpt><trkpt lat="43.88998637574245" lon="11.524382698303308"><ele>154.0</ele><time>2026-05-03T15:50:44Z</time></trkpt><trkpt lat="43.89007573537167" lon="11.524409813231387"><ele>154.0</ele><time>2026-05-03T15:50:45Z</time></trkpt><trkpt lat="43.890179595107206" lon="11.524437978136818"><ele>154.0</ele><time>2026-05-03T15:50:46Z</time></trkpt><trkpt lat="43.89027139579381" lon="11.52446962287611"><ele>154.0</ele><time>2026-05-03T15:50:47Z</time></trkpt><trkpt lat="43.89034570156654" lon="11.52449606631493"><ele>154.0</ele><time>2026-05-03T15:50:48Z</time></trkpt><trkpt lat="43.890420791793474" lon="11.524522872728593"><ele>154.0</ele><time>2026-05-03T15:50:49Z</time></trkpt><trkpt lat="43.890496967116526" lon="11.524549018927996"><ele>154.57142857142858</ele><time>2026-05-03T15:50:50Z</time></trkpt><trkpt lat="43.89057136288378" lon="11.524572975507049"><ele>155.14285714285714</ele><time>2026-05-03T15:50:51Z</time></trkpt><trkpt lat="43.8906451414701" lon="11.524601201038678"><ele>155.71428571428572</ele><time>2026-05-03T15:50:52Z</time></trkpt><trkpt lat="43.8907158220603" lon="11.524632386045054"><ele>156.28571428571428</ele><time>2026-05-03T15:50:53Z</time></trkpt><trkpt lat="43.89078784638192" lon="11.524661876073937"><ele>156.85714285714286</ele><time>2026-05-03T15:50:54Z</time></trkpt><trkpt lat="43.89085554470659" lon="11.524687393048259"><ele>157.42857142857144</ele><time>2026-05-03T15:50:55Z</time></trkpt><trkpt lat="43.89092393413009" lon="11.524710120130091"><ele>158.0</ele><time>2026-05-03T15:50:56Z</time></trkpt><trkpt lat="43.89102138507169" lon="11.524720754733675"><ele>159.0</ele><time>2026-05-03T15:50:58Z</time></trkpt><trkpt lat="43.891085603098986" lon="11.5246730930833"><ele>160.0</ele><time>2026-05-03T15:50:59Z</time></trkpt><trkpt lat="43.891126248018224" lon="11.524543256692787"><ele>161.0</ele><time>2026-05-03T15:51:02Z</time></trkpt><trkpt lat="43.89109976045997" lon="11.524440075292054"><ele>162.0</ele><time>2026-05-03T15:51:04Z</time></trkpt><trkpt lat="43.89108985575846" lon="11.524346074099347"><ele>163.0</ele><time>2026-05-03T15:51:07Z</time></trkpt><trkpt lat="43.89108352071351" lon="11.524251358068515"><ele>164.0</ele><time>2026-05-03T15:51:11Z</time></trkpt><trkpt lat="43.89104478671436" lon="11.524180643380298"><ele>164.0</ele><time>2026-05-03T15:51:16Z</time></trkpt><trkpt lat="43.891153922651455" lon="11.524325250070017"><ele>164.0</ele><time>2026-05-03T15:51:30Z</time></trkpt><trkpt lat="43.89117412386494" lon="11.524412129573266"><ele>164.0</ele><time>2026-05-03T15:51:32Z</time></trkpt></trkseg><trkseg><trkpt lat="43.89109467526805" lon="11.524341809036654"><ele>164.0</ele><time>2026-05-03T16:26:36Z</time></trkpt><trkpt lat="43.89107702292464" lon="11.524230319949439"><ele>164.0</ele><time>2026-05-03T16:26:38Z</time></trkpt><trkpt lat="43.891096597090375" lon="11.524114247365317"><ele>164.0</ele><time>2026-05-03T16:26:40Z</time></trkpt><trkpt lat="43.891076258516115" lon="11.52400166563413"><ele>164.0</ele><time>2026-05-03T16:26:42Z</time></trkpt><trkpt lat="43.89106185455215" lon="11.523912365399175"><ele>164.0</ele><time>2026-05-03T16:26:45Z</time></trkpt><trkpt lat="43.89104338457846" lon="11.52381422618957"><ele>164.0</ele><time>2026-05-03T16:26:49Z</time></trkpt><trkpt lat="43.891045050599026" lon="11.523717171232708"><ele>163.79999999999998</ele><time>2026-05-03T16:26:52Z</time></trkpt><trkpt lat="43.89103440867539" lon="11.523596542498211"><ele>163.6</ele><time>2026-05-03T16:27:00Z</time></trkpt><trkpt lat="43.89102086424541" lon="11.523455664068965"><ele>163.4</ele><time>2026-05-03T16:27:02Z</time></trkpt><trkpt lat="43.891007937891445" lon="11.523335385032714"><ele>163.2</ele><time>2026-05-03T16:27:04Z</time></trkpt><trkpt lat="43.89097012315781" lon="11.523231789861573"><ele>163.0</ele><time>2026-05-03T16:27:18Z</time></trkpt><trkpt lat="43.890974134553595" lon="11.523098730924842"><ele>163.0</ele><time>2026-05-03T16:27:20Z</time></trkpt><trkpt lat="43.89098460159651" lon="11.522934499302174"><ele>163.0</ele><time>2026-05-03T16:27:22Z</time></trkpt><trkpt lat="43.89099523695506" lon="11.522840341966981"><ele>163.0</ele><time>2026-05-03T16:27:23Z</time></trkpt><trkpt lat="43.89100982597986" lon="11.52275462334652"><ele>163.0</ele><time>2026-05-03T16:27:24Z</time></trkpt><trkpt lat="43.891031001437625" lon="11.522655856762746"><ele>163.0</ele><time>2026-05-03T16:27:25Z</time></trkpt><trkpt lat="43.89105392487865" lon="11.522545451207804"><ele>163.0</ele><time>2026-05-03T16:27:26Z</time></trkpt><trkpt lat="43.89108515804454" lon="11.522429936167399"><ele>162.83333333333334</ele><time>2026-05-03T16:27:27Z</time></trkpt><trkpt lat="43.89111758257729" lon="11.522314887434172"><ele>162.66666666666669</ele><time>2026-05-03T16:27:28Z</time></trkpt><trkpt lat="43.89115447720984" lon="11.522209120944265"><ele>162.5</ele><time>2026-05-03T16:27:29Z</time></trkpt><trkpt lat="43.891194914978435" lon="11.522116244421806"><ele>162.33333333333334</ele><time>2026-05-03T16:27:30Z</time></trkpt><trkpt lat="43.89124193461277" lon="11.522007916913044"><ele>162.16666666666666</ele><time>2026-05-03T16:27:31Z</time></trkpt><trkpt lat="43.891303164338424" lon="11.521899715451413"><ele>162.0</ele><time>2026-05-03T16:27:32Z</time></trkpt><trkpt lat="43.891386901232025" lon="11.521782165161715"><ele>161.75</ele><time>2026-05-03T16:27:33Z</time></trkpt><trkpt lat="43.89150434413409" lon="11.521682493662821"><ele>161.5</ele><time>2026-05-03T16:27:34Z</time></trkpt><trkpt lat="43.89162428343966" lon="11.521544939423604"><ele>161.25</ele><time>2026-05-03T16:27:35Z</time></trkpt><trkpt lat="43.891750225222985" lon="11.52143374691245"><ele>161.0</ele><time>2026-05-03T16:27:36Z</time></trkpt><trkpt lat="43.891859340320885" lon="11.521372850610328"><ele>161.0</ele><time>2026-05-03T16:27:37Z</time></trkpt><trkpt lat="43.891934687149195" lon="11.521306054354483"><ele>161.0</ele><time>2026-05-03T16:27:38Z</time></trkpt><trkpt lat="43.89199638184365" lon="11.521249975248413"><ele>161.0</ele><time>2026-05-03T16:27:39Z</time></trkpt><trkpt lat="43.892061576289464" lon="11.521197505153166"><ele>161.0</ele><time>2026-05-03T16:27:40Z</time></trkpt><trkpt lat="43.89216307047778" lon="11.521108590548343"><ele>161.0</ele><time>2026-05-03T16:27:42Z</time></trkpt><trkpt lat="43.89223428803131" lon="11.521041759164643"><ele>161.0</ele><time>2026-05-03T16:27:42.999Z</time></trkpt><trkpt lat="43.89232197107057" lon="11.520958564982328"><ele>161.0</ele><time>2026-05-03T16:27:43.999Z</time></trkpt><trkpt lat="43.89242743141801" lon="11.520856035468826"><ele>161.0</ele><time>2026-05-03T16:27:44.999Z</time></trkpt><trkpt lat="43.8925501564426" lon="11.520749474315682"><ele>161.0</ele><time>2026-05-03T16:27:45.999Z</time></trkpt><trkpt lat="43.892689054085615" lon="11.52064496695558"><ele>161.0</ele><time>2026-05-03T16:27:46.999Z</time></trkpt><trkpt lat="43.892834003296784" lon="11.52054252807788"><ele>161.33333333333331</ele><time>2026-05-03T16:27:47.999Z</time></trkpt><trkpt lat="43.89298181414556" lon="11.520443984415053"><ele>161.66666666666666</ele><time>2026-05-03T16:27:48.999Z</time></trkpt><trkpt lat="43.89312812584228" lon="11.520349502568349"><ele>162.0</ele><time>2026-05-03T16:27:49.999Z</time></trkpt><trkpt lat="43.893278651377045" lon="11.520251876424963"><ele>161.33333333333334</ele><time>2026-05-03T16:27:50.999Z</time></trkpt><trkpt lat="43.89343137226748" lon="11.520165604854679"><ele>160.66666666666669</ele><time>2026-05-03T16:27:51.999Z</time></trkpt><trkpt lat="43.893584800143415" lon="11.520083787593476"><ele>160.0</ele><time>2026-05-03T16:27:52.999Z</time></trkpt><trkpt lat="43.8937256838154" lon="11.520005868452813"><ele>160.0</ele><time>2026-05-03T16:27:53.999Z</time></trkpt><trkpt lat="43.8938633520326" lon="11.519915943506938"><ele>160.0</ele><time>2026-05-03T16:27:54.999Z</time></trkpt><trkpt lat="43.89399702697843" lon="11.519837004645193"><ele>160.0</ele><time>2026-05-03T16:27:55.999Z</time></trkpt><trkpt lat="43.89411771017498" lon="11.51976158161735"><ele>160.0</ele><time>2026-05-03T16:27:56.999Z</time></trkpt><trkpt lat="43.89424026198285" lon="11.519687324320309"><ele>160.5</ele><time>2026-05-03T16:27:57.999Z</time></trkpt><trkpt lat="43.894368399968144" lon="11.51960918807336"><ele>161.0</ele><time>2026-05-03T16:27:58.999Z</time></trkpt><trkpt lat="43.894502650365034" lon="11.519528907709514"><ele>161.5</ele><time>2026-05-03T16:27:59.999Z</time></trkpt><trkpt lat="43.89464305766335" lon="11.519434061772806"><ele>162.0</ele><time>2026-05-03T16:28:00.999Z</time></trkpt><trkpt lat="43.89478899158449" lon="11.519338074462448"><ele>161.66666666666666</ele><time>2026-05-03T16:28:01.999Z</time></trkpt><trkpt lat="43.894939086578766" lon="11.519229398017858"><ele>161.33333333333331</ele><time>2026-05-03T16:28:02.999Z</time></trkpt><trkpt lat="43.895091696002254" lon="11.519119080438399"><ele>161.0</ele><time>2026-05-03T16:28:03.999Z</time></trkpt><trkpt lat="43.89524714262981" lon="11.519000826700895"><ele>161.0</ele><time>2026-05-03T16:28:05Z</time></trkpt><trkpt lat="43.89540369657312" lon="11.518878032747553"><ele>161.0</ele><time>2026-05-03T16:28:05.999Z</time></trkpt><trkpt lat="43.89556460470513" lon="11.51875209262289"><ele>161.0</ele><time>2026-05-03T16:28:06.999Z</time></trkpt><trkpt lat="43.89572646045326" lon="11.51862309310575"><ele>161.0</ele><time>2026-05-03T16:28:07.999Z</time></trkpt><trkpt lat="43.895890960787575" lon="11.518482111255684"><ele>161.0</ele><time>2026-05-03T16:28:08.999Z</time></trkpt><trkpt lat="43.89606156138979" lon="11.51834084856817"><ele>161.0</ele><time>2026-05-03T16:28:10Z</time></trkpt><trkpt lat="43.89623107897962" lon="11.518194565985949"><ele>161.0</ele><time>2026-05-03T16:28:11Z</time></trkpt><trkpt lat="43.89638978788811" lon="11.518055380055129"><ele>161.0</ele><time>2026-05-03T16:28:12Z</time></trkpt><trkpt lat="43.896536813608265" lon="11.517931474429497"><ele>161.0</ele><time>2026-05-03T16:28:13Z</time></trkpt><trkpt lat="43.89667734171073" lon="11.517807499314566"><ele>161.0</ele><time>2026-05-03T16:28:14Z</time></trkpt><trkpt lat="43.89682151546991" lon="11.51767508567775"><ele>161.0</ele><time>2026-05-03T16:28:15Z</time></trkpt><trkpt lat="43.89696202115351" lon="11.51755438056128"><ele>161.0</ele><time>2026-05-03T16:28:16Z</time></trkpt><trkpt lat="43.897097956920085" lon="11.517432455072901"><ele>161.0</ele><time>2026-05-03T16:28:17Z</time></trkpt><trkpt lat="43.89723577528441" lon="11.51731387742587"><ele>161.0</ele><time>2026-05-03T16:28:18Z</time></trkpt><trkpt lat="43.897378241034794" lon="11.517192972792056"><ele>161.0</ele><time>2026-05-03T16:28:19Z</time></trkpt><trkpt lat="43.897517285891105" lon="11.517070382822505"><ele>160.66666666666666</ele><time>2026-05-03T16:28:20Z</time></trkpt><trkpt lat="43.89765308601016" lon="11.51695450146661"><ele>160.33333333333334</ele><time>2026-05-03T16:28:21Z</time></trkpt><trkpt lat="43.89780770020325" lon="11.516869655387666"><ele>160.0</ele><time>2026-05-03T16:28:22Z</time></trkpt><trkpt lat="43.89798263329508" lon="11.516768688735873"><ele>160.0</ele><time>2026-05-03T16:28:23Z</time></trkpt><trkpt lat="43.89818497059282" lon="11.516659361801542"><ele>160.0</ele><time>2026-05-03T16:28:24Z</time></trkpt><trkpt lat="43.89838975189425" lon="11.516541718213762"><ele>160.0</ele><time>2026-05-03T16:28:25Z</time></trkpt><trkpt lat="43.89857982154752" lon="11.516443394821271"><ele>160.33333333333334</ele><time>2026-05-03T16:28:26Z</time></trkpt><trkpt lat="43.898760005708866" lon="11.516313969841734"><ele>160.66666666666666</ele><time>2026-05-03T16:28:27Z</time></trkpt><trkpt lat="43.89893324604308" lon="11.516170614939556"><ele>161.0</ele><time>2026-05-03T16:28:28Z</time></trkpt><trkpt lat="43.899094086874" lon="11.516009660998868"><ele>160.33333333333331</ele><time>2026-05-03T16:28:29Z</time></trkpt><trkpt lat="43.899229769119074" lon="11.515814591019835"><ele>159.66666666666666</ele><time>2026-05-03T16:28:30Z</time></trkpt><trkpt lat="43.89933880174212" lon="11.515588436347777"><ele>159.0</ele><time>2026-05-03T16:28:31Z</time></trkpt><trkpt lat="43.89944062383238" lon="11.515336339916539"><ele>161.0</ele><time>2026-05-03T16:28:32Z</time></trkpt><trkpt lat="43.89955457002177" lon="11.51507572584111"><ele>163.0</ele><time>2026-05-03T16:28:33Z</time></trkpt><trkpt lat="43.89968290624663" lon="11.514798580526069"><ele>162.5</ele><time>2026-05-03T16:28:34Z</time></trkpt><trkpt lat="43.89981223843764" lon="11.514501311330893"><ele>162.0</ele><time>2026-05-03T16:28:35Z</time></trkpt><trkpt lat="43.89993757088782" lon="11.514181682505933"><ele>162.0</ele><time>2026-05-03T16:28:36Z</time></trkpt><trkpt lat="43.90005040107542" lon="11.513857729739195"><ele>162.0</ele><time>2026-05-03T16:28:37Z</time></trkpt><trkpt lat="43.90015075706476" lon="11.513520848308463"><ele>163.5</ele><time>2026-05-03T16:28:38Z</time></trkpt><trkpt lat="43.90024104994382" lon="11.513168109258062"><ele>165.0</ele><time>2026-05-03T16:28:39Z</time></trkpt><trkpt lat="43.9003315742569" lon="11.512829451382359"><ele>165.0</ele><time>2026-05-03T16:28:40Z</time></trkpt><trkpt lat="43.90041917768523" lon="11.5125218456631"><ele>165.0</ele><time>2026-05-03T16:28:41Z</time></trkpt><trkpt lat="43.90050743872795" lon="11.512237140748113"><ele>166.0</ele><time>2026-05-03T16:28:42Z</time></trkpt><trkpt lat="43.90060216881091" lon="11.511959258484893"><ele>167.0</ele><time>2026-05-03T16:28:43Z</time></trkpt><trkpt lat="43.900711314743674" lon="11.511676253132677"><ele>167.0</ele><time>2026-05-03T16:28:44Z</time></trkpt><trkpt lat="43.90082870685184" lon="11.511401904695969"><ele>167.0</ele><time>2026-05-03T16:28:45Z</time></trkpt><trkpt lat="43.90093858897445" lon="11.511135173003607"><ele>169.5</ele><time>2026-05-03T16:28:46Z</time></trkpt><trkpt lat="43.901044724836154" lon="11.510891339897041"><ele>172.0</ele><time>2026-05-03T16:28:47Z</time></trkpt><trkpt lat="43.90171489039888" lon="11.509640919285157"><ele>178.0</ele><time>2026-05-03T16:28:52Z</time></trkpt><trkpt lat="43.901861498459404" lon="11.509360431144318"><ele>184.0</ele><time>2026-05-03T16:28:53Z</time></trkpt><trkpt lat="43.90201841152689" lon="11.509061395774067"><ele>184.0</ele><time>2026-05-03T16:28:54Z</time></trkpt><trkpt lat="43.90218254974317" lon="11.50875415003584"><ele>184.0</ele><time>2026-05-03T16:28:55Z</time></trkpt><trkpt lat="43.9023587174038" lon="11.508439163367768"><ele>180.5</ele><time>2026-05-03T16:28:56Z</time></trkpt><trkpt lat="43.902538311759365" lon="11.508112812185233"><ele>177.0</ele><time>2026-05-03T16:28:57Z</time></trkpt><trkpt lat="43.902715725731035" lon="11.507789202823618"><ele>177.0</ele><time>2026-05-03T16:28:58Z</time></trkpt><trkpt lat="43.90287989949683" lon="11.507486321715216"><ele>177.0</ele><time>2026-05-03T16:28:59Z</time></trkpt><trkpt lat="43.90302323765282" lon="11.507222397093381"><ele>172.66666666666666</ele><time>2026-05-03T16:29:00Z</time></trkpt><trkpt lat="43.90313963227317" lon="11.507006920809077"><ele>168.33333333333331</ele><time>2026-05-03T16:29:01Z</time></trkpt><trkpt lat="43.903242988459496" lon="11.506821474676935"><ele>164.0</ele><time>2026-05-03T16:29:02Z</time></trkpt><trkpt lat="43.90336262428407" lon="11.506663223759938"><ele>165.66666666666666</ele><time>2026-05-03T16:29:03Z</time></trkpt><trkpt lat="43.90350576546218" lon="11.506543236920958"><ele>167.33333333333334</ele><time>2026-05-03T16:29:04Z</time></trkpt><trkpt lat="43.903670234991125" lon="11.50647998166254"><ele>169.0</ele><time>2026-05-03T16:29:05Z</time></trkpt><trkpt lat="43.903853369602146" lon="11.506459784540956"><ele>169.0</ele><time>2026-05-03T16:29:06Z</time></trkpt><trkpt lat="43.90405238133816" lon="11.50643844668447"><ele>169.0</ele><time>2026-05-03T16:29:07Z</time></trkpt><trkpt lat="43.904271910325825" lon="11.506399975157255"><ele>169.0</ele><time>2026-05-03T16:29:08Z</time></trkpt><trkpt lat="43.90451501057555" lon="11.50635372032137"><ele>172.5</ele><time>2026-05-03T16:29:09Z</time></trkpt><trkpt lat="43.90477821582642" lon="11.50630702514736"><ele>176.0</ele><time>2026-05-03T16:29:10Z</time></trkpt><trkpt lat="43.905053936790246" lon="11.506260885676447"><ele>170.5</ele><time>2026-05-03T16:29:11Z</time></trkpt><trkpt lat="43.90534669498102" lon="11.506212900869967"><ele>165.0</ele><time>2026-05-03T16:29:12Z</time></trkpt><trkpt lat="43.90561914331762" lon="11.50616504302838"><ele>165.0</ele><time>2026-05-03T16:29:13Z</time></trkpt><trkpt lat="43.905862935540135" lon="11.506118582452254"><ele>165.0</ele><time>2026-05-03T16:29:14Z</time></trkpt><trkpt lat="43.90608362730445" lon="11.506077822252756"><ele>164.66666666666666</ele><time>2026-05-03T16:29:15Z</time></trkpt><trkpt lat="43.90628433272015" lon="11.506044626666828"><ele>164.33333333333331</ele><time>2026-05-03T16:29:16Z</time></trkpt><trkpt lat="43.90648790398746" lon="11.506030191648417"><ele>164.0</ele><time>2026-05-03T16:29:17Z</time></trkpt><trkpt lat="43.90665504916921" lon="11.506026813766114"><ele>163.66666666666666</ele><time>2026-05-03T16:29:18Z</time></trkpt><trkpt lat="43.90682982001973" lon="11.50606636822574"><ele>163.33333333333334</ele><time>2026-05-03T16:29:19Z</time></trkpt><trkpt lat="43.90700750616265" lon="11.506118679563972"><ele>163.0</ele><time>2026-05-03T16:29:20Z</time></trkpt><trkpt lat="43.90718865918479" lon="11.506201308170557"><ele>167.66666666666669</ele><time>2026-05-03T16:29:21Z</time></trkpt><trkpt lat="43.907357255168584" lon="11.506287277028282"><ele>172.33333333333334</ele><time>2026-05-03T16:29:22Z</time></trkpt><trkpt lat="43.90752684787767" lon="11.50636402628453"><ele>177.0</ele><time>2026-05-03T16:29:23Z</time></trkpt><trkpt lat="43.9076939957338" lon="11.506430899432798"><ele>177.0</ele><time>2026-05-03T16:29:24Z</time></trkpt><trkpt lat="43.90785416278267" lon="11.506482822874547"><ele>177.0</ele><time>2026-05-03T16:29:25Z</time></trkpt><trkpt lat="43.90800337398929" lon="11.506498330162021"><ele>177.0</ele><time>2026-05-03T16:29:26Z</time></trkpt><trkpt lat="43.90814174920116" lon="11.506478000708357"><ele>177.0</ele><time>2026-05-03T16:29:27Z</time></trkpt><trkpt lat="43.90827503010416" lon="11.506429931417522"><ele>177.0</ele><time>2026-05-03T16:29:28Z</time></trkpt><trkpt lat="43.90839985077052" lon="11.506363902691277"><ele>177.0</ele><time>2026-05-03T16:29:29Z</time></trkpt><trkpt lat="43.90852247843586" lon="11.506292686490427"><ele>177.0</ele><time>2026-05-03T16:29:29.999Z</time></trkpt><trkpt lat="43.90864149959514" lon="11.5062379554028"><ele>177.0</ele><time>2026-05-03T16:29:30.999Z</time></trkpt><trkpt lat="43.908762777506375" lon="11.506205995760235"><ele>177.0</ele><time>2026-05-03T16:29:31.999Z</time></trkpt><trkpt lat="43.908886890738145" lon="11.506206697596053"><ele>177.0</ele><time>2026-05-03T16:29:32.999Z</time></trkpt><trkpt lat="43.90900887994106" lon="11.506249592015273"><ele>177.0</ele><time>2026-05-03T16:29:33.999Z</time></trkpt><trkpt lat="43.909122094167365" lon="11.506333374233439"><ele>177.0</ele><time>2026-05-03T16:29:34.999Z</time></trkpt><trkpt lat="43.90923088791386" lon="11.50644185218594"><ele>177.0</ele><time>2026-05-03T16:29:35.999Z</time></trkpt><trkpt lat="43.9093505296551" lon="11.506564720118439"><ele>177.0</ele><time>2026-05-03T16:29:36.999Z</time></trkpt><trkpt lat="43.909476107265576" lon="11.506697086268737"><ele>177.0</ele><time>2026-05-03T16:29:37.999Z</time></trkpt><trkpt lat="43.90960534120378" lon="11.506806663742955"><ele>174.0</ele><time>2026-05-03T16:29:38.999Z</time></trkpt><trkpt lat="43.90971175124774" lon="11.50687844224509"><ele>171.0</ele><time>2026-05-03T16:29:39.999Z</time></trkpt><trkpt lat="43.90981142819398" lon="11.506937544588034"><ele>168.0</ele><time>2026-05-03T16:29:40.999Z</time></trkpt><trkpt lat="43.909947146359805" lon="11.506993538757937"><ele>165.0</ele><time>2026-05-03T16:29:41.999Z</time></trkpt><trkpt lat="43.910114354114306" lon="11.50705217179719"><ele>169.66666666666666</ele><time>2026-05-03T16:29:42.999Z</time></trkpt><trkpt lat="43.91028295907343" lon="11.507131862268498"><ele>174.33333333333331</ele><time>2026-05-03T16:29:43.999Z</time></trkpt><trkpt lat="43.91043882611416" lon="11.507207502795323"><ele>179.0</ele><time>2026-05-03T16:29:44.999Z</time></trkpt><trkpt lat="43.91056510287779" lon="11.507254535429901"><ele>179.0</ele><time>2026-05-03T16:29:45.999Z</time></trkpt><trkpt lat="43.910675544382464" lon="11.507293974756939"><ele>179.0</ele><time>2026-05-03T16:29:46.999Z</time></trkpt><trkpt lat="43.91078266649996" lon="11.50732424836641"><ele>179.0</ele><time>2026-05-03T16:29:47.999Z</time></trkpt><trkpt lat="43.9108956986679" lon="11.50732826406126"><ele>179.0</ele><time>2026-05-03T16:29:48.999Z</time></trkpt><trkpt lat="43.9110122785324" lon="11.507282487635754"><ele>176.33333333333331</ele><time>2026-05-03T16:29:49.999Z</time></trkpt><trkpt lat="43.91113731648582" lon="11.507178565959233"><ele>173.66666666666666</ele><time>2026-05-03T16:29:50.999Z</time></trkpt><trkpt lat="43.91128515540342" lon="11.507021114197325"><ele>171.0</ele><time>2026-05-03T16:29:51.999Z</time></trkpt><trkpt lat="43.91146776501365" lon="11.506840620501972"><ele>166.5</ele><time>2026-05-03T16:29:52.999Z</time></trkpt><trkpt lat="43.911687808969376" lon="11.506656295377352"><ele>162.0</ele><time>2026-05-03T16:29:53.999Z</time></trkpt><trkpt lat="43.911923819476954" lon="11.506468555817625"><ele>162.0</ele><time>2026-05-03T16:29:54.999Z</time></trkpt><trkpt lat="43.91217227635841" lon="11.506267270658125"><ele>162.0</ele><time>2026-05-03T16:29:55.999Z</time></trkpt><trkpt lat="43.91243885352757" lon="11.506060108473752"><ele>164.0</ele><time>2026-05-03T16:29:56.999Z</time></trkpt><trkpt lat="43.91270970948562" lon="11.50586846319988"><ele>166.0</ele><time>2026-05-03T16:29:57.999Z</time></trkpt><trkpt lat="43.912945108942864" lon="11.505721060222358"><ele>166.0</ele><time>2026-05-03T16:29:58.999Z</time></trkpt><trkpt lat="43.913156525136074" lon="11.505610787904455"><ele>166.0</ele><time>2026-05-03T16:29:59.999Z</time></trkpt><trkpt lat="43.91336765844258" lon="11.505529058342102"><ele>166.0</ele><time>2026-05-03T16:30:00.999Z</time></trkpt><trkpt lat="43.91359813355695" lon="11.505480370146202"><ele>165.0</ele><time>2026-05-03T16:30:01.999Z</time></trkpt><trkpt lat="43.913847443947276" lon="11.50543150005212"><ele>164.0</ele><time>2026-05-03T16:30:02.999Z</time></trkpt><trkpt lat="43.91411365960649" lon="11.50536907099611"><ele>165.0</ele><time>2026-05-03T16:30:03.999Z</time></trkpt><trkpt lat="43.91439520321791" lon="11.505296525346406"><ele>166.0</ele><time>2026-05-03T16:30:04.999Z</time></trkpt><trkpt lat="43.91469278749846" lon="11.505206645204234"><ele>166.0</ele><time>2026-05-03T16:30:05.999Z</time></trkpt><trkpt lat="43.914998403233504" lon="11.505094705505023"><ele>166.0</ele><time>2026-05-03T16:30:06.999Z</time></trkpt><trkpt lat="43.91531216073711" lon="11.504973638716223"><ele>171.5</ele><time>2026-05-03T16:30:07.999Z</time></trkpt><trkpt lat="43.91563307221016" lon="11.504855429260727"><ele>177.0</ele><time>2026-05-03T16:30:08.999Z</time></trkpt><trkpt lat="43.91595543922178" lon="11.504740706879188"><ele>179.0</ele><time>2026-05-03T16:30:09.999Z</time></trkpt><trkpt lat="43.91625830596635" lon="11.504630977396223"><ele>181.0</ele><time>2026-05-03T16:30:10.999Z</time></trkpt><trkpt lat="43.91652927275307" lon="11.504535796192194"><ele>173.0</ele><time>2026-05-03T16:30:11.999Z</time></trkpt><trkpt lat="43.91678498418766" lon="11.504450740501403"><ele>165.0</ele><time>2026-05-03T16:30:12.999Z</time></trkpt><trkpt lat="43.917028447806665" lon="11.504380087280792"><ele>165.0</ele><time>2026-05-03T16:30:13.999Z</time></trkpt><trkpt lat="43.91728254011515" lon="11.50432601009946"><ele>165.0</ele><time>2026-05-03T16:30:14.999Z</time></trkpt><trkpt lat="43.917553775690415" lon="11.504293391427472"><ele>166.5</ele><time>2026-05-03T16:30:15.999Z</time></trkpt><trkpt lat="43.91782417946427" lon="11.504259121346344"><ele>168.0</ele><time>2026-05-03T16:30:16.999Z</time></trkpt><trkpt lat="43.91806546553148" lon="11.504218388680185"><ele>168.0</ele><time>2026-05-03T16:30:17.999Z</time></trkpt><trkpt lat="43.9182885508542" lon="11.504179790148484"><ele>168.0</ele><time>2026-05-03T16:30:18.999Z</time></trkpt><trkpt lat="43.91849440053064" lon="11.504135319395138"><ele>168.0</ele><time>2026-05-03T16:30:19.999Z</time></trkpt><trkpt lat="43.91868685960982" lon="11.50406887903937"><ele>173.33333333333334</ele><time>2026-05-03T16:30:20.999Z</time></trkpt><trkpt lat="43.91887286428819" lon="11.503984293267461"><ele>178.66666666666669</ele><time>2026-05-03T16:30:21.999Z</time></trkpt><trkpt lat="43.91903953582868" lon="11.503871017016733"><ele>184.0</ele><time>2026-05-03T16:30:22.999Z</time></trkpt><trkpt lat="43.91918929232975" lon="11.503752315037552"><ele>182.25</ele><time>2026-05-03T16:30:23.999Z</time></trkpt><trkpt lat="43.91931805046764" lon="11.503648469858199"><ele>180.5</ele><time>2026-05-03T16:30:24.999Z</time></trkpt><trkpt lat="43.919432560896674" lon="11.503560111243846"><ele>178.75</ele><time>2026-05-03T16:30:25.999Z</time></trkpt><trkpt lat="43.91953634900795" lon="11.503492638749103"><ele>177.0</ele><time>2026-05-03T16:30:26.999Z</time></trkpt><trkpt lat="43.91964365877023" lon="11.503438758031587"><ele>177.0</ele><time>2026-05-03T16:30:27.999Z</time></trkpt><trkpt lat="43.919756934170756" lon="11.503375782597212"><ele>177.0</ele><time>2026-05-03T16:30:28.999Z</time></trkpt><trkpt lat="43.919882714573525" lon="11.503290907827251"><ele>177.0</ele><time>2026-05-03T16:30:29.999Z</time></trkpt><trkpt lat="43.920025790832085" lon="11.503186263408452"><ele>177.0</ele><time>2026-05-03T16:30:30.999Z</time></trkpt><trkpt lat="43.92018956236195" lon="11.503092007121417"><ele>179.0</ele><time>2026-05-03T16:30:31.999Z</time></trkpt><trkpt lat="43.920339186114944" lon="11.502968244078488"><ele>181.0</ele><time>2026-05-03T16:30:32.999Z</time></trkpt><trkpt lat="43.920479949858986" lon="11.502878993779767"><ele>183.0</ele><time>2026-05-03T16:30:33.999Z</time></trkpt><trkpt lat="43.92061298331001" lon="11.502783262869485"><ele>180.75</ele><time>2026-05-03T16:30:34.999Z</time></trkpt><trkpt lat="43.920734081251354" lon="11.50269046924165"><ele>178.5</ele><time>2026-05-03T16:30:35.999Z</time></trkpt><trkpt lat="43.92084911655226" lon="11.50260722872803"><ele>176.25</ele><time>2026-05-03T16:30:36.999Z</time></trkpt><trkpt lat="43.92096413055163" lon="11.502523698379104"><ele>174.0</ele><time>2026-05-03T16:30:37.999Z</time></trkpt><trkpt lat="43.92108497991162" lon="11.502434300110602"><ele>174.0</ele><time>2026-05-03T16:30:39Z</time></trkpt><trkpt lat="43.921206685451054" lon="11.502346297255487"><ele>174.0</ele><time>2026-05-03T16:30:40Z</time></trkpt><trkpt lat="43.9213449028691" lon="11.502249198997102"><ele>174.0</ele><time>2026-05-03T16:30:41Z</time></trkpt><trkpt lat="43.92149251276576" lon="11.502137015864546"><ele>174.0</ele><time>2026-05-03T16:30:42Z</time></trkpt><trkpt lat="43.9216617957294" lon="11.502036579239132"><ele>174.0</ele><time>2026-05-03T16:30:43Z</time></trkpt><trkpt lat="43.9218429049148" lon="11.50190717899035"><ele>174.0</ele><time>2026-05-03T16:30:44Z</time></trkpt><trkpt lat="43.92202846612545" lon="11.501774597821909"><ele>174.0</ele><time>2026-05-03T16:30:45Z</time></trkpt><trkpt lat="43.92217418630866" lon="11.501660236018143"><ele>174.0</ele><time>2026-05-03T16:30:46Z</time></trkpt><trkpt lat="43.92229785289525" lon="11.501579434785237"><ele>174.0</ele><time>2026-05-03T16:30:47Z</time></trkpt><trkpt lat="43.92240975698801" lon="11.501503176985594"><ele>174.0</ele><time>2026-05-03T16:30:48Z</time></trkpt><trkpt lat="43.92253187975897" lon="11.50142374814401"><ele>174.66666666666666</ele><time>2026-05-03T16:30:49Z</time></trkpt><trkpt lat="43.92266812238975" lon="11.501349961784028"><ele>175.33333333333331</ele><time>2026-05-03T16:30:50Z</time></trkpt><trkpt lat="43.92283643636781" lon="11.501320024465787"><ele>176.0</ele><time>2026-05-03T16:30:51Z</time></trkpt><trkpt lat="43.92302577057033" lon="11.5012793101424"><ele>176.0</ele><time>2026-05-03T16:30:52Z</time></trkpt><trkpt lat="43.92324197605209" lon="11.501244863345908"><ele>176.0</ele><time>2026-05-03T16:30:52.999Z</time></trkpt><trkpt lat="43.92344281195009" lon="11.501203856425418"><ele>176.0</ele><time>2026-05-03T16:30:53.999Z</time></trkpt><trkpt lat="43.9236332281878" lon="11.501162799146572"><ele>176.0</ele><time>2026-05-03T16:30:54.999Z</time></trkpt><trkpt lat="43.9238392291023" lon="11.501069788609069"><ele>176.0</ele><time>2026-05-03T16:30:55.999Z</time></trkpt><trkpt lat="43.92405603518432" lon="11.500955019786108"><ele>176.0</ele><time>2026-05-03T16:30:56.999Z</time></trkpt><trkpt lat="43.92425424011767" lon="11.500833658902033"><ele>177.66666666666666</ele><time>2026-05-03T16:30:57.999Z</time></trkpt><trkpt lat="43.924464466565155" lon="11.500749173160205"><ele>179.33333333333334</ele><time>2026-05-03T16:30:58.999Z</time></trkpt><trkpt lat="43.92468517797213" lon="11.500708491773356"><ele>181.0</ele><time>2026-05-03T16:30:59.999Z</time></trkpt><trkpt lat="43.92493028332696" lon="11.50070068610467"><ele>183.5</ele><time>2026-05-03T16:31:00.999Z</time></trkpt><trkpt lat="43.925190149296974" lon="11.500708549321661"><ele>186.0</ele><time>2026-05-03T16:31:01.999Z</time></trkpt><trkpt lat="43.92545950629481" lon="11.500738304185921"><ele>186.0</ele><time>2026-05-03T16:31:02.999Z</time></trkpt><trkpt lat="43.92571059377022" lon="11.500781822660976"><ele>186.0</ele><time>2026-05-03T16:31:03.999Z</time></trkpt><trkpt lat="43.92591279743241" lon="11.500811717522913"><ele>187.33333333333334</ele><time>2026-05-03T16:31:04.999Z</time></trkpt><trkpt lat="43.9260922082237" lon="11.500814404335555"><ele>188.66666666666669</ele><time>2026-05-03T16:31:05.999Z</time></trkpt><trkpt lat="43.92626111315239" lon="11.500781062570042"><ele>190.0</ele><time>2026-05-03T16:31:06.999Z</time></trkpt><trkpt lat="43.926428759597755" lon="11.500705839836296"><ele>190.0</ele><time>2026-05-03T16:31:07.999Z</time></trkpt><trkpt lat="43.926596800169875" lon="11.500571025333782"><ele>190.0</ele><time>2026-05-03T16:31:08.999Z</time></trkpt><trkpt lat="43.926752023401114" lon="11.500391263294745"><ele>190.0</ele><time>2026-05-03T16:31:09.999Z</time></trkpt><trkpt lat="43.92689883479329" lon="11.500147949293957"><ele>188.66666666666669</ele><time>2026-05-03T16:31:10.999Z</time></trkpt><trkpt lat="43.92704292505431" lon="11.499886432966779"><ele>187.33333333333334</ele><time>2026-05-03T16:31:11.999Z</time></trkpt><trkpt lat="43.927162593831376" lon="11.499673126675095"><ele>186.0</ele><time>2026-05-03T16:31:12.999Z</time></trkpt><trkpt lat="43.92728224729072" lon="11.49952711612442"><ele>186.0</ele><time>2026-05-03T16:31:13.999Z</time></trkpt><trkpt lat="43.9274325193552" lon="11.49946319779615"><ele>186.0</ele><time>2026-05-03T16:31:14.999Z</time></trkpt><trkpt lat="43.92760328726437" lon="11.49935332421939"><ele>186.0</ele><time>2026-05-03T16:31:15.999Z</time></trkpt><trkpt lat="43.92781635122514" lon="11.499259424159868"><ele>189.66666666666669</ele><time>2026-05-03T16:31:16.999Z</time></trkpt><trkpt lat="43.9280022882516" lon="11.499166366834269"><ele>193.33333333333334</ele><time>2026-05-03T16:31:17.999Z</time></trkpt><trkpt lat="43.92814152649774" lon="11.499103684506835"><ele>197.0</ele><time>2026-05-03T16:31:18.999Z</time></trkpt><trkpt lat="43.928255485137136" lon="11.49908106960933"><ele>197.0</ele><time>2026-05-03T16:31:19.999Z</time></trkpt><trkpt lat="43.928362098785094" lon="11.499125064097207"><ele>197.0</ele><time>2026-05-03T16:31:20.999Z</time></trkpt><trkpt lat="43.92844331541703" lon="11.499267162298882"><ele>197.0</ele><time>2026-05-03T16:31:21.999Z</time></trkpt><trkpt lat="43.92854290206197" lon="11.499398243203611"><ele>197.0</ele><time>2026-05-03T16:31:22.999Z</time></trkpt><trkpt lat="43.92863492322994" lon="11.499487746184572"><ele>199.75</ele><time>2026-05-03T16:31:23.999Z</time></trkpt><trkpt lat="43.928750261706426" lon="11.499480684488068"><ele>202.5</ele><time>2026-05-03T16:31:24.999Z</time></trkpt><trkpt lat="43.92886470219786" lon="11.499389850155161"><ele>205.25</ele><time>2026-05-03T16:31:25.999Z</time></trkpt><trkpt lat="43.92894981913536" lon="11.499238757450168"><ele>208.0</ele><time>2026-05-03T16:31:26.999Z</time></trkpt><trkpt lat="43.92902606561763" lon="11.499023314029676"><ele>208.0</ele><time>2026-05-03T16:31:27.999Z</time></trkpt><trkpt lat="43.92913116112565" lon="11.498799839241345"><ele>208.0</ele><time>2026-05-03T16:31:28.999Z</time></trkpt><trkpt lat="43.92929255231888" lon="11.49858355107222"><ele>208.0</ele><time>2026-05-03T16:31:29.999Z</time></trkpt><trkpt lat="43.929444909653164" lon="11.498328027762403"><ele>209.33333333333331</ele><time>2026-05-03T16:31:30.999Z</time></trkpt><trkpt lat="43.92958482506745" lon="11.49809262334337"><ele>210.66666666666669</ele><time>2026-05-03T16:31:31.999Z</time></trkpt><trkpt lat="43.929707663814995" lon="11.49789040383891"><ele>212.0</ele><time>2026-05-03T16:31:32.999Z</time></trkpt><trkpt lat="43.92984399088125" lon="11.497718823102081"><ele>211.33333333333334</ele><time>2026-05-03T16:31:33.999Z</time></trkpt><trkpt lat="43.92999144173795" lon="11.497549172475717"><ele>210.66666666666669</ele><time>2026-05-03T16:31:34.999Z</time></trkpt><trkpt lat="43.930151741373614" lon="11.49739920277387"><ele>210.0</ele><time>2026-05-03T16:31:35.999Z</time></trkpt><trkpt lat="43.93032714787811" lon="11.497276250098171"><ele>210.0</ele><time>2026-05-03T16:31:36.999Z</time></trkpt><trkpt lat="43.93050007606489" lon="11.49718479349011"><ele>210.0</ele><time>2026-05-03T16:31:37.999Z</time></trkpt><trkpt lat="43.93063812327976" lon="11.497102530013548"><ele>210.0</ele><time>2026-05-03T16:31:38.999Z</time></trkpt><trkpt lat="43.930732627182195" lon="11.497018541638512"><ele>210.0</ele><time>2026-05-03T16:31:39.999Z</time></trkpt><trkpt lat="43.93078229037463" lon="11.496890351404339"><ele>206.75</ele><time>2026-05-03T16:31:40.999Z</time></trkpt><trkpt lat="43.93078904925681" lon="11.496736541724301"><ele>203.5</ele><time>2026-05-03T16:31:41.999Z</time></trkpt><trkpt lat="43.93076599319348" lon="11.496570513585947"><ele>200.25</ele><time>2026-05-03T16:31:42.999Z</time></trkpt><trkpt lat="43.93074045570895" lon="11.496378537117991"><ele>197.0</ele><time>2026-05-03T16:31:43.999Z</time></trkpt><trkpt lat="43.930723969847655" lon="11.496153844218425"><ele>195.66666666666669</ele><time>2026-05-03T16:31:44.999Z</time></trkpt><trkpt lat="43.930724217926546" lon="11.49589185489815"><ele>194.33333333333331</ele><time>2026-05-03T16:31:45.999Z</time></trkpt><trkpt lat="43.930743817874486" lon="11.495613253330848"><ele>193.0</ele><time>2026-05-03T16:31:46.999Z</time></trkpt><trkpt lat="43.930778797918435" lon="11.495362878535092"><ele>191.2</ele><time>2026-05-03T16:31:47.999Z</time></trkpt><trkpt lat="43.93083285245377" lon="11.495175154246747"><ele>189.4</ele><time>2026-05-03T16:31:48.999Z</time></trkpt><trkpt lat="43.93090367771149" lon="11.495022373728586"><ele>187.6</ele><time>2026-05-03T16:31:49.999Z</time></trkpt><trkpt lat="43.93096843384719" lon="11.494914689642606"><ele>185.79999999999998</ele><time>2026-05-03T16:31:50.999Z</time></trkpt><trkpt lat="43.93100531208524" lon="11.494836785719048"><ele>184.0</ele><time>2026-05-03T16:31:51.999Z</time></trkpt><trkpt lat="43.931011125828554" lon="11.494734815298067"><ele>182.79999999999998</ele><time>2026-05-03T16:33:20Z</time></trkpt><trkpt lat="43.93100587219231" lon="11.494547287604796"><ele>181.6</ele><time>2026-05-03T16:33:21.999Z</time></trkpt><trkpt lat="43.93097477116658" lon="11.49443511147588"><ele>180.4</ele><time>2026-05-03T16:33:22.999Z</time></trkpt><trkpt lat="43.93093893611533" lon="11.494338880644989"><ele>179.2</ele><time>2026-05-03T16:33:23.999Z</time></trkpt><trkpt lat="43.93089959440055" lon="11.49424548989515"><ele>178.0</ele><time>2026-05-03T16:33:24.999Z</time></trkpt><trkpt lat="43.93085656869852" lon="11.494151503500904"><ele>178.0</ele><time>2026-05-03T16:33:25.999Z</time></trkpt><trkpt lat="43.93082307093002" lon="11.49405006564181"><ele>178.0</ele><time>2026-05-03T16:33:26.999Z</time></trkpt><trkpt lat="43.93080057467473" lon="11.49393168269304"><ele>178.0</ele><time>2026-05-03T16:33:27.999Z</time></trkpt><trkpt lat="43.93079293977096" lon="11.493795364934778"><ele>178.0</ele><time>2026-05-03T16:33:28.999Z</time></trkpt><trkpt lat="43.930797550555994" lon="11.493642777324407"><ele>178.0</ele><time>2026-05-03T16:33:29.999Z</time></trkpt><trkpt lat="43.930796579183514" lon="11.49347674460213"><ele>178.0</ele><time>2026-05-03T16:33:30.999Z</time></trkpt><trkpt lat="43.930798139922885" lon="11.493312817426933"><ele>178.0</ele><time>2026-05-03T16:33:31.999Z</time></trkpt><trkpt lat="43.930802345391946" lon="11.493190913471114"><ele>178.0</ele><time>2026-05-03T16:33:32.999Z</time></trkpt><trkpt lat="43.93080670341263" lon="11.49305881173693"><ele>178.0</ele><time>2026-05-03T16:33:34.999Z</time></trkpt><trkpt lat="43.9308309330572" lon="11.49297481553789"><ele>178.0</ele><time>2026-05-03T16:33:37.999Z</time></trkpt><trkpt lat="43.93078687145566" lon="11.493060505951345"><ele>178.0</ele><time>2026-05-03T16:34:10.999Z</time></trkpt><trkpt lat="43.930757837901645" lon="11.49341597654524"><ele>178.0</ele><time>2026-05-03T16:34:12.999Z</time></trkpt><trkpt lat="43.930758587868304" lon="11.493588134121973"><ele>178.0</ele><time>2026-05-03T16:34:13.999Z</time></trkpt><trkpt lat="43.93076258827258" lon="11.493770262872355"><ele>178.0</ele><time>2026-05-03T16:34:14.999Z</time></trkpt><trkpt lat="43.9307794229405" lon="11.493957028000674"><ele>178.0</ele><time>2026-05-03T16:34:15.999Z</time></trkpt><trkpt lat="43.930819445971984" lon="11.494144817622995"><ele>178.0</ele><time>2026-05-03T16:34:16.999Z</time></trkpt><trkpt lat="43.93088226543302" lon="11.494324400958982"><ele>178.0</ele><time>2026-05-03T16:34:17.999Z</time></trkpt><trkpt lat="43.930943107942085" lon="11.494497069646904"><ele>178.0</ele><time>2026-05-03T16:34:18.999Z</time></trkpt><trkpt lat="43.93097252364121" lon="11.494663821450363"><ele>178.0</ele><time>2026-05-03T16:34:19.999Z</time></trkpt><trkpt lat="43.930952120976706" lon="11.494838925314193"><ele>179.5</ele><time>2026-05-03T16:34:20.999Z</time></trkpt><trkpt lat="43.930895109680044" lon="11.495007231933933"><ele>181.0</ele><time>2026-05-03T16:34:21.999Z</time></trkpt><trkpt lat="43.930814798305285" lon="11.495175299263733"><ele>182.5</ele><time>2026-05-03T16:34:22.999Z</time></trkpt><trkpt lat="43.9307514769473" lon="11.495380058958785"><ele>184.0</ele><time>2026-05-03T16:34:23.999Z</time></trkpt><trkpt lat="43.93071878193874" lon="11.495620390394741"><ele>187.0</ele><time>2026-05-03T16:34:24.999Z</time></trkpt><trkpt lat="43.93070028507169" lon="11.495883502872513"><ele>190.0</ele><time>2026-05-03T16:34:25.999Z</time></trkpt><trkpt lat="43.93070244994141" lon="11.496155505329243"><ele>193.0</ele><time>2026-05-03T16:34:27Z</time></trkpt><trkpt lat="43.930720518306266" lon="11.496397316937276"><ele>194.0</ele><time>2026-05-03T16:34:28Z</time></trkpt><trkpt lat="43.93073573255357" lon="11.496594621163812"><ele>195.0</ele><time>2026-05-03T16:34:29Z</time></trkpt><trkpt lat="43.93074127901212" lon="11.496764138124469"><ele>196.0</ele><time>2026-05-03T16:34:30Z</time></trkpt><trkpt lat="43.93073188810822" lon="11.49691651591782"><ele>197.0</ele><time>2026-05-03T16:34:31Z</time></trkpt><trkpt lat="43.93068545899192" lon="11.497030216560537"><ele>200.25</ele><time>2026-05-03T16:34:32Z</time></trkpt><trkpt lat="43.930584297019344" lon="11.497090862287186"><ele>203.5</ele><time>2026-05-03T16:34:33Z</time></trkpt><trkpt lat="43.93045477657422" lon="11.49716458836025"><ele>206.75</ele><time>2026-05-03T16:34:34Z</time></trkpt><trkpt lat="43.93029732680577" lon="11.497267708392657"><ele>210.0</ele><time>2026-05-03T16:34:35Z</time></trkpt><trkpt lat="43.93012485161065" lon="11.497380629991"><ele>210.66666666666669</ele><time>2026-05-03T16:34:36Z</time></trkpt><trkpt lat="43.929943727877976" lon="11.497543645843049"><ele>211.33333333333334</ele><time>2026-05-03T16:34:37Z</time></trkpt><trkpt lat="43.92977027660345" lon="11.497735800375873"><ele>212.0</ele><time>2026-05-03T16:34:38Z</time></trkpt><trkpt lat="43.92961331154267" lon="11.497959239246107"><ele>212.0</ele><time>2026-05-03T16:34:39Z</time></trkpt><trkpt lat="43.92947170082494" lon="11.498208515241902"><ele>212.0</ele><time>2026-05-03T16:34:40Z</time></trkpt><trkpt lat="43.929330217100855" lon="11.498465859513718"><ele>210.66666666666669</ele><time>2026-05-03T16:34:41Z</time></trkpt><trkpt lat="43.92918183750068" lon="11.49867309513242"><ele>209.33333333333331</ele><time>2026-05-03T16:34:42Z</time></trkpt><trkpt lat="43.92906120473437" lon="11.498880877269539"><ele>208.0</ele><time>2026-05-03T16:34:43Z</time></trkpt><trkpt lat="43.92895170356384" lon="11.499080586727528"><ele>208.0</ele><time>2026-05-03T16:34:44Z</time></trkpt><trkpt lat="43.928854664596955" lon="11.499270364776482"><ele>208.0</ele><time>2026-05-03T16:34:45Z</time></trkpt><trkpt lat="43.92874412238003" lon="11.499391053560666"><ele>208.0</ele><time>2026-05-03T16:34:46Z</time></trkpt><trkpt lat="43.928645366387066" lon="11.499433634445035"><ele>208.0</ele><time>2026-05-03T16:34:47Z</time></trkpt><trkpt lat="43.92856023821319" lon="11.499417103218049"><ele>208.0</ele><time>2026-05-03T16:34:48Z</time></trkpt><trkpt lat="43.92849513459981" lon="11.49930085970358"><ele>208.0</ele><time>2026-05-03T16:34:49Z</time></trkpt><trkpt lat="43.92841979351774" lon="11.499186018856106"><ele>208.0</ele><time>2026-05-03T16:34:50Z</time></trkpt><trkpt lat="43.9283324437335" lon="11.499061332051443"><ele>208.0</ele><time>2026-05-03T16:34:51Z</time></trkpt><trkpt lat="43.928215392850284" lon="11.499017131434469"><ele>204.33333333333331</ele><time>2026-05-03T16:34:52Z</time></trkpt><trkpt lat="43.92807933817146" lon="11.499051159102837"><ele>200.66666666666669</ele><time>2026-05-03T16:34:53Z</time></trkpt><trkpt lat="43.92792334228087" lon="11.499139520805754"><ele>197.0</ele><time>2026-05-03T16:34:54Z</time></trkpt><trkpt lat="43.927735590028185" lon="11.499254884989494"><ele>198.33333333333334</ele><time>2026-05-03T16:34:55Z</time></trkpt><trkpt lat="43.92754284250212" lon="11.499351731700434"><ele>199.66666666666669</ele><time>2026-05-03T16:34:56Z</time></trkpt><trkpt lat="43.927355985892035" lon="11.499458345433583"><ele>201.0</ele><time>2026-05-03T16:34:57Z</time></trkpt><trkpt lat="43.92719202960238" lon="11.499588970627347"><ele>201.0</ele><time>2026-05-03T16:34:58Z</time></trkpt><trkpt lat="43.927054174983816" lon="11.499765679383389"><ele>201.0</ele><time>2026-05-03T16:34:59Z</time></trkpt><trkpt lat="43.9269319409324" lon="11.499990456471236"><ele>201.0</ele><time>2026-05-03T16:35:00Z</time></trkpt><trkpt lat="43.926808074286186" lon="11.50021968838403"><ele>197.33333333333334</ele><time>2026-05-03T16:35:01Z</time></trkpt><trkpt lat="43.926675628535094" lon="11.50041508086115"><ele>193.66666666666669</ele><time>2026-05-03T16:35:02Z</time></trkpt><trkpt lat="43.926524476568616" lon="11.500569804479502"><ele>190.0</ele><time>2026-05-03T16:35:03Z</time></trkpt><trkpt lat="43.92635946450538" lon="11.500684546488213"><ele>190.0</ele><time>2026-05-03T16:35:04Z</time></trkpt><trkpt lat="43.926186447876596" lon="11.500746863439895"><ele>190.0</ele><time>2026-05-03T16:35:05Z</time></trkpt><trkpt lat="43.92599814135593" lon="11.500771315288999"><ele>190.0</ele><time>2026-05-03T16:35:06Z</time></trkpt><trkpt lat="43.92579410275109" lon="11.500758892352021"><ele>188.0</ele><time>2026-05-03T16:35:07Z</time></trkpt><trkpt lat="43.92556770626618" lon="11.500726548931837"><ele>186.0</ele><time>2026-05-03T16:35:08Z</time></trkpt><trkpt lat="43.9253307779158" lon="11.50070120046685"><ele>186.0</ele><time>2026-05-03T16:35:09Z</time></trkpt><trkpt lat="43.92510718033363" lon="11.500683237683026"><ele>186.0</ele><time>2026-05-03T16:35:10Z</time></trkpt><trkpt lat="43.92489592354688" lon="11.500667057662213"><ele>186.0</ele><time>2026-05-03T16:35:11Z</time></trkpt><trkpt lat="43.92469589651525" lon="11.500672367202553"><ele>184.33333333333334</ele><time>2026-05-03T16:35:12Z</time></trkpt><trkpt lat="43.9244831069948" lon="11.500715058588414"><ele>182.66666666666669</ele><time>2026-05-03T16:35:13Z</time></trkpt><trkpt lat="43.92426018693981" lon="11.500791892193261"><ele>181.0</ele><time>2026-05-03T16:35:14Z</time></trkpt><trkpt lat="43.92403132272406" lon="11.500909800507934"><ele>179.33333333333334</ele><time>2026-05-03T16:35:15Z</time></trkpt><trkpt lat="43.92382326405943" lon="11.501043548151095"><ele>177.66666666666666</ele><time>2026-05-03T16:35:16Z</time></trkpt><trkpt lat="43.92363044858696" lon="11.501123353782189"><ele>176.0</ele><time>2026-05-03T16:35:17Z</time></trkpt><trkpt lat="43.92344923375785" lon="11.50116386618804"><ele>176.0</ele><time>2026-05-03T16:35:18Z</time></trkpt><trkpt lat="43.92327392476243" lon="11.501212747587497"><ele>176.0</ele><time>2026-05-03T16:35:18.999Z</time></trkpt><trkpt lat="43.9230936464612" lon="11.501227177720237"><ele>176.0</ele><time>2026-05-03T16:35:19.999Z</time></trkpt><trkpt lat="43.92291616438519" lon="11.50125376554862"><ele>176.0</ele><time>2026-05-03T16:35:20.999Z</time></trkpt><trkpt lat="43.922749337256676" lon="11.501298360810411"><ele>176.0</ele><time>2026-05-03T16:35:21.999Z</time></trkpt><trkpt lat="43.92259170565921" lon="11.501358985521406"><ele>176.0</ele><time>2026-05-03T16:35:22.999Z</time></trkpt><trkpt lat="43.92243860952638" lon="11.5014540448689"><ele>175.33333333333331</ele><time>2026-05-03T16:35:23.999Z</time></trkpt><trkpt lat="43.92226108963421" lon="11.501558353528075"><ele>174.66666666666666</ele><time>2026-05-03T16:35:24.999Z</time></trkpt><trkpt lat="43.922070880604274" lon="11.501692443540305"><ele>174.0</ele><time>2026-05-03T16:35:25.999Z</time></trkpt><trkpt lat="43.92187739390539" lon="11.50185284716831"><ele>174.0</ele><time>2026-05-03T16:35:26.999Z</time></trkpt><trkpt lat="43.921649993698786" lon="11.50199838530312"><ele>174.0</ele><time>2026-05-03T16:35:27.999Z</time></trkpt><trkpt lat="43.92141416112938" lon="11.50216137368965"><ele>174.0</ele><time>2026-05-03T16:35:28.999Z</time></trkpt><trkpt lat="43.921169185283325" lon="11.502340944935522"><ele>174.0</ele><time>2026-05-03T16:35:29.999Z</time></trkpt><trkpt lat="43.92091646757715" lon="11.5025252060064"><ele>172.0</ele><time>2026-05-03T16:35:30.999Z</time></trkpt><trkpt lat="43.92064991382497" lon="11.502720463401293"><ele>170.0</ele><time>2026-05-03T16:35:31.999Z</time></trkpt><trkpt lat="43.920383532485324" lon="11.502908237724386"><ele>173.5</ele><time>2026-05-03T16:35:32.999Z</time></trkpt><trkpt lat="43.92014964316716" lon="11.503080124558794"><ele>177.0</ele><time>2026-05-03T16:35:33.999Z</time></trkpt><trkpt lat="43.91992880311672" lon="11.503234745303692"><ele>177.0</ele><time>2026-05-03T16:35:34.999Z</time></trkpt><trkpt lat="43.91972246434251" lon="11.50337219135517"><ele>177.0</ele><time>2026-05-03T16:35:35.999Z</time></trkpt><trkpt lat="43.919536922217766" lon="11.50346666562049"><ele>177.0</ele><time>2026-05-03T16:35:36.999Z</time></trkpt><trkpt lat="43.919356503988816" lon="11.503578091704231"><ele>180.5</ele><time>2026-05-03T16:35:37.999Z</time></trkpt><trkpt lat="43.91915943442025" lon="11.503727091322622"><ele>184.0</ele><time>2026-05-03T16:35:38.999Z</time></trkpt><trkpt lat="43.91894951553693" lon="11.503880323516157"><ele>184.0</ele><time>2026-05-03T16:35:39.999Z</time></trkpt><trkpt lat="43.91874445248666" lon="11.50400158509378"><ele>184.0</ele><time>2026-05-03T16:35:40.999Z</time></trkpt><trkpt lat="43.91854940846101" lon="11.504075848774816"><ele>184.0</ele><time>2026-05-03T16:35:41.999Z</time></trkpt><trkpt lat="43.918350666756155" lon="11.504129784490889"><ele>176.0</ele><time>2026-05-03T16:35:42.999Z</time></trkpt><trkpt lat="43.918129948513474" lon="11.504177451990538"><ele>168.0</ele><time>2026-05-03T16:35:43.999Z</time></trkpt><trkpt lat="43.91788816373726" lon="11.504209376080686"><ele>168.0</ele><time>2026-05-03T16:35:44.999Z</time></trkpt><trkpt lat="43.91762843254245" lon="11.50424808717704"><ele>168.0</ele><time>2026-05-03T16:35:45.999Z</time></trkpt><trkpt lat="43.91736296977553" lon="11.504287988207501"><ele>166.5</ele><time>2026-05-03T16:35:46.999Z</time></trkpt><trkpt lat="43.917104616758664" lon="11.504332436899283"><ele>165.0</ele><time>2026-05-03T16:35:47.999Z</time></trkpt><trkpt lat="43.91685406152791" lon="11.50438447056689"><ele>166.5</ele><time>2026-05-03T16:35:48.999Z</time></trkpt><trkpt lat="43.91659437802676" lon="11.504463135582247"><ele>168.0</ele><time>2026-05-03T16:35:49.999Z</time></trkpt><trkpt lat="43.916324639227085" lon="11.50456362062402"><ele>172.5</ele><time>2026-05-03T16:35:50.999Z</time></trkpt><trkpt lat="43.91604201123691" lon="11.504672511745538"><ele>177.0</ele><time>2026-05-03T16:35:51.999Z</time></trkpt><trkpt lat="43.91574766781084" lon="11.504782435178635"><ele>177.0</ele><time>2026-05-03T16:35:52.999Z</time></trkpt><trkpt lat="43.91543739980495" lon="11.504891356118815"><ele>177.0</ele><time>2026-05-03T16:35:53.999Z</time></trkpt><trkpt lat="43.91512130089266" lon="11.505002213942165"><ele>171.5</ele><time>2026-05-03T16:35:54.999Z</time></trkpt><trkpt lat="43.914830513532415" lon="11.505105038579025"><ele>166.0</ele><time>2026-05-03T16:35:55.999Z</time></trkpt><trkpt lat="43.91459945236595" lon="11.50518623986327"><ele>166.0</ele><time>2026-05-03T16:35:56.999Z</time></trkpt><trkpt lat="43.9144187109951" lon="11.505246560708514"><ele>166.0</ele><time>2026-05-03T16:35:57.999Z</time></trkpt><trkpt lat="43.914239386549916" lon="11.505301567474643"><ele>166.0</ele><time>2026-05-03T16:35:58.999Z</time></trkpt><trkpt lat="43.91404365053799" lon="11.505352478825788"><ele>166.0</ele><time>2026-05-03T16:35:59.999Z</time></trkpt><trkpt lat="43.91382993688011" lon="11.505400220544328"><ele>166.0</ele><time>2026-05-03T16:36:00.999Z</time></trkpt><trkpt lat="43.91360039318095" lon="11.505449329910459"><ele>166.0</ele><time>2026-05-03T16:36:01.999Z</time></trkpt><trkpt lat="43.913369521783906" lon="11.505506814061214"><ele>166.0</ele><time>2026-05-03T16:36:02.999Z</time></trkpt><trkpt lat="43.91315197369636" lon="11.505576677853028"><ele>166.0</ele><time>2026-05-03T16:36:03.999Z</time></trkpt><trkpt lat="43.91294352850782" lon="11.505674022533908"><ele>166.0</ele><time>2026-05-03T16:36:04.999Z</time></trkpt><trkpt lat="43.91273564158052" lon="11.505804514558148"><ele>162.5</ele><time>2026-05-03T16:36:05.999Z</time></trkpt><trkpt lat="43.91252545842542" lon="11.505956936051533"><ele>159.0</ele><time>2026-05-03T16:36:06.999Z</time></trkpt><trkpt lat="43.91230324487927" lon="11.506134112950157"><ele>160.5</ele><time>2026-05-03T16:36:07.999Z</time></trkpt><trkpt lat="43.912072082453136" lon="11.506314111620233"><ele>162.0</ele><time>2026-05-03T16:36:08.999Z</time></trkpt><trkpt lat="43.91182835624936" lon="11.506515262923438"><ele>160.5</ele><time>2026-05-03T16:36:09.999Z</time></trkpt><trkpt lat="43.91159199347091" lon="11.506727766091496"><ele>159.0</ele><time>2026-05-03T16:36:10.999Z</time></trkpt><trkpt lat="43.9113755646299" lon="11.506933179590224"><ele>163.0</ele><time>2026-05-03T16:36:11.999Z</time></trkpt><trkpt lat="43.91119236443474" lon="11.507100636430016"><ele>167.0</ele><time>2026-05-03T16:36:12.999Z</time></trkpt><trkpt lat="43.91104036471723" lon="11.507221942166472"><ele>171.0</ele><time>2026-05-03T16:36:13.999Z</time></trkpt><trkpt lat="43.91091020723969" lon="11.507287318287934"><ele>173.0</ele><time>2026-05-03T16:36:14.999Z</time></trkpt><trkpt lat="43.91077798072173" lon="11.507309718454058"><ele>175.0</ele><time>2026-05-03T16:36:15.999Z</time></trkpt><trkpt lat="43.91064938160613" lon="11.507282551203609"><ele>177.0</ele><time>2026-05-03T16:36:16.999Z</time></trkpt><trkpt lat="43.91050568368692" lon="11.507205991329284"><ele>179.0</ele><time>2026-05-03T16:36:17.999Z</time></trkpt><trkpt lat="43.91033224309272" lon="11.50712854361981"><ele>174.33333333333331</ele><time>2026-05-03T16:36:18.999Z</time></trkpt><trkpt lat="43.91012545005984" lon="11.507046383568106"><ele>169.66666666666666</ele><time>2026-05-03T16:36:19.999Z</time></trkpt><trkpt lat="43.90990424111242" lon="11.506950861531418"><ele>165.0</ele><time>2026-05-03T16:36:20.999Z</time></trkpt><trkpt lat="43.909701091848454" lon="11.506835727154773"><ele>165.0</ele><time>2026-05-03T16:36:21.999Z</time></trkpt><trkpt lat="43.90953396509903" lon="11.50670950639762"><ele>165.0</ele><time>2026-05-03T16:36:22.999Z</time></trkpt><trkpt lat="43.90937256965602" lon="11.50656994247662"><ele>165.0</ele><time>2026-05-03T16:36:23.999Z</time></trkpt><trkpt lat="43.90923312876512" lon="11.506431653414664"><ele>163.25</ele><time>2026-05-03T16:36:24.999Z</time></trkpt><trkpt lat="43.9091221673516" lon="11.506305103096361"><ele>161.5</ele><time>2026-05-03T16:36:25.999Z</time></trkpt><trkpt lat="43.90900706694423" lon="11.50621674729886"><ele>159.75</ele><time>2026-05-03T16:36:26.999Z</time></trkpt><trkpt lat="43.90887267895724" lon="11.50616689862263"><ele>158.0</ele><time>2026-05-03T16:36:27.999Z</time></trkpt><trkpt lat="43.908732237188396" lon="11.506161082322098"><ele>158.0</ele><time>2026-05-03T16:36:28.999Z</time></trkpt><trkpt lat="43.90858691080932" lon="11.506205206461805"><ele>158.0</ele><time>2026-05-03T16:36:29.999Z</time></trkpt><trkpt lat="43.90845572204031" lon="11.506284507797178"><ele>158.0</ele><time>2026-05-03T16:36:30.999Z</time></trkpt><trkpt lat="43.9083313750677" lon="11.506355243548075"><ele>158.0</ele><time>2026-05-03T16:36:31.999Z</time></trkpt><trkpt lat="43.90821387535501" lon="11.506411022579826"><ele>162.75</ele><time>2026-05-03T16:36:33Z</time></trkpt><trkpt lat="43.90809813066456" lon="11.506443411380978"><ele>167.5</ele><time>2026-05-03T16:36:34Z</time></trkpt><trkpt lat="43.90797421023245" lon="11.50645089534566"><ele>172.25</ele><time>2026-05-03T16:36:35Z</time></trkpt><trkpt lat="43.90783495068108" lon="11.5064389261025"><ele>177.0</ele><time>2026-05-03T16:36:36Z</time></trkpt><trkpt lat="43.907691196815136" lon="11.506401273016088"><ele>178.75</ele><time>2026-05-03T16:36:37Z</time></trkpt><trkpt lat="43.90755580907989" lon="11.506339462923876"><ele>180.5</ele><time>2026-05-03T16:36:38Z</time></trkpt><trkpt lat="43.90742274418989" lon="11.506269836319724"><ele>182.25</ele><time>2026-05-03T16:36:39Z</time></trkpt><trkpt lat="43.90727787530028" lon="11.50620514262908"><ele>184.0</ele><time>2026-05-03T16:36:40Z</time></trkpt><trkpt lat="43.90712778448759" lon="11.506143214085743"><ele>177.33333333333334</ele><time>2026-05-03T16:36:41Z</time></trkpt><trkpt lat="43.90696943311494" lon="11.506080545810166"><ele>170.66666666666666</ele><time>2026-05-03T16:36:42Z</time></trkpt><trkpt lat="43.90681446684371" lon="11.506027131890892"><ele>164.0</ele><time>2026-05-03T16:36:43.001Z</time></trkpt><trkpt lat="43.9066691324964" lon="11.505992276859633"><ele>164.0</ele><time>2026-05-03T16:36:44.001Z</time></trkpt><trkpt lat="43.90651137977091" lon="11.505977528179098"><ele>164.0</ele><time>2026-05-03T16:36:45.001Z</time></trkpt><trkpt lat="43.90633619791676" lon="11.506003268228616"><ele>164.0</ele><time>2026-05-03T16:36:46.001Z</time></trkpt><trkpt lat="43.90613857636191" lon="11.506055942996971"><ele>164.5</ele><time>2026-05-03T16:36:47.001Z</time></trkpt><trkpt lat="43.90590583580722" lon="11.506105580029251"><ele>165.0</ele><time>2026-05-03T16:36:48.001Z</time></trkpt><trkpt lat="43.90564981935222" lon="11.50614288693608"><ele>165.0</ele><time>2026-05-03T16:36:49.001Z</time></trkpt><trkpt lat="43.90537674615295" lon="11.50618780564589"><ele>165.0</ele><time>2026-05-03T16:36:50.001Z</time></trkpt><trkpt lat="43.905085434039535" lon="11.506234449152501"><ele>170.5</ele><time>2026-05-03T16:36:51.001Z</time></trkpt><trkpt lat="43.90478666941239" lon="11.506281274360857"><ele>176.0</ele><time>2026-05-03T16:36:52.001Z</time></trkpt><trkpt lat="43.90450624135024" lon="11.506323063150568"><ele>176.0</ele><time>2026-05-03T16:36:53.001Z</time></trkpt><trkpt lat="43.90427075995948" lon="11.50636097806445"><ele>176.0</ele><time>2026-05-03T16:36:54.001Z</time></trkpt><trkpt lat="43.904054907437086" lon="11.50639198301314"><ele>173.66666666666666</ele><time>2026-05-03T16:36:55.001Z</time></trkpt><trkpt lat="43.9038486086528" lon="11.5064220358178"><ele>171.33333333333334</ele><time>2026-05-03T16:36:56.001Z</time></trkpt><trkpt lat="43.903667762627904" lon="11.506460088830469"><ele>169.0</ele><time>2026-05-03T16:36:57.001Z</time></trkpt><trkpt lat="43.90350982433597" lon="11.50651794793798"><ele>167.33333333333334</ele><time>2026-05-03T16:36:58.001Z</time></trkpt><trkpt lat="43.90336690382807" lon="11.506604448536029"><ele>165.66666666666666</ele><time>2026-05-03T16:36:59.001Z</time></trkpt><trkpt lat="43.90324365805301" lon="11.506738630801799"><ele>164.0</ele><time>2026-05-03T16:37:00.001Z</time></trkpt><trkpt lat="43.90313948828878" lon="11.506918590074193"><ele>168.33333333333331</ele><time>2026-05-03T16:37:01.001Z</time></trkpt><trkpt lat="43.90304341576543" lon="11.507129571662174"><ele>172.66666666666666</ele><time>2026-05-03T16:37:02.001Z</time></trkpt><trkpt lat="43.90291664003229" lon="11.507346453125935"><ele>177.0</ele><time>2026-05-03T16:37:03.001Z</time></trkpt><trkpt lat="43.90277724959591" lon="11.507603547541226"><ele>177.0</ele><time>2026-05-03T16:37:04.001Z</time></trkpt><trkpt lat="43.902620043764564" lon="11.507892898415152"><ele>177.0</ele><time>2026-05-03T16:37:05.001Z</time></trkpt><trkpt lat="43.90245173047089" lon="11.508206945160103"><ele>174.5</ele><time>2026-05-03T16:37:06.001Z</time></trkpt><trkpt lat="43.902273147088124" lon="11.508535016232571"><ele>172.0</ele><time>2026-05-03T16:37:07.001Z</time></trkpt><trkpt lat="43.90209129944426" lon="11.508869277367102"><ele>178.0</ele><time>2026-05-03T16:37:08.001Z</time></trkpt><trkpt lat="43.90193585101524" lon="11.509155013088087"><ele>184.0</ele><time>2026-05-03T16:37:09.001Z</time></trkpt><trkpt lat="43.901818528726174" lon="11.509403128249525"><ele>180.0</ele><time>2026-05-03T16:37:10.001Z</time></trkpt><trkpt lat="43.9017059954361" lon="11.509604070613626"><ele>176.0</ele><time>2026-05-03T16:37:11.001Z</time></trkpt><trkpt lat="43.901575460754096" lon="11.509817460260374"><ele>172.0</ele><time>2026-05-03T16:37:12.001Z</time></trkpt><trkpt lat="43.9014429331838" lon="11.510094312666432"><ele>172.0</ele><time>2026-05-03T16:37:13.001Z</time></trkpt><trkpt lat="43.90127857845182" lon="11.510381657635135"><ele>172.0</ele><time>2026-05-03T16:37:14.001Z</time></trkpt><trkpt lat="43.901118620132586" lon="11.510670811092428"><ele>174.0</ele><time>2026-05-03T16:37:15.001Z</time></trkpt><trkpt lat="43.90098533125475" lon="11.510941972113546"><ele>176.0</ele><time>2026-05-03T16:37:16.001Z</time></trkpt><trkpt lat="43.900865769282035" lon="11.511232577384154"><ele>171.5</ele><time>2026-05-03T16:37:17.001Z</time></trkpt><trkpt lat="43.900737578736" lon="11.51153164112238"><ele>167.0</ele><time>2026-05-03T16:37:18.001Z</time></trkpt><trkpt lat="43.9006176369295" lon="11.511842103552144"><ele>167.0</ele><time>2026-05-03T16:37:19.001Z</time></trkpt><trkpt lat="43.9005461573096" lon="11.512071048595129"><ele>167.0</ele><time>2026-05-03T16:37:20.001Z</time></trkpt><trkpt lat="43.900497665421774" lon="11.51220514923954"><ele>167.0</ele><time>2026-05-03T16:37:21Z</time></trkpt><trkpt lat="43.90044349397902" lon="11.512370594878234"><ele>167.0</ele><time>2026-05-03T16:37:22Z</time></trkpt><trkpt lat="43.90038612673951" lon="11.51256743403487"><ele>166.33333333333331</ele><time>2026-05-03T16:37:23Z</time></trkpt><trkpt lat="43.90032685708204" lon="11.512770901030065"><ele>165.66666666666666</ele><time>2026-05-03T16:37:24Z</time></trkpt><trkpt lat="43.90026905350322" lon="11.512978531542212"><ele>165.0</ele><time>2026-05-03T16:37:25Z</time></trkpt><trkpt lat="43.900213947239735" lon="11.513192907543246"><ele>165.0</ele><time>2026-05-03T16:37:26Z</time></trkpt><trkpt lat="43.90015355823502" lon="11.51341636915076"><ele>165.0</ele><time>2026-05-03T16:37:27Z</time></trkpt><trkpt lat="43.90008991025018" lon="11.513643133283896"><ele>165.0</ele><time>2026-05-03T16:37:28Z</time></trkpt><trkpt lat="43.90001753732026" lon="11.513879383148291"><ele>164.33333333333334</ele><time>2026-05-03T16:37:29Z</time></trkpt><trkpt lat="43.89993009556763" lon="11.514129843154308"><ele>163.66666666666669</ele><time>2026-05-03T16:37:30Z</time></trkpt><trkpt lat="43.89983634673109" lon="11.514374534745109"><ele>163.0</ele><time>2026-05-03T16:37:31Z</time></trkpt><trkpt lat="43.899740749664204" lon="11.51460791028723"><ele>163.0</ele><time>2026-05-03T16:37:32Z</time></trkpt><trkpt lat="43.899649298646025" lon="11.514821270933034"><ele>163.0</ele><time>2026-05-03T16:37:33Z</time></trkpt><trkpt lat="43.89956170270308" lon="11.515017580415751"><ele>163.0</ele><time>2026-05-03T16:37:34Z</time></trkpt><trkpt lat="43.899471153379075" lon="11.515217209445622"><ele>163.0</ele><time>2026-05-03T16:37:35Z</time></trkpt><trkpt lat="43.8993778523081" lon="11.51542120514642"><ele>163.0</ele><time>2026-05-03T16:37:36Z</time></trkpt><trkpt lat="43.89928177608051" lon="11.515623504144214"><ele>163.0</ele><time>2026-05-03T16:37:37Z</time></trkpt><trkpt lat="43.89918754497446" lon="11.515802805318373"><ele>161.66666666666669</ele><time>2026-05-03T16:37:38Z</time></trkpt><trkpt lat="43.89908492675201" lon="11.515957725165556"><ele>160.33333333333334</ele><time>2026-05-03T16:37:39Z</time></trkpt><trkpt lat="43.89895986555932" lon="11.516089458948956"><ele>159.0</ele><time>2026-05-03T16:37:40Z</time></trkpt><trkpt lat="43.898812783709126" lon="11.516209590587785"><ele>159.33333333333334</ele><time>2026-05-03T16:37:41Z</time></trkpt><trkpt lat="43.89864775124121" lon="11.51633126969207"><ele>159.66666666666669</ele><time>2026-05-03T16:37:42Z</time></trkpt><trkpt lat="43.89847661830352" lon="11.516453961513166"><ele>160.0</ele><time>2026-05-03T16:37:43Z</time></trkpt><trkpt lat="43.89830473966005" lon="11.516563095005775"><ele>160.0</ele><time>2026-05-03T16:37:44Z</time></trkpt><trkpt lat="43.898139521771604" lon="11.516650848557456"><ele>160.0</ele><time>2026-05-03T16:37:45Z</time></trkpt><trkpt lat="43.897983532076026" lon="11.516735385306884"><ele>160.0</ele><time>2026-05-03T16:37:46Z</time></trkpt><trkpt lat="43.8978441370975" lon="11.516815150109677"><ele>160.0</ele><time>2026-05-03T16:37:47Z</time></trkpt><trkpt lat="43.89771895712041" lon="11.51689245984493"><ele>160.0</ele><time>2026-05-03T16:37:48Z</time></trkpt><trkpt lat="43.897605448612865" lon="11.516975912578811"><ele>160.0</ele><time>2026-05-03T16:37:49Z</time></trkpt><trkpt lat="43.89749320034735" lon="11.517067777388025"><ele>160.0</ele><time>2026-05-03T16:37:50Z</time></trkpt><trkpt lat="43.89738228166762" lon="11.5171621475905"><ele>160.25</ele><time>2026-05-03T16:37:51Z</time></trkpt><trkpt lat="43.897266768549194" lon="11.517258022851582"><ele>160.5</ele><time>2026-05-03T16:37:52Z</time></trkpt><trkpt lat="43.89715369972607" lon="11.51736031801325"><ele>160.75</ele><time>2026-05-03T16:37:53Z</time></trkpt><trkpt lat="43.89703533353857" lon="11.517463479671937"><ele>161.0</ele><time>2026-05-03T16:37:54Z</time></trkpt><trkpt lat="43.89691698323221" lon="11.517567334114299"><ele>161.0</ele><time>2026-05-03T16:37:55Z</time></trkpt><trkpt lat="43.89679396546081" lon="11.517648130768942"><ele>161.0</ele><time>2026-05-03T16:37:56Z</time></trkpt><trkpt lat="43.89668974308744" lon="11.517765282092276"><ele>161.0</ele><time>2026-05-03T16:37:57Z</time></trkpt><trkpt lat="43.89657025337437" lon="11.517840417580969"><ele>161.0</ele><time>2026-05-03T16:37:58Z</time></trkpt><trkpt lat="43.89645724025396" lon="11.517936509612127"><ele>161.0</ele><time>2026-05-03T16:37:59Z</time></trkpt><trkpt lat="43.896344975079316" lon="11.518032103470308"><ele>161.0</ele><time>2026-05-03T16:38:00Z</time></trkpt><trkpt lat="43.896230509951316" lon="11.51813008228209"><ele>161.0</ele><time>2026-05-03T16:38:01Z</time></trkpt><trkpt lat="43.89611745038946" lon="11.518226857965784"><ele>161.0</ele><time>2026-05-03T16:38:02Z</time></trkpt><trkpt lat="43.89600312244657" lon="11.518324719350664"><ele>160.0</ele><time>2026-05-03T16:38:03Z</time></trkpt><trkpt lat="43.89589178732726" lon="11.518419965056927"><ele>159.0</ele><time>2026-05-03T16:38:04Z</time></trkpt><trkpt lat="43.895782638920394" lon="11.518513240355556"><ele>158.0</ele><time>2026-05-03T16:38:05Z</time></trkpt><trkpt lat="43.89566004502973" lon="11.518616402160012"><ele>157.0</ele><time>2026-05-03T16:38:06Z</time></trkpt><trkpt lat="43.89552876848553" lon="11.518727050464546"><ele>157.25</ele><time>2026-05-03T16:38:07Z</time></trkpt><trkpt lat="43.89539449720372" lon="11.518855200459607"><ele>157.5</ele><time>2026-05-03T16:38:08Z</time></trkpt><trkpt lat="43.89526757617959" lon="11.518947576542327"><ele>157.75</ele><time>2026-05-03T16:38:09Z</time></trkpt><trkpt lat="43.89515285804912" lon="11.519038405943702"><ele>158.0</ele><time>2026-05-03T16:38:10Z</time></trkpt><trkpt lat="43.895039577047925" lon="11.519126762977681"><ele>158.0</ele><time>2026-05-03T16:38:11Z</time></trkpt><trkpt lat="43.894922435470775" lon="11.519210333977062"><ele>158.0</ele><time>2026-05-03T16:38:12Z</time></trkpt><trkpt lat="43.89480251898139" lon="11.519293516862858"><ele>158.0</ele><time>2026-05-03T16:38:13Z</time></trkpt><trkpt lat="43.894687485736156" lon="11.519373934959154"><ele>158.0</ele><time>2026-05-03T16:38:14Z</time></trkpt><trkpt lat="43.894570659477196" lon="11.519454406719664"><ele>158.0</ele><time>2026-05-03T16:38:15Z</time></trkpt><trkpt lat="43.894457172096764" lon="11.519531328741092"><ele>158.0</ele><time>2026-05-03T16:38:16Z</time></trkpt><trkpt lat="43.89435379802422" lon="11.519595502792784"><ele>158.0</ele><time>2026-05-03T16:38:17Z</time></trkpt><trkpt lat="43.89424943885261" lon="11.519661306489018"><ele>158.0</ele><time>2026-05-03T16:38:18Z</time></trkpt><trkpt lat="43.89413285874118" lon="11.519708970729498"><ele>158.5</ele><time>2026-05-03T16:38:19Z</time></trkpt><trkpt lat="43.89402146229166" lon="11.519810890568161"><ele>159.0</ele><time>2026-05-03T16:38:20Z</time></trkpt><trkpt lat="43.89388901666825" lon="11.519886647219739"><ele>159.5</ele><time>2026-05-03T16:38:21Z</time></trkpt><trkpt lat="43.893749172193004" lon="11.519957615933627"><ele>160.0</ele><time>2026-05-03T16:38:22Z</time></trkpt><trkpt lat="43.89360180245589" lon="11.520034994822074"><ele>160.0</ele><time>2026-05-03T16:38:23Z</time></trkpt><trkpt lat="43.893453265841636" lon="11.520120714624571"><ele>160.0</ele><time>2026-05-03T16:38:24Z</time></trkpt><trkpt lat="43.89329839132591" lon="11.520209091070287"><ele>160.0</ele><time>2026-05-03T16:38:25Z</time></trkpt><trkpt lat="43.89316702722317" lon="11.520293447944603"><ele>159.5</ele><time>2026-05-03T16:38:26Z</time></trkpt><trkpt lat="43.8930349811979" lon="11.520374406597057"><ele>159.0</ele><time>2026-05-03T16:38:27Z</time></trkpt><trkpt lat="43.89291423079912" lon="11.520454182408201"><ele>158.5</ele><time>2026-05-03T16:38:28Z</time></trkpt><trkpt lat="43.89278789529869" lon="11.520533774630099"><ele>158.0</ele><time>2026-05-03T16:38:29Z</time></trkpt><trkpt lat="43.892668483187585" lon="11.52061804067145"><ele>158.75</ele><time>2026-05-03T16:38:30Z</time></trkpt><trkpt lat="43.89255600954034" lon="11.520711701707606"><ele>159.5</ele><time>2026-05-03T16:38:31Z</time></trkpt><trkpt lat="43.89245355243343" lon="11.5207910477914"><ele>160.25</ele><time>2026-05-03T16:38:32Z</time></trkpt><trkpt lat="43.892355716400246" lon="11.520881898328238"><ele>161.0</ele><time>2026-05-03T16:38:33Z</time></trkpt><trkpt lat="43.89225807664233" lon="11.520943106688723"><ele>161.0</ele><time>2026-05-03T16:38:34Z</time></trkpt><trkpt lat="43.89216628532881" lon="11.52102299568546"><ele>161.0</ele><time>2026-05-03T16:38:35Z</time></trkpt><trkpt lat="43.89205943600271" lon="11.521120364160998"><ele>161.0</ele><time>2026-05-03T16:38:36Z</time></trkpt><trkpt lat="43.891942691071755" lon="11.521225648292484"><ele>161.0</ele><time>2026-05-03T16:38:37Z</time></trkpt><trkpt lat="43.891825074286395" lon="11.521331555315935"><ele>161.0</ele><time>2026-05-03T16:38:38Z</time></trkpt><trkpt lat="43.89171352000081" lon="11.5214322114492"><ele>161.0</ele><time>2026-05-03T16:38:39.001Z</time></trkpt><trkpt lat="43.89161206172093" lon="11.52152375788507"><ele>161.0</ele><time>2026-05-03T16:38:40.001Z</time></trkpt><trkpt lat="43.891525581591836" lon="11.521628113013954"><ele>161.0</ele><time>2026-05-03T16:38:41.001Z</time></trkpt><trkpt lat="43.89143280711467" lon="11.521724763655577"><ele>161.0</ele><time>2026-05-03T16:38:42.001Z</time></trkpt><trkpt lat="43.891345226688635" lon="11.521818798105693"><ele>161.0</ele><time>2026-05-03T16:38:43.001Z</time></trkpt><trkpt lat="43.89127475851428" lon="11.521905905954949"><ele>161.0</ele><time>2026-05-03T16:38:44.001Z</time></trkpt><trkpt lat="43.89122754974126" lon="11.52198450832418"><ele>161.0</ele><time>2026-05-03T16:38:45.001Z</time></trkpt><trkpt lat="43.89118444393826" lon="11.52205900570028"><ele>161.0</ele><time>2026-05-03T16:38:46.001Z</time></trkpt><trkpt lat="43.89114947087673" lon="11.522134363245387"><ele>161.0</ele><time>2026-05-03T16:38:47.001Z</time></trkpt><trkpt lat="43.8911192817288" lon="11.522220345156422"><ele>161.16666666666666</ele><time>2026-05-03T16:38:48.001Z</time></trkpt><trkpt lat="43.89109071583225" lon="11.522311262306404"><ele>161.33333333333331</ele><time>2026-05-03T16:38:49.001Z</time></trkpt><trkpt lat="43.89106347175318" lon="11.52239237224072"><ele>161.5</ele><time>2026-05-03T16:38:50.001Z</time></trkpt><trkpt lat="43.89102319414237" lon="11.522525099292002"><ele>161.66666666666666</ele><time>2026-05-03T16:38:52.001Z</time></trkpt><trkpt lat="43.890991965160154" lon="11.522649665424163"><ele>161.83333333333334</ele><time>2026-05-03T16:38:54.001Z</time></trkpt><trkpt lat="43.89097053909296" lon="11.522790762290782"><ele>162.0</ele><time>2026-05-03T16:38:56.001Z</time></trkpt><trkpt lat="43.89096448657897" lon="11.522922371874547"><ele>162.16666666666666</ele><time>2026-05-03T16:38:58.001Z</time></trkpt><trkpt lat="43.89096238176541" lon="11.523037269068519"><ele>162.33333333333334</ele><time>2026-05-03T16:39:00.001Z</time></trkpt><trkpt lat="43.89095486300283" lon="11.523157945787743"><ele>162.5</ele><time>2026-05-03T16:39:03.001Z</time></trkpt><trkpt lat="43.89090418944568" lon="11.523227995244168"><ele>162.66666666666669</ele><time>2026-05-03T16:39:05.001Z</time></trkpt><trkpt lat="43.89080369729709" lon="11.523261297412578"><ele>162.83333333333334</ele><time>2026-05-03T16:39:07.001Z</time></trkpt><trkpt lat="43.890737412401506" lon="11.523269817421385"><ele>163.0</ele><time>2026-05-03T16:39:08.001Z</time></trkpt><trkpt lat="43.89065537518939" lon="11.523272941929216"><ele>162.25</ele><time>2026-05-03T16:39:09.001Z</time></trkpt><trkpt lat="43.89055545495934" lon="11.523273811998719"><ele>161.5</ele><time>2026-05-03T16:39:10.001Z</time></trkpt><trkpt lat="43.89044806120689" lon="11.523294537377597"><ele>160.75</ele><time>2026-05-03T16:39:11.001Z</time></trkpt><trkpt lat="43.890340027031726" lon="11.523351629413003"><ele>160.0</ele><time>2026-05-03T16:39:12.001Z</time></trkpt><trkpt lat="43.890235046299146" lon="11.523450466886967"><ele>160.0</ele><time>2026-05-03T16:39:13.001Z</time></trkpt><trkpt lat="43.89013180326182" lon="11.523567079796585"><ele>160.0</ele><time>2026-05-03T16:39:14.001Z</time></trkpt><trkpt lat="43.89003563037576" lon="11.523728177230026"><ele>160.0</ele><time>2026-05-03T16:39:15.001Z</time></trkpt><trkpt lat="43.88993812549364" lon="11.523899728927757"><ele>160.0</ele><time>2026-05-03T16:39:16.001Z</time></trkpt><trkpt lat="43.88983650243412" lon="11.524065846809041"><ele>158.0</ele><time>2026-05-03T16:39:17Z</time></trkpt><trkpt lat="43.889722542808066" lon="11.524222190055983"><ele>156.0</ele><time>2026-05-03T16:39:18Z</time></trkpt><trkpt lat="43.889599187096344" lon="11.524360750376067"><ele>154.0</ele><time>2026-05-03T16:39:19Z</time></trkpt><trkpt lat="43.88947130708337" lon="11.524482083342926"><ele>154.0</ele><time>2026-05-03T16:39:20Z</time></trkpt><trkpt lat="43.889341185418914" lon="11.524601638758746"><ele>154.0</ele><time>2026-05-03T16:39:21Z</time></trkpt><trkpt lat="43.889209700989994" lon="11.524720954434416"><ele>154.0</ele><time>2026-05-03T16:39:22Z</time></trkpt><trkpt lat="43.88908263259356" lon="11.524823903184405"><ele>153.6</ele><time>2026-05-03T16:39:23Z</time></trkpt><trkpt lat="43.88896216961416" lon="11.524908652043928"><ele>153.2</ele><time>2026-05-03T16:39:24Z</time></trkpt><trkpt lat="43.88885767971414" lon="11.52496914281745"><ele>152.79999999999998</ele><time>2026-05-03T16:39:25Z</time></trkpt><trkpt lat="43.88877349161552" lon="11.525002817275553"><ele>152.4</ele><time>2026-05-03T16:39:26Z</time></trkpt><trkpt lat="43.88869639606823" lon="11.525032745810595"><ele>152.0</ele><time>2026-05-03T16:39:27Z</time></trkpt><trkpt lat="43.88862949863514" lon="11.525066555570156"><ele>152.0</ele><time>2026-05-03T16:39:28Z</time></trkpt><trkpt lat="43.88856931773233" lon="11.52510257165984"><ele>152.0</ele><time>2026-05-03T16:40:05Z</time></trkpt><trkpt lat="43.88849825469043" lon="11.52515245293566"><ele>152.0</ele><time>2026-05-03T16:40:08Z</time></trkpt><trkpt lat="43.888395468259795" lon="11.525224652465026"><ele>152.0</ele><time>2026-05-03T16:40:10Z</time></trkpt><trkpt lat="43.88833236845296" lon="11.52526435110185"><ele>152.0</ele><time>2026-05-03T16:40:12Z</time></trkpt><trkpt lat="43.88832903975127" lon="11.525378700450553"><ele>152.0</ele><time>2026-05-03T16:40:17Z</time></trkpt><trkpt lat="43.88839631710431" lon="11.525398608464918"><ele>152.0</ele><time>2026-05-03T16:40:20Z</time></trkpt><trkpt lat="43.88845943426364" lon="11.525380457240592"><ele>152.0</ele><time>2026-05-03T16:40:22Z</time></trkpt><trkpt lat="43.888526998273434" lon="11.525373900939696"><ele>152.0</ele><time>2026-05-03T16:43:27Z</time></trkpt><trkpt lat="43.888602523451105" lon="11.52537113020711"><ele>152.0</ele><time>2026-05-03T16:43:33Z</time></trkpt><trkpt lat="43.88867282380161" lon="11.525337397054074"><ele>152.0</ele><time>2026-05-03T16:45:52Z</time></trkpt><trkpt lat="43.88867633095225" lon="11.52524795722939"><ele>152.0</ele><time>2026-05-03T16:45:56Z</time></trkpt><trkpt lat="43.88870465268143" lon="11.525139967421058"><ele>152.0</ele><time>2026-05-03T16:45:59Z</time></trkpt><trkpt lat="43.888788349308484" lon="11.525072610685452"><ele>152.0</ele><time>2026-05-03T16:46:01Z</time></trkpt><trkpt lat="43.888906842897846" lon="11.525007088834977"><ele>152.0</ele><time>2026-05-03T16:46:03Z</time></trkpt><trkpt lat="43.88897399603612" lon="11.524963994923878"><ele>152.0</ele><time>2026-05-03T16:46:04Z</time></trkpt><trkpt lat="43.88904082511361" lon="11.524918004103236"><ele>152.0</ele><time>2026-05-03T16:46:05Z</time></trkpt><trkpt lat="43.88910687988327" lon="11.524864830443079"><ele>152.0</ele><time>2026-05-03T16:46:06Z</time></trkpt><trkpt lat="43.88916686194363" lon="11.524816039520582"><ele>152.0</ele><time>2026-05-03T16:46:07Z</time></trkpt><trkpt lat="43.88922517232808" lon="11.524764423632057"><ele>152.33333333333331</ele><time>2026-05-03T16:46:08Z</time></trkpt><trkpt lat="43.889287173119456" lon="11.52470881419868"><ele>152.66666666666666</ele><time>2026-05-03T16:46:09Z</time></trkpt><trkpt lat="43.88934856099035" lon="11.524654776623207"><ele>153.0</ele><time>2026-05-03T16:46:10Z</time></trkpt><trkpt lat="43.88941372743805" lon="11.524597485599521"><ele>153.33333333333334</ele><time>2026-05-03T16:46:11Z</time></trkpt><trkpt lat="43.88947727181629" lon="11.524543419349724"><ele>153.66666666666669</ele><time>2026-05-03T16:46:12Z</time></trkpt><trkpt lat="43.889541886325944" lon="11.524483681089924"><ele>154.0</ele><time>2026-05-03T16:46:13Z</time></trkpt><trkpt lat="43.88960642402842" lon="11.52443015634365"><ele>154.0</ele><time>2026-05-03T16:46:14Z</time></trkpt><trkpt lat="43.88967696796967" lon="11.524392028844154"><ele>154.0</ele><time>2026-05-03T16:46:15Z</time></trkpt><trkpt lat="43.889752951545674" lon="11.524367027521821"><ele>154.0</ele><time>2026-05-03T16:46:16Z</time></trkpt><trkpt lat="43.88982981616696" lon="11.524364635153848"><ele>154.0</ele><time>2026-05-03T16:46:17Z</time></trkpt><trkpt lat="43.889907480228885" lon="11.52437222439209"><ele>154.0</ele><time>2026-05-03T16:46:18Z</time></trkpt><trkpt lat="43.889981670693714" lon="11.524391184101253"><ele>154.0</ele><time>2026-05-03T16:46:19Z</time></trkpt><trkpt lat="43.89005304878513" lon="11.524416550685313"><ele>154.66666666666669</ele><time>2026-05-03T16:46:20Z</time></trkpt><trkpt lat="43.89012674164266" lon="11.524438885957565"><ele>155.33333333333334</ele><time>2026-05-03T16:46:21Z</time></trkpt><trkpt lat="43.89020526315046" lon="11.524462358434285"><ele>156.0</ele><time>2026-05-03T16:46:22Z</time></trkpt><trkpt lat="43.89028852941627" lon="11.52448975232567"><ele>156.66666666666666</ele><time>2026-05-03T16:46:23Z</time></trkpt><trkpt lat="43.89037715385511" lon="11.524518065669765"><ele>157.33333333333331</ele><time>2026-05-03T16:46:24Z</time></trkpt><trkpt lat="43.89046860262102" lon="11.524551784206901"><ele>158.0</ele><time>2026-05-03T16:46:25Z</time></trkpt><trkpt lat="43.89056555100329" lon="11.524591614334488"><ele>158.0</ele><time>2026-05-03T16:46:26Z</time></trkpt><trkpt lat="43.89065920897915" lon="11.524628798614733"><ele>158.0</ele><time>2026-05-03T16:46:27Z</time></trkpt><trkpt lat="43.89075440740297" lon="11.5246620668843"><ele>158.0</ele><time>2026-05-03T16:46:28Z</time></trkpt><trkpt lat="43.89084755218066" lon="11.524697382276752"><ele>158.0</ele><time>2026-05-03T16:46:29Z</time></trkpt><trkpt lat="43.89092792473979" lon="11.524723032065447"><ele>158.0</ele><time>2026-05-03T16:46:30Z</time></trkpt><trkpt lat="43.89099028631281" lon="11.524736023647474"><ele>158.0</ele><time>2026-05-03T16:46:31Z</time></trkpt><trkpt lat="43.89108370582856" lon="11.524686751591247"><ele>159.2</ele><time>2026-05-03T16:46:33Z</time></trkpt><trkpt lat="43.891117075699725" lon="11.524512939598003"><ele>160.4</ele><time>2026-05-03T16:46:36Z</time></trkpt><trkpt lat="43.891101667446925" lon="11.524421865949042"><ele>161.6</ele><time>2026-05-03T16:46:37Z</time></trkpt><trkpt lat="43.89109087484524" lon="11.524308777404679"><ele>162.79999999999998</ele><time>2026-05-03T16:46:38Z</time></trkpt><trkpt lat="43.89107988861467" lon="11.524193299359196"><ele>164.0</ele><time>2026-05-03T16:46:39Z</time></trkpt><trkpt lat="43.891069332733124" lon="11.5240741984882"><ele>164.0</ele><time>2026-05-03T16:46:40Z</time></trkpt><trkpt lat="43.89105706075357" lon="11.523946350175793"><ele>164.0</ele><time>2026-05-03T16:46:41Z</time></trkpt><trkpt lat="43.891044612595245" lon="11.523812124405813"><ele>164.0</ele><time>2026-05-03T16:46:42Z</time></trkpt><trkpt lat="43.891032259004355" lon="11.52368088745482"><ele>164.0</ele><time>2026-05-03T16:46:43Z</time></trkpt><trkpt lat="43.89102373748048" lon="11.523563996642803"><ele>164.0</ele><time>2026-05-03T16:46:44Z</time></trkpt><trkpt lat="43.89101443788821" lon="11.52346428265591"><ele>164.0</ele><time>2026-05-03T16:46:45Z</time></trkpt><trkpt lat="43.89100817684942" lon="11.52332194470631"><ele>163.79999999999998</ele><time>2026-05-03T16:46:47Z</time></trkpt><trkpt lat="43.89098725743277" lon="11.523160551664194"><ele>163.6</ele><time>2026-05-03T16:46:50Z</time></trkpt><trkpt lat="43.89098234929791" lon="11.523053948094523"><ele>163.4</ele><time>2026-05-03T16:46:51Z</time></trkpt><trkpt lat="43.89098857992196" lon="11.522930927042388"><ele>163.2</ele><time>2026-05-03T16:46:52Z</time></trkpt><trkpt lat="43.891004048952745" lon="11.52280515504702"><ele>163.0</ele><time>2026-05-03T16:46:53Z</time></trkpt><trkpt lat="43.891022274049256" lon="11.522683527644821"><ele>162.8</ele><time>2026-05-03T16:46:54Z</time></trkpt><trkpt lat="43.89104589378736" lon="11.522563348156348"><ele>162.60000000000002</ele><time>2026-05-03T16:46:55Z</time></trkpt><trkpt lat="43.891084190936944" lon="11.522440562819764"><ele>162.39999999999998</ele><time>2026-05-03T16:46:56Z</time></trkpt><trkpt lat="43.891128499692044" lon="11.522314183680622"><ele>162.2</ele><time>2026-05-03T16:46:57Z</time></trkpt><trkpt lat="43.891178595637854" lon="11.522179362325051"><ele>162.0</ele><time>2026-05-03T16:46:58Z</time></trkpt><trkpt lat="43.89123591232021" lon="11.522051760760439"><ele>161.8</ele><time>2026-05-03T16:46:59Z</time></trkpt><trkpt lat="43.89130307411145" lon="11.521935859046682"><ele>161.6</ele><time>2026-05-03T16:47:00Z</time></trkpt><trkpt lat="43.891382005885674" lon="11.521829159309295"><ele>161.4</ele><time>2026-05-03T16:47:01Z</time></trkpt><trkpt lat="43.891467548571306" lon="11.521729213966884"><ele>161.20000000000002</ele><time>2026-05-03T16:47:02Z</time></trkpt><trkpt lat="43.891564280548955" lon="11.521634626278523"><ele>161.0</ele><time>2026-05-03T16:47:03Z</time></trkpt><trkpt lat="43.89166757530304" lon="11.521540252188302"><ele>161.0</ele><time>2026-05-03T16:47:04Z</time></trkpt><trkpt lat="43.891776320147464" lon="11.521438942959561"><ele>161.0</ele><time>2026-05-03T16:47:05Z</time></trkpt><trkpt lat="43.89189061660296" lon="11.521334505346525"><ele>161.0</ele><time>2026-05-03T16:47:06Z</time></trkpt><trkpt lat="43.89201254521524" lon="11.521228657643109"><ele>161.0</ele><time>2026-05-03T16:47:07Z</time></trkpt><trkpt lat="43.89213625940896" lon="11.521115151228418"><ele>161.0</ele><time>2026-05-03T16:47:08Z</time></trkpt><trkpt lat="43.892260927631625" lon="11.521003527508896"><ele>161.0</ele><time>2026-05-03T16:47:09Z</time></trkpt><trkpt lat="43.89238228656488" lon="11.520900243504622"><ele>161.0</ele><time>2026-05-03T16:47:10Z</time></trkpt><trkpt lat="43.89250672267386" lon="11.520797262425184"><ele>161.0</ele><time>2026-05-03T16:47:11Z</time></trkpt><trkpt lat="43.892636242723285" lon="11.52069319990249"><ele>161.33333333333331</ele><time>2026-05-03T16:47:12Z</time></trkpt><trkpt lat="43.892770182512706" lon="11.520593039071207"><ele>161.66666666666666</ele><time>2026-05-03T16:47:13Z</time></trkpt><trkpt lat="43.89290647925443" lon="11.520498149630487"><ele>162.0</ele><time>2026-05-03T16:47:14Z</time></trkpt><trkpt lat="43.89304521937197" lon="11.520404663404971"><ele>161.33333333333334</ele><time>2026-05-03T16:47:15Z</time></trkpt><trkpt lat="43.89318630382156" lon="11.520312125532756"><ele>160.66666666666669</ele><time>2026-05-03T16:47:16Z</time></trkpt><trkpt lat="43.89333033926286" lon="11.520230619728062"><ele>160.0</ele><time>2026-05-03T16:47:17Z</time></trkpt><trkpt lat="43.893473198003726" lon="11.52015509014982"><ele>160.0</ele><time>2026-05-03T16:47:18Z</time></trkpt><trkpt lat="43.89361384577874" lon="11.520071335673315"><ele>160.0</ele><time>2026-05-03T16:47:19Z</time></trkpt><trkpt lat="43.893748460516704" lon="11.519985716700809"><ele>160.0</ele><time>2026-05-03T16:47:20Z</time></trkpt><trkpt lat="43.89388648693946" lon="11.51990208947739"><ele>160.0</ele><time>2026-05-03T16:47:21Z</time></trkpt><trkpt lat="43.894020455181774" lon="11.519820758407926"><ele>160.0</ele><time>2026-05-03T16:47:22Z</time></trkpt><trkpt lat="43.8941536394827" lon="11.519742238441955"><ele>160.0</ele><time>2026-05-03T16:47:23Z</time></trkpt><trkpt lat="43.894292494830545" lon="11.519662944195009"><ele>160.0</ele><time>2026-05-03T16:47:24Z</time></trkpt><trkpt lat="43.894428120412876" lon="11.519573702803083"><ele>159.33333333333334</ele><time>2026-05-03T16:47:25Z</time></trkpt><trkpt lat="43.89456657465501" lon="11.519482248616166"><ele>158.66666666666666</ele><time>2026-05-03T16:47:26Z</time></trkpt><trkpt lat="43.89470663567841" lon="11.519388730499617"><ele>158.0</ele><time>2026-05-03T16:47:27Z</time></trkpt><trkpt lat="43.894846579718106" lon="11.519294977819879"><ele>158.0</ele><time>2026-05-03T16:47:28Z</time></trkpt><trkpt lat="43.89498648473024" lon="11.5191969953873"><ele>158.0</ele><time>2026-05-03T16:47:29Z</time></trkpt><trkpt lat="43.89512650334065" lon="11.519092750113137"><ele>158.0</ele><time>2026-05-03T16:47:30Z</time></trkpt><trkpt lat="43.89526555687031" lon="11.518985058730879"><ele>157.66666666666666</ele><time>2026-05-03T16:47:31Z</time></trkpt><trkpt lat="43.89539712410777" lon="11.518876576071154"><ele>157.33333333333334</ele><time>2026-05-03T16:47:32Z</time></trkpt><trkpt lat="43.89553408552944" lon="11.518777223272918"><ele>157.0</ele><time>2026-05-03T16:47:33Z</time></trkpt><trkpt lat="43.89566557987255" lon="11.518666272538578"><ele>157.0</ele><time>2026-05-03T16:47:34Z</time></trkpt><trkpt lat="43.89580059011326" lon="11.518561733941702"><ele>157.0</ele><time>2026-05-03T16:47:35Z</time></trkpt><trkpt lat="43.89592927603043" lon="11.518454104971445"><ele>157.0</ele><time>2026-05-03T16:47:36Z</time></trkpt><trkpt lat="43.89605483807086" lon="11.518345067356387"><ele>158.0</ele><time>2026-05-03T16:47:37Z</time></trkpt><trkpt lat="43.896177356762834" lon="11.518242629311088"><ele>159.0</ele><time>2026-05-03T16:47:38Z</time></trkpt><trkpt lat="43.896292740860794" lon="11.518153194113278"><ele>160.0</ele><time>2026-05-03T16:47:39Z</time></trkpt><trkpt lat="43.89640199720015" lon="11.518076705970303"><ele>161.0</ele><time>2026-05-03T16:47:40Z</time></trkpt><trkpt lat="43.89652901443745" lon="11.517934326077203"><ele>161.0</ele><time>2026-05-03T16:47:41Z</time></trkpt><trkpt lat="43.89665761940546" lon="11.51782023887095"><ele>161.0</ele><time>2026-05-03T16:47:42Z</time></trkpt><trkpt lat="43.89675011011806" lon="11.517754279541911"><ele>161.0</ele><time>2026-05-03T16:47:43Z</time></trkpt><trkpt lat="43.896856521596185" lon="11.517663795190222"><ele>161.0</ele><time>2026-05-03T16:47:44Z</time></trkpt><trkpt lat="43.89696283562606" lon="11.517570238519353"><ele>161.0</ele><time>2026-05-03T16:47:45Z</time></trkpt><trkpt lat="43.897068265011285" lon="11.517475289541082"><ele>161.0</ele><time>2026-05-03T16:47:46Z</time></trkpt><trkpt lat="43.89716533292012" lon="11.517389698086244"><ele>161.0</ele><time>2026-05-03T16:47:47Z</time></trkpt><trkpt lat="43.89726484955891" lon="11.517303328409877"><ele>161.0</ele><time>2026-05-03T16:47:48Z</time></trkpt><trkpt lat="43.8973613038231" lon="11.517219404783006"><ele>161.0</ele><time>2026-05-03T16:47:49Z</time></trkpt><trkpt lat="43.897452714812275" lon="11.517140709387167"><ele>161.0</ele><time>2026-05-03T16:47:50Z</time></trkpt><trkpt lat="43.897537267354" lon="11.517069215581946"><ele>161.0</ele><time>2026-05-03T16:47:51Z</time></trkpt><trkpt lat="43.89762887435574" lon="11.516989336913555"><ele>161.0</ele><time>2026-05-03T16:47:52Z</time></trkpt><trkpt lat="43.89772857896627" lon="11.51692110320387"><ele>161.0</ele><time>2026-05-03T16:47:53Z</time></trkpt><trkpt lat="43.89783331660018" lon="11.516844129430424"><ele>160.75</ele><time>2026-05-03T16:47:54Z</time></trkpt><trkpt lat="43.897951930793795" lon="11.516768562759001"><ele>160.5</ele><time>2026-05-03T16:47:55Z</time></trkpt><trkpt lat="43.89807757530592" lon="11.516710026222864"><ele>160.25</ele><time>2026-05-03T16:47:56Z</time></trkpt><trkpt lat="43.89821046601884" lon="11.516638974583563"><ele>160.0</ele><time>2026-05-03T16:47:57Z</time></trkpt><trkpt lat="43.89832082437628" lon="11.516585430228082"><ele>160.0</ele><time>2026-05-03T16:47:58Z</time></trkpt><trkpt lat="43.89841181281166" lon="11.516531660472781"><ele>160.0</ele><time>2026-05-03T16:47:59Z</time></trkpt><trkpt lat="43.89850944903207" lon="11.516470474095376"><ele>160.0</ele><time>2026-05-03T16:48:00Z</time></trkpt><trkpt lat="43.89860846708835" lon="11.516404824675467"><ele>160.0</ele><time>2026-05-03T16:48:01Z</time></trkpt><trkpt lat="43.898705665272026" lon="11.516338155978298"><ele>160.0</ele><time>2026-05-03T16:48:02Z</time></trkpt><trkpt lat="43.898788255558216" lon="11.516275893168597"><ele>159.8</ele><time>2026-05-03T16:48:03Z</time></trkpt><trkpt lat="43.89886817216866" lon="11.516211022780825"><ele>159.6</ele><time>2026-05-03T16:48:04Z</time></trkpt><trkpt lat="43.89895777415296" lon="11.516129845048724"><ele>159.4</ele><time>2026-05-03T16:48:05Z</time></trkpt><trkpt lat="43.89904797619748" lon="11.516029392080783"><ele>159.2</ele><time>2026-05-03T16:48:06Z</time></trkpt><trkpt lat="43.89913553789036" lon="11.515913670779467"><ele>159.0</ele><time>2026-05-03T16:48:07Z</time></trkpt><trkpt lat="43.899221052925476" lon="11.515767505366494"><ele>160.33333333333334</ele><time>2026-05-03T16:48:08Z</time></trkpt><trkpt lat="43.89930948404207" lon="11.515573414509108"><ele>161.66666666666669</ele><time>2026-05-03T16:48:09Z</time></trkpt><trkpt lat="43.89941121820902" lon="11.51534607964819"><ele>163.0</ele><time>2026-05-03T16:48:10Z</time></trkpt><trkpt lat="43.89952837766498" lon="11.515093868911862"><ele>163.0</ele><time>2026-05-03T16:48:11Z</time></trkpt><trkpt lat="43.899659241414966" lon="11.51481207094934"><ele>163.0</ele><time>2026-05-03T16:48:12Z</time></trkpt><trkpt lat="43.899801564356586" lon="11.514518152673801"><ele>162.5</ele><time>2026-05-03T16:48:13Z</time></trkpt><trkpt lat="43.89993034911693" lon="11.514228401738178"><ele>162.0</ele><time>2026-05-03T16:48:14Z</time></trkpt><trkpt lat="43.90003501726711" lon="11.513947148253509"><ele>163.0</ele><time>2026-05-03T16:48:15Z</time></trkpt><trkpt lat="43.900118106874146" lon="11.513661819668519"><ele>164.0</ele><time>2026-05-03T16:48:16Z</time></trkpt><trkpt lat="43.90019334874094" lon="11.513364274335741"><ele>165.0</ele><time>2026-05-03T16:48:17Z</time></trkpt><trkpt lat="43.900270813795956" lon="11.513064054255151"><ele>165.0</ele><time>2026-05-03T16:48:18Z</time></trkpt><trkpt lat="43.90035426649076" lon="11.512768790229034"><ele>165.0</ele><time>2026-05-03T16:48:19Z</time></trkpt><trkpt lat="43.900443100284015" lon="11.512472432158011"><ele>165.0</ele><time>2026-05-03T16:48:20Z</time></trkpt><trkpt lat="43.90053799004382" lon="11.512178765484682"><ele>165.0</ele><time>2026-05-03T16:48:21Z</time></trkpt><trkpt lat="43.9006433422108" lon="11.511887406878964"><ele>166.0</ele><time>2026-05-03T16:48:22Z</time></trkpt><trkpt lat="43.90075490958785" lon="11.511597930471275"><ele>167.0</ele><time>2026-05-03T16:48:23Z</time></trkpt><trkpt lat="43.900868749044385" lon="11.511317791830347"><ele>170.0</ele><time>2026-05-03T16:48:24Z</time></trkpt><trkpt lat="43.9009785568577" lon="11.511051232923638"><ele>173.0</ele><time>2026-05-03T16:48:25Z</time></trkpt><trkpt lat="43.90109464066799" lon="11.510781939796908"><ele>176.0</ele><time>2026-05-03T16:48:26Z</time></trkpt><trkpt lat="43.90122485165264" lon="11.510527900317753"><ele>174.0</ele><time>2026-05-03T16:48:27Z</time></trkpt><trkpt lat="43.90137169503479" lon="11.510261283539775"><ele>172.0</ele><time>2026-05-03T16:48:28Z</time></trkpt><trkpt lat="43.90152572671692" lon="11.50998805591493"><ele>172.0</ele><time>2026-05-03T16:48:29Z</time></trkpt><trkpt lat="43.90167511925824" lon="11.509702411673523"><ele>172.0</ele><time>2026-05-03T16:48:30Z</time></trkpt><trkpt lat="43.90184776398561" lon="11.509389038682853"><ele>172.0</ele><time>2026-05-03T16:48:31Z</time></trkpt><trkpt lat="43.902021354894394" lon="11.509068500749983"><ele>172.0</ele><time>2026-05-03T16:48:32Z</time></trkpt><trkpt lat="43.90219737195713" lon="11.508739109820576"><ele>172.0</ele><time>2026-05-03T16:48:33Z</time></trkpt><trkpt lat="43.902364964902894" lon="11.508435155840386"><ele>172.0</ele><time>2026-05-03T16:48:34Z</time></trkpt><trkpt lat="43.902520473143575" lon="11.508155937716772"><ele>174.5</ele><time>2026-05-03T16:48:35Z</time></trkpt><trkpt lat="43.90266579846293" lon="11.507893400009625"><ele>177.0</ele><time>2026-05-03T16:48:36Z</time></trkpt><trkpt lat="43.902807289828466" lon="11.507643960337752"><ele>177.0</ele><time>2026-05-03T16:48:37Z</time></trkpt><trkpt lat="43.90293959270859" lon="11.507403553884323"><ele>177.0</ele><time>2026-05-03T16:48:38Z</time></trkpt><trkpt lat="43.903059218944875" lon="11.507185198166244"><ele>177.0</ele><time>2026-05-03T16:48:39Z</time></trkpt><trkpt lat="43.90316498572723" lon="11.506986034197547"><ele>174.33333333333334</ele><time>2026-05-03T16:48:40Z</time></trkpt><trkpt lat="43.90326377151078" lon="11.506805396267444"><ele>171.66666666666669</ele><time>2026-05-03T16:48:41Z</time></trkpt><trkpt lat="43.90337621050313" lon="11.506657361319757"><ele>169.0</ele><time>2026-05-03T16:48:42Z</time></trkpt><trkpt lat="43.903510398578945" lon="11.506546658953706"><ele>169.0</ele><time>2026-05-03T16:48:43Z</time></trkpt><trkpt lat="43.90367561863141" lon="11.506480305974417"><ele>169.0</ele><time>2026-05-03T16:48:44Z</time></trkpt><trkpt lat="43.90386525310477" lon="11.506449700106854"><ele>169.0</ele><time>2026-05-03T16:48:45Z</time></trkpt><trkpt lat="43.90406857812986" lon="11.50643109732225"><ele>171.33333333333334</ele><time>2026-05-03T16:48:46Z</time></trkpt><trkpt lat="43.90428430040136" lon="11.50640090540894"><ele>173.66666666666666</ele><time>2026-05-03T16:48:47Z</time></trkpt><trkpt lat="43.90451094819743" lon="11.506361853812972"><ele>176.0</ele><time>2026-05-03T16:48:48Z</time></trkpt><trkpt lat="43.90474852056358" lon="11.506316641151884"><ele>176.0</ele><time>2026-05-03T16:48:49Z</time></trkpt><trkpt lat="43.904996614592356" lon="11.506272743328429"><ele>176.0</ele><time>2026-05-03T16:48:50Z</time></trkpt><trkpt lat="43.90525415841462" lon="11.506230526155573"><ele>170.5</ele><time>2026-05-03T16:48:51Z</time></trkpt><trkpt lat="43.905501264863915" lon="11.506189065465335"><ele>165.0</ele><time>2026-05-03T16:48:52Z</time></trkpt><trkpt lat="43.90572654833269" lon="11.506148356557848"><ele>164.66666666666666</ele><time>2026-05-03T16:48:53Z</time></trkpt><trkpt lat="43.905931355048956" lon="11.506107487633079"><ele>164.33333333333331</ele><time>2026-05-03T16:48:54Z</time></trkpt><trkpt lat="43.906122678639115" lon="11.50607230258074"><ele>164.0</ele><time>2026-05-03T16:48:55Z</time></trkpt><trkpt lat="43.906303878726554" lon="11.506044459624048"><ele>164.0</ele><time>2026-05-03T16:48:56Z</time></trkpt><trkpt lat="43.906480200536436" lon="11.506022684004787"><ele>164.0</ele><time>2026-05-03T16:48:57Z</time></trkpt><trkpt lat="43.90665652844736" lon="11.506024876455735"><ele>164.0</ele><time>2026-05-03T16:48:58Z</time></trkpt><trkpt lat="43.90683328271078" lon="11.506057943946043"><ele>163.66666666666666</ele><time>2026-05-03T16:48:59Z</time></trkpt><trkpt lat="43.907002962398145" lon="11.50614464963899"><ele>163.33333333333334</ele><time>2026-05-03T16:49:00Z</time></trkpt><trkpt lat="43.9071833026567" lon="11.506195241344718"><ele>163.0</ele><time>2026-05-03T16:49:01Z</time></trkpt><trkpt lat="43.90734133592121" lon="11.506272902390728"><ele>166.5</ele><time>2026-05-03T16:49:02Z</time></trkpt><trkpt lat="43.90748614199169" lon="11.506342245897983"><ele>170.0</ele><time>2026-05-03T16:49:03Z</time></trkpt><trkpt lat="43.90762253606825" lon="11.506398966783175"><ele>173.5</ele><time>2026-05-03T16:49:04Z</time></trkpt><trkpt lat="43.907756112371764" lon="11.506448110316583"><ele>177.0</ele><time>2026-05-03T16:49:05Z</time></trkpt><trkpt lat="43.907895282688514" lon="11.50648298577395"><ele>177.0</ele><time>2026-05-03T16:49:06Z</time></trkpt><trkpt lat="43.90803483879129" lon="11.506492222975561"><ele>177.0</ele><time>2026-05-03T16:49:07Z</time></trkpt><trkpt lat="43.908174435476504" lon="11.506468204059866"><ele>177.0</ele><time>2026-05-03T16:49:08Z</time></trkpt><trkpt lat="43.90831081408421" lon="11.506418860237236"><ele>177.0</ele><time>2026-05-03T16:49:09Z</time></trkpt><trkpt lat="43.90844148611921" lon="11.506350141810634"><ele>177.0</ele><time>2026-05-03T16:49:10Z</time></trkpt><trkpt lat="43.9085711657241" lon="11.506271431806187"><ele>177.0</ele><time>2026-05-03T16:49:11Z</time></trkpt><trkpt lat="43.90870340520751" lon="11.506213689028836"><ele>177.0</ele><time>2026-05-03T16:49:12Z</time></trkpt><trkpt lat="43.90884386499517" lon="11.50621647733022"><ele>177.0</ele><time>2026-05-03T16:49:13Z</time></trkpt><trkpt lat="43.908980365092035" lon="11.506261891495075"><ele>177.0</ele><time>2026-05-03T16:49:14Z</time></trkpt><trkpt lat="43.90910755965966" lon="11.506348947955583"><ele>177.0</ele><time>2026-05-03T16:49:15Z</time></trkpt><trkpt lat="43.90922023782235" lon="11.506462021804703"><ele>177.0</ele><time>2026-05-03T16:49:16Z</time></trkpt><trkpt lat="43.90933237076339" lon="11.506585152108281"><ele>177.0</ele><time>2026-05-03T16:49:17Z</time></trkpt><trkpt lat="43.9094639462556" lon="11.50668750941789"><ele>173.0</ele><time>2026-05-03T16:49:18Z</time></trkpt><trkpt lat="43.909594336091494" lon="11.506800366013756"><ele>169.0</ele><time>2026-05-03T16:49:19Z</time></trkpt><trkpt lat="43.909732988958815" lon="11.506893815301762"><ele>165.0</ele><time>2026-05-03T16:49:20Z</time></trkpt><trkpt lat="43.90987350836062" lon="11.506975210508976"><ele>165.0</ele><time>2026-05-03T16:49:21Z</time></trkpt><trkpt lat="43.910017258318426" lon="11.507048362415311"><ele>165.0</ele><time>2026-05-03T16:49:22Z</time></trkpt><trkpt lat="43.91015948924105" lon="11.507107641989414"><ele>165.0</ele><time>2026-05-03T16:49:23Z</time></trkpt><trkpt lat="43.910306771233294" lon="11.507163606411888"><ele>168.5</ele><time>2026-05-03T16:49:24Z</time></trkpt><trkpt lat="43.910454473563775" lon="11.507220487534793"><ele>172.0</ele><time>2026-05-03T16:49:25Z</time></trkpt><trkpt lat="43.91059812854399" lon="11.507271902057719"><ele>175.5</ele><time>2026-05-03T16:49:26Z</time></trkpt><trkpt lat="43.91072906422052" lon="11.50731481874623"><ele>179.0</ele><time>2026-05-03T16:49:27Z</time></trkpt><trkpt lat="43.91085105497378" lon="11.507339140408144"><ele>177.0</ele><time>2026-05-03T16:49:28Z</time></trkpt><trkpt lat="43.91096385830246" lon="11.507317721870871"><ele>175.0</ele><time>2026-05-03T16:49:29Z</time></trkpt><trkpt lat="43.91109062096872" lon="11.507239559081544"><ele>173.0</ele><time>2026-05-03T16:49:30Z</time></trkpt><trkpt lat="43.911222940247185" lon="11.507111818548708"><ele>171.0</ele><time>2026-05-03T16:49:31Z</time></trkpt><trkpt lat="43.91138759446789" lon="11.506964001671832"><ele>166.5</ele><time>2026-05-03T16:49:32Z</time></trkpt><trkpt lat="43.91157346363982" lon="11.506789557736907"><ele>162.0</ele><time>2026-05-03T16:49:33Z</time></trkpt><trkpt lat="43.91178157672823" lon="11.506592619538134"><ele>162.0</ele><time>2026-05-03T16:49:34Z</time></trkpt><trkpt lat="43.91200229023927" lon="11.506379473953489"><ele>162.0</ele><time>2026-05-03T16:49:35Z</time></trkpt><trkpt lat="43.912252529872795" lon="11.506194925285325"><ele>160.5</ele><time>2026-05-03T16:49:36Z</time></trkpt><trkpt lat="43.91252415101097" lon="11.506003507857296"><ele>159.0</ele><time>2026-05-03T16:49:37Z</time></trkpt><trkpt lat="43.912797418125834" lon="11.505817704983118"><ele>162.5</ele><time>2026-05-03T16:49:38Z</time></trkpt><trkpt lat="43.91304911021112" lon="11.505668037410706"><ele>166.0</ele><time>2026-05-03T16:49:39Z</time></trkpt><trkpt lat="43.913282245105165" lon="11.505561031283422"><ele>167.5</ele><time>2026-05-03T16:49:40Z</time></trkpt><trkpt lat="43.91352296149054" lon="11.505487575356746"><ele>169.0</ele><time>2026-05-03T16:49:41Z</time></trkpt><trkpt lat="43.91379121522744" lon="11.505439501724478"><ele>167.5</ele><time>2026-05-03T16:49:42Z</time></trkpt><trkpt lat="43.91407644536387" lon="11.505381927527601"><ele>166.0</ele><time>2026-05-03T16:49:43Z</time></trkpt><trkpt lat="43.91437797868277" lon="11.50530542925264"><ele>166.0</ele><time>2026-05-03T16:49:44Z</time></trkpt><trkpt lat="43.914687646967636" lon="11.505210486520628"><ele>166.0</ele><time>2026-05-03T16:49:45Z</time></trkpt><trkpt lat="43.91500477133709" lon="11.50509290927948"><ele>171.5</ele><time>2026-05-03T16:49:46Z</time></trkpt><trkpt lat="43.915328546298525" lon="11.504966852277207"><ele>177.0</ele><time>2026-05-03T16:49:47Z</time></trkpt><trkpt lat="43.915660480674624" lon="11.504844049932117"><ele>179.0</ele><time>2026-05-03T16:49:48Z</time></trkpt><trkpt lat="43.915985968415995" lon="11.504728274054195"><ele>181.0</ele><time>2026-05-03T16:49:49Z</time></trkpt><trkpt lat="43.91628041141141" lon="11.504627321304893"><ele>174.5</ele><time>2026-05-03T16:49:50Z</time></trkpt><trkpt lat="43.91654461480154" lon="11.504533233635296"><ele>168.0</ele><time>2026-05-03T16:49:51Z</time></trkpt><trkpt lat="43.9167841999233" lon="11.504450368843694"><ele>166.5</ele><time>2026-05-03T16:49:52Z</time></trkpt><trkpt lat="43.917014791561634" lon="11.504384398680987"><ele>165.0</ele><time>2026-05-03T16:49:53Z</time></trkpt><trkpt lat="43.917246056826535" lon="11.504342292524905"><ele>165.0</ele><time>2026-05-03T16:49:54Z</time></trkpt><trkpt lat="43.91748484741395" lon="11.504310587909815"><ele>165.0</ele><time>2026-05-03T16:49:55Z</time></trkpt><trkpt lat="43.91772555823867" lon="11.504275788637246"><ele>166.5</ele><time>2026-05-03T16:49:56Z</time></trkpt><trkpt lat="43.917958699319605" lon="11.504236534023686"><ele>168.0</ele><time>2026-05-03T16:49:57Z</time></trkpt><trkpt lat="43.9181755666209" lon="11.504202091489299"><ele>168.0</ele><time>2026-05-03T16:49:58Z</time></trkpt><trkpt lat="43.91838547663084" lon="11.50416310009347"><ele>168.0</ele><time>2026-05-03T16:49:59Z</time></trkpt><trkpt lat="43.9185938592069" lon="11.504109029352357"><ele>168.0</ele><time>2026-05-03T16:50:00Z</time></trkpt><trkpt lat="43.918803644293035" lon="11.504022815349845"><ele>166.5</ele><time>2026-05-03T16:50:01Z</time></trkpt><trkpt lat="43.91901110337848" lon="11.503892697322906"><ele>165.0</ele><time>2026-05-03T16:50:02Z</time></trkpt><trkpt lat="43.91921669184572" lon="11.503743519141116"><ele>169.0</ele><time>2026-05-03T16:50:03Z</time></trkpt><trkpt lat="43.91941391159895" lon="11.503591436127387"><ele>173.0</ele><time>2026-05-03T16:50:04Z</time></trkpt><trkpt lat="43.919604131671996" lon="11.503463148522622"><ele>177.0</ele><time>2026-05-03T16:50:05Z</time></trkpt><trkpt lat="43.9197925723479" lon="11.503355643587124"><ele>177.0</ele><time>2026-05-03T16:50:06Z</time></trkpt><trkpt lat="43.919975905012926" lon="11.503234638157087"><ele>177.0</ele><time>2026-05-03T16:50:07Z</time></trkpt><trkpt lat="43.92016613830852" lon="11.503122203054932"><ele>177.0</ele><time>2026-05-03T16:50:08Z</time></trkpt><trkpt lat="43.920350405000164" lon="11.502984580070972"><ele>176.0</ele><time>2026-05-03T16:50:09Z</time></trkpt><trkpt lat="43.92053620177722" lon="11.502848651205742"><ele>175.0</ele><time>2026-05-03T16:50:10Z</time></trkpt><trkpt lat="43.92072277013393" lon="11.502711080981893"><ele>174.0</ele><time>2026-05-03T16:50:11Z</time></trkpt><trkpt lat="43.92090926592952" lon="11.502575526509832"><ele>174.0</ele><time>2026-05-03T16:50:12Z</time></trkpt><trkpt lat="43.92109574635398" lon="11.50244164927407"><ele>174.0</ele><time>2026-05-03T16:50:13Z</time></trkpt><trkpt lat="43.92127629198778" lon="11.502305850258722"><ele>174.0</ele><time>2026-05-03T16:50:14Z</time></trkpt><trkpt lat="43.921457481824625" lon="11.502172190197461"><ele>174.0</ele><time>2026-05-03T16:50:15Z</time></trkpt><trkpt lat="43.921637477820006" lon="11.502042250388897"><ele>174.0</ele><time>2026-05-03T16:50:16Z</time></trkpt><trkpt lat="43.92181605464765" lon="11.501916932539716"><ele>174.0</ele><time>2026-05-03T16:50:17Z</time></trkpt><trkpt lat="43.92199390820312" lon="11.501791730163651"><ele>174.0</ele><time>2026-05-03T16:50:18Z</time></trkpt><trkpt lat="43.92216430745282" lon="11.501669265652422"><ele>174.0</ele><time>2026-05-03T16:50:19Z</time></trkpt><trkpt lat="43.922334152464664" lon="11.501554429650264"><ele>174.0</ele><time>2026-05-03T16:50:20Z</time></trkpt><trkpt lat="43.92250877821445" lon="11.501445704876593"><ele>174.0</ele><time>2026-05-03T16:50:21Z</time></trkpt><trkpt lat="43.92269619293525" lon="11.501353254775635"><ele>174.0</ele><time>2026-05-03T16:50:22Z</time></trkpt><trkpt lat="43.92290240242411" lon="11.501287691084467"><ele>174.0</ele><time>2026-05-03T16:50:23Z</time></trkpt><trkpt lat="43.923127203945896" lon="11.501242529209925"><ele>174.0</ele><time>2026-05-03T16:50:24Z</time></trkpt><trkpt lat="43.92336503349698" lon="11.501220858433996"><ele>174.0</ele><time>2026-05-03T16:50:25Z</time></trkpt><trkpt lat="43.92359423262745" lon="11.501181155371372"><ele>175.0</ele><time>2026-05-03T16:50:26Z</time></trkpt><trkpt lat="43.92382501774788" lon="11.501104509073267"><ele>176.0</ele><time>2026-05-03T16:50:27Z</time></trkpt><trkpt lat="43.924047571958226" lon="11.500983006852957"><ele>177.66666666666666</ele><time>2026-05-03T16:50:28Z</time></trkpt><trkpt lat="43.924248504799536" lon="11.50084523565192"><ele>179.33333333333334</ele><time>2026-05-03T16:50:29Z</time></trkpt><trkpt lat="43.92445274248951" lon="11.500753017133672"><ele>181.0</ele><time>2026-05-03T16:50:30Z</time></trkpt><trkpt lat="43.92467772984136" lon="11.500703994251745"><ele>181.0</ele><time>2026-05-03T16:50:31Z</time></trkpt><trkpt lat="43.92491099576717" lon="11.500690858558176"><ele>181.0</ele><time>2026-05-03T16:50:32Z</time></trkpt><trkpt lat="43.92516207305654" lon="11.50069767711942"><ele>183.5</ele><time>2026-05-03T16:50:33Z</time></trkpt><trkpt lat="43.92542418310655" lon="11.500729559395158"><ele>186.0</ele><time>2026-05-03T16:50:34Z</time></trkpt><trkpt lat="43.92567561937503" lon="11.500770451687517"><ele>186.0</ele><time>2026-05-03T16:50:35Z</time></trkpt><trkpt lat="43.925892928882305" lon="11.500803736565375"><ele>186.0</ele><time>2026-05-03T16:50:36Z</time></trkpt><trkpt lat="43.92608419575084" lon="11.500813134375518"><ele>186.0</ele><time>2026-05-03T16:50:37Z</time></trkpt><trkpt lat="43.926257492438424" lon="11.500782467679253"><ele>187.33333333333334</ele><time>2026-05-03T16:50:38Z</time></trkpt><trkpt lat="43.92642450212565" lon="11.50070975078843"><ele>188.66666666666669</ele><time>2026-05-03T16:50:39Z</time></trkpt><trkpt lat="43.926577954034464" lon="11.500599038220626"><ele>190.0</ele><time>2026-05-03T16:50:40Z</time></trkpt><trkpt lat="43.926708507904394" lon="11.500445394178191"><ele>193.66666666666669</ele><time>2026-05-03T16:50:41Z</time></trkpt><trkpt lat="43.92682387926279" lon="11.500267723448422"><ele>197.33333333333334</ele><time>2026-05-03T16:50:42Z</time></trkpt><trkpt lat="43.92692348617835" lon="11.500085233240538"><ele>201.0</ele><time>2026-05-03T16:50:43Z</time></trkpt><trkpt lat="43.92701723224126" lon="11.499914194582049"><ele>201.0</ele><time>2026-05-03T16:50:44Z</time></trkpt><trkpt lat="43.92710741313029" lon="11.49975978870325"><ele>201.0</ele><time>2026-05-03T16:50:45Z</time></trkpt><trkpt lat="43.92719825345057" lon="11.49962565728516"><ele>201.0</ele><time>2026-05-03T16:50:46Z</time></trkpt><trkpt lat="43.92730412006981" lon="11.499518101346409"><ele>201.0</ele><time>2026-05-03T16:50:47Z</time></trkpt><trkpt lat="43.927429589376324" lon="11.499443338092835"><ele>200.0</ele><time>2026-05-03T16:50:48Z</time></trkpt><trkpt lat="43.927563327517205" lon="11.4993780421855"><ele>199.0</ele><time>2026-05-03T16:50:49Z</time></trkpt><trkpt lat="43.92769623685986" lon="11.499318876358531"><ele>198.0</ele><time>2026-05-03T16:50:50Z</time></trkpt><trkpt lat="43.9278230907965" lon="11.499256158448146"><ele>197.0</ele><time>2026-05-03T16:50:51Z</time></trkpt><trkpt lat="43.927946849712406" lon="11.499191922098342"><ele>197.0</ele><time>2026-05-03T16:50:52Z</time></trkpt><trkpt lat="43.92806390834792" lon="11.499139923760335"><ele>197.0</ele><time>2026-05-03T16:50:53Z</time></trkpt><trkpt lat="43.92816380262645" lon="11.499102107746054"><ele>197.0</ele><time>2026-05-03T16:50:54Z</time></trkpt><trkpt lat="43.92825504624329" lon="11.499081397032825"><ele>197.0</ele><time>2026-05-03T16:50:55Z</time></trkpt><trkpt lat="43.92834351832607" lon="11.499118257988595"><ele>197.0</ele><time>2026-05-03T16:50:56Z</time></trkpt><trkpt lat="43.92841018898692" lon="11.499216133311394"><ele>199.2</ele><time>2026-05-03T16:50:57Z</time></trkpt><trkpt lat="43.92848533747546" lon="11.499317903271642"><ele>201.39999999999998</ele><time>2026-05-03T16:50:58Z</time></trkpt><trkpt lat="43.928550601184575" lon="11.499430836103688"><ele>203.60000000000002</ele><time>2026-05-03T16:50:59Z</time></trkpt><trkpt lat="43.92862911524916" lon="11.499492187098422"><ele>205.8</ele><time>2026-05-03T16:51:00Z</time></trkpt><trkpt lat="43.92872053086266" lon="11.499478097581054"><ele>208.0</ele><time>2026-05-03T16:51:01Z</time></trkpt><trkpt lat="43.92881107059745" lon="11.499421502636146"><ele>208.0</ele><time>2026-05-03T16:51:02Z</time></trkpt><trkpt lat="43.92888488724527" lon="11.499311624869886"><ele>208.0</ele><time>2026-05-03T16:51:03Z</time></trkpt><trkpt lat="43.92894181525689" lon="11.499138001784134"><ele>208.0</ele><time>2026-05-03T16:51:04Z</time></trkpt><trkpt lat="43.92901077432376" lon="11.498988811079304"><ele>208.0</ele><time>2026-05-03T16:51:05Z</time></trkpt><trkpt lat="43.92910705117362" lon="11.49885211897809"><ele>209.33333333333331</ele><time>2026-05-03T16:51:06Z</time></trkpt><trkpt lat="43.92923234016068" lon="11.498668153540438"><ele>210.66666666666669</ele><time>2026-05-03T16:51:07Z</time></trkpt><trkpt lat="43.92938526659128" lon="11.498430314677105"><ele>212.0</ele><time>2026-05-03T16:51:08Z</time></trkpt><trkpt lat="43.929525527734384" lon="11.498166856198948"><ele>212.0</ele><time>2026-05-03T16:51:09Z</time></trkpt><trkpt lat="43.92966250822749" lon="11.497956022049516"><ele>212.0</ele><time>2026-05-03T16:51:10Z</time></trkpt><trkpt lat="43.929787184240155" lon="11.49778526008666"><ele>212.0</ele><time>2026-05-03T16:51:11Z</time></trkpt><trkpt lat="43.929904783264135" lon="11.497647692862001"><ele>211.5</ele><time>2026-05-03T16:51:12Z</time></trkpt><trkpt lat="43.930018877438016" lon="11.49752397925409"><ele>211.0</ele><time>2026-05-03T16:51:13Z</time></trkpt><trkpt lat="43.93013002957309" lon="11.497425976613311"><ele>210.5</ele><time>2026-05-03T16:51:14Z</time></trkpt><trkpt lat="43.93023541154372" lon="11.49734964795609"><ele>210.0</ele><time>2026-05-03T16:51:15Z</time></trkpt><trkpt lat="43.930327778241725" lon="11.49728905904007"><ele>210.0</ele><time>2026-05-03T16:51:16Z</time></trkpt><trkpt lat="43.93040976234557" lon="11.497238984605952"><ele>210.0</ele><time>2026-05-03T16:51:17Z</time></trkpt><trkpt lat="43.93049245551991" lon="11.497193781999568"><ele>210.0</ele><time>2026-05-03T16:51:18Z</time></trkpt><trkpt lat="43.930579116223264" lon="11.49714374005267"><ele>210.0</ele><time>2026-05-03T16:51:19Z</time></trkpt><trkpt lat="43.93066096318362" lon="11.497078121761831"><ele>210.0</ele><time>2026-05-03T16:51:20Z</time></trkpt><trkpt lat="43.93072285984559" lon="11.496994901422392"><ele>207.4</ele><time>2026-05-03T16:51:21Z</time></trkpt><trkpt lat="43.93076217485296" lon="11.496874543101962"><ele>204.8</ele><time>2026-05-03T16:51:22Z</time></trkpt><trkpt lat="43.93077243420681" lon="11.496741182280273"><ele>202.2</ele><time>2026-05-03T16:51:23Z</time></trkpt><trkpt lat="43.93075336677206" lon="11.496601637378063"><ele>199.6</ele><time>2026-05-03T16:51:24Z</time></trkpt><trkpt lat="43.93073934713544" lon="11.496450581195303"><ele>197.0</ele><time>2026-05-03T16:51:25Z</time></trkpt><trkpt lat="43.93072617543056" lon="11.49629154760911"><ele>196.2</ele><time>2026-05-03T16:51:26Z</time></trkpt><trkpt lat="43.930720776374436" lon="11.496140238758715"><ele>195.39999999999998</ele><time>2026-05-03T16:51:27Z</time></trkpt><trkpt lat="43.930719256199836" lon="11.495983506298167"><ele>194.60000000000002</ele><time>2026-05-03T16:51:28Z</time></trkpt><trkpt lat="43.930725095381426" lon="11.495824851812728"><ele>193.8</ele><time>2026-05-03T16:51:29Z</time></trkpt><trkpt lat="43.930739060218265" lon="11.495678400867085"><ele>193.0</ele><time>2026-05-03T16:51:30Z</time></trkpt><trkpt lat="43.930757965704366" lon="11.495537195813434"><ele>191.2</ele><time>2026-05-03T16:51:31Z</time></trkpt><trkpt lat="43.93078010468581" lon="11.495395374635303"><ele>189.4</ele><time>2026-05-03T16:51:32Z</time></trkpt><trkpt lat="43.930812246749305" lon="11.495258507065305"><ele>187.6</ele><time>2026-05-03T16:51:33Z</time></trkpt><trkpt lat="43.93085851078771" lon="11.495124645922266"><ele>185.79999999999998</ele><time>2026-05-03T16:51:34Z</time></trkpt><trkpt lat="43.93091395728163" lon="11.494998781343195"><ele>184.0</ele><time>2026-05-03T16:51:35Z</time></trkpt><trkpt lat="43.93096661510747" lon="11.49488123025005"><ele>182.79999999999998</ele><time>2026-05-03T16:51:36Z</time></trkpt><trkpt lat="43.930995977686294" lon="11.494750980778997"><ele>181.6</ele><time>2026-05-03T16:51:37Z</time></trkpt><trkpt lat="43.930994083880535" lon="11.494629453128299"><ele>180.4</ele><time>2026-05-03T16:51:38Z</time></trkpt><trkpt lat="43.93097512215785" lon="11.49446678458552"><ele>179.2</ele><time>2026-05-03T16:51:39Z</time></trkpt><trkpt lat="43.93089911223859" lon="11.494307060230186"><ele>178.0</ele><time>2026-05-03T16:51:40Z</time></trkpt><trkpt lat="43.93083713435462" lon="11.494159576115289"><ele>178.0</ele><time>2026-05-03T16:51:41Z</time></trkpt><trkpt lat="43.93079762344074" lon="11.494007435384015"><ele>178.0</ele><time>2026-05-03T16:51:42Z</time></trkpt><trkpt lat="43.93077201705397" lon="11.49384597179707"><ele>178.0</ele><time>2026-05-03T16:51:43Z</time></trkpt><trkpt lat="43.930782749565786" lon="11.493662720346814"><ele>178.0</ele><time>2026-05-03T16:51:44Z</time></trkpt><trkpt lat="43.93078395320961" lon="11.493434832067837"><ele>178.0</ele><time>2026-05-03T16:51:45Z</time></trkpt><trkpt lat="43.93077052869987" lon="11.493157280095668"><ele>178.0</ele><time>2026-05-03T16:51:46Z</time></trkpt><trkpt lat="43.93077935113023" lon="11.492837616645557"><ele>178.0</ele><time>2026-05-03T16:51:47Z</time></trkpt><trkpt lat="43.93077662866528" lon="11.492489451031544"><ele>179.5</ele><time>2026-05-03T16:51:48Z</time></trkpt><trkpt lat="43.930742897061805" lon="11.492119463358186"><ele>181.0</ele><time>2026-05-03T16:51:49Z</time></trkpt><trkpt lat="43.93067355937031" lon="11.491744157525755"><ele>183.5</ele><time>2026-05-03T16:51:50Z</time></trkpt><trkpt lat="43.930616952722424" lon="11.491357880258592"><ele>186.0</ele><time>2026-05-03T16:51:51Z</time></trkpt><trkpt lat="43.93056749248662" lon="11.490972350721728"><ele>187.5</ele><time>2026-05-03T16:51:52Z</time></trkpt><trkpt lat="43.930494342994926" lon="11.490599088281035"><ele>189.0</ele><time>2026-05-03T16:51:53Z</time></trkpt><trkpt lat="43.9304070757105" lon="11.490211355536536"><ele>193.0</ele><time>2026-05-03T16:51:54Z</time></trkpt><trkpt lat="43.93032790333174" lon="11.489836255570374"><ele>197.0</ele><time>2026-05-03T16:51:55Z</time></trkpt><trkpt lat="43.93025404298941" lon="11.489480946853387"><ele>204.0</ele><time>2026-05-03T16:51:56Z</time></trkpt><trkpt lat="43.93018737256322" lon="11.489135734084268"><ele>211.0</ele><time>2026-05-03T16:51:57Z</time></trkpt><trkpt lat="43.93012801930534" lon="11.488810291365903"><ele>211.33333333333331</ele><time>2026-05-03T16:51:58Z</time></trkpt><trkpt lat="43.93007412869689" lon="11.48850627678198"><ele>211.66666666666669</ele><time>2026-05-03T16:51:59Z</time></trkpt><trkpt lat="43.9300356311021" lon="11.488221403803873"><ele>212.0</ele><time>2026-05-03T16:52:00Z</time></trkpt><trkpt lat="43.93001605861615" lon="11.487956734911073"><ele>202.0</ele><time>2026-05-03T16:52:01Z</time></trkpt><trkpt lat="43.93001925762736" lon="11.487676912773125"><ele>192.0</ele><time>2026-05-03T16:52:02Z</time></trkpt><trkpt lat="43.930033424618486" lon="11.48740166368612"><ele>182.0</ele><time>2026-05-03T16:52:03Z</time></trkpt><trkpt lat="43.930048573874515" lon="11.487148827726367"><ele>183.0</ele><time>2026-05-03T16:52:04Z</time></trkpt><trkpt lat="43.93006519289986" lon="11.48693287105591"><ele>184.0</ele><time>2026-05-03T16:52:05Z</time></trkpt><trkpt lat="43.93008771806709" lon="11.486739407774238"><ele>185.0</ele><time>2026-05-03T16:52:06Z</time></trkpt><trkpt lat="43.9301258927434" lon="11.48658108961278"><ele>186.0</ele><time>2026-05-03T16:52:07Z</time></trkpt><trkpt lat="43.930195203615106" lon="11.486436219768832"><ele>186.0</ele><time>2026-05-03T16:52:08Z</time></trkpt><trkpt lat="43.93032474595862" lon="11.486309203927286"><ele>186.0</ele><time>2026-05-03T16:52:09Z</time></trkpt><trkpt lat="43.930483279532595" lon="11.486232257429075"><ele>186.0</ele><time>2026-05-03T16:52:10Z</time></trkpt><trkpt lat="43.93062598406157" lon="11.486189977275663"><ele>183.0</ele><time>2026-05-03T16:52:11Z</time></trkpt><trkpt lat="43.9307636401718" lon="11.486094024689772"><ele>180.0</ele><time>2026-05-03T16:52:12Z</time></trkpt><trkpt lat="43.930868569774155" lon="11.485988614166471"><ele>177.0</ele><time>2026-05-03T16:52:13Z</time></trkpt><trkpt lat="43.93090977695403" lon="11.485819011255817"><ele>174.0</ele><time>2026-05-03T16:52:14Z</time></trkpt><trkpt lat="43.93093537315854" lon="11.48562752246383"><ele>175.0</ele><time>2026-05-03T16:52:15Z</time></trkpt><trkpt lat="43.93097365785288" lon="11.485418042851137"><ele>176.0</ele><time>2026-05-03T16:52:16Z</time></trkpt><trkpt lat="43.931021047182455" lon="11.485198120124027"><ele>177.0</ele><time>2026-05-03T16:52:17Z</time></trkpt><trkpt lat="43.93107173529821" lon="11.484963170873426"><ele>177.0</ele><time>2026-05-03T16:52:18Z</time></trkpt><trkpt lat="43.931125044253164" lon="11.48472629138031"><ele>177.0</ele><time>2026-05-03T16:52:19Z</time></trkpt><trkpt lat="43.931180225509834" lon="11.484487978155565"><ele>177.0</ele><time>2026-05-03T16:52:20Z</time></trkpt><trkpt lat="43.93123295996373" lon="11.484266068503103"><ele>177.33333333333334</ele><time>2026-05-03T16:52:21Z</time></trkpt><trkpt lat="43.93129422561341" lon="11.484070365086044"><ele>177.66666666666669</ele><time>2026-05-03T16:52:22Z</time></trkpt><trkpt lat="43.93137380455145" lon="11.483896562537332"><ele>178.0</ele><time>2026-05-03T16:52:23Z</time></trkpt><trkpt lat="43.931471563014206" lon="11.48373552992345"><ele>176.66666666666669</ele><time>2026-05-03T16:52:24Z</time></trkpt><trkpt lat="43.931591985965" lon="11.483556189999529"><ele>175.33333333333334</ele><time>2026-05-03T16:52:25Z</time></trkpt><trkpt lat="43.9317235983498" lon="11.483342218924104"><ele>174.0</ele><time>2026-05-03T16:52:26Z</time></trkpt><trkpt lat="43.93186320823263" lon="11.483105609729902"><ele>173.5</ele><time>2026-05-03T16:52:27Z</time></trkpt><trkpt lat="43.932016342754935" lon="11.482839121647224"><ele>173.0</ele><time>2026-05-03T16:52:28Z</time></trkpt><trkpt lat="43.93217650058361" lon="11.482563049711558"><ele>173.0</ele><time>2026-05-03T16:52:29Z</time></trkpt><trkpt lat="43.9323360051556" lon="11.48229368929504"><ele>173.0</ele><time>2026-05-03T16:52:30Z</time></trkpt><trkpt lat="43.932481180837655" lon="11.482053595356673"><ele>173.66666666666666</ele><time>2026-05-03T16:52:31Z</time></trkpt><trkpt lat="43.93262632912429" lon="11.481833679622028"><ele>174.33333333333334</ele><time>2026-05-03T16:52:32Z</time></trkpt><trkpt lat="43.93279159855604" lon="11.481624829447753"><ele>175.0</ele><time>2026-05-03T16:52:33Z</time></trkpt><trkpt lat="43.93298107376548" lon="11.481425782951993"><ele>172.5</ele><time>2026-05-03T16:52:34Z</time></trkpt><trkpt lat="43.93317657732405" lon="11.481227821542129"><ele>170.0</ele><time>2026-05-03T16:52:35Z</time></trkpt><trkpt lat="43.933357473429616" lon="11.481047407696392"><ele>171.33333333333331</ele><time>2026-05-03T16:52:36Z</time></trkpt><trkpt lat="43.93352732545483" lon="11.480869722478394"><ele>172.66666666666666</ele><time>2026-05-03T16:52:37Z</time></trkpt><trkpt lat="43.93369009261111" lon="11.480663320805371"><ele>174.0</ele><time>2026-05-03T16:52:38Z</time></trkpt><trkpt lat="43.93382808098602" lon="11.480430237006692"><ele>174.0</ele><time>2026-05-03T16:52:39Z</time></trkpt><trkpt lat="43.93392362667369" lon="11.480169255194483"><ele>174.0</ele><time>2026-05-03T16:52:40Z</time></trkpt><trkpt lat="43.934012443202874" lon="11.479897859541106"><ele>174.0</ele><time>2026-05-03T16:52:41Z</time></trkpt><trkpt lat="43.93409937413756" lon="11.479640476213188"><ele>173.0</ele><time>2026-05-03T16:52:42Z</time></trkpt><trkpt lat="43.934177100244234" lon="11.479421228874884"><ele>172.0</ele><time>2026-05-03T16:52:43Z</time></trkpt><trkpt lat="43.93424882602373" lon="11.479230355461683"><ele>171.0</ele><time>2026-05-03T16:52:44Z</time></trkpt><trkpt lat="43.9343094932814" lon="11.479048691666758"><ele>173.0</ele><time>2026-05-03T16:52:45Z</time></trkpt><trkpt lat="43.934355199871916" lon="11.478864426021703"><ele>175.0</ele><time>2026-05-03T16:52:46Z</time></trkpt><trkpt lat="43.93439395684813" lon="11.478673195593416"><ele>177.0</ele><time>2026-05-03T16:52:47Z</time></trkpt><trkpt lat="43.93443339787101" lon="11.478480905357024"><ele>179.0</ele><time>2026-05-03T16:52:48Z</time></trkpt><trkpt lat="43.93447657632779" lon="11.478293280917416"><ele>179.0</ele><time>2026-05-03T16:52:49Z</time></trkpt><trkpt lat="43.93452040783748" lon="11.4781011965857"><ele>179.0</ele><time>2026-05-03T16:52:50Z</time></trkpt><trkpt lat="43.93456109743923" lon="11.477917479019409"><ele>179.0</ele><time>2026-05-03T16:52:51Z</time></trkpt><trkpt lat="43.93459673592442" lon="11.47773541801126"><ele>179.0</ele><time>2026-05-03T16:52:52Z</time></trkpt><trkpt lat="43.93462075286769" lon="11.47754715171482"><ele>178.33333333333331</ele><time>2026-05-03T16:52:53Z</time></trkpt><trkpt lat="43.93462535826922" lon="11.477332997394564"><ele>177.66666666666666</ele><time>2026-05-03T16:52:54Z</time></trkpt><trkpt lat="43.93459226320842" lon="11.477094361532266"><ele>177.0</ele><time>2026-05-03T16:52:55Z</time></trkpt><trkpt lat="43.93454758612587" lon="11.476792842531314"><ele>177.0</ele><time>2026-05-03T16:52:56Z</time></trkpt><trkpt lat="43.93450560585531" lon="11.476455361087774"><ele>177.0</ele><time>2026-05-03T16:52:57Z</time></trkpt><trkpt lat="43.934473968515704" lon="11.476099380467721"><ele>177.0</ele><time>2026-05-03T16:52:58Z</time></trkpt><trkpt lat="43.93443883603453" lon="11.47580041046242"><ele>177.0</ele><time>2026-05-03T16:52:59Z</time></trkpt><trkpt lat="43.93440669319438" lon="11.475545574088924"><ele>177.0</ele><time>2026-05-03T16:53:00Z</time></trkpt><trkpt lat="43.934374199360995" lon="11.475298161405696"><ele>175.33333333333334</ele><time>2026-05-03T16:53:01Z</time></trkpt><trkpt lat="43.93433832069837" lon="11.475045147443934"><ele>173.66666666666669</ele><time>2026-05-03T16:53:02Z</time></trkpt><trkpt lat="43.934306003749995" lon="11.474794450660632"><ele>172.0</ele><time>2026-05-03T16:53:03Z</time></trkpt><trkpt lat="43.934267209756385" lon="11.474546859056108"><ele>172.0</ele><time>2026-05-03T16:53:04Z</time></trkpt><trkpt lat="43.934222069049156" lon="11.474307158694069"><ele>172.0</ele><time>2026-05-03T16:53:05Z</time></trkpt><trkpt lat="43.93416873571569" lon="11.474076125419787"><ele>172.0</ele><time>2026-05-03T16:53:06Z</time></trkpt><trkpt lat="43.93410929827069" lon="11.473847209310048"><ele>172.66666666666669</ele><time>2026-05-03T16:53:07Z</time></trkpt><trkpt lat="43.93404838323165" lon="11.473625468649145"><ele>173.33333333333334</ele><time>2026-05-03T16:53:08Z</time></trkpt><trkpt lat="43.933991635590665" lon="11.47340286770652"><ele>174.0</ele><time>2026-05-03T16:53:09Z</time></trkpt><trkpt lat="43.93393573314892" lon="11.47318468855502"><ele>174.0</ele><time>2026-05-03T16:53:10Z</time></trkpt><trkpt lat="43.93388302603017" lon="11.472978151220364"><ele>174.0</ele><time>2026-05-03T16:53:11Z</time></trkpt><trkpt lat="43.93383364048541" lon="11.472778960253255"><ele>174.0</ele><time>2026-05-03T16:53:12Z</time></trkpt><trkpt lat="43.933786876963936" lon="11.472577732849997"><ele>174.75</ele><time>2026-05-03T16:53:13Z</time></trkpt><trkpt lat="43.93374026396977" lon="11.472379414336507"><ele>175.5</ele><time>2026-05-03T16:53:14Z</time></trkpt><trkpt lat="43.9336967908418" lon="11.472196726413776"><ele>176.25</ele><time>2026-05-03T16:53:15Z</time></trkpt><trkpt lat="43.93364857948734" lon="11.472032776524214"><ele>177.0</ele><time>2026-05-03T16:53:16Z</time></trkpt><trkpt lat="43.93359141447292" lon="11.471898598296937"><ele>177.25</ele><time>2026-05-03T16:53:17Z</time></trkpt><trkpt lat="43.93350854562361" lon="11.471784704324858"><ele>177.5</ele><time>2026-05-03T16:53:18Z</time></trkpt><trkpt lat="43.933388769539235" lon="11.471715142695754"><ele>177.75</ele><time>2026-05-03T16:53:19Z</time></trkpt><trkpt lat="43.93325032049828" lon="11.47165712956355"><ele>178.0</ele><time>2026-05-03T16:53:20Z</time></trkpt><trkpt lat="43.93310011231633" lon="11.4715966102087"><ele>176.33333333333334</ele><time>2026-05-03T16:53:21Z</time></trkpt><trkpt lat="43.93293907874221" lon="11.471517615415076"><ele>174.66666666666666</ele><time>2026-05-03T16:53:22Z</time></trkpt><trkpt lat="43.93277289051331" lon="11.471432585645186"><ele>173.0</ele><time>2026-05-03T16:53:23Z</time></trkpt><trkpt lat="43.93259654185569" lon="11.471349856339868"><ele>173.33333333333331</ele><time>2026-05-03T16:53:24Z</time></trkpt><trkpt lat="43.93242920191984" lon="11.471273760175041"><ele>173.66666666666666</ele><time>2026-05-03T16:53:25Z</time></trkpt><trkpt lat="43.93227233376154" lon="11.471185552853829"><ele>174.0</ele><time>2026-05-03T16:53:26Z</time></trkpt><trkpt lat="43.93212200096357" lon="11.471079578094969"><ele>174.0</ele><time>2026-05-03T16:53:27Z</time></trkpt><trkpt lat="43.93197092313642" lon="11.470968912953426"><ele>174.0</ele><time>2026-05-03T16:53:28Z</time></trkpt><trkpt lat="43.93182301049979" lon="11.470856329243462"><ele>174.0</ele><time>2026-05-03T16:53:29Z</time></trkpt><trkpt lat="43.93167905001884" lon="11.470748267236841"><ele>174.0</ele><time>2026-05-03T16:53:30Z</time></trkpt><trkpt lat="43.931532897656815" lon="11.47062849209711"><ele>174.0</ele><time>2026-05-03T16:53:31Z</time></trkpt><trkpt lat="43.931392672130436" lon="11.470499213735984"><ele>174.0</ele><time>2026-05-03T16:53:32Z</time></trkpt><trkpt lat="43.93125223881868" lon="11.470370155025448"><ele>173.66666666666666</ele><time>2026-05-03T16:53:33Z</time></trkpt><trkpt lat="43.93111728157118" lon="11.470233556423036"><ele>173.33333333333331</ele><time>2026-05-03T16:53:34Z</time></trkpt><trkpt lat="43.93098922870319" lon="11.470083962631293"><ele>173.0</ele><time>2026-05-03T16:53:35Z</time></trkpt><trkpt lat="43.930872852816556" lon="11.469919067666362"><ele>173.0</ele><time>2026-05-03T16:53:36Z</time></trkpt><trkpt lat="43.93076927133519" lon="11.46974336055976"><ele>173.0</ele><time>2026-05-03T16:53:37Z</time></trkpt><trkpt lat="43.930673949241715" lon="11.469558986165607"><ele>173.0</ele><time>2026-05-03T16:53:38Z</time></trkpt><trkpt lat="43.930587309293216" lon="11.469368405213809"><ele>174.66666666666666</ele><time>2026-05-03T16:53:39Z</time></trkpt><trkpt lat="43.93051337173736" lon="11.469169981040304"><ele>176.33333333333334</ele><time>2026-05-03T16:53:40Z</time></trkpt><trkpt lat="43.93045492654326" lon="11.468961383954687"><ele>178.0</ele><time>2026-05-03T16:53:41Z</time></trkpt><trkpt lat="43.93040225533034" lon="11.468745448938705"><ele>181.0</ele><time>2026-05-03T16:53:42Z</time></trkpt><trkpt lat="43.93035708399918" lon="11.468528324303366"><ele>184.0</ele><time>2026-05-03T16:53:43Z</time></trkpt><trkpt lat="43.930314638546" lon="11.468313178950357"><ele>187.0</ele><time>2026-05-03T16:53:44Z</time></trkpt><trkpt lat="43.930284646249824" lon="11.468090207437188"><ele>189.0</ele><time>2026-05-03T16:53:45Z</time></trkpt><trkpt lat="43.93027001728077" lon="11.467862110763829"><ele>191.0</ele><time>2026-05-03T16:53:46Z</time></trkpt><trkpt lat="43.93027477716972" lon="11.467629751256982"><ele>193.0</ele><time>2026-05-03T16:53:47Z</time></trkpt><trkpt lat="43.93029145745867" lon="11.467397421729933"><ele>193.0</ele><time>2026-05-03T16:53:48Z</time></trkpt><trkpt lat="43.930319183748146" lon="11.467171139149297"><ele>193.0</ele><time>2026-05-03T16:53:49Z</time></trkpt><trkpt lat="43.93036666922037" lon="11.466949147095667"><ele>193.0</ele><time>2026-05-03T16:53:50Z</time></trkpt><trkpt lat="43.93042154071513" lon="11.466723888168719"><ele>191.66666666666666</ele><time>2026-05-03T16:53:51Z</time></trkpt><trkpt lat="43.93047926943213" lon="11.466496820960717"><ele>190.33333333333331</ele><time>2026-05-03T16:53:52Z</time></trkpt><trkpt lat="43.93054493482049" lon="11.466273984570366"><ele>189.0</ele><time>2026-05-03T16:53:53Z</time></trkpt><trkpt lat="43.93061463334097" lon="11.466064190986458"><ele>190.66666666666669</ele><time>2026-05-03T16:53:54Z</time></trkpt><trkpt lat="43.93069790187175" lon="11.465882368620926"><ele>192.33333333333334</ele><time>2026-05-03T16:53:55Z</time></trkpt><trkpt lat="43.93079969335811" lon="11.465708763547653"><ele>194.0</ele><time>2026-05-03T16:53:56Z</time></trkpt><trkpt lat="43.9309141895827" lon="11.465537532101406"><ele>191.0</ele><time>2026-05-03T16:53:57Z</time></trkpt><trkpt lat="43.93103173631669" lon="11.465360870425387"><ele>188.0</ele><time>2026-05-03T16:53:58Z</time></trkpt><trkpt lat="43.93114951473849" lon="11.465188993523956"><ele>185.0</ele><time>2026-05-03T16:53:59Z</time></trkpt><trkpt lat="43.931260667805915" lon="11.465025772769636"><ele>185.0</ele><time>2026-05-03T16:54:00Z</time></trkpt><trkpt lat="43.931368170850625" lon="11.464869213305992"><ele>185.0</ele><time>2026-05-03T16:54:01Z</time></trkpt><trkpt lat="43.93147267744179" lon="11.4647163051612"><ele>185.0</ele><time>2026-05-03T16:54:02Z</time></trkpt><trkpt lat="43.93156753781023" lon="11.46456669505964"><ele>183.5</ele><time>2026-05-03T16:54:03Z</time></trkpt><trkpt lat="43.931651967844864" lon="11.464409989092902"><ele>182.0</ele><time>2026-05-03T16:54:04Z</time></trkpt><trkpt lat="43.93172694197757" lon="11.464245257260298"><ele>180.5</ele><time>2026-05-03T16:54:05Z</time></trkpt><trkpt lat="43.93178422203454" lon="11.464077920653867"><ele>179.0</ele><time>2026-05-03T16:54:06Z</time></trkpt><trkpt lat="43.9318220331824" lon="11.463918761387744"><ele>180.75</ele><time>2026-05-03T16:54:07Z</time></trkpt><trkpt lat="43.93185466860203" lon="11.463758862237153"><ele>182.5</ele><time>2026-05-03T16:54:08Z</time></trkpt><trkpt lat="43.93189371423481" lon="11.463579318420232"><ele>184.25</ele><time>2026-05-03T16:54:09Z</time></trkpt><trkpt lat="43.9319380089151" lon="11.463396457200112"><ele>186.0</ele><time>2026-05-03T16:54:10Z</time></trkpt><trkpt lat="43.93200102238559" lon="11.463206653435254"><ele>186.0</ele><time>2026-05-03T16:54:11Z</time></trkpt><trkpt lat="43.93206269685749" lon="11.463008307150655"><ele>186.0</ele><time>2026-05-03T16:54:12Z</time></trkpt><trkpt lat="43.93211578958128" lon="11.46279758838986"><ele>186.0</ele><time>2026-05-03T16:54:13Z</time></trkpt><trkpt lat="43.93217014244964" lon="11.46258083613662"><ele>185.0</ele><time>2026-05-03T16:54:14Z</time></trkpt><trkpt lat="43.93223019563235" lon="11.462351452165542"><ele>184.0</ele><time>2026-05-03T16:54:15Z</time></trkpt><trkpt lat="43.93229178371293" lon="11.46212164074514"><ele>183.0</ele><time>2026-05-03T16:54:16Z</time></trkpt><trkpt lat="43.93235574202765" lon="11.461901501651818"><ele>182.66666666666666</ele><time>2026-05-03T16:54:17Z</time></trkpt><trkpt lat="43.93242239586934" lon="11.4616936614112"><ele>182.33333333333331</ele><time>2026-05-03T16:54:18Z</time></trkpt><trkpt lat="43.93249402011274" lon="11.461494971393808"><ele>182.0</ele><time>2026-05-03T16:54:19Z</time></trkpt><trkpt lat="43.93256680170456" lon="11.461306143221487"><ele>183.0</ele><time>2026-05-03T16:54:20Z</time></trkpt><trkpt lat="43.9326473380277" lon="11.46111692826678"><ele>184.0</ele><time>2026-05-03T16:54:21Z</time></trkpt><trkpt lat="43.9327357683018" lon="11.460934430210816"><ele>185.0</ele><time>2026-05-03T16:54:22Z</time></trkpt><trkpt lat="43.93282962064925" lon="11.460775126599511"><ele>185.0</ele><time>2026-05-03T16:54:23Z</time></trkpt><trkpt lat="43.93292062952113" lon="11.460631071895593"><ele>185.0</ele><time>2026-05-03T16:54:24Z</time></trkpt><trkpt lat="43.932990203539525" lon="11.460502984518786"><ele>185.0</ele><time>2026-05-03T16:54:25Z</time></trkpt><trkpt lat="43.93306640637621" lon="11.46038826076935"><ele>185.0</ele><time>2026-05-03T16:54:26Z</time></trkpt><trkpt lat="43.933136120366726" lon="11.460274186294518"><ele>184.8</ele><time>2026-05-03T16:54:27Z</time></trkpt><trkpt lat="43.933206958267725" lon="11.460162936916259"><ele>184.6</ele><time>2026-05-03T16:54:28Z</time></trkpt><trkpt lat="43.93327261990741" lon="11.460057713119921"><ele>184.39999999999998</ele><time>2026-05-03T16:54:29Z</time></trkpt><trkpt lat="43.93333742273056" lon="11.459954654317428"><ele>184.2</ele><time>2026-05-03T16:54:30Z</time></trkpt><trkpt lat="43.933398342228884" lon="11.459848881043497"><ele>184.0</ele><time>2026-05-03T16:54:31Z</time></trkpt><trkpt lat="43.93345629181975" lon="11.459748625499202"><ele>184.0</ele><time>2026-05-03T16:54:32Z</time></trkpt><trkpt lat="43.933505170307406" lon="11.459665728941081"><ele>184.0</ele><time>2026-05-03T16:54:33Z</time></trkpt><trkpt lat="43.93355961267509" lon="11.459565658029796"><ele>184.0</ele><time>2026-05-03T16:54:35Z</time></trkpt><trkpt lat="43.93360494499334" lon="11.459492543341657"><ele>184.0</ele><time>2026-05-03T16:54:37Z</time></trkpt><trkpt lat="43.933681231973736" lon="11.459390700430015"><ele>184.0</ele><time>2026-05-03T16:54:40Z</time></trkpt><trkpt lat="43.93374484375445" lon="11.459310914064735"><ele>184.0</ele><time>2026-05-03T16:54:42Z</time></trkpt><trkpt lat="43.93378382387288" lon="11.459178122849329"><ele>184.0</ele><time>2026-05-03T16:54:44Z</time></trkpt><trkpt lat="43.93380212576935" lon="11.459094481334061"><ele>184.0</ele><time>2026-05-03T16:54:45Z</time></trkpt><trkpt lat="43.93379581509074" lon="11.458976267664625"><ele>184.0</ele><time>2026-05-03T16:54:46Z</time></trkpt><trkpt lat="43.93380323414346" lon="11.458844289539838"><ele>184.0</ele><time>2026-05-03T16:54:47Z</time></trkpt><trkpt lat="43.933819356881706" lon="11.458687231429332"><ele>184.0</ele><time>2026-05-03T16:54:48Z</time></trkpt><trkpt lat="43.93383717720577" lon="11.458511934203129"><ele>183.5</ele><time>2026-05-03T16:54:49Z</time></trkpt><trkpt lat="43.93385970677431" lon="11.458317483421013"><ele>183.0</ele><time>2026-05-03T16:54:50Z</time></trkpt><trkpt lat="43.93388629425201" lon="11.458112808314452"><ele>182.5</ele><time>2026-05-03T16:54:51Z</time></trkpt><trkpt lat="43.93391477892311" lon="11.457919624050994"><ele>182.0</ele><time>2026-05-03T16:54:52Z</time></trkpt><trkpt lat="43.93394261516834" lon="11.457733185245953"><ele>181.75</ele><time>2026-05-03T16:54:53Z</time></trkpt><trkpt lat="43.933966454036195" lon="11.457553506973023"><ele>181.5</ele><time>2026-05-03T16:54:54Z</time></trkpt><trkpt lat="43.93398969177536" lon="11.45738106576206"><ele>181.25</ele><time>2026-05-03T16:54:55Z</time></trkpt><trkpt lat="43.93401479129428" lon="11.457204159801641"><ele>181.0</ele><time>2026-05-03T16:54:56Z</time></trkpt><trkpt lat="43.93403944069768" lon="11.457024079474136"><ele>180.75</ele><time>2026-05-03T16:54:57Z</time></trkpt><trkpt lat="43.93406441362649" lon="11.456847447646116"><ele>180.5</ele><time>2026-05-03T16:54:58Z</time></trkpt><trkpt lat="43.93409175604196" lon="11.456674150537397"><ele>180.25</ele><time>2026-05-03T16:54:59Z</time></trkpt><trkpt lat="43.93411357861996" lon="11.456518331803187"><ele>180.0</ele><time>2026-05-03T16:55:00Z</time></trkpt><trkpt lat="43.93413435934123" lon="11.456376337686448"><ele>179.83333333333334</ele><time>2026-05-03T16:55:01Z</time></trkpt><trkpt lat="43.93415656884452" lon="11.456249777638282"><ele>179.66666666666666</ele><time>2026-05-03T16:55:02Z</time></trkpt><trkpt lat="43.93417659043831" lon="11.456133041256097"><ele>179.5</ele><time>2026-05-03T16:55:03Z</time></trkpt><trkpt lat="43.93419309860568" lon="11.456028094124289"><ele>179.33333333333331</ele><time>2026-05-03T16:55:04Z</time></trkpt><trkpt lat="43.934227075625" lon="11.455926807124092"><ele>179.16666666666666</ele><time>2026-05-03T16:55:05Z</time></trkpt><trkpt lat="43.934250661057476" lon="11.455811738770498"><ele>179.0</ele><time>2026-05-03T16:55:06Z</time></trkpt><trkpt lat="43.93427548115826" lon="11.455694533307353"><ele>179.0</ele><time>2026-05-03T16:55:07Z</time></trkpt><trkpt lat="43.93430225392283" lon="11.455569698381572"><ele>179.0</ele><time>2026-05-03T16:55:08Z</time></trkpt><trkpt lat="43.93433107918067" lon="11.455435293108"><ele>179.0</ele><time>2026-05-03T16:55:09Z</time></trkpt><trkpt lat="43.9343600415745" lon="11.455300248341715"><ele>179.0</ele><time>2026-05-03T16:55:10Z</time></trkpt><trkpt lat="43.934390604071375" lon="11.455157742759349"><ele>179.0</ele><time>2026-05-03T16:55:11Z</time></trkpt><trkpt lat="43.934421449967594" lon="11.455013917145838"><ele>179.0</ele><time>2026-05-03T16:55:12Z</time></trkpt><trkpt lat="43.93443616411563" lon="11.454859757034697"><ele>179.0</ele><time>2026-05-03T16:55:13Z</time></trkpt><trkpt lat="43.93446853313322" lon="11.454712357341696"><ele>179.0</ele><time>2026-05-03T16:55:14Z</time></trkpt><trkpt lat="43.93449724881367" lon="11.45456665699965"><ele>179.0</ele><time>2026-05-03T16:55:15Z</time></trkpt><trkpt lat="43.93454126442676" lon="11.454439531400887"><ele>179.0</ele><time>2026-05-03T16:55:16Z</time></trkpt><trkpt lat="43.93456722984821" lon="11.45431504044712"><ele>179.16666666666666</ele><time>2026-05-03T16:55:17Z</time></trkpt><trkpt lat="43.93459073124624" lon="11.454199100251163"><ele>179.33333333333331</ele><time>2026-05-03T16:55:18Z</time></trkpt><trkpt lat="43.934612042005625" lon="11.454083049407965"><ele>179.5</ele><time>2026-05-03T16:55:19Z</time></trkpt><trkpt lat="43.93462520286206" lon="11.453970725709585"><ele>179.66666666666666</ele><time>2026-05-03T16:55:20Z</time></trkpt><trkpt lat="43.934629509220336" lon="11.453862370101858"><ele>179.83333333333334</ele><time>2026-05-03T16:55:21Z</time></trkpt><trkpt lat="43.9346277283498" lon="11.453758106590826"><ele>180.0</ele><time>2026-05-03T16:55:22Z</time></trkpt><trkpt lat="43.93462226823511" lon="11.453658815939207"><ele>184.0</ele><time>2026-05-03T16:55:23Z</time></trkpt><trkpt lat="43.93461185447379" lon="11.453522588672321"><ele>184.0</ele><time>2026-05-03T16:55:25Z</time></trkpt><trkpt lat="43.93462239140389" lon="11.453432063779534"><ele>184.0</ele><time>2026-05-03T16:55:28Z</time></trkpt><trkpt lat="43.93458544548669" lon="11.453351958642104"><ele>184.0</ele><time>2026-05-03T16:55:30Z</time></trkpt></trkseg><trkseg><trkpt lat="43.941860148169546" lon="11.433488724125722"><ele>191.0</ele><time>2026-05-03T16:58:19Z</time></trkpt><trkpt lat="43.94191478190102" lon="11.433265445245413"><ele>191.0</ele><time>2026-05-03T16:58:20Z</time></trkpt><trkpt lat="43.94197293163048" lon="11.433052214306562"><ele>191.0</ele><time>2026-05-03T16:58:21Z</time></trkpt><trkpt lat="43.942026202388455" lon="11.432831871217086"><ele>191.33333333333331</ele><time>2026-05-03T16:58:22Z</time></trkpt><trkpt lat="43.942086788521316" lon="11.432595945387744"><ele>191.66666666666666</ele><time>2026-05-03T16:58:23Z</time></trkpt><trkpt lat="43.94213911677596" lon="11.432354278396689"><ele>192.0</ele><time>2026-05-03T16:58:24Z</time></trkpt><trkpt lat="43.94216800444473" lon="11.432103352654766"><ele>192.0</ele><time>2026-05-03T16:58:25Z</time></trkpt><trkpt lat="43.942179088147775" lon="11.431862018612412"><ele>192.0</ele><time>2026-05-03T16:58:26Z</time></trkpt><trkpt lat="43.94218417641055" lon="11.431651735721442"><ele>192.0</ele><time>2026-05-03T16:58:27Z</time></trkpt><trkpt lat="43.94217762131918" lon="11.431476392299903"><ele>192.0</ele><time>2026-05-03T16:58:28Z</time></trkpt><trkpt lat="43.9421634138909" lon="11.43131439377616"><ele>192.0</ele><time>2026-05-03T16:58:29Z</time></trkpt><trkpt lat="43.94217949860927" lon="11.43114977372846"><ele>192.0</ele><time>2026-05-03T16:58:30Z</time></trkpt><trkpt lat="43.94220565122977" lon="11.430973017841984"><ele>192.0</ele><time>2026-05-03T16:58:31Z</time></trkpt><trkpt lat="43.94224451321303" lon="11.430784711295274"><ele>191.75</ele><time>2026-05-03T16:58:32Z</time></trkpt><trkpt lat="43.94227907316132" lon="11.430596987995411"><ele>191.5</ele><time>2026-05-03T16:58:33Z</time></trkpt><trkpt lat="43.94236638477717" lon="11.43045059632611"><ele>191.25</ele><time>2026-05-03T16:58:34Z</time></trkpt><trkpt lat="43.94244377455263" lon="11.430306540522393"><ele>191.0</ele><time>2026-05-03T16:58:35Z</time></trkpt><trkpt lat="43.94257723826092" lon="11.430242146331924"><ele>191.0</ele><time>2026-05-03T16:58:36Z</time></trkpt><trkpt lat="43.94269688936803" lon="11.430140190775623"><ele>191.0</ele><time>2026-05-03T16:58:37Z</time></trkpt><trkpt lat="43.94281982750263" lon="11.430054323429037"><ele>191.0</ele><time>2026-05-03T16:58:38Z</time></trkpt><trkpt lat="43.94293634985357" lon="11.429963939832572"><ele>191.0</ele><time>2026-05-03T16:58:39Z</time></trkpt><trkpt lat="43.94303849099915" lon="11.42985258974728"><ele>191.0</ele><time>2026-05-03T16:58:40Z</time></trkpt><trkpt lat="43.9431243765736" lon="11.429714821708568"><ele>191.0</ele><time>2026-05-03T16:58:41Z</time></trkpt><trkpt lat="43.94316346944996" lon="11.429540327921314"><ele>191.0</ele><time>2026-05-03T16:58:42Z</time></trkpt><trkpt lat="43.943160990380335" lon="11.429338757536113"><ele>191.0</ele><time>2026-05-03T16:58:43Z</time></trkpt><trkpt lat="43.943151895879325" lon="11.429120910189893"><ele>189.33333333333331</ele><time>2026-05-03T16:58:44Z</time></trkpt><trkpt lat="43.94316731899184" lon="11.428882907383286"><ele>187.66666666666666</ele><time>2026-05-03T16:58:45Z</time></trkpt><trkpt lat="43.94317736905754" lon="11.428588033149172"><ele>186.0</ele><time>2026-05-03T16:58:46Z</time></trkpt><trkpt lat="43.943189106400176" lon="11.428260558703304"><ele>185.5</ele><time>2026-05-03T16:58:47Z</time></trkpt><trkpt lat="43.94320157825263" lon="11.427918650391787"><ele>185.0</ele><time>2026-05-03T16:58:48Z</time></trkpt><trkpt lat="43.94321361024245" lon="11.427591081599"><ele>185.0</ele><time>2026-05-03T16:58:49Z</time></trkpt><trkpt lat="43.94321614607539" lon="11.427300678280748"><ele>185.0</ele><time>2026-05-03T16:58:50Z</time></trkpt><trkpt lat="43.94322721869313" lon="11.427031327097689"><ele>185.0</ele><time>2026-05-03T16:58:51Z</time></trkpt><trkpt lat="43.94323446819865" lon="11.426778094790501"><ele>185.66666666666666</ele><time>2026-05-03T16:58:52Z</time></trkpt><trkpt lat="43.9432409938064" lon="11.426530180331977"><ele>186.33333333333334</ele><time>2026-05-03T16:58:53Z</time></trkpt><trkpt lat="43.94324953583445" lon="11.426301975987537"><ele>187.0</ele><time>2026-05-03T16:58:54Z</time></trkpt><trkpt lat="43.94325870112964" lon="11.426099056910743"><ele>187.0</ele><time>2026-05-03T16:58:55Z</time></trkpt><trkpt lat="43.943265518077844" lon="11.425931762185021"><ele>187.0</ele><time>2026-05-03T16:58:56Z</time></trkpt><trkpt lat="43.943267521930544" lon="11.425791879958444"><ele>187.0</ele><time>2026-05-03T16:58:57Z</time></trkpt><trkpt lat="43.9432753096851" lon="11.425663695468291"><ele>187.0</ele><time>2026-05-03T16:58:58Z</time></trkpt><trkpt lat="43.94328174042157" lon="11.42552556370785"><ele>187.0</ele><time>2026-05-03T16:58:59Z</time></trkpt><trkpt lat="43.943288304593686" lon="11.425383707838936"><ele>187.75</ele><time>2026-05-03T16:59:00Z</time></trkpt><trkpt lat="43.943296115997605" lon="11.425238822426088"><ele>188.5</ele><time>2026-05-03T16:59:01Z</time></trkpt><trkpt lat="43.943302269255476" lon="11.425078970929137"><ele>189.25</ele><time>2026-05-03T16:59:02Z</time></trkpt><trkpt lat="43.94330693698431" lon="11.424903637490235"><ele>190.0</ele><time>2026-05-03T16:59:03Z</time></trkpt><trkpt lat="43.943310834868484" lon="11.424709842301057"><ele>191.0</ele><time>2026-05-03T16:59:04Z</time></trkpt><trkpt lat="43.94331537509928" lon="11.424507711047188"><ele>192.0</ele><time>2026-05-03T16:59:05Z</time></trkpt><trkpt lat="43.94333009585258" lon="11.424294531721571"><ele>193.0</ele><time>2026-05-03T16:59:06Z</time></trkpt><trkpt lat="43.94334168750974" lon="11.424080864640977"><ele>193.0</ele><time>2026-05-03T16:59:07Z</time></trkpt><trkpt lat="43.94334228563031" lon="11.423855146613631"><ele>193.0</ele><time>2026-05-03T16:59:08Z</time></trkpt><trkpt lat="43.94334602956485" lon="11.423624330401678"><ele>193.0</ele><time>2026-05-03T16:59:09Z</time></trkpt><trkpt lat="43.94335715667826" lon="11.423383700910675"><ele>193.66666666666666</ele><time>2026-05-03T16:59:10Z</time></trkpt><trkpt lat="43.943367767917955" lon="11.423114420112173"><ele>194.33333333333331</ele><time>2026-05-03T16:59:11Z</time></trkpt><trkpt lat="43.943377371290545" lon="11.42281307974447"><ele>195.0</ele><time>2026-05-03T16:59:12Z</time></trkpt><trkpt lat="43.94339128030789" lon="11.422489607478123"><ele>196.0</ele><time>2026-05-03T16:59:13Z</time></trkpt><trkpt lat="43.943403992326274" lon="11.422143400922234"><ele>197.0</ele><time>2026-05-03T16:59:14Z</time></trkpt><trkpt lat="43.943417941160206" lon="11.421781258118875"><ele>197.0</ele><time>2026-05-03T16:59:15Z</time></trkpt><trkpt lat="43.9434304025386" lon="11.421435525046714"><ele>197.0</ele><time>2026-05-03T16:59:16Z</time></trkpt><trkpt lat="43.94344565103289" lon="11.421099658208968"><ele>197.5</ele><time>2026-05-03T16:59:17Z</time></trkpt><trkpt lat="43.94346357259255" lon="11.420778831959053"><ele>198.0</ele><time>2026-05-03T16:59:18Z</time></trkpt><trkpt lat="43.94348017350036" lon="11.42046245166284"><ele>197.0</ele><time>2026-05-03T16:59:19Z</time></trkpt><trkpt lat="43.94350875884172" lon="11.420142086623715"><ele>196.0</ele><time>2026-05-03T16:59:20Z</time></trkpt><trkpt lat="43.94355538530142" lon="11.41983685558795"><ele>196.0</ele><time>2026-05-03T16:59:21Z</time></trkpt><trkpt lat="43.943609652470776" lon="11.419537620280664"><ele>196.0</ele><time>2026-05-03T16:59:22Z</time></trkpt><trkpt lat="43.94365995690241" lon="11.419251799869992"><ele>196.0</ele><time>2026-05-03T16:59:23Z</time></trkpt><trkpt lat="43.94370973355159" lon="11.41900221994361"><ele>196.0</ele><time>2026-05-03T16:59:24Z</time></trkpt><trkpt lat="43.943769130391274" lon="11.41877868022757"><ele>196.0</ele><time>2026-05-03T16:59:25Z</time></trkpt><trkpt lat="43.94385502543744" lon="11.418552826522289"><ele>196.0</ele><time>2026-05-03T16:59:26Z</time></trkpt><trkpt lat="43.94395961834427" lon="11.418312687275145"><ele>196.0</ele><time>2026-05-03T16:59:27Z</time></trkpt><trkpt lat="43.944059449753134" lon="11.418070862084983"><ele>196.0</ele><time>2026-05-03T16:59:28Z</time></trkpt><trkpt lat="43.94415368066981" lon="11.417835359335538"><ele>196.0</ele><time>2026-05-03T16:59:29Z</time></trkpt><trkpt lat="43.944239011243425" lon="11.41760544090072"><ele>196.0</ele><time>2026-05-03T16:59:30Z</time></trkpt><trkpt lat="43.944321553390324" lon="11.417387867522518"><ele>196.0</ele><time>2026-05-03T16:59:31Z</time></trkpt><trkpt lat="43.94440196756042" lon="11.417172348043371"><ele>196.0</ele><time>2026-05-03T16:59:32Z</time></trkpt><trkpt lat="43.94447138970193" lon="11.416948813699307"><ele>196.0</ele><time>2026-05-03T16:59:33Z</time></trkpt><trkpt lat="43.944531313106836" lon="11.416709720118277"><ele>196.0</ele><time>2026-05-03T16:59:34Z</time></trkpt><trkpt lat="43.94456767194512" lon="11.416450717600659"><ele>196.0</ele><time>2026-05-03T16:59:35Z</time></trkpt><trkpt lat="43.94458627121511" lon="11.416179798956563"><ele>196.66666666666666</ele><time>2026-05-03T16:59:36Z</time></trkpt><trkpt lat="43.94458174510053" lon="11.415885500632315"><ele>197.33333333333331</ele><time>2026-05-03T16:59:37Z</time></trkpt><trkpt lat="43.94457120302906" lon="11.415581326510376"><ele>198.0</ele><time>2026-05-03T16:59:38Z</time></trkpt><trkpt lat="43.94456438642035" lon="11.41525723939734"><ele>198.0</ele><time>2026-05-03T16:59:39Z</time></trkpt><trkpt lat="43.94455767233264" lon="11.414938766747513"><ele>198.0</ele><time>2026-05-03T16:59:40Z</time></trkpt><trkpt lat="43.94455240040084" lon="11.414645992675515"><ele>198.0</ele><time>2026-05-03T16:59:41Z</time></trkpt><trkpt lat="43.94455306753467" lon="11.414380663121616"><ele>198.0</ele><time>2026-05-03T16:59:42Z</time></trkpt><trkpt lat="43.94455243004077" lon="11.414142427786578"><ele>198.0</ele><time>2026-05-03T16:59:43Z</time></trkpt><trkpt lat="43.94455586342352" lon="11.413903750765193"><ele>198.0</ele><time>2026-05-03T16:59:44Z</time></trkpt><trkpt lat="43.944599167987505" lon="11.413666640566943"><ele>198.0</ele><time>2026-05-03T16:59:45Z</time></trkpt><trkpt lat="43.94464901633023" lon="11.413433422379489"><ele>198.0</ele><time>2026-05-03T16:59:46Z</time></trkpt><trkpt lat="43.944732862581844" lon="11.413197251302359"><ele>198.0</ele><time>2026-05-03T16:59:47Z</time></trkpt><trkpt lat="43.94483072846788" lon="11.41295647633807"><ele>198.0</ele><time>2026-05-03T16:59:48Z</time></trkpt><trkpt lat="43.944935173402335" lon="11.412702909422633"><ele>198.0</ele><time>2026-05-03T16:59:49Z</time></trkpt><trkpt lat="43.94504605531501" lon="11.412446384048966"><ele>198.0</ele><time>2026-05-03T16:59:50Z</time></trkpt><trkpt lat="43.94516029707188" lon="11.412181627663514"><ele>196.33333333333331</ele><time>2026-05-03T16:59:51Z</time></trkpt><trkpt lat="43.94526523692649" lon="11.411913318497575"><ele>194.66666666666666</ele><time>2026-05-03T16:59:52Z</time></trkpt><trkpt lat="43.945367098380416" lon="11.411644789170461"><ele>193.0</ele><time>2026-05-03T16:59:53Z</time></trkpt><trkpt lat="43.94546376892741" lon="11.411400060953529"><ele>192.66666666666666</ele><time>2026-05-03T16:59:54Z</time></trkpt><trkpt lat="43.94555944174201" lon="11.411157057278588"><ele>192.33333333333331</ele><time>2026-05-03T16:59:55Z</time></trkpt><trkpt lat="43.94565844693623" lon="11.41090567844228"><ele>192.0</ele><time>2026-05-03T16:59:56Z</time></trkpt><trkpt lat="43.94576723466485" lon="11.41064624785731"><ele>191.66666666666666</ele><time>2026-05-03T16:59:57Z</time></trkpt><trkpt lat="43.94586871438933" lon="11.410395538059547"><ele>191.33333333333331</ele><time>2026-05-03T16:59:58Z</time></trkpt><trkpt lat="43.9459677019671" lon="11.410152461733537"><ele>191.0</ele><time>2026-05-03T16:59:59Z</time></trkpt><trkpt lat="43.94606841281605" lon="11.409922447699287"><ele>192.0</ele><time>2026-05-03T17:00:00Z</time></trkpt><trkpt lat="43.946163665988266" lon="11.409692226405499"><ele>193.0</ele><time>2026-05-03T17:00:01Z</time></trkpt><trkpt lat="43.94626148277398" lon="11.409456283622493"><ele>194.0</ele><time>2026-05-03T17:00:02Z</time></trkpt><trkpt lat="43.946361216531024" lon="11.40921861964234"><ele>194.66666666666669</ele><time>2026-05-03T17:00:03Z</time></trkpt><trkpt lat="43.946469895376865" lon="11.408976214567458"><ele>195.33333333333331</ele><time>2026-05-03T17:00:04Z</time></trkpt><trkpt lat="43.94658446378746" lon="11.408742959464556"><ele>196.0</ele><time>2026-05-03T17:00:05Z</time></trkpt><trkpt lat="43.946707303490776" lon="11.408499768021759"><ele>196.33333333333331</ele><time>2026-05-03T17:00:06Z</time></trkpt><trkpt lat="43.946829378675034" lon="11.408275095658235"><ele>196.66666666666669</ele><time>2026-05-03T17:00:07Z</time></trkpt><trkpt lat="43.94696182496876" lon="11.408054117136201"><ele>197.0</ele><time>2026-05-03T17:00:08Z</time></trkpt><trkpt lat="43.94709914167037" lon="11.407848880899289"><ele>196.33333333333334</ele><time>2026-05-03T17:00:09Z</time></trkpt><trkpt lat="43.94723835964742" lon="11.40764916027869"><ele>195.66666666666669</ele><time>2026-05-03T17:00:10Z</time></trkpt><trkpt lat="43.947402350748256" lon="11.407497389919495"><ele>195.0</ele><time>2026-05-03T17:00:11Z</time></trkpt><trkpt lat="43.94755331262387" lon="11.407324339298734"><ele>195.0</ele><time>2026-05-03T17:00:12Z</time></trkpt><trkpt lat="43.9477195578121" lon="11.407171404885595"><ele>195.0</ele><time>2026-05-03T17:00:13Z</time></trkpt><trkpt lat="43.94788278310719" lon="11.407015624305496"><ele>195.0</ele><time>2026-05-03T17:00:14Z</time></trkpt><trkpt lat="43.94804578966699" lon="11.406852109517278"><ele>194.66666666666669</ele><time>2026-05-03T17:00:15Z</time></trkpt><trkpt lat="43.94820601491411" lon="11.406689517271268"><ele>194.33333333333334</ele><time>2026-05-03T17:00:16Z</time></trkpt><trkpt lat="43.94835865431567" lon="11.406531687511054"><ele>194.0</ele><time>2026-05-03T17:00:17Z</time></trkpt><trkpt lat="43.94849547649722" lon="11.406398507711272"><ele>193.0</ele><time>2026-05-03T17:00:18Z</time></trkpt><trkpt lat="43.9486225757194" lon="11.406271896495214"><ele>192.0</ele><time>2026-05-03T17:00:19Z</time></trkpt><trkpt lat="43.94874482683733" lon="11.406148899714113"><ele>191.0</ele><time>2026-05-03T17:00:20Z</time></trkpt><trkpt lat="43.94885772566174" lon="11.406033935783022"><ele>190.0</ele><time>2026-05-03T17:00:21Z</time></trkpt><trkpt lat="43.94896722069671" lon="11.405914808009713"><ele>190.0</ele><time>2026-05-03T17:00:22Z</time></trkpt><trkpt lat="43.949074175270574" lon="11.405788657586545"><ele>190.0</ele><time>2026-05-03T17:00:23Z</time></trkpt><trkpt lat="43.94918792103003" lon="11.405668886644584"><ele>190.0</ele><time>2026-05-03T17:00:24Z</time></trkpt><trkpt lat="43.94930877344936" lon="11.405556427612948"><ele>190.0</ele><time>2026-05-03T17:00:25Z</time></trkpt><trkpt lat="43.94942960589774" lon="11.405445654703293"><ele>191.0</ele><time>2026-05-03T17:00:26Z</time></trkpt><trkpt lat="43.94955438775296" lon="11.405334140604365"><ele>192.0</ele><time>2026-05-03T17:00:27Z</time></trkpt><trkpt lat="43.94969584050261" lon="11.40521353875507"><ele>193.0</ele><time>2026-05-03T17:00:28Z</time></trkpt><trkpt lat="43.94984925513403" lon="11.4050822195626"><ele>193.0</ele><time>2026-05-03T17:00:29Z</time></trkpt><trkpt lat="43.95001072445341" lon="11.40492897883587"><ele>193.0</ele><time>2026-05-03T17:00:30Z</time></trkpt><trkpt lat="43.950179700607" lon="11.404753748465739"><ele>193.0</ele><time>2026-05-03T17:00:31Z</time></trkpt><trkpt lat="43.95034640896236" lon="11.40456291689549"><ele>194.5</ele><time>2026-05-03T17:00:32Z</time></trkpt><trkpt lat="43.950500513191415" lon="11.404344773471957"><ele>196.0</ele><time>2026-05-03T17:00:33Z</time></trkpt><trkpt lat="43.950634879954826" lon="11.404080477889556"><ele>195.0</ele><time>2026-05-03T17:00:34Z</time></trkpt><trkpt lat="43.950762987376024" lon="11.403814275103015"><ele>194.0</ele><time>2026-05-03T17:00:35Z</time></trkpt><trkpt lat="43.950879183221986" lon="11.403542913611648"><ele>194.0</ele><time>2026-05-03T17:00:36Z</time></trkpt><trkpt lat="43.950986164324355" lon="11.403284653271495"><ele>194.0</ele><time>2026-05-03T17:00:37Z</time></trkpt><trkpt lat="43.95109128420341" lon="11.403035286613358"><ele>194.0</ele><time>2026-05-03T17:00:38Z</time></trkpt><trkpt lat="43.951200914910004" lon="11.402778404771704"><ele>194.0</ele><time>2026-05-03T17:00:39Z</time></trkpt><trkpt lat="43.95130875076433" lon="11.402523360171546"><ele>194.0</ele><time>2026-05-03T17:00:40Z</time></trkpt><trkpt lat="43.951419297853995" lon="11.402265870976025"><ele>194.0</ele><time>2026-05-03T17:00:41Z</time></trkpt><trkpt lat="43.951531429675136" lon="11.402011553630405"><ele>194.33333333333334</ele><time>2026-05-03T17:00:42Z</time></trkpt><trkpt lat="43.95164208676028" lon="11.40175330656611"><ele>194.66666666666669</ele><time>2026-05-03T17:00:43Z</time></trkpt><trkpt lat="43.951748647071405" lon="11.40150169056247"><ele>195.0</ele><time>2026-05-03T17:00:44Z</time></trkpt><trkpt lat="43.95184995249231" lon="11.401270700559493"><ele>195.0</ele><time>2026-05-03T17:00:45Z</time></trkpt><trkpt lat="43.951946178010864" lon="11.401053971238847"><ele>195.0</ele><time>2026-05-03T17:00:46Z</time></trkpt><trkpt lat="43.952035944281754" lon="11.400849917599457"><ele>195.0</ele><time>2026-05-03T17:00:47Z</time></trkpt><trkpt lat="43.95211394525885" lon="11.400664310146327"><ele>195.0</ele><time>2026-05-03T17:00:48Z</time></trkpt><trkpt lat="43.952182688879454" lon="11.400500135024782"><ele>195.0</ele><time>2026-05-03T17:00:49Z</time></trkpt><trkpt lat="43.952249396021855" lon="11.40033029965491"><ele>195.0</ele><time>2026-05-03T17:00:50Z</time></trkpt><trkpt lat="43.952320243943454" lon="11.400162418500285"><ele>195.0</ele><time>2026-05-03T17:00:51Z</time></trkpt><trkpt lat="43.952393171927675" lon="11.399998037155626"><ele>195.25</ele><time>2026-05-03T17:00:52Z</time></trkpt><trkpt lat="43.95246540497531" lon="11.399838096393918"><ele>195.5</ele><time>2026-05-03T17:00:53Z</time></trkpt><trkpt lat="43.952539176565494" lon="11.399677574385239"><ele>195.75</ele><time>2026-05-03T17:00:54Z</time></trkpt><trkpt lat="43.95261085405503" lon="11.399514854275395"><ele>196.0</ele><time>2026-05-03T17:00:55Z</time></trkpt><trkpt lat="43.95268053054838" lon="11.39935399216073"><ele>195.75</ele><time>2026-05-03T17:00:56Z</time></trkpt><trkpt lat="43.95275205704919" lon="11.399195448155082"><ele>195.5</ele><time>2026-05-03T17:00:57Z</time></trkpt><trkpt lat="43.952823139225266" lon="11.399030841176058"><ele>195.25</ele><time>2026-05-03T17:00:58Z</time></trkpt><trkpt lat="43.95289631496122" lon="11.398865143296543"><ele>195.0</ele><time>2026-05-03T17:00:59Z</time></trkpt><trkpt lat="43.9529705041312" lon="11.398696971000154"><ele>195.0</ele><time>2026-05-03T17:01:00Z</time></trkpt><trkpt lat="43.95304336361685" lon="11.398524645306452"><ele>195.0</ele><time>2026-05-03T17:01:01Z</time></trkpt><trkpt lat="43.953117275811216" lon="11.398347171901994"><ele>195.0</ele><time>2026-05-03T17:01:02Z</time></trkpt><trkpt lat="43.95319522206738" lon="11.398172477441426"><ele>195.0</ele><time>2026-05-03T17:01:03Z</time></trkpt><trkpt lat="43.95327078511482" lon="11.397996791972478"><ele>194.75</ele><time>2026-05-03T17:01:04Z</time></trkpt><trkpt lat="43.95334454788752" lon="11.397818943806012"><ele>194.5</ele><time>2026-05-03T17:01:05Z</time></trkpt><trkpt lat="43.95341517996638" lon="11.397648994116867"><ele>194.25</ele><time>2026-05-03T17:01:06Z</time></trkpt><trkpt lat="43.95348386398487" lon="11.397485532293958"><ele>194.0</ele><time>2026-05-03T17:01:07Z</time></trkpt><trkpt lat="43.953551243836806" lon="11.397325444466087"><ele>194.33333333333334</ele><time>2026-05-03T17:01:08Z</time></trkpt><trkpt lat="43.95361518586341" lon="11.39717042979714"><ele>194.66666666666669</ele><time>2026-05-03T17:01:09Z</time></trkpt><trkpt lat="43.95373513820368" lon="11.396898527045298"><ele>195.0</ele><time>2026-05-03T17:01:10Z</time></trkpt><trkpt lat="43.95380465999301" lon="11.396720004441008"><ele>195.0</ele><time>2026-05-03T17:01:11Z</time></trkpt><trkpt lat="43.953874661897764" lon="11.396539316979707"><ele>195.0</ele><time>2026-05-03T17:01:12Z</time></trkpt><trkpt lat="43.9539416842215" lon="11.39636661129213"><ele>195.0</ele><time>2026-05-03T17:01:13Z</time></trkpt><trkpt lat="43.95400702994807" lon="11.396190775901632"><ele>195.0</ele><time>2026-05-03T17:01:14Z</time></trkpt><trkpt lat="43.95407369747161" lon="11.396015987654788"><ele>195.0</ele><time>2026-05-03T17:01:15Z</time></trkpt><trkpt lat="43.9541341668219" lon="11.395842188154175"><ele>195.0</ele><time>2026-05-03T17:01:16Z</time></trkpt><trkpt lat="43.95419547390265" lon="11.395675423269179"><ele>195.0</ele><time>2026-05-03T17:01:17Z</time></trkpt><trkpt lat="43.95425819009298" lon="11.39550831677968"><ele>195.0</ele><time>2026-05-03T17:01:18Z</time></trkpt><trkpt lat="43.95432127632735" lon="11.395337527748374"><ele>196.25</ele><time>2026-05-03T17:01:19Z</time></trkpt><trkpt lat="43.95438011331464" lon="11.395171263009583"><ele>197.5</ele><time>2026-05-03T17:01:20Z</time></trkpt><trkpt lat="43.95444052102544" lon="11.394999876725477"><ele>198.75</ele><time>2026-05-03T17:01:21Z</time></trkpt><trkpt lat="43.954500875692375" lon="11.394836816277"><ele>200.0</ele><time>2026-05-03T17:01:22Z</time></trkpt><trkpt lat="43.95456479149862" lon="11.394669482400435"><ele>200.0</ele><time>2026-05-03T17:01:23Z</time></trkpt><trkpt lat="43.95462451796746" lon="11.394509804076081"><ele>200.0</ele><time>2026-05-03T17:01:24Z</time></trkpt><trkpt lat="43.95468929231007" lon="11.394353204869317"><ele>200.0</ele><time>2026-05-03T17:01:25Z</time></trkpt><trkpt lat="43.95475674192231" lon="11.394196448209723"><ele>200.0</ele><time>2026-05-03T17:01:26Z</time></trkpt><trkpt lat="43.9548236325038" lon="11.394049338628331"><ele>200.0</ele><time>2026-05-03T17:01:27Z</time></trkpt><trkpt lat="43.954885147699066" lon="11.393896420430762"><ele>200.0</ele><time>2026-05-03T17:01:28Z</time></trkpt><trkpt lat="43.954952160818316" lon="11.393741939199028"><ele>200.0</ele><time>2026-05-03T17:01:29Z</time></trkpt><trkpt lat="43.955019919801074" lon="11.39359062401051"><ele>200.0</ele><time>2026-05-03T17:01:30Z</time></trkpt><trkpt lat="43.95508815346011" lon="11.393442301901784"><ele>199.75</ele><time>2026-05-03T17:01:31Z</time></trkpt><trkpt lat="43.95515508291369" lon="11.39330162318379"><ele>199.5</ele><time>2026-05-03T17:01:32Z</time></trkpt><trkpt lat="43.95522320205737" lon="11.393162802457443"><ele>199.25</ele><time>2026-05-03T17:01:33Z</time></trkpt><trkpt lat="43.95529077600765" lon="11.393019274472007"><ele>199.0</ele><time>2026-05-03T17:01:34Z</time></trkpt><trkpt lat="43.955360335417076" lon="11.39288022668881"><ele>198.0</ele><time>2026-05-03T17:01:35Z</time></trkpt><trkpt lat="43.95543184010027" lon="11.392738923744345"><ele>197.0</ele><time>2026-05-03T17:01:36Z</time></trkpt><trkpt lat="43.95550130822657" lon="11.392599715591873"><ele>196.0</ele><time>2026-05-03T17:01:37Z</time></trkpt><trkpt lat="43.9555697052214" lon="11.392457724686182"><ele>195.0</ele><time>2026-05-03T17:01:38Z</time></trkpt><trkpt lat="43.955629860729005" lon="11.392319741324894"><ele>195.0</ele><time>2026-05-03T17:01:39Z</time></trkpt><trkpt lat="43.95568466430424" lon="11.39219107099104"><ele>195.0</ele><time>2026-05-03T17:01:40Z</time></trkpt><trkpt lat="43.955738393207795" lon="11.392070824847531"><ele>195.0</ele><time>2026-05-03T17:01:41Z</time></trkpt><trkpt lat="43.955790418404575" lon="11.391952469056172"><ele>195.0</ele><time>2026-05-03T17:01:42Z</time></trkpt><trkpt lat="43.955840376586266" lon="11.391837842926405"><ele>195.0</ele><time>2026-05-03T17:01:43Z</time></trkpt><trkpt lat="43.9558885570186" lon="11.391722885320025"><ele>195.0</ele><time>2026-05-03T17:01:44Z</time></trkpt><trkpt lat="43.955933762495306" lon="11.391610346782961"><ele>195.0</ele><time>2026-05-03T17:01:45Z</time></trkpt><trkpt lat="43.95597800477315" lon="11.391511761289165"><ele>195.0</ele><time>2026-05-03T17:01:46Z</time></trkpt><trkpt lat="43.956017106337015" lon="11.39142605278526"><ele>195.0</ele><time>2026-05-03T17:01:47Z</time></trkpt><trkpt lat="43.95607987443571" lon="11.391283618043225"><ele>195.0</ele><time>2026-05-03T17:01:49Z</time></trkpt><trkpt lat="43.95613912048709" lon="11.391194181238017"><ele>195.0</ele><time>2026-05-03T17:01:51Z</time></trkpt><trkpt lat="43.9561875186665" lon="11.391124691652747"><ele>195.0</ele><time>2026-05-03T17:01:53Z</time></trkpt><trkpt lat="43.95623364949829" lon="11.391036617697168"><ele>195.0</ele><time>2026-05-03T17:01:55Z</time></trkpt><trkpt lat="43.95629333046946" lon="11.39089336387668"><ele>195.0</ele><time>2026-05-03T17:01:57Z</time></trkpt><trkpt lat="43.95633268066543" lon="11.39079965732582"><ele>195.0</ele><time>2026-05-03T17:01:58Z</time></trkpt><trkpt lat="43.956372596267855" lon="11.390696766672974"><ele>195.0</ele><time>2026-05-03T17:01:59Z</time></trkpt><trkpt lat="43.95640949109531" lon="11.390585718524603"><ele>195.0</ele><time>2026-05-03T17:02:00Z</time></trkpt><trkpt lat="43.956452917699906" lon="11.39046948361214"><ele>195.0</ele><time>2026-05-03T17:02:01Z</time></trkpt><trkpt lat="43.9564966136363" lon="11.390348376568705"><ele>195.0</ele><time>2026-05-03T17:02:02Z</time></trkpt><trkpt lat="43.9565424484469" lon="11.390224414239084"><ele>195.0</ele><time>2026-05-03T17:02:03Z</time></trkpt><trkpt lat="43.956585761285346" lon="11.390099656908218"><ele>195.0</ele><time>2026-05-03T17:02:04Z</time></trkpt><trkpt lat="43.95662932188172" lon="11.389976063294219"><ele>195.0</ele><time>2026-05-03T17:02:05Z</time></trkpt><trkpt lat="43.95667231500145" lon="11.389859797858087"><ele>195.0</ele><time>2026-05-03T17:02:06Z</time></trkpt><trkpt lat="43.956715129992865" lon="11.389742778727593"><ele>195.0</ele><time>2026-05-03T17:02:07Z</time></trkpt><trkpt lat="43.95675755775219" lon="11.389629126741307"><ele>195.0</ele><time>2026-05-03T17:02:08Z</time></trkpt><trkpt lat="43.95680141471591" lon="11.389513114533337"><ele>195.0</ele><time>2026-05-03T17:02:09Z</time></trkpt><trkpt lat="43.95684329432428" lon="11.389402465361037"><ele>195.6</ele><time>2026-05-03T17:02:10Z</time></trkpt><trkpt lat="43.956882136842374" lon="11.389285378388436"><ele>196.2</ele><time>2026-05-03T17:02:11Z</time></trkpt><trkpt lat="43.956921188860925" lon="11.389175094877519"><ele>196.8</ele><time>2026-05-03T17:02:12Z</time></trkpt><trkpt lat="43.9569620904927" lon="11.389065807020268"><ele>197.4</ele><time>2026-05-03T17:02:13Z</time></trkpt><trkpt lat="43.95700513370077" lon="11.388952797115998"><ele>198.0</ele><time>2026-05-03T17:02:14Z</time></trkpt><trkpt lat="43.957045378142936" lon="11.388837762590708"><ele>198.0</ele><time>2026-05-03T17:02:15Z</time></trkpt><trkpt lat="43.957084895895235" lon="11.38873034846265"><ele>198.0</ele><time>2026-05-03T17:02:16Z</time></trkpt><trkpt lat="43.957125147143564" lon="11.388617483003287"><ele>198.0</ele><time>2026-05-03T17:02:17Z</time></trkpt><trkpt lat="43.95717028258706" lon="11.388511417082633"><ele>198.0</ele><time>2026-05-03T17:02:18Z</time></trkpt><trkpt lat="43.95721209288541" lon="11.388401040832372"><ele>198.0</ele><time>2026-05-03T17:02:19Z</time></trkpt><trkpt lat="43.957253450689564" lon="11.388292581470779"><ele>198.0</ele><time>2026-05-03T17:02:20Z</time></trkpt><trkpt lat="43.95729678670539" lon="11.38818160365838"><ele>198.0</ele><time>2026-05-03T17:02:21Z</time></trkpt><trkpt lat="43.957340116173896" lon="11.388057717629561"><ele>198.0</ele><time>2026-05-03T17:02:22Z</time></trkpt><trkpt lat="43.95738414887317" lon="11.387924297548219"><ele>198.0</ele><time>2026-05-03T17:02:23Z</time></trkpt><trkpt lat="43.95743209134828" lon="11.387789030446827"><ele>198.0</ele><time>2026-05-03T17:02:24Z</time></trkpt><trkpt lat="43.95748123681163" lon="11.387640645884941"><ele>198.0</ele><time>2026-05-03T17:02:25Z</time></trkpt><trkpt lat="43.957535006587676" lon="11.387490706916383"><ele>198.4</ele><time>2026-05-03T17:02:26Z</time></trkpt><trkpt lat="43.957588805409166" lon="11.387341330033596"><ele>198.8</ele><time>2026-05-03T17:02:27Z</time></trkpt><trkpt lat="43.957643604365664" lon="11.387197955381641"><ele>199.2</ele><time>2026-05-03T17:02:28Z</time></trkpt><trkpt lat="43.95769384640541" lon="11.387064137917932"><ele>199.6</ele><time>2026-05-03T17:02:29Z</time></trkpt><trkpt lat="43.95774009787266" lon="11.386943563594425"><ele>200.0</ele><time>2026-05-03T17:02:30Z</time></trkpt><trkpt lat="43.9577840104127" lon="11.386824684098324"><ele>200.0</ele><time>2026-05-03T17:02:31Z</time></trkpt><trkpt lat="43.95783154208003" lon="11.386701877938767"><ele>200.0</ele><time>2026-05-03T17:02:32Z</time></trkpt><trkpt lat="43.957873481197325" lon="11.386580726976684"><ele>200.0</ele><time>2026-05-03T17:02:33Z</time></trkpt><trkpt lat="43.95791084489829" lon="11.386459177502157"><ele>200.0</ele><time>2026-05-03T17:02:34Z</time></trkpt><trkpt lat="43.95793892875346" lon="11.386333314093866"><ele>200.0</ele><time>2026-05-03T17:02:35Z</time></trkpt><trkpt lat="43.95795477025025" lon="11.386215329068726"><ele>199.66666666666669</ele><time>2026-05-03T17:02:36Z</time></trkpt><trkpt lat="43.95796643128119" lon="11.386101196043027"><ele>199.33333333333334</ele><time>2026-05-03T17:02:37Z</time></trkpt><trkpt lat="43.95797053250655" lon="11.385990908294199"><ele>199.0</ele><time>2026-05-03T17:02:38Z</time></trkpt><trkpt lat="43.95797301100385" lon="11.385889119328153"><ele>198.66666666666669</ele><time>2026-05-03T17:02:39Z</time></trkpt><trkpt lat="43.957983722082574" lon="11.385786004977454"><ele>198.33333333333334</ele><time>2026-05-03T17:02:40Z</time></trkpt><trkpt lat="43.95800470994914" lon="11.385678215737826"><ele>198.0</ele><time>2026-05-03T17:02:41Z</time></trkpt><trkpt lat="43.95802931529765" lon="11.385566887239428"><ele>198.0</ele><time>2026-05-03T17:02:42Z</time></trkpt><trkpt lat="43.95804962892541" lon="11.38544759376426"><ele>198.0</ele><time>2026-05-03T17:02:43Z</time></trkpt><trkpt lat="43.95806616331367" lon="11.385319865858465"><ele>198.0</ele><time>2026-05-03T17:02:44Z</time></trkpt><trkpt lat="43.958067203555714" lon="11.385177423898815"><ele>198.0</ele><time>2026-05-03T17:02:45Z</time></trkpt><trkpt lat="43.95805612110652" lon="11.385031729751683"><ele>198.0</ele><time>2026-05-03T17:02:46Z</time></trkpt><trkpt lat="43.95803228872915" lon="11.384880737045705"><ele>198.0</ele><time>2026-05-03T17:02:47Z</time></trkpt><trkpt lat="43.958006428320694" lon="11.384729392642761"><ele>198.0</ele><time>2026-05-03T17:02:48Z</time></trkpt><trkpt lat="43.95798863052979" lon="11.384570575326531"><ele>198.0</ele><time>2026-05-03T17:02:49Z</time></trkpt><trkpt lat="43.95797886620408" lon="11.384408888882984"><ele>198.0</ele><time>2026-05-03T17:02:50Z</time></trkpt><trkpt lat="43.95796822312674" lon="11.384253792999637"><ele>198.2</ele><time>2026-05-03T17:02:51Z</time></trkpt><trkpt lat="43.957951470479344" lon="11.384103807999475"><ele>198.4</ele><time>2026-05-03T17:02:52Z</time></trkpt><trkpt lat="43.957931077093754" lon="11.38395717861335"><ele>198.6</ele><time>2026-05-03T17:02:53Z</time></trkpt><trkpt lat="43.957912531848415" lon="11.383819851649557"><ele>198.79999999999998</ele><time>2026-05-03T17:02:54Z</time></trkpt><trkpt lat="43.95789786601896" lon="11.38369498809042"><ele>199.0</ele><time>2026-05-03T17:02:55Z</time></trkpt><trkpt lat="43.957885730924495" lon="11.383586802296643"><ele>198.99999999999997</ele><time>2026-05-03T17:02:56Z</time></trkpt><trkpt lat="43.95787441243331" lon="11.383490415993386"><ele>199.0</ele><time>2026-05-03T17:02:57Z</time></trkpt><trkpt lat="43.95786366778651" lon="11.383404138078337"><ele>199.0</ele><time>2026-05-03T17:02:58Z</time></trkpt><trkpt lat="43.95784333359735" lon="11.383242628703337"><ele>199.0</ele><time>2026-05-03T17:03:00Z</time></trkpt><trkpt lat="43.95782782671377" lon="11.383133353954634"><ele>198.99999999999997</ele><time>2026-05-03T17:03:01Z</time></trkpt><trkpt lat="43.95781598684276" lon="11.383014120854076"><ele>199.0</ele><time>2026-05-03T17:03:02Z</time></trkpt><trkpt lat="43.95780273564351" lon="11.38288679190543"><ele>199.0</ele><time>2026-05-03T17:03:03Z</time></trkpt><trkpt lat="43.95778595377462" lon="11.382751652071642"><ele>199.0</ele><time>2026-05-03T17:03:04Z</time></trkpt><trkpt lat="43.95776985020324" lon="11.382603580355287"><ele>199.0</ele><time>2026-05-03T17:03:05Z</time></trkpt><trkpt lat="43.95774968148511" lon="11.382445946959644"><ele>199.0</ele><time>2026-05-03T17:03:06Z</time></trkpt><trkpt lat="43.957728061539164" lon="11.382279281403605"><ele>199.0</ele><time>2026-05-03T17:03:07Z</time></trkpt><trkpt lat="43.95770362359238" lon="11.382092102695063"><ele>198.75</ele><time>2026-05-03T17:03:08Z</time></trkpt><trkpt lat="43.95767698699152" lon="11.3818927580594"><ele>198.5</ele><time>2026-05-03T17:03:09Z</time></trkpt><trkpt lat="43.95765024183684" lon="11.38168733974582"><ele>198.25</ele><time>2026-05-03T17:03:10Z</time></trkpt><trkpt lat="43.95762449906547" lon="11.381484601291685"><ele>198.0</ele><time>2026-05-03T17:03:11Z</time></trkpt><trkpt lat="43.95759503243021" lon="11.381280851698554"><ele>198.0</ele><time>2026-05-03T17:03:12Z</time></trkpt><trkpt lat="43.95756854855742" lon="11.381077570991529"><ele>198.0</ele><time>2026-05-03T17:03:13Z</time></trkpt><trkpt lat="43.95754398157119" lon="11.380872119986178"><ele>198.0</ele><time>2026-05-03T17:03:14Z</time></trkpt><trkpt lat="43.95752074235173" lon="11.380685411041178"><ele>198.0</ele><time>2026-05-03T17:03:15Z</time></trkpt><trkpt lat="43.95749772790215" lon="11.380506101631706"><ele>197.75</ele><time>2026-05-03T17:03:16Z</time></trkpt><trkpt lat="43.95748082969143" lon="11.380332616012232"><ele>197.5</ele><time>2026-05-03T17:03:17Z</time></trkpt><trkpt lat="43.95746453439286" lon="11.380157875205336"><ele>197.25</ele><time>2026-05-03T17:03:18Z</time></trkpt><trkpt lat="43.95745309367467" lon="11.379969662572945"><ele>197.0</ele><time>2026-05-03T17:03:19Z</time></trkpt><trkpt lat="43.95744131135983" lon="11.379776273346542"><ele>196.75</ele><time>2026-05-03T17:03:20Z</time></trkpt><trkpt lat="43.95743853905026" lon="11.379585990938512"><ele>196.5</ele><time>2026-05-03T17:03:21Z</time></trkpt><trkpt lat="43.957439061940484" lon="11.379407311615905"><ele>196.25</ele><time>2026-05-03T17:03:22Z</time></trkpt><trkpt lat="43.95743860256526" lon="11.379229266582822"><ele>196.0</ele><time>2026-05-03T17:03:23Z</time></trkpt><trkpt lat="43.95743637874538" lon="11.379056035208487"><ele>196.0</ele><time>2026-05-03T17:03:24Z</time></trkpt><trkpt lat="43.95743445746925" lon="11.378880901782498"><ele>196.0</ele><time>2026-05-03T17:03:25Z</time></trkpt><trkpt lat="43.95743363110412" lon="11.37870076401334"><ele>196.0</ele><time>2026-05-03T17:03:26Z</time></trkpt><trkpt lat="43.95743293374638" lon="11.378517440670562"><ele>196.0</ele><time>2026-05-03T17:03:27Z</time></trkpt><trkpt lat="43.95743125985162" lon="11.378328629576046"><ele>196.0</ele><time>2026-05-03T17:03:28Z</time></trkpt><trkpt lat="43.957428733754384" lon="11.378138312363863"><ele>196.0</ele><time>2026-05-03T17:03:29Z</time></trkpt><trkpt lat="43.957427253981166" lon="11.377941118131789"><ele>196.0</ele><time>2026-05-03T17:03:30Z</time></trkpt><trkpt lat="43.957425775964715" lon="11.377739691171842"><ele>196.0</ele><time>2026-05-03T17:03:31Z</time></trkpt><trkpt lat="43.95742542924611" lon="11.377535146312173"><ele>196.0</ele><time>2026-05-03T17:03:32Z</time></trkpt><trkpt lat="43.95742379445861" lon="11.37732833192625"><ele>196.0</ele><time>2026-05-03T17:03:33Z</time></trkpt><trkpt lat="43.957421761898324" lon="11.37712428850864"><ele>196.0</ele><time>2026-05-03T17:03:34Z</time></trkpt><trkpt lat="43.95742052361975" lon="11.376927380506006"><ele>196.0</ele><time>2026-05-03T17:03:35Z</time></trkpt><trkpt lat="43.9574182052267" lon="11.376729596368653"><ele>196.0</ele><time>2026-05-03T17:03:36Z</time></trkpt><trkpt lat="43.957416377985766" lon="11.376530352647405"><ele>196.0</ele><time>2026-05-03T17:03:37Z</time></trkpt><trkpt lat="43.957415370714074" lon="11.376333240077729"><ele>196.0</ele><time>2026-05-03T17:03:38Z</time></trkpt><trkpt lat="43.957410746893565" lon="11.376134979257234"><ele>196.0</ele><time>2026-05-03T17:03:39Z</time></trkpt><trkpt lat="43.957410237615335" lon="11.37593456683261"><ele>196.0</ele><time>2026-05-03T17:03:40Z</time></trkpt><trkpt lat="43.9574085523583" lon="11.375736392432344"><ele>196.0</ele><time>2026-05-03T17:03:41Z</time></trkpt><trkpt lat="43.95740640567388" lon="11.375541912253588"><ele>196.0</ele><time>2026-05-03T17:03:42Z</time></trkpt><trkpt lat="43.957404849602845" lon="11.375350393598191"><ele>196.0</ele><time>2026-05-03T17:03:43Z</time></trkpt><trkpt lat="43.95740726109596" lon="11.375164457803129"><ele>196.0</ele><time>2026-05-03T17:03:44Z</time></trkpt><trkpt lat="43.95740692360735" lon="11.374975778322279"><ele>196.0</ele><time>2026-05-03T17:03:45Z</time></trkpt><trkpt lat="43.95740606815074" lon="11.374790028507144"><ele>196.0</ele><time>2026-05-03T17:03:46Z</time></trkpt><trkpt lat="43.95740444035883" lon="11.374606164082778"><ele>196.0</ele><time>2026-05-03T17:03:47Z</time></trkpt><trkpt lat="43.95740264905098" lon="11.374422843445092"><ele>196.0</ele><time>2026-05-03T17:03:48Z</time></trkpt><trkpt lat="43.957401486160244" lon="11.37424148604664"><ele>196.0</ele><time>2026-05-03T17:03:49Z</time></trkpt><trkpt lat="43.95740142848661" lon="11.374061299159886"><ele>196.0</ele><time>2026-05-03T17:03:50Z</time></trkpt><trkpt lat="43.95740168520962" lon="11.373884818746179"><ele>196.0</ele><time>2026-05-03T17:03:51Z</time></trkpt><trkpt lat="43.957402797835606" lon="11.373712787386486"><ele>196.0</ele><time>2026-05-03T17:03:52Z</time></trkpt><trkpt lat="43.95740146041" lon="11.373545958268716"><ele>196.0</ele><time>2026-05-03T17:03:53Z</time></trkpt><trkpt lat="43.95739460614107" lon="11.37339219134822"><ele>196.0</ele><time>2026-05-03T17:03:54Z</time></trkpt><trkpt lat="43.95737782427787" lon="11.373240675133973"><ele>196.0</ele><time>2026-05-03T17:03:55Z</time></trkpt><trkpt lat="43.95733625932388" lon="11.373094955706383"><ele>196.20000000000002</ele><time>2026-05-03T17:03:56Z</time></trkpt><trkpt lat="43.95726197704642" lon="11.372968859345294"><ele>196.4</ele><time>2026-05-03T17:03:57Z</time></trkpt><trkpt lat="43.957169586396844" lon="11.372871552003657"><ele>196.6</ele><time>2026-05-03T17:03:58Z</time></trkpt><trkpt lat="43.95707068880248" lon="11.372805840168715"><ele>196.8</ele><time>2026-05-03T17:03:59Z</time></trkpt><trkpt lat="43.95697925668916" lon="11.372765339258063"><ele>197.0</ele><time>2026-05-03T17:04:00Z</time></trkpt><trkpt lat="43.95690441803799" lon="11.372721737011785"><ele>197.0</ele><time>2026-05-03T17:04:01Z</time></trkpt><trkpt lat="43.95684694652165" lon="11.37267722879029"><ele>197.0</ele><time>2026-05-03T17:04:02Z</time></trkpt><trkpt lat="43.956781088864844" lon="11.372591269095311"><ele>197.0</ele><time>2026-05-03T17:04:04Z</time></trkpt><trkpt lat="43.95670809851017" lon="11.372446158004008"><ele>197.0</ele><time>2026-05-03T17:04:06Z</time></trkpt><trkpt lat="43.956661478426184" lon="11.372368391697742"><ele>197.0</ele><time>2026-05-03T17:04:07Z</time></trkpt><trkpt lat="43.95667573818524" lon="11.37223417801814"><ele>196.75</ele><time>2026-05-03T17:04:08Z</time></trkpt><trkpt lat="43.956658144939986" lon="11.372114883456481"><ele>196.5</ele><time>2026-05-03T17:04:09Z</time></trkpt><trkpt lat="43.95671732905267" lon="11.37195615960703"><ele>196.25</ele><time>2026-05-03T17:04:10Z</time></trkpt><trkpt lat="43.95677669508819" lon="11.371783162362645"><ele>196.0</ele><time>2026-05-03T17:04:11Z</time></trkpt><trkpt lat="43.95685164152062" lon="11.371601533641538"><ele>196.0</ele><time>2026-05-03T17:04:12Z</time></trkpt><trkpt lat="43.9569236587483" lon="11.371425450291488"><ele>196.0</ele><time>2026-05-03T17:04:13Z</time></trkpt><trkpt lat="43.95698449314363" lon="11.371261832230935"><ele>196.0</ele><time>2026-05-03T17:04:14Z</time></trkpt><trkpt lat="43.95703287898466" lon="11.371134852158047"><ele>196.0</ele><time>2026-05-03T17:04:15Z</time></trkpt><trkpt lat="43.95707876093484" lon="11.371021092309503"><ele>196.0</ele><time>2026-05-03T17:04:16Z</time></trkpt><trkpt lat="43.95713081931984" lon="11.370876819495184"><ele>196.0</ele><time>2026-05-03T17:04:17Z</time></trkpt><trkpt lat="43.95718294670741" lon="11.370736238426517"><ele>196.0</ele><time>2026-05-03T17:04:18Z</time></trkpt><trkpt lat="43.95723931118907" lon="11.370592058094829"><ele>196.0</ele><time>2026-05-03T17:04:19Z</time></trkpt><trkpt lat="43.95729411984609" lon="11.370441629850186"><ele>196.0</ele><time>2026-05-03T17:04:20Z</time></trkpt><trkpt lat="43.957349786416856" lon="11.370287797783215"><ele>196.0</ele><time>2026-05-03T17:04:21Z</time></trkpt><trkpt lat="43.95741145388816" lon="11.370135626020957"><ele>196.0</ele><time>2026-05-03T17:04:22Z</time></trkpt><trkpt lat="43.95746782391203" lon="11.369982066853686"><ele>196.0</ele><time>2026-05-03T17:04:23Z</time></trkpt><trkpt lat="43.95752923915224" lon="11.369827321867318"><ele>196.5</ele><time>2026-05-03T17:04:24Z</time></trkpt><trkpt lat="43.9575976393454" lon="11.36965707037618"><ele>197.0</ele><time>2026-05-03T17:04:25Z</time></trkpt><trkpt lat="43.95766630311385" lon="11.369473870950008"><ele>197.5</ele><time>2026-05-03T17:04:26Z</time></trkpt><trkpt lat="43.95773141592895" lon="11.369293878678597"><ele>198.0</ele><time>2026-05-03T17:04:27Z</time></trkpt><trkpt lat="43.95779387822328" lon="11.369132992620054"><ele>198.0</ele><time>2026-05-03T17:04:28Z</time></trkpt><trkpt lat="43.95785582213884" lon="11.368971677129224"><ele>198.0</ele><time>2026-05-03T17:04:29Z</time></trkpt><trkpt lat="43.95791548746868" lon="11.368808630815737"><ele>198.0</ele><time>2026-05-03T17:04:30Z</time></trkpt><trkpt lat="43.95797458611985" lon="11.36864720211024"><ele>198.0</ele><time>2026-05-03T17:04:31Z</time></trkpt><trkpt lat="43.9580333603486" lon="11.36848508474855"><ele>197.75</ele><time>2026-05-03T17:04:32Z</time></trkpt><trkpt lat="43.95809468980473" lon="11.368321242616673"><ele>197.5</ele><time>2026-05-03T17:04:33Z</time></trkpt><trkpt lat="43.95815805755187" lon="11.36816031649629"><ele>197.25</ele><time>2026-05-03T17:04:34Z</time></trkpt><trkpt lat="43.9582196274312" lon="11.36799292514576"><ele>197.0</ele><time>2026-05-03T17:04:35Z</time></trkpt><trkpt lat="43.958284004613226" lon="11.367822962906384"><ele>197.2</ele><time>2026-05-03T17:04:36Z</time></trkpt><trkpt lat="43.958337569735335" lon="11.367667747512705"><ele>197.39999999999998</ele><time>2026-05-03T17:04:37Z</time></trkpt><trkpt lat="43.95838256108312" lon="11.367544817235453"><ele>197.60000000000002</ele><time>2026-05-03T17:04:38Z</time></trkpt><trkpt lat="43.95841885116178" lon="11.367443932085203"><ele>197.8</ele><time>2026-05-03T17:04:39Z</time></trkpt><trkpt lat="43.95845939604113" lon="11.367336121197633"><ele>198.0</ele><time>2026-05-03T17:04:40Z</time></trkpt><trkpt lat="43.95851234335179" lon="11.367210030471892"><ele>198.0</ele><time>2026-05-03T17:04:41Z</time></trkpt><trkpt lat="43.95856198472786" lon="11.367080363224147"><ele>198.0</ele><time>2026-05-03T17:04:42Z</time></trkpt><trkpt lat="43.95861430502002" lon="11.366944976250878"><ele>198.0</ele><time>2026-05-03T17:04:43Z</time></trkpt><trkpt lat="43.95866543539674" lon="11.366803726144383"><ele>198.0</ele><time>2026-05-03T17:04:44Z</time></trkpt><trkpt lat="43.95871684865607" lon="11.366659917306919"><ele>198.0</ele><time>2026-05-03T17:04:45Z</time></trkpt><trkpt lat="43.958765049685915" lon="11.366517646725141"><ele>198.0</ele><time>2026-05-03T17:04:46Z</time></trkpt><trkpt lat="43.95882249603456" lon="11.366369019173261"><ele>198.0</ele><time>2026-05-03T17:04:47Z</time></trkpt><trkpt lat="43.95887828831511" lon="11.366227271325755"><ele>198.0</ele><time>2026-05-03T17:04:48Z</time></trkpt><trkpt lat="43.95894114658004" lon="11.366092126162759"><ele>198.0</ele><time>2026-05-03T17:04:49Z</time></trkpt><trkpt lat="43.959009898267084" lon="11.365944738520351"><ele>197.75</ele><time>2026-05-03T17:04:50Z</time></trkpt><trkpt lat="43.95907696157125" lon="11.365807293025865"><ele>197.5</ele><time>2026-05-03T17:04:51Z</time></trkpt><trkpt lat="43.9591452670331" lon="11.365663197958117"><ele>197.25</ele><time>2026-05-03T17:04:52Z</time></trkpt><trkpt lat="43.95921461534222" lon="11.365519764381213"><ele>197.0</ele><time>2026-05-03T17:04:53Z</time></trkpt><trkpt lat="43.959285822526695" lon="11.365376873494887"><ele>198.25</ele><time>2026-05-03T17:04:54Z</time></trkpt><trkpt lat="43.95935503826347" lon="11.365233764127439"><ele>199.5</ele><time>2026-05-03T17:04:55Z</time></trkpt><trkpt lat="43.95942562849457" lon="11.365093743932347"><ele>200.75</ele><time>2026-05-03T17:04:56Z</time></trkpt><trkpt lat="43.959497781684185" lon="11.364953273303056"><ele>202.0</ele><time>2026-05-03T17:04:57Z</time></trkpt><trkpt lat="43.959567607528086" lon="11.364809553840567"><ele>201.5</ele><time>2026-05-03T17:04:58Z</time></trkpt><trkpt lat="43.95963477015457" lon="11.364662652180465"><ele>201.0</ele><time>2026-05-03T17:04:59Z</time></trkpt><trkpt lat="43.95970464316794" lon="11.364514031837928"><ele>200.5</ele><time>2026-05-03T17:05:00Z</time></trkpt><trkpt lat="43.95977779927545" lon="11.364358376929502"><ele>200.0</ele><time>2026-05-03T17:05:01Z</time></trkpt><trkpt lat="43.95985591813665" lon="11.36419957879347"><ele>200.0</ele><time>2026-05-03T17:05:02Z</time></trkpt><trkpt lat="43.95993608194655" lon="11.364037221414826"><ele>200.0</ele><time>2026-05-03T17:05:03Z</time></trkpt><trkpt lat="43.96001656937666" lon="11.363870196405715"><ele>200.0</ele><time>2026-05-03T17:05:04Z</time></trkpt><trkpt lat="43.96009845788617" lon="11.36370041002267"><ele>200.0</ele><time>2026-05-03T17:05:05Z</time></trkpt><trkpt lat="43.960180053981" lon="11.363525725096292"><ele>200.0</ele><time>2026-05-03T17:05:06Z</time></trkpt><trkpt lat="43.96026587630696" lon="11.363350288490361"><ele>200.0</ele><time>2026-05-03T17:05:07Z</time></trkpt><trkpt lat="43.960351193755315" lon="11.363172910358891"><ele>200.0</ele><time>2026-05-03T17:05:08Z</time></trkpt><trkpt lat="43.96043567638451" lon="11.3629861441675"><ele>199.33333333333334</ele><time>2026-05-03T17:05:09Z</time></trkpt><trkpt lat="43.96051467426786" lon="11.362791058981538"><ele>198.66666666666669</ele><time>2026-05-03T17:05:10Z</time></trkpt><trkpt lat="43.96058980817759" lon="11.3625905718566"><ele>198.0</ele><time>2026-05-03T17:05:11Z</time></trkpt><trkpt lat="43.96065689632739" lon="11.362383806168616"><ele>198.0</ele><time>2026-05-03T17:05:12Z</time></trkpt><trkpt lat="43.96072079716272" lon="11.362173404732106"><ele>198.0</ele><time>2026-05-03T17:05:13Z</time></trkpt><trkpt lat="43.960773322245124" lon="11.361967677160074"><ele>198.0</ele><time>2026-05-03T17:05:14Z</time></trkpt><trkpt lat="43.96081902508554" lon="11.361771995314207"><ele>198.0</ele><time>2026-05-03T17:05:15Z</time></trkpt><trkpt lat="43.96086206979422" lon="11.361582303734055"><ele>198.0</ele><time>2026-05-03T17:05:16Z</time></trkpt><trkpt lat="43.96089140833816" lon="11.361389843119563"><ele>198.0</ele><time>2026-05-03T17:05:17Z</time></trkpt><trkpt lat="43.96091430787837" lon="11.36119530675673"><ele>198.0</ele><time>2026-05-03T17:05:18Z</time></trkpt><trkpt lat="43.96093930877096" lon="11.360996536916538"><ele>198.66666666666669</ele><time>2026-05-03T17:05:19Z</time></trkpt><trkpt lat="43.960963300538666" lon="11.360795927023275"><ele>199.33333333333334</ele><time>2026-05-03T17:05:20Z</time></trkpt><trkpt lat="43.96098374328225" lon="11.36058499440292"><ele>200.0</ele><time>2026-05-03T17:05:21Z</time></trkpt><trkpt lat="43.96099826950515" lon="11.360373501043282"><ele>200.0</ele><time>2026-05-03T17:05:22Z</time></trkpt><trkpt lat="43.961023554691046" lon="11.360158865677096"><ele>200.0</ele><time>2026-05-03T17:05:23Z</time></trkpt><trkpt lat="43.96103086468365" lon="11.359924390727214"><ele>200.0</ele><time>2026-05-03T17:05:24Z</time></trkpt><trkpt lat="43.961027924443485" lon="11.359691513064453"><ele>200.33333333333334</ele><time>2026-05-03T17:05:25Z</time></trkpt><trkpt lat="43.96102495820112" lon="11.359455553148953"><ele>200.66666666666669</ele><time>2026-05-03T17:05:26Z</time></trkpt><trkpt lat="43.96101905026068" lon="11.359213746364423"><ele>201.0</ele><time>2026-05-03T17:05:27Z</time></trkpt><trkpt lat="43.96102296498519" lon="11.358975864718055"><ele>200.66666666666669</ele><time>2026-05-03T17:05:28Z</time></trkpt><trkpt lat="43.96102788950438" lon="11.358731105861668"><ele>200.33333333333334</ele><time>2026-05-03T17:05:29Z</time></trkpt><trkpt lat="43.9610317298547" lon="11.358485987765423"><ele>200.0</ele><time>2026-05-03T17:05:30Z</time></trkpt><trkpt lat="43.961037914454586" lon="11.358233258519954"><ele>200.66666666666669</ele><time>2026-05-03T17:05:31Z</time></trkpt><trkpt lat="43.96104477239189" lon="11.3579843272866"><ele>201.33333333333331</ele><time>2026-05-03T17:05:32Z</time></trkpt><trkpt lat="43.961045685321004" lon="11.357727380974369"><ele>202.0</ele><time>2026-05-03T17:05:33Z</time></trkpt><trkpt lat="43.96104946895267" lon="11.35747374683517"><ele>202.0</ele><time>2026-05-03T17:05:34Z</time></trkpt><trkpt lat="43.961055811988174" lon="11.357236900902485"><ele>202.0</ele><time>2026-05-03T17:05:35Z</time></trkpt><trkpt lat="43.96106719370371" lon="11.357003108697478"><ele>202.0</ele><time>2026-05-03T17:05:36Z</time></trkpt><trkpt lat="43.96107521425374" lon="11.356766953182587"><ele>202.33333333333331</ele><time>2026-05-03T17:05:37Z</time></trkpt><trkpt lat="43.961085406724116" lon="11.356529433430145"><ele>202.66666666666669</ele><time>2026-05-03T17:05:38Z</time></trkpt><trkpt lat="43.9611052784065" lon="11.356289590417896"><ele>203.0</ele><time>2026-05-03T17:05:39Z</time></trkpt><trkpt lat="43.96112866458488" lon="11.356059335112526"><ele>203.0</ele><time>2026-05-03T17:05:40Z</time></trkpt><trkpt lat="43.96114676270311" lon="11.355818684273709"><ele>203.0</ele><time>2026-05-03T17:05:41Z</time></trkpt><trkpt lat="43.96116597428097" lon="11.355589855530862"><ele>203.0</ele><time>2026-05-03T17:05:42Z</time></trkpt><trkpt lat="43.96119112290201" lon="11.355354099294956"><ele>202.66666666666669</ele><time>2026-05-03T17:05:43Z</time></trkpt><trkpt lat="43.961212486656386" lon="11.355127323190786"><ele>202.33333333333331</ele><time>2026-05-03T17:05:44Z</time></trkpt><trkpt lat="43.96123213037765" lon="11.354899702176949"><ele>202.0</ele><time>2026-05-03T17:05:45Z</time></trkpt><trkpt lat="43.961251811174726" lon="11.354672091096546"><ele>202.0</ele><time>2026-05-03T17:05:46Z</time></trkpt><trkpt lat="43.961272133317614" lon="11.354439295325102"><ele>202.0</ele><time>2026-05-03T17:05:47Z</time></trkpt><trkpt lat="43.96129697620485" lon="11.354205833341585"><ele>202.0</ele><time>2026-05-03T17:05:48Z</time></trkpt><trkpt lat="43.961318074589556" lon="11.353974045334983"><ele>202.33333333333331</ele><time>2026-05-03T17:05:49Z</time></trkpt><trkpt lat="43.96133728560267" lon="11.353737291791093"><ele>202.66666666666669</ele><time>2026-05-03T17:05:50Z</time></trkpt><trkpt lat="43.96135943898942" lon="11.353500947330609"><ele>203.0</ele><time>2026-05-03T17:05:51Z</time></trkpt><trkpt lat="43.9613804443111" lon="11.35326360670898"><ele>202.66666666666669</ele><time>2026-05-03T17:05:52Z</time></trkpt><trkpt lat="43.96140185185186" lon="11.353023112329927"><ele>202.33333333333331</ele><time>2026-05-03T17:05:53Z</time></trkpt><trkpt lat="43.96142659700084" lon="11.352782614584152"><ele>202.0</ele><time>2026-05-03T17:05:54Z</time></trkpt><trkpt lat="43.96144939906713" lon="11.352536822401456"><ele>202.0</ele><time>2026-05-03T17:05:55Z</time></trkpt><trkpt lat="43.96146994638545" lon="11.352289481753388"><ele>202.0</ele><time>2026-05-03T17:05:56Z</time></trkpt><trkpt lat="43.96149049563763" lon="11.35204763498099"><ele>202.0</ele><time>2026-05-03T17:05:57Z</time></trkpt><trkpt lat="43.961512258833984" lon="11.351808567523873"><ele>201.66666666666666</ele><time>2026-05-03T17:05:58Z</time></trkpt><trkpt lat="43.961535073260634" lon="11.351570734595388"><ele>201.33333333333331</ele><time>2026-05-03T17:05:59Z</time></trkpt><trkpt lat="43.96155954328588" lon="11.351333258710861"><ele>201.0</ele><time>2026-05-03T17:06:00Z</time></trkpt><trkpt lat="43.96158069850894" lon="11.351095858900123"><ele>201.0</ele><time>2026-05-03T17:06:01Z</time></trkpt><trkpt lat="43.96160472275632" lon="11.350854450119444"><ele>201.0</ele><time>2026-05-03T17:06:02Z</time></trkpt><trkpt lat="43.96162573795916" lon="11.35061715196867"><ele>201.0</ele><time>2026-05-03T17:06:03Z</time></trkpt><trkpt lat="43.961650206641345" lon="11.350376243609148"><ele>201.0</ele><time>2026-05-03T17:06:04Z</time></trkpt><trkpt lat="43.96167444904469" lon="11.350148763095774"><ele>201.0</ele><time>2026-05-03T17:06:05Z</time></trkpt><trkpt lat="43.96169186835294" lon="11.34992489937728"><ele>201.0</ele><time>2026-05-03T17:06:06Z</time></trkpt><trkpt lat="43.96170808048763" lon="11.349708060551944"><ele>201.0</ele><time>2026-05-03T17:06:07Z</time></trkpt><trkpt lat="43.96172335118774" lon="11.349494610680727"><ele>201.0</ele><time>2026-05-03T17:06:08Z</time></trkpt><trkpt lat="43.96174197001715" lon="11.349284340359596"><ele>201.0</ele><time>2026-05-03T17:06:09Z</time></trkpt><trkpt lat="43.96176308759236" lon="11.34907730360262"><ele>201.33333333333331</ele><time>2026-05-03T17:06:10Z</time></trkpt><trkpt lat="43.961786222683415" lon="11.348867298982313"><ele>201.66666666666666</ele><time>2026-05-03T17:06:11Z</time></trkpt><trkpt lat="43.961808208894944" lon="11.348656170571575"><ele>202.0</ele><time>2026-05-03T17:06:12Z</time></trkpt><trkpt lat="43.96182577269065" lon="11.348451095718818"><ele>202.0</ele><time>2026-05-03T17:06:13Z</time></trkpt><trkpt lat="43.96184097816015" lon="11.348260284779412"><ele>202.0</ele><time>2026-05-03T17:06:14Z</time></trkpt><trkpt lat="43.961856070518344" lon="11.34808810200636"><ele>202.0</ele><time>2026-05-03T17:06:15Z</time></trkpt><trkpt lat="43.96187145974269" lon="11.347922826750214"><ele>202.0</ele><time>2026-05-03T17:06:16Z</time></trkpt><trkpt lat="43.96188587565224" lon="11.347766307533426"><ele>202.25</ele><time>2026-05-03T17:06:17Z</time></trkpt><trkpt lat="43.9618988860636" lon="11.347614364294513"><ele>202.5</ele><time>2026-05-03T17:06:18Z</time></trkpt><trkpt lat="43.96191530690052" lon="11.347460340946467"><ele>202.75</ele><time>2026-05-03T17:06:19Z</time></trkpt><trkpt lat="43.96193074318647" lon="11.347303657408348"><ele>203.0</ele><time>2026-05-03T17:06:20Z</time></trkpt><trkpt lat="43.96194552693861" lon="11.347137943555817"><ele>203.25</ele><time>2026-05-03T17:06:21Z</time></trkpt><trkpt lat="43.961961590277895" lon="11.346960144807744"><ele>203.5</ele><time>2026-05-03T17:06:22Z</time></trkpt><trkpt lat="43.96197644519356" lon="11.34677636241186"><ele>203.75</ele><time>2026-05-03T17:06:23Z</time></trkpt><trkpt lat="43.96199058979198" lon="11.346591454908912"><ele>204.0</ele><time>2026-05-03T17:06:24Z</time></trkpt><trkpt lat="43.9620070834967" lon="11.346421140182262"><ele>204.0</ele><time>2026-05-03T17:06:25Z</time></trkpt><trkpt lat="43.96202460410417" lon="11.34626138030425"><ele>204.0</ele><time>2026-05-03T17:06:26Z</time></trkpt><trkpt lat="43.962039258966215" lon="11.346105596892228"><ele>204.0</ele><time>2026-05-03T17:06:27Z</time></trkpt><trkpt lat="43.96205283814579" lon="11.345944729229357"><ele>204.0</ele><time>2026-05-03T17:06:28Z</time></trkpt><trkpt lat="43.96206693840932" lon="11.345785909092044"><ele>204.0</ele><time>2026-05-03T17:06:29Z</time></trkpt><trkpt lat="43.962082589202076" lon="11.34562638152409"><ele>204.0</ele><time>2026-05-03T17:06:30Z</time></trkpt><trkpt lat="43.96209764713352" lon="11.345467916157123"><ele>204.0</ele><time>2026-05-03T17:06:31Z</time></trkpt><trkpt lat="43.962113173329705" lon="11.345306523174164"><ele>204.0</ele><time>2026-05-03T17:06:32Z</time></trkpt><trkpt lat="43.96212256427191" lon="11.345131414620916"><ele>204.0</ele><time>2026-05-03T17:06:33Z</time></trkpt><trkpt lat="43.96213465150358" lon="11.344939219028838"><ele>204.0</ele><time>2026-05-03T17:06:34Z</time></trkpt><trkpt lat="43.96214649549103" lon="11.344730684667734"><ele>204.0</ele><time>2026-05-03T17:06:35Z</time></trkpt><trkpt lat="43.96215615526519" lon="11.344505456744548"><ele>204.0</ele><time>2026-05-03T17:06:36Z</time></trkpt><trkpt lat="43.96216281185944" lon="11.344256108931056"><ele>204.0</ele><time>2026-05-03T17:06:37Z</time></trkpt><trkpt lat="43.962165832031786" lon="11.34400042421234"><ele>204.0</ele><time>2026-05-03T17:06:38Z</time></trkpt><trkpt lat="43.96216694866121" lon="11.343767087929647"><ele>204.0</ele><time>2026-05-03T17:06:39Z</time></trkpt><trkpt lat="43.96216989027141" lon="11.343563093226372"><ele>204.0</ele><time>2026-05-03T17:06:40Z</time></trkpt><trkpt lat="43.96217645067932" lon="11.343373131033308"><ele>204.0</ele><time>2026-05-03T17:06:41Z</time></trkpt><trkpt lat="43.96218168452532" lon="11.343196574853494"><ele>204.0</ele><time>2026-05-03T17:06:42Z</time></trkpt><trkpt lat="43.96218907688212" lon="11.343028300203352"><ele>203.75</ele><time>2026-05-03T17:06:43Z</time></trkpt><trkpt lat="43.962203174621905" lon="11.342852929153777"><ele>203.5</ele><time>2026-05-03T17:06:44Z</time></trkpt><trkpt lat="43.96222573953521" lon="11.342669277133894"><ele>203.25</ele><time>2026-05-03T17:06:45Z</time></trkpt><trkpt lat="43.962259043529095" lon="11.34247656231577"><ele>203.0</ele><time>2026-05-03T17:06:46Z</time></trkpt><trkpt lat="43.9623043699287" lon="11.342272078359342"><ele>202.66666666666669</ele><time>2026-05-03T17:06:47Z</time></trkpt><trkpt lat="43.96236155754026" lon="11.342066575870557"><ele>202.33333333333331</ele><time>2026-05-03T17:06:48Z</time></trkpt><trkpt lat="43.96243329817059" lon="11.341852425677182"><ele>202.0</ele><time>2026-05-03T17:06:49Z</time></trkpt><trkpt lat="43.962523726321784" lon="11.341623072643577"><ele>202.0</ele><time>2026-05-03T17:06:50Z</time></trkpt><trkpt lat="43.96261941274461" lon="11.34138570363296"><ele>202.0</ele><time>2026-05-03T17:06:51Z</time></trkpt><trkpt lat="43.962714202626415" lon="11.341161842209656"><ele>202.0</ele><time>2026-05-03T17:06:52Z</time></trkpt><trkpt lat="43.962799001843905" lon="11.340963906141628"><ele>202.0</ele><time>2026-05-03T17:06:53Z</time></trkpt><trkpt lat="43.96289618134201" lon="11.340733764146641"><ele>202.0</ele><time>2026-05-03T17:06:54Z</time></trkpt><trkpt lat="43.963008875810324" lon="11.340493447584173"><ele>202.0</ele><time>2026-05-03T17:06:55Z</time></trkpt><trkpt lat="43.96314335246036" lon="11.340208734883769"><ele>202.33333333333331</ele><time>2026-05-03T17:06:56Z</time></trkpt><trkpt lat="43.96327189499029" lon="11.339940072628737"><ele>202.66666666666669</ele><time>2026-05-03T17:06:57Z</time></trkpt><trkpt lat="43.963370028773205" lon="11.339707942337913"><ele>203.0</ele><time>2026-05-03T17:06:58Z</time></trkpt><trkpt lat="43.963440643993444" lon="11.339510607338374"><ele>204.33333333333334</ele><time>2026-05-03T17:06:59Z</time></trkpt><trkpt lat="43.963500000530935" lon="11.339326946715474"><ele>205.66666666666669</ele><time>2026-05-03T17:07:00Z</time></trkpt><trkpt lat="43.96356120965717" lon="11.33913497385966"><ele>207.0</ele><time>2026-05-03T17:07:01Z</time></trkpt><trkpt lat="43.963621128203506" lon="11.338934190521703"><ele>207.0</ele><time>2026-05-03T17:07:02Z</time></trkpt><trkpt lat="43.96367640752716" lon="11.338753030012507"><ele>207.0</ele><time>2026-05-03T17:07:03Z</time></trkpt><trkpt lat="43.96372857804518" lon="11.338595330014908"><ele>207.0</ele><time>2026-05-03T17:07:04Z</time></trkpt><trkpt lat="43.96378337709559" lon="11.338434276621216"><ele>207.0</ele><time>2026-05-03T17:07:05Z</time></trkpt><trkpt lat="43.96384099321465" lon="11.338261491881195"><ele>207.0</ele><time>2026-05-03T17:07:06Z</time></trkpt><trkpt lat="43.96389644518445" lon="11.338083766424162"><ele>207.0</ele><time>2026-05-03T17:07:07Z</time></trkpt><trkpt lat="43.9639540228981" lon="11.337907842779467"><ele>207.0</ele><time>2026-05-03T17:07:08Z</time></trkpt><trkpt lat="43.96400938691336" lon="11.33773263738406"><ele>207.0</ele><time>2026-05-03T17:07:09Z</time></trkpt><trkpt lat="43.96406403302833" lon="11.337559043376476"><ele>207.0</ele><time>2026-05-03T17:07:10Z</time></trkpt><trkpt lat="43.96411601164598" lon="11.337391452680277"><ele>207.0</ele><time>2026-05-03T17:07:11Z</time></trkpt><trkpt lat="43.96417126379895" lon="11.337222823955734"><ele>207.0</ele><time>2026-05-03T17:07:12Z</time></trkpt><trkpt lat="43.96422456593636" lon="11.337060987383213"><ele>207.0</ele><time>2026-05-03T17:07:13Z</time></trkpt><trkpt lat="43.96427318624438" lon="11.336903013131762"><ele>206.5</ele><time>2026-05-03T17:07:14Z</time></trkpt><trkpt lat="43.96432493733204" lon="11.336735341093616"><ele>206.0</ele><time>2026-05-03T17:07:15Z</time></trkpt><trkpt lat="43.96437940129017" lon="11.33656135809962"><ele>205.5</ele><time>2026-05-03T17:07:16Z</time></trkpt><trkpt lat="43.9644335996294" lon="11.336386133047064"><ele>205.0</ele><time>2026-05-03T17:07:17Z</time></trkpt><trkpt lat="43.96449088182697" lon="11.336201697737444"><ele>204.75</ele><time>2026-05-03T17:07:18Z</time></trkpt><trkpt lat="43.96454754488142" lon="11.33602446653543"><ele>204.5</ele><time>2026-05-03T17:07:19Z</time></trkpt><trkpt lat="43.96460225768188" lon="11.335856097915988"><ele>204.25</ele><time>2026-05-03T17:07:20Z</time></trkpt><trkpt lat="43.96465151540311" lon="11.335694207828144"><ele>204.0</ele><time>2026-05-03T17:07:21Z</time></trkpt><trkpt lat="43.964703418068545" lon="11.335530623578684"><ele>204.0</ele><time>2026-05-03T17:07:22Z</time></trkpt><trkpt lat="43.96475731054121" lon="11.335364525256564"><ele>204.0</ele><time>2026-05-03T17:07:23Z</time></trkpt><trkpt lat="43.96481170558114" lon="11.335193408584464"><ele>204.0</ele><time>2026-05-03T17:07:24Z</time></trkpt><trkpt lat="43.96487119230991" lon="11.335006409809662"><ele>204.0</ele><time>2026-05-03T17:07:25Z</time></trkpt><trkpt lat="43.9649313112752" lon="11.334815928340312"><ele>204.0</ele><time>2026-05-03T17:07:26Z</time></trkpt><trkpt lat="43.96498806861463" lon="11.334629514818038"><ele>204.0</ele><time>2026-05-03T17:07:27Z</time></trkpt><trkpt lat="43.96504741072738" lon="11.334441647254362"><ele>204.0</ele><time>2026-05-03T17:07:28Z</time></trkpt><trkpt lat="43.965107845667895" lon="11.334263500445285"><ele>204.0</ele><time>2026-05-03T17:07:29Z</time></trkpt><trkpt lat="43.96516165472874" lon="11.33409734367016"><ele>204.0</ele><time>2026-05-03T17:07:30Z</time></trkpt><trkpt lat="43.9652129018374" lon="11.333936655410946"><ele>204.0</ele><time>2026-05-03T17:07:31Z</time></trkpt><trkpt lat="43.96526057692327" lon="11.333787399065619"><ele>204.0</ele><time>2026-05-03T17:07:32Z</time></trkpt><trkpt lat="43.965306076058816" lon="11.333642786054185"><ele>204.0</ele><time>2026-05-03T17:07:33Z</time></trkpt><trkpt lat="43.96535427307123" lon="11.333492881151493"><ele>205.5</ele><time>2026-05-03T17:07:34Z</time></trkpt><trkpt lat="43.965404583562965" lon="11.333337861725372"><ele>207.0</ele><time>2026-05-03T17:07:35Z</time></trkpt><trkpt lat="43.96545715511548" lon="11.333176914630688"><ele>208.5</ele><time>2026-05-03T17:07:36Z</time></trkpt><trkpt lat="43.96551112279738" lon="11.3330155163701"><ele>210.0</ele><time>2026-05-03T17:07:37Z</time></trkpt><trkpt lat="43.965564036284405" lon="11.33284617879168"><ele>209.5</ele><time>2026-05-03T17:07:38Z</time></trkpt><trkpt lat="43.96561681068657" lon="11.332675454272287"><ele>209.0</ele><time>2026-05-03T17:07:39Z</time></trkpt><trkpt lat="43.96567127748057" lon="11.332499771754575"><ele>208.5</ele><time>2026-05-03T17:07:40Z</time></trkpt><trkpt lat="43.96572618896588" lon="11.332329616652542"><ele>208.0</ele><time>2026-05-03T17:07:41Z</time></trkpt><trkpt lat="43.9657720504823" lon="11.332156328275278"><ele>208.0</ele><time>2026-05-03T17:07:42Z</time></trkpt><trkpt lat="43.96581058014526" lon="11.331980463616867"><ele>208.0</ele><time>2026-05-03T17:07:43Z</time></trkpt><trkpt lat="43.96583213006361" lon="11.331800109260966"><ele>208.0</ele><time>2026-05-03T17:07:44Z</time></trkpt><trkpt lat="43.9658436608607" lon="11.33161907180382"><ele>208.0</ele><time>2026-05-03T17:07:45Z</time></trkpt><trkpt lat="43.965847418686195" lon="11.331434385238278"><ele>208.75</ele><time>2026-05-03T17:07:46Z</time></trkpt><trkpt lat="43.96584369728728" lon="11.331255376988507"><ele>209.5</ele><time>2026-05-03T17:07:47Z</time></trkpt><trkpt lat="43.96583067466542" lon="11.331075402199598"><ele>210.25</ele><time>2026-05-03T17:07:48Z</time></trkpt><trkpt lat="43.96581857784721" lon="11.33091164865922"><ele>211.0</ele><time>2026-05-03T17:07:49Z</time></trkpt><trkpt lat="43.96580521146997" lon="11.330759822261479"><ele>210.99999999999997</ele><time>2026-05-03T17:07:50Z</time></trkpt><trkpt lat="43.965801095471406" lon="11.330619830719195"><ele>211.0</ele><time>2026-05-03T17:07:51Z</time></trkpt><trkpt lat="43.965801899277174" lon="11.330494539767603"><ele>211.0</ele><time>2026-05-03T17:07:52Z</time></trkpt><trkpt lat="43.96579721453334" lon="11.33038437021225"><ele>211.0</ele><time>2026-05-03T17:07:53Z</time></trkpt><trkpt lat="43.965794358811486" lon="11.330285203698537"><ele>210.99999999999997</ele><time>2026-05-03T17:07:54Z</time></trkpt><trkpt lat="43.965791189670554" lon="11.330139186254183"><ele>211.0</ele><time>2026-05-03T17:07:56Z</time></trkpt><trkpt lat="43.96578857634528" lon="11.330027880707346"><ele>210.66666666666666</ele><time>2026-05-03T17:07:58Z</time></trkpt><trkpt lat="43.965798902256175" lon="11.329907027444813"><ele>210.33333333333331</ele><time>2026-05-03T17:08:01Z</time></trkpt><trkpt lat="43.965811559192474" lon="11.329818761451332"><ele>210.0</ele><time>2026-05-03T17:08:03Z</time></trkpt><trkpt lat="43.9658587853547" lon="11.329683841020117"><ele>209.66666666666669</ele><time>2026-05-03T17:08:05Z</time></trkpt><trkpt lat="43.965905701947506" lon="11.329615925662136"><ele>209.33333333333334</ele><time>2026-05-03T17:08:06Z</time></trkpt><trkpt lat="43.965964719878585" lon="11.329562486922843"><ele>209.0</ele><time>2026-05-03T17:08:07Z</time></trkpt><trkpt lat="43.96603302556777" lon="11.329534637224285"><ele>209.28571428571428</ele><time>2026-05-03T17:08:08Z</time></trkpt><trkpt lat="43.96610454128903" lon="11.329533063904684"><ele>209.57142857142856</ele><time>2026-05-03T17:08:09Z</time></trkpt><trkpt lat="43.966179736136986" lon="11.329547863735918"><ele>209.85714285714286</ele><time>2026-05-03T17:08:10Z</time></trkpt><trkpt lat="43.966253176536604" lon="11.329572562590238"><ele>210.14285714285714</ele><time>2026-05-03T17:08:11Z</time></trkpt><trkpt lat="43.96632395094202" lon="11.329617593634708"><ele>210.42857142857144</ele><time>2026-05-03T17:08:12Z</time></trkpt><trkpt lat="43.966383398428725" lon="11.329682661802234"><ele>210.71428571428572</ele><time>2026-05-03T17:08:13Z</time></trkpt><trkpt lat="43.96643644716879" lon="11.32975069469275"><ele>211.0</ele><time>2026-05-03T17:08:14Z</time></trkpt><trkpt lat="43.96648487693293" lon="11.329811291173506"><ele>211.0</ele><time>2026-05-03T17:08:15Z</time></trkpt><trkpt lat="43.96656707912844" lon="11.329909816924195"><ele>211.0</ele><time>2026-05-03T17:08:17Z</time></trkpt><trkpt lat="43.96663197241593" lon="11.329986397203877"><ele>211.0</ele><time>2026-05-03T17:08:19Z</time></trkpt><trkpt lat="43.9666876609308" lon="11.33008837033348"><ele>211.0</ele><time>2026-05-03T17:08:21Z</time></trkpt><trkpt lat="43.96678503438739" lon="11.330193309981588"><ele>211.0</ele><time>2026-05-03T17:08:23Z</time></trkpt><trkpt lat="43.96684913170268" lon="11.330248288665793"><ele>211.20000000000002</ele><time>2026-05-03T17:08:24Z</time></trkpt><trkpt lat="43.966920150766015" lon="11.330324496044557"><ele>211.4</ele><time>2026-05-03T17:08:25Z</time></trkpt><trkpt lat="43.96699837408709" lon="11.330414409401557"><ele>211.6</ele><time>2026-05-03T17:08:26Z</time></trkpt><trkpt lat="43.967083102862226" lon="11.330515263966758"><ele>211.8</ele><time>2026-05-03T17:08:27Z</time></trkpt><trkpt lat="43.967173532728985" lon="11.330631478520294"><ele>212.0</ele><time>2026-05-03T17:08:28Z</time></trkpt><trkpt lat="43.967281067112005" lon="11.33075468428341"><ele>213.66666666666669</ele><time>2026-05-03T17:08:29Z</time></trkpt><trkpt lat="43.96739861462536" lon="11.330888180718024"><ele>215.33333333333331</ele><time>2026-05-03T17:08:30Z</time></trkpt><trkpt lat="43.96753446187525" lon="11.331030408425933"><ele>217.0</ele><time>2026-05-03T17:08:31Z</time></trkpt><trkpt lat="43.9676917572168" lon="11.331165780804763"><ele>217.0</ele><time>2026-05-03T17:08:32Z</time></trkpt><trkpt lat="43.96786220191572" lon="11.331295005619358"><ele>217.0</ele><time>2026-05-03T17:08:33Z</time></trkpt><trkpt lat="43.9680373339796" lon="11.33143688691131"><ele>217.0</ele><time>2026-05-03T17:08:34Z</time></trkpt><trkpt lat="43.96822978974125" lon="11.331546492993786"><ele>216.66666666666666</ele><time>2026-05-03T17:08:35Z</time></trkpt><trkpt lat="43.96843323496937" lon="11.331624431652942"><ele>216.33333333333331</ele><time>2026-05-03T17:08:36Z</time></trkpt><trkpt lat="43.96861542485838" lon="11.33171565751601"><ele>216.0</ele><time>2026-05-03T17:08:37Z</time></trkpt><trkpt lat="43.968798558906705" lon="11.33180261302187"><ele>216.0</ele><time>2026-05-03T17:08:38Z</time></trkpt><trkpt lat="43.968963553506434" lon="11.331873604870351"><ele>216.0</ele><time>2026-05-03T17:08:39Z</time></trkpt><trkpt lat="43.96912253829549" lon="11.331935089828214"><ele>216.0</ele><time>2026-05-03T17:08:40Z</time></trkpt><trkpt lat="43.96926164404777" lon="11.331971790845625"><ele>216.20000000000002</ele><time>2026-05-03T17:08:41Z</time></trkpt><trkpt lat="43.96937874282914" lon="11.331992362980783"><ele>216.40000000000003</ele><time>2026-05-03T17:08:42Z</time></trkpt><trkpt lat="43.969482246501855" lon="11.33200680827341"><ele>216.6</ele><time>2026-05-03T17:08:43Z</time></trkpt><trkpt lat="43.96956719329068" lon="11.332024663198109"><ele>216.8</ele><time>2026-05-03T17:08:44Z</time></trkpt><trkpt lat="43.969637727946356" lon="11.332063162203402"><ele>217.0</ele><time>2026-05-03T17:08:45Z</time></trkpt><trkpt lat="43.96968812958097" lon="11.332122455886992"><ele>216.99999999999997</ele><time>2026-05-03T17:08:46Z</time></trkpt><trkpt lat="43.969736362454334" lon="11.332179854328885"><ele>217.0</ele><time>2026-05-03T17:08:47Z</time></trkpt><trkpt lat="43.96979731277223" lon="11.332213788331973"><ele>217.0</ele><time>2026-05-03T17:08:48Z</time></trkpt><trkpt lat="43.96990799440255" lon="11.332173697931697"><ele>217.0</ele><time>2026-05-03T17:08:50Z</time></trkpt><trkpt lat="43.96996202253557" lon="11.332028420977736"><ele>216.99999999999997</ele><time>2026-05-03T17:08:52Z</time></trkpt><trkpt lat="43.969956421213936" lon="11.331931909437834"><ele>217.0</ele><time>2026-05-03T17:08:53Z</time></trkpt><trkpt lat="43.9699402839306" lon="11.331821427315507"><ele>217.0</ele><time>2026-05-03T17:08:54Z</time></trkpt><trkpt lat="43.96993451606525" lon="11.33170646764336"><ele>217.0</ele><time>2026-05-03T17:08:55Z</time></trkpt><trkpt lat="43.96996692821083" lon="11.331581808661072"><ele>217.0</ele><time>2026-05-03T17:08:56Z</time></trkpt><trkpt lat="43.970006530857695" lon="11.33141647076666"><ele>217.0</ele><time>2026-05-03T17:08:57Z</time></trkpt><trkpt lat="43.9700574637332" lon="11.331203830067382"><ele>217.33333333333331</ele><time>2026-05-03T17:08:58Z</time></trkpt><trkpt lat="43.970098493995586" lon="11.330943207437631"><ele>217.66666666666669</ele><time>2026-05-03T17:08:59Z</time></trkpt><trkpt lat="43.970174730299014" lon="11.330680490501635"><ele>218.0</ele><time>2026-05-03T17:09:00Z</time></trkpt><trkpt lat="43.97024942599947" lon="11.330428627050035"><ele>217.0</ele><time>2026-05-03T17:09:01Z</time></trkpt><trkpt lat="43.97031544901223" lon="11.330181055712428"><ele>216.0</ele><time>2026-05-03T17:09:02Z</time></trkpt><trkpt lat="43.97036769615391" lon="11.329927373506006"><ele>215.0</ele><time>2026-05-03T17:09:03Z</time></trkpt><trkpt lat="43.970404160740785" lon="11.329658505311986"><ele>213.66666666666669</ele><time>2026-05-03T17:09:04Z</time></trkpt><trkpt lat="43.97042756588119" lon="11.32937595627845"><ele>212.33333333333331</ele><time>2026-05-03T17:09:05Z</time></trkpt><trkpt lat="43.970436974167896" lon="11.32908031986124"><ele>211.0</ele><time>2026-05-03T17:09:06Z</time></trkpt><trkpt lat="43.97044133253945" lon="11.328793690079115"><ele>209.66666666666666</ele><time>2026-05-03T17:09:07Z</time></trkpt><trkpt lat="43.9704409748621" lon="11.32852150335337"><ele>208.33333333333331</ele><time>2026-05-03T17:09:08Z</time></trkpt><trkpt lat="43.97043848804899" lon="11.328256823685889"><ele>207.0</ele><time>2026-05-03T17:09:09Z</time></trkpt><trkpt lat="43.97044178759428" lon="11.328011239964875"><ele>207.0</ele><time>2026-05-03T17:09:10Z</time></trkpt><trkpt lat="43.97044288514518" lon="11.327780937759734"><ele>207.0</ele><time>2026-05-03T17:09:11Z</time></trkpt><trkpt lat="43.97044199502711" lon="11.327560350719681"><ele>207.0</ele><time>2026-05-03T17:09:12Z</time></trkpt><trkpt lat="43.97044376564333" lon="11.32732817168255"><ele>207.0</ele><time>2026-05-03T17:09:13Z</time></trkpt><trkpt lat="43.97044255883022" lon="11.327067095337044"><ele>207.0</ele><time>2026-05-03T17:09:14Z</time></trkpt><trkpt lat="43.9704414162812" lon="11.326789886931037"><ele>207.0</ele><time>2026-05-03T17:09:15Z</time></trkpt><trkpt lat="43.970444137709784" lon="11.326495364876163"><ele>205.66666666666669</ele><time>2026-05-03T17:09:16Z</time></trkpt><trkpt lat="43.9704527231079" lon="11.32618647102341"><ele>204.33333333333334</ele><time>2026-05-03T17:09:17Z</time></trkpt><trkpt lat="43.970464249022086" lon="11.32587501507855"><ele>203.0</ele><time>2026-05-03T17:09:18Z</time></trkpt><trkpt lat="43.97046947326563" lon="11.325563645332995"><ele>203.0</ele><time>2026-05-03T17:09:19Z</time></trkpt><trkpt lat="43.970474196683476" lon="11.32525271238209"><ele>203.0</ele><time>2026-05-03T17:09:20Z</time></trkpt><trkpt lat="43.97047759302153" lon="11.324953043006822"><ele>203.0</ele><time>2026-05-03T17:09:21Z</time></trkpt><trkpt lat="43.97047938458735" lon="11.324675066949645"><ele>203.0</ele><time>2026-05-03T17:09:22Z</time></trkpt><trkpt lat="43.97048303187619" lon="11.324402620212906"><ele>203.0</ele><time>2026-05-03T17:09:23Z</time></trkpt><trkpt lat="43.97048892691268" lon="11.324132726334684"><ele>203.0</ele><time>2026-05-03T17:09:24Z</time></trkpt><trkpt lat="43.97049475165646" lon="11.323866615473248"><ele>203.33333333333334</ele><time>2026-05-03T17:09:25Z</time></trkpt><trkpt lat="43.970499227189926" lon="11.323607824595499"><ele>203.66666666666669</ele><time>2026-05-03T17:09:26Z</time></trkpt><trkpt lat="43.970494527007176" lon="11.323343742855416"><ele>204.0</ele><time>2026-05-03T17:09:27Z</time></trkpt><trkpt lat="43.97047912651364" lon="11.323073868998776"><ele>204.0</ele><time>2026-05-03T17:09:28Z</time></trkpt><trkpt lat="43.97045145938668" lon="11.322797653120656"><ele>204.0</ele><time>2026-05-03T17:09:29Z</time></trkpt><trkpt lat="43.97041069706745" lon="11.32252003215652"><ele>204.0</ele><time>2026-05-03T17:09:30Z</time></trkpt><trkpt lat="43.970361634928025" lon="11.322244785108333"><ele>204.0</ele><time>2026-05-03T17:09:31Z</time></trkpt><trkpt lat="43.97029872275465" lon="11.321964466322441"><ele>204.0</ele><time>2026-05-03T17:09:32Z</time></trkpt><trkpt lat="43.9702242773067" lon="11.321682083657974"><ele>204.0</ele><time>2026-05-03T17:09:33Z</time></trkpt><trkpt lat="43.970135147437986" lon="11.321397503120705"><ele>204.5</ele><time>2026-05-03T17:09:34Z</time></trkpt><trkpt lat="43.97003113112774" lon="11.321109244363669"><ele>205.0</ele><time>2026-05-03T17:09:35Z</time></trkpt><trkpt lat="43.969918781642086" lon="11.320814651099626"><ele>205.5</ele><time>2026-05-03T17:09:36Z</time></trkpt><trkpt lat="43.969806353827586" lon="11.320513074739884"><ele>206.0</ele><time>2026-05-03T17:09:37Z</time></trkpt><trkpt lat="43.96970117584901" lon="11.32021950845803"><ele>206.0</ele><time>2026-05-03T17:09:38Z</time></trkpt><trkpt lat="43.96961140691931" lon="11.3199626544594"><ele>206.0</ele><time>2026-05-03T17:09:39Z</time></trkpt><trkpt lat="43.96953991534249" lon="11.319765113712261"><ele>206.0</ele><time>2026-05-03T17:09:40Z</time></trkpt><trkpt lat="43.969479584423624" lon="11.31959390926875"><ele>206.0</ele><time>2026-05-03T17:09:41Z</time></trkpt><trkpt lat="43.96942079422272" lon="11.319429649084348"><ele>206.0</ele><time>2026-05-03T17:09:42Z</time></trkpt><trkpt lat="43.96936429587185" lon="11.319273829534858"><ele>206.0</ele><time>2026-05-03T17:09:43Z</time></trkpt><trkpt lat="43.969312217412366" lon="11.319138128627504"><ele>206.0</ele><time>2026-05-03T17:09:44Z</time></trkpt><trkpt lat="43.96926454945504" lon="11.319008692125495"><ele>206.25</ele><time>2026-05-03T17:09:45Z</time></trkpt><trkpt lat="43.96921670327985" lon="11.318875881803887"><ele>206.5</ele><time>2026-05-03T17:09:46Z</time></trkpt><trkpt lat="43.969165044375536" lon="11.31873652492032"><ele>206.75</ele><time>2026-05-03T17:09:47Z</time></trkpt><trkpt lat="43.969107459478835" lon="11.318584877891732"><ele>207.0</ele><time>2026-05-03T17:09:48Z</time></trkpt><trkpt lat="43.969034302887586" lon="11.318409526428914"><ele>207.0</ele><time>2026-05-03T17:09:49Z</time></trkpt><trkpt lat="43.968955240150514" lon="11.318214909192113"><ele>207.0</ele><time>2026-05-03T17:09:50Z</time></trkpt><trkpt lat="43.968874877388224" lon="11.317994717984675"><ele>207.0</ele><time>2026-05-03T17:09:51Z</time></trkpt><trkpt lat="43.96878470465905" lon="11.317751310407772"><ele>207.0</ele><time>2026-05-03T17:09:52Z</time></trkpt><trkpt lat="43.96869007480385" lon="11.317504809180273"><ele>207.0</ele><time>2026-05-03T17:09:53Z</time></trkpt><trkpt lat="43.96860365555667" lon="11.317270431854125"><ele>207.0</ele><time>2026-05-03T17:09:54Z</time></trkpt><trkpt lat="43.9685177306929" lon="11.317040087436686"><ele>207.0</ele><time>2026-05-03T17:09:55Z</time></trkpt><trkpt lat="43.96842821596283" lon="11.31679999589928"><ele>207.0</ele><time>2026-05-03T17:09:56Z</time></trkpt><trkpt lat="43.96833606680173" lon="11.31656520443574"><ele>207.0</ele><time>2026-05-03T17:09:57Z</time></trkpt><trkpt lat="43.968253088225794" lon="11.316345453398558"><ele>208.0</ele><time>2026-05-03T17:09:58Z</time></trkpt><trkpt lat="43.96818035486827" lon="11.316152305257793"><ele>209.0</ele><time>2026-05-03T17:09:59Z</time></trkpt><trkpt lat="43.968112698187156" lon="11.315967795539557"><ele>210.0</ele><time>2026-05-03T17:10:00Z</time></trkpt><trkpt lat="43.96804258872868" lon="11.315770091059933"><ele>210.66666666666669</ele><time>2026-05-03T17:10:01Z</time></trkpt><trkpt lat="43.9679685491099" lon="11.31556412531569"><ele>211.33333333333334</ele><time>2026-05-03T17:10:02Z</time></trkpt><trkpt lat="43.96788571091489" lon="11.315342269255886"><ele>212.0</ele><time>2026-05-03T17:10:03Z</time></trkpt><trkpt lat="43.967799240584995" lon="11.31511784674242"><ele>212.0</ele><time>2026-05-03T17:10:04Z</time></trkpt><trkpt lat="43.96770412207629" lon="11.314879476569935"><ele>212.0</ele><time>2026-05-03T17:10:05Z</time></trkpt><trkpt lat="43.96761083773798" lon="11.314639095944091"><ele>212.0</ele><time>2026-05-03T17:10:06Z</time></trkpt><trkpt lat="43.96752925731677" lon="11.31441464070243"><ele>212.0</ele><time>2026-05-03T17:10:07Z</time></trkpt><trkpt lat="43.96745613695769" lon="11.31419470240279"><ele>212.0</ele><time>2026-05-03T17:10:08Z</time></trkpt><trkpt lat="43.967380068813306" lon="11.313976856948306"><ele>212.0</ele><time>2026-05-03T17:10:09Z</time></trkpt><trkpt lat="43.96729600523054" lon="11.313760104987878"><ele>212.0</ele><time>2026-05-03T17:10:10Z</time></trkpt><trkpt lat="43.967200139892064" lon="11.313520512747086"><ele>212.0</ele><time>2026-05-03T17:10:11Z</time></trkpt><trkpt lat="43.96710562128652" lon="11.313266326687492"><ele>212.0</ele><time>2026-05-03T17:10:12Z</time></trkpt><trkpt lat="43.96702089614344" lon="11.313014608184885"><ele>212.0</ele><time>2026-05-03T17:10:13Z</time></trkpt><trkpt lat="43.96694076178431" lon="11.312780320768207"><ele>212.0</ele><time>2026-05-03T17:10:14Z</time></trkpt><trkpt lat="43.966863034288465" lon="11.312569008161843"><ele>212.0</ele><time>2026-05-03T17:10:15Z</time></trkpt><trkpt lat="43.96678650755797" lon="11.312371063352929"><ele>212.0</ele><time>2026-05-03T17:10:16Z</time></trkpt><trkpt lat="43.966705968914255" lon="11.312179068672053"><ele>212.0</ele><time>2026-05-03T17:10:17Z</time></trkpt><trkpt lat="43.96661104636353" lon="11.311995999258672"><ele>212.0</ele><time>2026-05-03T17:10:18Z</time></trkpt><trkpt lat="43.96650492599445" lon="11.31182105972497"><ele>212.0</ele><time>2026-05-03T17:10:19Z</time></trkpt><trkpt lat="43.966385954214296" lon="11.311658594434403"><ele>212.0</ele><time>2026-05-03T17:10:20Z</time></trkpt><trkpt lat="43.966252237408526" lon="11.311505383985391"><ele>212.0</ele><time>2026-05-03T17:10:21Z</time></trkpt><trkpt lat="43.96610607123504" lon="11.311363476667994"><ele>212.0</ele><time>2026-05-03T17:10:22Z</time></trkpt><trkpt lat="43.96594690079554" lon="11.311234923960914"><ele>212.0</ele><time>2026-05-03T17:10:23Z</time></trkpt><trkpt lat="43.96577280824275" lon="11.311118932615395"><ele>212.0</ele><time>2026-05-03T17:10:24Z</time></trkpt><trkpt lat="43.96558835971662" lon="11.311027547443883"><ele>212.0</ele><time>2026-05-03T17:10:25Z</time></trkpt><trkpt lat="43.96539522431614" lon="11.310954092033763"><ele>212.0</ele><time>2026-05-03T17:10:26Z</time></trkpt><trkpt lat="43.96519677528191" lon="11.310886727217262"><ele>212.0</ele><time>2026-05-03T17:10:27Z</time></trkpt><trkpt lat="43.96499602585751" lon="11.310816660409609"><ele>211.33333333333334</ele><time>2026-05-03T17:10:28Z</time></trkpt><trkpt lat="43.96478379184011" lon="11.310739455901988"><ele>210.66666666666669</ele><time>2026-05-03T17:10:29Z</time></trkpt><trkpt lat="43.964568831990846" lon="11.310660988812565"><ele>210.0</ele><time>2026-05-03T17:10:30Z</time></trkpt><trkpt lat="43.96436735387286" lon="11.310588733930661"><ele>210.66666666666669</ele><time>2026-05-03T17:10:31Z</time></trkpt><trkpt lat="43.96417121754182" lon="11.3104999294281"><ele>211.33333333333334</ele><time>2026-05-03T17:10:32Z</time></trkpt><trkpt lat="43.96398426310435" lon="11.310394316601991"><ele>212.0</ele><time>2026-05-03T17:10:33Z</time></trkpt><trkpt lat="43.96380502590423" lon="11.310255452144037"><ele>212.0</ele><time>2026-05-03T17:10:34Z</time></trkpt><trkpt lat="43.96363058734912" lon="11.310098821474229"><ele>212.0</ele><time>2026-05-03T17:10:35Z</time></trkpt><trkpt lat="43.96346098726081" lon="11.309912489712657"><ele>212.0</ele><time>2026-05-03T17:10:36Z</time></trkpt><trkpt lat="43.96330002707209" lon="11.309694832164734"><ele>213.66666666666669</ele><time>2026-05-03T17:10:37Z</time></trkpt><trkpt lat="43.963162657746786" lon="11.309452790098051"><ele>215.33333333333331</ele><time>2026-05-03T17:10:38Z</time></trkpt><trkpt lat="43.963046927877876" lon="11.309197782583274"><ele>217.0</ele><time>2026-05-03T17:10:39Z</time></trkpt><trkpt lat="43.962948300511854" lon="11.308919635054297"><ele>214.0</ele><time>2026-05-03T17:10:40Z</time></trkpt><trkpt lat="43.962859608248735" lon="11.308627875298642"><ele>211.0</ele><time>2026-05-03T17:10:41Z</time></trkpt><trkpt lat="43.96277714970279" lon="11.308341740998209"><ele>211.0</ele><time>2026-05-03T17:10:42Z</time></trkpt><trkpt lat="43.962697541890336" lon="11.308081566661834"><ele>211.0</ele><time>2026-05-03T17:10:43Z</time></trkpt><trkpt lat="43.962620121392504" lon="11.307842302671899"><ele>211.0</ele><time>2026-05-03T17:10:44Z</time></trkpt><trkpt lat="43.962547515481454" lon="11.307617279104551"><ele>211.0</ele><time>2026-05-03T17:10:45Z</time></trkpt><trkpt lat="43.962481604377324" lon="11.307408607508629"><ele>211.0</ele><time>2026-05-03T17:10:46Z</time></trkpt><trkpt lat="43.96241781279668" lon="11.307211916196085"><ele>211.0</ele><time>2026-05-03T17:10:47Z</time></trkpt><trkpt lat="43.962357486736934" lon="11.307029790901593"><ele>211.0</ele><time>2026-05-03T17:10:48Z</time></trkpt><trkpt lat="43.96229909949809" lon="11.306849723505563"><ele>211.0</ele><time>2026-05-03T17:10:49Z</time></trkpt><trkpt lat="43.96224259402587" lon="11.306666829914427"><ele>211.0</ele><time>2026-05-03T17:10:50Z</time></trkpt><trkpt lat="43.96218590735657" lon="11.306486022855871"><ele>211.0</ele><time>2026-05-03T17:10:51Z</time></trkpt><trkpt lat="43.96212913918294" lon="11.306306509003287"><ele>210.5</ele><time>2026-05-03T17:10:52Z</time></trkpt><trkpt lat="43.96207589394917" lon="11.306133214626898"><ele>210.0</ele><time>2026-05-03T17:10:53Z</time></trkpt><trkpt lat="43.962020032043334" lon="11.30596047189051"><ele>209.5</ele><time>2026-05-03T17:10:54Z</time></trkpt><trkpt lat="43.9619610944826" lon="11.305779923094464"><ele>209.0</ele><time>2026-05-03T17:10:55Z</time></trkpt><trkpt lat="43.9618990114712" lon="11.305591463003413"><ele>209.66666666666669</ele><time>2026-05-03T17:10:56Z</time></trkpt><trkpt lat="43.96183563745792" lon="11.30539643227772"><ele>210.33333333333331</ele><time>2026-05-03T17:10:57Z</time></trkpt><trkpt lat="43.96177125142605" lon="11.305197774165409"><ele>211.0</ele><time>2026-05-03T17:10:58Z</time></trkpt><trkpt lat="43.96170935241171" lon="11.305002567398057"><ele>211.33333333333331</ele><time>2026-05-03T17:10:59Z</time></trkpt><trkpt lat="43.96164246137733" lon="11.304793757875993"><ele>211.66666666666669</ele><time>2026-05-03T17:11:00Z</time></trkpt><trkpt lat="43.96157406184156" lon="11.3045780046816"><ele>212.0</ele><time>2026-05-03T17:11:01Z</time></trkpt><trkpt lat="43.961524144266455" lon="11.304394353969881"><ele>212.0</ele><time>2026-05-03T17:11:02Z</time></trkpt><trkpt lat="43.961489276166425" lon="11.304251425228454"><ele>212.0</ele><time>2026-05-03T17:11:03Z</time></trkpt><trkpt lat="43.96145908259571" lon="11.304117287703185"><ele>212.0</ele><time>2026-05-03T17:11:04Z</time></trkpt><trkpt lat="43.96143893373079" lon="11.303998117555567"><ele>212.0</ele><time>2026-05-03T17:11:05Z</time></trkpt><trkpt lat="43.96143354995171" lon="11.303877512146938"><ele>212.0</ele><time>2026-05-03T17:11:06Z</time></trkpt><trkpt lat="43.96143549344937" lon="11.303756268904012"><ele>212.16666666666669</ele><time>2026-05-03T17:11:07Z</time></trkpt><trkpt lat="43.96144630450701" lon="11.303638816609999"><ele>212.33333333333334</ele><time>2026-05-03T17:11:08Z</time></trkpt><trkpt lat="43.96147227075923" lon="11.303534053097549"><ele>212.5</ele><time>2026-05-03T17:11:09Z</time></trkpt><trkpt lat="43.96150538090247" lon="11.303435310277097"><ele>212.66666666666669</ele><time>2026-05-03T17:11:10Z</time></trkpt><trkpt lat="43.96154104446259" lon="11.30333816558744"><ele>212.83333333333334</ele><time>2026-05-03T17:11:11Z</time></trkpt><trkpt lat="43.961571770313846" lon="11.303237771645874"><ele>213.0</ele><time>2026-05-03T17:11:12Z</time></trkpt><trkpt lat="43.96160607216742" lon="11.303137687690151"><ele>213.5</ele><time>2026-05-03T17:11:13Z</time></trkpt><trkpt lat="43.96165780283027" lon="11.303018525833124"><ele>214.0</ele><time>2026-05-03T17:11:14Z</time></trkpt><trkpt lat="43.96172133108905" lon="11.302871966352072"><ele>214.5</ele><time>2026-05-03T17:11:15Z</time></trkpt><trkpt lat="43.96180120542127" lon="11.302686650281368"><ele>215.0</ele><time>2026-05-03T17:11:16Z</time></trkpt><trkpt lat="43.9618916499296" lon="11.302498829849517"><ele>215.25</ele><time>2026-05-03T17:11:17Z</time></trkpt><trkpt lat="43.96198222903469" lon="11.302321534438034"><ele>215.5</ele><time>2026-05-03T17:11:18Z</time></trkpt><trkpt lat="43.962079931555074" lon="11.302167186672088"><ele>215.75</ele><time>2026-05-03T17:11:19Z</time></trkpt><trkpt lat="43.96219475303484" lon="11.302058464984546"><ele>216.0</ele><time>2026-05-03T17:11:20Z</time></trkpt><trkpt lat="43.96231941192648" lon="11.30196235123324"><ele>216.0</ele><time>2026-05-03T17:11:21Z</time></trkpt><trkpt lat="43.96246394813892" lon="11.30191569502505"><ele>216.0</ele><time>2026-05-03T17:11:22Z</time></trkpt><trkpt lat="43.96262045088164" lon="11.301864900867857"><ele>216.0</ele><time>2026-05-03T17:11:23Z</time></trkpt><trkpt lat="43.96277340084254" lon="11.301861268329027"><ele>215.75</ele><time>2026-05-03T17:11:24Z</time></trkpt><trkpt lat="43.96291461864939" lon="11.301847444502492"><ele>215.5</ele><time>2026-05-03T17:11:25Z</time></trkpt><trkpt lat="43.9630463247461" lon="11.301812028037457"><ele>215.25</ele><time>2026-05-03T17:11:26Z</time></trkpt><trkpt lat="43.963169158646934" lon="11.301741408412175"><ele>215.0</ele><time>2026-05-03T17:11:27Z</time></trkpt><trkpt lat="43.963278682697336" lon="11.30164315721368"><ele>215.0</ele><time>2026-05-03T17:11:28Z</time></trkpt><trkpt lat="43.96337765604985" lon="11.301525198748427"><ele>215.0</ele><time>2026-05-03T17:11:29Z</time></trkpt><trkpt lat="43.96346781413255" lon="11.301402954686695"><ele>215.0</ele><time>2026-05-03T17:11:30Z</time></trkpt><trkpt lat="43.96355259665284" lon="11.30128655435548"><ele>215.0</ele><time>2026-05-03T17:11:31Z</time></trkpt><trkpt lat="43.963630128269706" lon="11.301181982184167"><ele>215.0</ele><time>2026-05-03T17:11:32Z</time></trkpt><trkpt lat="43.96371163532636" lon="11.301081640335665"><ele>215.0</ele><time>2026-05-03T17:11:33Z</time></trkpt><trkpt lat="43.96379473413803" lon="11.300981536620798"><ele>215.0</ele><time>2026-05-03T17:11:34Z</time></trkpt><trkpt lat="43.96388265152197" lon="11.300878169384966"><ele>215.0</ele><time>2026-05-03T17:11:35Z</time></trkpt><trkpt lat="43.96397326511053" lon="11.300766629505516"><ele>215.0</ele><time>2026-05-03T17:11:36Z</time></trkpt><trkpt lat="43.96406453764228" lon="11.300655017182391"><ele>215.0</ele><time>2026-05-03T17:11:37Z</time></trkpt><trkpt lat="43.96415239660625" lon="11.300544925669989"><ele>215.0</ele><time>2026-05-03T17:11:38Z</time></trkpt><trkpt lat="43.96425164459798" lon="11.300446754278486"><ele>215.0</ele><time>2026-05-03T17:11:39Z</time></trkpt><trkpt lat="43.9643192748758" lon="11.300333524635569"><ele>215.0</ele><time>2026-05-03T17:11:40Z</time></trkpt><trkpt lat="43.96440281222082" lon="11.300226119030068"><ele>215.0</ele><time>2026-05-03T17:11:41Z</time></trkpt><trkpt lat="43.96448438092886" lon="11.30012390992631"><ele>215.0</ele><time>2026-05-03T17:11:42Z</time></trkpt><trkpt lat="43.96456667547307" lon="11.300022848740268"><ele>215.0</ele><time>2026-05-03T17:11:43Z</time></trkpt><trkpt lat="43.96464707517598" lon="11.299919815940044"><ele>215.0</ele><time>2026-05-03T17:11:44Z</time></trkpt><trkpt lat="43.96472481624287" lon="11.299812789297913"><ele>215.4</ele><time>2026-05-03T17:11:45Z</time></trkpt><trkpt lat="43.96480047984689" lon="11.29970315850614"><ele>215.8</ele><time>2026-05-03T17:11:46Z</time></trkpt><trkpt lat="43.964868803188715" lon="11.299581220253273"><ele>216.2</ele><time>2026-05-03T17:11:47Z</time></trkpt><trkpt lat="43.964920866101195" lon="11.299458407374258"><ele>216.6</ele><time>2026-05-03T17:11:48Z</time></trkpt><trkpt lat="43.964953583726654" lon="11.299336922598352"><ele>217.0</ele><time>2026-05-03T17:11:49Z</time></trkpt><trkpt lat="43.96496500072507" lon="11.299242509673016"><ele>217.0</ele><time>2026-05-03T17:11:50Z</time></trkpt><trkpt lat="43.96497694582498" lon="11.299152329588363"><ele>217.0</ele><time>2026-05-03T17:11:51Z</time></trkpt><trkpt lat="43.964976072143045" lon="11.29897615165691"><ele>217.0</ele><time>2026-05-03T17:11:53Z</time></trkpt><trkpt lat="43.96497126457924" lon="11.298864727215063"><ele>217.0</ele><time>2026-05-03T17:11:54Z</time></trkpt><trkpt lat="43.9649620675683" lon="11.298736144003628"><ele>217.0</ele><time>2026-05-03T17:11:55Z</time></trkpt><trkpt lat="43.96495289641607" lon="11.29859612507123"><ele>217.5</ele><time>2026-05-03T17:11:56Z</time></trkpt><trkpt lat="43.9649428951931" lon="11.29844279777679"><ele>218.0</ele><time>2026-05-03T17:11:57Z</time></trkpt><trkpt lat="43.9649303838038" lon="11.298283397461697"><ele>218.5</ele><time>2026-05-03T17:11:58Z</time></trkpt><trkpt lat="43.964917427299866" lon="11.298125163492351"><ele>219.0</ele><time>2026-05-03T17:11:59Z</time></trkpt><trkpt lat="43.964919897171356" lon="11.297958430840858"><ele>219.75</ele><time>2026-05-03T17:12:00Z</time></trkpt><trkpt lat="43.964909476012245" lon="11.29778175936814"><ele>220.5</ele><time>2026-05-03T17:12:01Z</time></trkpt><trkpt lat="43.964887332258755" lon="11.297609438265665"><ele>221.25</ele><time>2026-05-03T17:12:02Z</time></trkpt><trkpt lat="43.964887570537755" lon="11.29746312031751"><ele>222.0</ele><time>2026-05-03T17:12:03Z</time></trkpt><trkpt lat="43.964879874336646" lon="11.297336578798019"><ele>222.75</ele><time>2026-05-03T17:12:04Z</time></trkpt><trkpt lat="43.96486574732416" lon="11.297213573210955"><ele>223.5</ele><time>2026-05-03T17:12:05Z</time></trkpt><trkpt lat="43.964851729854075" lon="11.29706845343221"><ele>224.25</ele><time>2026-05-03T17:12:06Z</time></trkpt><trkpt lat="43.964844405275" lon="11.296890421908925"><ele>225.0</ele><time>2026-05-03T17:12:07Z</time></trkpt><trkpt lat="43.96484711785032" lon="11.296698981345225"><ele>225.0</ele><time>2026-05-03T17:12:08Z</time></trkpt><trkpt lat="43.96484905338883" lon="11.296518154975907"><ele>225.0</ele><time>2026-05-03T17:12:09Z</time></trkpt><trkpt lat="43.964854911786695" lon="11.29635554599681"><ele>225.0</ele><time>2026-05-03T17:12:10Z</time></trkpt><trkpt lat="43.96487824360849" lon="11.296227213307496"><ele>225.0</ele><time>2026-05-03T17:12:11Z</time></trkpt><trkpt lat="43.96493061170837" lon="11.29611478789275"><ele>225.0</ele><time>2026-05-03T17:12:12Z</time></trkpt><trkpt lat="43.96501459537149" lon="11.296018711017663"><ele>225.25</ele><time>2026-05-03T17:12:13Z</time></trkpt><trkpt lat="43.965116190604185" lon="11.295916730976566"><ele>225.5</ele><time>2026-05-03T17:12:14Z</time></trkpt><trkpt lat="43.9652294492528" lon="11.29580653463534"><ele>225.75</ele><time>2026-05-03T17:12:15Z</time></trkpt><trkpt lat="43.96534885108026" lon="11.295682829250262"><ele>226.0</ele><time>2026-05-03T17:12:16Z</time></trkpt><trkpt lat="43.965469653194745" lon="11.295551623668306"><ele>226.25</ele><time>2026-05-03T17:12:17Z</time></trkpt><trkpt lat="43.96558974467131" lon="11.29542563606536"><ele>226.5</ele><time>2026-05-03T17:12:18Z</time></trkpt><trkpt lat="43.96570813757031" lon="11.295309963201657"><ele>226.75</ele><time>2026-05-03T17:12:19Z</time></trkpt><trkpt lat="43.9658226196824" lon="11.295210593848422"><ele>227.0</ele><time>2026-05-03T17:12:20Z</time></trkpt><trkpt lat="43.965941656538185" lon="11.29511067464264"><ele>227.0</ele><time>2026-05-03T17:12:21Z</time></trkpt><trkpt lat="43.96606918128308" lon="11.29499415542435"><ele>227.0</ele><time>2026-05-03T17:12:22Z</time></trkpt><trkpt lat="43.96621065011383" lon="11.29485327382894"><ele>227.0</ele><time>2026-05-03T17:12:23Z</time></trkpt><trkpt lat="43.966370215528045" lon="11.294711720966314"><ele>227.0</ele><time>2026-05-03T17:12:24Z</time></trkpt><trkpt lat="43.96651949617415" lon="11.294589440157477"><ele>227.0</ele><time>2026-05-03T17:12:25Z</time></trkpt><trkpt lat="43.96666807255722" lon="11.294468171619933"><ele>227.0</ele><time>2026-05-03T17:12:26Z</time></trkpt><trkpt lat="43.9668137474621" lon="11.294347112253208"><ele>226.0</ele><time>2026-05-03T17:12:27Z</time></trkpt><trkpt lat="43.96695025263298" lon="11.294229071657403"><ele>225.0</ele><time>2026-05-03T17:12:28Z</time></trkpt><trkpt lat="43.9670828128522" lon="11.294112526359589"><ele>224.0</ele><time>2026-05-03T17:12:29Z</time></trkpt><trkpt lat="43.96721141914763" lon="11.294001330537375"><ele>224.25</ele><time>2026-05-03T17:12:30Z</time></trkpt><trkpt lat="43.967333755242" lon="11.293897241436195"><ele>224.5</ele><time>2026-05-03T17:12:31Z</time></trkpt><trkpt lat="43.96745787480129" lon="11.29378930868646"><ele>224.75</ele><time>2026-05-03T17:12:32Z</time></trkpt><trkpt lat="43.967584575328424" lon="11.293676458734108"><ele>225.0</ele><time>2026-05-03T17:12:33Z</time></trkpt><trkpt lat="43.96771167994928" lon="11.29356173672918"><ele>225.0</ele><time>2026-05-03T17:12:34Z</time></trkpt><trkpt lat="43.967842385788124" lon="11.293447927911593"><ele>225.0</ele><time>2026-05-03T17:12:35Z</time></trkpt><trkpt lat="43.96797178243959" lon="11.29332940868238"><ele>225.0</ele><time>2026-05-03T17:12:36Z</time></trkpt><trkpt lat="43.96809122462471" lon="11.293220541682228"><ele>225.0</ele><time>2026-05-03T17:12:37Z</time></trkpt><trkpt lat="43.96820544312323" lon="11.293117636004464"><ele>225.0</ele><time>2026-05-03T17:12:38Z</time></trkpt><trkpt lat="43.96831623064902" lon="11.293025176398173"><ele>225.0</ele><time>2026-05-03T17:12:39Z</time></trkpt><trkpt lat="43.96842408823564" lon="11.292927859467301"><ele>225.0</ele><time>2026-05-03T17:12:40Z</time></trkpt><trkpt lat="43.968531434298306" lon="11.292829151339859"><ele>224.75</ele><time>2026-05-03T17:12:41Z</time></trkpt><trkpt lat="43.96863859912301" lon="11.29273272075357"><ele>224.5</ele><time>2026-05-03T17:12:42Z</time></trkpt><trkpt lat="43.96874613723977" lon="11.29263622929067"><ele>224.25</ele><time>2026-05-03T17:12:43Z</time></trkpt><trkpt lat="43.96885874893307" lon="11.292529472346038"><ele>224.0</ele><time>2026-05-03T17:12:44Z</time></trkpt><trkpt lat="43.96898677848986" lon="11.292404544976252"><ele>224.0</ele><time>2026-05-03T17:12:45Z</time></trkpt><trkpt lat="43.96912548437456" lon="11.292272573831907"><ele>224.0</ele><time>2026-05-03T17:12:46Z</time></trkpt><trkpt lat="43.96928722063673" lon="11.292125820044873"><ele>224.0</ele><time>2026-05-03T17:12:47Z</time></trkpt><trkpt lat="43.969467863711756" lon="11.291960845964203"><ele>224.0</ele><time>2026-05-03T17:12:48Z</time></trkpt><trkpt lat="43.969673227914754" lon="11.291803368578927"><ele>224.0</ele><time>2026-05-03T17:12:49Z</time></trkpt><trkpt lat="43.96987507908663" lon="11.29160382258217"><ele>223.66666666666669</ele><time>2026-05-03T17:12:50Z</time></trkpt><trkpt lat="43.97007091565457" lon="11.29144658300413"><ele>223.33333333333331</ele><time>2026-05-03T17:12:51Z</time></trkpt><trkpt lat="43.970239086781504" lon="11.291307641413356"><ele>223.0</ele><time>2026-05-03T17:12:52Z</time></trkpt><trkpt lat="43.97038876237953" lon="11.291173336702215"><ele>223.0</ele><time>2026-05-03T17:12:53Z</time></trkpt><trkpt lat="43.97052357012499" lon="11.291049703302278"><ele>223.0</ele><time>2026-05-03T17:12:54Z</time></trkpt><trkpt lat="43.97064614075336" lon="11.290944903587022"><ele>223.0</ele><time>2026-05-03T17:12:55Z</time></trkpt><trkpt lat="43.97077984541891" lon="11.29082745406238"><ele>222.75</ele><time>2026-05-03T17:12:56Z</time></trkpt><trkpt lat="43.97090796819879" lon="11.290711899288072"><ele>222.5</ele><time>2026-05-03T17:12:57Z</time></trkpt><trkpt lat="43.971022587110426" lon="11.290607265008681"><ele>222.25</ele><time>2026-05-03T17:12:58Z</time></trkpt><trkpt lat="43.97113217974413" lon="11.290507755156904"><ele>222.0</ele><time>2026-05-03T17:12:59Z</time></trkpt><trkpt lat="43.97123623679651" lon="11.29041324537649"><ele>222.0</ele><time>2026-05-03T17:13:00Z</time></trkpt><trkpt lat="43.97133934044234" lon="11.290318898240306"><ele>222.0</ele><time>2026-05-03T17:13:01Z</time></trkpt><trkpt lat="43.97144531783186" lon="11.290225156544253"><ele>222.0</ele><time>2026-05-03T17:13:02Z</time></trkpt><trkpt lat="43.97155516662545" lon="11.290127846467751"><ele>222.0</ele><time>2026-05-03T17:13:03Z</time></trkpt><trkpt lat="43.9716694710645" lon="11.290028513209602"><ele>222.0</ele><time>2026-05-03T17:13:04Z</time></trkpt><trkpt lat="43.97177887268889" lon="11.289930098464861"><ele>222.0</ele><time>2026-05-03T17:13:05Z</time></trkpt><trkpt lat="43.97188822508128" lon="11.289829554872227"><ele>222.0</ele><time>2026-05-03T17:13:06Z</time></trkpt><trkpt lat="43.971996823166066" lon="11.289735091651119"><ele>222.0</ele><time>2026-05-03T17:13:07Z</time></trkpt><trkpt lat="43.97210074003036" lon="11.289645322182551"><ele>222.0</ele><time>2026-05-03T17:13:08Z</time></trkpt><trkpt lat="43.97220029716484" lon="11.289559982630584"><ele>222.0</ele><time>2026-05-03T17:13:09Z</time></trkpt><trkpt lat="43.9722868770425" lon="11.289485226835097"><ele>222.0</ele><time>2026-05-03T17:13:10Z</time></trkpt><trkpt lat="43.97236392032638" lon="11.289418571933174"><ele>222.0</ele><time>2026-05-03T17:13:11Z</time></trkpt><trkpt lat="43.97243633605542" lon="11.289353566460969"><ele>222.0</ele><time>2026-05-03T17:13:12Z</time></trkpt><trkpt lat="43.97250005694933" lon="11.289297001988448"><ele>222.0</ele><time>2026-05-03T17:13:13Z</time></trkpt><trkpt lat="43.97256121692069" lon="11.289241810692147"><ele>222.0</ele><time>2026-05-03T17:13:14Z</time></trkpt><trkpt lat="43.97261722778131" lon="11.289194031474448"><ele>222.0</ele><time>2026-05-03T17:13:15Z</time></trkpt><trkpt lat="43.972720184664546" lon="11.28911423135725"><ele>222.0</ele><time>2026-05-03T17:13:17Z</time></trkpt><trkpt lat="43.9728323751196" lon="11.289092040649747"><ele>222.0</ele><time>2026-05-03T17:13:19Z</time></trkpt><trkpt lat="43.97289764860865" lon="11.28910491687661"><ele>222.0</ele><time>2026-05-03T17:13:20Z</time></trkpt><trkpt lat="43.97296879189795" lon="11.289136992046375"><ele>222.0</ele><time>2026-05-03T17:13:21Z</time></trkpt><trkpt lat="43.9730466212603" lon="11.289172516093982"><ele>222.0</ele><time>2026-05-03T17:13:22Z</time></trkpt><trkpt lat="43.973133716806885" lon="11.289188801195992"><ele>222.0</ele><time>2026-05-03T17:13:23Z</time></trkpt><trkpt lat="43.97322921275236" lon="11.289163711543964"><ele>222.0</ele><time>2026-05-03T17:13:24Z</time></trkpt><trkpt lat="43.97331464105469" lon="11.289099263348158"><ele>222.0</ele><time>2026-05-03T17:13:25Z</time></trkpt><trkpt lat="43.97338245381127" lon="11.288983263109586"><ele>222.0</ele><time>2026-05-03T17:13:26Z</time></trkpt><trkpt lat="43.973428875517236" lon="11.288849346786469"><ele>222.0</ele><time>2026-05-03T17:13:27Z</time></trkpt><trkpt lat="43.973443214519925" lon="11.288710445971853"><ele>222.0</ele><time>2026-05-03T17:13:28Z</time></trkpt><trkpt lat="43.97353808369523" lon="11.288602939142166"><ele>222.0</ele><time>2026-05-03T17:13:29Z</time></trkpt><trkpt lat="43.973636731655944" lon="11.288508873438822"><ele>222.0</ele><time>2026-05-03T17:13:30Z</time></trkpt><trkpt lat="43.97376349491889" lon="11.288449429172474"><ele>222.0</ele><time>2026-05-03T17:13:31Z</time></trkpt><trkpt lat="43.97389722676444" lon="11.288398282396408"><ele>222.0</ele><time>2026-05-03T17:13:32Z</time></trkpt><trkpt lat="43.97403534617874" lon="11.28834693433562"><ele>222.0</ele><time>2026-05-03T17:13:33Z</time></trkpt><trkpt lat="43.974164454286516" lon="11.288299358201453"><ele>222.5</ele><time>2026-05-03T17:13:34Z</time></trkpt><trkpt lat="43.97429212195632" lon="11.288256791238998"><ele>223.0</ele><time>2026-05-03T17:13:35Z</time></trkpt><trkpt lat="43.97442504475931" lon="11.288218693362984"><ele>223.5</ele><time>2026-05-03T17:13:36Z</time></trkpt><trkpt lat="43.974566022759326" lon="11.288183878300716"><ele>224.0</ele><time>2026-05-03T17:13:37Z</time></trkpt><trkpt lat="43.97471128531122" lon="11.28815363720612"><ele>224.0</ele><time>2026-05-03T17:13:38Z</time></trkpt><trkpt lat="43.97486201513385" lon="11.28813163351039"><ele>224.0</ele><time>2026-05-03T17:13:39Z</time></trkpt><trkpt lat="43.97501774639549" lon="11.28810932534974"><ele>224.0</ele><time>2026-05-03T17:13:40Z</time></trkpt><trkpt lat="43.975181384915345" lon="11.28808841340791"><ele>222.66666666666669</ele><time>2026-05-03T17:13:41Z</time></trkpt><trkpt lat="43.97534944514913" lon="11.288100185909723"><ele>221.33333333333331</ele><time>2026-05-03T17:13:42Z</time></trkpt><trkpt lat="43.97552375356461" lon="11.288100073119784"><ele>220.0</ele><time>2026-05-03T17:13:43Z</time></trkpt><trkpt lat="43.97570870395943" lon="11.288106410906801"><ele>220.66666666666666</ele><time>2026-05-03T17:13:44Z</time></trkpt><trkpt lat="43.97589519879346" lon="11.288122376178595"><ele>221.33333333333331</ele><time>2026-05-03T17:13:45Z</time></trkpt><trkpt lat="43.97606272748094" lon="11.288130401673394"><ele>222.0</ele><time>2026-05-03T17:13:46Z</time></trkpt><trkpt lat="43.97622655964081" lon="11.288161178788696"><ele>222.0</ele><time>2026-05-03T17:13:47Z</time></trkpt><trkpt lat="43.97638397858949" lon="11.288191346915257"><ele>222.0</ele><time>2026-05-03T17:13:48Z</time></trkpt><trkpt lat="43.97653053516669" lon="11.28821806757437"><ele>222.0</ele><time>2026-05-03T17:13:49Z</time></trkpt><trkpt lat="43.97667929982353" lon="11.288243551690476"><ele>224.0</ele><time>2026-05-03T17:13:50Z</time></trkpt><trkpt lat="43.97683311136107" lon="11.288269789410663"><ele>226.0</ele><time>2026-05-03T17:13:51Z</time></trkpt><trkpt lat="43.97698671673916" lon="11.288297428459485"><ele>228.0</ele><time>2026-05-03T17:13:52Z</time></trkpt><trkpt lat="43.97715220373287" lon="11.288348227323256"><ele>228.0</ele><time>2026-05-03T17:13:53Z</time></trkpt><trkpt lat="43.97733571110308" lon="11.288379453053897"><ele>228.0</ele><time>2026-05-03T17:13:54Z</time></trkpt><trkpt lat="43.97753249574248" lon="11.28841134839714"><ele>228.0</ele><time>2026-05-03T17:13:55Z</time></trkpt><trkpt lat="43.97774276485374" lon="11.288444331766026"><ele>230.0</ele><time>2026-05-03T17:13:56Z</time></trkpt><trkpt lat="43.97797320093972" lon="11.28847510945395"><ele>232.0</ele><time>2026-05-03T17:13:57Z</time></trkpt><trkpt lat="43.978233329193316" lon="11.288500480838177"><ele>234.5</ele><time>2026-05-03T17:13:58Z</time></trkpt><trkpt lat="43.97850355519328" lon="11.288516162758922"><ele>237.0</ele><time>2026-05-03T17:13:59Z</time></trkpt><trkpt lat="43.97874715932283" lon="11.28851499178305"><ele>237.0</ele><time>2026-05-03T17:14:00Z</time></trkpt><trkpt lat="43.97892540279038" lon="11.288491502957084"><ele>237.0</ele><time>2026-05-03T17:14:01Z</time></trkpt><trkpt lat="43.979102443051794" lon="11.288474941741924"><ele>237.0</ele><time>2026-05-03T17:14:02Z</time></trkpt><trkpt lat="43.97927587966625" lon="11.288451341347306"><ele>237.66666666666669</ele><time>2026-05-03T17:14:03Z</time></trkpt><trkpt lat="43.979458639736684" lon="11.288422495026333"><ele>238.33333333333334</ele><time>2026-05-03T17:14:04Z</time></trkpt><trkpt lat="43.979649248411356" lon="11.288389699190715"><ele>239.0</ele><time>2026-05-03T17:14:05Z</time></trkpt><trkpt lat="43.97984153354195" lon="11.288340646954818"><ele>240.66666666666669</ele><time>2026-05-03T17:14:06Z</time></trkpt><trkpt lat="43.9800424741529" lon="11.28827147915846"><ele>242.33333333333331</ele><time>2026-05-03T17:14:07Z</time></trkpt><trkpt lat="43.9802506855423" lon="11.288193173581249"><ele>244.0</ele><time>2026-05-03T17:14:08Z</time></trkpt><trkpt lat="43.98043397029134" lon="11.288089278120923"><ele>244.0</ele><time>2026-05-03T17:14:09Z</time></trkpt><trkpt lat="43.98062181400171" lon="11.287957180869693"><ele>244.0</ele><time>2026-05-03T17:14:10Z</time></trkpt><trkpt lat="43.98080975871435" lon="11.28780662487351"><ele>244.0</ele><time>2026-05-03T17:14:11Z</time></trkpt><trkpt lat="43.98099509356312" lon="11.287627145086258"><ele>243.5</ele><time>2026-05-03T17:14:12Z</time></trkpt><trkpt lat="43.98118790240221" lon="11.28742165326865"><ele>243.0</ele><time>2026-05-03T17:14:13Z</time></trkpt><trkpt lat="43.98137720892372" lon="11.287213424002232"><ele>243.0</ele><time>2026-05-03T17:14:14Z</time></trkpt><trkpt lat="43.981541910134354" lon="11.286990046540526"><ele>243.0</ele><time>2026-05-03T17:14:15Z</time></trkpt><trkpt lat="43.98170207881782" lon="11.286776890868977"><ele>244.66666666666669</ele><time>2026-05-03T17:14:16Z</time></trkpt><trkpt lat="43.981844761480836" lon="11.286539859179232"><ele>246.33333333333334</ele><time>2026-05-03T17:14:17Z</time></trkpt><trkpt lat="43.98196422102883" lon="11.286312887608933"><ele>248.0</ele><time>2026-05-03T17:14:18Z</time></trkpt><trkpt lat="43.98207375711054" lon="11.286088838096664"><ele>248.75</ele><time>2026-05-03T17:14:19Z</time></trkpt><trkpt lat="43.98216200626003" lon="11.285883395811833"><ele>249.5</ele><time>2026-05-03T17:14:20Z</time></trkpt><trkpt lat="43.98222846250656" lon="11.28569643647045"><ele>250.25</ele><time>2026-05-03T17:14:21Z</time></trkpt><trkpt lat="43.98227976920822" lon="11.285540376815248"><ele>251.0</ele><time>2026-05-03T17:14:22Z</time></trkpt><trkpt lat="43.98232709379626" lon="11.285380190926096"><ele>252.33333333333334</ele><time>2026-05-03T17:14:23Z</time></trkpt><trkpt lat="43.982377960595656" lon="11.285199946438018"><ele>253.66666666666669</ele><time>2026-05-03T17:14:24Z</time></trkpt><trkpt lat="43.98242960161591" lon="11.285004237305527"><ele>255.0</ele><time>2026-05-03T17:14:25Z</time></trkpt><trkpt lat="43.98248032021093" lon="11.284792110336163"><ele>260.0</ele><time>2026-05-03T17:14:26Z</time></trkpt><trkpt lat="43.98252493511552" lon="11.28456294228834"><ele>265.0</ele><time>2026-05-03T17:14:27Z</time></trkpt><trkpt lat="43.982563384229216" lon="11.284320741387292"><ele>270.0</ele><time>2026-05-03T17:14:28Z</time></trkpt><trkpt lat="43.98259942473728" lon="11.28407798413856"><ele>270.6666666666667</ele><time>2026-05-03T17:14:29Z</time></trkpt><trkpt lat="43.9826297948332" lon="11.283823050914235"><ele>271.33333333333337</ele><time>2026-05-03T17:14:30Z</time></trkpt><trkpt lat="43.98264939901018" lon="11.283544735977422"><ele>272.0</ele><time>2026-05-03T17:14:31Z</time></trkpt><trkpt lat="43.98267091108085" lon="11.283242214074981"><ele>272.5</ele><time>2026-05-03T17:14:32Z</time></trkpt><trkpt lat="43.982687127267454" lon="11.28290657855212"><ele>273.0</ele><time>2026-05-03T17:14:33Z</time></trkpt><trkpt lat="43.98272083189016" lon="11.282545773686635"><ele>275.0</ele><time>2026-05-03T17:14:34Z</time></trkpt><trkpt lat="43.982716311323095" lon="11.28217107503897"><ele>277.0</ele><time>2026-05-03T17:14:35Z</time></trkpt><trkpt lat="43.98271832309663" lon="11.281827261408363"><ele>277.0</ele><time>2026-05-03T17:14:36Z</time></trkpt><trkpt lat="43.98272522244024" lon="11.281494134955953"><ele>277.0</ele><time>2026-05-03T17:14:37Z</time></trkpt><trkpt lat="43.982727217088836" lon="11.281168606701977"><ele>276.66666666666663</ele><time>2026-05-03T17:14:38Z</time></trkpt><trkpt lat="43.9827330741636" lon="11.280854616221754"><ele>276.3333333333333</ele><time>2026-05-03T17:14:39Z</time></trkpt><trkpt lat="43.98274916141068" lon="11.280549807293301"><ele>276.0</ele><time>2026-05-03T17:14:40Z</time></trkpt><trkpt lat="43.98278246773758" lon="11.280254605362423"><ele>268.3333333333333</ele><time>2026-05-03T17:14:41Z</time></trkpt><trkpt lat="43.982837624079636" lon="11.279972351252598"><ele>260.66666666666663</ele><time>2026-05-03T17:14:42Z</time></trkpt><trkpt lat="43.982902368563686" lon="11.27969416336886"><ele>253.0</ele><time>2026-05-03T17:14:43Z</time></trkpt><trkpt lat="43.98296907447499" lon="11.279410560557329"><ele>250.0</ele><time>2026-05-03T17:14:44Z</time></trkpt><trkpt lat="43.983033731707295" lon="11.279117469006863"><ele>247.0</ele><time>2026-05-03T17:14:45Z</time></trkpt><trkpt lat="43.983098655424456" lon="11.278824068652504"><ele>244.0</ele><time>2026-05-03T17:14:46Z</time></trkpt><trkpt lat="43.983163261291494" lon="11.278518652206001"><ele>243.0</ele><time>2026-05-03T17:14:47Z</time></trkpt><trkpt lat="43.98322669466633" lon="11.278216372274871"><ele>242.0</ele><time>2026-05-03T17:14:48Z</time></trkpt><trkpt lat="43.98328344000884" lon="11.277936726003254"><ele>241.0</ele><time>2026-05-03T17:14:49Z</time></trkpt><trkpt lat="43.983339659626424" lon="11.277676001063323"><ele>241.0</ele><time>2026-05-03T17:14:50Z</time></trkpt><trkpt lat="43.983391199601535" lon="11.277439614911573"><ele>241.0</ele><time>2026-05-03T17:14:51Z</time></trkpt><trkpt lat="43.98344031852448" lon="11.277207007649055"><ele>241.0</ele><time>2026-05-03T17:14:52Z</time></trkpt><trkpt lat="43.9834903995069" lon="11.276973370074804"><ele>244.0</ele><time>2026-05-03T17:14:53Z</time></trkpt><trkpt lat="43.98353740312806" lon="11.276749870526986"><ele>247.0</ele><time>2026-05-03T17:14:54Z</time></trkpt><trkpt lat="43.98358083878326" lon="11.276546291104548"><ele>250.0</ele><time>2026-05-03T17:14:55Z</time></trkpt><trkpt lat="43.983623050236154" lon="11.276355904485461"><ele>255.5</ele><time>2026-05-03T17:14:56Z</time></trkpt><trkpt lat="43.98366353821607" lon="11.276175477420269"><ele>261.0</ele><time>2026-05-03T17:14:57Z</time></trkpt><trkpt lat="43.98370475194514" lon="11.275978767305379"><ele>266.5</ele><time>2026-05-03T17:14:58Z</time></trkpt><trkpt lat="43.98375129705399" lon="11.275769343025496"><ele>272.0</ele><time>2026-05-03T17:14:59Z</time></trkpt><trkpt lat="43.98380270529831" lon="11.275545505685105"><ele>272.6666666666667</ele><time>2026-05-03T17:15:00Z</time></trkpt><trkpt lat="43.98386131966391" lon="11.275318089545387"><ele>273.3333333333333</ele><time>2026-05-03T17:15:01Z</time></trkpt><trkpt lat="43.98393670213554" lon="11.275093971536597"><ele>274.0</ele><time>2026-05-03T17:15:02Z</time></trkpt><trkpt lat="43.98402429466533" lon="11.274884444896948"><ele>273.3333333333333</ele><time>2026-05-03T17:15:03Z</time></trkpt><trkpt lat="43.984121592177196" lon="11.274700056034755"><ele>272.6666666666667</ele><time>2026-05-03T17:15:04Z</time></trkpt><trkpt lat="43.98422744798944" lon="11.274542503408902"><ele>272.0</ele><time>2026-05-03T17:15:05Z</time></trkpt><trkpt lat="43.98433429498263" lon="11.27439763473455"><ele>274.75</ele><time>2026-05-03T17:15:06Z</time></trkpt><trkpt lat="43.98443724921516" lon="11.274271575945036"><ele>277.5</ele><time>2026-05-03T17:15:07Z</time></trkpt><trkpt lat="43.98453832012444" lon="11.274161248389687"><ele>280.25</ele><time>2026-05-03T17:15:08Z</time></trkpt><trkpt lat="43.98463984691779" lon="11.274062908919348"><ele>283.0</ele><time>2026-05-03T17:15:09Z</time></trkpt><trkpt lat="43.984740713473215" lon="11.273985660366185"><ele>283.0</ele><time>2026-05-03T17:15:10Z</time></trkpt><trkpt lat="43.984839991622266" lon="11.273918317579643"><ele>283.0</ele><time>2026-05-03T17:15:11Z</time></trkpt><trkpt lat="43.98494065185196" lon="11.27384848521729"><ele>283.0</ele><time>2026-05-03T17:15:12Z</time></trkpt><trkpt lat="43.98505098932098" lon="11.273787342446184"><ele>283.0</ele><time>2026-05-03T17:15:13Z</time></trkpt><trkpt lat="43.98516194466179" lon="11.273726748392678"><ele>283.0</ele><time>2026-05-03T17:15:14Z</time></trkpt><trkpt lat="43.98527337250237" lon="11.273679485865031"><ele>283.0</ele><time>2026-05-03T17:15:15Z</time></trkpt><trkpt lat="43.98538214126472" lon="11.273647745195497"><ele>283.0</ele><time>2026-05-03T17:15:16Z</time></trkpt><trkpt lat="43.985490095172196" lon="11.27362477241937"><ele>283.0</ele><time>2026-05-03T17:15:17Z</time></trkpt><trkpt lat="43.98558612978746" lon="11.273598987661996"><ele>283.0</ele><time>2026-05-03T17:15:18Z</time></trkpt><trkpt lat="43.98565190812497" lon="11.273574363964077"><ele>283.0</ele><time>2026-05-03T17:15:19Z</time></trkpt><trkpt lat="43.98571292975521" lon="11.273549302255223"><ele>283.0</ele><time>2026-05-03T17:15:20Z</time></trkpt><trkpt lat="43.98577643466002" lon="11.273509521702861"><ele>283.0</ele><time>2026-05-03T17:15:21Z</time></trkpt><trkpt lat="43.98583425911482" lon="11.273449707937694"><ele>283.0</ele><time>2026-05-03T17:15:22Z</time></trkpt><trkpt lat="43.98587531107812" lon="11.273362592190901"><ele>283.0</ele><time>2026-05-03T17:15:23Z</time></trkpt><trkpt lat="43.98589764725636" lon="11.273261681719255"><ele>283.0</ele><time>2026-05-03T17:15:24Z</time></trkpt><trkpt lat="43.98590802055054" lon="11.273163670482536"><ele>283.0</ele><time>2026-05-03T17:15:25Z</time></trkpt><trkpt lat="43.98592355200562" lon="11.273064442481592"><ele>282.4</ele><time>2026-05-03T17:15:26Z</time></trkpt><trkpt lat="43.985961990621654" lon="11.272970266236772"><ele>281.8</ele><time>2026-05-03T17:15:27Z</time></trkpt><trkpt lat="43.986019741624" lon="11.272898571840113"><ele>281.2</ele><time>2026-05-03T17:15:28Z</time></trkpt><trkpt lat="43.98610172637445" lon="11.272863865479037"><ele>280.6</ele><time>2026-05-03T17:15:29Z</time></trkpt><trkpt lat="43.98619111467337" lon="11.272793794309694"><ele>280.0</ele><time>2026-05-03T17:15:30Z</time></trkpt><trkpt lat="43.986291873940715" lon="11.27273322605307"><ele>280.0</ele><time>2026-05-03T17:15:31Z</time></trkpt><trkpt lat="43.98640000766704" lon="11.272662924080972"><ele>280.0</ele><time>2026-05-03T17:15:32Z</time></trkpt><trkpt lat="43.986517698092165" lon="11.27257998264067"><ele>280.0</ele><time>2026-05-03T17:15:33Z</time></trkpt><trkpt lat="43.986646258392554" lon="11.272492907808468"><ele>280.0</ele><time>2026-05-03T17:15:34Z</time></trkpt><trkpt lat="43.986779670341306" lon="11.272400965493354"><ele>280.0</ele><time>2026-05-03T17:15:35Z</time></trkpt><trkpt lat="43.98691439820753" lon="11.272290972788262"><ele>280.0</ele><time>2026-05-03T17:15:36Z</time></trkpt><trkpt lat="43.98705536054378" lon="11.272163404938544"><ele>280.0</ele><time>2026-05-03T17:15:37Z</time></trkpt><trkpt lat="43.9871918429563" lon="11.272013349664512"><ele>278.66666666666663</ele><time>2026-05-03T17:15:38Z</time></trkpt><trkpt lat="43.98733147561438" lon="11.271836061272873"><ele>277.3333333333333</ele><time>2026-05-03T17:15:39Z</time></trkpt><trkpt lat="43.98747332734854" lon="11.271626245664933"><ele>276.0</ele><time>2026-05-03T17:15:40Z</time></trkpt><trkpt lat="43.98762513238182" lon="11.271387547649027"><ele>273.5</ele><time>2026-05-03T17:15:41Z</time></trkpt><trkpt lat="43.98778650749449" lon="11.271140223696948"><ele>271.0</ele><time>2026-05-03T17:15:42Z</time></trkpt><trkpt lat="43.987937967771146" lon="11.270914025385354"><ele>271.0</ele><time>2026-05-03T17:15:43Z</time></trkpt><trkpt lat="43.98808446846744" lon="11.270694763077616"><ele>271.0</ele><time>2026-05-03T17:15:44Z</time></trkpt><trkpt lat="43.98814954764754" lon="11.270420199311518"><ele>271.0</ele><time>2026-05-03T17:15:45Z</time></trkpt><trkpt lat="43.98822860941593" lon="11.27019344181292"><ele>272.0</ele><time>2026-05-03T17:15:46Z</time></trkpt><trkpt lat="43.98830389128592" lon="11.269946234301853"><ele>273.0</ele><time>2026-05-03T17:15:47Z</time></trkpt><trkpt lat="43.988381748729104" lon="11.269657436684337"><ele>274.0</ele><time>2026-05-03T17:15:48Z</time></trkpt><trkpt lat="43.988469315682906" lon="11.269335106388212"><ele>274.0</ele><time>2026-05-03T17:15:49Z</time></trkpt><trkpt lat="43.98855519700861" lon="11.26899988787608"><ele>274.0</ele><time>2026-05-03T17:15:50Z</time></trkpt><trkpt lat="43.98862665381535" lon="11.26867079601423"><ele>277.5</ele><time>2026-05-03T17:15:51Z</time></trkpt><trkpt lat="43.98867585267424" lon="11.268350070070891"><ele>281.0</ele><time>2026-05-03T17:15:52Z</time></trkpt><trkpt lat="43.988708771467316" lon="11.268036476990007"><ele>282.5</ele><time>2026-05-03T17:15:53Z</time></trkpt><trkpt lat="43.988723542290586" lon="11.26771431622505"><ele>284.0</ele><time>2026-05-03T17:15:54Z</time></trkpt><trkpt lat="43.988731137339535" lon="11.267398531030302"><ele>283.6666666666667</ele><time>2026-05-03T17:15:55Z</time></trkpt><trkpt lat="43.98873737910319" lon="11.267107402004896"><ele>283.3333333333333</ele><time>2026-05-03T17:15:56Z</time></trkpt><trkpt lat="43.98873685212261" lon="11.266820626759898"><ele>283.0</ele><time>2026-05-03T17:15:57Z</time></trkpt><trkpt lat="43.98873088495845" lon="11.26651095553784"><ele>282.0</ele><time>2026-05-03T17:15:58Z</time></trkpt><trkpt lat="43.988730172542894" lon="11.266177894459078"><ele>281.0</ele><time>2026-05-03T17:15:59Z</time></trkpt><trkpt lat="43.988731717702144" lon="11.265831012807771"><ele>277.5</ele><time>2026-05-03T17:16:00Z</time></trkpt><trkpt lat="43.9887287328433" lon="11.265487405480204"><ele>274.0</ele><time>2026-05-03T17:16:01Z</time></trkpt><trkpt lat="43.988723876282805" lon="11.265174075233599"><ele>274.0</ele><time>2026-05-03T17:16:02Z</time></trkpt><trkpt lat="43.988718495680814" lon="11.264883717493792"><ele>274.0</ele><time>2026-05-03T17:16:03Z</time></trkpt><trkpt lat="43.98870497753932" lon="11.26460724427921"><ele>274.0</ele><time>2026-05-03T17:16:04Z</time></trkpt><trkpt lat="43.98868580049691" lon="11.26436935509888"><ele>271.5</ele><time>2026-05-03T17:16:05Z</time></trkpt><trkpt lat="43.98867182354836" lon="11.264148258245399"><ele>269.0</ele><time>2026-05-03T17:16:06Z</time></trkpt><trkpt lat="43.988656026492045" lon="11.263960883099436"><ele>266.5</ele><time>2026-05-03T17:16:07Z</time></trkpt><trkpt lat="43.98863447419139" lon="11.263755986008544"><ele>264.0</ele><time>2026-05-03T17:16:08Z</time></trkpt><trkpt lat="43.988610454906606" lon="11.263548419969084"><ele>259.75</ele><time>2026-05-03T17:16:09Z</time></trkpt><trkpt lat="43.988586837897245" lon="11.263353559367477"><ele>255.5</ele><time>2026-05-03T17:16:10Z</time></trkpt><trkpt lat="43.988565328475424" lon="11.263175216448001"><ele>251.25</ele><time>2026-05-03T17:16:11Z</time></trkpt><trkpt lat="43.9885417095025" lon="11.263006198239012"><ele>247.0</ele><time>2026-05-03T17:16:12Z</time></trkpt><trkpt lat="43.988513721701196" lon="11.262844321563744"><ele>246.5</ele><time>2026-05-03T17:16:13Z</time></trkpt><trkpt lat="43.98848237082211" lon="11.262672610072347"><ele>246.0</ele><time>2026-05-03T17:16:14Z</time></trkpt><trkpt lat="43.98844673209069" lon="11.262487244543905"><ele>245.5</ele><time>2026-05-03T17:16:15Z</time></trkpt><trkpt lat="43.988404423544466" lon="11.262284223538131"><ele>245.0</ele><time>2026-05-03T17:16:16Z</time></trkpt><trkpt lat="43.98835345297869" lon="11.262052683525463"><ele>248.33333333333334</ele><time>2026-05-03T17:16:17Z</time></trkpt><trkpt lat="43.98829221784066" lon="11.261787602033145"><ele>251.66666666666669</ele><time>2026-05-03T17:16:18Z</time></trkpt><trkpt lat="43.988226211394675" lon="11.261501741139215"><ele>255.0</ele><time>2026-05-03T17:16:19Z</time></trkpt><trkpt lat="43.98816474473233" lon="11.261219695930995"><ele>258.0</ele><time>2026-05-03T17:16:20Z</time></trkpt><trkpt lat="43.988106560481334" lon="11.260972909065542"><ele>261.0</ele><time>2026-05-03T17:16:21Z</time></trkpt><trkpt lat="43.98806168681272" lon="11.260787424360728"><ele>264.0</ele><time>2026-05-03T17:16:22Z</time></trkpt><trkpt lat="43.9880229642297" lon="11.26062259530012"><ele>264.75</ele><time>2026-05-03T17:16:23Z</time></trkpt><trkpt lat="43.98797884210474" lon="11.26043704188435"><ele>265.5</ele><time>2026-05-03T17:16:24Z</time></trkpt><trkpt lat="43.987929388273656" lon="11.260235903562174"><ele>266.25</ele><time>2026-05-03T17:16:25Z</time></trkpt><trkpt lat="43.9878815558781" lon="11.260035070190177"><ele>267.0</ele><time>2026-05-03T17:16:26Z</time></trkpt><trkpt lat="43.98783126274865" lon="11.259829131399377"><ele>269.5</ele><time>2026-05-03T17:16:27Z</time></trkpt><trkpt lat="43.98778135910504" lon="11.25962686841835"><ele>272.0</ele><time>2026-05-03T17:16:28Z</time></trkpt><trkpt lat="43.98773627788112" lon="11.25944832681735"><ele>274.5</ele><time>2026-05-03T17:16:29Z</time></trkpt><trkpt lat="43.98769596719589" lon="11.259280031192572"><ele>277.0</ele><time>2026-05-03T17:16:30Z</time></trkpt><trkpt lat="43.987661218547125" lon="11.259119109351381"><ele>277.0</ele><time>2026-05-03T17:16:31Z</time></trkpt><trkpt lat="43.987627310413856" lon="11.258956275280926"><ele>277.0</ele><time>2026-05-03T17:16:32Z</time></trkpt><trkpt lat="43.98759870518779" lon="11.258793895213616"><ele>277.0</ele><time>2026-05-03T17:16:33Z</time></trkpt><trkpt lat="43.98757560674948" lon="11.25864137964668"><ele>277.0</ele><time>2026-05-03T17:16:34Z</time></trkpt><trkpt lat="43.98755446942692" lon="11.258494202802122"><ele>279.5</ele><time>2026-05-03T17:16:35Z</time></trkpt><trkpt lat="43.98753588879359" lon="11.258338197982434"><ele>282.0</ele><time>2026-05-03T17:16:36Z</time></trkpt><trkpt lat="43.9875247624222" lon="11.258169854798519"><ele>284.5</ele><time>2026-05-03T17:16:37Z</time></trkpt><trkpt lat="43.987519172487204" lon="11.257997701928456"><ele>287.0</ele><time>2026-05-03T17:16:38Z</time></trkpt><trkpt lat="43.98752023106299" lon="11.257820485394543"><ele>288.75</ele><time>2026-05-03T17:16:39Z</time></trkpt><trkpt lat="43.98752582935765" lon="11.257642577912442"><ele>290.5</ele><time>2026-05-03T17:16:40Z</time></trkpt><trkpt lat="43.987536577987264" lon="11.257463379433995"><ele>292.25</ele><time>2026-05-03T17:16:41Z</time></trkpt><trkpt lat="43.98754943019133" lon="11.257287116274403"><ele>294.0</ele><time>2026-05-03T17:16:42Z</time></trkpt><trkpt lat="43.987570058264154" lon="11.2571145211267"><ele>294.25</ele><time>2026-05-03T17:16:43Z</time></trkpt><trkpt lat="43.9875992264393" lon="11.256941044260628"><ele>294.5</ele><time>2026-05-03T17:16:44Z</time></trkpt><trkpt lat="43.98763469767228" lon="11.25675729240874"><ele>294.75</ele><time>2026-05-03T17:16:45Z</time></trkpt><trkpt lat="43.987671355151605" lon="11.256564484165304"><ele>295.0</ele><time>2026-05-03T17:16:46Z</time></trkpt><trkpt lat="43.9877212412199" lon="11.25636386598487"><ele>293.66666666666663</ele><time>2026-05-03T17:16:47Z</time></trkpt><trkpt lat="43.987780552093945" lon="11.256164389104114"><ele>292.3333333333333</ele><time>2026-05-03T17:16:48Z</time></trkpt><trkpt lat="43.98784786383801" lon="11.255963893851208"><ele>291.0</ele><time>2026-05-03T17:16:49Z</time></trkpt><trkpt lat="43.98792201853736" lon="11.255770692633066"><ele>289.5</ele><time>2026-05-03T17:16:50Z</time></trkpt><trkpt lat="43.98800240724843" lon="11.255593226989022"><ele>288.0</ele><time>2026-05-03T17:16:51Z</time></trkpt><trkpt lat="43.98808646208214" lon="11.255424264048715"><ele>286.5</ele><time>2026-05-03T17:16:52Z</time></trkpt><trkpt lat="43.98817448358966" lon="11.255262715214"><ele>285.0</ele><time>2026-05-03T17:16:53Z</time></trkpt><trkpt lat="43.98826934406787" lon="11.255111072042611"><ele>285.6666666666667</ele><time>2026-05-03T17:16:54Z</time></trkpt><trkpt lat="43.98837162317242" lon="11.254962051518786"><ele>286.33333333333337</ele><time>2026-05-03T17:16:55Z</time></trkpt><trkpt lat="43.98848124762361" lon="11.254818479572348"><ele>287.0</ele><time>2026-05-03T17:16:56Z</time></trkpt><trkpt lat="43.98859692902414" lon="11.254663736663591"><ele>287.0</ele><time>2026-05-03T17:16:57Z</time></trkpt><trkpt lat="43.98872868479714" lon="11.254496576468155"><ele>287.0</ele><time>2026-05-03T17:16:58Z</time></trkpt><trkpt lat="43.988875561267" lon="11.2543244537004"><ele>287.0</ele><time>2026-05-03T17:16:59Z</time></trkpt><trkpt lat="43.98903678000566" lon="11.254142281734197"><ele>287.5</ele><time>2026-05-03T17:17:00Z</time></trkpt><trkpt lat="43.98920778183007" lon="11.253948426881832"><ele>288.0</ele><time>2026-05-03T17:17:01Z</time></trkpt><trkpt lat="43.98938406654304" lon="11.25373102595852"><ele>288.0</ele><time>2026-05-03T17:17:02Z</time></trkpt><trkpt lat="43.98956985584567" lon="11.253506215178264"><ele>288.0</ele><time>2026-05-03T17:17:03Z</time></trkpt><trkpt lat="43.98976713734638" lon="11.253282424916206"><ele>288.5</ele><time>2026-05-03T17:17:04Z</time></trkpt><trkpt lat="43.989963825175195" lon="11.253055981992738"><ele>289.0</ele><time>2026-05-03T17:17:05Z</time></trkpt><trkpt lat="43.99016125362238" lon="11.252816400359238"><ele>289.0</ele><time>2026-05-03T17:17:06Z</time></trkpt><trkpt lat="43.990369852318196" lon="11.252553855344058"><ele>289.0</ele><time>2026-05-03T17:17:07Z</time></trkpt><trkpt lat="43.990606720726674" lon="11.252302739634722"><ele>288.0</ele><time>2026-05-03T17:17:08Z</time></trkpt><trkpt lat="43.99083352926574" lon="11.252017916735719"><ele>287.0</ele><time>2026-05-03T17:17:09Z</time></trkpt><trkpt lat="43.99107910587481" lon="11.251737477252147"><ele>287.0</ele><time>2026-05-03T17:17:10Z</time></trkpt><trkpt lat="43.99131584717227" lon="11.251460309301832"><ele>287.0</ele><time>2026-05-03T17:17:11Z</time></trkpt><trkpt lat="43.99153906731736" lon="11.251200534244997"><ele>284.5</ele><time>2026-05-03T17:17:12Z</time></trkpt><trkpt lat="43.99174673808013" lon="11.250952790457605"><ele>282.0</ele><time>2026-05-03T17:17:13Z</time></trkpt><trkpt lat="43.99193508809973" lon="11.250707421428803"><ele>278.0</ele><time>2026-05-03T17:17:14Z</time></trkpt><trkpt lat="43.99211030808387" lon="11.250450414174606"><ele>274.0</ele><time>2026-05-03T17:17:15Z</time></trkpt><trkpt lat="43.99226539896322" lon="11.25017233895072"><ele>274.0</ele><time>2026-05-03T17:17:16Z</time></trkpt><trkpt lat="43.99240254706677" lon="11.249861739752594"><ele>274.0</ele><time>2026-05-03T17:17:17Z</time></trkpt><trkpt lat="43.992516232813976" lon="11.249523596139465"><ele>275.0</ele><time>2026-05-03T17:17:18Z</time></trkpt><trkpt lat="43.99260537955262" lon="11.249160798137298"><ele>276.0</ele><time>2026-05-03T17:17:19Z</time></trkpt><trkpt lat="43.99267597570445" lon="11.248787067549927"><ele>273.5</ele><time>2026-05-03T17:17:20Z</time></trkpt><trkpt lat="43.99271439529362" lon="11.248393870276127"><ele>271.0</ele><time>2026-05-03T17:17:21Z</time></trkpt><trkpt lat="43.992734727718094" lon="11.248001690424767"><ele>269.0</ele><time>2026-05-03T17:17:22Z</time></trkpt><trkpt lat="43.99272197862976" lon="11.247625115740572"><ele>267.0</ele><time>2026-05-03T17:17:23Z</time></trkpt><trkpt lat="43.99268194520198" lon="11.247266636569991"><ele>264.0</ele><time>2026-05-03T17:17:24Z</time></trkpt><trkpt lat="43.992613263612746" lon="11.24692052573702"><ele>261.0</ele><time>2026-05-03T17:17:25Z</time></trkpt><trkpt lat="43.992525214489376" lon="11.24658276094889"><ele>259.0</ele><time>2026-05-03T17:17:26Z</time></trkpt><trkpt lat="43.99241400146859" lon="11.246252642121828"><ele>257.0</ele><time>2026-05-03T17:17:27Z</time></trkpt><trkpt lat="43.992290198822786" lon="11.24593883963801"><ele>255.5</ele><time>2026-05-03T17:17:28Z</time></trkpt><trkpt lat="43.99215056744136" lon="11.245622081987477"><ele>254.0</ele><time>2026-05-03T17:17:29Z</time></trkpt><trkpt lat="43.99201024394984" lon="11.245305046259576"><ele>254.0</ele><time>2026-05-03T17:17:30Z</time></trkpt><trkpt lat="43.99186990532786" lon="11.24498332795522"><ele>254.0</ele><time>2026-05-03T17:17:31Z</time></trkpt><trkpt lat="43.99173005752582" lon="11.24466441404329"><ele>252.5</ele><time>2026-05-03T17:17:32Z</time></trkpt><trkpt lat="43.99159228745282" lon="11.244346914488084"><ele>251.0</ele><time>2026-05-03T17:17:33Z</time></trkpt><trkpt lat="43.99145203123802" lon="11.244025670070462"><ele>250.0</ele><time>2026-05-03T17:17:34Z</time></trkpt><trkpt lat="43.99131570785994" lon="11.243708937732228"><ele>249.0</ele><time>2026-05-03T17:17:35Z</time></trkpt><trkpt lat="43.99118151645376" lon="11.243397786528064"><ele>252.5</ele><time>2026-05-03T17:17:36Z</time></trkpt><trkpt lat="43.991049255266155" lon="11.243096128753617"><ele>256.0</ele><time>2026-05-03T17:17:37Z</time></trkpt><trkpt lat="43.990916746816374" lon="11.24278873782008"><ele>256.0</ele><time>2026-05-03T17:17:38Z</time></trkpt><trkpt lat="43.9907872459044" lon="11.242484746473433"><ele>256.0</ele><time>2026-05-03T17:17:39Z</time></trkpt><trkpt lat="43.99065550374728" lon="11.242179266278782"><ele>256.5</ele><time>2026-05-03T17:17:40Z</time></trkpt><trkpt lat="43.99052387182439" lon="11.24187554660456"><ele>257.0</ele><time>2026-05-03T17:17:41Z</time></trkpt><trkpt lat="43.990394183928004" lon="11.241577692807953"><ele>257.5</ele><time>2026-05-03T17:17:42Z</time></trkpt><trkpt lat="43.99026288503454" lon="11.241281683843404"><ele>258.0</ele><time>2026-05-03T17:17:43Z</time></trkpt><trkpt lat="43.990136590895645" lon="11.240989518884623"><ele>258.0</ele><time>2026-05-03T17:17:44Z</time></trkpt><trkpt lat="43.99001233145387" lon="11.240695801174375"><ele>258.0</ele><time>2026-05-03T17:17:45Z</time></trkpt><trkpt lat="43.98989113755169" lon="11.240406873899312"><ele>258.0</ele><time>2026-05-03T17:17:46Z</time></trkpt><trkpt lat="43.98976704263916" lon="11.240117348548067"><ele>258.0</ele><time>2026-05-03T17:17:47Z</time></trkpt><trkpt lat="43.98964034608753" lon="11.239823335854192"><ele>258.5</ele><time>2026-05-03T17:17:48Z</time></trkpt><trkpt lat="43.98951541427379" lon="11.239529489356418"><ele>259.0</ele><time>2026-05-03T17:17:49Z</time></trkpt><trkpt lat="43.98939321652942" lon="11.239235819232382"><ele>259.0</ele><time>2026-05-03T17:17:50Z</time></trkpt><trkpt lat="43.98927668767054" lon="11.23894483767115"><ele>259.0</ele><time>2026-05-03T17:17:51Z</time></trkpt><trkpt lat="43.98917249142013" lon="11.238656941333296"><ele>258.5</ele><time>2026-05-03T17:17:52Z</time></trkpt><trkpt lat="43.989083503266116" lon="11.238361342186584"><ele>258.0</ele><time>2026-05-03T17:17:53Z</time></trkpt><trkpt lat="43.989014936688825" lon="11.238063082401403"><ele>258.0</ele><time>2026-05-03T17:17:54Z</time></trkpt><trkpt lat="43.98896350770522" lon="11.237770115703135"><ele>258.0</ele><time>2026-05-03T17:17:55Z</time></trkpt><trkpt lat="43.98893437942088" lon="11.237471905224007"><ele>258.0</ele><time>2026-05-03T17:17:56Z</time></trkpt><trkpt lat="43.988924074609564" lon="11.237173922510143"><ele>258.3333333333333</ele><time>2026-05-03T17:17:57Z</time></trkpt><trkpt lat="43.9889385972502" lon="11.236870065259659"><ele>258.66666666666663</ele><time>2026-05-03T17:17:58Z</time></trkpt><trkpt lat="43.988967754168485" lon="11.236569932501485"><ele>259.0</ele><time>2026-05-03T17:17:59Z</time></trkpt><trkpt lat="43.989010385178695" lon="11.23627066178976"><ele>259.66666666666663</ele><time>2026-05-03T17:18:00Z</time></trkpt><trkpt lat="43.989067793079826" lon="11.235975827517661"><ele>260.3333333333333</ele><time>2026-05-03T17:18:01Z</time></trkpt><trkpt lat="43.98914030162452" lon="11.235693559608077"><ele>261.0</ele><time>2026-05-03T17:18:02Z</time></trkpt><trkpt lat="43.98922861802875" lon="11.23542133557413"><ele>261.0</ele><time>2026-05-03T17:18:03Z</time></trkpt><trkpt lat="43.989328632041975" lon="11.235148720803032"><ele>261.0</ele><time>2026-05-03T17:18:04Z</time></trkpt><trkpt lat="43.989436936996704" lon="11.234880304529563"><ele>261.0</ele><time>2026-05-03T17:18:05Z</time></trkpt><trkpt lat="43.989546497727396" lon="11.234611931962437"><ele>260.6666666666667</ele><time>2026-05-03T17:18:06Z</time></trkpt><trkpt lat="43.98965418201584" lon="11.234337904580427"><ele>260.33333333333337</ele><time>2026-05-03T17:18:07Z</time></trkpt><trkpt lat="43.98975958081968" lon="11.234063740607967"><ele>260.0</ele><time>2026-05-03T17:18:08Z</time></trkpt><trkpt lat="43.98986195165075" lon="11.233793409588126"><ele>259.6666666666667</ele><time>2026-05-03T17:18:09Z</time></trkpt><trkpt lat="43.98996153908602" lon="11.233531842757854"><ele>259.3333333333333</ele><time>2026-05-03T17:18:10Z</time></trkpt><trkpt lat="43.99006158288357" lon="11.233276315856537"><ele>259.0</ele><time>2026-05-03T17:18:11Z</time></trkpt><trkpt lat="43.990159754477155" lon="11.233020216535264"><ele>259.3333333333333</ele><time>2026-05-03T17:18:12Z</time></trkpt><trkpt lat="43.9902574964578" lon="11.232760757195333"><ele>259.6666666666667</ele><time>2026-05-03T17:18:13Z</time></trkpt><trkpt lat="43.99035314131717" lon="11.23249429395168"><ele>260.0</ele><time>2026-05-03T17:18:14Z</time></trkpt><trkpt lat="43.99043769162009" lon="11.232228687429574"><ele>260.0</ele><time>2026-05-03T17:18:15Z</time></trkpt><trkpt lat="43.99050070474381" lon="11.23194649947011"><ele>260.0</ele><time>2026-05-03T17:18:16Z</time></trkpt><trkpt lat="43.9905423978282" lon="11.23165330277467"><ele>260.0</ele><time>2026-05-03T17:18:17Z</time></trkpt><trkpt lat="43.99057304680036" lon="11.231351146188324"><ele>261.0</ele><time>2026-05-03T17:18:18Z</time></trkpt><trkpt lat="43.99058323665418" lon="11.231034065301452"><ele>262.0</ele><time>2026-05-03T17:18:19Z</time></trkpt><trkpt lat="43.99057860662529" lon="11.230719343219096"><ele>261.5</ele><time>2026-05-03T17:18:20Z</time></trkpt><trkpt lat="43.99055170123085" lon="11.230399054963168"><ele>261.0</ele><time>2026-05-03T17:18:21Z</time></trkpt><trkpt lat="43.99050146011852" lon="11.230078524708325"><ele>261.5</ele><time>2026-05-03T17:18:22Z</time></trkpt><trkpt lat="43.990433434451184" lon="11.229762245009137"><ele>262.0</ele><time>2026-05-03T17:18:23Z</time></trkpt><trkpt lat="43.99034478963222" lon="11.229450839630122"><ele>262.0</ele><time>2026-05-03T17:18:24Z</time></trkpt><trkpt lat="43.990236926565245" lon="11.229144792984355"><ele>262.0</ele><time>2026-05-03T17:18:25Z</time></trkpt><trkpt lat="43.990103830608085" lon="11.22885028167683"><ele>265.5</ele><time>2026-05-03T17:18:26Z</time></trkpt><trkpt lat="43.98995190812746" lon="11.22857218011218"><ele>269.0</ele><time>2026-05-03T17:18:27Z</time></trkpt><trkpt lat="43.98978029282864" lon="11.228317781958154"><ele>270.5</ele><time>2026-05-03T17:18:28Z</time></trkpt><trkpt lat="43.98958739411617" lon="11.228092121841353"><ele>272.0</ele><time>2026-05-03T17:18:29Z</time></trkpt><trkpt lat="43.989384698430314" lon="11.227891802249047"><ele>272.0</ele><time>2026-05-03T17:18:30Z</time></trkpt><trkpt lat="43.989176100726674" lon="11.227716422180333"><ele>272.0</ele><time>2026-05-03T17:18:31Z</time></trkpt><trkpt lat="43.988955596520995" lon="11.227564002501627"><ele>273.0</ele><time>2026-05-03T17:18:32Z</time></trkpt><trkpt lat="43.98872050632165" lon="11.227421093633923"><ele>274.0</ele><time>2026-05-03T17:18:33Z</time></trkpt><trkpt lat="43.98848227269313" lon="11.22728742684477"><ele>277.5</ele><time>2026-05-03T17:18:34Z</time></trkpt><trkpt lat="43.98824606125181" lon="11.22715101047397"><ele>281.0</ele><time>2026-05-03T17:18:35Z</time></trkpt><trkpt lat="43.98801882230534" lon="11.227014455403856"><ele>281.0</ele><time>2026-05-03T17:18:36Z</time></trkpt><trkpt lat="43.987810029660686" lon="11.226882549980415"><ele>281.0</ele><time>2026-05-03T17:18:37Z</time></trkpt><trkpt lat="43.98761943151636" lon="11.22674567496944"><ele>281.0</ele><time>2026-05-03T17:18:38Z</time></trkpt><trkpt lat="43.98744826758426" lon="11.226594953149974"><ele>282.6666666666667</ele><time>2026-05-03T17:18:39Z</time></trkpt><trkpt lat="43.98729376480977" lon="11.22642414018947"><ele>284.3333333333333</ele><time>2026-05-03T17:18:40Z</time></trkpt><trkpt lat="43.98714140784595" lon="11.226235763437554"><ele>286.0</ele><time>2026-05-03T17:18:41Z</time></trkpt><trkpt lat="43.98699769845274" lon="11.2260320296163"><ele>286.0</ele><time>2026-05-03T17:18:42Z</time></trkpt><trkpt lat="43.986858104012825" lon="11.225813882837128"><ele>286.0</ele><time>2026-05-03T17:18:43Z</time></trkpt><trkpt lat="43.986718901585895" lon="11.225586610684484"><ele>286.0</ele><time>2026-05-03T17:18:44Z</time></trkpt><trkpt lat="43.986589104602075" lon="11.225358813467034"><ele>285.66666666666663</ele><time>2026-05-03T17:18:45Z</time></trkpt><trkpt lat="43.986453769640576" lon="11.225147310668596"><ele>285.3333333333333</ele><time>2026-05-03T17:18:46Z</time></trkpt><trkpt lat="43.986325873126304" lon="11.224945759104962"><ele>285.0</ele><time>2026-05-03T17:18:47Z</time></trkpt><trkpt lat="43.9862030283998" lon="11.224746460618286"><ele>284.0</ele><time>2026-05-03T17:18:48Z</time></trkpt><trkpt lat="43.98608882743909" lon="11.224552527941281"><ele>283.0</ele><time>2026-05-03T17:18:49Z</time></trkpt><trkpt lat="43.98598208158347" lon="11.224359612487241"><ele>282.0</ele><time>2026-05-03T17:18:50Z</time></trkpt><trkpt lat="43.985888485514174" lon="11.224181617679312"><ele>281.75</ele><time>2026-05-03T17:18:51Z</time></trkpt><trkpt lat="43.9858055238584" lon="11.224015518161607"><ele>281.5</ele><time>2026-05-03T17:18:52Z</time></trkpt><trkpt lat="43.98572851007863" lon="11.223853452096296"><ele>281.25</ele><time>2026-05-03T17:18:53Z</time></trkpt><trkpt lat="43.98565020923028" lon="11.223692523764534"><ele>281.0</ele><time>2026-05-03T17:18:54Z</time></trkpt><trkpt lat="43.98557533550235" lon="11.223525310772047"><ele>279.75</ele><time>2026-05-03T17:18:55Z</time></trkpt><trkpt lat="43.98552020477783" lon="11.223356856170708"><ele>278.5</ele><time>2026-05-03T17:18:56Z</time></trkpt><trkpt lat="43.98550286059878" lon="11.223194881350533"><ele>277.25</ele><time>2026-05-03T17:18:57Z</time></trkpt><trkpt lat="43.98551428791407" lon="11.223024892850214"><ele>276.0</ele><time>2026-05-03T17:18:58Z</time></trkpt><trkpt lat="43.98555771921885" lon="11.222853566465377"><ele>275.6</ele><time>2026-05-03T17:18:59Z</time></trkpt><trkpt lat="43.98561362491907" lon="11.22269254346334"><ele>275.20000000000005</ele><time>2026-05-03T17:19:00Z</time></trkpt><trkpt lat="43.98567208812514" lon="11.22251802849258"><ele>274.79999999999995</ele><time>2026-05-03T17:19:01Z</time></trkpt><trkpt lat="43.9857078232612" lon="11.222420466794157"><ele>274.4</ele><time>2026-05-03T17:19:02Z</time></trkpt><trkpt lat="43.98574738467398" lon="11.22231538331682"><ele>274.0</ele><time>2026-05-03T17:19:03Z</time></trkpt><trkpt lat="43.985772983910344" lon="11.222202911031676"><ele>273.4</ele><time>2026-05-03T17:19:04Z</time></trkpt><trkpt lat="43.98575864298489" lon="11.22208111637368"><ele>272.79999999999995</ele><time>2026-05-03T17:19:05Z</time></trkpt><trkpt lat="43.98569661701734" lon="11.22198585408256"><ele>272.20000000000005</ele><time>2026-05-03T17:19:06Z</time></trkpt><trkpt lat="43.98564047618509" lon="11.221899694424131"><ele>271.6</ele><time>2026-05-03T17:19:07Z</time></trkpt><trkpt lat="43.9855035748031" lon="11.221939613698312"><ele>271.0</ele><time>2026-05-03T17:19:08Z</time></trkpt><trkpt lat="43.98543057084313" lon="11.22205854820594"><ele>271.0</ele><time>2026-05-03T17:19:09Z</time></trkpt><trkpt lat="43.985399006091946" lon="11.22217586097341"><ele>271.0</ele><time>2026-05-03T17:19:10Z</time></trkpt><trkpt lat="43.9853901258784" lon="11.222272998729887"><ele>271.0</ele><time>2026-05-03T17:19:11Z</time></trkpt><trkpt lat="43.98535687053943" lon="11.222424794137904"><ele>271.0</ele><time>2026-05-03T17:19:13Z</time></trkpt><trkpt lat="43.98531500292585" lon="11.222504093622328"><ele>271.0</ele><time>2026-05-03T17:19:14Z</time></trkpt><trkpt lat="43.98525986807028" lon="11.222573104191449"><ele>271.0</ele><time>2026-05-03T17:19:15Z</time></trkpt><trkpt lat="43.98517331575427" lon="11.222667338914404"><ele>271.2</ele><time>2026-05-03T17:19:17Z</time></trkpt><trkpt lat="43.9850816529524" lon="11.222787819402607"><ele>271.40000000000003</ele><time>2026-05-03T17:19:19Z</time></trkpt><trkpt lat="43.98503187262804" lon="11.222851651053473"><ele>271.6</ele><time>2026-05-03T17:19:20Z</time></trkpt><trkpt lat="43.98497927031398" lon="11.222917177304915"><ele>271.8</ele><time>2026-05-03T17:19:21Z</time></trkpt><trkpt lat="43.98488919828283" lon="11.223028656872538"><ele>272.0</ele><time>2026-05-03T17:19:23Z</time></trkpt><trkpt lat="43.98481312916674" lon="11.223144527963948"><ele>272.0</ele><time>2026-05-03T17:19:25Z</time></trkpt><trkpt lat="43.984737927724396" lon="11.223163931307987"><ele>272.0</ele><time>2026-05-03T17:19:26Z</time></trkpt><trkpt lat="43.98467094854162" lon="11.223196693402159"><ele>272.0</ele><time>2026-05-03T17:19:27Z</time></trkpt><trkpt lat="43.98459887267042" lon="11.223204640708435"><ele>272.0</ele><time>2026-05-03T17:19:28Z</time></trkpt><trkpt lat="43.98452703501423" lon="11.223200800109545"><ele>272.0</ele><time>2026-05-03T17:19:29Z</time></trkpt><trkpt lat="43.98445365531772" lon="11.223176250989583"><ele>272.0</ele><time>2026-05-03T17:19:30Z</time></trkpt><trkpt lat="43.98437582693434" lon="11.223133865515475"><ele>272.0</ele><time>2026-05-03T17:19:31Z</time></trkpt><trkpt lat="43.984287845094265" lon="11.223089385114557"><ele>272.0</ele><time>2026-05-03T17:19:32Z</time></trkpt><trkpt lat="43.98417098262087" lon="11.22305265284952"><ele>272.0</ele><time>2026-05-03T17:19:33Z</time></trkpt><trkpt lat="43.98404097812694" lon="11.223013320112369"><ele>272.0</ele><time>2026-05-03T17:19:34Z</time></trkpt><trkpt lat="43.98391699807275" lon="11.223001135207017"><ele>271.75</ele><time>2026-05-03T17:19:35Z</time></trkpt><trkpt lat="43.983783699932815" lon="11.22300057691602"><ele>271.5</ele><time>2026-05-03T17:19:36Z</time></trkpt><trkpt lat="43.98364859821226" lon="11.223018980277406"><ele>271.25</ele><time>2026-05-03T17:19:37Z</time></trkpt><trkpt lat="43.98350578227707" lon="11.223024042488001"><ele>271.0</ele><time>2026-05-03T17:19:38Z</time></trkpt><trkpt lat="43.98335706001472" lon="11.22304913688072"><ele>271.3333333333333</ele><time>2026-05-03T17:19:39Z</time></trkpt><trkpt lat="43.983202685917945" lon="11.223094432347965"><ele>271.6666666666667</ele><time>2026-05-03T17:19:40Z</time></trkpt><trkpt lat="43.98304405995724" lon="11.22316136457204"><ele>272.0</ele><time>2026-05-03T17:19:41Z</time></trkpt><trkpt lat="43.98288572305511" lon="11.22324071261274"><ele>272.0</ele><time>2026-05-03T17:19:42Z</time></trkpt><trkpt lat="43.98272733253585" lon="11.22333098765033"><ele>272.0</ele><time>2026-05-03T17:19:43Z</time></trkpt><trkpt lat="43.98255768075293" lon="11.223437095749464"><ele>272.0</ele><time>2026-05-03T17:19:44Z</time></trkpt><trkpt lat="43.982386556582156" lon="11.223555850936252"><ele>272.6666666666667</ele><time>2026-05-03T17:19:45Z</time></trkpt><trkpt lat="43.9822237794475" lon="11.223662923227034"><ele>273.3333333333333</ele><time>2026-05-03T17:19:46Z</time></trkpt><trkpt lat="43.98207075088105" lon="11.223765483697255"><ele>274.0</ele><time>2026-05-03T17:19:47Z</time></trkpt><trkpt lat="43.981931164774224" lon="11.22386081408411"><ele>274.0</ele><time>2026-05-03T17:19:48Z</time></trkpt><trkpt lat="43.98179134324385" lon="11.2239490246897"><ele>274.0</ele><time>2026-05-03T17:19:49Z</time></trkpt><trkpt lat="43.98166311767684" lon="11.224013638697171"><ele>274.0</ele><time>2026-05-03T17:19:50Z</time></trkpt><trkpt lat="43.98154974684606" lon="11.22404950673954"><ele>274.0</ele><time>2026-05-03T17:19:51Z</time></trkpt><trkpt lat="43.98144586555362" lon="11.224062252145774"><ele>272.8333333333333</ele><time>2026-05-03T17:19:52Z</time></trkpt><trkpt lat="43.98135985774415" lon="11.224036768439095"><ele>271.66666666666663</ele><time>2026-05-03T17:19:53Z</time></trkpt><trkpt lat="43.98129128549474" lon="11.224123893893566"><ele>270.5</ele><time>2026-05-03T17:19:54Z</time></trkpt><trkpt lat="43.98123826823433" lon="11.224191469685175"><ele>269.3333333333333</ele><time>2026-05-03T17:19:55Z</time></trkpt><trkpt lat="43.98118391797233" lon="11.224288476128594"><ele>268.1666666666667</ele><time>2026-05-03T17:19:56Z</time></trkpt><trkpt lat="43.98114214624475" lon="11.224412833832401"><ele>267.0</ele><time>2026-05-03T17:19:57Z</time></trkpt><trkpt lat="43.98111227677964" lon="11.224568773666972"><ele>267.0</ele><time>2026-05-03T17:19:58Z</time></trkpt><trkpt lat="43.98108743213711" lon="11.224767234110267"><ele>267.0</ele><time>2026-05-03T17:19:59Z</time></trkpt><trkpt lat="43.98103982855499" lon="11.224991402791836"><ele>267.0</ele><time>2026-05-03T17:20:00Z</time></trkpt><trkpt lat="43.98097661631226" lon="11.225211126206435"><ele>267.5</ele><time>2026-05-03T17:20:01Z</time></trkpt><trkpt lat="43.980918629474935" lon="11.225401100861998"><ele>268.0</ele><time>2026-05-03T17:20:02Z</time></trkpt><trkpt lat="43.980866129142235" lon="11.225565573748721"><ele>268.5</ele><time>2026-05-03T17:20:03Z</time></trkpt><trkpt lat="43.98080443345438" lon="11.225705928783734"><ele>269.0</ele><time>2026-05-03T17:20:04Z</time></trkpt><trkpt lat="43.9807218479898" lon="11.22581816560342"><ele>267.5</ele><time>2026-05-03T17:20:05Z</time></trkpt><trkpt lat="43.98063324690788" lon="11.225894085856593"><ele>266.0</ele><time>2026-05-03T17:20:06Z</time></trkpt><trkpt lat="43.98057228057212" lon="11.225921601684979"><ele>264.5</ele><time>2026-05-03T17:20:07Z</time></trkpt><trkpt lat="43.98050091247395" lon="11.22593844185966"><ele>263.0</ele><time>2026-05-03T17:20:09Z</time></trkpt><trkpt lat="43.98038634972201" lon="11.225979400766818"><ele>261.5</ele><time>2026-05-03T17:20:12Z</time></trkpt><trkpt lat="43.98029777595337" lon="11.22597516170962"><ele>260.0</ele><time>2026-05-03T17:20:13Z</time></trkpt><trkpt lat="43.98020122952231" lon="11.225958102583977"><ele>260.0</ele><time>2026-05-03T17:20:14Z</time></trkpt><trkpt lat="43.980089464418874" lon="11.225921894207577"><ele>260.0</ele><time>2026-05-03T17:20:15Z</time></trkpt><trkpt lat="43.97996740188371" lon="11.225863412884117"><ele>260.0</ele><time>2026-05-03T17:20:16Z</time></trkpt><trkpt lat="43.97983593002494" lon="11.225778656528252"><ele>260.0</ele><time>2026-05-03T17:20:17Z</time></trkpt><trkpt lat="43.97969467099918" lon="11.225685986058943"><ele>260.0</ele><time>2026-05-03T17:20:18Z</time></trkpt><trkpt lat="43.97954850106482" lon="11.225601494027224"><ele>260.0</ele><time>2026-05-03T17:20:19Z</time></trkpt><trkpt lat="43.97940939847787" lon="11.225525119587846"><ele>260.0</ele><time>2026-05-03T17:20:20Z</time></trkpt><trkpt lat="43.97927645296319" lon="11.2254471308605"><ele>260.5</ele><time>2026-05-03T17:20:21Z</time></trkpt><trkpt lat="43.979150890697696" lon="11.22537222128122"><ele>261.0</ele><time>2026-05-03T17:20:22Z</time></trkpt><trkpt lat="43.979016735819734" lon="11.22529688038044"><ele>261.5</ele><time>2026-05-03T17:20:23Z</time></trkpt><trkpt lat="43.97888271533572" lon="11.22522753784355"><ele>262.0</ele><time>2026-05-03T17:20:24Z</time></trkpt><trkpt lat="43.97874965080001" lon="11.225166109310464"><ele>262.0</ele><time>2026-05-03T17:20:25Z</time></trkpt><trkpt lat="43.97861716906771" lon="11.225107453461362"><ele>262.0</ele><time>2026-05-03T17:20:26Z</time></trkpt><trkpt lat="43.978485085817105" lon="11.225048000685174"><ele>262.0</ele><time>2026-05-03T17:20:27Z</time></trkpt><trkpt lat="43.97835105003966" lon="11.22498798370497"><ele>262.0</ele><time>2026-05-03T17:20:28Z</time></trkpt><trkpt lat="43.97821727529439" lon="11.224926440788401"><ele>263.0</ele><time>2026-05-03T17:20:29Z</time></trkpt><trkpt lat="43.97807966290974" lon="11.224864733105163"><ele>264.0</ele><time>2026-05-03T17:20:30Z</time></trkpt><trkpt lat="43.97793736219392" lon="11.224802022286893"><ele>265.0</ele><time>2026-05-03T17:20:31Z</time></trkpt><trkpt lat="43.97779005789026" lon="11.224735364802852"><ele>266.0</ele><time>2026-05-03T17:20:32Z</time></trkpt><trkpt lat="43.97763649771942" lon="11.224667291036697"><ele>270.33333333333337</ele><time>2026-05-03T17:20:33Z</time></trkpt><trkpt lat="43.97748060599625" lon="11.224598773598753"><ele>274.6666666666667</ele><time>2026-05-03T17:20:34Z</time></trkpt><trkpt lat="43.977329415783146" lon="11.224530625396564"><ele>279.0</ele><time>2026-05-03T17:20:35Z</time></trkpt><trkpt lat="43.97717745316349" lon="11.224470017263158"><ele>279.0</ele><time>2026-05-03T17:20:36Z</time></trkpt><trkpt lat="43.9770273465995" lon="11.224407203383201"><ele>279.0</ele><time>2026-05-03T17:20:37Z</time></trkpt><trkpt lat="43.976878830333284" lon="11.2243413343674"><ele>279.0</ele><time>2026-05-03T17:20:38Z</time></trkpt><trkpt lat="43.97673352690131" lon="11.22427432842163"><ele>279.0</ele><time>2026-05-03T17:20:39Z</time></trkpt><trkpt lat="43.97659340443426" lon="11.22421252355843"><ele>279.0</ele><time>2026-05-03T17:20:40Z</time></trkpt><trkpt lat="43.97645361905149" lon="11.224150117528279"><ele>279.0</ele><time>2026-05-03T17:20:41Z</time></trkpt><trkpt lat="43.976329414496476" lon="11.22407254190284"><ele>279.0</ele><time>2026-05-03T17:20:42Z</time></trkpt><trkpt lat="43.976221859251304" lon="11.223971627523637"><ele>282.0</ele><time>2026-05-03T17:20:43Z</time></trkpt><trkpt lat="43.97613970315231" lon="11.223832938795102"><ele>285.0</ele><time>2026-05-03T17:20:44Z</time></trkpt><trkpt lat="43.976090982472826" lon="11.22365748664999"><ele>288.0</ele><time>2026-05-03T17:20:45Z</time></trkpt><trkpt lat="43.97607961707331" lon="11.223468356403743"><ele>291.0</ele><time>2026-05-03T17:20:46Z</time></trkpt><trkpt lat="43.97608843391777" lon="11.223260903341636"><ele>292.6666666666667</ele><time>2026-05-03T17:20:47Z</time></trkpt><trkpt lat="43.97609729960974" lon="11.22302951869104"><ele>294.33333333333337</ele><time>2026-05-03T17:20:48Z</time></trkpt><trkpt lat="43.97612573854161" lon="11.222769766601601"><ele>296.0</ele><time>2026-05-03T17:20:49Z</time></trkpt><trkpt lat="43.9761425704246" lon="11.222465620494663"><ele>296.0</ele><time>2026-05-03T17:20:50Z</time></trkpt><trkpt lat="43.97615956273337" lon="11.222130881440247"><ele>296.0</ele><time>2026-05-03T17:20:51Z</time></trkpt><trkpt lat="43.97616567428861" lon="11.221812469375937"><ele>296.0</ele><time>2026-05-03T17:20:52Z</time></trkpt><trkpt lat="43.97618797721862" lon="11.221556199738787"><ele>296.0</ele><time>2026-05-03T17:20:53Z</time></trkpt><trkpt lat="43.97619612626742" lon="11.22135066959057"><ele>296.0</ele><time>2026-05-03T17:20:54Z</time></trkpt><trkpt lat="43.976198177340294" lon="11.221134164275602"><ele>296.25</ele><time>2026-05-03T17:20:55Z</time></trkpt><trkpt lat="43.9761832317774" lon="11.220953612412005"><ele>296.5</ele><time>2026-05-03T17:20:56Z</time></trkpt><trkpt lat="43.97613211629437" lon="11.220789264945997"><ele>296.75</ele><time>2026-05-03T17:20:57Z</time></trkpt><trkpt lat="43.97604783321425" lon="11.220602533961879"><ele>297.0</ele><time>2026-05-03T17:20:58Z</time></trkpt><trkpt lat="43.97594141463198" lon="11.22035762872717"><ele>292.0</ele><time>2026-05-03T17:20:59Z</time></trkpt><trkpt lat="43.97580962687309" lon="11.220098446927398"><ele>287.0</ele><time>2026-05-03T17:21:00Z</time></trkpt><trkpt lat="43.975651664418706" lon="11.219827379690427"><ele>292.5</ele><time>2026-05-03T17:21:01Z</time></trkpt><trkpt lat="43.97550360982039" lon="11.219529995770563"><ele>298.0</ele><time>2026-05-03T17:21:02Z</time></trkpt><trkpt lat="43.975378605460186" lon="11.219271777500747"><ele>298.0</ele><time>2026-05-03T17:21:03Z</time></trkpt><trkpt lat="43.975264144031684" lon="11.219052526021155"><ele>298.0</ele><time>2026-05-03T17:21:04Z</time></trkpt><trkpt lat="43.97514260026061" lon="11.218869360461063"><ele>298.0</ele><time>2026-05-03T17:21:05Z</time></trkpt><trkpt lat="43.97500130869919" lon="11.218717501884413"><ele>299.0</ele><time>2026-05-03T17:21:06Z</time></trkpt><trkpt lat="43.974832038624875" lon="11.21858228818573"><ele>300.0</ele><time>2026-05-03T17:21:07Z</time></trkpt><trkpt lat="43.97464011697897" lon="11.21841762862884"><ele>301.0</ele><time>2026-05-03T17:21:08Z</time></trkpt><trkpt lat="43.97440660251974" lon="11.218319275377056"><ele>301.0</ele><time>2026-05-03T17:21:09Z</time></trkpt><trkpt lat="43.974210993456836" lon="11.218195020531242"><ele>301.0</ele><time>2026-05-03T17:21:10Z</time></trkpt><trkpt lat="43.97405381619071" lon="11.218044480614745"><ele>301.0</ele><time>2026-05-03T17:21:11Z</time></trkpt><trkpt lat="43.97388439315888" lon="11.21786506160304"><ele>305.0</ele><time>2026-05-03T17:21:12Z</time></trkpt><trkpt lat="43.97368601671399" lon="11.217666880344833"><ele>309.0</ele><time>2026-05-03T17:21:13Z</time></trkpt><trkpt lat="43.97346955754067" lon="11.217438055425065"><ele>308.0</ele><time>2026-05-03T17:21:14Z</time></trkpt><trkpt lat="43.97322998222458" lon="11.217223794228081"><ele>307.0</ele><time>2026-05-03T17:21:15Z</time></trkpt><trkpt lat="43.972972988634055" lon="11.217038940146397"><ele>307.0</ele><time>2026-05-03T17:21:16Z</time></trkpt><trkpt lat="43.97276974793412" lon="11.216891782842573"><ele>307.0</ele><time>2026-05-03T17:21:17Z</time></trkpt><trkpt lat="43.97260233930444" lon="11.216787063097781"><ele>307.0</ele><time>2026-05-03T17:21:18Z</time></trkpt><trkpt lat="43.97243757530615" lon="11.2167427310271"><ele>307.0</ele><time>2026-05-03T17:21:19Z</time></trkpt><trkpt lat="43.972251877142504" lon="11.216746069121822"><ele>307.0</ele><time>2026-05-03T17:21:20Z</time></trkpt><trkpt lat="43.97206107883521" lon="11.216790478322604"><ele>307.0</ele><time>2026-05-03T17:21:21Z</time></trkpt><trkpt lat="43.97187706062411" lon="11.216837463863973"><ele>307.0</ele><time>2026-05-03T17:21:22Z</time></trkpt><trkpt lat="43.971698765100186" lon="11.216878624523707"><ele>307.0</ele><time>2026-05-03T17:21:23Z</time></trkpt><trkpt lat="43.971509596336475" lon="11.216907971018495"><ele>307.0</ele><time>2026-05-03T17:21:24Z</time></trkpt><trkpt lat="43.971318416745014" lon="11.216920410864624"><ele>310.0</ele><time>2026-05-03T17:21:25Z</time></trkpt><trkpt lat="43.97114169088366" lon="11.216857590906292"><ele>313.0</ele><time>2026-05-03T17:21:26Z</time></trkpt><trkpt lat="43.97098116416148" lon="11.216847292262596"><ele>316.0</ele><time>2026-05-03T17:21:27Z</time></trkpt><trkpt lat="43.97083527099065" lon="11.216870088467571"><ele>318.0</ele><time>2026-05-03T17:21:28Z</time></trkpt><trkpt lat="43.97069459766531" lon="11.216956689069745"><ele>320.0</ele><time>2026-05-03T17:21:29Z</time></trkpt><trkpt lat="43.97056388662449" lon="11.217080264411459"><ele>322.0</ele><time>2026-05-03T17:21:30Z</time></trkpt><trkpt lat="43.970447921007754" lon="11.217184086742945"><ele>322.0</ele><time>2026-05-03T17:21:31Z</time></trkpt><trkpt lat="43.970295523346884" lon="11.217250432308422"><ele>322.0</ele><time>2026-05-03T17:21:32Z</time></trkpt><trkpt lat="43.97014645609798" lon="11.21725534689283"><ele>322.0</ele><time>2026-05-03T17:21:33Z</time></trkpt><trkpt lat="43.96997471019392" lon="11.217235398450612"><ele>322.3333333333333</ele><time>2026-05-03T17:21:34Z</time></trkpt><trkpt lat="43.96976791060695" lon="11.217190356213836"><ele>322.6666666666667</ele><time>2026-05-03T17:21:35Z</time></trkpt><trkpt lat="43.96953460144531" lon="11.217137871062395"><ele>323.0</ele><time>2026-05-03T17:21:36Z</time></trkpt><trkpt lat="43.969308714294854" lon="11.217100675761982"><ele>321.25</ele><time>2026-05-03T17:21:37Z</time></trkpt><trkpt lat="43.969136026124445" lon="11.217055135048712"><ele>319.5</ele><time>2026-05-03T17:21:38Z</time></trkpt><trkpt lat="43.968993910612" lon="11.217026914610072"><ele>317.75</ele><time>2026-05-03T17:21:39Z</time></trkpt><trkpt lat="43.96887832877626" lon="11.216988804752026"><ele>316.0</ele><time>2026-05-03T17:21:40Z</time></trkpt><trkpt lat="43.96876461898341" lon="11.216964155953436"><ele>316.0</ele><time>2026-05-03T17:21:41Z</time></trkpt><trkpt lat="43.96863574956293" lon="11.217032085704417"><ele>316.0</ele><time>2026-05-03T17:21:42Z</time></trkpt><trkpt lat="43.96851110571043" lon="11.217044989135553"><ele>316.0</ele><time>2026-05-03T17:21:43Z</time></trkpt><trkpt lat="43.96838239302803" lon="11.217067996130316"><ele>316.0</ele><time>2026-05-03T17:21:44Z</time></trkpt><trkpt lat="43.96826172517723" lon="11.217096118498391"><ele>313.5</ele><time>2026-05-03T17:21:45Z</time></trkpt><trkpt lat="43.968146182543265" lon="11.21712003318635"><ele>311.0</ele><time>2026-05-03T17:21:46Z</time></trkpt><trkpt lat="43.96803616930538" lon="11.217123667618617"><ele>308.5</ele><time>2026-05-03T17:21:47Z</time></trkpt><trkpt lat="43.96792413782807" lon="11.21710159080752"><ele>306.0</ele><time>2026-05-03T17:21:48Z</time></trkpt><trkpt lat="43.96780988319899" lon="11.21704476798748"><ele>306.0</ele><time>2026-05-03T17:21:49Z</time></trkpt><trkpt lat="43.96768878389977" lon="11.216955662140801"><ele>306.0</ele><time>2026-05-03T17:21:50Z</time></trkpt><trkpt lat="43.96756172219355" lon="11.216847481640322"><ele>306.0</ele><time>2026-05-03T17:21:51Z</time></trkpt><trkpt lat="43.967434900834704" lon="11.216740253552453"><ele>306.0</ele><time>2026-05-03T17:21:52Z</time></trkpt><trkpt lat="43.96730623029494" lon="11.216645520585095"><ele>304.0</ele><time>2026-05-03T17:21:53Z</time></trkpt><trkpt lat="43.96717842200444" lon="11.216575001643337"><ele>302.0</ele><time>2026-05-03T17:21:54Z</time></trkpt><trkpt lat="43.96704959622056" lon="11.216527358069543"><ele>300.0</ele><time>2026-05-03T17:21:55Z</time></trkpt><trkpt lat="43.96691499237803" lon="11.216510528038945"><ele>298.0</ele><time>2026-05-03T17:21:56Z</time></trkpt><trkpt lat="43.966776545765256" lon="11.216509755138537"><ele>297.0</ele><time>2026-05-03T17:21:57Z</time></trkpt><trkpt lat="43.96662922553489" lon="11.21653892193143"><ele>296.0</ele><time>2026-05-03T17:21:58Z</time></trkpt><trkpt lat="43.966468549781325" lon="11.216590985379167"><ele>295.0</ele><time>2026-05-03T17:21:59Z</time></trkpt><trkpt lat="43.96628813519001" lon="11.216652989598149"><ele>295.0</ele><time>2026-05-03T17:22:00Z</time></trkpt><trkpt lat="43.96608621412421" lon="11.216702112322894"><ele>295.0</ele><time>2026-05-03T17:22:01Z</time></trkpt><trkpt lat="43.96587286991118" lon="11.21673172569662"><ele>295.0</ele><time>2026-05-03T17:22:02Z</time></trkpt><trkpt lat="43.96565422650432" lon="11.21673634754034"><ele>295.0</ele><time>2026-05-03T17:22:03Z</time></trkpt><trkpt lat="43.965410516109934" lon="11.21672861450877"><ele>295.0</ele><time>2026-05-03T17:22:04Z</time></trkpt><trkpt lat="43.96516793211874" lon="11.21668845522658"><ele>296.3333333333333</ele><time>2026-05-03T17:22:05Z</time></trkpt><trkpt lat="43.964964899408855" lon="11.216608051634894"><ele>297.6666666666667</ele><time>2026-05-03T17:22:06Z</time></trkpt><trkpt lat="43.964776517249454" lon="11.216531182178258"><ele>299.0</ele><time>2026-05-03T17:22:07Z</time></trkpt><trkpt lat="43.964613181437954" lon="11.216476889899461"><ele>300.33333333333337</ele><time>2026-05-03T17:22:08Z</time></trkpt><trkpt lat="43.96445485669241" lon="11.21645042978499"><ele>301.6666666666667</ele><time>2026-05-03T17:22:09Z</time></trkpt><trkpt lat="43.96430349794879" lon="11.216450253577074"><ele>303.0</ele><time>2026-05-03T17:22:10Z</time></trkpt><trkpt lat="43.96413284858868" lon="11.216488252330418"><ele>303.0</ele><time>2026-05-03T17:22:11Z</time></trkpt><trkpt lat="43.96392968497498" lon="11.216550404825961"><ele>303.0</ele><time>2026-05-03T17:22:12Z</time></trkpt><trkpt lat="43.9637156044904" lon="11.21661630840258"><ele>303.0</ele><time>2026-05-03T17:22:13Z</time></trkpt><trkpt lat="43.96352592633535" lon="11.216658464750939"><ele>302.6666666666667</ele><time>2026-05-03T17:22:14Z</time></trkpt><trkpt lat="43.96335515099563" lon="11.216650368345071"><ele>302.33333333333337</ele><time>2026-05-03T17:22:15Z</time></trkpt><trkpt lat="43.96318537690681" lon="11.216582421104182"><ele>302.0</ele><time>2026-05-03T17:22:16Z</time></trkpt><trkpt lat="43.963006567295615" lon="11.216457347606319"><ele>308.0</ele><time>2026-05-03T17:22:17Z</time></trkpt><trkpt lat="43.96282003136508" lon="11.216307923175432"><ele>314.0</ele><time>2026-05-03T17:22:18Z</time></trkpt><trkpt lat="43.962615606854726" lon="11.216142102609023"><ele>310.0</ele><time>2026-05-03T17:22:19Z</time></trkpt><trkpt lat="43.962403615080895" lon="11.21597836342552"><ele>306.0</ele><time>2026-05-03T17:22:20Z</time></trkpt><trkpt lat="43.96219957565096" lon="11.21582166483714"><ele>306.0</ele><time>2026-05-03T17:22:21Z</time></trkpt><trkpt lat="43.962014381171116" lon="11.21568021117166"><ele>306.0</ele><time>2026-05-03T17:22:22Z</time></trkpt><trkpt lat="43.96186718315773" lon="11.215573302610474"><ele>306.0</ele><time>2026-05-03T17:22:23Z</time></trkpt><trkpt lat="43.96175045308278" lon="11.215493725323357"><ele>306.0</ele><time>2026-05-03T17:22:24Z</time></trkpt><trkpt lat="43.961609500900856" lon="11.215390392384194"><ele>306.0</ele><time>2026-05-03T17:22:25Z</time></trkpt><trkpt lat="43.96143504597955" lon="11.215282038175967"><ele>306.0</ele><time>2026-05-03T17:22:26Z</time></trkpt><trkpt lat="43.961268566536425" lon="11.215157008947589"><ele>306.0</ele><time>2026-05-03T17:22:27Z</time></trkpt><trkpt lat="43.96110960116487" lon="11.21504159330047"><ele>306.0</ele><time>2026-05-03T17:22:28Z</time></trkpt><trkpt lat="43.96096032629049" lon="11.214926772201395"><ele>306.0</ele><time>2026-05-03T17:22:29Z</time></trkpt><trkpt lat="43.96082296813294" lon="11.214818668186581"><ele>306.25</ele><time>2026-05-03T17:22:30Z</time></trkpt><trkpt lat="43.96069088689916" lon="11.214718196622652"><ele>306.5</ele><time>2026-05-03T17:22:31Z</time></trkpt><trkpt lat="43.96056832708424" lon="11.214629765593044"><ele>306.75</ele><time>2026-05-03T17:22:32Z</time></trkpt><trkpt lat="43.960446875947554" lon="11.214546805428458"><ele>307.0</ele><time>2026-05-03T17:22:33Z</time></trkpt><trkpt lat="43.96031482826521" lon="11.214481623723588"><ele>307.0</ele><time>2026-05-03T17:22:34Z</time></trkpt><trkpt lat="43.960163981737814" lon="11.214439889760984"><ele>307.0</ele><time>2026-05-03T17:22:35Z</time></trkpt><trkpt lat="43.96000660268816" lon="11.214428446068911"><ele>307.0</ele><time>2026-05-03T17:22:36Z</time></trkpt><trkpt lat="43.959846602294355" lon="11.214446229034293"><ele>308.3333333333333</ele><time>2026-05-03T17:22:37Z</time></trkpt><trkpt lat="43.95968453865668" lon="11.214461518655492"><ele>309.6666666666667</ele><time>2026-05-03T17:22:38Z</time></trkpt><trkpt lat="43.95952144930603" lon="11.214462923049375"><ele>311.0</ele><time>2026-05-03T17:22:39Z</time></trkpt><trkpt lat="43.95935887403411" lon="11.214451388157128"><ele>311.0</ele><time>2026-05-03T17:22:40Z</time></trkpt><trkpt lat="43.95920273129975" lon="11.214415283710673"><ele>311.0</ele><time>2026-05-03T17:22:41Z</time></trkpt><trkpt lat="43.95904993907438" lon="11.214368861852044"><ele>311.0</ele><time>2026-05-03T17:22:42Z</time></trkpt><trkpt lat="43.95890231069468" lon="11.214295605436762"><ele>311.0</ele><time>2026-05-03T17:22:43Z</time></trkpt><trkpt lat="43.95875557413182" lon="11.214193925820412"><ele>311.0</ele><time>2026-05-03T17:22:44Z</time></trkpt><trkpt lat="43.95860969950692" lon="11.214066286800925"><ele>311.0</ele><time>2026-05-03T17:22:45Z</time></trkpt><trkpt lat="43.95846119619345" lon="11.213934122619532"><ele>314.0</ele><time>2026-05-03T17:22:46Z</time></trkpt><trkpt lat="43.95829911796926" lon="11.213808468156982"><ele>317.0</ele><time>2026-05-03T17:22:47Z</time></trkpt><trkpt lat="43.958149275066354" lon="11.213657111473248"><ele>320.0</ele><time>2026-05-03T17:22:48Z</time></trkpt><trkpt lat="43.95800724391712" lon="11.213534708511363"><ele>320.0</ele><time>2026-05-03T17:22:49Z</time></trkpt><trkpt lat="43.95787878775568" lon="11.213443893682088"><ele>320.0</ele><time>2026-05-03T17:22:50Z</time></trkpt><trkpt lat="43.95775492774322" lon="11.21339843190556"><ele>320.0</ele><time>2026-05-03T17:22:51Z</time></trkpt><trkpt lat="43.95762030925599" lon="11.213339896300264"><ele>320.0</ele><time>2026-05-03T17:22:52Z</time></trkpt><trkpt lat="43.95745682704616" lon="11.213318535510014"><ele>324.6666666666667</ele><time>2026-05-03T17:22:53Z</time></trkpt><trkpt lat="43.957265687655614" lon="11.213331430582828"><ele>329.3333333333333</ele><time>2026-05-03T17:22:54Z</time></trkpt><trkpt lat="43.95705749725268" lon="11.213357853294287"><ele>334.0</ele><time>2026-05-03T17:22:55Z</time></trkpt><trkpt lat="43.95683455533782" lon="11.213366688494387"><ele>340.0</ele><time>2026-05-03T17:22:56Z</time></trkpt><trkpt lat="43.95659284708521" lon="11.213347675956435"><ele>346.0</ele><time>2026-05-03T17:22:57Z</time></trkpt><trkpt lat="43.95633901614593" lon="11.21330630479169"><ele>346.0</ele><time>2026-05-03T17:22:58Z</time></trkpt><trkpt lat="43.956085756615536" lon="11.213269794970254"><ele>346.0</ele><time>2026-05-03T17:22:59Z</time></trkpt><trkpt lat="43.9558567799594" lon="11.213236693678233"><ele>349.0</ele><time>2026-05-03T17:23:00Z</time></trkpt><trkpt lat="43.955651724540125" lon="11.213224517432407"><ele>352.0</ele><time>2026-05-03T17:23:01Z</time></trkpt><trkpt lat="43.95544107527995" lon="11.213260319124261"><ele>355.0</ele><time>2026-05-03T17:23:02Z</time></trkpt><trkpt lat="43.955216351739125" lon="11.213328714276914"><ele>361.5</ele><time>2026-05-03T17:23:03Z</time></trkpt><trkpt lat="43.954986392161146" lon="11.21342240152785"><ele>368.0</ele><time>2026-05-03T17:23:04Z</time></trkpt><trkpt lat="43.9547725981201" lon="11.213500962735944"><ele>368.0</ele><time>2026-05-03T17:23:05Z</time></trkpt><trkpt lat="43.95458053594106" lon="11.213556552972975"><ele>368.0</ele><time>2026-05-03T17:23:06Z</time></trkpt><trkpt lat="43.954407464779344" lon="11.213578105507025"><ele>368.0</ele><time>2026-05-03T17:23:07Z</time></trkpt><trkpt lat="43.9542484805131" lon="11.213541666245831"><ele>371.33333333333337</ele><time>2026-05-03T17:23:08Z</time></trkpt><trkpt lat="43.95407825347651" lon="11.213451883469967"><ele>374.6666666666667</ele><time>2026-05-03T17:23:09Z</time></trkpt><trkpt lat="43.95391159354116" lon="11.213340628875411"><ele>378.0</ele><time>2026-05-03T17:23:10Z</time></trkpt><trkpt lat="43.95373399246508" lon="11.213277357417402"><ele>378.0</ele><time>2026-05-03T17:23:11Z</time></trkpt><trkpt lat="43.95354229698807" lon="11.213306260089528"><ele>378.0</ele><time>2026-05-03T17:23:12Z</time></trkpt><trkpt lat="43.953346213282124" lon="11.2133642536086"><ele>378.0</ele><time>2026-05-03T17:23:13Z</time></trkpt><trkpt lat="43.95314999730957" lon="11.21337842774296"><ele>377.3333333333333</ele><time>2026-05-03T17:23:14Z</time></trkpt><trkpt lat="43.95295255253668" lon="11.213339760883956"><ele>376.66666666666663</ele><time>2026-05-03T17:23:15Z</time></trkpt><trkpt lat="43.9527794817063" lon="11.213274380456808"><ele>376.0</ele><time>2026-05-03T17:23:16Z</time></trkpt><trkpt lat="43.9526259945582" lon="11.213146601796149"><ele>378.75</ele><time>2026-05-03T17:23:17Z</time></trkpt><trkpt lat="43.95249154892934" lon="11.213068418388382"><ele>381.5</ele><time>2026-05-03T17:23:18Z</time></trkpt><trkpt lat="43.952408530000376" lon="11.212996693715011"><ele>384.25</ele><time>2026-05-03T17:23:19Z</time></trkpt><trkpt lat="43.95233040747774" lon="11.212913429853042"><ele>387.0</ele><time>2026-05-03T17:23:20Z</time></trkpt><trkpt lat="43.952226455865" lon="11.212820936169072"><ele>387.0</ele><time>2026-05-03T17:23:21Z</time></trkpt><trkpt lat="43.95208878088644" lon="11.212703542281288"><ele>387.0</ele><time>2026-05-03T17:23:22Z</time></trkpt><trkpt lat="43.95193026310589" lon="11.212555607110138"><ele>387.0</ele><time>2026-05-03T17:23:23Z</time></trkpt><trkpt lat="43.951766941151824" lon="11.212343949402827"><ele>393.5</ele><time>2026-05-03T17:23:24Z</time></trkpt><trkpt lat="43.951596282853394" lon="11.212100498940176"><ele>400.0</ele><time>2026-05-03T17:23:25Z</time></trkpt><trkpt lat="43.951406869769265" lon="11.211845186619978"><ele>400.0</ele><time>2026-05-03T17:23:26Z</time></trkpt><trkpt lat="43.951252383286494" lon="11.211616679149525"><ele>400.0</ele><time>2026-05-03T17:23:27Z</time></trkpt><trkpt lat="43.951112841177526" lon="11.211415834288061"><ele>400.0</ele><time>2026-05-03T17:23:28Z</time></trkpt><trkpt lat="43.95100286884268" lon="11.21121419296119"><ele>399.33333333333337</ele><time>2026-05-03T17:23:29Z</time></trkpt><trkpt lat="43.95093064817641" lon="11.21098914359407"><ele>398.66666666666663</ele><time>2026-05-03T17:23:30Z</time></trkpt><trkpt lat="43.95088150260369" lon="11.210726102070847"><ele>398.0</ele><time>2026-05-03T17:23:31Z</time></trkpt><trkpt lat="43.95083834425258" lon="11.21043278119077"><ele>398.0</ele><time>2026-05-03T17:23:32Z</time></trkpt><trkpt lat="43.95078850477363" lon="11.210129492115877"><ele>398.0</ele><time>2026-05-03T17:23:33Z</time></trkpt><trkpt lat="43.9507454582321" lon="11.209866333368034"><ele>398.0</ele><time>2026-05-03T17:23:34Z</time></trkpt><trkpt lat="43.95070787569781" lon="11.209649233224996"><ele>399.5</ele><time>2026-05-03T17:23:35Z</time></trkpt><trkpt lat="43.95066182102872" lon="11.209463829640633"><ele>401.0</ele><time>2026-05-03T17:23:36Z</time></trkpt><trkpt lat="43.95058525281298" lon="11.209325729058596"><ele>402.5</ele><time>2026-05-03T17:23:37Z</time></trkpt><trkpt lat="43.95047350827581" lon="11.209241585869625"><ele>404.0</ele><time>2026-05-03T17:23:38Z</time></trkpt><trkpt lat="43.95034464144558" lon="11.209219090997186"><ele>404.0</ele><time>2026-05-03T17:23:39Z</time></trkpt><trkpt lat="43.95021746585015" lon="11.209261710833246"><ele>404.0</ele><time>2026-05-03T17:23:40Z</time></trkpt><trkpt lat="43.950108320949006" lon="11.209382857982453"><ele>404.0</ele><time>2026-05-03T17:23:41Z</time></trkpt><trkpt lat="43.950027781915466" lon="11.209565960761605"><ele>404.0</ele><time>2026-05-03T17:23:42Z</time></trkpt><trkpt lat="43.949968454484655" lon="11.20979736532241"><ele>403.66666666666663</ele><time>2026-05-03T17:23:43Z</time></trkpt><trkpt lat="43.94991132560959" lon="11.210048115643808"><ele>403.33333333333337</ele><time>2026-05-03T17:23:44Z</time></trkpt><trkpt lat="43.949844932047974" lon="11.210257543076095"><ele>403.0</ele><time>2026-05-03T17:23:45Z</time></trkpt><trkpt lat="43.949751242927825" lon="11.210441780143563"><ele>403.0</ele><time>2026-05-03T17:23:46Z</time></trkpt><trkpt lat="43.94963528890382" lon="11.210588076724841"><ele>403.0</ele><time>2026-05-03T17:23:47Z</time></trkpt><trkpt lat="43.949518919666986" lon="11.21067676516747"><ele>403.0</ele><time>2026-05-03T17:23:48Z</time></trkpt><trkpt lat="43.94939077431555" lon="11.210744226679742"><ele>403.0</ele><time>2026-05-03T17:23:49Z</time></trkpt><trkpt lat="43.949250938992776" lon="11.210798654000506"><ele>402.6666666666667</ele><time>2026-05-03T17:23:50Z</time></trkpt><trkpt lat="43.94910265442596" lon="11.210802697270383"><ele>402.33333333333337</ele><time>2026-05-03T17:23:51Z</time></trkpt><trkpt lat="43.94894914035141" lon="11.210767992295109"><ele>402.0</ele><time>2026-05-03T17:23:52Z</time></trkpt><trkpt lat="43.94880520569491" lon="11.210693151262706"><ele>405.25</ele><time>2026-05-03T17:23:53Z</time></trkpt><trkpt lat="43.948675287659995" lon="11.210581407230377"><ele>408.5</ele><time>2026-05-03T17:23:54Z</time></trkpt><trkpt lat="43.94857592349242" lon="11.210483960239776"><ele>411.75</ele><time>2026-05-03T17:23:55Z</time></trkpt><trkpt lat="43.94847473386394" lon="11.210421601381814"><ele>415.0</ele><time>2026-05-03T17:23:56Z</time></trkpt><trkpt lat="43.94835301867736" lon="11.210408580161166"><ele>415.0</ele><time>2026-05-03T17:23:57Z</time></trkpt><trkpt lat="43.948223829377596" lon="11.210442899021078"><ele>415.0</ele><time>2026-05-03T17:23:58Z</time></trkpt><trkpt lat="43.94810471668254" lon="11.210523784583213"><ele>415.0</ele><time>2026-05-03T17:23:59Z</time></trkpt><trkpt lat="43.948004555276455" lon="11.210640852934304"><ele>415.0</ele><time>2026-05-03T17:24:00Z</time></trkpt><trkpt lat="43.947919301888554" lon="11.210811650398977"><ele>410.33333333333337</ele><time>2026-05-03T17:24:01Z</time></trkpt><trkpt lat="43.94786001798755" lon="11.211070402708271"><ele>405.66666666666663</ele><time>2026-05-03T17:24:02Z</time></trkpt><trkpt lat="43.947830642169606" lon="11.211366473013936"><ele>401.0</ele><time>2026-05-03T17:24:03Z</time></trkpt><trkpt lat="43.94780799969333" lon="11.211629807181698"><ele>400.66666666666663</ele><time>2026-05-03T17:24:04Z</time></trkpt><trkpt lat="43.94772458555385" lon="11.211812255502686"><ele>400.33333333333337</ele><time>2026-05-03T17:24:05Z</time></trkpt><trkpt lat="43.94760412943528" lon="11.21196564389303"><ele>400.0</ele><time>2026-05-03T17:24:06Z</time></trkpt><trkpt lat="43.947444109880266" lon="11.212075093181104"><ele>403.0</ele><time>2026-05-03T17:24:07Z</time></trkpt><trkpt lat="43.94729688318854" lon="11.212202629334913"><ele>406.0</ele><time>2026-05-03T17:24:08Z</time></trkpt><trkpt lat="43.947170098048566" lon="11.212343505450606"><ele>409.0</ele><time>2026-05-03T17:24:09Z</time></trkpt><trkpt lat="43.94708433262605" lon="11.212566335984642"><ele>409.0</ele><time>2026-05-03T17:24:10Z</time></trkpt><trkpt lat="43.94700756713918" lon="11.212805034011438"><ele>409.0</ele><time>2026-05-03T17:24:11Z</time></trkpt><trkpt lat="43.94691927457859" lon="11.212996946479473"><ele>409.0</ele><time>2026-05-03T17:24:12Z</time></trkpt><trkpt lat="43.9467834944079" lon="11.213087177650305"><ele>412.0</ele><time>2026-05-03T17:24:13Z</time></trkpt><trkpt lat="43.946621485239675" lon="11.213131011037712"><ele>415.0</ele><time>2026-05-03T17:24:14Z</time></trkpt><trkpt lat="43.94643649647339" lon="11.21318089609862"><ele>418.0</ele><time>2026-05-03T17:24:15Z</time></trkpt><trkpt lat="43.946227810920206" lon="11.213224917078774"><ele>418.0</ele><time>2026-05-03T17:24:16Z</time></trkpt><trkpt lat="43.94602227288423" lon="11.213305876681202"><ele>418.0</ele><time>2026-05-03T17:24:17Z</time></trkpt><trkpt lat="43.945836151979314" lon="11.213422759122253"><ele>418.0</ele><time>2026-05-03T17:24:18Z</time></trkpt><trkpt lat="43.94567500077603" lon="11.213541595500462"><ele>420.75</ele><time>2026-05-03T17:24:19Z</time></trkpt><trkpt lat="43.9455425736605" lon="11.213637867322655"><ele>423.5</ele><time>2026-05-03T17:24:20Z</time></trkpt><trkpt lat="43.9454185409131" lon="11.213709205985776"><ele>426.25</ele><time>2026-05-03T17:24:21Z</time></trkpt><trkpt lat="43.945300349913005" lon="11.213755052091269"><ele>429.0</ele><time>2026-05-03T17:24:22Z</time></trkpt><trkpt lat="43.945174808331615" lon="11.2137724659152"><ele>429.0</ele><time>2026-05-03T17:24:23Z</time></trkpt><trkpt lat="43.94505602832089" lon="11.213771008284011"><ele>429.0</ele><time>2026-05-03T17:24:24Z</time></trkpt><trkpt lat="43.94495616769856" lon="11.213753289527231"><ele>429.0</ele><time>2026-05-03T17:24:25Z</time></trkpt><trkpt lat="43.944878496722346" lon="11.21375204175569"><ele>429.0</ele><time>2026-05-03T17:24:26Z</time></trkpt><trkpt lat="43.94480294810652" lon="11.213812685543289"><ele>429.0</ele><time>2026-05-03T17:24:27Z</time></trkpt><trkpt lat="43.94472969747594" lon="11.213906730312248"><ele>428.33333333333337</ele><time>2026-05-03T17:24:28Z</time></trkpt><trkpt lat="43.944649723145154" lon="11.21406421878165"><ele>427.6666666666667</ele><time>2026-05-03T17:24:29Z</time></trkpt><trkpt lat="43.94454607442056" lon="11.214250253551427"><ele>427.0</ele><time>2026-05-03T17:24:30Z</time></trkpt><trkpt lat="43.94441803016542" lon="11.214449797051309"><ele>427.0</ele><time>2026-05-03T17:24:31Z</time></trkpt><trkpt lat="43.94428972610558" lon="11.214665028294887"><ele>427.0</ele><time>2026-05-03T17:24:32Z</time></trkpt><trkpt lat="43.94414640011436" lon="11.214867530761806"><ele>427.0</ele><time>2026-05-03T17:24:33Z</time></trkpt><trkpt lat="43.94403928277923" lon="11.215074623510896"><ele>425.0</ele><time>2026-05-03T17:24:34Z</time></trkpt><trkpt lat="43.943926340720836" lon="11.21525473893094"><ele>423.0</ele><time>2026-05-03T17:24:35Z</time></trkpt><trkpt lat="43.94382469099766" lon="11.215417382241922"><ele>421.0</ele><time>2026-05-03T17:24:36Z</time></trkpt><trkpt lat="43.943724572269524" lon="11.215567305083512"><ele>422.6666666666667</ele><time>2026-05-03T17:24:37Z</time></trkpt><trkpt lat="43.9436127969623" lon="11.215702808827375"><ele>424.33333333333337</ele><time>2026-05-03T17:24:38Z</time></trkpt><trkpt lat="43.943476119118074" lon="11.215790057157317"><ele>426.0</ele><time>2026-05-03T17:24:39Z</time></trkpt><trkpt lat="43.94331899407316" lon="11.215854937007972"><ele>422.0</ele><time>2026-05-03T17:24:40Z</time></trkpt><trkpt lat="43.94313816148625" lon="11.215929195383428"><ele>418.0</ele><time>2026-05-03T17:24:41Z</time></trkpt><trkpt lat="43.94295350696685" lon="11.216010823102504"><ele>414.0</ele><time>2026-05-03T17:24:42Z</time></trkpt><trkpt lat="43.942756418598854" lon="11.216098396729002"><ele>414.0</ele><time>2026-05-03T17:24:43Z</time></trkpt><trkpt lat="43.94255806395471" lon="11.216182890637956"><ele>414.0</ele><time>2026-05-03T17:24:44Z</time></trkpt><trkpt lat="43.94237412754041" lon="11.2163186254478"><ele>414.0</ele><time>2026-05-03T17:24:45Z</time></trkpt><trkpt lat="43.94223983387165" lon="11.216414702221643"><ele>412.66666666666663</ele><time>2026-05-03T17:24:46Z</time></trkpt><trkpt lat="43.94213407487735" lon="11.216579145187128"><ele>411.3333333333333</ele><time>2026-05-03T17:24:47Z</time></trkpt><trkpt lat="43.942056289416634" lon="11.216771150496097"><ele>410.0</ele><time>2026-05-03T17:24:48Z</time></trkpt><trkpt lat="43.941997486691044" lon="11.216954274964944"><ele>410.0</ele><time>2026-05-03T17:24:49Z</time></trkpt><trkpt lat="43.94191653781721" lon="11.217081391970233"><ele>410.0</ele><time>2026-05-03T17:24:50Z</time></trkpt><trkpt lat="43.94179967506544" lon="11.21711622873366"><ele>410.0</ele><time>2026-05-03T17:24:51Z</time></trkpt><trkpt lat="43.94168458236642" lon="11.21709030422406"><ele>410.0</ele><time>2026-05-03T17:24:52Z</time></trkpt><trkpt lat="43.94157643683161" lon="11.217024062382661"><ele>407.0</ele><time>2026-05-03T17:24:53Z</time></trkpt><trkpt lat="43.941485462497795" lon="11.216896144450073"><ele>404.0</ele><time>2026-05-03T17:24:54Z</time></trkpt><trkpt lat="43.94145821963783" lon="11.216717100383848"><ele>401.0</ele><time>2026-05-03T17:24:55Z</time></trkpt><trkpt lat="43.941467718571765" lon="11.21655283892195"><ele>398.0</ele><time>2026-05-03T17:24:56Z</time></trkpt><trkpt lat="43.941490653302196" lon="11.216384152150757"><ele>399.0</ele><time>2026-05-03T17:24:57Z</time></trkpt><trkpt lat="43.94152563197055" lon="11.216232705121598"><ele>400.0</ele><time>2026-05-03T17:24:58Z</time></trkpt><trkpt lat="43.94158513676675" lon="11.216094552713072"><ele>401.0</ele><time>2026-05-03T17:24:59Z</time></trkpt><trkpt lat="43.941672428291106" lon="11.21598008172177"><ele>402.0</ele><time>2026-05-03T17:25:00Z</time></trkpt><trkpt lat="43.94178891630679" lon="11.215892187227324"><ele>402.0</ele><time>2026-05-03T17:25:01Z</time></trkpt><trkpt lat="43.94193293328616" lon="11.215833099829137"><ele>402.0</ele><time>2026-05-03T17:25:02Z</time></trkpt><trkpt lat="43.94201896448255" lon="11.21575749439752"><ele>402.0</ele><time>2026-05-03T17:25:03Z</time></trkpt><trkpt lat="43.942068343088096" lon="11.215659286072071"><ele>402.0</ele><time>2026-05-03T17:25:04Z</time></trkpt><trkpt lat="43.942089047996234" lon="11.21551910698416"><ele>402.0</ele><time>2026-05-03T17:25:05Z</time></trkpt><trkpt lat="43.9420801355192" lon="11.215396642785892"><ele>400.25</ele><time>2026-05-03T17:25:06Z</time></trkpt><trkpt lat="43.942030509007694" lon="11.215271852857551"><ele>398.5</ele><time>2026-05-03T17:25:07Z</time></trkpt><trkpt lat="43.94193106080459" lon="11.21516209204751"><ele>396.75</ele><time>2026-05-03T17:25:08Z</time></trkpt><trkpt lat="43.94179618107434" lon="11.215105722213028"><ele>395.0</ele><time>2026-05-03T17:25:09Z</time></trkpt><trkpt lat="43.941650967002566" lon="11.215129854736809"><ele>391.0</ele><time>2026-05-03T17:25:10Z</time></trkpt><trkpt lat="43.941487300521075" lon="11.215228279086414"><ele>387.0</ele><time>2026-05-03T17:25:11Z</time></trkpt><trkpt lat="43.941307025991264" lon="11.215379826393088"><ele>383.0</ele><time>2026-05-03T17:25:12Z</time></trkpt><trkpt lat="43.94109252578025" lon="11.215478502925786"><ele>381.5</ele><time>2026-05-03T17:25:13Z</time></trkpt><trkpt lat="43.94085988479024" lon="11.21558888710735"><ele>380.0</ele><time>2026-05-03T17:25:14Z</time></trkpt><trkpt lat="43.940644380085764" lon="11.215672568092307"><ele>380.0</ele><time>2026-05-03T17:25:15Z</time></trkpt><trkpt lat="43.9404495590926" lon="11.215756590491972"><ele>380.0</ele><time>2026-05-03T17:25:16Z</time></trkpt><trkpt lat="43.940279695433475" lon="11.215824427831855"><ele>380.0</ele><time>2026-05-03T17:25:17Z</time></trkpt><trkpt lat="43.94011798521052" lon="11.215867176141503"><ele>378.0</ele><time>2026-05-03T17:25:18Z</time></trkpt><trkpt lat="43.939967252005594" lon="11.215896959008111"><ele>376.0</ele><time>2026-05-03T17:25:19Z</time></trkpt><trkpt lat="43.93982537478803" lon="11.215930674275393"><ele>374.0</ele><time>2026-05-03T17:25:20Z</time></trkpt><trkpt lat="43.939693005896146" lon="11.215955108237422"><ele>372.0</ele><time>2026-05-03T17:25:21Z</time></trkpt><trkpt lat="43.93957207332324" lon="11.215967698921329"><ele>372.0</ele><time>2026-05-03T17:25:22Z</time></trkpt><trkpt lat="43.93945451868473" lon="11.21597314104868"><ele>372.0</ele><time>2026-05-03T17:25:23Z</time></trkpt><trkpt lat="43.93934717046803" lon="11.215918557698421"><ele>372.0</ele><time>2026-05-03T17:25:24Z</time></trkpt><trkpt lat="43.939221907282125" lon="11.215891965011577"><ele>372.0</ele><time>2026-05-03T17:25:25Z</time></trkpt><trkpt lat="43.93910819497568" lon="11.215790051556148"><ele>370.25</ele><time>2026-05-03T17:25:26Z</time></trkpt><trkpt lat="43.93900717684146" lon="11.215693165455946"><ele>368.5</ele><time>2026-05-03T17:25:27Z</time></trkpt><trkpt lat="43.93889573413998" lon="11.215621816514577"><ele>366.75</ele><time>2026-05-03T17:25:28Z</time></trkpt><trkpt lat="43.938749476112264" lon="11.215557619085478"><ele>365.0</ele><time>2026-05-03T17:25:29Z</time></trkpt><trkpt lat="43.93856773203699" lon="11.215481313251553"><ele>360.0</ele><time>2026-05-03T17:25:30Z</time></trkpt><trkpt lat="43.93837980708375" lon="11.215386045683344"><ele>355.0</ele><time>2026-05-03T17:25:31Z</time></trkpt><trkpt lat="43.938153107032214" lon="11.215277266433487"><ele>350.0</ele><time>2026-05-03T17:25:32Z</time></trkpt><trkpt lat="43.93789414739119" lon="11.215181441659807"><ele>350.0</ele><time>2026-05-03T17:25:33Z</time></trkpt><trkpt lat="43.9376451517905" lon="11.215082852293486"><ele>350.0</ele><time>2026-05-03T17:25:34Z</time></trkpt><trkpt lat="43.937415803757006" lon="11.21504355413008"><ele>350.6666666666667</ele><time>2026-05-03T17:25:35Z</time></trkpt><trkpt lat="43.93723941042425" lon="11.215030561291586"><ele>351.3333333333333</ele><time>2026-05-03T17:25:36Z</time></trkpt><trkpt lat="43.93712054835891" lon="11.214934679288408"><ele>352.0</ele><time>2026-05-03T17:25:37Z</time></trkpt><trkpt lat="43.937027825499726" lon="11.21478879416017"><ele>348.0</ele><time>2026-05-03T17:25:38Z</time></trkpt><trkpt lat="43.93691632286565" lon="11.214622469882773"><ele>344.0</ele><time>2026-05-03T17:25:39Z</time></trkpt><trkpt lat="43.93681014175164" lon="11.214490249449252"><ele>340.0</ele><time>2026-05-03T17:25:40Z</time></trkpt><trkpt lat="43.93667684178391" lon="11.214428645242396"><ele>336.0</ele><time>2026-05-03T17:25:41Z</time></trkpt><trkpt lat="43.93650014912519" lon="11.214449751000837"><ele>336.0</ele><time>2026-05-03T17:25:42Z</time></trkpt><trkpt lat="43.936306757376244" lon="11.214492177952367"><ele>336.0</ele><time>2026-05-03T17:25:43Z</time></trkpt><trkpt lat="43.93609770815628" lon="11.214513494133884"><ele>336.0</ele><time>2026-05-03T17:25:44Z</time></trkpt><trkpt lat="43.93590211467653" lon="11.214427380077922"><ele>335.6666666666667</ele><time>2026-05-03T17:25:45Z</time></trkpt><trkpt lat="43.935733362050684" lon="11.214306701068542"><ele>335.33333333333337</ele><time>2026-05-03T17:25:46Z</time></trkpt><trkpt lat="43.9355677473254" lon="11.21416658275269"><ele>335.0</ele><time>2026-05-03T17:25:47Z</time></trkpt><trkpt lat="43.935387744216186" lon="11.214002638368319"><ele>324.5</ele><time>2026-05-03T17:25:48Z</time></trkpt><trkpt lat="43.935184354030895" lon="11.213857459677001"><ele>314.0</ele><time>2026-05-03T17:25:49Z</time></trkpt><trkpt lat="43.93494597049522" lon="11.213759932134334"><ele>314.0</ele><time>2026-05-03T17:25:50Z</time></trkpt><trkpt lat="43.93468571801658" lon="11.213670459867801"><ele>314.0</ele><time>2026-05-03T17:25:51Z</time></trkpt><trkpt lat="43.93442321439239" lon="11.213565692527371"><ele>316.0</ele><time>2026-05-03T17:25:52Z</time></trkpt><trkpt lat="43.934179101113074" lon="11.21345466229699"><ele>318.0</ele><time>2026-05-03T17:25:53Z</time></trkpt><trkpt lat="43.93395355639302" lon="11.213342037815828"><ele>318.0</ele><time>2026-05-03T17:25:54Z</time></trkpt><trkpt lat="43.93375261973232" lon="11.213220253730102"><ele>318.0</ele><time>2026-05-03T17:25:55Z</time></trkpt><trkpt lat="43.93357251752451" lon="11.213083700226822"><ele>318.0</ele><time>2026-05-03T17:25:56Z</time></trkpt><trkpt lat="43.93342292310328" lon="11.212904734622345"><ele>312.3333333333333</ele><time>2026-05-03T17:25:57Z</time></trkpt><trkpt lat="43.933272721394026" lon="11.21275104421311"><ele>306.66666666666663</ele><time>2026-05-03T17:25:58Z</time></trkpt><trkpt lat="43.93316177407012" lon="11.212608404849979"><ele>301.0</ele><time>2026-05-03T17:25:59Z</time></trkpt><trkpt lat="43.93305540982941" lon="11.212500713120482"><ele>301.0</ele><time>2026-05-03T17:26:00Z</time></trkpt><trkpt lat="43.932925586077886" lon="11.212458761958414"><ele>301.0</ele><time>2026-05-03T17:26:01Z</time></trkpt><trkpt lat="43.93278126902702" lon="11.212479599011035"><ele>301.0</ele><time>2026-05-03T17:26:02Z</time></trkpt><trkpt lat="43.93263185936659" lon="11.212520970381535"><ele>301.0</ele><time>2026-05-03T17:26:03Z</time></trkpt><trkpt lat="43.93248983438337" lon="11.212504687949982"><ele>303.66666666666663</ele><time>2026-05-03T17:26:04Z</time></trkpt><trkpt lat="43.93237983985339" lon="11.212371745294694"><ele>306.3333333333333</ele><time>2026-05-03T17:26:05Z</time></trkpt><trkpt lat="43.932302296683254" lon="11.212178270755569"><ele>309.0</ele><time>2026-05-03T17:26:06Z</time></trkpt><trkpt lat="43.93217001464444" lon="11.211974824230335"><ele>298.6666666666667</ele><time>2026-05-03T17:26:07Z</time></trkpt><trkpt lat="43.93203134710372" lon="11.211809328319637"><ele>288.33333333333337</ele><time>2026-05-03T17:26:08Z</time></trkpt><trkpt lat="43.931841074977285" lon="11.211631057478458"><ele>278.0</ele><time>2026-05-03T17:26:09Z</time></trkpt><trkpt lat="43.931623127897026" lon="11.211442314279008"><ele>271.0</ele><time>2026-05-03T17:26:10Z</time></trkpt><trkpt lat="43.93139284741642" lon="11.211244826053777"><ele>264.0</ele><time>2026-05-03T17:26:11Z</time></trkpt><trkpt lat="43.931146526207314" lon="11.211055608763589"><ele>264.0</ele><time>2026-05-03T17:26:12Z</time></trkpt><trkpt lat="43.93089751490171" lon="11.21088155402963"><ele>264.0</ele><time>2026-05-03T17:26:13Z</time></trkpt><trkpt lat="43.93067790986148" lon="11.21073717163251"><ele>257.0</ele><time>2026-05-03T17:26:14Z</time></trkpt><trkpt lat="43.930459510014515" lon="11.210616345268129"><ele>250.0</ele><time>2026-05-03T17:26:15Z</time></trkpt><trkpt lat="43.93025282757529" lon="11.210507084482842"><ele>250.0</ele><time>2026-05-03T17:26:16Z</time></trkpt><trkpt lat="43.93006409710302" lon="11.21037661905136"><ele>250.0</ele><time>2026-05-03T17:26:17Z</time></trkpt><trkpt lat="43.929919776017805" lon="11.210175804738087"><ele>250.0</ele><time>2026-05-03T17:26:18Z</time></trkpt><trkpt lat="43.929771687421685" lon="11.209983597477933"><ele>246.0</ele><time>2026-05-03T17:26:19Z</time></trkpt><trkpt lat="43.92965271322705" lon="11.209770060568157"><ele>242.0</ele><time>2026-05-03T17:26:20Z</time></trkpt><trkpt lat="43.92952350622917" lon="11.209579373873726"><ele>238.0</ele><time>2026-05-03T17:26:21Z</time></trkpt><trkpt lat="43.92935112754392" lon="11.20939928620069"><ele>245.5</ele><time>2026-05-03T17:26:22Z</time></trkpt><trkpt lat="43.92913254768786" lon="11.209205456142499"><ele>253.0</ele><time>2026-05-03T17:26:23Z</time></trkpt><trkpt lat="43.92892988342211" lon="11.209009436130414"><ele>241.0</ele><time>2026-05-03T17:26:24Z</time></trkpt><trkpt lat="43.9287387832611" lon="11.208823957504446"><ele>229.0</ele><time>2026-05-03T17:26:25Z</time></trkpt><trkpt lat="43.92852539408447" lon="11.208666438912115"><ele>234.0</ele><time>2026-05-03T17:26:26Z</time></trkpt><trkpt lat="43.92828332959751" lon="11.20852512133758"><ele>239.0</ele><time>2026-05-03T17:26:27Z</time></trkpt><trkpt lat="43.92802850575387" lon="11.208376702210826"><ele>239.0</ele><time>2026-05-03T17:26:28Z</time></trkpt><trkpt lat="43.92781302576392" lon="11.208247531732747"><ele>239.0</ele><time>2026-05-03T17:26:29Z</time></trkpt><trkpt lat="43.9276343230964" lon="11.208147445628601"><ele>239.0</ele><time>2026-05-03T17:26:30Z</time></trkpt><trkpt lat="43.92744040748733" lon="11.208096390842089"><ele>229.5</ele><time>2026-05-03T17:26:31Z</time></trkpt><trkpt lat="43.92720491697171" lon="11.208070531440494"><ele>220.0</ele><time>2026-05-03T17:26:32Z</time></trkpt><trkpt lat="43.92694373981418" lon="11.208041297580476"><ele>218.5</ele><time>2026-05-03T17:26:33Z</time></trkpt><trkpt lat="43.92667273026056" lon="11.208043104254473"><ele>217.0</ele><time>2026-05-03T17:26:34Z</time></trkpt><trkpt lat="43.92640879020265" lon="11.207963872787982"><ele>217.0</ele><time>2026-05-03T17:26:35Z</time></trkpt><trkpt lat="43.926157095514895" lon="11.207895580915553"><ele>217.0</ele><time>2026-05-03T17:26:36Z</time></trkpt><trkpt lat="43.925919826148984" lon="11.207837321989246"><ele>216.33333333333331</ele><time>2026-05-03T17:26:37Z</time></trkpt><trkpt lat="43.925706635303534" lon="11.207791471875487"><ele>215.66666666666669</ele><time>2026-05-03T17:26:38Z</time></trkpt><trkpt lat="43.925488129331285" lon="11.207776693438356"><ele>215.0</ele><time>2026-05-03T17:26:39Z</time></trkpt><trkpt lat="43.925284187339095" lon="11.2078037559661"><ele>215.0</ele><time>2026-05-03T17:26:40Z</time></trkpt><trkpt lat="43.92510572448493" lon="11.207867191527914"><ele>215.0</ele><time>2026-05-03T17:26:41Z</time></trkpt><trkpt lat="43.924934272799455" lon="11.207961167245967"><ele>215.0</ele><time>2026-05-03T17:26:42Z</time></trkpt><trkpt lat="43.92478007420504" lon="11.208102256849273"><ele>218.0</ele><time>2026-05-03T17:26:43Z</time></trkpt><trkpt lat="43.924642907393775" lon="11.208263719962714"><ele>221.0</ele><time>2026-05-03T17:26:44Z</time></trkpt><trkpt lat="43.9244955846409" lon="11.208361018722055"><ele>224.0</ele><time>2026-05-03T17:26:45Z</time></trkpt><trkpt lat="43.92433641842761" lon="11.208441470933208"><ele>216.66666666666669</ele><time>2026-05-03T17:26:46Z</time></trkpt><trkpt lat="43.92415020871383" lon="11.208463001731452"><ele>209.33333333333331</ele><time>2026-05-03T17:26:47Z</time></trkpt><trkpt lat="43.923954717219075" lon="11.208400140636236"><ele>202.0</ele><time>2026-05-03T17:26:48Z</time></trkpt><trkpt lat="43.92376492173225" lon="11.208315991590897"><ele>202.0</ele><time>2026-05-03T17:26:49Z</time></trkpt><trkpt lat="43.92359680262451" lon="11.208160603027912"><ele>202.0</ele><time>2026-05-03T17:26:50Z</time></trkpt><trkpt lat="43.923456074459075" lon="11.207923760123666"><ele>202.0</ele><time>2026-05-03T17:26:51Z</time></trkpt><trkpt lat="43.92329999702268" lon="11.207672640472454"><ele>201.0</ele><time>2026-05-03T17:26:52Z</time></trkpt><trkpt lat="43.923134335256705" lon="11.207423364546921"><ele>200.0</ele><time>2026-05-03T17:26:53Z</time></trkpt><trkpt lat="43.922980534590664" lon="11.207176864171377"><ele>197.33333333333334</ele><time>2026-05-03T17:26:54Z</time></trkpt><trkpt lat="43.92285662661577" lon="11.206974211355437"><ele>194.66666666666669</ele><time>2026-05-03T17:26:55Z</time></trkpt><trkpt lat="43.92275505434512" lon="11.206786068569535"><ele>192.0</ele><time>2026-05-03T17:26:56Z</time></trkpt><trkpt lat="43.922672864389476" lon="11.206599322466086"><ele>192.0</ele><time>2026-05-03T17:26:57Z</time></trkpt><trkpt lat="43.922598355470335" lon="11.206404788282999"><ele>192.0</ele><time>2026-05-03T17:26:58Z</time></trkpt><trkpt lat="43.922528122674464" lon="11.20619697275894"><ele>192.0</ele><time>2026-05-03T17:26:59Z</time></trkpt><trkpt lat="43.922451204427716" lon="11.205982984764693"><ele>194.0</ele><time>2026-05-03T17:27:00Z</time></trkpt><trkpt lat="43.92237329811454" lon="11.205771828149075"><ele>196.0</ele><time>2026-05-03T17:27:01Z</time></trkpt><trkpt lat="43.92229867758734" lon="11.205556524064015"><ele>198.0</ele><time>2026-05-03T17:27:02Z</time></trkpt><trkpt lat="43.922224282592175" lon="11.205341810634089"><ele>198.0</ele><time>2026-05-03T17:27:03Z</time></trkpt><trkpt lat="43.92215651328007" lon="11.205141768599056"><ele>198.0</ele><time>2026-05-03T17:27:04Z</time></trkpt><trkpt lat="43.922090977939575" lon="11.204945733768351"><ele>198.0</ele><time>2026-05-03T17:27:05Z</time></trkpt><trkpt lat="43.922023921295974" lon="11.204753131188141"><ele>196.0</ele><time>2026-05-03T17:27:06Z</time></trkpt><trkpt lat="43.92195306044194" lon="11.204567298167195"><ele>194.0</ele><time>2026-05-03T17:27:07Z</time></trkpt><trkpt lat="43.921868419741664" lon="11.20439225140162"><ele>192.0</ele><time>2026-05-03T17:27:08Z</time></trkpt><trkpt lat="43.921765437551905" lon="11.204224283597163"><ele>193.33333333333331</ele><time>2026-05-03T17:27:09Z</time></trkpt><trkpt lat="43.921650106778756" lon="11.204070381423918"><ele>194.66666666666666</ele><time>2026-05-03T17:27:10Z</time></trkpt><trkpt lat="43.92152704743723" lon="11.203938862356944"><ele>196.0</ele><time>2026-05-03T17:27:11Z</time></trkpt><trkpt lat="43.921391906730506" lon="11.203837303516783"><ele>196.0</ele><time>2026-05-03T17:27:12Z</time></trkpt><trkpt lat="43.92124938508842" lon="11.203748972108064"><ele>196.0</ele><time>2026-05-03T17:27:13Z</time></trkpt><trkpt lat="43.9211092264423" lon="11.203657418046257"><ele>196.0</ele><time>2026-05-03T17:27:14Z</time></trkpt><trkpt lat="43.920977746969605" lon="11.203556102705877"><ele>197.0</ele><time>2026-05-03T17:27:15Z</time></trkpt><trkpt lat="43.9208524333647" lon="11.20343647312909"><ele>198.0</ele><time>2026-05-03T17:27:16Z</time></trkpt><trkpt lat="43.92073585631385" lon="11.203301107460156"><ele>199.0</ele><time>2026-05-03T17:27:17Z</time></trkpt><trkpt lat="43.920631385895575" lon="11.203153533319504"><ele>199.0</ele><time>2026-05-03T17:27:18Z</time></trkpt><trkpt lat="43.92053816209266" lon="11.202995858674631"><ele>199.0</ele><time>2026-05-03T17:27:19Z</time></trkpt><trkpt lat="43.92046045417755" lon="11.202834679618789"><ele>199.0</ele><time>2026-05-03T17:27:20Z</time></trkpt><trkpt lat="43.92039456373659" lon="11.202666586561255"><ele>199.0</ele><time>2026-05-03T17:27:21Z</time></trkpt><trkpt lat="43.92033357342548" lon="11.202499733666004"><ele>199.0</ele><time>2026-05-03T17:27:22Z</time></trkpt><trkpt lat="43.92027197115214" lon="11.202334189977012"><ele>199.0</ele><time>2026-05-03T17:27:23Z</time></trkpt><trkpt lat="43.92020900096857" lon="11.202175614442167"><ele>199.0</ele><time>2026-05-03T17:27:24Z</time></trkpt><trkpt lat="43.92014100894778" lon="11.202017316190378"><ele>199.0</ele><time>2026-05-03T17:27:25Z</time></trkpt><trkpt lat="43.9200589811664" lon="11.20185789021362"><ele>198.66666666666666</ele><time>2026-05-03T17:27:26Z</time></trkpt><trkpt lat="43.91995901713327" lon="11.201693403770124"><ele>198.33333333333331</ele><time>2026-05-03T17:27:27Z</time></trkpt><trkpt lat="43.9198406999451" lon="11.201507078730295"><ele>198.0</ele><time>2026-05-03T17:27:28Z</time></trkpt><trkpt lat="43.91970895766384" lon="11.201289595116283"><ele>191.5</ele><time>2026-05-03T17:27:29Z</time></trkpt><trkpt lat="43.919562771728145" lon="11.201049216905496"><ele>185.0</ele><time>2026-05-03T17:27:30Z</time></trkpt><trkpt lat="43.919402675544696" lon="11.200800050613655"><ele>184.33333333333331</ele><time>2026-05-03T17:27:31Z</time></trkpt><trkpt lat="43.91923953076586" lon="11.200574739127262"><ele>183.66666666666666</ele><time>2026-05-03T17:27:32Z</time></trkpt><trkpt lat="43.91908730199628" lon="11.200374324894039"><ele>183.0</ele><time>2026-05-03T17:27:33Z</time></trkpt><trkpt lat="43.91894229093453" lon="11.200170469501863"><ele>183.0</ele><time>2026-05-03T17:27:34Z</time></trkpt><trkpt lat="43.918795764579436" lon="11.19992095698468"><ele>183.0</ele><time>2026-05-03T17:27:35Z</time></trkpt><trkpt lat="43.918649964264446" lon="11.199640947323282"><ele>183.33333333333334</ele><time>2026-05-03T17:27:36Z</time></trkpt><trkpt lat="43.918526638350926" lon="11.199393267177959"><ele>183.66666666666669</ele><time>2026-05-03T17:27:37Z</time></trkpt><trkpt lat="43.91841132095866" lon="11.199196903542951"><ele>184.0</ele><time>2026-05-03T17:27:38Z</time></trkpt><trkpt lat="43.918276357115296" lon="11.199015033232305"><ele>177.5</ele><time>2026-05-03T17:27:39Z</time></trkpt><trkpt lat="43.918105948118864" lon="11.198849499639088"><ele>171.0</ele><time>2026-05-03T17:27:40Z</time></trkpt><trkpt lat="43.917883204002386" lon="11.198698378607839"><ele>171.0</ele><time>2026-05-03T17:27:41Z</time></trkpt><trkpt lat="43.917636424506334" lon="11.1985365844376"><ele>171.0</ele><time>2026-05-03T17:27:42Z</time></trkpt><trkpt lat="43.917373234152755" lon="11.198350565819197"><ele>172.0</ele><time>2026-05-03T17:27:43Z</time></trkpt><trkpt lat="43.91709473960095" lon="11.198156366832759"><ele>173.0</ele><time>2026-05-03T17:27:44Z</time></trkpt><trkpt lat="43.91680139929945" lon="11.197963479727907"><ele>170.0</ele><time>2026-05-03T17:27:45Z</time></trkpt><trkpt lat="43.91649416963637" lon="11.197772577554208"><ele>167.0</ele><time>2026-05-03T17:27:46Z</time></trkpt><trkpt lat="43.91617763393773" lon="11.197587549212198"><ele>168.0</ele><time>2026-05-03T17:27:47Z</time></trkpt><trkpt lat="43.91585381727786" lon="11.197393001724858"><ele>169.0</ele><time>2026-05-03T17:27:48Z</time></trkpt><trkpt lat="43.91554269003426" lon="11.197198655681596"><ele>165.5</ele><time>2026-05-03T17:27:49Z</time></trkpt><trkpt lat="43.91525839406168" lon="11.197010657133347"><ele>162.0</ele><time>2026-05-03T17:27:50Z</time></trkpt><trkpt lat="43.91501682411228" lon="11.196845632661274"><ele>162.0</ele><time>2026-05-03T17:27:51Z</time></trkpt><trkpt lat="43.91479930084467" lon="11.196693326042757"><ele>162.0</ele><time>2026-05-03T17:27:52Z</time></trkpt><trkpt lat="43.914594729342646" lon="11.196545545526996"><ele>161.0</ele><time>2026-05-03T17:27:53Z</time></trkpt><trkpt lat="43.914398279450545" lon="11.196393419632175"><ele>160.0</ele><time>2026-05-03T17:27:54Z</time></trkpt><trkpt lat="43.91422391369282" lon="11.19623553305924"><ele>159.0</ele><time>2026-05-03T17:27:55Z</time></trkpt><trkpt lat="43.91405660440508" lon="11.196062628312504"><ele>159.0</ele><time>2026-05-03T17:27:56Z</time></trkpt><trkpt lat="43.913913041352956" lon="11.195875388711158"><ele>159.0</ele><time>2026-05-03T17:27:57Z</time></trkpt><trkpt lat="43.91378347196556" lon="11.195687796709139"><ele>159.0</ele><time>2026-05-03T17:27:58Z</time></trkpt><trkpt lat="43.9136620319048" lon="11.195511940987766"><ele>158.66666666666666</ele><time>2026-05-03T17:27:59Z</time></trkpt><trkpt lat="43.913511604567205" lon="11.195363393076171"><ele>158.33333333333331</ele><time>2026-05-03T17:28:00Z</time></trkpt><trkpt lat="43.91333382532494" lon="11.195215674442677"><ele>158.0</ele><time>2026-05-03T17:28:01Z</time></trkpt><trkpt lat="43.91312473042671" lon="11.195046030255947"><ele>158.0</ele><time>2026-05-03T17:28:02Z</time></trkpt><trkpt lat="43.91289275454512" lon="11.194866075982228"><ele>158.0</ele><time>2026-05-03T17:28:03Z</time></trkpt><trkpt lat="43.91263993673511" lon="11.194684189535327"><ele>155.0</ele><time>2026-05-03T17:28:04Z</time></trkpt><trkpt lat="43.91236920516457" lon="11.194489644337878"><ele>152.0</ele><time>2026-05-03T17:28:05Z</time></trkpt><trkpt lat="43.912086960306375" lon="11.194286667896955"><ele>152.0</ele><time>2026-05-03T17:28:06Z</time></trkpt><trkpt lat="43.911801015669795" lon="11.194079263737283"><ele>152.0</ele><time>2026-05-03T17:28:07Z</time></trkpt><trkpt lat="43.911534156881274" lon="11.193892480612432"><ele>151.0</ele><time>2026-05-03T17:28:08Z</time></trkpt><trkpt lat="43.91128539670483" lon="11.1937202604281"><ele>150.0</ele><time>2026-05-03T17:28:09Z</time></trkpt><trkpt lat="43.91106909911451" lon="11.193572560560868"><ele>152.5</ele><time>2026-05-03T17:28:10Z</time></trkpt><trkpt lat="43.910848711438355" lon="11.19342691201955"><ele>155.0</ele><time>2026-05-03T17:28:11Z</time></trkpt><trkpt lat="43.910622120591114" lon="11.193283199731534"><ele>151.0</ele><time>2026-05-03T17:28:12Z</time></trkpt><trkpt lat="43.910395381004264" lon="11.193139701369569"><ele>147.0</ele><time>2026-05-03T17:28:13Z</time></trkpt><trkpt lat="43.91017181846749" lon="11.192987808481137"><ele>145.5</ele><time>2026-05-03T17:28:14Z</time></trkpt><trkpt lat="43.909954235152064" lon="11.192835980132058"><ele>144.0</ele><time>2026-05-03T17:28:15Z</time></trkpt><trkpt lat="43.90976353693837" lon="11.192671039178375"><ele>144.0</ele><time>2026-05-03T17:28:16Z</time></trkpt><trkpt lat="43.90956356100551" lon="11.19255603334377"><ele>144.0</ele><time>2026-05-03T17:28:17Z</time></trkpt><trkpt lat="43.90939168166468" lon="11.192426025733335"><ele>144.0</ele><time>2026-05-03T17:28:18Z</time></trkpt><trkpt lat="43.90921476102201" lon="11.192315483426523"><ele>143.0</ele><time>2026-05-03T17:28:19Z</time></trkpt><trkpt lat="43.90900141256819" lon="11.192243802034408"><ele>142.0</ele><time>2026-05-03T17:28:20Z</time></trkpt><trkpt lat="43.90875615132593" lon="11.192197917847338"><ele>142.0</ele><time>2026-05-03T17:28:21Z</time></trkpt><trkpt lat="43.90851911542233" lon="11.192139217491972"><ele>142.0</ele><time>2026-05-03T17:28:22Z</time></trkpt><trkpt lat="43.90832335808676" lon="11.192090317948379"><ele>142.0</ele><time>2026-05-03T17:28:23Z</time></trkpt><trkpt lat="43.908154329575325" lon="11.192029871811156"><ele>141.66666666666669</ele><time>2026-05-03T17:28:24Z</time></trkpt><trkpt lat="43.90798479997495" lon="11.191942868326876"><ele>141.33333333333334</ele><time>2026-05-03T17:28:25Z</time></trkpt><trkpt lat="43.907777076933144" lon="11.191802733904098"><ele>141.0</ele><time>2026-05-03T17:28:26Z</time></trkpt><trkpt lat="43.90754946561158" lon="11.19161773798746"><ele>139.0</ele><time>2026-05-03T17:28:27Z</time></trkpt><trkpt lat="43.90729531916728" lon="11.191434862948501"><ele>137.0</ele><time>2026-05-03T17:28:28Z</time></trkpt><trkpt lat="43.907051202563586" lon="11.191212924988548"><ele>137.0</ele><time>2026-05-03T17:28:29Z</time></trkpt><trkpt lat="43.9068362451515" lon="11.191037386555017"><ele>137.0</ele><time>2026-05-03T17:28:30Z</time></trkpt><trkpt lat="43.906645081180514" lon="11.190921135789331"><ele>136.33333333333331</ele><time>2026-05-03T17:28:31Z</time></trkpt><trkpt lat="43.90644983962831" lon="11.190841180770962"><ele>135.66666666666666</ele><time>2026-05-03T17:28:32Z</time></trkpt><trkpt lat="43.906270929843785" lon="11.190735228000891"><ele>135.0</ele><time>2026-05-03T17:28:33Z</time></trkpt><trkpt lat="43.90608896623252" lon="11.190583636279506"><ele>133.0</ele><time>2026-05-03T17:28:34Z</time></trkpt><trkpt lat="43.90586804083275" lon="11.190400837956323"><ele>131.0</ele><time>2026-05-03T17:28:35Z</time></trkpt><trkpt lat="43.90562214975385" lon="11.190191437151567"><ele>131.0</ele><time>2026-05-03T17:28:36Z</time></trkpt><trkpt lat="43.90536479295091" lon="11.189975721201"><ele>131.0</ele><time>2026-05-03T17:28:37Z</time></trkpt><trkpt lat="43.905118986044535" lon="11.189792960754614"><ele>130.0</ele><time>2026-05-03T17:28:38Z</time></trkpt><trkpt lat="43.904915246078694" lon="11.189607834616078"><ele>129.0</ele><time>2026-05-03T17:28:39Z</time></trkpt><trkpt lat="43.90474099240182" lon="11.189458170040323"><ele>128.0</ele><time>2026-05-03T17:28:40Z</time></trkpt><trkpt lat="43.90458148406491" lon="11.189330941808313"><ele>128.0</ele><time>2026-05-03T17:28:41Z</time></trkpt><trkpt lat="43.904409358455" lon="11.189252935798127"><ele>128.0</ele><time>2026-05-03T17:28:42Z</time></trkpt><trkpt lat="43.90419644920449" lon="11.18921347436526"><ele>128.0</ele><time>2026-05-03T17:28:43Z</time></trkpt><trkpt lat="43.90393695513963" lon="11.189208102826411"><ele>128.0</ele><time>2026-05-03T17:28:44Z</time></trkpt><trkpt lat="43.903654907083265" lon="11.189201403434188"><ele>128.0</ele><time>2026-05-03T17:28:45Z</time></trkpt><trkpt lat="43.90335817494223" lon="11.189176428761293"><ele>126.5</ele><time>2026-05-03T17:28:46Z</time></trkpt><trkpt lat="43.90304478946152" lon="11.189150650647752"><ele>125.0</ele><time>2026-05-03T17:28:47Z</time></trkpt><trkpt lat="43.90271374524191" lon="11.189139008639351"><ele>124.0</ele><time>2026-05-03T17:28:48Z</time></trkpt><trkpt lat="43.90237255763505" lon="11.189133868914007"><ele>123.0</ele><time>2026-05-03T17:28:49Z</time></trkpt><trkpt lat="43.902048849795676" lon="11.18912992579244"><ele>123.0</ele><time>2026-05-03T17:28:50Z</time></trkpt><trkpt lat="43.90176226541576" lon="11.189126368836257"><ele>123.0</ele><time>2026-05-03T17:28:51Z</time></trkpt><trkpt lat="43.90150688121399" lon="11.189115144083765"><ele>122.66666666666666</ele><time>2026-05-03T17:28:52Z</time></trkpt><trkpt lat="43.90127285002121" lon="11.189085963425823"><ele>122.33333333333333</ele><time>2026-05-03T17:28:53Z</time></trkpt><trkpt lat="43.90106411208537" lon="11.189041378943857"><ele>122.0</ele><time>2026-05-03T17:28:54Z</time></trkpt><trkpt lat="43.9008712116768" lon="11.18899183020015"><ele>121.66666666666666</ele><time>2026-05-03T17:28:55Z</time></trkpt><trkpt lat="43.900686637493514" lon="11.188944541454557"><ele>121.33333333333334</ele><time>2026-05-03T17:28:56Z</time></trkpt><trkpt lat="43.900514638423665" lon="11.18888576925774"><ele>121.0</ele><time>2026-05-03T17:28:57Z</time></trkpt><trkpt lat="43.90037124826164" lon="11.188783166963647"><ele>121.0</ele><time>2026-05-03T17:28:58Z</time></trkpt><trkpt lat="43.90024025887913" lon="11.188659860813782"><ele>121.0</ele><time>2026-05-03T17:28:59Z</time></trkpt><trkpt lat="43.90010349276324" lon="11.188550152434562"><ele>121.0</ele><time>2026-05-03T17:29:00Z</time></trkpt><trkpt lat="43.899963019551244" lon="11.18844394576343"><ele>120.66666666666667</ele><time>2026-05-03T17:29:01Z</time></trkpt><trkpt lat="43.899822102995145" lon="11.188341211882664"><ele>120.33333333333334</ele><time>2026-05-03T17:29:02Z</time></trkpt><trkpt lat="43.899686372638115" lon="11.188239134251624"><ele>120.0</ele><time>2026-05-03T17:29:03Z</time></trkpt><trkpt lat="43.89956164010886" lon="11.18814066202662"><ele>119.5</ele><time>2026-05-03T17:29:04Z</time></trkpt><trkpt lat="43.8994479044173" lon="11.18805262618957"><ele>119.0</ele><time>2026-05-03T17:29:05Z</time></trkpt><trkpt lat="43.89934376321985" lon="11.187982645275277"><ele>118.5</ele><time>2026-05-03T17:29:06Z</time></trkpt><trkpt lat="43.89924206897253" lon="11.187920561445093"><ele>118.0</ele><time>2026-05-03T17:29:07Z</time></trkpt><trkpt lat="43.899146114010485" lon="11.187867270454587"><ele>117.66666666666667</ele><time>2026-05-03T17:29:08Z</time></trkpt><trkpt lat="43.89906153458897" lon="11.18781356487388"><ele>117.33333333333334</ele><time>2026-05-03T17:29:09Z</time></trkpt><trkpt lat="43.89899232980978" lon="11.187754873663863"><ele>117.0</ele><time>2026-05-03T17:29:10Z</time></trkpt><trkpt lat="43.89892604633188" lon="11.187730883348289"><ele>116.66666666666666</ele><time>2026-05-03T17:29:11Z</time></trkpt><trkpt lat="43.898849439851354" lon="11.18774280320029"><ele>116.33333333333333</ele><time>2026-05-03T17:29:12Z</time></trkpt><trkpt lat="43.89878600209544" lon="11.187806027575954"><ele>116.0</ele><time>2026-05-03T17:29:13Z</time></trkpt><trkpt lat="43.898738701722976" lon="11.187899950130218"><ele>116.0</ele><time>2026-05-03T17:29:14Z</time></trkpt><trkpt lat="43.89868506100152" lon="11.187991256765718"><ele>116.0</ele><time>2026-05-03T17:29:15Z</time></trkpt><trkpt lat="43.89861431953507" lon="11.188066511517523"><ele>116.0</ele><time>2026-05-03T17:29:16Z</time></trkpt><trkpt lat="43.89853219533501" lon="11.188129679831798"><ele>116.0</ele><time>2026-05-03T17:29:17Z</time></trkpt><trkpt lat="43.898443798359224" lon="11.188187559426181"><ele>116.0</ele><time>2026-05-03T17:29:18Z</time></trkpt><trkpt lat="43.89834749585707" lon="11.188229936749835"><ele>117.4</ele><time>2026-05-03T17:29:19Z</time></trkpt><trkpt lat="43.89824642519155" lon="11.188255913639594"><ele>118.8</ele><time>2026-05-03T17:29:20Z</time></trkpt><trkpt lat="43.898141523909956" lon="11.18827345558853"><ele>120.20000000000002</ele><time>2026-05-03T17:29:21Z</time></trkpt><trkpt lat="43.89803411400843" lon="11.188282556943562"><ele>121.60000000000001</ele><time>2026-05-03T17:29:22Z</time></trkpt><trkpt lat="43.897923188318074" lon="11.18827857989283"><ele>123.0</ele><time>2026-05-03T17:29:23Z</time></trkpt><trkpt lat="43.897809762939055" lon="11.188264839163578"><ele>123.0</ele><time>2026-05-03T17:29:24Z</time></trkpt><trkpt lat="43.897692394232585" lon="11.188242738258117"><ele>123.0</ele><time>2026-05-03T17:29:25Z</time></trkpt><trkpt lat="43.89756965360881" lon="11.188215211735907"><ele>123.0</ele><time>2026-05-03T17:29:26Z</time></trkpt><trkpt lat="43.897443560020676" lon="11.188183839169234"><ele>123.0</ele><time>2026-05-03T17:29:27Z</time></trkpt><trkpt lat="43.89731580246538" lon="11.188145841606525"><ele>122.5</ele><time>2026-05-03T17:29:28Z</time></trkpt><trkpt lat="43.89718424394301" lon="11.18809934201597"><ele>122.0</ele><time>2026-05-03T17:29:29Z</time></trkpt><trkpt lat="43.89703161437461" lon="11.18809003651485"><ele>121.5</ele><time>2026-05-03T17:29:30Z</time></trkpt><trkpt lat="43.8968822186672" lon="11.188050943494853"><ele>121.0</ele><time>2026-05-03T17:29:31Z</time></trkpt><trkpt lat="43.89672825065904" lon="11.18801440433405"><ele>121.0</ele><time>2026-05-03T17:29:32Z</time></trkpt><trkpt lat="43.896568529541526" lon="11.187972039996376"><ele>121.0</ele><time>2026-05-03T17:29:33Z</time></trkpt><trkpt lat="43.89640297378543" lon="11.187919832666676"><ele>121.0</ele><time>2026-05-03T17:29:34Z</time></trkpt><trkpt lat="43.896236121151055" lon="11.187857431014312"><ele>121.0</ele><time>2026-05-03T17:29:35Z</time></trkpt><trkpt lat="43.896064960568765" lon="11.18778396058297"><ele>121.0</ele><time>2026-05-03T17:29:36Z</time></trkpt><trkpt lat="43.895891684993934" lon="11.187695611845768"><ele>121.0</ele><time>2026-05-03T17:29:37Z</time></trkpt><trkpt lat="43.89571561045277" lon="11.187594842609736"><ele>120.0</ele><time>2026-05-03T17:29:38Z</time></trkpt><trkpt lat="43.89554022440502" lon="11.187477350585155"><ele>119.0</ele><time>2026-05-03T17:29:39Z</time></trkpt><trkpt lat="43.89536407071186" lon="11.18734853661748"><ele>118.0</ele><time>2026-05-03T17:29:40Z</time></trkpt><trkpt lat="43.89519377561599" lon="11.187205316781013"><ele>121.33333333333334</ele><time>2026-05-03T17:29:41Z</time></trkpt><trkpt lat="43.89503233604729" lon="11.187051844598473"><ele>124.66666666666666</ele><time>2026-05-03T17:29:42Z</time></trkpt><trkpt lat="43.89488304486935" lon="11.18688528590768"><ele>128.0</ele><time>2026-05-03T17:29:43Z</time></trkpt><trkpt lat="43.8947450960667" lon="11.18671117554315"><ele>128.0</ele><time>2026-05-03T17:29:44Z</time></trkpt><trkpt lat="43.89461119600979" lon="11.186534334759997"><ele>128.0</ele><time>2026-05-03T17:29:45Z</time></trkpt><trkpt lat="43.89440093239167" lon="11.186359328153632"><ele>128.0</ele><time>2026-05-03T17:29:46Z</time></trkpt><trkpt lat="43.894274240706885" lon="11.186167195378035"><ele>126.0</ele><time>2026-05-03T17:29:47Z</time></trkpt><trkpt lat="43.89414471595776" lon="11.185962605534222"><ele>124.0</ele><time>2026-05-03T17:29:48Z</time></trkpt><trkpt lat="43.89401667374605" lon="11.185758260269806"><ele>122.0</ele><time>2026-05-03T17:29:49Z</time></trkpt><trkpt lat="43.893889786748744" lon="11.185551461118468"><ele>119.33333333333333</ele><time>2026-05-03T17:29:50Z</time></trkpt><trkpt lat="43.89376207578103" lon="11.185344295991259"><ele>116.66666666666666</ele><time>2026-05-03T17:29:51Z</time></trkpt><trkpt lat="43.89363070682842" lon="11.185128690749798"><ele>114.0</ele><time>2026-05-03T17:29:52Z</time></trkpt><trkpt lat="43.89349323824389" lon="11.184912410824893"><ele>113.0</ele><time>2026-05-03T17:29:53Z</time></trkpt><trkpt lat="43.89336020502226" lon="11.184690522046395"><ele>112.0</ele><time>2026-05-03T17:29:54Z</time></trkpt><trkpt lat="43.893225078746376" lon="11.184476929223022"><ele>111.0</ele><time>2026-05-03T17:29:55Z</time></trkpt><trkpt lat="43.89308575037909" lon="11.18426679584169"><ele>111.0</ele><time>2026-05-03T17:29:56Z</time></trkpt><trkpt lat="43.89294746521549" lon="11.184075511046638"><ele>111.0</ele><time>2026-05-03T17:29:57Z</time></trkpt><trkpt lat="43.892809935174064" lon="11.183895873286886"><ele>111.0</ele><time>2026-05-03T17:29:58Z</time></trkpt><trkpt lat="43.89267701176421" lon="11.183723059962528"><ele>110.66666666666666</ele><time>2026-05-03T17:29:59Z</time></trkpt><trkpt lat="43.89253734141101" lon="11.183562211935765"><ele>110.33333333333333</ele><time>2026-05-03T17:30:00Z</time></trkpt><trkpt lat="43.892401389886054" lon="11.183423324536259"><ele>110.0</ele><time>2026-05-03T17:30:01Z</time></trkpt><trkpt lat="43.89227549899223" lon="11.183313429699002"><ele>110.0</ele><time>2026-05-03T17:30:02Z</time></trkpt><trkpt lat="43.89217608386684" lon="11.183211696653117"><ele>110.0</ele><time>2026-05-03T17:30:03Z</time></trkpt><trkpt lat="43.89211252470846" lon="11.183123635868693"><ele>110.0</ele><time>2026-05-03T17:30:04Z</time></trkpt><trkpt lat="43.89201013620913" lon="11.183070465124151"><ele>110.0</ele><time>2026-05-03T17:30:05Z</time></trkpt><trkpt lat="43.891855838048144" lon="11.183013095383208"><ele>108.0</ele><time>2026-05-03T17:30:06Z</time></trkpt><trkpt lat="43.891677244798956" lon="11.182918323705524"><ele>106.0</ele><time>2026-05-03T17:30:07Z</time></trkpt><trkpt lat="43.89145402924263" lon="11.18281104518123"><ele>104.0</ele><time>2026-05-03T17:30:08Z</time></trkpt><trkpt lat="43.89121254071546" lon="11.182721126164221"><ele>104.0</ele><time>2026-05-03T17:30:09Z</time></trkpt><trkpt lat="43.890936908219516" lon="11.18265129601311"><ele>104.0</ele><time>2026-05-03T17:30:10Z</time></trkpt><trkpt lat="43.89064077150025" lon="11.182600566103268"><ele>103.5</ele><time>2026-05-03T17:30:11Z</time></trkpt><trkpt lat="43.890324282934515" lon="11.182567839812876"><ele>103.0</ele><time>2026-05-03T17:30:12Z</time></trkpt><trkpt lat="43.89001104415377" lon="11.182541291483735"><ele>102.0</ele><time>2026-05-03T17:30:13Z</time></trkpt><trkpt lat="43.88972589067908" lon="11.182517515142269"><ele>101.0</ele><time>2026-05-03T17:30:14Z</time></trkpt><trkpt lat="43.889480724831294" lon="11.182495908192406"><ele>101.0</ele><time>2026-05-03T17:30:15Z</time></trkpt><trkpt lat="43.88927242459724" lon="11.182476975489708"><ele>101.0</ele><time>2026-05-03T17:30:16Z</time></trkpt><trkpt lat="43.889084614711855" lon="11.18245948307582"><ele>101.0</ele><time>2026-05-03T17:30:17Z</time></trkpt><trkpt lat="43.88890435947665" lon="11.18244639217382"><ele>101.33333333333333</ele><time>2026-05-03T17:30:18Z</time></trkpt><trkpt lat="43.888718738796925" lon="11.182430834816564"><ele>101.66666666666666</ele><time>2026-05-03T17:30:19Z</time></trkpt><trkpt lat="43.88852401094733" lon="11.18240672762297"><ele>102.0</ele><time>2026-05-03T17:30:20Z</time></trkpt><trkpt lat="43.88832026362281" lon="11.182358457858438"><ele>98.0</ele><time>2026-05-03T17:30:21Z</time></trkpt><trkpt lat="43.888105190831205" lon="11.1823092093432"><ele>94.0</ele><time>2026-05-03T17:30:22Z</time></trkpt><trkpt lat="43.88785640190279" lon="11.182247621384501"><ele>94.0</ele><time>2026-05-03T17:30:23Z</time></trkpt><trkpt lat="43.8875963507095" lon="11.182187899148596"><ele>94.0</ele><time>2026-05-03T17:30:24Z</time></trkpt><trkpt lat="43.88736778116068" lon="11.182132909783062"><ele>94.0</ele><time>2026-05-03T17:30:25Z</time></trkpt><trkpt lat="43.88716115313406" lon="11.182084688860149"><ele>94.0</ele><time>2026-05-03T17:30:26Z</time></trkpt><trkpt lat="43.886965796628715" lon="11.182036009331703"><ele>94.0</ele><time>2026-05-03T17:30:27Z</time></trkpt><trkpt lat="43.88678323382552" lon="11.181973626969583"><ele>94.0</ele><time>2026-05-03T17:30:28Z</time></trkpt><trkpt lat="43.88662222535347" lon="11.181858201779978"><ele>94.0</ele><time>2026-05-03T17:30:29Z</time></trkpt><trkpt lat="43.886458783727576" lon="11.18174444499537"><ele>94.0</ele><time>2026-05-03T17:30:30Z</time></trkpt><trkpt lat="43.886291969765814" lon="11.181636148127076"><ele>94.0</ele><time>2026-05-03T17:30:31Z</time></trkpt><trkpt lat="43.8861319583478" lon="11.181516103022727"><ele>94.0</ele><time>2026-05-03T17:30:32Z</time></trkpt><trkpt lat="43.885976170965954" lon="11.181415525856085"><ele>94.0</ele><time>2026-05-03T17:30:33Z</time></trkpt><trkpt lat="43.88581681614908" lon="11.181315336941289"><ele>93.0</ele><time>2026-05-03T17:30:34Z</time></trkpt><trkpt lat="43.88565169363977" lon="11.181223881119312"><ele>92.0</ele><time>2026-05-03T17:30:35Z</time></trkpt><trkpt lat="43.88546805933053" lon="11.181146369159753"><ele>91.0</ele><time>2026-05-03T17:30:36Z</time></trkpt><trkpt lat="43.88526522134301" lon="11.181060205674349"><ele>91.0</ele><time>2026-05-03T17:30:37Z</time></trkpt><trkpt lat="43.88501359400382" lon="11.180990437977808"><ele>91.0</ele><time>2026-05-03T17:30:38Z</time></trkpt><trkpt lat="43.8847537599727" lon="11.18095177489873"><ele>91.0</ele><time>2026-05-03T17:30:39Z</time></trkpt><trkpt lat="43.88453162695931" lon="11.18095115358172"><ele>91.0</ele><time>2026-05-03T17:30:40Z</time></trkpt><trkpt lat="43.88435001148285" lon="11.180913172146939"><ele>91.0</ele><time>2026-05-03T17:30:41Z</time></trkpt><trkpt lat="43.88420589833012" lon="11.180899558757089"><ele>91.0</ele><time>2026-05-03T17:30:42Z</time></trkpt><trkpt lat="43.88409219401488" lon="11.18088867738483"><ele>91.0</ele><time>2026-05-03T17:30:43Z</time></trkpt><trkpt lat="43.883990082161716" lon="11.180896716720705"><ele>91.0</ele><time>2026-05-03T17:30:44Z</time></trkpt><trkpt lat="43.883913400057914" lon="11.180883055747474"><ele>91.0</ele><time>2026-05-03T17:30:45Z</time></trkpt><trkpt lat="43.88384277600681" lon="11.180866843083765"><ele>91.0</ele><time>2026-05-03T17:30:46Z</time></trkpt><trkpt lat="43.883779138935004" lon="11.180837332519278"><ele>91.0</ele><time>2026-05-03T17:30:47Z</time></trkpt><trkpt lat="43.88372294543174" lon="11.1807851377523"><ele>91.0</ele><time>2026-05-03T17:30:48Z</time></trkpt><trkpt lat="43.88365699739252" lon="11.180715457482822"><ele>91.0</ele><time>2026-05-03T17:30:49Z</time></trkpt><trkpt lat="43.883585758023585" lon="11.180671975863335"><ele>91.0</ele><time>2026-05-03T17:30:50Z</time></trkpt><trkpt lat="43.88350520429735" lon="11.180659481737674"><ele>91.0</ele><time>2026-05-03T17:30:51Z</time></trkpt><trkpt lat="43.88341845798229" lon="11.180693726655024"><ele>91.0</ele><time>2026-05-03T17:30:52Z</time></trkpt><trkpt lat="43.88332686517046" lon="11.180734706662344"><ele>91.0</ele><time>2026-05-03T17:30:53Z</time></trkpt><trkpt lat="43.88322988536568" lon="11.180703920427444"><ele>91.0</ele><time>2026-05-03T17:30:54Z</time></trkpt><trkpt lat="43.88312177931092" lon="11.180655500915643"><ele>91.0</ele><time>2026-05-03T17:30:55Z</time></trkpt><trkpt lat="43.883003699268684" lon="11.18061001329988"><ele>91.0</ele><time>2026-05-03T17:30:56Z</time></trkpt><trkpt lat="43.882886979060935" lon="11.180553069890276"><ele>91.0</ele><time>2026-05-03T17:30:57Z</time></trkpt><trkpt lat="43.88277506039208" lon="11.18050592124249"><ele>91.0</ele><time>2026-05-03T17:30:58Z</time></trkpt><trkpt lat="43.88267208398236" lon="11.180462147141387"><ele>91.0</ele><time>2026-05-03T17:30:59Z</time></trkpt><trkpt lat="43.88257426827038" lon="11.180417181222145"><ele>91.0</ele><time>2026-05-03T17:31:00Z</time></trkpt><trkpt lat="43.88247770856126" lon="11.180375796725944"><ele>91.0</ele><time>2026-05-03T17:31:01Z</time></trkpt><trkpt lat="43.88238055783218" lon="11.18033779359025"><ele>91.0</ele><time>2026-05-03T17:31:02Z</time></trkpt><trkpt lat="43.882276879326156" lon="11.180305190397029"><ele>91.0</ele><time>2026-05-03T17:31:03Z</time></trkpt><trkpt lat="43.88217343016353" lon="11.180276948595397"><ele>91.0</ele><time>2026-05-03T17:31:04Z</time></trkpt><trkpt lat="43.882080874316244" lon="11.180251953727009"><ele>91.0</ele><time>2026-05-03T17:31:05Z</time></trkpt><trkpt lat="43.88200469384982" lon="11.180224913845562"><ele>91.0</ele><time>2026-05-03T17:31:06Z</time></trkpt><trkpt lat="43.88194503117352" lon="11.180193985980797"><ele>91.0</ele><time>2026-05-03T17:31:07Z</time></trkpt><trkpt lat="43.881886877305874" lon="11.180148405803317"><ele>91.0</ele><time>2026-05-03T17:31:10Z</time></trkpt><trkpt lat="43.88175487417282" lon="11.180090938236889"><ele>90.25</ele><time>2026-05-03T17:31:12Z</time></trkpt><trkpt lat="43.8816700565444" lon="11.180124754897722"><ele>89.5</ele><time>2026-05-03T17:31:13Z</time></trkpt><trkpt lat="43.88158823906057" lon="11.180228595339353"><ele>88.75</ele><time>2026-05-03T17:31:14Z</time></trkpt><trkpt lat="43.88149788616201" lon="11.18035962688918"><ele>88.0</ele><time>2026-05-03T17:31:15Z</time></trkpt><trkpt lat="43.88139435401314" lon="11.180484570673583"><ele>88.0</ele><time>2026-05-03T17:31:16Z</time></trkpt><trkpt lat="43.88123057721194" lon="11.180492145714041"><ele>88.0</ele><time>2026-05-03T17:31:17Z</time></trkpt><trkpt lat="43.88109036492146" lon="11.180488474690433"><ele>88.0</ele><time>2026-05-03T17:31:18Z</time></trkpt><trkpt lat="43.880961114476904" lon="11.180459571835442"><ele>88.0</ele><time>2026-05-03T17:31:19Z</time></trkpt><trkpt lat="43.88084515889526" lon="11.180411018038232"><ele>87.75</ele><time>2026-05-03T17:31:20Z</time></trkpt><trkpt lat="43.88072812932968" lon="11.180359026170544"><ele>87.5</ele><time>2026-05-03T17:31:21Z</time></trkpt><trkpt lat="43.880613852153104" lon="11.180294370188719"><ele>87.25</ele><time>2026-05-03T17:31:22Z</time></trkpt><trkpt lat="43.88049821886491" lon="11.180216353248168"><ele>87.0</ele><time>2026-05-03T17:31:23Z</time></trkpt><trkpt lat="43.88038930250367" lon="11.180132447078904"><ele>87.0</ele><time>2026-05-03T17:31:24Z</time></trkpt><trkpt lat="43.880280407928396" lon="11.18003168932506"><ele>87.0</ele><time>2026-05-03T17:31:25Z</time></trkpt><trkpt lat="43.880157833109905" lon="11.179910951417352"><ele>87.0</ele><time>2026-05-03T17:31:26Z</time></trkpt><trkpt lat="43.8800630615633" lon="11.17974846277761"><ele>87.0</ele><time>2026-05-03T17:31:27Z</time></trkpt><trkpt lat="43.879972996779756" lon="11.179601903207999"><ele>87.0</ele><time>2026-05-03T17:31:28Z</time></trkpt><trkpt lat="43.87988713442817" lon="11.179423180717578"><ele>87.0</ele><time>2026-05-03T17:31:29Z</time></trkpt><trkpt lat="43.87980676625439" lon="11.179233227618667"><ele>87.0</ele><time>2026-05-03T17:31:30Z</time></trkpt><trkpt lat="43.87971424433507" lon="11.179046524483436"><ele>85.33333333333333</ele><time>2026-05-03T17:31:31Z</time></trkpt><trkpt lat="43.879613097237886" lon="11.178847322350817"><ele>83.66666666666666</ele><time>2026-05-03T17:31:32Z</time></trkpt><trkpt lat="43.879509661049845" lon="11.178621330867513"><ele>82.0</ele><time>2026-05-03T17:31:33Z</time></trkpt><trkpt lat="43.8793960700551" lon="11.17838151784135"><ele>82.0</ele><time>2026-05-03T17:31:34Z</time></trkpt><trkpt lat="43.87927830863957" lon="11.17815388604133"><ele>82.0</ele><time>2026-05-03T17:31:35Z</time></trkpt><trkpt lat="43.879158279273376" lon="11.17794457704202"><ele>82.0</ele><time>2026-05-03T17:31:36Z</time></trkpt><trkpt lat="43.87904719345026" lon="11.17775786532953"><ele>82.5</ele><time>2026-05-03T17:31:37Z</time></trkpt><trkpt lat="43.878944787493154" lon="11.177594085280958"><ele>83.0</ele><time>2026-05-03T17:31:38Z</time></trkpt><trkpt lat="43.87885033373654" lon="11.177443579091218"><ele>83.5</ele><time>2026-05-03T17:31:39Z</time></trkpt><trkpt lat="43.87875323270952" lon="11.177291956554223"><ele>84.0</ele><time>2026-05-03T17:31:40Z</time></trkpt><trkpt lat="43.878646497046056" lon="11.177131649550075"><ele>84.33333333333333</ele><time>2026-05-03T17:31:41Z</time></trkpt><trkpt lat="43.878535729391444" lon="11.17697140481589"><ele>84.66666666666666</ele><time>2026-05-03T17:31:42Z</time></trkpt><trkpt lat="43.87842556437265" lon="11.176815856374144"><ele>85.0</ele><time>2026-05-03T17:31:43Z</time></trkpt><trkpt lat="43.8783139305606" lon="11.17666001670979"><ele>85.0</ele><time>2026-05-03T17:31:44Z</time></trkpt><trkpt lat="43.878204566282406" lon="11.176529787371697"><ele>85.0</ele><time>2026-05-03T17:31:45Z</time></trkpt><trkpt lat="43.878088427555745" lon="11.176390240742956"><ele>85.0</ele><time>2026-05-03T17:31:46Z</time></trkpt><trkpt lat="43.877964475323544" lon="11.176256887717896"><ele>85.0</ele><time>2026-05-03T17:31:47Z</time></trkpt><trkpt lat="43.87784024326015" lon="11.17614320026885"><ele>85.0</ele><time>2026-05-03T17:31:48Z</time></trkpt><trkpt lat="43.87771610787378" lon="11.176040108288229"><ele>85.0</ele><time>2026-05-03T17:31:49Z</time></trkpt><trkpt lat="43.87759349578098" lon="11.175935613237789"><ele>85.0</ele><time>2026-05-03T17:31:50Z</time></trkpt><trkpt lat="43.87747147104848" lon="11.175826530532737"><ele>85.0</ele><time>2026-05-03T17:31:51Z</time></trkpt><trkpt lat="43.87734893545356" lon="11.17572168409321"><ele>85.0</ele><time>2026-05-03T17:31:52Z</time></trkpt><trkpt lat="43.87722131220525" lon="11.17561584964583"><ele>85.0</ele><time>2026-05-03T17:31:53Z</time></trkpt><trkpt lat="43.87710277846071" lon="11.175488158035826"><ele>85.0</ele><time>2026-05-03T17:31:54Z</time></trkpt><trkpt lat="43.87697784619596" lon="11.175380087078535"><ele>85.0</ele><time>2026-05-03T17:31:55Z</time></trkpt><trkpt lat="43.87686030423483" lon="11.175278409046273"><ele>85.0</ele><time>2026-05-03T17:31:56Z</time></trkpt><trkpt lat="43.87675114593688" lon="11.175184497099666"><ele>85.0</ele><time>2026-05-03T17:31:57Z</time></trkpt><trkpt lat="43.87663136317647" lon="11.175107573750733"><ele>85.0</ele><time>2026-05-03T17:31:58Z</time></trkpt><trkpt lat="43.87650827555209" lon="11.175001565209676"><ele>85.0</ele><time>2026-05-03T17:31:59Z</time></trkpt><trkpt lat="43.87638178598566" lon="11.174866701786126"><ele>85.0</ele><time>2026-05-03T17:32:00Z</time></trkpt><trkpt lat="43.8762349565077" lon="11.174739507648466"><ele>85.0</ele><time>2026-05-03T17:32:01Z</time></trkpt><trkpt lat="43.876083816681096" lon="11.174608159908287"><ele>83.66666666666666</ele><time>2026-05-03T17:32:02Z</time></trkpt><trkpt lat="43.87593420204512" lon="11.174493306643484"><ele>82.33333333333333</ele><time>2026-05-03T17:32:03Z</time></trkpt><trkpt lat="43.875804294442005" lon="11.174379265122099"><ele>81.0</ele><time>2026-05-03T17:32:04Z</time></trkpt><trkpt lat="43.875684496533054" lon="11.174263715134389"><ele>81.0</ele><time>2026-05-03T17:32:05Z</time></trkpt><trkpt lat="43.875565234081584" lon="11.174143782350754"><ele>81.0</ele><time>2026-05-03T17:32:06Z</time></trkpt><trkpt lat="43.87543497690347" lon="11.174009871383229"><ele>81.0</ele><time>2026-05-03T17:32:07Z</time></trkpt><trkpt lat="43.87529461955866" lon="11.173865425307728"><ele>81.66666666666667</ele><time>2026-05-03T17:32:08Z</time></trkpt><trkpt lat="43.875154020000714" lon="11.173724463496352"><ele>82.33333333333334</ele><time>2026-05-03T17:32:09Z</time></trkpt><trkpt lat="43.87500125607609" lon="11.17355689874171"><ele>83.0</ele><time>2026-05-03T17:32:10Z</time></trkpt><trkpt lat="43.87481127081166" lon="11.173395844945395"><ele>83.0</ele><time>2026-05-03T17:32:11Z</time></trkpt><trkpt lat="43.874599118619884" lon="11.173229405650783"><ele>83.0</ele><time>2026-05-03T17:32:12Z</time></trkpt><trkpt lat="43.87437895521733" lon="11.173062394684814"><ele>81.66666666666667</ele><time>2026-05-03T17:32:13Z</time></trkpt><trkpt lat="43.874179529987316" lon="11.172923893179568"><ele>80.33333333333333</ele><time>2026-05-03T17:32:14Z</time></trkpt><trkpt lat="43.874012922182786" lon="11.172797780952664"><ele>79.0</ele><time>2026-05-03T17:32:15Z</time></trkpt><trkpt lat="43.87386075016151" lon="11.172693557488637"><ele>79.0</ele><time>2026-05-03T17:32:16Z</time></trkpt><trkpt lat="43.87372045666817" lon="11.172594980017422"><ele>79.0</ele><time>2026-05-03T17:32:17Z</time></trkpt><trkpt lat="43.87359139543115" lon="11.172482939659872"><ele>79.0</ele><time>2026-05-03T17:32:18Z</time></trkpt><trkpt lat="43.87347354353015" lon="11.172351185679764"><ele>77.66666666666666</ele><time>2026-05-03T17:32:19Z</time></trkpt><trkpt lat="43.87337782144386" lon="11.172189017370064"><ele>76.33333333333333</ele><time>2026-05-03T17:32:20Z</time></trkpt><trkpt lat="43.87326666235334" lon="11.172017580102994"><ele>75.0</ele><time>2026-05-03T17:32:21Z</time></trkpt><trkpt lat="43.87312855321481" lon="11.171831766152039"><ele>75.0</ele><time>2026-05-03T17:32:22Z</time></trkpt><trkpt lat="43.872979434655406" lon="11.17158806966914"><ele>75.0</ele><time>2026-05-03T17:32:23Z</time></trkpt><trkpt lat="43.87281998153003" lon="11.171312679530265"><ele>74.5</ele><time>2026-05-03T17:32:24Z</time></trkpt><trkpt lat="43.87265196249672" lon="11.171046001819947"><ele>74.0</ele><time>2026-05-03T17:32:25Z</time></trkpt><trkpt lat="43.872503956418605" lon="11.170811017706733"><ele>73.75</ele><time>2026-05-03T17:32:26Z</time></trkpt><trkpt lat="43.872399900338664" lon="11.170645408836695"><ele>73.5</ele><time>2026-05-03T17:32:27Z</time></trkpt><trkpt lat="43.87231369632653" lon="11.17050784083838"><ele>73.25</ele><time>2026-05-03T17:32:28Z</time></trkpt><trkpt lat="43.87223675132882" lon="11.170384182310656"><ele>73.0</ele><time>2026-05-03T17:32:29Z</time></trkpt><trkpt lat="43.87216759246373" lon="11.17027303877056"><ele>73.0</ele><time>2026-05-03T17:32:30Z</time></trkpt><trkpt lat="43.872109984621765" lon="11.170180457446158"><ele>73.0</ele><time>2026-05-03T17:32:31Z</time></trkpt><trkpt lat="43.87205747859307" lon="11.170112855968895"><ele>73.0</ele><time>2026-05-03T17:32:32Z</time></trkpt><trkpt lat="43.87203430345048" lon="11.170022939539168"><ele>73.0</ele><time>2026-05-03T17:32:33Z</time></trkpt><trkpt lat="43.87203252868547" lon="11.169923614119575"><ele>73.0</ele><time>2026-05-03T17:32:34Z</time></trkpt><trkpt lat="43.872026915187085" lon="11.16981931292609"><ele>73.0</ele><time>2026-05-03T17:32:35Z</time></trkpt><trkpt lat="43.87199422402992" lon="11.16973232848241"><ele>73.0</ele><time>2026-05-03T17:32:36Z</time></trkpt><trkpt lat="43.87191187591832" lon="11.169691784953839"><ele>72.83333333333333</ele><time>2026-05-03T17:32:37Z</time></trkpt><trkpt lat="43.87184073317658" lon="11.169699001970395"><ele>72.66666666666666</ele><time>2026-05-03T17:32:38Z</time></trkpt><trkpt lat="43.87177122630913" lon="11.169760765045114"><ele>72.5</ele><time>2026-05-03T17:32:39Z</time></trkpt><trkpt lat="43.871734761091794" lon="11.169865097249426"><ele>72.33333333333333</ele><time>2026-05-03T17:32:40Z</time></trkpt><trkpt lat="43.87172993426631" lon="11.169961997932843"><ele>72.16666666666667</ele><time>2026-05-03T17:32:41Z</time></trkpt><trkpt lat="43.87176592356101" lon="11.170082610724432"><ele>72.0</ele><time>2026-05-03T17:32:43Z</time></trkpt><trkpt lat="43.87170905572918" lon="11.170190946389159"><ele>73.75</ele><time>2026-05-03T17:32:44Z</time></trkpt><trkpt lat="43.87167167246801" lon="11.170290618576011"><ele>75.5</ele><time>2026-05-03T17:32:45Z</time></trkpt><trkpt lat="43.87161135218897" lon="11.170416656610824"><ele>77.25</ele><time>2026-05-03T17:32:46Z</time></trkpt><trkpt lat="43.87154375778141" lon="11.170547114436134"><ele>79.0</ele><time>2026-05-03T17:32:47Z</time></trkpt><trkpt lat="43.87145345352983" lon="11.170715290611847"><ele>79.0</ele><time>2026-05-03T17:32:48Z</time></trkpt><trkpt lat="43.87135297654512" lon="11.17091571287813"><ele>79.0</ele><time>2026-05-03T17:32:49Z</time></trkpt><trkpt lat="43.871213105986975" lon="11.171126690276363"><ele>79.0</ele><time>2026-05-03T17:32:50Z</time></trkpt><trkpt lat="43.87105704288151" lon="11.171363187682378"><ele>83.0</ele><time>2026-05-03T17:32:51Z</time></trkpt><trkpt lat="43.87089240724493" lon="11.171627772001514"><ele>87.0</ele><time>2026-05-03T17:32:52Z</time></trkpt><trkpt lat="43.870696916434305" lon="11.171878986576575"><ele>87.0</ele><time>2026-05-03T17:32:53Z</time></trkpt><trkpt lat="43.870496981451524" lon="11.172113663971674"><ele>87.0</ele><time>2026-05-03T17:32:54Z</time></trkpt><trkpt lat="43.87029249376059" lon="11.172328306404856"><ele>94.0</ele><time>2026-05-03T17:32:55Z</time></trkpt><trkpt lat="43.87008273805724" lon="11.172532093128705"><ele>101.0</ele><time>2026-05-03T17:32:56Z</time></trkpt><trkpt lat="43.869862358137205" lon="11.172722631071048"><ele>101.0</ele><time>2026-05-03T17:32:57Z</time></trkpt><trkpt lat="43.8696388436103" lon="11.172893507204499"><ele>101.0</ele><time>2026-05-03T17:32:58Z</time></trkpt><trkpt lat="43.86940562531597" lon="11.173053553851759"><ele>113.0</ele><time>2026-05-03T17:32:59Z</time></trkpt><trkpt lat="43.86915791984109" lon="11.1732097227386"><ele>125.0</ele><time>2026-05-03T17:33:00Z</time></trkpt><trkpt lat="43.86888886977379" lon="11.173364727433968"><ele>125.0</ele><time>2026-05-03T17:33:01Z</time></trkpt><trkpt lat="43.8686031514597" lon="11.173525388874872"><ele>125.0</ele><time>2026-05-03T17:33:02Z</time></trkpt><trkpt lat="43.86830567488991" lon="11.173693343394438"><ele>128.0</ele><time>2026-05-03T17:33:03Z</time></trkpt><trkpt lat="43.868000494526946" lon="11.173863053632125"><ele>131.0</ele><time>2026-05-03T17:33:04Z</time></trkpt><trkpt lat="43.867708292112354" lon="11.17401813710289"><ele>122.5</ele><time>2026-05-03T17:33:05Z</time></trkpt><trkpt lat="43.86743336152617" lon="11.174153839643525"><ele>114.0</ele><time>2026-05-03T17:33:06Z</time></trkpt><trkpt lat="43.867146833169045" lon="11.174285861559206"><ele>114.0</ele><time>2026-05-03T17:33:07.068Z</time></trkpt><trkpt lat="43.866904204708476" lon="11.17441531758391"><ele>114.0</ele><time>2026-05-03T17:33:08.043Z</time></trkpt><trkpt lat="43.86666395089965" lon="11.174552592395093"><ele>84.0</ele><time>2026-05-03T17:33:09.032Z</time></trkpt><trkpt lat="43.86561714198671" lon="11.175195136161326"><ele>84.0</ele><time>2026-05-03T17:33:15Z</time></trkpt><trkpt lat="43.86540449712196" lon="11.175284577520225"><ele>84.0</ele><time>2026-05-03T17:33:16Z</time></trkpt><trkpt lat="43.86513170478353" lon="11.175454339323192"><ele>84.5</ele><time>2026-05-03T17:33:17Z</time></trkpt><trkpt lat="43.86492632284547" lon="11.175563743500902"><ele>85.0</ele><time>2026-05-03T17:33:18Z</time></trkpt><trkpt lat="43.86466655473984" lon="11.175690122827131"><ele>85.0</ele><time>2026-05-03T17:33:19Z</time></trkpt><trkpt lat="43.86440602097721" lon="11.175819199952729"><ele>85.0</ele><time>2026-05-03T17:33:20Z</time></trkpt><trkpt lat="43.864147739954774" lon="11.175889208985348"><ele>84.0</ele><time>2026-05-03T17:33:21Z</time></trkpt><trkpt lat="43.86394429774445" lon="11.175978830621283"><ele>83.0</ele><time>2026-05-03T17:33:22Z</time></trkpt><trkpt lat="43.86375969756031" lon="11.1760560760483"><ele>82.0</ele><time>2026-05-03T17:33:23Z</time></trkpt><trkpt lat="43.86359641801593" lon="11.176120974079282"><ele>81.25</ele><time>2026-05-03T17:33:24Z</time></trkpt><trkpt lat="43.863443794207384" lon="11.176163628891851"><ele>80.5</ele><time>2026-05-03T17:33:25Z</time></trkpt><trkpt lat="43.86330919713929" lon="11.176180554487487"><ele>79.75</ele><time>2026-05-03T17:33:26Z</time></trkpt><trkpt lat="43.863202702172856" lon="11.176168967090513"><ele>79.0</ele><time>2026-05-03T17:33:27Z</time></trkpt><trkpt lat="43.8631209213866" lon="11.176129483476055"><ele>79.0</ele><time>2026-05-03T17:33:28Z</time></trkpt><trkpt lat="43.86305597673217" lon="11.176059480661504"><ele>79.0</ele><time>2026-05-03T17:33:29Z</time></trkpt><trkpt lat="43.86299240064082" lon="11.17598707153714"><ele>79.0</ele><time>2026-05-03T17:33:30Z</time></trkpt><trkpt lat="43.8629054043018" lon="11.17595872142915"><ele>79.0</ele><time>2026-05-03T17:33:31Z</time></trkpt><trkpt lat="43.8628221494467" lon="11.175981972474046"><ele>79.0</ele><time>2026-05-03T17:33:32Z</time></trkpt><trkpt lat="43.86277263590956" lon="11.176071404662363"><ele>79.0</ele><time>2026-05-03T17:33:33Z</time></trkpt><trkpt lat="43.8627643916027" lon="11.176192942124462"><ele>79.0</ele><time>2026-05-03T17:33:34Z</time></trkpt><trkpt lat="43.86280330467959" lon="11.176330207892075"><ele>79.0</ele><time>2026-05-03T17:33:35Z</time></trkpt><trkpt lat="43.8628440773754" lon="11.176475495775515"><ele>79.0</ele><time>2026-05-03T17:33:36Z</time></trkpt><trkpt lat="43.86285489291218" lon="11.176637479423972"><ele>79.0</ele><time>2026-05-03T17:33:37Z</time></trkpt><trkpt lat="43.86282467160186" lon="11.176860229481996"><ele>79.0</ele><time>2026-05-03T17:33:38Z</time></trkpt><trkpt lat="43.862791963125304" lon="11.177058477679997"><ele>79.0</ele><time>2026-05-03T17:33:39Z</time></trkpt><trkpt lat="43.86278269659756" lon="11.177262481325775"><ele>79.0</ele><time>2026-05-03T17:33:40Z</time></trkpt><trkpt lat="43.86275698614392" lon="11.17751304416759"><ele>79.0</ele><time>2026-05-03T17:33:41Z</time></trkpt><trkpt lat="43.8626697587585" lon="11.177655531685614"><ele>79.0</ele><time>2026-05-03T17:33:42Z</time></trkpt><trkpt lat="43.86254945468266" lon="11.177775735335858"><ele>79.0</ele><time>2026-05-03T17:33:43Z</time></trkpt><trkpt lat="43.86241957120397" lon="11.17787023731938"><ele>79.0</ele><time>2026-05-03T17:33:44Z</time></trkpt><trkpt lat="43.86227386473934" lon="11.177966338189304"><ele>79.0</ele><time>2026-05-03T17:33:45Z</time></trkpt><trkpt lat="43.86211972721629" lon="11.178074925309927"><ele>79.0</ele><time>2026-05-03T17:33:46Z</time></trkpt><trkpt lat="43.86196900876913" lon="11.178182978788112"><ele>79.0</ele><time>2026-05-03T17:33:47Z</time></trkpt><trkpt lat="43.861837911766024" lon="11.1782692623149"><ele>79.75</ele><time>2026-05-03T17:33:48Z</time></trkpt><trkpt lat="43.86172356610544" lon="11.17833260299766"><ele>80.5</ele><time>2026-05-03T17:33:49Z</time></trkpt><trkpt lat="43.86161468460267" lon="11.178383121226174"><ele>81.25</ele><time>2026-05-03T17:33:50Z</time></trkpt><trkpt lat="43.86150012452811" lon="11.17841724856079"><ele>82.0</ele><time>2026-05-03T17:33:51Z</time></trkpt><trkpt lat="43.861377744508204" lon="11.178440413297285"><ele>82.0</ele><time>2026-05-03T17:33:52Z</time></trkpt><trkpt lat="43.86124716610321" lon="11.178469249316718"><ele>82.0</ele><time>2026-05-03T17:33:53Z</time></trkpt><trkpt lat="43.861089869314064" lon="11.178472660142937"><ele>82.0</ele><time>2026-05-03T17:33:54Z</time></trkpt><trkpt lat="43.860900137156214" lon="11.178500855533342"><ele>82.0</ele><time>2026-05-03T17:33:55Z</time></trkpt><trkpt lat="43.860684832712025" lon="11.178552672808483"><ele>82.0</ele><time>2026-05-03T17:33:56Z</time></trkpt><trkpt lat="43.8604726734598" lon="11.178582823921067"><ele>82.0</ele><time>2026-05-03T17:33:57Z</time></trkpt><trkpt lat="43.86025598074115" lon="11.178633295400882"><ele>81.5</ele><time>2026-05-03T17:33:58Z</time></trkpt><trkpt lat="43.8600298139689" lon="11.178702534916825"><ele>81.0</ele><time>2026-05-03T17:33:59Z</time></trkpt><trkpt lat="43.85981182056967" lon="11.178771043696178"><ele>81.0</ele><time>2026-05-03T17:34:00Z</time></trkpt><trkpt lat="43.85961000498479" lon="11.178831609243652"><ele>81.0</ele><time>2026-05-03T17:34:01Z</time></trkpt><trkpt lat="43.859426767912666" lon="11.178888859302926"><ele>81.0</ele><time>2026-05-03T17:34:02Z</time></trkpt><trkpt lat="43.85925813400179" lon="11.178944979750526"><ele>81.0</ele><time>2026-05-03T17:34:03Z</time></trkpt><trkpt lat="43.85910850422451" lon="11.178989346999352"><ele>81.0</ele><time>2026-05-03T17:34:04Z</time></trkpt><trkpt lat="43.85897580481912" lon="11.17901454074155"><ele>81.0</ele><time>2026-05-03T17:34:05Z</time></trkpt><trkpt lat="43.85885975105635" lon="11.179011687412183"><ele>81.0</ele><time>2026-05-03T17:34:06Z</time></trkpt><trkpt lat="43.85874834560619" lon="11.178976467273229"><ele>81.0</ele><time>2026-05-03T17:34:07Z</time></trkpt><trkpt lat="43.8586455673655" lon="11.178906631435822"><ele>81.0</ele><time>2026-05-03T17:34:08Z</time></trkpt><trkpt lat="43.85855084703818" lon="11.178788784815609"><ele>81.0</ele><time>2026-05-03T17:34:09Z</time></trkpt><trkpt lat="43.858458791611866" lon="11.178612258517592"><ele>81.0</ele><time>2026-05-03T17:34:10Z</time></trkpt><trkpt lat="43.85835925763998" lon="11.178393862691038"><ele>80.25</ele><time>2026-05-03T17:34:11Z</time></trkpt><trkpt lat="43.858266960791035" lon="11.178191745544485"><ele>79.5</ele><time>2026-05-03T17:34:12Z</time></trkpt><trkpt lat="43.85817780308628" lon="11.178030810235004"><ele>78.75</ele><time>2026-05-03T17:34:13Z</time></trkpt><trkpt lat="43.85808076326785" lon="11.177912190918336"><ele>78.0</ele><time>2026-05-03T17:34:14Z</time></trkpt><trkpt lat="43.8579677171249" lon="11.177837387950122"><ele>77.75</ele><time>2026-05-03T17:34:15Z</time></trkpt><trkpt lat="43.857825413584195" lon="11.177819836894901"><ele>77.5</ele><time>2026-05-03T17:34:16Z</time></trkpt><trkpt lat="43.85769471144978" lon="11.177861153616314"><ele>77.25</ele><time>2026-05-03T17:34:17Z</time></trkpt><trkpt lat="43.85756034337785" lon="11.17793046339475"><ele>77.0</ele><time>2026-05-03T17:34:18Z</time></trkpt><trkpt lat="43.85745630376654" lon="11.178081059829617"><ele>76.75</ele><time>2026-05-03T17:34:19Z</time></trkpt><trkpt lat="43.857346656053736" lon="11.178261962375101"><ele>76.5</ele><time>2026-05-03T17:34:20Z</time></trkpt><trkpt lat="43.857225308741505" lon="11.178419359098335"><ele>76.25</ele><time>2026-05-03T17:34:21Z</time></trkpt><trkpt lat="43.8571423075972" lon="11.178516890508515"><ele>76.0</ele><time>2026-05-03T17:34:22Z</time></trkpt><trkpt lat="43.857031115501165" lon="11.178576573928158"><ele>76.0</ele><time>2026-05-03T17:34:23Z</time></trkpt><trkpt lat="43.85689316091109" lon="11.17862166583682"><ele>76.0</ele><time>2026-05-03T17:34:24Z</time></trkpt><trkpt lat="43.85673647574569" lon="11.178678203939027"><ele>76.0</ele><time>2026-05-03T17:34:25Z</time></trkpt><trkpt lat="43.856555440837695" lon="11.178752901996708"><ele>75.33333333333333</ele><time>2026-05-03T17:34:26Z</time></trkpt><trkpt lat="43.85636326671398" lon="11.178835163428676"><ele>74.66666666666667</ele><time>2026-05-03T17:34:27Z</time></trkpt><trkpt lat="43.85619228177462" lon="11.178902795604735"><ele>74.0</ele><time>2026-05-03T17:34:28Z</time></trkpt><trkpt lat="43.85603003055577" lon="11.178949250488019"><ele>74.0</ele><time>2026-05-03T17:34:29Z</time></trkpt><trkpt lat="43.85588234110619" lon="11.178985809692035"><ele>74.0</ele><time>2026-05-03T17:34:30Z</time></trkpt><trkpt lat="43.85574672797299" lon="11.17900899175612"><ele>74.0</ele><time>2026-05-03T17:34:31Z</time></trkpt><trkpt lat="43.855616569443626" lon="11.179015856352176"><ele>74.0</ele><time>2026-05-03T17:34:32Z</time></trkpt><trkpt lat="43.85548092627911" lon="11.178964378007167"><ele>74.0</ele><time>2026-05-03T17:34:33Z</time></trkpt><trkpt lat="43.85533822612674" lon="11.178967729691145"><ele>74.0</ele><time>2026-05-03T17:34:34Z</time></trkpt><trkpt lat="43.85520437549961" lon="11.17899251864056"><ele>74.0</ele><time>2026-05-03T17:34:35Z</time></trkpt><trkpt lat="43.8550807150646" lon="11.179016327982179"><ele>74.0</ele><time>2026-05-03T17:34:36Z</time></trkpt><trkpt lat="43.85496829232653" lon="11.179053618617106"><ele>73.8</ele><time>2026-05-03T17:34:37Z</time></trkpt><trkpt lat="43.854863551423605" lon="11.179081987881277"><ele>73.60000000000001</ele><time>2026-05-03T17:34:38Z</time></trkpt><trkpt lat="43.85476817284654" lon="11.179102958831722"><ele>73.4</ele><time>2026-05-03T17:34:39Z</time></trkpt><trkpt lat="43.854685779758356" lon="11.179104594397565"><ele>73.2</ele><time>2026-05-03T17:34:40Z</time></trkpt><trkpt lat="43.854618565417866" lon="11.17908323267564"><ele>73.0</ele><time>2026-05-03T17:34:41Z</time></trkpt><trkpt lat="43.85451508263626" lon="11.179036388782096"><ele>73.0</ele><time>2026-05-03T17:34:43Z</time></trkpt><trkpt lat="43.854434480729964" lon="11.179066736862532"><ele>73.0</ele><time>2026-05-03T17:34:45Z</time></trkpt><trkpt lat="43.85436837396308" lon="11.179088840542203"><ele>73.0</ele><time>2026-05-03T17:34:47Z</time></trkpt></trkseg><trkseg><trkpt lat="43.85393403325572" lon="11.179194349203463"><ele>73.0</ele><time>2026-05-03T17:54:09.999Z</time></trkpt><trkpt lat="43.85386946757022" lon="11.179197820341477"><ele>73.0</ele><time>2026-05-03T17:54:10.999Z</time></trkpt><trkpt lat="43.85379969195756" lon="11.179204252028825"><ele>73.0</ele><time>2026-05-03T17:54:11.999Z</time></trkpt><trkpt lat="43.85372127193466" lon="11.179212754460115"><ele>73.0</ele><time>2026-05-03T17:54:12.999Z</time></trkpt><trkpt lat="43.85362963799604" lon="11.179221987808024"><ele>73.0</ele><time>2026-05-03T17:54:13.999Z</time></trkpt><trkpt lat="43.85352651568502" lon="11.179236593196526"><ele>73.0</ele><time>2026-05-03T17:54:14.999Z</time></trkpt><trkpt lat="43.85341030471342" lon="11.179255081379441"><ele>72.0</ele><time>2026-05-03T17:54:15.999Z</time></trkpt><trkpt lat="43.85328704009849" lon="11.179270194675208"><ele>71.0</ele><time>2026-05-03T17:54:16.999Z</time></trkpt><trkpt lat="43.853164394151285" lon="11.179285995465897"><ele>70.0</ele><time>2026-05-03T17:54:17.999Z</time></trkpt><trkpt lat="43.85304188227137" lon="11.179300345078712"><ele>69.0</ele><time>2026-05-03T17:54:18.999Z</time></trkpt><trkpt lat="43.85291700258346" lon="11.17932003863093"><ele>69.0</ele><time>2026-05-03T17:54:20Z</time></trkpt><trkpt lat="43.852791066148214" lon="11.179335350306678"><ele>69.0</ele><time>2026-05-03T17:54:21Z</time></trkpt><trkpt lat="43.85266412345967" lon="11.179352808733654"><ele>69.0</ele><time>2026-05-03T17:54:22Z</time></trkpt><trkpt lat="43.85253381940164" lon="11.1793690892207"><ele>69.0</ele><time>2026-05-03T17:54:23Z</time></trkpt><trkpt lat="43.85240150165496" lon="11.179383720507976"><ele>68.5</ele><time>2026-05-03T17:54:24Z</time></trkpt><trkpt lat="43.85226566217807" lon="11.179399896595465"><ele>68.0</ele><time>2026-05-03T17:54:25Z</time></trkpt><trkpt lat="43.85213591765013" lon="11.17941635842097"><ele>67.5</ele><time>2026-05-03T17:54:26Z</time></trkpt><trkpt lat="43.85201878900536" lon="11.17943145028188"><ele>67.0</ele><time>2026-05-03T17:54:27Z</time></trkpt><trkpt lat="43.851908830156646" lon="11.179445400645468"><ele>67.0</ele><time>2026-05-03T17:54:28Z</time></trkpt><trkpt lat="43.85180477831165" lon="11.17945907099135"><ele>67.0</ele><time>2026-05-03T17:54:29Z</time></trkpt><trkpt lat="43.85170326499802" lon="11.17947273284344"><ele>67.0</ele><time>2026-05-03T17:54:30Z</time></trkpt><trkpt lat="43.85159739760675" lon="11.179483421219777"><ele>67.0</ele><time>2026-05-03T17:54:31Z</time></trkpt><trkpt lat="43.85149213283332" lon="11.179499079627425"><ele>67.0</ele><time>2026-05-03T17:54:32Z</time></trkpt><trkpt lat="43.85138070686956" lon="11.179513166631383"><ele>66.5</ele><time>2026-05-03T17:54:33Z</time></trkpt><trkpt lat="43.851265648713216" lon="11.17952748477447"><ele>66.0</ele><time>2026-05-03T17:54:34Z</time></trkpt><trkpt lat="43.851139299908276" lon="11.17954449783569"><ele>65.5</ele><time>2026-05-03T17:54:35Z</time></trkpt><trkpt lat="43.85100503415841" lon="11.179563834024057"><ele>65.0</ele><time>2026-05-03T17:54:36Z</time></trkpt><trkpt lat="43.85086466877712" lon="11.17958418234233"><ele>64.0</ele><time>2026-05-03T17:54:37Z</time></trkpt><trkpt lat="43.85072028522135" lon="11.17960302524595"><ele>63.0</ele><time>2026-05-03T17:54:38Z</time></trkpt><trkpt lat="43.8505722972084" lon="11.1796207537282"><ele>62.0</ele><time>2026-05-03T17:54:39Z</time></trkpt><trkpt lat="43.85043460170011" lon="11.179636505256395"><ele>61.0</ele><time>2026-05-03T17:54:40Z</time></trkpt><trkpt lat="43.85030582098293" lon="11.179651078153256"><ele>61.0</ele><time>2026-05-03T17:54:41Z</time></trkpt><trkpt lat="43.85019074694211" lon="11.179664641408975"><ele>60.99999999999999</ele><time>2026-05-03T17:54:42Z</time></trkpt><trkpt lat="43.85009493146338" lon="11.179672750648487"><ele>60.99999999999999</ele><time>2026-05-03T17:54:43Z</time></trkpt><trkpt lat="43.8500240058059" lon="11.17965868161894"><ele>61.0</ele><time>2026-05-03T17:54:44Z</time></trkpt><trkpt lat="43.84994110669153" lon="11.17961256613956"><ele>61.0</ele><time>2026-05-03T17:54:46Z</time></trkpt><trkpt lat="43.8498598333529" lon="11.179532147428016"><ele>60.199999999999996</ele><time>2026-05-03T17:54:48Z</time></trkpt><trkpt lat="43.84975462112844" lon="11.179464986435196"><ele>59.39999999999999</ele><time>2026-05-03T17:54:50Z</time></trkpt><trkpt lat="43.84966888952688" lon="11.179483774097543"><ele>58.6</ele><time>2026-05-03T17:54:51Z</time></trkpt><trkpt lat="43.84956562838447" lon="11.179538457819671"><ele>57.8</ele><time>2026-05-03T17:54:52Z</time></trkpt><trkpt lat="43.84948443611317" lon="11.179684763164225"><ele>57.0</ele><time>2026-05-03T17:54:53Z</time></trkpt><trkpt lat="43.849390911908756" lon="11.179804735082751"><ele>56.66666666666667</ele><time>2026-05-03T17:54:54Z</time></trkpt><trkpt lat="43.84923093882339" lon="11.179765608886544"><ele>56.333333333333336</ele><time>2026-05-03T17:54:55Z</time></trkpt><trkpt lat="43.84907371747246" lon="11.17980214686321"><ele>56.0</ele><time>2026-05-03T17:54:56Z</time></trkpt><trkpt lat="43.84890338283711" lon="11.179803876041019"><ele>56.0</ele><time>2026-05-03T17:54:57Z</time></trkpt><trkpt lat="43.84872408646689" lon="11.179822268319302"><ele>56.0</ele><time>2026-05-03T17:54:58Z</time></trkpt><trkpt lat="43.84854137824348" lon="11.179847343399803"><ele>56.0</ele><time>2026-05-03T17:54:59Z</time></trkpt><trkpt lat="43.84835465075058" lon="11.17986794534408"><ele>55.66666666666667</ele><time>2026-05-03T17:55:00Z</time></trkpt><trkpt lat="43.848168608966716" lon="11.179892697888716"><ele>55.33333333333333</ele><time>2026-05-03T17:55:01Z</time></trkpt><trkpt lat="43.847989050105426" lon="11.179913135130189"><ele>55.0</ele><time>2026-05-03T17:55:02Z</time></trkpt><trkpt lat="43.84781754076885" lon="11.179931399198034"><ele>55.0</ele><time>2026-05-03T17:55:03Z</time></trkpt><trkpt lat="43.847642812783874" lon="11.17994875191556"><ele>55.0</ele><time>2026-05-03T17:55:04Z</time></trkpt><trkpt lat="43.84746776439263" lon="11.179965112480948"><ele>55.0</ele><time>2026-05-03T17:55:05Z</time></trkpt><trkpt lat="43.84729667364729" lon="11.17998567850391"><ele>55.0</ele><time>2026-05-03T17:55:06Z</time></trkpt><trkpt lat="43.84712437848219" lon="11.180003200860225"><ele>55.0</ele><time>2026-05-03T17:55:07Z</time></trkpt><trkpt lat="43.84697093013198" lon="11.180029860773066"><ele>55.0</ele><time>2026-05-03T17:55:08Z</time></trkpt><trkpt lat="43.84683174158713" lon="11.180051143376424"><ele>54.75</ele><time>2026-05-03T17:55:09Z</time></trkpt><trkpt lat="43.846697855085026" lon="11.18007120692357"><ele>54.5</ele><time>2026-05-03T17:55:10Z</time></trkpt><trkpt lat="43.84656488990409" lon="11.180087044496764"><ele>54.25</ele><time>2026-05-03T17:55:11Z</time></trkpt><trkpt lat="43.84642331917806" lon="11.180103806350992"><ele>54.0</ele><time>2026-05-03T17:55:12Z</time></trkpt><trkpt lat="43.846279087154244" lon="11.180120549798614"><ele>54.0</ele><time>2026-05-03T17:55:13Z</time></trkpt><trkpt lat="43.84613292929273" lon="11.180141358848696"><ele>54.0</ele><time>2026-05-03T17:55:14Z</time></trkpt><trkpt lat="43.84599797247263" lon="11.180158656183174"><ele>54.0</ele><time>2026-05-03T17:55:15Z</time></trkpt><trkpt lat="43.84587623851462" lon="11.180175738825236"><ele>54.0</ele><time>2026-05-03T17:55:16Z</time></trkpt><trkpt lat="43.84575882370234" lon="11.180190560878842"><ele>53.800000000000004</ele><time>2026-05-03T17:55:17Z</time></trkpt><trkpt lat="43.84565612733358" lon="11.180206541975771"><ele>53.60000000000001</ele><time>2026-05-03T17:55:18Z</time></trkpt><trkpt lat="43.84555061018791" lon="11.18022558101391"><ele>53.4</ele><time>2026-05-03T17:55:19Z</time></trkpt><trkpt lat="43.84544436405515" lon="11.180241405880793"><ele>53.2</ele><time>2026-05-03T17:55:20Z</time></trkpt><trkpt lat="43.845352407924146" lon="11.18025492693384"><ele>53.0</ele><time>2026-05-03T17:55:21Z</time></trkpt><trkpt lat="43.84526801435445" lon="11.180265983114932"><ele>53.00000000000001</ele><time>2026-05-03T17:55:22Z</time></trkpt><trkpt lat="43.84518956521905" lon="11.180278482553705"><ele>53.0</ele><time>2026-05-03T17:55:23Z</time></trkpt><trkpt lat="43.84512254652227" lon="11.18028459881162"><ele>53.0</ele><time>2026-05-03T17:55:24Z</time></trkpt><trkpt lat="43.845057236510755" lon="11.180270711140416"><ele>53.0</ele><time>2026-05-03T17:55:25Z</time></trkpt><trkpt lat="43.84498581189288" lon="11.180223889539157"><ele>53.00000000000001</ele><time>2026-05-03T17:55:26Z</time></trkpt><trkpt lat="43.84490807309427" lon="11.18016690753036"><ele>53.0</ele><time>2026-05-03T17:55:27Z</time></trkpt><trkpt lat="43.8448186906194" lon="11.180145760430763"><ele>52.8</ele><time>2026-05-03T17:55:28Z</time></trkpt><trkpt lat="43.844729280818356" lon="11.180138433363703"><ele>52.599999999999994</ele><time>2026-05-03T17:55:29Z</time></trkpt><trkpt lat="43.84464714572529" lon="11.180283623370041"><ele>52.400000000000006</ele><time>2026-05-03T17:55:30Z</time></trkpt><trkpt lat="43.84458136146002" lon="11.180414348491952"><ele>52.2</ele><time>2026-05-03T17:55:31Z</time></trkpt><trkpt lat="43.84451612305024" lon="11.180518622197924"><ele>52.0</ele><time>2026-05-03T17:55:32Z</time></trkpt><trkpt lat="43.844445034080316" lon="11.180606087241143"><ele>52.0</ele><time>2026-05-03T17:55:33Z</time></trkpt><trkpt lat="43.844319681465024" lon="11.180596853312773"><ele>52.0</ele><time>2026-05-03T17:55:34Z</time></trkpt><trkpt lat="43.84420348179907" lon="11.180554143356279"><ele>52.0</ele><time>2026-05-03T17:55:35Z</time></trkpt><trkpt lat="43.84408996694055" lon="11.180467453472232"><ele>52.0</ele><time>2026-05-03T17:55:36Z</time></trkpt><trkpt lat="43.84397096191704" lon="11.180350029572123"><ele>51.33333333333333</ele><time>2026-05-03T17:55:37Z</time></trkpt><trkpt lat="43.84383788687995" lon="11.180228673878927"><ele>50.66666666666667</ele><time>2026-05-03T17:55:38Z</time></trkpt><trkpt lat="43.84367180462202" lon="11.180085740620742"><ele>50.0</ele><time>2026-05-03T17:55:39Z</time></trkpt><trkpt lat="43.8434822869546" lon="11.179912478864344"><ele>49.5</ele><time>2026-05-03T17:55:40Z</time></trkpt><trkpt lat="43.84326035645437" lon="11.179716632094037"><ele>49.0</ele><time>2026-05-03T17:55:41Z</time></trkpt><trkpt lat="43.84302969965055" lon="11.179514980252176"><ele>49.0</ele><time>2026-05-03T17:55:42Z</time></trkpt><trkpt lat="43.84278375294938" lon="11.179304330828266"><ele>49.0</ele><time>2026-05-03T17:55:43Z</time></trkpt><trkpt lat="43.842557436158124" lon="11.179108116720771"><ele>49.0</ele><time>2026-05-03T17:55:44Z</time></trkpt><trkpt lat="43.84235755053992" lon="11.17893755316964"><ele>49.0</ele><time>2026-05-03T17:55:45Z</time></trkpt><trkpt lat="43.84217649420866" lon="11.178785601896665"><ele>49.0</ele><time>2026-05-03T17:55:46Z</time></trkpt><trkpt lat="43.842009156314354" lon="11.178644148167727"><ele>49.0</ele><time>2026-05-03T17:55:47Z</time></trkpt><trkpt lat="43.84185534219348" lon="11.17852256671731"><ele>49.0</ele><time>2026-05-03T17:55:48Z</time></trkpt><trkpt lat="43.84171024358837" lon="11.178390558857648"><ele>49.0</ele><time>2026-05-03T17:55:49Z</time></trkpt><trkpt lat="43.84157530358699" lon="11.178260560172768"><ele>48.0</ele><time>2026-05-03T17:55:50Z</time></trkpt><trkpt lat="43.841473951473986" lon="11.178114176658985"><ele>47.0</ele><time>2026-05-03T17:55:51Z</time></trkpt><trkpt lat="43.841399434574235" lon="11.177920083888882"><ele>46.0</ele><time>2026-05-03T17:55:52Z</time></trkpt><trkpt lat="43.841361898908815" lon="11.177730349306144"><ele>45.0</ele><time>2026-05-03T17:55:53Z</time></trkpt><trkpt lat="43.84135672408274" lon="11.17755506596087"><ele>45.0</ele><time>2026-05-03T17:55:54Z</time></trkpt><trkpt lat="43.84136155938624" lon="11.177397018775855"><ele>45.0</ele><time>2026-05-03T17:55:55Z</time></trkpt><trkpt lat="43.84136906977356" lon="11.17725509606776"><ele>45.0</ele><time>2026-05-03T17:55:56Z</time></trkpt><trkpt lat="43.84137092605604" lon="11.177122608987808"><ele>45.0</ele><time>2026-05-03T17:55:57Z</time></trkpt><trkpt lat="43.84135923377849" lon="11.1769861789492"><ele>45.0</ele><time>2026-05-03T17:55:58Z</time></trkpt><trkpt lat="43.84132610818912" lon="11.17683939914284"><ele>45.25</ele><time>2026-05-03T17:55:59Z</time></trkpt><trkpt lat="43.84126800280265" lon="11.176712624454558"><ele>45.5</ele><time>2026-05-03T17:56:00Z</time></trkpt><trkpt lat="43.84119687343179" lon="11.176611916916759"><ele>45.75</ele><time>2026-05-03T17:56:01Z</time></trkpt><trkpt lat="43.841119243116935" lon="11.176496531659007"><ele>46.0</ele><time>2026-05-03T17:56:02Z</time></trkpt><trkpt lat="43.84100715189916" lon="11.17638549560758"><ele>45.333333333333336</ele><time>2026-05-03T17:56:02.999Z</time></trkpt><trkpt lat="43.84087473179174" lon="11.176287020924159"><ele>44.666666666666664</ele><time>2026-05-03T17:56:03.999Z</time></trkpt><trkpt lat="43.840731099194564" lon="11.17617211832655"><ele>44.0</ele><time>2026-05-03T17:56:04.999Z</time></trkpt><trkpt lat="43.84057499084033" lon="11.176036255157685"><ele>44.0</ele><time>2026-05-03T17:56:05.999Z</time></trkpt><trkpt lat="43.84042213705997" lon="11.175892713998195"><ele>44.0</ele><time>2026-05-03T17:56:06.999Z</time></trkpt><trkpt lat="43.84027968859059" lon="11.175764410506599"><ele>44.0</ele><time>2026-05-03T17:56:07.999Z</time></trkpt><trkpt lat="43.84016038919294" lon="11.175669588560904"><ele>44.0</ele><time>2026-05-03T17:56:08.999Z</time></trkpt><trkpt lat="43.840042347556356" lon="11.17557468348771"><ele>44.0</ele><time>2026-05-03T17:56:09.999Z</time></trkpt><trkpt lat="43.839918020909664" lon="11.175522997970079"><ele>44.0</ele><time>2026-05-03T17:56:10.999Z</time></trkpt><trkpt lat="43.83981723361528" lon="11.175484429627021"><ele>44.0</ele><time>2026-05-03T17:56:11.999Z</time></trkpt><trkpt lat="43.839743031942774" lon="11.175457900029192"><ele>44.0</ele><time>2026-05-03T17:56:12.999Z</time></trkpt><trkpt lat="43.8396729589427" lon="11.175404273706713"><ele>44.0</ele><time>2026-05-03T17:56:13.999Z</time></trkpt><trkpt lat="43.8396228652562" lon="11.175316411459873"><ele>44.0</ele><time>2026-05-03T17:56:14.999Z</time></trkpt><trkpt lat="43.83961508101858" lon="11.17520955679031"><ele>44.0</ele><time>2026-05-03T17:56:15.999Z</time></trkpt><trkpt lat="43.83951285090529" lon="11.175164602227554"><ele>44.0</ele><time>2026-05-03T17:56:17.999Z</time></trkpt><trkpt lat="43.83944733336563" lon="11.175145502293592"><ele>44.0</ele><time>2026-05-03T17:56:18.999Z</time></trkpt><trkpt lat="43.83935977430035" lon="11.175109456477546"><ele>44.0</ele><time>2026-05-03T17:56:19.999Z</time></trkpt><trkpt lat="43.83926772596609" lon="11.175017847735084"><ele>44.0</ele><time>2026-05-03T17:56:20.999Z</time></trkpt><trkpt lat="43.83918380347365" lon="11.174870086761983"><ele>44.0</ele><time>2026-05-03T17:56:21.999Z</time></trkpt><trkpt lat="43.83905673890682" lon="11.174682765386796"><ele>44.0</ele><time>2026-05-03T17:56:22.999Z</time></trkpt><trkpt lat="43.8388980289489" lon="11.174505329743365"><ele>44.0</ele><time>2026-05-03T17:56:23.999Z</time></trkpt><trkpt lat="43.83869093277992" lon="11.174362470696881"><ele>44.0</ele><time>2026-05-03T17:56:24.999Z</time></trkpt><trkpt lat="43.83847641506576" lon="11.174185417398856"><ele>43.666666666666664</ele><time>2026-05-03T17:56:26Z</time></trkpt><trkpt lat="43.83830036802781" lon="11.174034175599948"><ele>43.333333333333336</ele><time>2026-05-03T17:56:27Z</time></trkpt><trkpt lat="43.838134235315394" lon="11.173891420507706"><ele>43.0</ele><time>2026-05-03T17:56:28Z</time></trkpt><trkpt lat="43.837978645980485" lon="11.173761904584959"><ele>42.66666666666667</ele><time>2026-05-03T17:56:29Z</time></trkpt><trkpt lat="43.83783661371438" lon="11.173647593587313"><ele>42.333333333333336</ele><time>2026-05-03T17:56:30Z</time></trkpt><trkpt lat="43.83769256327044" lon="11.17354715710802"><ele>42.0</ele><time>2026-05-03T17:56:31Z</time></trkpt><trkpt lat="43.837520101814825" lon="11.173443817407131"><ele>41.5</ele><time>2026-05-03T17:56:32Z</time></trkpt><trkpt lat="43.83732722151362" lon="11.17330676983223"><ele>41.0</ele><time>2026-05-03T17:56:33Z</time></trkpt><trkpt lat="43.83711932636093" lon="11.173124288004631"><ele>41.0</ele><time>2026-05-03T17:56:34Z</time></trkpt><trkpt lat="43.83692349575833" lon="11.172947001842461"><ele>41.0</ele><time>2026-05-03T17:56:35Z</time></trkpt><trkpt lat="43.83675274844555" lon="11.17282691383391"><ele>41.0</ele><time>2026-05-03T17:56:36Z</time></trkpt><trkpt lat="43.8365974090279" lon="11.172739878766475"><ele>41.25</ele><time>2026-05-03T17:56:37Z</time></trkpt><trkpt lat="43.83646538201855" lon="11.172643399378325"><ele>41.5</ele><time>2026-05-03T17:56:38Z</time></trkpt><trkpt lat="43.836366350990346" lon="11.17251735168094"><ele>41.75</ele><time>2026-05-03T17:56:39Z</time></trkpt><trkpt lat="43.83629747003322" lon="11.172380351949071"><ele>42.0</ele><time>2026-05-03T17:56:40Z</time></trkpt><trkpt lat="43.83620145744742" lon="11.172305645592926"><ele>42.0</ele><time>2026-05-03T17:56:41Z</time></trkpt><trkpt lat="43.83610104694563" lon="11.172340537425136"><ele>42.0</ele><time>2026-05-03T17:56:42Z</time></trkpt><trkpt lat="43.83601785303647" lon="11.172439769631293"><ele>42.0</ele><time>2026-05-03T17:56:43Z</time></trkpt><trkpt lat="43.835965985543744" lon="11.172587016570214"><ele>42.0</ele><time>2026-05-03T17:56:44Z</time></trkpt><trkpt lat="43.83596615715103" lon="11.172748252892964"><ele>42.0</ele><time>2026-05-03T17:56:45Z</time></trkpt><trkpt lat="43.83597805992364" lon="11.172920444742566"><ele>41.25</ele><time>2026-05-03T17:56:46Z</time></trkpt><trkpt lat="43.83596636293141" lon="11.173078512102629"><ele>40.5</ele><time>2026-05-03T17:56:47Z</time></trkpt><trkpt lat="43.835896544650325" lon="11.173221944465121"><ele>39.75</ele><time>2026-05-03T17:56:48Z</time></trkpt><trkpt lat="43.83582601105757" lon="11.173378246614597"><ele>39.0</ele><time>2026-05-03T17:56:49Z</time></trkpt><trkpt lat="43.83575156565571" lon="11.173499013321077"><ele>39.0</ele><time>2026-05-03T17:56:50Z</time></trkpt><trkpt lat="43.83567315886459" lon="11.173652463238453"><ele>39.0</ele><time>2026-05-03T17:56:51Z</time></trkpt><trkpt lat="43.83554948342088" lon="11.17381606965957"><ele>39.0</ele><time>2026-05-03T17:56:52Z</time></trkpt><trkpt lat="43.83538877682339" lon="11.173982876143219"><ele>39.333333333333336</ele><time>2026-05-03T17:56:53Z</time></trkpt><trkpt lat="43.835270326915726" lon="11.174144715010584"><ele>39.66666666666667</ele><time>2026-05-03T17:56:54Z</time></trkpt><trkpt lat="43.83512949472606" lon="11.174312454336409"><ele>40.0</ele><time>2026-05-03T17:56:55Z</time></trkpt><trkpt lat="43.83497257204906" lon="11.174474906265205"><ele>40.333333333333336</ele><time>2026-05-03T17:56:56Z</time></trkpt><trkpt lat="43.83482602846661" lon="11.174674390765794"><ele>40.666666666666664</ele><time>2026-05-03T17:56:57Z</time></trkpt><trkpt lat="43.83465159265838" lon="11.174863198247747"><ele>41.0</ele><time>2026-05-03T17:56:58Z</time></trkpt><trkpt lat="43.834480855175585" lon="11.175062263763358"><ele>40.0</ele><time>2026-05-03T17:56:59Z</time></trkpt><trkpt lat="43.83430978344469" lon="11.175278979269477"><ele>39.0</ele><time>2026-05-03T17:57:00Z</time></trkpt><trkpt lat="43.83412196438991" lon="11.17550715127106"><ele>38.333333333333336</ele><time>2026-05-03T17:57:01Z</time></trkpt><trkpt lat="43.83394449124783" lon="11.175713902308805"><ele>37.66666666666667</ele><time>2026-05-03T17:57:02Z</time></trkpt><trkpt lat="43.83378737999533" lon="11.175913098916771"><ele>37.0</ele><time>2026-05-03T17:57:03Z</time></trkpt><trkpt lat="43.833646619523456" lon="11.17610378009803"><ele>37.0</ele><time>2026-05-03T17:57:04Z</time></trkpt><trkpt lat="43.83348991175823" lon="11.176273668941358"><ele>37.0</ele><time>2026-05-03T17:57:05Z</time></trkpt><trkpt lat="43.833339779773866" lon="11.176465305491579"><ele>37.0</ele><time>2026-05-03T17:57:06Z</time></trkpt><trkpt lat="43.833187319947754" lon="11.176662522600624"><ele>37.333333333333336</ele><time>2026-05-03T17:57:07Z</time></trkpt><trkpt lat="43.83304139019143" lon="11.176879789359969"><ele>37.666666666666664</ele><time>2026-05-03T17:57:08Z</time></trkpt><trkpt lat="43.832881881507404" lon="11.17708544881993"><ele>38.0</ele><time>2026-05-03T17:57:09Z</time></trkpt><trkpt lat="43.83272479156195" lon="11.177286414974828"><ele>38.0</ele><time>2026-05-03T17:57:10Z</time></trkpt><trkpt lat="43.832578453317964" lon="11.177471042407701"><ele>38.0</ele><time>2026-05-03T17:57:11Z</time></trkpt><trkpt lat="43.83245322804878" lon="11.177625111479886"><ele>38.0</ele><time>2026-05-03T17:57:12Z</time></trkpt><trkpt lat="43.83230996170224" lon="11.17779822633649"><ele>38.0</ele><time>2026-05-03T17:57:13Z</time></trkpt><trkpt lat="43.83216976405068" lon="11.178000380384168"><ele>38.0</ele><time>2026-05-03T17:57:14Z</time></trkpt><trkpt lat="43.8320082498351" lon="11.178190323234965"><ele>38.0</ele><time>2026-05-03T17:57:15Z</time></trkpt><trkpt lat="43.83184393404901" lon="11.178398726697647"><ele>38.0</ele><time>2026-05-03T17:57:16Z</time></trkpt><trkpt lat="43.8316860995378" lon="11.178613446876644"><ele>38.0</ele><time>2026-05-03T17:57:17Z</time></trkpt><trkpt lat="43.831527197636056" lon="11.178822227878083"><ele>38.0</ele><time>2026-05-03T17:57:18Z</time></trkpt><trkpt lat="43.831368120719766" lon="11.179028301393323"><ele>38.0</ele><time>2026-05-03T17:57:19Z</time></trkpt><trkpt lat="43.83121058619184" lon="11.17923151002445"><ele>38.0</ele><time>2026-05-03T17:57:20Z</time></trkpt><trkpt lat="43.83105400939017" lon="11.17943399347449"><ele>38.0</ele><time>2026-05-03T17:57:21Z</time></trkpt><trkpt lat="43.83090113585486" lon="11.179638227266679"><ele>37.666666666666664</ele><time>2026-05-03T17:57:22Z</time></trkpt><trkpt lat="43.830744597524834" lon="11.179841324164006"><ele>37.333333333333336</ele><time>2026-05-03T17:57:23Z</time></trkpt><trkpt lat="43.83058433469284" lon="11.180041064595049"><ele>37.0</ele><time>2026-05-03T17:57:24Z</time></trkpt><trkpt lat="43.83041899749233" lon="11.18024784714358"><ele>37.0</ele><time>2026-05-03T17:57:25Z</time></trkpt><trkpt lat="43.83025707192107" lon="11.18045115379624"><ele>37.0</ele><time>2026-05-03T17:57:26Z</time></trkpt><trkpt lat="43.83010702423013" lon="11.18064610337645"><ele>37.0</ele><time>2026-05-03T17:57:27Z</time></trkpt><trkpt lat="43.829967343232106" lon="11.180832298602633"><ele>37.333333333333336</ele><time>2026-05-03T17:57:28Z</time></trkpt><trkpt lat="43.82983161513599" lon="11.181009134649676"><ele>37.666666666666664</ele><time>2026-05-03T17:57:29Z</time></trkpt><trkpt lat="43.82970243132449" lon="11.181175479675916"><ele>38.0</ele><time>2026-05-03T17:57:30Z</time></trkpt><trkpt lat="43.82957245114201" lon="11.18134326647457"><ele>38.0</ele><time>2026-05-03T17:57:31Z</time></trkpt><trkpt lat="43.82944856231105" lon="11.181507072537517"><ele>38.0</ele><time>2026-05-03T17:57:32Z</time></trkpt><trkpt lat="43.82932760794296" lon="11.181663049340628"><ele>38.0</ele><time>2026-05-03T17:57:33Z</time></trkpt><trkpt lat="43.82921426571681" lon="11.181808289947886"><ele>38.25</ele><time>2026-05-03T17:57:33.999Z</time></trkpt><trkpt lat="43.829104816925025" lon="11.181946153752854"><ele>38.5</ele><time>2026-05-03T17:57:34.999Z</time></trkpt><trkpt lat="43.82900007263989" lon="11.182079401238196"><ele>38.75</ele><time>2026-05-03T17:57:35.999Z</time></trkpt><trkpt lat="43.828902756481575" lon="11.18220293992415"><ele>39.0</ele><time>2026-05-03T17:57:36.999Z</time></trkpt><trkpt lat="43.8288108789618" lon="11.182319293413766"><ele>39.2</ele><time>2026-05-03T17:57:37.999Z</time></trkpt><trkpt lat="43.82871794858618" lon="11.18240593597055"><ele>39.4</ele><time>2026-05-03T17:57:38.999Z</time></trkpt><trkpt lat="43.82862179811767" lon="11.182474901748696"><ele>39.6</ele><time>2026-05-03T17:57:39.999Z</time></trkpt><trkpt lat="43.828529264011436" lon="11.182507213858724"><ele>39.8</ele><time>2026-05-03T17:57:40.999Z</time></trkpt><trkpt lat="43.82845270507644" lon="11.182542017201857"><ele>40.0</ele><time>2026-05-03T17:57:41.999Z</time></trkpt><trkpt lat="43.82840611547077" lon="11.182606453190466"><ele>39.5</ele><time>2026-05-03T17:57:42.999Z</time></trkpt><trkpt lat="43.82838432859435" lon="11.182712282316325"><ele>39.0</ele><time>2026-05-03T17:57:43.999Z</time></trkpt><trkpt lat="43.82836932818252" lon="11.182863310015994"><ele>38.5</ele><time>2026-05-03T17:57:44.999Z</time></trkpt><trkpt lat="43.82833347033884" lon="11.183053820061026"><ele>38.0</ele><time>2026-05-03T17:57:45.999Z</time></trkpt><trkpt lat="43.828235947833065" lon="11.18323558186306"><ele>38.0</ele><time>2026-05-03T17:57:46.999Z</time></trkpt><trkpt lat="43.82813935880693" lon="11.183455163688462"><ele>38.0</ele><time>2026-05-03T17:57:47.999Z</time></trkpt><trkpt lat="43.828006778847424" lon="11.183683055810153"><ele>38.0</ele><time>2026-05-03T17:57:48.999Z</time></trkpt><trkpt lat="43.82788239961198" lon="11.183929632771564"><ele>38.0</ele><time>2026-05-03T17:57:49.999Z</time></trkpt><trkpt lat="43.82778963329498" lon="11.184233711660156"><ele>38.0</ele><time>2026-05-03T17:57:50.999Z</time></trkpt><trkpt lat="43.827676799756844" lon="11.184509231888494"><ele>38.0</ele><time>2026-05-03T17:57:51.999Z</time></trkpt><trkpt lat="43.827563252454084" lon="11.184781300423268"><ele>38.0</ele><time>2026-05-03T17:57:52.999Z</time></trkpt><trkpt lat="43.82745559969608" lon="11.185038861278256"><ele>38.0</ele><time>2026-05-03T17:57:53.999Z</time></trkpt><trkpt lat="43.82735508230942" lon="11.185283004143084"><ele>38.33333333333333</ele><time>2026-05-03T17:57:54.999Z</time></trkpt><trkpt lat="43.82726295010511" lon="11.185507646478987"><ele>38.666666666666664</ele><time>2026-05-03T17:57:55.999Z</time></trkpt><trkpt lat="43.82717457779968" lon="11.185716116314293"><ele>39.0</ele><time>2026-05-03T17:57:56.999Z</time></trkpt><trkpt lat="43.82708935673088" lon="11.185912504232753"><ele>38.666666666666664</ele><time>2026-05-03T17:57:57.999Z</time></trkpt><trkpt lat="43.82700496455781" lon="11.186115515210146"><ele>38.33333333333333</ele><time>2026-05-03T17:57:58.999Z</time></trkpt><trkpt lat="43.82692218705691" lon="11.18632545751274"><ele>38.0</ele><time>2026-05-03T17:57:59.999Z</time></trkpt><trkpt lat="43.826835647611816" lon="11.186535469559319"><ele>38.0</ele><time>2026-05-03T17:58:00.999Z</time></trkpt><trkpt lat="43.82674769982573" lon="11.186749701927067"><ele>38.0</ele><time>2026-05-03T17:58:01.999Z</time></trkpt><trkpt lat="43.82665584043361" lon="11.18697890826294"><ele>38.0</ele><time>2026-05-03T17:58:02.999Z</time></trkpt><trkpt lat="43.82655822125384" lon="11.18721907493204"><ele>38.0</ele><time>2026-05-03T17:58:03.999Z</time></trkpt><trkpt lat="43.8264542583926" lon="11.187467895965307"><ele>38.0</ele><time>2026-05-03T17:58:04.999Z</time></trkpt><trkpt lat="43.82634457040103" lon="11.18771852675246"><ele>38.0</ele><time>2026-05-03T17:58:05.999Z</time></trkpt><trkpt lat="43.826236874271274" lon="11.18797524678523"><ele>38.0</ele><time>2026-05-03T17:58:06.999Z</time></trkpt><trkpt lat="43.826131458325385" lon="11.18821876770499"><ele>38.0</ele><time>2026-05-03T17:58:07.999Z</time></trkpt><trkpt lat="43.826032434014955" lon="11.188447387717947"><ele>38.0</ele><time>2026-05-03T17:58:08.999Z</time></trkpt><trkpt lat="43.82594109246745" lon="11.188657838511462"><ele>38.0</ele><time>2026-05-03T17:58:09.999Z</time></trkpt><trkpt lat="43.825857777078056" lon="11.188856933151794"><ele>38.0</ele><time>2026-05-03T17:58:10.999Z</time></trkpt><trkpt lat="43.825777549106434" lon="11.189052042454684"><ele>38.0</ele><time>2026-05-03T17:58:11.999Z</time></trkpt><trkpt lat="43.82569478641102" lon="11.189247784430552"><ele>38.0</ele><time>2026-05-03T17:58:12.999Z</time></trkpt><trkpt lat="43.825606775884495" lon="11.189464328289093"><ele>38.0</ele><time>2026-05-03T17:58:13.999Z</time></trkpt><trkpt lat="43.82551268833193" lon="11.189685240485565"><ele>38.0</ele><time>2026-05-03T17:58:14.999Z</time></trkpt><trkpt lat="43.825416400296284" lon="11.189893311834638"><ele>38.666666666666664</ele><time>2026-05-03T17:58:15.999Z</time></trkpt><trkpt lat="43.825331703128015" lon="11.19009064794787"><ele>39.333333333333336</ele><time>2026-05-03T17:58:16.999Z</time></trkpt><trkpt lat="43.825260487762854" lon="11.1902738701716"><ele>40.0</ele><time>2026-05-03T17:58:17.999Z</time></trkpt><trkpt lat="43.8251878174631" lon="11.19045672389783"><ele>40.0</ele><time>2026-05-03T17:58:18.999Z</time></trkpt><trkpt lat="43.8251067620922" lon="11.190642712318903"><ele>40.0</ele><time>2026-05-03T17:58:19.999Z</time></trkpt><trkpt lat="43.82503090215375" lon="11.190811737480026"><ele>40.0</ele><time>2026-05-03T17:58:20.999Z</time></trkpt><trkpt lat="43.824956842818516" lon="11.19096398151067"><ele>40.0</ele><time>2026-05-03T17:58:21.999Z</time></trkpt><trkpt lat="43.82488096136888" lon="11.191095603602465"><ele>39.75</ele><time>2026-05-03T17:58:22.999Z</time></trkpt><trkpt lat="43.8247994121552" lon="11.191224059106803"><ele>39.5</ele><time>2026-05-03T17:58:23.999Z</time></trkpt><trkpt lat="43.8247121520435" lon="11.191354109588335"><ele>39.25</ele><time>2026-05-03T17:58:24.999Z</time></trkpt><trkpt lat="43.82462105866919" lon="11.19148109739635"><ele>39.0</ele><time>2026-05-03T17:58:25.999Z</time></trkpt><trkpt lat="43.82452521600208" lon="11.191613677666323"><ele>39.0</ele><time>2026-05-03T17:58:26.999Z</time></trkpt><trkpt lat="43.82442105525888" lon="11.191749414851103"><ele>39.0</ele><time>2026-05-03T17:58:27.999Z</time></trkpt><trkpt lat="43.824310266636495" lon="11.191887448371249"><ele>39.0</ele><time>2026-05-03T17:58:28.999Z</time></trkpt><trkpt lat="43.82418414855809" lon="11.192004146594991"><ele>39.0</ele><time>2026-05-03T17:58:29.999Z</time></trkpt><trkpt lat="43.824058587489844" lon="11.192104002007415"><ele>39.25</ele><time>2026-05-03T17:58:31Z</time></trkpt><trkpt lat="43.82392809737016" lon="11.192184898256762"><ele>39.5</ele><time>2026-05-03T17:58:32Z</time></trkpt><trkpt lat="43.823790442274735" lon="11.192244495726863"><ele>39.75</ele><time>2026-05-03T17:58:33Z</time></trkpt><trkpt lat="43.82364751129819" lon="11.19229050048085"><ele>40.0</ele><time>2026-05-03T17:58:34Z</time></trkpt><trkpt lat="43.823497981400706" lon="11.192313454876908"><ele>39.0</ele><time>2026-05-03T17:58:35Z</time></trkpt><trkpt lat="43.82334394573303" lon="11.192311322280844"><ele>38.0</ele><time>2026-05-03T17:58:36Z</time></trkpt><trkpt lat="43.82318725665971" lon="11.192283516532381"><ele>37.0</ele><time>2026-05-03T17:58:37Z</time></trkpt><trkpt lat="43.82302941159069" lon="11.192219741984001"><ele>37.0</ele><time>2026-05-03T17:58:38Z</time></trkpt><trkpt lat="43.82287240340269" lon="11.19212787171445"><ele>37.0</ele><time>2026-05-03T17:58:39Z</time></trkpt><trkpt lat="43.8227225127503" lon="11.192005482143573"><ele>37.0</ele><time>2026-05-03T17:58:40Z</time></trkpt><trkpt lat="43.822587939424274" lon="11.191887158838021"><ele>38.333333333333336</ele><time>2026-05-03T17:58:41Z</time></trkpt><trkpt lat="43.82245450618123" lon="11.191771946200506"><ele>39.666666666666664</ele><time>2026-05-03T17:58:42Z</time></trkpt><trkpt lat="43.82232541269933" lon="11.191665478745438"><ele>41.0</ele><time>2026-05-03T17:58:43Z</time></trkpt><trkpt lat="43.822195822074555" lon="11.191559003625137"><ele>40.25</ele><time>2026-05-03T17:58:44Z</time></trkpt><trkpt lat="43.822071400916116" lon="11.19145900000072"><ele>39.5</ele><time>2026-05-03T17:58:45Z</time></trkpt><trkpt lat="43.82194826573599" lon="11.191355577698362"><ele>38.75</ele><time>2026-05-03T17:58:46Z</time></trkpt><trkpt lat="43.8218277634724" lon="11.191253913945735"><ele>38.0</ele><time>2026-05-03T17:58:47Z</time></trkpt><trkpt lat="43.82171506215528" lon="11.191157921753701"><ele>38.0</ele><time>2026-05-03T17:58:48Z</time></trkpt><trkpt lat="43.82161002830755" lon="11.191071474210524"><ele>38.0</ele><time>2026-05-03T17:58:49Z</time></trkpt><trkpt lat="43.82150758771047" lon="11.19098767595736"><ele>38.0</ele><time>2026-05-03T17:58:50Z</time></trkpt><trkpt lat="43.82139807911215" lon="11.190899834226506"><ele>38.0</ele><time>2026-05-03T17:58:51Z</time></trkpt><trkpt lat="43.8212710357141" lon="11.190800676008054"><ele>38.0</ele><time>2026-05-03T17:58:52Z</time></trkpt><trkpt lat="43.82112575513589" lon="11.190685106675739"><ele>38.0</ele><time>2026-05-03T17:58:53Z</time></trkpt><trkpt lat="43.820975932251855" lon="11.190550932944673"><ele>38.0</ele><time>2026-05-03T17:58:54Z</time></trkpt><trkpt lat="43.82082815899369" lon="11.190411298623209"><ele>39.0</ele><time>2026-05-03T17:58:55Z</time></trkpt><trkpt lat="43.82067133633938" lon="11.19027192458091"><ele>40.0</ele><time>2026-05-03T17:58:56Z</time></trkpt><trkpt lat="43.82051572525455" lon="11.190140418235877"><ele>41.0</ele><time>2026-05-03T17:58:57Z</time></trkpt><trkpt lat="43.82035971413762" lon="11.190012393967137"><ele>41.0</ele><time>2026-05-03T17:58:58Z</time></trkpt><trkpt lat="43.82020643132989" lon="11.189885119630052"><ele>41.0</ele><time>2026-05-03T17:58:59Z</time></trkpt><trkpt lat="43.82005224327026" lon="11.189753056704292"><ele>41.0</ele><time>2026-05-03T17:59:00Z</time></trkpt><trkpt lat="43.81989562072524" lon="11.189615135914917"><ele>40.33333333333333</ele><time>2026-05-03T17:59:01Z</time></trkpt><trkpt lat="43.81974597108354" lon="11.18948386096749"><ele>39.666666666666664</ele><time>2026-05-03T17:59:02Z</time></trkpt><trkpt lat="43.819604971731025" lon="11.189356997298392"><ele>39.0</ele><time>2026-05-03T17:59:03Z</time></trkpt><trkpt lat="43.81947155194412" lon="11.189238707764567"><ele>39.0</ele><time>2026-05-03T17:59:04Z</time></trkpt><trkpt lat="43.819342645032506" lon="11.189127456401355"><ele>39.0</ele><time>2026-05-03T17:59:05Z</time></trkpt><trkpt lat="43.81921247021676" lon="11.18901241725443"><ele>39.0</ele><time>2026-05-03T17:59:06Z</time></trkpt><trkpt lat="43.81908173500767" lon="11.188893940159403"><ele>38.75</ele><time>2026-05-03T17:59:07Z</time></trkpt><trkpt lat="43.81895280567884" lon="11.188781507652976"><ele>38.5</ele><time>2026-05-03T17:59:08Z</time></trkpt><trkpt lat="43.81882179045208" lon="11.188672735163864"><ele>38.25</ele><time>2026-05-03T17:59:09Z</time></trkpt><trkpt lat="43.818705304582345" lon="11.188569091718863"><ele>38.0</ele><time>2026-05-03T17:59:10Z</time></trkpt><trkpt lat="43.81860412823522" lon="11.18847903108805"><ele>38.0</ele><time>2026-05-03T17:59:11Z</time></trkpt><trkpt lat="43.81850689471847" lon="11.188392274931909"><ele>38.0</ele><time>2026-05-03T17:59:12Z</time></trkpt><trkpt lat="43.818393662530674" lon="11.18829851175483"><ele>38.0</ele><time>2026-05-03T17:59:13Z</time></trkpt><trkpt lat="43.81828620642532" lon="11.18817583368282"><ele>38.0</ele><time>2026-05-03T17:59:14Z</time></trkpt><trkpt lat="43.818155459257206" lon="11.188085914246857"><ele>37.33333333333333</ele><time>2026-05-03T17:59:15Z</time></trkpt><trkpt lat="43.81803485690165" lon="11.18795063996842"><ele>36.666666666666664</ele><time>2026-05-03T17:59:16Z</time></trkpt><trkpt lat="43.81790097440226" lon="11.187831426236917"><ele>36.0</ele><time>2026-05-03T17:59:17Z</time></trkpt><trkpt lat="43.81776434183202" lon="11.187710778277566"><ele>36.0</ele><time>2026-05-03T17:59:18Z</time></trkpt><trkpt lat="43.81760704002431" lon="11.187578753856133"><ele>36.0</ele><time>2026-05-03T17:59:18.999Z</time></trkpt><trkpt lat="43.8174263559303" lon="11.187441190603009"><ele>36.0</ele><time>2026-05-03T17:59:19.999Z</time></trkpt><trkpt lat="43.81725274231377" lon="11.187242663406339"><ele>36.5</ele><time>2026-05-03T17:59:20.999Z</time></trkpt><trkpt lat="43.81709330112895" lon="11.18700933189199"><ele>37.0</ele><time>2026-05-03T17:59:21.999Z</time></trkpt><trkpt lat="43.816935501413596" lon="11.186745341044677"><ele>36.0</ele><time>2026-05-03T17:59:22.999Z</time></trkpt><trkpt lat="43.81678854664436" lon="11.186471971810008"><ele>35.0</ele><time>2026-05-03T17:59:23.999Z</time></trkpt><trkpt lat="43.816620491827656" lon="11.186225641307132"><ele>35.0</ele><time>2026-05-03T17:59:24.999Z</time></trkpt><trkpt lat="43.81645673957505" lon="11.186028683685723"><ele>35.0</ele><time>2026-05-03T17:59:25.999Z</time></trkpt><trkpt lat="43.81627380506818" lon="11.185833950653127"><ele>35.0</ele><time>2026-05-03T17:59:26.999Z</time></trkpt><trkpt lat="43.81606436590285" lon="11.18565615533703"><ele>35.0</ele><time>2026-05-03T17:59:27.999Z</time></trkpt><trkpt lat="43.81585031991893" lon="11.185501775651858"><ele>35.0</ele><time>2026-05-03T17:59:28.999Z</time></trkpt><trkpt lat="43.81565028031842" lon="11.185383116373933"><ele>35.0</ele><time>2026-05-03T17:59:29.999Z</time></trkpt><trkpt lat="43.81547607367897" lon="11.185238417621528"><ele>35.0</ele><time>2026-05-03T17:59:30.999Z</time></trkpt><trkpt lat="43.815311903537236" lon="11.185116857459311"><ele>35.0</ele><time>2026-05-03T17:59:31.999Z</time></trkpt><trkpt lat="43.81509189599346" lon="11.185247402658128"><ele>35.666666666666664</ele><time>2026-05-03T17:59:32.999Z</time></trkpt><trkpt lat="43.81491044545171" lon="11.185306357624544"><ele>36.333333333333336</ele><time>2026-05-03T17:59:33.999Z</time></trkpt><trkpt lat="43.81472722979948" lon="11.185412275563618"><ele>37.0</ele><time>2026-05-03T17:59:34.999Z</time></trkpt><trkpt lat="43.814538073117824" lon="11.185537841625989"><ele>37.0</ele><time>2026-05-03T17:59:35.999Z</time></trkpt><trkpt lat="43.81435495541436" lon="11.185644744955264"><ele>37.0</ele><time>2026-05-03T17:59:36.999Z</time></trkpt><trkpt lat="43.8141974392434" lon="11.185716832677565"><ele>37.0</ele><time>2026-05-03T17:59:37.999Z</time></trkpt><trkpt lat="43.814066996786025" lon="11.18577037803865"><ele>37.5</ele><time>2026-05-03T17:59:38.999Z</time></trkpt><trkpt lat="43.81394508089093" lon="11.1857905187711"><ele>38.0</ele><time>2026-05-03T17:59:39.999Z</time></trkpt><trkpt lat="43.81383264465757" lon="11.185748431203795"><ele>38.5</ele><time>2026-05-03T17:59:40.999Z</time></trkpt><trkpt lat="43.81373866990124" lon="11.185647074617318"><ele>39.0</ele><time>2026-05-03T17:59:41.999Z</time></trkpt><trkpt lat="43.81363456984729" lon="11.185510012649972"><ele>39.0</ele><time>2026-05-03T17:59:42.999Z</time></trkpt><trkpt lat="43.81355319642883" lon="11.185279604573978"><ele>39.0</ele><time>2026-05-03T17:59:43.999Z</time></trkpt><trkpt lat="43.813439555445164" lon="11.185054615520494"><ele>39.0</ele><time>2026-05-03T17:59:44.999Z</time></trkpt><trkpt lat="43.81331983584662" lon="11.184821175195356"><ele>38.333333333333336</ele><time>2026-05-03T17:59:45.999Z</time></trkpt><trkpt lat="43.81319371516164" lon="11.184585200343914"><ele>37.66666666666667</ele><time>2026-05-03T17:59:46.999Z</time></trkpt><trkpt lat="43.81308675393948" lon="11.184375488903045"><ele>37.0</ele><time>2026-05-03T17:59:47.999Z</time></trkpt><trkpt lat="43.81298616648921" lon="11.18418617165593"><ele>37.0</ele><time>2026-05-03T17:59:48.999Z</time></trkpt><trkpt lat="43.81289158477053" lon="11.184004444958898"><ele>37.0</ele><time>2026-05-03T17:59:49.999Z</time></trkpt><trkpt lat="43.8128038494248" lon="11.183833644610914"><ele>37.0</ele><time>2026-05-03T17:59:50.999Z</time></trkpt><trkpt lat="43.8127209954096" lon="11.183665358743676"><ele>37.333333333333336</ele><time>2026-05-03T17:59:51.999Z</time></trkpt><trkpt lat="43.812641250912165" lon="11.183516590560757"><ele>37.666666666666664</ele><time>2026-05-03T17:59:52.999Z</time></trkpt><trkpt lat="43.81253347499696" lon="11.183344287066518"><ele>38.0</ele><time>2026-05-03T17:59:53.999Z</time></trkpt><trkpt lat="43.812425881083946" lon="11.183184691785149"><ele>38.666666666666664</ele><time>2026-05-03T17:59:54.999Z</time></trkpt><trkpt lat="43.81230730800527" lon="11.183045849842859"><ele>39.333333333333336</ele><time>2026-05-03T17:59:55.999Z</time></trkpt><trkpt lat="43.812195076717124" lon="11.18290656557775"><ele>40.0</ele><time>2026-05-03T17:59:56.999Z</time></trkpt><trkpt lat="43.81207056886014" lon="11.182792558550645"><ele>40.0</ele><time>2026-05-03T17:59:57.999Z</time></trkpt><trkpt lat="43.81194652007766" lon="11.18265531848109"><ele>40.0</ele><time>2026-05-03T17:59:58.999Z</time></trkpt><trkpt lat="43.811827332147686" lon="11.18250164816343"><ele>40.0</ele><time>2026-05-03T17:59:59.999Z</time></trkpt><trkpt lat="43.81169961729494" lon="11.18233705077241"><ele>39.0</ele><time>2026-05-03T18:00:00.999Z</time></trkpt><trkpt lat="43.811568977206456" lon="11.182176038599275"><ele>38.0</ele><time>2026-05-03T18:00:01.999Z</time></trkpt><trkpt lat="43.81142977054817" lon="11.182009391223307"><ele>37.0</ele><time>2026-05-03T18:00:02.999Z</time></trkpt><trkpt lat="43.811285236703036" lon="11.18183439949212"><ele>37.0</ele><time>2026-05-03T18:00:03.999Z</time></trkpt><trkpt lat="43.81114437581194" lon="11.181664522201588"><ele>37.0</ele><time>2026-05-03T18:00:04.999Z</time></trkpt><trkpt lat="43.811007867576414" lon="11.18150243474772"><ele>37.0</ele><time>2026-05-03T18:00:05.999Z</time></trkpt><trkpt lat="43.81087445676481" lon="11.181342602860894"><ele>37.66666666666667</ele><time>2026-05-03T18:00:06.999Z</time></trkpt><trkpt lat="43.8107461530698" lon="11.18119000204849"><ele>38.333333333333336</ele><time>2026-05-03T18:00:07.999Z</time></trkpt><trkpt lat="43.81062207955792" lon="11.181049016516008"><ele>39.0</ele><time>2026-05-03T18:00:08.999Z</time></trkpt><trkpt lat="43.810504846254425" lon="11.18092415702778"><ele>39.0</ele><time>2026-05-03T18:00:09.999Z</time></trkpt><trkpt lat="43.81039107600376" lon="11.180814562686404"><ele>39.0</ele><time>2026-05-03T18:00:10.999Z</time></trkpt><trkpt lat="43.81029745007805" lon="11.18072609918546"><ele>39.0</ele><time>2026-05-03T18:00:11.999Z</time></trkpt><trkpt lat="43.81022622293134" lon="11.180659335286812"><ele>39.0</ele><time>2026-05-03T18:00:12.999Z</time></trkpt><trkpt lat="43.81016647550057" lon="11.180610813654605"><ele>39.0</ele><time>2026-05-03T18:00:13.999Z</time></trkpt><trkpt lat="43.81011149158048" lon="11.180567461609655"><ele>39.0</ele><time>2026-05-03T18:00:14.999Z</time></trkpt><trkpt lat="43.810017699090935" lon="11.180494605591154"><ele>39.0</ele><time>2026-05-03T18:00:16.999Z</time></trkpt><trkpt lat="43.80994771349286" lon="11.180435749928147"><ele>39.0</ele><time>2026-05-03T18:00:18.999Z</time></trkpt><trkpt lat="43.80987468660844" lon="11.180376994093765"><ele>39.0</ele><time>2026-05-03T18:00:21.999Z</time></trkpt><trkpt lat="43.80980139568439" lon="11.180319309956467"><ele>39.0</ele><time>2026-05-03T18:00:23.999Z</time></trkpt><trkpt lat="43.809746373949004" lon="11.180269925710201"><ele>39.0</ele><time>2026-05-03T18:00:24.999Z</time></trkpt><trkpt lat="43.80967720867748" lon="11.180208706786626"><ele>39.0</ele><time>2026-05-03T18:00:25.999Z</time></trkpt><trkpt lat="43.80959554915486" lon="11.180135073495846"><ele>39.0</ele><time>2026-05-03T18:00:26.999Z</time></trkpt><trkpt lat="43.80950377161158" lon="11.180060386136134"><ele>39.0</ele><time>2026-05-03T18:00:27.999Z</time></trkpt><trkpt lat="43.80940151557828" lon="11.179975155452095"><ele>39.0</ele><time>2026-05-03T18:00:28.999Z</time></trkpt><trkpt lat="43.80929217527107" lon="11.179884531360742"><ele>38.5</ele><time>2026-05-03T18:00:29.999Z</time></trkpt><trkpt lat="43.80917543963929" lon="11.179793020657087"><ele>38.0</ele><time>2026-05-03T18:00:30.999Z</time></trkpt><trkpt lat="43.809057978239075" lon="11.17969076252655"><ele>37.5</ele><time>2026-05-03T18:00:31.999Z</time></trkpt><trkpt lat="43.80893934969288" lon="11.179579613997292"><ele>37.0</ele><time>2026-05-03T18:00:32.999Z</time></trkpt><trkpt lat="43.80881859220813" lon="11.179459582318323"><ele>37.0</ele><time>2026-05-03T18:00:33.999Z</time></trkpt><trkpt lat="43.808697355745984" lon="11.179332873318609"><ele>37.0</ele><time>2026-05-03T18:00:34.999Z</time></trkpt><trkpt lat="43.808565922030496" lon="11.179226010465612"><ele>37.0</ele><time>2026-05-03T18:00:35.999Z</time></trkpt><trkpt lat="43.80835221087438" lon="11.179141610594247"><ele>37.0</ele><time>2026-05-03T18:00:37Z</time></trkpt><trkpt lat="43.80820480151372" lon="11.179028431022061"><ele>37.0</ele><time>2026-05-03T18:00:38Z</time></trkpt><trkpt lat="43.80806384893773" lon="11.178919933540703"><ele>37.0</ele><time>2026-05-03T18:00:39Z</time></trkpt><trkpt lat="43.807932968829235" lon="11.17881243791895"><ele>37.0</ele><time>2026-05-03T18:00:40Z</time></trkpt><trkpt lat="43.80781721078952" lon="11.178716625114875"><ele>37.0</ele><time>2026-05-03T18:00:41Z</time></trkpt><trkpt lat="43.80771069527566" lon="11.178617954474815"><ele>37.0</ele><time>2026-05-03T18:00:42Z</time></trkpt><trkpt lat="43.80760883227251" lon="11.178517912600354"><ele>37.0</ele><time>2026-05-03T18:00:43Z</time></trkpt><trkpt lat="43.8075113067726" lon="11.178410190273665"><ele>36.6</ele><time>2026-05-03T18:00:44Z</time></trkpt><trkpt lat="43.807440952856986" lon="11.178292979666008"><ele>36.2</ele><time>2026-05-03T18:00:45Z</time></trkpt><trkpt lat="43.807399836235255" lon="11.178164811391888"><ele>35.8</ele><time>2026-05-03T18:00:46Z</time></trkpt><trkpt lat="43.807384891321966" lon="11.17803952662441"><ele>35.4</ele><time>2026-05-03T18:00:47Z</time></trkpt><trkpt lat="43.80738734227855" lon="11.177902440378585"><ele>35.0</ele><time>2026-05-03T18:00:48Z</time></trkpt><trkpt lat="43.807384384877174" lon="11.177772847090084"><ele>35.0</ele><time>2026-05-03T18:00:49Z</time></trkpt><trkpt lat="43.80735844473083" lon="11.177652129153207"><ele>35.0</ele><time>2026-05-03T18:00:50Z</time></trkpt><trkpt lat="43.80731614838385" lon="11.177548415187433"><ele>35.0</ele><time>2026-05-03T18:00:51Z</time></trkpt><trkpt lat="43.80725672449502" lon="11.177481431781766"><ele>35.0</ele><time>2026-05-03T18:00:52Z</time></trkpt><trkpt lat="43.80719290725691" lon="11.17744912807485"><ele>35.0</ele><time>2026-05-03T18:00:53Z</time></trkpt><trkpt lat="43.807117245136354" lon="11.177430052477447"><ele>35.0</ele><time>2026-05-03T18:00:54Z</time></trkpt><trkpt lat="43.807041574791825" lon="11.177437779070088"><ele>35.0</ele><time>2026-05-03T18:00:55Z</time></trkpt><trkpt lat="43.80696491880349" lon="11.177469968829847"><ele>35.0</ele><time>2026-05-03T18:00:56Z</time></trkpt><trkpt lat="43.80688913534697" lon="11.177530904284945"><ele>35.0</ele><time>2026-05-03T18:00:57Z</time></trkpt><trkpt lat="43.806817757539164" lon="11.177616553648436"><ele>35.0</ele><time>2026-05-03T18:00:58Z</time></trkpt><trkpt lat="43.80678819525692" lon="11.17769715069715"><ele>35.0</ele><time>2026-05-03T18:00:59Z</time></trkpt><trkpt lat="43.80677392065504" lon="11.177785497077918"><ele>35.0</ele><time>2026-05-03T18:01:00Z</time></trkpt><trkpt lat="43.80677129876528" lon="11.177904094740304"><ele>35.0</ele><time>2026-05-03T18:01:01Z</time></trkpt><trkpt lat="43.80678962150987" lon="11.17803722925059"><ele>35.0</ele><time>2026-05-03T18:01:02Z</time></trkpt><trkpt lat="43.806843272561856" lon="11.178159880990869"><ele>35.0</ele><time>2026-05-03T18:01:03Z</time></trkpt><trkpt lat="43.80676830465225" lon="11.178324401680966"><ele>35.0</ele><time>2026-05-03T18:01:04Z</time></trkpt><trkpt lat="43.80666458677974" lon="11.178423024427248"><ele>35.0</ele><time>2026-05-03T18:01:05Z</time></trkpt><trkpt lat="43.80653289047276" lon="11.178545825479786"><ele>35.0</ele><time>2026-05-03T18:01:06Z</time></trkpt><trkpt lat="43.806399348708545" lon="11.178670658614983"><ele>35.0</ele><time>2026-05-03T18:01:07Z</time></trkpt><trkpt lat="43.806282598162234" lon="11.17884480997832"><ele>36.0</ele><time>2026-05-03T18:01:08Z</time></trkpt><trkpt lat="43.80617157361817" lon="11.179045922204956"><ele>37.0</ele><time>2026-05-03T18:01:09Z</time></trkpt><trkpt lat="43.80606748793385" lon="11.179250274892206"><ele>38.0</ele><time>2026-05-03T18:01:10Z</time></trkpt><trkpt lat="43.8059613028856" lon="11.17944546216413"><ele>38.0</ele><time>2026-05-03T18:01:11Z</time></trkpt><trkpt lat="43.80585904835516" lon="11.179633992847783"><ele>38.0</ele><time>2026-05-03T18:01:12Z</time></trkpt><trkpt lat="43.80575532187258" lon="11.179823653542256"><ele>38.0</ele><time>2026-05-03T18:01:13Z</time></trkpt><trkpt lat="43.805657506253326" lon="11.180009764533473"><ele>38.666666666666664</ele><time>2026-05-03T18:01:14Z</time></trkpt><trkpt lat="43.80556000146568" lon="11.180193139256561"><ele>39.333333333333336</ele><time>2026-05-03T18:01:15Z</time></trkpt><trkpt lat="43.80546062744952" lon="11.18037133856719"><ele>40.0</ele><time>2026-05-03T18:01:16Z</time></trkpt><trkpt lat="43.805367847765346" lon="11.180554339916807"><ele>39.333333333333336</ele><time>2026-05-03T18:01:17Z</time></trkpt><trkpt lat="43.8052776018388" lon="11.180742730207275"><ele>38.666666666666664</ele><time>2026-05-03T18:01:18Z</time></trkpt><trkpt lat="43.8051911507846" lon="11.18091808537079"><ele>38.0</ele><time>2026-05-03T18:01:19Z</time></trkpt><trkpt lat="43.805107911820855" lon="11.181082524130817"><ele>37.666666666666664</ele><time>2026-05-03T18:01:19.999Z</time></trkpt><trkpt lat="43.80502530665369" lon="11.18125665413165"><ele>37.333333333333336</ele><time>2026-05-03T18:01:20.999Z</time></trkpt><trkpt lat="43.80494340456527" lon="11.18142937801895"><ele>37.0</ele><time>2026-05-03T18:01:21.999Z</time></trkpt><trkpt lat="43.80485915480171" lon="11.181605063898052"><ele>36.66666666666667</ele><time>2026-05-03T18:01:22.999Z</time></trkpt><trkpt lat="43.804766823030285" lon="11.181785403732201"><ele>36.333333333333336</ele><time>2026-05-03T18:01:23.999Z</time></trkpt><trkpt lat="43.80466916915304" lon="11.181966795025199"><ele>36.0</ele><time>2026-05-03T18:01:24.999Z</time></trkpt><trkpt lat="43.80457135674739" lon="11.182150774312992"><ele>36.0</ele><time>2026-05-03T18:01:25.999Z</time></trkpt><trkpt lat="43.80447859592589" lon="11.182330938298097"><ele>36.0</ele><time>2026-05-03T18:01:26.999Z</time></trkpt><trkpt lat="43.80437837800187" lon="11.182502147399228"><ele>36.0</ele><time>2026-05-03T18:01:27.999Z</time></trkpt><trkpt lat="43.804289858166825" lon="11.182676623888504"><ele>36.0</ele><time>2026-05-03T18:01:28.999Z</time></trkpt><trkpt lat="43.80421187207502" lon="11.182867105184432"><ele>36.0</ele><time>2026-05-03T18:01:29.999Z</time></trkpt><trkpt lat="43.80414764883373" lon="11.183077033478064"><ele>36.0</ele><time>2026-05-03T18:01:30.999Z</time></trkpt><trkpt lat="43.80409159218844" lon="11.183299999978122"><ele>36.0</ele><time>2026-05-03T18:01:31.999Z</time></trkpt><trkpt lat="43.80403875675957" lon="11.183528220958078"><ele>36.0</ele><time>2026-05-03T18:01:32.999Z</time></trkpt><trkpt lat="43.803985631778076" lon="11.183728292265299"><ele>36.0</ele><time>2026-05-03T18:01:33.999Z</time></trkpt><trkpt lat="43.80393430335233" lon="11.183893812178512"><ele>36.2</ele><time>2026-05-03T18:01:34.999Z</time></trkpt><trkpt lat="43.80387967211172" lon="11.18402108746974"><ele>36.400000000000006</ele><time>2026-05-03T18:01:35.999Z</time></trkpt><trkpt lat="43.80381187249599" lon="11.184123455922082"><ele>36.6</ele><time>2026-05-03T18:01:36.999Z</time></trkpt><trkpt lat="43.80372329082783" lon="11.184205031964142"><ele>36.800000000000004</ele><time>2026-05-03T18:01:37.999Z</time></trkpt><trkpt lat="43.80363439007021" lon="11.184299547862652"><ele>37.0</ele><time>2026-05-03T18:01:38.999Z</time></trkpt><trkpt lat="43.80357757475619" lon="11.184438635528224"><ele>37.0</ele><time>2026-05-03T18:01:39.999Z</time></trkpt><trkpt lat="43.80357294604517" lon="11.184602022506386"><ele>37.0</ele><time>2026-05-03T18:01:40.999Z</time></trkpt><trkpt lat="43.80360992386953" lon="11.184765016404642"><ele>37.0</ele><time>2026-05-03T18:01:41.999Z</time></trkpt><trkpt lat="43.80369136341162" lon="11.184899873696137"><ele>37.0</ele><time>2026-05-03T18:01:42.999Z</time></trkpt><trkpt lat="43.80368886875205" lon="11.18510114718534"><ele>37.25</ele><time>2026-05-03T18:01:43.999Z</time></trkpt><trkpt lat="43.803645252357576" lon="11.185285280981486"><ele>37.5</ele><time>2026-05-03T18:01:44.999Z</time></trkpt><trkpt lat="43.80358554184435" lon="11.185474136500938"><ele>37.75</ele><time>2026-05-03T18:01:45.999Z</time></trkpt><trkpt lat="43.80352828571711" lon="11.185668999953082"><ele>38.0</ele><time>2026-05-03T18:01:46.999Z</time></trkpt><trkpt lat="43.80347831001825" lon="11.18585887792291"><ele>38.25</ele><time>2026-05-03T18:01:47.999Z</time></trkpt><trkpt lat="43.80343105005067" lon="11.186049816031801"><ele>38.5</ele><time>2026-05-03T18:01:48.999Z</time></trkpt><trkpt lat="43.80337485727909" lon="11.186244009366336"><ele>38.75</ele><time>2026-05-03T18:01:49.999Z</time></trkpt><trkpt lat="43.80329727428641" lon="11.186425600242593"><ele>39.0</ele><time>2026-05-03T18:01:50.999Z</time></trkpt><trkpt lat="43.80320540819902" lon="11.18660811434658"><ele>38.0</ele><time>2026-05-03T18:01:51.999Z</time></trkpt><trkpt lat="43.80311278083677" lon="11.186785986083343"><ele>37.0</ele><time>2026-05-03T18:01:52.999Z</time></trkpt><trkpt lat="43.803027575519074" lon="11.186966117124564"><ele>36.0</ele><time>2026-05-03T18:01:53.999Z</time></trkpt><trkpt lat="43.8029456330673" lon="11.187147242556053"><ele>36.0</ele><time>2026-05-03T18:01:54.999Z</time></trkpt><trkpt lat="43.80286110387806" lon="11.187327303374976"><ele>36.0</ele><time>2026-05-03T18:01:55.999Z</time></trkpt><trkpt lat="43.80277558530647" lon="11.18750750029142"><ele>36.0</ele><time>2026-05-03T18:01:56.999Z</time></trkpt><trkpt lat="43.80269472883802" lon="11.187682501240877"><ele>36.0</ele><time>2026-05-03T18:01:57.999Z</time></trkpt><trkpt lat="43.80261492606972" lon="11.187856417979237"><ele>36.0</ele><time>2026-05-03T18:01:58.999Z</time></trkpt><trkpt lat="43.80253903276683" lon="11.18802919774114"><ele>36.0</ele><time>2026-05-03T18:01:59.999Z</time></trkpt><trkpt lat="43.80247026589927" lon="11.188202358059547"><ele>36.0</ele><time>2026-05-03T18:02:00.999Z</time></trkpt><trkpt lat="43.80240121056925" lon="11.188374105698667"><ele>36.333333333333336</ele><time>2026-05-03T18:02:01.999Z</time></trkpt><trkpt lat="43.80231524916636" lon="11.188538972298922"><ele>36.66666666666667</ele><time>2026-05-03T18:02:02.999Z</time></trkpt><trkpt lat="43.8022204342209" lon="11.188709284538895"><ele>37.0</ele><time>2026-05-03T18:02:03.999Z</time></trkpt><trkpt lat="43.802130915354496" lon="11.18888650350507"><ele>37.0</ele><time>2026-05-03T18:02:04.999Z</time></trkpt><trkpt lat="43.80205337156136" lon="11.189075269098359"><ele>37.0</ele><time>2026-05-03T18:02:05.999Z</time></trkpt><trkpt lat="43.801982344759594" lon="11.189256217788424"><ele>37.0</ele><time>2026-05-03T18:02:06.999Z</time></trkpt><trkpt lat="43.80191151184496" lon="11.189413487284254"><ele>37.0</ele><time>2026-05-03T18:02:07.999Z</time></trkpt><trkpt lat="43.801843986607985" lon="11.18954520066161"><ele>37.0</ele><time>2026-05-03T18:02:08.999Z</time></trkpt><trkpt lat="43.80178298191359" lon="11.18964779162171"><ele>37.0</ele><time>2026-05-03T18:02:09.999Z</time></trkpt><trkpt lat="43.80172623130286" lon="11.189731970367633"><ele>37.0</ele><time>2026-05-03T18:02:10.999Z</time></trkpt><trkpt lat="43.80164861703373" lon="11.189834873401475"><ele>37.0</ele><time>2026-05-03T18:02:12.999Z</time></trkpt><trkpt lat="43.80158106068931" lon="11.189947974137626"><ele>37.0</ele><time>2026-05-03T18:02:25.999Z</time></trkpt><trkpt lat="43.801525496436945" lon="11.190037433423523"><ele>37.0</ele><time>2026-05-03T18:02:26.999Z</time></trkpt><trkpt lat="43.801456699783834" lon="11.190144996447788"><ele>37.0</ele><time>2026-05-03T18:02:27.999Z</time></trkpt><trkpt lat="43.80137921654495" lon="11.190270631929428"><ele>37.0</ele><time>2026-05-03T18:02:28.999Z</time></trkpt><trkpt lat="43.80129275640231" lon="11.190407568974784"><ele>37.0</ele><time>2026-05-03T18:02:29.999Z</time></trkpt><trkpt lat="43.80119546973198" lon="11.19055811348533"><ele>37.0</ele><time>2026-05-03T18:02:30.999Z</time></trkpt><trkpt lat="43.801095817432405" lon="11.19071504653193"><ele>37.0</ele><time>2026-05-03T18:02:31.999Z</time></trkpt><trkpt lat="43.80099395002988" lon="11.190884751863623"><ele>37.0</ele><time>2026-05-03T18:02:32.999Z</time></trkpt><trkpt lat="43.80089353480751" lon="11.191052297592726"><ele>37.333333333333336</ele><time>2026-05-03T18:02:33.999Z</time></trkpt><trkpt lat="43.80078832945522" lon="11.191228997746734"><ele>37.666666666666664</ele><time>2026-05-03T18:02:34.999Z</time></trkpt><trkpt lat="43.800679282152196" lon="11.191409186808796"><ele>38.0</ele><time>2026-05-03T18:02:35.999Z</time></trkpt><trkpt lat="43.80056970493803" lon="11.191588690572681"><ele>38.0</ele><time>2026-05-03T18:02:36.999Z</time></trkpt><trkpt lat="43.8004558708207" lon="11.19177106190882"><ele>38.0</ele><time>2026-05-03T18:02:37.999Z</time></trkpt><trkpt lat="43.80034776144748" lon="11.19197462326578"><ele>38.0</ele><time>2026-05-03T18:02:38.999Z</time></trkpt><trkpt lat="43.80024333220078" lon="11.19216011221121"><ele>38.0</ele><time>2026-05-03T18:02:39.999Z</time></trkpt><trkpt lat="43.80013908998247" lon="11.192347263000688"><ele>38.0</ele><time>2026-05-03T18:02:40.999Z</time></trkpt><trkpt lat="43.80002813676276" lon="11.192532536272923"><ele>38.0</ele><time>2026-05-03T18:02:41.999Z</time></trkpt><trkpt lat="43.79993543272624" lon="11.192724842889083"><ele>38.0</ele><time>2026-05-03T18:02:43Z</time></trkpt><trkpt lat="43.79983396525337" lon="11.192901590957414"><ele>38.0</ele><time>2026-05-03T18:02:44Z</time></trkpt><trkpt lat="43.799729115436456" lon="11.193072752158525"><ele>38.0</ele><time>2026-05-03T18:02:45Z</time></trkpt><trkpt lat="43.79961868888649" lon="11.19323690833568"><ele>38.25</ele><time>2026-05-03T18:02:46Z</time></trkpt><trkpt lat="43.7995132858111" lon="11.193394730707784"><ele>38.5</ele><time>2026-05-03T18:02:47Z</time></trkpt><trkpt lat="43.79941824667208" lon="11.19353905787074"><ele>38.75</ele><time>2026-05-03T18:02:48Z</time></trkpt><trkpt lat="43.799332304808175" lon="11.193664906277414"><ele>39.0</ele><time>2026-05-03T18:02:49Z</time></trkpt><trkpt lat="43.7992557097253" lon="11.193755834706977"><ele>39.0</ele><time>2026-05-03T18:02:50Z</time></trkpt><trkpt lat="43.79917211486331" lon="11.19380360312274"><ele>39.0</ele><time>2026-05-03T18:02:51Z</time></trkpt><trkpt lat="43.79908728486378" lon="11.19380709634166"><ele>39.0</ele><time>2026-05-03T18:02:52Z</time></trkpt><trkpt lat="43.799021823807955" lon="11.193835999656798"><ele>39.0</ele><time>2026-05-03T18:02:53Z</time></trkpt><trkpt lat="43.798979090837804" lon="11.193932187018593"><ele>39.0</ele><time>2026-05-03T18:02:54Z</time></trkpt><trkpt lat="43.79895513047276" lon="11.194063555900394"><ele>39.0</ele><time>2026-05-03T18:02:55Z</time></trkpt><trkpt lat="43.79892815727178" lon="11.194226345659253"><ele>39.25</ele><time>2026-05-03T18:02:56Z</time></trkpt><trkpt lat="43.79888959266326" lon="11.194389653460354"><ele>39.5</ele><time>2026-05-03T18:02:57Z</time></trkpt><trkpt lat="43.798834414584555" lon="11.19454941241675"><ele>39.75</ele><time>2026-05-03T18:02:58Z</time></trkpt><trkpt lat="43.79878079666509" lon="11.194705966374242"><ele>40.0</ele><time>2026-05-03T18:02:59Z</time></trkpt><trkpt lat="43.7987528637655" lon="11.194870619230349"><ele>40.0</ele><time>2026-05-03T18:03:00Z</time></trkpt><trkpt lat="43.79876082146264" lon="11.195054334463963"><ele>40.0</ele><time>2026-05-03T18:03:01Z</time></trkpt><trkpt lat="43.79876985121817" lon="11.195249411940468"><ele>40.0</ele><time>2026-05-03T18:03:02Z</time></trkpt><trkpt lat="43.79875540204223" lon="11.195463733421056"><ele>40.0</ele><time>2026-05-03T18:03:03Z</time></trkpt><trkpt lat="43.79872091772407" lon="11.195687997986218"><ele>40.0</ele><time>2026-05-03T18:03:04Z</time></trkpt><trkpt lat="43.798688502836214" lon="11.19592281951625"><ele>40.0</ele><time>2026-05-03T18:03:05Z</time></trkpt><trkpt lat="43.798655690495515" lon="11.19616574089926"><ele>40.0</ele><time>2026-05-03T18:03:06Z</time></trkpt><trkpt lat="43.79862766002199" lon="11.196422369634465"><ele>39.0</ele><time>2026-05-03T18:03:07Z</time></trkpt><trkpt lat="43.798597566000666" lon="11.196682247520208"><ele>38.0</ele><time>2026-05-03T18:03:08Z</time></trkpt><trkpt lat="43.79856342074955" lon="11.196952007481613"><ele>37.0</ele><time>2026-05-03T18:03:09Z</time></trkpt><trkpt lat="43.798526468415574" lon="11.197225948420664"><ele>39.0</ele><time>2026-05-03T18:03:10Z</time></trkpt><trkpt lat="43.79849397868235" lon="11.197493220983496"><ele>41.0</ele><time>2026-05-03T18:03:10.999Z</time></trkpt><trkpt lat="43.798460223289666" lon="11.197762648558811"><ele>43.0</ele><time>2026-05-03T18:03:11.999Z</time></trkpt><trkpt lat="43.798424608408766" lon="11.198043557328559"><ele>42.0</ele><time>2026-05-03T18:03:12.999Z</time></trkpt><trkpt lat="43.79839593034621" lon="11.198306957018547"><ele>41.0</ele><time>2026-05-03T18:03:13.999Z</time></trkpt><trkpt lat="43.79835777506289" lon="11.19857892023174"><ele>40.0</ele><time>2026-05-03T18:03:14.999Z</time></trkpt><trkpt lat="43.79832143061103" lon="11.19884324591309"><ele>39.333333333333336</ele><time>2026-05-03T18:03:15.999Z</time></trkpt><trkpt lat="43.79828493242271" lon="11.199107040511704"><ele>38.666666666666664</ele><time>2026-05-03T18:03:16.999Z</time></trkpt><trkpt lat="43.79825144594939" lon="11.199358946844873"><ele>38.0</ele><time>2026-05-03T18:03:17.999Z</time></trkpt><trkpt lat="43.798222004273654" lon="11.19960736173319"><ele>38.0</ele><time>2026-05-03T18:03:18.999Z</time></trkpt><trkpt lat="43.79819737497419" lon="11.199841421287882"><ele>38.0</ele><time>2026-05-03T18:03:19.999Z</time></trkpt><trkpt lat="43.798169068490395" lon="11.200062513328167"><ele>38.0</ele><time>2026-05-03T18:03:20.999Z</time></trkpt><trkpt lat="43.79814250902816" lon="11.200268757339757"><ele>38.0</ele><time>2026-05-03T18:03:21.999Z</time></trkpt><trkpt lat="43.79810893264017" lon="11.20045577621391"><ele>38.0</ele><time>2026-05-03T18:03:22.999Z</time></trkpt><trkpt lat="43.79809203296951" lon="11.200637518983271"><ele>38.0</ele><time>2026-05-03T18:03:23.999Z</time></trkpt><trkpt lat="43.7980842500528" lon="11.200808559046049"><ele>38.0</ele><time>2026-05-03T18:03:24.999Z</time></trkpt><trkpt lat="43.798115241591525" lon="11.200989641988057"><ele>38.25</ele><time>2026-05-03T18:03:25.999Z</time></trkpt><trkpt lat="43.798140580285136" lon="11.201184792674574"><ele>38.5</ele><time>2026-05-03T18:03:26.999Z</time></trkpt><trkpt lat="43.79816151500443" lon="11.20138011123697"><ele>38.75</ele><time>2026-05-03T18:03:27.999Z</time></trkpt><trkpt lat="43.7981789720385" lon="11.20155342562013"><ele>39.0</ele><time>2026-05-03T18:03:28.999Z</time></trkpt><trkpt lat="43.79821076327246" lon="11.201706849005499"><ele>39.0</ele><time>2026-05-03T18:03:29.999Z</time></trkpt><trkpt lat="43.7982653177477" lon="11.201837971293502"><ele>39.0</ele><time>2026-05-03T18:03:30.999Z</time></trkpt><trkpt lat="43.79835453166957" lon="11.201943825389792"><ele>39.0</ele><time>2026-05-03T18:03:31.999Z</time></trkpt><trkpt lat="43.79845955299718" lon="11.202031654215872"><ele>39.0</ele><time>2026-05-03T18:03:32.999Z</time></trkpt><trkpt lat="43.79856450082853" lon="11.202120370626613"><ele>38.75</ele><time>2026-05-03T18:03:33.999Z</time></trkpt><trkpt lat="43.79867214458244" lon="11.202209360374834"><ele>38.5</ele><time>2026-05-03T18:03:34.999Z</time></trkpt><trkpt lat="43.79878163602194" lon="11.202289083687381"><ele>38.25</ele><time>2026-05-03T18:03:35.999Z</time></trkpt><trkpt lat="43.79889982991165" lon="11.202366492676504"><ele>38.0</ele><time>2026-05-03T18:03:36.999Z</time></trkpt><trkpt lat="43.79902306028216" lon="11.20245202103984"><ele>38.0</ele><time>2026-05-03T18:03:37.999Z</time></trkpt><trkpt lat="43.799132783669435" lon="11.202583326985067"><ele>38.0</ele><time>2026-05-03T18:03:38.999Z</time></trkpt><trkpt lat="43.799263867419384" lon="11.20268401277509"><ele>38.0</ele><time>2026-05-03T18:03:39.999Z</time></trkpt><trkpt lat="43.799380512923626" lon="11.202813033325475"><ele>38.0</ele><time>2026-05-03T18:03:40.999Z</time></trkpt><trkpt lat="43.7994834617662" lon="11.202935822788469"><ele>38.0</ele><time>2026-05-03T18:03:41.999Z</time></trkpt><trkpt lat="43.79957753574321" lon="11.203055569689363"><ele>38.0</ele><time>2026-05-03T18:03:42.999Z</time></trkpt><trkpt lat="43.799655584890395" lon="11.203175658852151"><ele>38.0</ele><time>2026-05-03T18:03:43.999Z</time></trkpt><trkpt lat="43.79969752825502" lon="11.203319244831684"><ele>38.0</ele><time>2026-05-03T18:03:44.999Z</time></trkpt><trkpt lat="43.79969654253137" lon="11.203470866583505"><ele>38.0</ele><time>2026-05-03T18:03:45.999Z</time></trkpt><trkpt lat="43.79964569229493" lon="11.203602938352784"><ele>38.0</ele><time>2026-05-03T18:03:46.999Z</time></trkpt><trkpt lat="43.79959288011328" lon="11.203731373142514"><ele>38.0</ele><time>2026-05-03T18:03:47.999Z</time></trkpt><trkpt lat="43.79946225958078" lon="11.203803166725063"><ele>38.0</ele><time>2026-05-03T18:03:48.999Z</time></trkpt><trkpt lat="43.79934761186639" lon="11.203880848231208"><ele>38.0</ele><time>2026-05-03T18:03:49.999Z</time></trkpt><trkpt lat="43.79921994492882" lon="11.203940243251443"><ele>38.0</ele><time>2026-05-03T18:03:50.999Z</time></trkpt><trkpt lat="43.799089456866064" lon="11.203963831742081"><ele>38.0</ele><time>2026-05-03T18:03:51.999Z</time></trkpt><trkpt lat="43.798957982896866" lon="11.203949543160972"><ele>38.0</ele><time>2026-05-03T18:03:52.999Z</time></trkpt><trkpt lat="43.79882340105683" lon="11.203909064406242"><ele>38.0</ele><time>2026-05-03T18:03:53.999Z</time></trkpt><trkpt lat="43.79867286326048" lon="11.203851705876819"><ele>38.0</ele><time>2026-05-03T18:03:54.999Z</time></trkpt><trkpt lat="43.79848917736048" lon="11.203803442284714"><ele>38.0</ele><time>2026-05-03T18:03:55.999Z</time></trkpt><trkpt lat="43.798319479530676" lon="11.203753026589483"><ele>38.33333333333333</ele><time>2026-05-03T18:03:56.999Z</time></trkpt><trkpt lat="43.79812456909485" lon="11.20371723767991"><ele>38.666666666666664</ele><time>2026-05-03T18:03:57.999Z</time></trkpt><trkpt lat="43.79792139798579" lon="11.20368699599071"><ele>39.0</ele><time>2026-05-03T18:03:58.999Z</time></trkpt><trkpt lat="43.79772375784992" lon="11.203646857615857"><ele>39.0</ele><time>2026-05-03T18:03:59.999Z</time></trkpt><trkpt lat="43.79753726906487" lon="11.203593692349566"><ele>39.0</ele><time>2026-05-03T18:04:00.999Z</time></trkpt><trkpt lat="43.797369992986056" lon="11.203551852659853"><ele>39.0</ele><time>2026-05-03T18:04:01.999Z</time></trkpt><trkpt lat="43.79719364434901" lon="11.20350894378831"><ele>39.0</ele><time>2026-05-03T18:04:02.999Z</time></trkpt><trkpt lat="43.79702142352673" lon="11.203420207046628"><ele>39.0</ele><time>2026-05-03T18:04:03.999Z</time></trkpt><trkpt lat="43.79684601709143" lon="11.20333612204066"><ele>39.0</ele><time>2026-05-03T18:04:04.999Z</time></trkpt><trkpt lat="43.79667332841951" lon="11.203248565906495"><ele>39.333333333333336</ele><time>2026-05-03T18:04:05.999Z</time></trkpt><trkpt lat="43.79650512765714" lon="11.203166003446174"><ele>39.66666666666667</ele><time>2026-05-03T18:04:06.999Z</time></trkpt><trkpt lat="43.796346611679674" lon="11.20307925704297"><ele>40.0</ele><time>2026-05-03T18:04:07.999Z</time></trkpt><trkpt lat="43.79619894181619" lon="11.202973449663903"><ele>40.0</ele><time>2026-05-03T18:04:08.999Z</time></trkpt><trkpt lat="43.796067688506305" lon="11.202823090359418"><ele>40.0</ele><time>2026-05-03T18:04:09.999Z</time></trkpt><trkpt lat="43.795950737347745" lon="11.202644250009437"><ele>40.0</ele><time>2026-05-03T18:04:10.999Z</time></trkpt><trkpt lat="43.79584663126322" lon="11.202441659619895"><ele>40.0</ele><time>2026-05-03T18:04:11.999Z</time></trkpt><trkpt lat="43.79575364625891" lon="11.20222339522781"><ele>40.0</ele><time>2026-05-03T18:04:12.999Z</time></trkpt><trkpt lat="43.79564226352213" lon="11.20200027939067"><ele>40.0</ele><time>2026-05-03T18:04:13.999Z</time></trkpt><trkpt lat="43.795516933324706" lon="11.201779302205056"><ele>40.0</ele><time>2026-05-03T18:04:14.999Z</time></trkpt><trkpt lat="43.795393352965114" lon="11.201552288424786"><ele>40.0</ele><time>2026-05-03T18:04:15.999Z</time></trkpt><trkpt lat="43.79526143043991" lon="11.201309324962507"><ele>40.0</ele><time>2026-05-03T18:04:16.999Z</time></trkpt><trkpt lat="43.795139929791496" lon="11.201079071885054"><ele>41.0</ele><time>2026-05-03T18:04:17.999Z</time></trkpt><trkpt lat="43.79502382213009" lon="11.200842794881229"><ele>42.0</ele><time>2026-05-03T18:04:18.999Z</time></trkpt><trkpt lat="43.794901136651895" lon="11.2006039198203"><ele>43.0</ele><time>2026-05-03T18:04:19.999Z</time></trkpt><trkpt lat="43.79477957323506" lon="11.200367111063201"><ele>43.0</ele><time>2026-05-03T18:04:20.999Z</time></trkpt><trkpt lat="43.794653996259775" lon="11.200133790207595"><ele>43.0</ele><time>2026-05-03T18:04:21.999Z</time></trkpt><trkpt lat="43.79452682947647" lon="11.199912072318325"><ele>43.0</ele><time>2026-05-03T18:04:22.999Z</time></trkpt><trkpt lat="43.79440185982757" lon="11.19969597054297"><ele>41.66666666666667</ele><time>2026-05-03T18:04:23.999Z</time></trkpt><trkpt lat="43.79427175531805" lon="11.19948677806255"><ele>40.333333333333336</ele><time>2026-05-03T18:04:24.999Z</time></trkpt><trkpt lat="43.79413372444069" lon="11.19929976691436"><ele>39.0</ele><time>2026-05-03T18:04:25.999Z</time></trkpt><trkpt lat="43.79398935565564" lon="11.199128676194343"><ele>39.0</ele><time>2026-05-03T18:04:26.999Z</time></trkpt><trkpt lat="43.79384728194289" lon="11.19897124325348"><ele>39.0</ele><time>2026-05-03T18:04:27.999Z</time></trkpt><trkpt lat="43.79370901328483" lon="11.198839281064577"><ele>39.0</ele><time>2026-05-03T18:04:28.999Z</time></trkpt><trkpt lat="43.79357212827395" lon="11.198715916495335"><ele>39.333333333333336</ele><time>2026-05-03T18:04:29.999Z</time></trkpt><trkpt lat="43.79343545039765" lon="11.198606506388236"><ele>39.66666666666667</ele><time>2026-05-03T18:04:30.999Z</time></trkpt><trkpt lat="43.79329524595906" lon="11.198496950266362"><ele>40.0</ele><time>2026-05-03T18:04:31.999Z</time></trkpt><trkpt lat="43.793151903681796" lon="11.198390526845731"><ele>40.0</ele><time>2026-05-03T18:04:32.999Z</time></trkpt><trkpt lat="43.79300656757142" lon="11.198280630320758"><ele>40.0</ele><time>2026-05-03T18:04:33.999Z</time></trkpt><trkpt lat="43.79285685199812" lon="11.198166979329045"><ele>40.0</ele><time>2026-05-03T18:04:34.999Z</time></trkpt><trkpt lat="43.79269846081353" lon="11.19804822353675"><ele>40.66666666666667</ele><time>2026-05-03T18:04:35.999Z</time></trkpt><trkpt lat="43.792537587824725" lon="11.197930216933706"><ele>41.333333333333336</ele><time>2026-05-03T18:04:36.999Z</time></trkpt><trkpt lat="43.7923614554709" lon="11.197803932474391"><ele>42.0</ele><time>2026-05-03T18:04:37.999Z</time></trkpt><trkpt lat="43.79217822142448" lon="11.197672447969579"><ele>42.0</ele><time>2026-05-03T18:04:38.999Z</time></trkpt><trkpt lat="43.7919800346856" lon="11.19752902612488"><ele>42.0</ele><time>2026-05-03T18:04:39.999Z</time></trkpt><trkpt lat="43.79177971647701" lon="11.197378796267177"><ele>41.0</ele><time>2026-05-03T18:04:40.999Z</time></trkpt><trkpt lat="43.79158785286279" lon="11.197234742267941"><ele>40.0</ele><time>2026-05-03T18:04:41.999Z</time></trkpt><trkpt lat="43.79139297499968" lon="11.19708181143037"><ele>39.0</ele><time>2026-05-03T18:04:42.999Z</time></trkpt><trkpt lat="43.791224263750976" lon="11.196953462646206"><ele>39.0</ele><time>2026-05-03T18:04:43.999Z</time></trkpt><trkpt lat="43.79106154266731" lon="11.196839204703357"><ele>39.0</ele><time>2026-05-03T18:04:44.999Z</time></trkpt><trkpt lat="43.79090770366733" lon="11.196729727757083"><ele>39.0</ele><time>2026-05-03T18:04:45.999Z</time></trkpt><trkpt lat="43.790761039945494" lon="11.196628014220652"><ele>37.333333333333336</ele><time>2026-05-03T18:04:46.999Z</time></trkpt><trkpt lat="43.790617980748735" lon="11.196522663497575"><ele>35.66666666666667</ele><time>2026-05-03T18:04:48Z</time></trkpt><trkpt lat="43.790467782359606" lon="11.196412900712103"><ele>34.0</ele><time>2026-05-03T18:04:49Z</time></trkpt><trkpt lat="43.790316983352" lon="11.196304598658449"><ele>32.0</ele><time>2026-05-03T18:04:49.999Z</time></trkpt><trkpt lat="43.79016236214136" lon="11.196191998960643"><ele>30.0</ele><time>2026-05-03T18:04:51Z</time></trkpt><trkpt lat="43.79000395357924" lon="11.196077012190182"><ele>28.0</ele><time>2026-05-03T18:04:52Z</time></trkpt><trkpt lat="43.78984727170763" lon="11.195964865609039"><ele>28.0</ele><time>2026-05-03T18:04:53Z</time></trkpt><trkpt lat="43.789692910882344" lon="11.195841247924783"><ele>28.0</ele><time>2026-05-03T18:04:54Z</time></trkpt><trkpt lat="43.789534494798986" lon="11.195725848109124"><ele>28.0</ele><time>2026-05-03T18:04:55Z</time></trkpt><trkpt lat="43.78937291806524" lon="11.195612622791149"><ele>32.333333333333336</ele><time>2026-05-03T18:04:56Z</time></trkpt><trkpt lat="43.789209591605534" lon="11.19549355975978"><ele>36.666666666666664</ele><time>2026-05-03T18:04:57Z</time></trkpt><trkpt lat="43.78905093572274" lon="11.195383827069683"><ele>41.0</ele><time>2026-05-03T18:04:58Z</time></trkpt><trkpt lat="43.78889127803464" lon="11.19527000982661"><ele>41.0</ele><time>2026-05-03T18:04:59Z</time></trkpt><trkpt lat="43.78873737579221" lon="11.195157949347093"><ele>41.0</ele><time>2026-05-03T18:05:00Z</time></trkpt><trkpt lat="43.788584198898754" lon="11.195047738589638"><ele>41.0</ele><time>2026-05-03T18:05:01Z</time></trkpt><trkpt lat="43.788430971121194" lon="11.194940048627052"><ele>40.33333333333333</ele><time>2026-05-03T18:05:02Z</time></trkpt><trkpt lat="43.78828558642369" lon="11.19483273821357"><ele>39.666666666666664</ele><time>2026-05-03T18:05:03Z</time></trkpt><trkpt lat="43.78812859998944" lon="11.194720644230667"><ele>39.0</ele><time>2026-05-03T18:05:04Z</time></trkpt><trkpt lat="43.78797556614696" lon="11.194588571774403"><ele>39.0</ele><time>2026-05-03T18:05:05Z</time></trkpt><trkpt lat="43.78781474595546" lon="11.194491776422256"><ele>39.0</ele><time>2026-05-03T18:05:05.999Z</time></trkpt><trkpt lat="43.787667983266374" lon="11.194376920181774"><ele>39.0</ele><time>2026-05-03T18:05:06.999Z</time></trkpt><trkpt lat="43.78751436538924" lon="11.194262176875181"><ele>38.666666666666664</ele><time>2026-05-03T18:05:07.999Z</time></trkpt><trkpt lat="43.78736092644513" lon="11.194150416807933"><ele>38.33333333333333</ele><time>2026-05-03T18:05:08.999Z</time></trkpt><trkpt lat="43.78720680352343" lon="11.194036355501494"><ele>38.0</ele><time>2026-05-03T18:05:09.999Z</time></trkpt><trkpt lat="43.787056607850054" lon="11.193929621460358"><ele>38.0</ele><time>2026-05-03T18:05:10.999Z</time></trkpt><trkpt lat="43.78690845515081" lon="11.193819779586159"><ele>38.0</ele><time>2026-05-03T18:05:11.999Z</time></trkpt><trkpt lat="43.786767350334806" lon="11.193715222409258"><ele>38.0</ele><time>2026-05-03T18:05:12.999Z</time></trkpt><trkpt lat="43.78663348849165" lon="11.19360906134317"><ele>38.0</ele><time>2026-05-03T18:05:13.999Z</time></trkpt><trkpt lat="43.786517016137395" lon="11.19348150796266"><ele>38.0</ele><time>2026-05-03T18:05:14.999Z</time></trkpt><trkpt lat="43.78638587253482" lon="11.19337571558095"><ele>38.0</ele><time>2026-05-03T18:05:15.999Z</time></trkpt><trkpt lat="43.786260591880875" lon="11.193241350053372"><ele>38.33333333333333</ele><time>2026-05-03T18:05:16.999Z</time></trkpt><trkpt lat="43.78613514976025" lon="11.193096492127191"><ele>38.666666666666664</ele><time>2026-05-03T18:05:17.999Z</time></trkpt><trkpt lat="43.78601067484971" lon="11.192944953164552"><ele>39.0</ele><time>2026-05-03T18:05:18.999Z</time></trkpt><trkpt lat="43.78588778822139" lon="11.192780171249044"><ele>39.0</ele><time>2026-05-03T18:05:19.999Z</time></trkpt><trkpt lat="43.785773770670865" lon="11.192613037432942"><ele>39.0</ele><time>2026-05-03T18:05:20.999Z</time></trkpt><trkpt lat="43.78566358602204" lon="11.192431400607198"><ele>39.0</ele><time>2026-05-03T18:05:21.999Z</time></trkpt><trkpt lat="43.7855589372909" lon="11.192243591142503"><ele>39.0</ele><time>2026-05-03T18:05:22.999Z</time></trkpt><trkpt lat="43.78546128414752" lon="11.192055140285632"><ele>39.0</ele><time>2026-05-03T18:05:23.999Z</time></trkpt><trkpt lat="43.785365055860964" lon="11.191859712072032"><ele>39.0</ele><time>2026-05-03T18:05:24.999Z</time></trkpt><trkpt lat="43.785273112910815" lon="11.191665832357074"><ele>39.0</ele><time>2026-05-03T18:05:25.999Z</time></trkpt><trkpt lat="43.78518710020842" lon="11.191467129612498"><ele>39.0</ele><time>2026-05-03T18:05:26.999Z</time></trkpt><trkpt lat="43.78510147736356" lon="11.191264186350866"><ele>39.0</ele><time>2026-05-03T18:05:27.999Z</time></trkpt><trkpt lat="43.7850160763864" lon="11.191058193898954"><ele>39.0</ele><time>2026-05-03T18:05:28.999Z</time></trkpt><trkpt lat="43.78491639176445" lon="11.190840960505788"><ele>39.0</ele><time>2026-05-03T18:05:29.999Z</time></trkpt><trkpt lat="43.784807891854086" lon="11.190613934716465"><ele>39.0</ele><time>2026-05-03T18:05:30.999Z</time></trkpt><trkpt lat="43.78471830501776" lon="11.190391625312603"><ele>39.0</ele><time>2026-05-03T18:05:32Z</time></trkpt><trkpt lat="43.78462901593053" lon="11.190181332290189"><ele>39.0</ele><time>2026-05-03T18:05:33Z</time></trkpt><trkpt lat="43.7845482731597" lon="11.189991572319167"><ele>39.0</ele><time>2026-05-03T18:05:34Z</time></trkpt><trkpt lat="43.78447417202216" lon="11.189823780956285"><ele>39.0</ele><time>2026-05-03T18:05:35Z</time></trkpt><trkpt lat="43.78440595868141" lon="11.189672741646977"><ele>39.0</ele><time>2026-05-03T18:05:36Z</time></trkpt><trkpt lat="43.78434422479355" lon="11.189525384304044"><ele>39.0</ele><time>2026-05-03T18:05:37Z</time></trkpt><trkpt lat="43.78426942833407" lon="11.189398381521475"><ele>39.0</ele><time>2026-05-03T18:05:38Z</time></trkpt><trkpt lat="43.78419588936955" lon="11.189278438880741"><ele>39.5</ele><time>2026-05-03T18:05:39Z</time></trkpt><trkpt lat="43.784113916254164" lon="11.189154690838576"><ele>40.0</ele><time>2026-05-03T18:05:40Z</time></trkpt><trkpt lat="43.784018616852556" lon="11.189027635402997"><ele>40.5</ele><time>2026-05-03T18:05:41Z</time></trkpt><trkpt lat="43.78390976426837" lon="11.18889487310303"><ele>41.0</ele><time>2026-05-03T18:05:42Z</time></trkpt><trkpt lat="43.78376900763481" lon="11.188744729384062"><ele>41.33333333333333</ele><time>2026-05-03T18:05:43Z</time></trkpt><trkpt lat="43.78361971990424" lon="11.188601741562424"><ele>41.666666666666664</ele><time>2026-05-03T18:05:44Z</time></trkpt><trkpt lat="43.78346870774719" lon="11.188445040144273"><ele>42.0</ele><time>2026-05-03T18:05:45Z</time></trkpt><trkpt lat="43.783294415423626" lon="11.188298521064898"><ele>41.666666666666664</ele><time>2026-05-03T18:05:46Z</time></trkpt><trkpt lat="43.78311200872251" lon="11.188164284680555"><ele>41.33333333333333</ele><time>2026-05-03T18:05:47Z</time></trkpt><trkpt lat="43.78294217491629" lon="11.188007102027555"><ele>41.0</ele><time>2026-05-03T18:05:48Z</time></trkpt><trkpt lat="43.78277772496458" lon="11.187855774784286"><ele>40.666666666666664</ele><time>2026-05-03T18:05:49Z</time></trkpt><trkpt lat="43.78261348758392" lon="11.187711582467685"><ele>40.333333333333336</ele><time>2026-05-03T18:05:50Z</time></trkpt><trkpt lat="43.7824578317667" lon="11.18757758046758"><ele>40.0</ele><time>2026-05-03T18:05:51Z</time></trkpt><trkpt lat="43.78230881176656" lon="11.18745261623919"><ele>39.333333333333336</ele><time>2026-05-03T18:05:52Z</time></trkpt><trkpt lat="43.7821666738611" lon="11.18733532978672"><ele>38.666666666666664</ele><time>2026-05-03T18:05:53Z</time></trkpt><trkpt lat="43.78203957508649" lon="11.187220831441714"><ele>38.0</ele><time>2026-05-03T18:05:54Z</time></trkpt><trkpt lat="43.781923882784746" lon="11.187122620272621"><ele>38.25</ele><time>2026-05-03T18:05:55Z</time></trkpt><trkpt lat="43.78182703684628" lon="11.187041644371375"><ele>38.5</ele><time>2026-05-03T18:05:56Z</time></trkpt><trkpt lat="43.78182599293528" lon="11.186797882524406"><ele>38.75</ele><time>2026-05-03T18:05:57Z</time></trkpt><trkpt lat="43.78182533141095" lon="11.186629248093345"><ele>39.0</ele><time>2026-05-03T18:05:58Z</time></trkpt><trkpt lat="43.781872208299816" lon="11.186472682567679"><ele>38.5</ele><time>2026-05-03T18:05:59Z</time></trkpt><trkpt lat="43.781953725808705" lon="11.186336602848142"><ele>38.0</ele><time>2026-05-03T18:06:00Z</time></trkpt><trkpt lat="43.78207787256655" lon="11.186244116073546"><ele>37.5</ele><time>2026-05-03T18:06:01Z</time></trkpt><trkpt lat="43.78222722931662" lon="11.186191203376689"><ele>37.0</ele><time>2026-05-03T18:06:02Z</time></trkpt><trkpt lat="43.782378232473704" lon="11.186124853358304"><ele>37.0</ele><time>2026-05-03T18:06:03Z</time></trkpt><trkpt lat="43.782512663617" lon="11.186050384631182"><ele>37.0</ele><time>2026-05-03T18:06:04Z</time></trkpt><trkpt lat="43.782625271620056" lon="11.185995928036109"><ele>37.0</ele><time>2026-05-03T18:06:05Z</time></trkpt><trkpt lat="43.782731574777245" lon="11.186007232262904"><ele>37.0</ele><time>2026-05-03T18:06:06Z</time></trkpt><trkpt lat="43.782812741601234" lon="11.18607627728185"><ele>37.0</ele><time>2026-05-03T18:06:07Z</time></trkpt><trkpt lat="43.7828882998108" lon="11.186149655570055"><ele>37.0</ele><time>2026-05-03T18:06:08Z</time></trkpt><trkpt lat="43.78298285374299" lon="11.18614313820687"><ele>37.0</ele><time>2026-05-03T18:06:09Z</time></trkpt><trkpt lat="43.783070508814895" lon="11.186054995316661"><ele>37.0</ele><time>2026-05-03T18:06:10Z</time></trkpt><trkpt lat="43.783124726955805" lon="11.185914295515342"><ele>37.0</ele><time>2026-05-03T18:06:11Z</time></trkpt><trkpt lat="43.783151507691386" lon="11.18574332483187"><ele>36.66666666666667</ele><time>2026-05-03T18:06:12Z</time></trkpt><trkpt lat="43.78323152280392" lon="11.185573767156223"><ele>36.333333333333336</ele><time>2026-05-03T18:06:13Z</time></trkpt><trkpt lat="43.78335636377661" lon="11.185400336564825"><ele>36.0</ele><time>2026-05-03T18:06:14Z</time></trkpt><trkpt lat="43.78351162950367" lon="11.18521497991083"><ele>36.0</ele><time>2026-05-03T18:06:15Z</time></trkpt><trkpt lat="43.783620795055185" lon="11.184958021392971"><ele>36.0</ele><time>2026-05-03T18:06:16Z</time></trkpt><trkpt lat="43.78369329171141" lon="11.184670540257232"><ele>36.0</ele><time>2026-05-03T18:06:17Z</time></trkpt><trkpt lat="43.78369947608268" lon="11.184387901221315"><ele>36.0</ele><time>2026-05-03T18:06:18Z</time></trkpt><trkpt lat="43.783677626802216" lon="11.184124864226412"><ele>36.0</ele><time>2026-05-03T18:06:19Z</time></trkpt><trkpt lat="43.78360375418617" lon="11.183890852052714"><ele>36.0</ele><time>2026-05-03T18:06:20Z</time></trkpt><trkpt lat="43.78349622405472" lon="11.183681317525123"><ele>36.0</ele><time>2026-05-03T18:06:21Z</time></trkpt><trkpt lat="43.78334406877287" lon="11.183484851392222"><ele>36.0</ele><time>2026-05-03T18:06:22Z</time></trkpt><trkpt lat="43.78318982301492" lon="11.183253270477252"><ele>36.0</ele><time>2026-05-03T18:06:23Z</time></trkpt><trkpt lat="43.78303753920578" lon="11.183048851171868"><ele>36.333333333333336</ele><time>2026-05-03T18:06:24Z</time></trkpt><trkpt lat="43.78288664579664" lon="11.18284778630097"><ele>36.66666666666667</ele><time>2026-05-03T18:06:25Z</time></trkpt><trkpt lat="43.78280943412718" lon="11.182611138400024"><ele>37.0</ele><time>2026-05-03T18:06:26Z</time></trkpt><trkpt lat="43.78276926965208" lon="11.182386421594149"><ele>36.800000000000004</ele><time>2026-05-03T18:06:27Z</time></trkpt><trkpt lat="43.782756245765675" lon="11.182189331127802"><ele>36.6</ele><time>2026-05-03T18:06:28Z</time></trkpt><trkpt lat="43.78275377321974" lon="11.182040323750469"><ele>36.400000000000006</ele><time>2026-05-03T18:06:29Z</time></trkpt><trkpt lat="43.782741362072684" lon="11.18190890332514"><ele>36.2</ele><time>2026-05-03T18:06:30Z</time></trkpt><trkpt lat="43.78272192462836" lon="11.181786445635161"><ele>36.0</ele><time>2026-05-03T18:06:31Z</time></trkpt><trkpt lat="43.78272296817101" lon="11.181660405739516"><ele>36.0</ele><time>2026-05-03T18:06:32Z</time></trkpt><trkpt lat="43.782690065490186" lon="11.181522625787974"><ele>36.0</ele><time>2026-05-03T18:06:33Z</time></trkpt><trkpt lat="43.78268782654742" lon="11.181365517015074"><ele>36.0</ele><time>2026-05-03T18:06:34Z</time></trkpt><trkpt lat="43.782655582770715" lon="11.181191651657167"><ele>36.0</ele><time>2026-05-03T18:06:35Z</time></trkpt><trkpt lat="43.78266355477987" lon="11.180969605674521"><ele>36.0</ele><time>2026-05-03T18:06:36Z</time></trkpt><trkpt lat="43.78268030617927" lon="11.1807074835358"><ele>36.0</ele><time>2026-05-03T18:06:37Z</time></trkpt><trkpt lat="43.782715485222504" lon="11.18043155843103"><ele>36.0</ele><time>2026-05-03T18:06:38Z</time></trkpt><trkpt lat="43.78281072477844" lon="11.18015668655665"><ele>36.0</ele><time>2026-05-03T18:06:39Z</time></trkpt><trkpt lat="43.78292640657021" lon="11.179882221279708"><ele>36.0</ele><time>2026-05-03T18:06:40Z</time></trkpt><trkpt lat="43.78304418135009" lon="11.179604892382448"><ele>36.0</ele><time>2026-05-03T18:06:41Z</time></trkpt><trkpt lat="43.783153880775096" lon="11.179325189677744"><ele>36.0</ele><time>2026-05-03T18:06:42Z</time></trkpt><trkpt lat="43.78324752282765" lon="11.179056340036622"><ele>36.0</ele><time>2026-05-03T18:06:43Z</time></trkpt><trkpt lat="43.78332022991989" lon="11.178781092679126"><ele>36.0</ele><time>2026-05-03T18:06:44Z</time></trkpt><trkpt lat="43.783357119046954" lon="11.17848192268883"><ele>36.0</ele><time>2026-05-03T18:06:45Z</time></trkpt><trkpt lat="43.783357690293364" lon="11.178161439865194"><ele>36.0</ele><time>2026-05-03T18:06:46Z</time></trkpt><trkpt lat="43.78333391111835" lon="11.177840087832143"><ele>36.0</ele><time>2026-05-03T18:06:47Z</time></trkpt><trkpt lat="43.78332120018957" lon="11.17754337234444"><ele>36.0</ele><time>2026-05-03T18:06:48Z</time></trkpt><trkpt lat="43.78332464043636" lon="11.177260833080796"><ele>35.75</ele><time>2026-05-03T18:06:49Z</time></trkpt><trkpt lat="43.783335963344754" lon="11.177012889976066"><ele>35.5</ele><time>2026-05-03T18:06:50Z</time></trkpt><trkpt lat="43.78334826105193" lon="11.176849929102184"><ele>35.25</ele><time>2026-05-03T18:06:51Z</time></trkpt><trkpt lat="43.783375828836945" lon="11.176697062454293"><ele>35.0</ele><time>2026-05-03T18:06:52Z</time></trkpt><trkpt lat="43.78341723880304" lon="11.176520751014063"><ele>35.33333333333333</ele><time>2026-05-03T18:06:53Z</time></trkpt><trkpt lat="43.78345485786496" lon="11.176321226227989"><ele>35.666666666666664</ele><time>2026-05-03T18:06:54Z</time></trkpt><trkpt lat="43.7834935364631" lon="11.17610601701493"><ele>36.0</ele><time>2026-05-03T18:06:55Z</time></trkpt><trkpt lat="43.783542033752575" lon="11.175881156423511"><ele>36.333333333333336</ele><time>2026-05-03T18:06:56Z</time></trkpt><trkpt lat="43.783584699304825" lon="11.175642229777708"><ele>36.66666666666667</ele><time>2026-05-03T18:06:57Z</time></trkpt><trkpt lat="43.78363598586401" lon="11.175396490591204"><ele>37.0</ele><time>2026-05-03T18:06:58Z</time></trkpt><trkpt lat="43.783697251681595" lon="11.175148044812596"><ele>37.0</ele><time>2026-05-03T18:06:59Z</time></trkpt><trkpt lat="43.78377321569807" lon="11.174890191003142"><ele>37.0</ele><time>2026-05-03T18:07:00Z</time></trkpt><trkpt lat="43.783879225993914" lon="11.174645814686377"><ele>37.0</ele><time>2026-05-03T18:07:01Z</time></trkpt><trkpt lat="43.78396793395866" lon="11.174391082479868"><ele>37.333333333333336</ele><time>2026-05-03T18:07:02Z</time></trkpt><trkpt lat="43.78402811168298" lon="11.174123660690771"><ele>37.666666666666664</ele><time>2026-05-03T18:07:03Z</time></trkpt><trkpt lat="43.78404972456778" lon="11.173830641926035"><ele>38.0</ele><time>2026-05-03T18:07:04Z</time></trkpt><trkpt lat="43.78402682107173" lon="11.173519933919968"><ele>38.0</ele><time>2026-05-03T18:07:05Z</time></trkpt><trkpt lat="43.783980522978986" lon="11.173205263618012"><ele>38.0</ele><time>2026-05-03T18:07:06Z</time></trkpt><trkpt lat="43.78392174002407" lon="11.172882013381527"><ele>37.5</ele><time>2026-05-03T18:07:07Z</time></trkpt><trkpt lat="43.78385749672911" lon="11.172546505177817"><ele>37.0</ele><time>2026-05-03T18:07:08Z</time></trkpt><trkpt lat="43.78379612811719" lon="11.172203806967419"><ele>36.0</ele><time>2026-05-03T18:07:09Z</time></trkpt><trkpt lat="43.78373754114214" lon="11.171848959389877"><ele>35.0</ele><time>2026-05-03T18:07:10Z</time></trkpt><trkpt lat="43.783677120313456" lon="11.171487032035168"><ele>35.0</ele><time>2026-05-03T18:07:11Z</time></trkpt><trkpt lat="43.78361341210435" lon="11.171122109991972"><ele>35.0</ele><time>2026-05-03T18:07:12Z</time></trkpt><trkpt lat="43.78355226344234" lon="11.170753037903822"><ele>36.0</ele><time>2026-05-03T18:07:13Z</time></trkpt><trkpt lat="43.7834981296718" lon="11.170416703225936"><ele>37.0</ele><time>2026-05-03T18:07:14Z</time></trkpt><trkpt lat="43.78344898094284" lon="11.17009699096015"><ele>37.0</ele><time>2026-05-03T18:07:15Z</time></trkpt><trkpt lat="43.78340102112894" lon="11.169809455168021"><ele>37.0</ele><time>2026-05-03T18:07:16Z</time></trkpt><trkpt lat="43.783356844344524" lon="11.169545534730632"><ele>37.0</ele><time>2026-05-03T18:07:17Z</time></trkpt><trkpt lat="43.78331311302907" lon="11.169303163585138"><ele>37.0</ele><time>2026-05-03T18:07:18Z</time></trkpt><trkpt lat="43.783260336957184" lon="11.169083372914956"><ele>37.0</ele><time>2026-05-03T18:07:19Z</time></trkpt><trkpt lat="43.783192505659606" lon="11.168886707091849"><ele>37.0</ele><time>2026-05-03T18:07:20Z</time></trkpt><trkpt lat="43.78311083066885" lon="11.168719009298417"><ele>37.0</ele><time>2026-05-03T18:07:21Z</time></trkpt><trkpt lat="43.78302214794379" lon="11.168571303090646"><ele>37.0</ele><time>2026-05-03T18:07:22Z</time></trkpt><trkpt lat="43.78294616572873" lon="11.168444056477147"><ele>37.0</ele><time>2026-05-03T18:07:23Z</time></trkpt><trkpt lat="43.78289434208227" lon="11.168308928739314"><ele>37.0</ele><time>2026-05-03T18:07:24Z</time></trkpt><trkpt lat="43.78285425816221" lon="11.16818747887127"><ele>37.0</ele><time>2026-05-03T18:07:25Z</time></trkpt><trkpt lat="43.78279670051854" lon="11.168091769013039"><ele>37.0</ele><time>2026-05-03T18:07:26Z</time></trkpt><trkpt lat="43.78268431276258" lon="11.168102354300844"><ele>37.0</ele><time>2026-05-03T18:07:27Z</time></trkpt><trkpt lat="43.78257656666456" lon="11.168112577326099"><ele>37.0</ele><time>2026-05-03T18:07:28Z</time></trkpt><trkpt lat="43.78247541557173" lon="11.168118797373053"><ele>37.0</ele><time>2026-05-03T18:07:29Z</time></trkpt><trkpt lat="43.78241173126015" lon="11.16811928248122"><ele>37.0</ele><time>2026-05-03T18:07:30Z</time></trkpt><trkpt lat="43.78232646643572" lon="11.168056959927616"><ele>37.0</ele><time>2026-05-03T18:07:32Z</time></trkpt><trkpt lat="43.7822291092813" lon="11.168039075220122"><ele>37.0</ele><time>2026-05-03T18:07:34Z</time></trkpt><trkpt lat="43.78216260803099" lon="11.168027203918543"><ele>37.0</ele><time>2026-05-03T18:07:35Z</time></trkpt><trkpt lat="43.7820909551171" lon="11.168033399524454"><ele>37.0</ele><time>2026-05-03T18:07:36Z</time></trkpt><trkpt lat="43.78202017773322" lon="11.16801770628187"><ele>37.0</ele><time>2026-05-03T18:07:37Z</time></trkpt><trkpt lat="43.781943151324306" lon="11.167993797000287"><ele>37.0</ele><time>2026-05-03T18:07:38Z</time></trkpt><trkpt lat="43.781863921895166" lon="11.167966869802648"><ele>37.0</ele><time>2026-05-03T18:07:39Z</time></trkpt><trkpt lat="43.781788550349695" lon="11.167932452801088"><ele>37.0</ele><time>2026-05-03T18:07:40Z</time></trkpt><trkpt lat="43.78170817728678" lon="11.16789872441669"><ele>37.0</ele><time>2026-05-03T18:07:41Z</time></trkpt><trkpt lat="43.781627036855895" lon="11.16786646434224"><ele>37.0</ele><time>2026-05-03T18:07:42Z</time></trkpt><trkpt lat="43.781544932166604" lon="11.167833891379942"><ele>37.0</ele><time>2026-05-03T18:07:43Z</time></trkpt><trkpt lat="43.78146963777138" lon="11.167781660571249"><ele>37.16666666666667</ele><time>2026-05-03T18:07:44Z</time></trkpt><trkpt lat="43.78140990245711" lon="11.16771678949068"><ele>37.333333333333336</ele><time>2026-05-03T18:07:45Z</time></trkpt><trkpt lat="43.781355760286225" lon="11.167659789333412"><ele>37.5</ele><time>2026-05-03T18:07:46Z</time></trkpt><trkpt lat="43.781277704653796" lon="11.167546782957938"><ele>37.666666666666664</ele><time>2026-05-03T18:07:48Z</time></trkpt><trkpt lat="43.78118597194921" lon="11.16751505235886"><ele>37.83333333333333</ele><time>2026-05-03T18:07:50Z</time></trkpt><trkpt lat="43.78112459264622" lon="11.167547416265759"><ele>38.0</ele><time>2026-05-03T18:07:51Z</time></trkpt><trkpt lat="43.78105280353746" lon="11.167576048896871"><ele>37.8</ele><time>2026-05-03T18:07:52Z</time></trkpt><trkpt lat="43.78097305679975" lon="11.167606478266325"><ele>37.599999999999994</ele><time>2026-05-03T18:07:53Z</time></trkpt><trkpt lat="43.78088894376108" lon="11.167637555342091"><ele>37.400000000000006</ele><time>2026-05-03T18:07:54Z</time></trkpt><trkpt lat="43.78080116958899" lon="11.16767701404776"><ele>37.2</ele><time>2026-05-03T18:07:55Z</time></trkpt><trkpt lat="43.780708842395946" lon="11.167752177980587"><ele>37.0</ele><time>2026-05-03T18:07:56Z</time></trkpt><trkpt lat="43.780636645228" lon="11.16786593664898"><ele>37.0</ele><time>2026-05-03T18:07:57Z</time></trkpt><trkpt lat="43.780582488454904" lon="11.167993587085418"><ele>37.0</ele><time>2026-05-03T18:07:58Z</time></trkpt><trkpt lat="43.78053588136957" lon="11.168105292759092"><ele>37.0</ele><time>2026-05-03T18:07:59Z</time></trkpt><trkpt lat="43.780489795835535" lon="11.168203926896414"><ele>37.0</ele><time>2026-05-03T18:08:00Z</time></trkpt><trkpt lat="43.780472429726515" lon="11.168322591165653"><ele>37.0</ele><time>2026-05-03T18:08:01Z</time></trkpt><trkpt lat="43.78043615557985" lon="11.1684026019934"><ele>37.0</ele><time>2026-05-03T18:08:02Z</time></trkpt><trkpt lat="43.78037877603636" lon="11.168531571428936"><ele>37.142857142857146</ele><time>2026-05-03T18:08:04Z</time></trkpt><trkpt lat="43.780341864598476" lon="11.1686113968583"><ele>37.285714285714285</ele><time>2026-05-03T18:08:07Z</time></trkpt><trkpt lat="43.78042461396267" lon="11.168692200884436"><ele>37.42857142857143</ele><time>2026-05-03T18:08:08Z</time></trkpt><trkpt lat="43.78048020863463" lon="11.168751194982745"><ele>37.57142857142857</ele><time>2026-05-03T18:08:11Z</time></trkpt><trkpt lat="43.7805399389646" lon="11.16880092542495"><ele>37.714285714285715</ele><time>2026-05-03T18:08:13Z</time></trkpt><trkpt lat="43.78059830709118" lon="11.168852784122237"><ele>37.857142857142854</ele><time>2026-05-03T18:08:15Z</time></trkpt><trkpt lat="43.78065889033693" lon="11.168890118357226"><ele>38.0</ele><time>2026-05-03T18:08:18Z</time></trkpt><trkpt lat="43.780719312629564" lon="11.168951728952868"><ele>38.0</ele><time>2026-05-03T18:08:22Z</time></trkpt></trkseg></trk></gpx>